<?xml version="1.0" encoding="UTF-8" standalone="no" ?>
<gpx xmlns="http://www.topografix.com/GPX/1/1" xmlns:xsi="http://www.w3.org/2001/XMLSchema-instance" xsi:schemaLocation="http://www.topografix.com/GPX/1/1 http://www.topografix.com/GPX/1/1/gpx.xsd" version="1.1" creator="VisuGPX - https://www.visugpx.com">
  <metadata>
    <name>Etupes Vandoncourt Abbevillers Dampierre</name>
    <desc><![CDATA[Etupes Vandoncourt Abbevillers Dampierre]]></desc>
  </metadata>
  <wpt lat="47.48486" lon="6.88451">
    <ele>415</ele>
    <name><![CDATA[Point de cheminement 1]]></name>
    <desc><![CDATA[]]></desc>
  </wpt>
  <wpt lat="47.4664" lon="6.89866">
    <ele>406</ele>
    <name><![CDATA[Point de cheminement 2]]></name>
    <desc><![CDATA[]]></desc>
  </wpt>
  <wpt lat="47.45691" lon="6.91193">
    <ele>528</ele>
    <name><![CDATA[Point de cheminement 3]]></name>
    <desc><![CDATA[]]></desc>
  </wpt>
  <wpt lat="47.45091" lon="6.91379">
    <ele>578</ele>
    <name><![CDATA[Point de cheminement 4]]></name>
    <desc><![CDATA[]]></desc>
  </wpt>
  <wpt lat="47.42322" lon="6.91658">
    <ele>571</ele>
    <name><![CDATA[Point de cheminement 5]]></name>
    <desc><![CDATA[]]></desc>
  </wpt>
  <wpt lat="47.42159" lon="6.92213">
    <ele>497</ele>
    <name><![CDATA[Point de cheminement 6]]></name>
    <desc><![CDATA[]]></desc>
  </wpt>
  <wpt lat="47.43021" lon="6.93099">
    <ele>578</ele>
    <name><![CDATA[Point de cheminement 7]]></name>
    <desc><![CDATA[]]></desc>
  </wpt>
  <wpt lat="47.45426" lon="6.93488">
    <ele>587</ele>
    <name><![CDATA[Point de cheminement 8]]></name>
    <desc><![CDATA[]]></desc>
  </wpt>
  <wpt lat="47.48221" lon="6.94165">
    <ele>415</ele>
    <name><![CDATA[Point de cheminement 9]]></name>
    <desc><![CDATA[]]></desc>
  </wpt>
  <wpt lat="47.4927" lon="6.94305">
    <ele>372</ele>
    <name><![CDATA[Point de cheminement 10]]></name>
    <desc><![CDATA[]]></desc>
  </wpt>
  <wpt lat="47.51967" lon="6.91457">
    <ele>340</ele>
    <name><![CDATA[Point de cheminement 11]]></name>
    <desc><![CDATA[]]></desc>
  </wpt>
  <wpt lat="47.5133" lon="6.88169">
    <ele>395</ele>
    <name><![CDATA[Point de cheminement 12]]></name>
    <desc><![CDATA[]]></desc>
  </wpt>
  <wpt lat="47.49867" lon="6.86965">
    <ele>359</ele>
    <name><![CDATA[Point de cheminement 13]]></name>
    <desc><![CDATA[]]></desc>
  </wpt>
  <trk>
    <name><![CDATA[30/10/2016 9:22]]></name>
    <desc><![CDATA[]]></desc>
    <trkseg>
      <trkpt lat="47.49843" lon="6.86931">
        <ele>359</ele>
        <time>2016-10-30T08:22:44.110Z</time>
      </trkpt>
      <trkpt lat="47.49853" lon="6.86959">
        <ele>359</ele>
        <time>2016-10-30T08:22:45.000Z</time>
      </trkpt>
      <trkpt lat="47.49856" lon="6.8696">
        <ele>359</ele>
        <time>2016-10-30T08:22:48.000Z</time>
      </trkpt>
      <trkpt lat="47.49857" lon="6.86964">
        <ele>359</ele>
        <time>2016-10-30T08:22:49.000Z</time>
      </trkpt>
      <trkpt lat="47.4986" lon="6.8696">
        <ele>359</ele>
        <time>2016-10-30T08:23:00.000Z</time>
      </trkpt>
      <trkpt lat="47.49859" lon="6.86957">
        <ele>359</ele>
        <time>2016-10-30T08:23:01.000Z</time>
      </trkpt>
      <trkpt lat="47.49858" lon="6.86951">
        <ele>359</ele>
        <time>2016-10-30T08:23:07.000Z</time>
      </trkpt>
      <trkpt lat="47.49857" lon="6.8695">
        <ele>359</ele>
        <time>2016-10-30T08:23:08.000Z</time>
      </trkpt>
      <trkpt lat="47.49861" lon="6.86954">
        <ele>359</ele>
        <time>2016-10-30T08:23:28.000Z</time>
      </trkpt>
      <trkpt lat="47.49861" lon="6.86955">
        <ele>359</ele>
        <time>2016-10-30T08:23:29.000Z</time>
      </trkpt>
      <trkpt lat="47.49865" lon="6.86957">
        <ele>359</ele>
        <time>2016-10-30T08:24:26.000Z</time>
      </trkpt>
      <trkpt lat="47.49866" lon="6.86958">
        <ele>359</ele>
        <time>2016-10-30T08:24:27.000Z</time>
      </trkpt>
      <trkpt lat="47.49869" lon="6.86961">
        <ele>359</ele>
        <time>2016-10-30T08:24:29.000Z</time>
      </trkpt>
      <trkpt lat="47.4987" lon="6.86964">
        <ele>359</ele>
        <time>2016-10-30T08:24:30.000Z</time>
      </trkpt>
      <trkpt lat="47.49872" lon="6.86969">
        <ele>359</ele>
        <time>2016-10-30T08:24:32.000Z</time>
      </trkpt>
      <trkpt lat="47.49872" lon="6.86971">
        <ele>359</ele>
        <time>2016-10-30T08:24:33.000Z</time>
      </trkpt>
      <trkpt lat="47.49873" lon="6.86975">
        <ele>359</ele>
        <time>2016-10-30T08:24:42.000Z</time>
      </trkpt>
      <trkpt lat="47.49874" lon="6.86978">
        <ele>359</ele>
        <time>2016-10-30T08:24:43.000Z</time>
      </trkpt>
      <trkpt lat="47.49875" lon="6.86984">
        <ele>359</ele>
        <time>2016-10-30T08:24:48.000Z</time>
      </trkpt>
      <trkpt lat="47.49874" lon="6.86985">
        <ele>359</ele>
        <time>2016-10-30T08:24:49.000Z</time>
      </trkpt>
      <trkpt lat="47.49871" lon="6.86985">
        <ele>359</ele>
        <time>2016-10-30T08:24:51.000Z</time>
      </trkpt>
      <trkpt lat="47.49869" lon="6.86984">
        <ele>359</ele>
        <time>2016-10-30T08:24:52.000Z</time>
      </trkpt>
      <trkpt lat="47.49868" lon="6.86979">
        <ele>359</ele>
        <time>2016-10-30T08:24:55.000Z</time>
      </trkpt>
      <trkpt lat="47.49869" lon="6.86977">
        <ele>359</ele>
        <time>2016-10-30T08:24:56.000Z</time>
      </trkpt>
      <trkpt lat="47.49873" lon="6.86974">
        <ele>359</ele>
        <time>2016-10-30T08:24:59.000Z</time>
      </trkpt>
      <trkpt lat="47.49874" lon="6.86973">
        <ele>359</ele>
        <time>2016-10-30T08:25:00.000Z</time>
      </trkpt>
      <trkpt lat="47.49878" lon="6.86975">
        <ele>359</ele>
        <time>2016-10-30T08:25:02.000Z</time>
      </trkpt>
      <trkpt lat="47.4988" lon="6.86976">
        <ele>359</ele>
        <time>2016-10-30T08:25:03.000Z</time>
      </trkpt>
      <trkpt lat="47.49882" lon="6.86977">
        <ele>359</ele>
        <time>2016-10-30T08:25:04.000Z</time>
      </trkpt>
      <trkpt lat="47.49884" lon="6.86979">
        <ele>360</ele>
        <time>2016-10-30T08:25:05.000Z</time>
      </trkpt>
      <trkpt lat="47.49885" lon="6.86985">
        <ele>360</ele>
        <time>2016-10-30T08:25:07.000Z</time>
      </trkpt>
      <trkpt lat="47.49883" lon="6.86988">
        <ele>360</ele>
        <time>2016-10-30T08:25:08.000Z</time>
      </trkpt>
      <trkpt lat="47.4988" lon="6.86991">
        <ele>360</ele>
        <time>2016-10-30T08:25:09.000Z</time>
      </trkpt>
      <trkpt lat="47.49877" lon="6.86994">
        <ele>360</ele>
        <time>2016-10-30T08:25:10.000Z</time>
      </trkpt>
      <trkpt lat="47.49873" lon="6.86997">
        <ele>360</ele>
        <time>2016-10-30T08:25:11.000Z</time>
      </trkpt>
      <trkpt lat="47.4987" lon="6.87">
        <ele>359</ele>
        <time>2016-10-30T08:25:12.000Z</time>
      </trkpt>
      <trkpt lat="47.49866" lon="6.87003">
        <ele>364</ele>
        <time>2016-10-30T08:25:13.000Z</time>
      </trkpt>
      <trkpt lat="47.49863" lon="6.87006">
        <ele>364</ele>
        <time>2016-10-30T08:25:14.000Z</time>
      </trkpt>
      <trkpt lat="47.49859" lon="6.8701">
        <ele>364</ele>
        <time>2016-10-30T08:25:15.000Z</time>
      </trkpt>
      <trkpt lat="47.49856" lon="6.87013">
        <ele>363</ele>
        <time>2016-10-30T08:25:16.000Z</time>
      </trkpt>
      <trkpt lat="47.49852" lon="6.87016">
        <ele>363</ele>
        <time>2016-10-30T08:25:17.000Z</time>
      </trkpt>
      <trkpt lat="47.49849" lon="6.87019">
        <ele>363</ele>
        <time>2016-10-30T08:25:18.000Z</time>
      </trkpt>
      <trkpt lat="47.49846" lon="6.87023">
        <ele>363</ele>
        <time>2016-10-30T08:25:19.000Z</time>
      </trkpt>
      <trkpt lat="47.49843" lon="6.87027">
        <ele>364</ele>
        <time>2016-10-30T08:25:20.000Z</time>
      </trkpt>
      <trkpt lat="47.4984" lon="6.87031">
        <ele>364</ele>
        <time>2016-10-30T08:25:21.000Z</time>
      </trkpt>
      <trkpt lat="47.49836" lon="6.87034">
        <ele>364</ele>
        <time>2016-10-30T08:25:22.000Z</time>
      </trkpt>
      <trkpt lat="47.49833" lon="6.87038">
        <ele>361</ele>
        <time>2016-10-30T08:25:23.000Z</time>
      </trkpt>
      <trkpt lat="47.4983" lon="6.8704">
        <ele>361</ele>
        <time>2016-10-30T08:25:24.000Z</time>
      </trkpt>
      <trkpt lat="47.49826" lon="6.87041">
        <ele>361</ele>
        <time>2016-10-30T08:25:25.000Z</time>
      </trkpt>
      <trkpt lat="47.49823" lon="6.87039">
        <ele>361</ele>
        <time>2016-10-30T08:25:26.000Z</time>
      </trkpt>
      <trkpt lat="47.4982" lon="6.87036">
        <ele>361</ele>
        <time>2016-10-30T08:25:27.000Z</time>
      </trkpt>
      <trkpt lat="47.49817" lon="6.87032">
        <ele>361</ele>
        <time>2016-10-30T08:25:28.000Z</time>
      </trkpt>
      <trkpt lat="47.49814" lon="6.87027">
        <ele>361</ele>
        <time>2016-10-30T08:25:29.000Z</time>
      </trkpt>
      <trkpt lat="47.49812" lon="6.87022">
        <ele>361</ele>
        <time>2016-10-30T08:25:30.000Z</time>
      </trkpt>
      <trkpt lat="47.4981" lon="6.87019">
        <ele>361</ele>
        <time>2016-10-30T08:25:31.000Z</time>
      </trkpt>
      <trkpt lat="47.49809" lon="6.87016">
        <ele>360</ele>
        <time>2016-10-30T08:25:32.000Z</time>
      </trkpt>
      <trkpt lat="47.49806" lon="6.87012">
        <ele>361</ele>
        <time>2016-10-30T08:25:34.000Z</time>
      </trkpt>
      <trkpt lat="47.49804" lon="6.87011">
        <ele>361</ele>
        <time>2016-10-30T08:25:35.000Z</time>
      </trkpt>
      <trkpt lat="47.49801" lon="6.87009">
        <ele>361</ele>
        <time>2016-10-30T08:25:37.000Z</time>
      </trkpt>
      <trkpt lat="47.498" lon="6.87008">
        <ele>361</ele>
        <time>2016-10-30T08:25:38.000Z</time>
      </trkpt>
      <trkpt lat="47.49796" lon="6.87008">
        <ele>361</ele>
        <time>2016-10-30T08:25:40.000Z</time>
      </trkpt>
      <trkpt lat="47.49795" lon="6.87008">
        <ele>361</ele>
        <time>2016-10-30T08:25:41.000Z</time>
      </trkpt>
      <trkpt lat="47.49791" lon="6.8701">
        <ele>361</ele>
        <time>2016-10-30T08:25:44.000Z</time>
      </trkpt>
      <trkpt lat="47.49788" lon="6.87011">
        <ele>361</ele>
        <time>2016-10-30T08:25:45.000Z</time>
      </trkpt>
      <trkpt lat="47.49785" lon="6.87012">
        <ele>361</ele>
        <time>2016-10-30T08:25:46.000Z</time>
      </trkpt>
      <trkpt lat="47.49782" lon="6.87013">
        <ele>361</ele>
        <time>2016-10-30T08:25:47.000Z</time>
      </trkpt>
      <trkpt lat="47.49778" lon="6.87013">
        <ele>361</ele>
        <time>2016-10-30T08:25:48.000Z</time>
      </trkpt>
      <trkpt lat="47.49775" lon="6.87014">
        <ele>362</ele>
        <time>2016-10-30T08:25:49.000Z</time>
      </trkpt>
      <trkpt lat="47.49772" lon="6.87015">
        <ele>362</ele>
        <time>2016-10-30T08:25:50.000Z</time>
      </trkpt>
      <trkpt lat="47.4977" lon="6.87016">
        <ele>362</ele>
        <time>2016-10-30T08:25:51.000Z</time>
      </trkpt>
      <trkpt lat="47.49767" lon="6.87017">
        <ele>362</ele>
        <time>2016-10-30T08:25:52.000Z</time>
      </trkpt>
      <trkpt lat="47.49764" lon="6.87018">
        <ele>362</ele>
        <time>2016-10-30T08:25:53.000Z</time>
      </trkpt>
      <trkpt lat="47.49762" lon="6.8702">
        <ele>362</ele>
        <time>2016-10-30T08:25:54.000Z</time>
      </trkpt>
      <trkpt lat="47.49759" lon="6.87022">
        <ele>362</ele>
        <time>2016-10-30T08:25:55.000Z</time>
      </trkpt>
      <trkpt lat="47.49756" lon="6.87025">
        <ele>362</ele>
        <time>2016-10-30T08:25:56.000Z</time>
      </trkpt>
      <trkpt lat="47.49754" lon="6.87026">
        <ele>362</ele>
        <time>2016-10-30T08:25:57.000Z</time>
      </trkpt>
      <trkpt lat="47.49752" lon="6.87028">
        <ele>362</ele>
        <time>2016-10-30T08:25:58.000Z</time>
      </trkpt>
      <trkpt lat="47.49749" lon="6.8703">
        <ele>364</ele>
        <time>2016-10-30T08:25:59.000Z</time>
      </trkpt>
      <trkpt lat="47.49746" lon="6.87031">
        <ele>364</ele>
        <time>2016-10-30T08:26:00.000Z</time>
      </trkpt>
      <trkpt lat="47.49744" lon="6.87033">
        <ele>364</ele>
        <time>2016-10-30T08:26:01.000Z</time>
      </trkpt>
      <trkpt lat="47.49741" lon="6.87037">
        <ele>364</ele>
        <time>2016-10-30T08:26:02.000Z</time>
      </trkpt>
      <trkpt lat="47.49738" lon="6.87047">
        <ele>363</ele>
        <time>2016-10-30T08:26:03.000Z</time>
      </trkpt>
      <trkpt lat="47.49734" lon="6.87053">
        <ele>363</ele>
        <time>2016-10-30T08:26:04.000Z</time>
      </trkpt>
      <trkpt lat="47.4973" lon="6.8706">
        <ele>363</ele>
        <time>2016-10-30T08:26:05.000Z</time>
      </trkpt>
      <trkpt lat="47.49726" lon="6.87066">
        <ele>363</ele>
        <time>2016-10-30T08:26:06.000Z</time>
      </trkpt>
      <trkpt lat="47.49721" lon="6.87073">
        <ele>363</ele>
        <time>2016-10-30T08:26:07.000Z</time>
      </trkpt>
      <trkpt lat="47.49717" lon="6.87077">
        <ele>363</ele>
        <time>2016-10-30T08:26:08.000Z</time>
      </trkpt>
      <trkpt lat="47.49713" lon="6.87082">
        <ele>363</ele>
        <time>2016-10-30T08:26:09.000Z</time>
      </trkpt>
      <trkpt lat="47.49709" lon="6.87087">
        <ele>362</ele>
        <time>2016-10-30T08:26:10.000Z</time>
      </trkpt>
      <trkpt lat="47.49706" lon="6.87091">
        <ele>362</ele>
        <time>2016-10-30T08:26:11.000Z</time>
      </trkpt>
      <trkpt lat="47.49702" lon="6.87094">
        <ele>362</ele>
        <time>2016-10-30T08:26:12.000Z</time>
      </trkpt>
      <trkpt lat="47.49699" lon="6.87097">
        <ele>362</ele>
        <time>2016-10-30T08:26:13.000Z</time>
      </trkpt>
      <trkpt lat="47.49696" lon="6.871">
        <ele>362</ele>
        <time>2016-10-30T08:26:14.000Z</time>
      </trkpt>
      <trkpt lat="47.49693" lon="6.87103">
        <ele>362</ele>
        <time>2016-10-30T08:26:15.000Z</time>
      </trkpt>
      <trkpt lat="47.4969" lon="6.87107">
        <ele>363</ele>
        <time>2016-10-30T08:26:16.000Z</time>
      </trkpt>
      <trkpt lat="47.49687" lon="6.87111">
        <ele>363</ele>
        <time>2016-10-30T08:26:17.000Z</time>
      </trkpt>
      <trkpt lat="47.49686" lon="6.87116">
        <ele>363</ele>
        <time>2016-10-30T08:26:18.000Z</time>
      </trkpt>
      <trkpt lat="47.49684" lon="6.8712">
        <ele>363</ele>
        <time>2016-10-30T08:26:19.000Z</time>
      </trkpt>
      <trkpt lat="47.49682" lon="6.87125">
        <ele>363</ele>
        <time>2016-10-30T08:26:20.000Z</time>
      </trkpt>
      <trkpt lat="47.4968" lon="6.87129">
        <ele>363</ele>
        <time>2016-10-30T08:26:21.000Z</time>
      </trkpt>
      <trkpt lat="47.49679" lon="6.87134">
        <ele>363</ele>
        <time>2016-10-30T08:26:22.000Z</time>
      </trkpt>
      <trkpt lat="47.49677" lon="6.8714">
        <ele>363</ele>
        <time>2016-10-30T08:26:23.000Z</time>
      </trkpt>
      <trkpt lat="47.49676" lon="6.87146">
        <ele>363</ele>
        <time>2016-10-30T08:26:24.000Z</time>
      </trkpt>
      <trkpt lat="47.49675" lon="6.87152">
        <ele>363</ele>
        <time>2016-10-30T08:26:25.000Z</time>
      </trkpt>
      <trkpt lat="47.49674" lon="6.87158">
        <ele>363</ele>
        <time>2016-10-30T08:26:26.000Z</time>
      </trkpt>
      <trkpt lat="47.49673" lon="6.87164">
        <ele>363</ele>
        <time>2016-10-30T08:26:27.000Z</time>
      </trkpt>
      <trkpt lat="47.49674" lon="6.87169">
        <ele>364</ele>
        <time>2016-10-30T08:26:57.000Z</time>
      </trkpt>
      <trkpt lat="47.49675" lon="6.87169">
        <ele>364</ele>
        <time>2016-10-30T08:26:58.000Z</time>
      </trkpt>
      <trkpt lat="47.49672" lon="6.87174">
        <ele>364</ele>
        <time>2016-10-30T08:27:30.000Z</time>
      </trkpt>
      <trkpt lat="47.49671" lon="6.87176">
        <ele>364</ele>
        <time>2016-10-30T08:27:31.000Z</time>
      </trkpt>
      <trkpt lat="47.49669" lon="6.87178">
        <ele>364</ele>
        <time>2016-10-30T08:27:32.000Z</time>
      </trkpt>
      <trkpt lat="47.49666" lon="6.8718">
        <ele>365</ele>
        <time>2016-10-30T08:27:33.000Z</time>
      </trkpt>
      <trkpt lat="47.49663" lon="6.87183">
        <ele>365</ele>
        <time>2016-10-30T08:27:34.000Z</time>
      </trkpt>
      <trkpt lat="47.4966" lon="6.87187">
        <ele>366</ele>
        <time>2016-10-30T08:27:35.000Z</time>
      </trkpt>
      <trkpt lat="47.49657" lon="6.87191">
        <ele>366</ele>
        <time>2016-10-30T08:27:36.000Z</time>
      </trkpt>
      <trkpt lat="47.49652" lon="6.872">
        <ele>367</ele>
        <time>2016-10-30T08:27:37.000Z</time>
      </trkpt>
      <trkpt lat="47.4965" lon="6.87208">
        <ele>367</ele>
        <time>2016-10-30T08:27:38.000Z</time>
      </trkpt>
      <trkpt lat="47.49647" lon="6.87215">
        <ele>367</ele>
        <time>2016-10-30T08:27:39.000Z</time>
      </trkpt>
      <trkpt lat="47.49644" lon="6.87221">
        <ele>368</ele>
        <time>2016-10-30T08:27:40.000Z</time>
      </trkpt>
      <trkpt lat="47.49641" lon="6.87227">
        <ele>368</ele>
        <time>2016-10-30T08:27:41.000Z</time>
      </trkpt>
      <trkpt lat="47.49637" lon="6.87231">
        <ele>368</ele>
        <time>2016-10-30T08:27:42.000Z</time>
      </trkpt>
      <trkpt lat="47.49634" lon="6.87234">
        <ele>368</ele>
        <time>2016-10-30T08:27:43.000Z</time>
      </trkpt>
      <trkpt lat="47.49631" lon="6.87238">
        <ele>368</ele>
        <time>2016-10-30T08:27:44.000Z</time>
      </trkpt>
      <trkpt lat="47.49629" lon="6.87242">
        <ele>368</ele>
        <time>2016-10-30T08:27:45.000Z</time>
      </trkpt>
      <trkpt lat="47.49629" lon="6.87245">
        <ele>368</ele>
        <time>2016-10-30T08:27:46.000Z</time>
      </trkpt>
      <trkpt lat="47.49627" lon="6.87249">
        <ele>368</ele>
        <time>2016-10-30T08:27:47.000Z</time>
      </trkpt>
      <trkpt lat="47.49625" lon="6.87253">
        <ele>370</ele>
        <time>2016-10-30T08:27:48.000Z</time>
      </trkpt>
      <trkpt lat="47.49625" lon="6.87256">
        <ele>370</ele>
        <time>2016-10-30T08:27:49.000Z</time>
      </trkpt>
      <trkpt lat="47.49624" lon="6.8726">
        <ele>370</ele>
        <time>2016-10-30T08:27:50.000Z</time>
      </trkpt>
      <trkpt lat="47.49623" lon="6.87262">
        <ele>370</ele>
        <time>2016-10-30T08:27:51.000Z</time>
      </trkpt>
      <trkpt lat="47.49622" lon="6.87266">
        <ele>370</ele>
        <time>2016-10-30T08:27:52.000Z</time>
      </trkpt>
      <trkpt lat="47.49621" lon="6.87269">
        <ele>370</ele>
        <time>2016-10-30T08:27:53.000Z</time>
      </trkpt>
      <trkpt lat="47.49619" lon="6.87273">
        <ele>370</ele>
        <time>2016-10-30T08:27:54.000Z</time>
      </trkpt>
      <trkpt lat="47.49617" lon="6.87277">
        <ele>370</ele>
        <time>2016-10-30T08:27:55.000Z</time>
      </trkpt>
      <trkpt lat="47.49615" lon="6.8728">
        <ele>370</ele>
        <time>2016-10-30T08:27:56.000Z</time>
      </trkpt>
      <trkpt lat="47.49613" lon="6.87284">
        <ele>370</ele>
        <time>2016-10-30T08:27:57.000Z</time>
      </trkpt>
      <trkpt lat="47.49611" lon="6.87288">
        <ele>371</ele>
        <time>2016-10-30T08:27:58.000Z</time>
      </trkpt>
      <trkpt lat="47.49609" lon="6.87292">
        <ele>371</ele>
        <time>2016-10-30T08:27:59.000Z</time>
      </trkpt>
      <trkpt lat="47.49606" lon="6.87296">
        <ele>371</ele>
        <time>2016-10-30T08:28:00.000Z</time>
      </trkpt>
      <trkpt lat="47.49604" lon="6.873">
        <ele>370</ele>
        <time>2016-10-30T08:28:01.000Z</time>
      </trkpt>
      <trkpt lat="47.49602" lon="6.87304">
        <ele>370</ele>
        <time>2016-10-30T08:28:02.000Z</time>
      </trkpt>
      <trkpt lat="47.49599" lon="6.87307">
        <ele>370</ele>
        <time>2016-10-30T08:28:03.000Z</time>
      </trkpt>
      <trkpt lat="47.49596" lon="6.87309">
        <ele>370</ele>
        <time>2016-10-30T08:28:04.000Z</time>
      </trkpt>
      <trkpt lat="47.49593" lon="6.87312">
        <ele>370</ele>
        <time>2016-10-30T08:28:05.000Z</time>
      </trkpt>
      <trkpt lat="47.4959" lon="6.87314">
        <ele>370</ele>
        <time>2016-10-30T08:28:06.000Z</time>
      </trkpt>
      <trkpt lat="47.49586" lon="6.87317">
        <ele>370</ele>
        <time>2016-10-30T08:28:07.000Z</time>
      </trkpt>
      <trkpt lat="47.49584" lon="6.8732">
        <ele>369</ele>
        <time>2016-10-30T08:28:08.000Z</time>
      </trkpt>
      <trkpt lat="47.49581" lon="6.87324">
        <ele>369</ele>
        <time>2016-10-30T08:28:09.000Z</time>
      </trkpt>
      <trkpt lat="47.49579" lon="6.87329">
        <ele>369</ele>
        <time>2016-10-30T08:28:10.000Z</time>
      </trkpt>
      <trkpt lat="47.49578" lon="6.87334">
        <ele>369</ele>
        <time>2016-10-30T08:28:11.000Z</time>
      </trkpt>
      <trkpt lat="47.49577" lon="6.87339">
        <ele>369</ele>
        <time>2016-10-30T08:28:12.000Z</time>
      </trkpt>
      <trkpt lat="47.49576" lon="6.87345">
        <ele>369</ele>
        <time>2016-10-30T08:28:13.000Z</time>
      </trkpt>
      <trkpt lat="47.49575" lon="6.87352">
        <ele>370</ele>
        <time>2016-10-30T08:28:14.000Z</time>
      </trkpt>
      <trkpt lat="47.49574" lon="6.87358">
        <ele>370</ele>
        <time>2016-10-30T08:28:15.000Z</time>
      </trkpt>
      <trkpt lat="47.49573" lon="6.87364">
        <ele>370</ele>
        <time>2016-10-30T08:28:16.000Z</time>
      </trkpt>
      <trkpt lat="47.49571" lon="6.87369">
        <ele>370</ele>
        <time>2016-10-30T08:28:17.000Z</time>
      </trkpt>
      <trkpt lat="47.49569" lon="6.87374">
        <ele>370</ele>
        <time>2016-10-30T08:28:18.000Z</time>
      </trkpt>
      <trkpt lat="47.49567" lon="6.87379">
        <ele>370</ele>
        <time>2016-10-30T08:28:19.000Z</time>
      </trkpt>
      <trkpt lat="47.49565" lon="6.87383">
        <ele>370</ele>
        <time>2016-10-30T08:28:20.000Z</time>
      </trkpt>
      <trkpt lat="47.49563" lon="6.87387">
        <ele>370</ele>
        <time>2016-10-30T08:28:21.000Z</time>
      </trkpt>
      <trkpt lat="47.49561" lon="6.87392">
        <ele>370</ele>
        <time>2016-10-30T08:28:22.000Z</time>
      </trkpt>
      <trkpt lat="47.49558" lon="6.87396">
        <ele>370</ele>
        <time>2016-10-30T08:28:23.000Z</time>
      </trkpt>
      <trkpt lat="47.49556" lon="6.874">
        <ele>370</ele>
        <time>2016-10-30T08:28:24.000Z</time>
      </trkpt>
      <trkpt lat="47.49554" lon="6.87403">
        <ele>370</ele>
        <time>2016-10-30T08:28:25.000Z</time>
      </trkpt>
      <trkpt lat="47.49551" lon="6.87407">
        <ele>370</ele>
        <time>2016-10-30T08:28:26.000Z</time>
      </trkpt>
      <trkpt lat="47.49548" lon="6.87409">
        <ele>370</ele>
        <time>2016-10-30T08:28:27.000Z</time>
      </trkpt>
      <trkpt lat="47.49545" lon="6.87412">
        <ele>371</ele>
        <time>2016-10-30T08:28:28.000Z</time>
      </trkpt>
      <trkpt lat="47.49543" lon="6.87415">
        <ele>371</ele>
        <time>2016-10-30T08:28:29.000Z</time>
      </trkpt>
      <trkpt lat="47.4954" lon="6.87418">
        <ele>371</ele>
        <time>2016-10-30T08:28:30.000Z</time>
      </trkpt>
      <trkpt lat="47.49538" lon="6.87422">
        <ele>371</ele>
        <time>2016-10-30T08:28:31.000Z</time>
      </trkpt>
      <trkpt lat="47.49537" lon="6.87427">
        <ele>371</ele>
        <time>2016-10-30T08:28:32.000Z</time>
      </trkpt>
      <trkpt lat="47.49537" lon="6.87433">
        <ele>371</ele>
        <time>2016-10-30T08:28:33.000Z</time>
      </trkpt>
      <trkpt lat="47.49537" lon="6.87438">
        <ele>371</ele>
        <time>2016-10-30T08:28:34.000Z</time>
      </trkpt>
      <trkpt lat="47.49539" lon="6.87448">
        <ele>371</ele>
        <time>2016-10-30T08:28:35.000Z</time>
      </trkpt>
      <trkpt lat="47.49538" lon="6.87454">
        <ele>371</ele>
        <time>2016-10-30T08:28:36.000Z</time>
      </trkpt>
      <trkpt lat="47.49537" lon="6.87459">
        <ele>371</ele>
        <time>2016-10-30T08:28:37.000Z</time>
      </trkpt>
      <trkpt lat="47.49536" lon="6.87463">
        <ele>371</ele>
        <time>2016-10-30T08:28:38.000Z</time>
      </trkpt>
      <trkpt lat="47.49534" lon="6.87469">
        <ele>371</ele>
        <time>2016-10-30T08:28:39.000Z</time>
      </trkpt>
      <trkpt lat="47.49533" lon="6.87474">
        <ele>371</ele>
        <time>2016-10-30T08:28:40.000Z</time>
      </trkpt>
      <trkpt lat="47.49533" lon="6.87478">
        <ele>371</ele>
        <time>2016-10-30T08:28:41.000Z</time>
      </trkpt>
      <trkpt lat="47.49533" lon="6.87483">
        <ele>371</ele>
        <time>2016-10-30T08:28:42.000Z</time>
      </trkpt>
      <trkpt lat="47.49534" lon="6.87488">
        <ele>371</ele>
        <time>2016-10-30T08:28:43.000Z</time>
      </trkpt>
      <trkpt lat="47.49534" lon="6.87493">
        <ele>371</ele>
        <time>2016-10-30T08:28:44.000Z</time>
      </trkpt>
      <trkpt lat="47.49534" lon="6.87498">
        <ele>371</ele>
        <time>2016-10-30T08:28:45.000Z</time>
      </trkpt>
      <trkpt lat="47.49534" lon="6.87504">
        <ele>371</ele>
        <time>2016-10-30T08:28:46.000Z</time>
      </trkpt>
      <trkpt lat="47.49533" lon="6.87509">
        <ele>371</ele>
        <time>2016-10-30T08:28:47.000Z</time>
      </trkpt>
      <trkpt lat="47.49533" lon="6.87514">
        <ele>371</ele>
        <time>2016-10-30T08:28:48.000Z</time>
      </trkpt>
      <trkpt lat="47.49533" lon="6.8752">
        <ele>371</ele>
        <time>2016-10-30T08:28:49.000Z</time>
      </trkpt>
      <trkpt lat="47.49533" lon="6.87525">
        <ele>371</ele>
        <time>2016-10-30T08:28:50.000Z</time>
      </trkpt>
      <trkpt lat="47.49533" lon="6.8753">
        <ele>371</ele>
        <time>2016-10-30T08:28:51.000Z</time>
      </trkpt>
      <trkpt lat="47.49533" lon="6.87535">
        <ele>371</ele>
        <time>2016-10-30T08:28:52.000Z</time>
      </trkpt>
      <trkpt lat="47.49533" lon="6.8754">
        <ele>371</ele>
        <time>2016-10-30T08:28:53.000Z</time>
      </trkpt>
      <trkpt lat="47.49533" lon="6.87545">
        <ele>371</ele>
        <time>2016-10-30T08:28:54.000Z</time>
      </trkpt>
      <trkpt lat="47.49532" lon="6.87551">
        <ele>371</ele>
        <time>2016-10-30T08:28:55.000Z</time>
      </trkpt>
      <trkpt lat="47.49532" lon="6.87556">
        <ele>371</ele>
        <time>2016-10-30T08:28:56.000Z</time>
      </trkpt>
      <trkpt lat="47.49531" lon="6.87561">
        <ele>371</ele>
        <time>2016-10-30T08:28:57.000Z</time>
      </trkpt>
      <trkpt lat="47.4953" lon="6.87566">
        <ele>371</ele>
        <time>2016-10-30T08:28:58.000Z</time>
      </trkpt>
      <trkpt lat="47.49528" lon="6.87571">
        <ele>371</ele>
        <time>2016-10-30T08:28:59.000Z</time>
      </trkpt>
      <trkpt lat="47.49527" lon="6.87576">
        <ele>371</ele>
        <time>2016-10-30T08:29:00.000Z</time>
      </trkpt>
      <trkpt lat="47.49525" lon="6.8758">
        <ele>371</ele>
        <time>2016-10-30T08:29:01.000Z</time>
      </trkpt>
      <trkpt lat="47.49523" lon="6.87584">
        <ele>371</ele>
        <time>2016-10-30T08:29:02.000Z</time>
      </trkpt>
      <trkpt lat="47.49522" lon="6.87589">
        <ele>371</ele>
        <time>2016-10-30T08:29:03.000Z</time>
      </trkpt>
      <trkpt lat="47.49521" lon="6.87594">
        <ele>371</ele>
        <time>2016-10-30T08:29:04.000Z</time>
      </trkpt>
      <trkpt lat="47.49519" lon="6.87599">
        <ele>371</ele>
        <time>2016-10-30T08:29:05.000Z</time>
      </trkpt>
      <trkpt lat="47.49518" lon="6.87604">
        <ele>371</ele>
        <time>2016-10-30T08:29:06.000Z</time>
      </trkpt>
      <trkpt lat="47.49517" lon="6.87609">
        <ele>372</ele>
        <time>2016-10-30T08:29:07.000Z</time>
      </trkpt>
      <trkpt lat="47.49515" lon="6.87614">
        <ele>372</ele>
        <time>2016-10-30T08:29:08.000Z</time>
      </trkpt>
      <trkpt lat="47.49513" lon="6.87619">
        <ele>372</ele>
        <time>2016-10-30T08:29:09.000Z</time>
      </trkpt>
      <trkpt lat="47.49512" lon="6.87624">
        <ele>372</ele>
        <time>2016-10-30T08:29:10.000Z</time>
      </trkpt>
      <trkpt lat="47.4951" lon="6.87628">
        <ele>372</ele>
        <time>2016-10-30T08:29:11.000Z</time>
      </trkpt>
      <trkpt lat="47.49508" lon="6.87631">
        <ele>372</ele>
        <time>2016-10-30T08:29:12.000Z</time>
      </trkpt>
      <trkpt lat="47.49507" lon="6.87635">
        <ele>372</ele>
        <time>2016-10-30T08:29:13.000Z</time>
      </trkpt>
      <trkpt lat="47.49505" lon="6.87639">
        <ele>372</ele>
        <time>2016-10-30T08:29:14.000Z</time>
      </trkpt>
      <trkpt lat="47.49503" lon="6.87643">
        <ele>372</ele>
        <time>2016-10-30T08:29:15.000Z</time>
      </trkpt>
      <trkpt lat="47.49502" lon="6.87647">
        <ele>372</ele>
        <time>2016-10-30T08:29:16.000Z</time>
      </trkpt>
      <trkpt lat="47.49501" lon="6.87652">
        <ele>372</ele>
        <time>2016-10-30T08:29:17.000Z</time>
      </trkpt>
      <trkpt lat="47.495" lon="6.87657">
        <ele>373</ele>
        <time>2016-10-30T08:29:18.000Z</time>
      </trkpt>
      <trkpt lat="47.49499" lon="6.87662">
        <ele>372</ele>
        <time>2016-10-30T08:29:19.000Z</time>
      </trkpt>
      <trkpt lat="47.49498" lon="6.87667">
        <ele>371</ele>
        <time>2016-10-30T08:29:20.000Z</time>
      </trkpt>
      <trkpt lat="47.49497" lon="6.87672">
        <ele>372</ele>
        <time>2016-10-30T08:29:21.000Z</time>
      </trkpt>
      <trkpt lat="47.49496" lon="6.87677">
        <ele>373</ele>
        <time>2016-10-30T08:29:22.000Z</time>
      </trkpt>
      <trkpt lat="47.49496" lon="6.87682">
        <ele>373</ele>
        <time>2016-10-30T08:29:23.000Z</time>
      </trkpt>
      <trkpt lat="47.49497" lon="6.87688">
        <ele>374</ele>
        <time>2016-10-30T08:29:24.000Z</time>
      </trkpt>
      <trkpt lat="47.49498" lon="6.87693">
        <ele>374</ele>
        <time>2016-10-30T08:29:25.000Z</time>
      </trkpt>
      <trkpt lat="47.49499" lon="6.87699">
        <ele>374</ele>
        <time>2016-10-30T08:29:26.000Z</time>
      </trkpt>
      <trkpt lat="47.49498" lon="6.87704">
        <ele>374</ele>
        <time>2016-10-30T08:29:27.000Z</time>
      </trkpt>
      <trkpt lat="47.49498" lon="6.87709">
        <ele>374</ele>
        <time>2016-10-30T08:29:28.000Z</time>
      </trkpt>
      <trkpt lat="47.49497" lon="6.87714">
        <ele>374</ele>
        <time>2016-10-30T08:29:29.000Z</time>
      </trkpt>
      <trkpt lat="47.49496" lon="6.87718">
        <ele>374</ele>
        <time>2016-10-30T08:29:30.000Z</time>
      </trkpt>
      <trkpt lat="47.49493" lon="6.87721">
        <ele>374</ele>
        <time>2016-10-30T08:29:31.000Z</time>
      </trkpt>
      <trkpt lat="47.49491" lon="6.87724">
        <ele>374</ele>
        <time>2016-10-30T08:29:32.000Z</time>
      </trkpt>
      <trkpt lat="47.49488" lon="6.87727">
        <ele>374</ele>
        <time>2016-10-30T08:29:33.000Z</time>
      </trkpt>
      <trkpt lat="47.49485" lon="6.8773">
        <ele>374</ele>
        <time>2016-10-30T08:29:34.000Z</time>
      </trkpt>
      <trkpt lat="47.49483" lon="6.87733">
        <ele>374</ele>
        <time>2016-10-30T08:29:35.000Z</time>
      </trkpt>
      <trkpt lat="47.49481" lon="6.87737">
        <ele>374</ele>
        <time>2016-10-30T08:29:36.000Z</time>
      </trkpt>
      <trkpt lat="47.49478" lon="6.8774">
        <ele>374</ele>
        <time>2016-10-30T08:29:37.000Z</time>
      </trkpt>
      <trkpt lat="47.49476" lon="6.87745">
        <ele>374</ele>
        <time>2016-10-30T08:29:38.000Z</time>
      </trkpt>
      <trkpt lat="47.49474" lon="6.87749">
        <ele>374</ele>
        <time>2016-10-30T08:29:39.000Z</time>
      </trkpt>
      <trkpt lat="47.49471" lon="6.87754">
        <ele>374</ele>
        <time>2016-10-30T08:29:40.000Z</time>
      </trkpt>
      <trkpt lat="47.4947" lon="6.87759">
        <ele>374</ele>
        <time>2016-10-30T08:29:41.000Z</time>
      </trkpt>
      <trkpt lat="47.49467" lon="6.87763">
        <ele>375</ele>
        <time>2016-10-30T08:29:42.000Z</time>
      </trkpt>
      <trkpt lat="47.49465" lon="6.87767">
        <ele>375</ele>
        <time>2016-10-30T08:29:43.000Z</time>
      </trkpt>
      <trkpt lat="47.49463" lon="6.87771">
        <ele>375</ele>
        <time>2016-10-30T08:29:44.000Z</time>
      </trkpt>
      <trkpt lat="47.4946" lon="6.87775">
        <ele>375</ele>
        <time>2016-10-30T08:29:45.000Z</time>
      </trkpt>
      <trkpt lat="47.49458" lon="6.87779">
        <ele>375</ele>
        <time>2016-10-30T08:29:46.000Z</time>
      </trkpt>
      <trkpt lat="47.49455" lon="6.87783">
        <ele>376</ele>
        <time>2016-10-30T08:29:47.000Z</time>
      </trkpt>
      <trkpt lat="47.49453" lon="6.87788">
        <ele>376</ele>
        <time>2016-10-30T08:29:48.000Z</time>
      </trkpt>
      <trkpt lat="47.49451" lon="6.87792">
        <ele>376</ele>
        <time>2016-10-30T08:29:49.000Z</time>
      </trkpt>
      <trkpt lat="47.49449" lon="6.87796">
        <ele>376</ele>
        <time>2016-10-30T08:29:50.000Z</time>
      </trkpt>
      <trkpt lat="47.49447" lon="6.87801">
        <ele>376</ele>
        <time>2016-10-30T08:29:51.000Z</time>
      </trkpt>
      <trkpt lat="47.49445" lon="6.87806">
        <ele>376</ele>
        <time>2016-10-30T08:29:52.000Z</time>
      </trkpt>
      <trkpt lat="47.49444" lon="6.87811">
        <ele>376</ele>
        <time>2016-10-30T08:29:53.000Z</time>
      </trkpt>
      <trkpt lat="47.49443" lon="6.87816">
        <ele>376</ele>
        <time>2016-10-30T08:29:54.000Z</time>
      </trkpt>
      <trkpt lat="47.49442" lon="6.87821">
        <ele>376</ele>
        <time>2016-10-30T08:29:55.000Z</time>
      </trkpt>
      <trkpt lat="47.49442" lon="6.87826">
        <ele>376</ele>
        <time>2016-10-30T08:29:56.000Z</time>
      </trkpt>
      <trkpt lat="47.4944" lon="6.8783">
        <ele>376</ele>
        <time>2016-10-30T08:29:57.000Z</time>
      </trkpt>
      <trkpt lat="47.49439" lon="6.87834">
        <ele>377</ele>
        <time>2016-10-30T08:29:58.000Z</time>
      </trkpt>
      <trkpt lat="47.49437" lon="6.87839">
        <ele>377</ele>
        <time>2016-10-30T08:29:59.000Z</time>
      </trkpt>
      <trkpt lat="47.49435" lon="6.87843">
        <ele>377</ele>
        <time>2016-10-30T08:30:00.000Z</time>
      </trkpt>
      <trkpt lat="47.49433" lon="6.87847">
        <ele>377</ele>
        <time>2016-10-30T08:30:01.000Z</time>
      </trkpt>
      <trkpt lat="47.49431" lon="6.87852">
        <ele>377</ele>
        <time>2016-10-30T08:30:02.000Z</time>
      </trkpt>
      <trkpt lat="47.49428" lon="6.87856">
        <ele>377</ele>
        <time>2016-10-30T08:30:03.000Z</time>
      </trkpt>
      <trkpt lat="47.49426" lon="6.87861">
        <ele>377</ele>
        <time>2016-10-30T08:30:04.000Z</time>
      </trkpt>
      <trkpt lat="47.49425" lon="6.87866">
        <ele>377</ele>
        <time>2016-10-30T08:30:05.000Z</time>
      </trkpt>
      <trkpt lat="47.49423" lon="6.87871">
        <ele>377</ele>
        <time>2016-10-30T08:30:06.000Z</time>
      </trkpt>
      <trkpt lat="47.49422" lon="6.87875">
        <ele>377</ele>
        <time>2016-10-30T08:30:07.000Z</time>
      </trkpt>
      <trkpt lat="47.49422" lon="6.87879">
        <ele>377</ele>
        <time>2016-10-30T08:30:08.000Z</time>
      </trkpt>
      <trkpt lat="47.49421" lon="6.87883">
        <ele>377</ele>
        <time>2016-10-30T08:30:09.000Z</time>
      </trkpt>
      <trkpt lat="47.49421" lon="6.87887">
        <ele>377</ele>
        <time>2016-10-30T08:30:10.000Z</time>
      </trkpt>
      <trkpt lat="47.4942" lon="6.87892">
        <ele>377</ele>
        <time>2016-10-30T08:30:11.000Z</time>
      </trkpt>
      <trkpt lat="47.4942" lon="6.87897">
        <ele>377</ele>
        <time>2016-10-30T08:30:12.000Z</time>
      </trkpt>
      <trkpt lat="47.49419" lon="6.87903">
        <ele>376</ele>
        <time>2016-10-30T08:30:13.000Z</time>
      </trkpt>
      <trkpt lat="47.49418" lon="6.87909">
        <ele>376</ele>
        <time>2016-10-30T08:30:14.000Z</time>
      </trkpt>
      <trkpt lat="47.49417" lon="6.87915">
        <ele>375</ele>
        <time>2016-10-30T08:30:15.000Z</time>
      </trkpt>
      <trkpt lat="47.49416" lon="6.87921">
        <ele>376</ele>
        <time>2016-10-30T08:30:16.000Z</time>
      </trkpt>
      <trkpt lat="47.49415" lon="6.87927">
        <ele>378</ele>
        <time>2016-10-30T08:30:17.000Z</time>
      </trkpt>
      <trkpt lat="47.49414" lon="6.87933">
        <ele>378</ele>
        <time>2016-10-30T08:30:18.000Z</time>
      </trkpt>
      <trkpt lat="47.49414" lon="6.87938">
        <ele>379</ele>
        <time>2016-10-30T08:30:19.000Z</time>
      </trkpt>
      <trkpt lat="47.49413" lon="6.87946">
        <ele>380</ele>
        <time>2016-10-30T08:30:20.000Z</time>
      </trkpt>
      <trkpt lat="47.49412" lon="6.87951">
        <ele>380</ele>
        <time>2016-10-30T08:30:21.000Z</time>
      </trkpt>
      <trkpt lat="47.49412" lon="6.87957">
        <ele>380</ele>
        <time>2016-10-30T08:30:22.000Z</time>
      </trkpt>
      <trkpt lat="47.4941" lon="6.87961">
        <ele>380</ele>
        <time>2016-10-30T08:30:23.000Z</time>
      </trkpt>
      <trkpt lat="47.49409" lon="6.87966">
        <ele>381</ele>
        <time>2016-10-30T08:30:24.011Z</time>
      </trkpt>
      <trkpt lat="47.49408" lon="6.87971">
        <ele>381</ele>
        <time>2016-10-30T08:30:25.000Z</time>
      </trkpt>
      <trkpt lat="47.49408" lon="6.87977">
        <ele>381</ele>
        <time>2016-10-30T08:30:26.000Z</time>
      </trkpt>
      <trkpt lat="47.49407" lon="6.87982">
        <ele>381</ele>
        <time>2016-10-30T08:30:27.000Z</time>
      </trkpt>
      <trkpt lat="47.49404" lon="6.87986">
        <ele>381</ele>
        <time>2016-10-30T08:30:28.000Z</time>
      </trkpt>
      <trkpt lat="47.49403" lon="6.87991">
        <ele>380</ele>
        <time>2016-10-30T08:30:29.000Z</time>
      </trkpt>
      <trkpt lat="47.49402" lon="6.87996">
        <ele>380</ele>
        <time>2016-10-30T08:30:30.000Z</time>
      </trkpt>
      <trkpt lat="47.49401" lon="6.88">
        <ele>381</ele>
        <time>2016-10-30T08:30:31.000Z</time>
      </trkpt>
      <trkpt lat="47.494" lon="6.88006">
        <ele>381</ele>
        <time>2016-10-30T08:30:32.000Z</time>
      </trkpt>
      <trkpt lat="47.494" lon="6.88011">
        <ele>381</ele>
        <time>2016-10-30T08:30:33.000Z</time>
      </trkpt>
      <trkpt lat="47.49399" lon="6.88022">
        <ele>382</ele>
        <time>2016-10-30T08:30:35.000Z</time>
      </trkpt>
      <trkpt lat="47.49398" lon="6.88027">
        <ele>382</ele>
        <time>2016-10-30T08:30:36.000Z</time>
      </trkpt>
      <trkpt lat="47.49397" lon="6.88033">
        <ele>382</ele>
        <time>2016-10-30T08:30:37.000Z</time>
      </trkpt>
      <trkpt lat="47.49397" lon="6.88039">
        <ele>383</ele>
        <time>2016-10-30T08:30:38.000Z</time>
      </trkpt>
      <trkpt lat="47.49395" lon="6.88044">
        <ele>383</ele>
        <time>2016-10-30T08:30:39.000Z</time>
      </trkpt>
      <trkpt lat="47.49393" lon="6.88049">
        <ele>383</ele>
        <time>2016-10-30T08:30:40.000Z</time>
      </trkpt>
      <trkpt lat="47.4939" lon="6.88054">
        <ele>383</ele>
        <time>2016-10-30T08:30:41.000Z</time>
      </trkpt>
      <trkpt lat="47.49388" lon="6.88059">
        <ele>383</ele>
        <time>2016-10-30T08:30:42.000Z</time>
      </trkpt>
      <trkpt lat="47.49386" lon="6.88064">
        <ele>383</ele>
        <time>2016-10-30T08:30:43.000Z</time>
      </trkpt>
      <trkpt lat="47.49385" lon="6.88068">
        <ele>383</ele>
        <time>2016-10-30T08:30:44.000Z</time>
      </trkpt>
      <trkpt lat="47.49385" lon="6.88073">
        <ele>383</ele>
        <time>2016-10-30T08:30:45.000Z</time>
      </trkpt>
      <trkpt lat="47.49385" lon="6.88078">
        <ele>383</ele>
        <time>2016-10-30T08:30:46.000Z</time>
      </trkpt>
      <trkpt lat="47.49384" lon="6.88083">
        <ele>383</ele>
        <time>2016-10-30T08:30:47.000Z</time>
      </trkpt>
      <trkpt lat="47.49383" lon="6.88088">
        <ele>384</ele>
        <time>2016-10-30T08:30:48.000Z</time>
      </trkpt>
      <trkpt lat="47.49382" lon="6.88092">
        <ele>384</ele>
        <time>2016-10-30T08:30:49.000Z</time>
      </trkpt>
      <trkpt lat="47.4938" lon="6.88095">
        <ele>384</ele>
        <time>2016-10-30T08:30:50.000Z</time>
      </trkpt>
      <trkpt lat="47.49377" lon="6.88099">
        <ele>384</ele>
        <time>2016-10-30T08:30:51.000Z</time>
      </trkpt>
      <trkpt lat="47.49375" lon="6.88103">
        <ele>384</ele>
        <time>2016-10-30T08:30:52.000Z</time>
      </trkpt>
      <trkpt lat="47.49374" lon="6.88107">
        <ele>384</ele>
        <time>2016-10-30T08:30:53.000Z</time>
      </trkpt>
      <trkpt lat="47.49374" lon="6.88112">
        <ele>384</ele>
        <time>2016-10-30T08:30:54.000Z</time>
      </trkpt>
      <trkpt lat="47.49374" lon="6.88117">
        <ele>384</ele>
        <time>2016-10-30T08:30:55.000Z</time>
      </trkpt>
      <trkpt lat="47.49375" lon="6.88121">
        <ele>384</ele>
        <time>2016-10-30T08:30:56.000Z</time>
      </trkpt>
      <trkpt lat="47.49377" lon="6.88126">
        <ele>384</ele>
        <time>2016-10-30T08:30:57.000Z</time>
      </trkpt>
      <trkpt lat="47.49379" lon="6.8813">
        <ele>384</ele>
        <time>2016-10-30T08:30:58.000Z</time>
      </trkpt>
      <trkpt lat="47.49385" lon="6.88138">
        <ele>383</ele>
        <time>2016-10-30T08:30:59.000Z</time>
      </trkpt>
      <trkpt lat="47.49388" lon="6.88144">
        <ele>383</ele>
        <time>2016-10-30T08:31:00.000Z</time>
      </trkpt>
      <trkpt lat="47.4939" lon="6.88149">
        <ele>383</ele>
        <time>2016-10-30T08:31:01.000Z</time>
      </trkpt>
      <trkpt lat="47.49392" lon="6.88154">
        <ele>383</ele>
        <time>2016-10-30T08:31:02.000Z</time>
      </trkpt>
      <trkpt lat="47.49394" lon="6.88158">
        <ele>383</ele>
        <time>2016-10-30T08:31:03.000Z</time>
      </trkpt>
      <trkpt lat="47.49396" lon="6.88163">
        <ele>383</ele>
        <time>2016-10-30T08:31:04.000Z</time>
      </trkpt>
      <trkpt lat="47.49397" lon="6.88169">
        <ele>383</ele>
        <time>2016-10-30T08:31:05.000Z</time>
      </trkpt>
      <trkpt lat="47.49398" lon="6.88175">
        <ele>383</ele>
        <time>2016-10-30T08:31:06.000Z</time>
      </trkpt>
      <trkpt lat="47.49398" lon="6.8818">
        <ele>383</ele>
        <time>2016-10-30T08:31:07.000Z</time>
      </trkpt>
      <trkpt lat="47.49399" lon="6.88185">
        <ele>383</ele>
        <time>2016-10-30T08:31:08.000Z</time>
      </trkpt>
      <trkpt lat="47.49399" lon="6.88191">
        <ele>383</ele>
        <time>2016-10-30T08:31:09.000Z</time>
      </trkpt>
      <trkpt lat="47.494" lon="6.88196">
        <ele>383</ele>
        <time>2016-10-30T08:31:10.000Z</time>
      </trkpt>
      <trkpt lat="47.494" lon="6.88202">
        <ele>383</ele>
        <time>2016-10-30T08:31:11.000Z</time>
      </trkpt>
      <trkpt lat="47.494" lon="6.88207">
        <ele>383</ele>
        <time>2016-10-30T08:31:12.000Z</time>
      </trkpt>
      <trkpt lat="47.49401" lon="6.88212">
        <ele>383</ele>
        <time>2016-10-30T08:31:13.000Z</time>
      </trkpt>
      <trkpt lat="47.49401" lon="6.88217">
        <ele>382</ele>
        <time>2016-10-30T08:31:14.000Z</time>
      </trkpt>
      <trkpt lat="47.49401" lon="6.88221">
        <ele>382</ele>
        <time>2016-10-30T08:31:15.000Z</time>
      </trkpt>
      <trkpt lat="47.49401" lon="6.88226">
        <ele>382</ele>
        <time>2016-10-30T08:31:16.000Z</time>
      </trkpt>
      <trkpt lat="47.494" lon="6.88229">
        <ele>382</ele>
        <time>2016-10-30T08:31:17.000Z</time>
      </trkpt>
      <trkpt lat="47.49398" lon="6.88232">
        <ele>382</ele>
        <time>2016-10-30T08:31:18.000Z</time>
      </trkpt>
      <trkpt lat="47.49396" lon="6.88233">
        <ele>382</ele>
        <time>2016-10-30T08:31:19.000Z</time>
      </trkpt>
      <trkpt lat="47.49393" lon="6.88234">
        <ele>382</ele>
        <time>2016-10-30T08:31:20.000Z</time>
      </trkpt>
      <trkpt lat="47.49389" lon="6.88234">
        <ele>383</ele>
        <time>2016-10-30T08:31:21.000Z</time>
      </trkpt>
      <trkpt lat="47.49386" lon="6.88234">
        <ele>383</ele>
        <time>2016-10-30T08:31:22.000Z</time>
      </trkpt>
      <trkpt lat="47.49383" lon="6.88233">
        <ele>383</ele>
        <time>2016-10-30T08:31:23.000Z</time>
      </trkpt>
      <trkpt lat="47.4938" lon="6.88233">
        <ele>383</ele>
        <time>2016-10-30T08:31:24.000Z</time>
      </trkpt>
      <trkpt lat="47.49378" lon="6.88232">
        <ele>383</ele>
        <time>2016-10-30T08:31:25.000Z</time>
      </trkpt>
      <trkpt lat="47.49375" lon="6.88231">
        <ele>383</ele>
        <time>2016-10-30T08:31:26.000Z</time>
      </trkpt>
      <trkpt lat="47.49371" lon="6.88231">
        <ele>383</ele>
        <time>2016-10-30T08:31:28.000Z</time>
      </trkpt>
      <trkpt lat="47.49369" lon="6.88231">
        <ele>383</ele>
        <time>2016-10-30T08:31:29.000Z</time>
      </trkpt>
      <trkpt lat="47.49365" lon="6.88231">
        <ele>383</ele>
        <time>2016-10-30T08:31:31.000Z</time>
      </trkpt>
      <trkpt lat="47.49364" lon="6.88232">
        <ele>383</ele>
        <time>2016-10-30T08:31:32.000Z</time>
      </trkpt>
      <trkpt lat="47.49361" lon="6.88237">
        <ele>383</ele>
        <time>2016-10-30T08:31:35.000Z</time>
      </trkpt>
      <trkpt lat="47.4936" lon="6.88239">
        <ele>383</ele>
        <time>2016-10-30T08:31:36.000Z</time>
      </trkpt>
      <trkpt lat="47.49358" lon="6.88241">
        <ele>383</ele>
        <time>2016-10-30T08:31:38.000Z</time>
      </trkpt>
      <trkpt lat="47.49356" lon="6.88242">
        <ele>383</ele>
        <time>2016-10-30T08:31:39.000Z</time>
      </trkpt>
      <trkpt lat="47.49352" lon="6.88244">
        <ele>383</ele>
        <time>2016-10-30T08:31:41.000Z</time>
      </trkpt>
      <trkpt lat="47.49351" lon="6.88245">
        <ele>383</ele>
        <time>2016-10-30T08:31:42.000Z</time>
      </trkpt>
      <trkpt lat="47.49347" lon="6.88246">
        <ele>384</ele>
        <time>2016-10-30T08:31:44.000Z</time>
      </trkpt>
      <trkpt lat="47.49346" lon="6.88247">
        <ele>384</ele>
        <time>2016-10-30T08:31:45.000Z</time>
      </trkpt>
      <trkpt lat="47.49342" lon="6.88249">
        <ele>384</ele>
        <time>2016-10-30T08:31:48.000Z</time>
      </trkpt>
      <trkpt lat="47.49341" lon="6.8825">
        <ele>384</ele>
        <time>2016-10-30T08:31:49.000Z</time>
      </trkpt>
      <trkpt lat="47.49337" lon="6.88251">
        <ele>384</ele>
        <time>2016-10-30T08:31:51.000Z</time>
      </trkpt>
      <trkpt lat="47.49336" lon="6.88251">
        <ele>384</ele>
        <time>2016-10-30T08:31:52.000Z</time>
      </trkpt>
      <trkpt lat="47.49332" lon="6.88253">
        <ele>385</ele>
        <time>2016-10-30T08:31:55.000Z</time>
      </trkpt>
      <trkpt lat="47.4933" lon="6.88253">
        <ele>385</ele>
        <time>2016-10-30T08:31:56.000Z</time>
      </trkpt>
      <trkpt lat="47.49326" lon="6.88253">
        <ele>386</ele>
        <time>2016-10-30T08:31:59.000Z</time>
      </trkpt>
      <trkpt lat="47.49325" lon="6.88254">
        <ele>386</ele>
        <time>2016-10-30T08:32:00.000Z</time>
      </trkpt>
      <trkpt lat="47.49322" lon="6.88255">
        <ele>387</ele>
        <time>2016-10-30T08:32:02.000Z</time>
      </trkpt>
      <trkpt lat="47.4932" lon="6.88255">
        <ele>387</ele>
        <time>2016-10-30T08:32:03.000Z</time>
      </trkpt>
      <trkpt lat="47.49315" lon="6.88256">
        <ele>387</ele>
        <time>2016-10-30T08:32:06.000Z</time>
      </trkpt>
      <trkpt lat="47.49314" lon="6.88256">
        <ele>388</ele>
        <time>2016-10-30T08:32:07.000Z</time>
      </trkpt>
      <trkpt lat="47.49311" lon="6.88255">
        <ele>388</ele>
        <time>2016-10-30T08:32:09.000Z</time>
      </trkpt>
      <trkpt lat="47.49309" lon="6.88254">
        <ele>388</ele>
        <time>2016-10-30T08:32:10.000Z</time>
      </trkpt>
      <trkpt lat="47.49307" lon="6.88253">
        <ele>388</ele>
        <time>2016-10-30T08:32:11.000Z</time>
      </trkpt>
      <trkpt lat="47.49305" lon="6.88253">
        <ele>389</ele>
        <time>2016-10-30T08:32:12.000Z</time>
      </trkpt>
      <trkpt lat="47.49302" lon="6.88252">
        <ele>389</ele>
        <time>2016-10-30T08:32:13.000Z</time>
      </trkpt>
      <trkpt lat="47.49299" lon="6.88252">
        <ele>389</ele>
        <time>2016-10-30T08:32:14.000Z</time>
      </trkpt>
      <trkpt lat="47.49295" lon="6.8825">
        <ele>389</ele>
        <time>2016-10-30T08:32:16.000Z</time>
      </trkpt>
      <trkpt lat="47.49293" lon="6.8825">
        <ele>389</ele>
        <time>2016-10-30T08:32:17.000Z</time>
      </trkpt>
      <trkpt lat="47.49288" lon="6.88249">
        <ele>389</ele>
        <time>2016-10-30T08:32:19.000Z</time>
      </trkpt>
      <trkpt lat="47.49286" lon="6.88248">
        <ele>390</ele>
        <time>2016-10-30T08:32:20.000Z</time>
      </trkpt>
      <trkpt lat="47.49282" lon="6.88247">
        <ele>390</ele>
        <time>2016-10-30T08:32:22.000Z</time>
      </trkpt>
      <trkpt lat="47.49279" lon="6.88247">
        <ele>390</ele>
        <time>2016-10-30T08:32:23.000Z</time>
      </trkpt>
      <trkpt lat="47.49276" lon="6.88246">
        <ele>391</ele>
        <time>2016-10-30T08:32:25.000Z</time>
      </trkpt>
      <trkpt lat="47.49274" lon="6.88246">
        <ele>391</ele>
        <time>2016-10-30T08:32:26.000Z</time>
      </trkpt>
      <trkpt lat="47.4927" lon="6.88245">
        <ele>391</ele>
        <time>2016-10-30T08:32:29.000Z</time>
      </trkpt>
      <trkpt lat="47.49269" lon="6.88245">
        <ele>391</ele>
        <time>2016-10-30T08:32:30.000Z</time>
      </trkpt>
      <trkpt lat="47.49267" lon="6.88244">
        <ele>391</ele>
        <time>2016-10-30T08:32:32.000Z</time>
      </trkpt>
      <trkpt lat="47.49265" lon="6.88243">
        <ele>392</ele>
        <time>2016-10-30T08:32:33.000Z</time>
      </trkpt>
      <trkpt lat="47.49262" lon="6.88242">
        <ele>392</ele>
        <time>2016-10-30T08:32:34.000Z</time>
      </trkpt>
      <trkpt lat="47.4926" lon="6.88241">
        <ele>392</ele>
        <time>2016-10-30T08:32:35.000Z</time>
      </trkpt>
      <trkpt lat="47.49257" lon="6.8824">
        <ele>392</ele>
        <time>2016-10-30T08:32:36.000Z</time>
      </trkpt>
      <trkpt lat="47.49255" lon="6.88239">
        <ele>392</ele>
        <time>2016-10-30T08:32:37.000Z</time>
      </trkpt>
      <trkpt lat="47.49252" lon="6.88237">
        <ele>392</ele>
        <time>2016-10-30T08:32:38.000Z</time>
      </trkpt>
      <trkpt lat="47.49249" lon="6.88236">
        <ele>395</ele>
        <time>2016-10-30T08:32:39.000Z</time>
      </trkpt>
      <trkpt lat="47.49246" lon="6.88235">
        <ele>396</ele>
        <time>2016-10-30T08:32:40.000Z</time>
      </trkpt>
      <trkpt lat="47.49244" lon="6.88234">
        <ele>396</ele>
        <time>2016-10-30T08:32:41.000Z</time>
      </trkpt>
      <trkpt lat="47.49242" lon="6.88232">
        <ele>396</ele>
        <time>2016-10-30T08:32:42.000Z</time>
      </trkpt>
      <trkpt lat="47.49239" lon="6.88231">
        <ele>396</ele>
        <time>2016-10-30T08:32:43.000Z</time>
      </trkpt>
      <trkpt lat="47.49237" lon="6.8823">
        <ele>396</ele>
        <time>2016-10-30T08:32:44.000Z</time>
      </trkpt>
      <trkpt lat="47.49235" lon="6.88229">
        <ele>396</ele>
        <time>2016-10-30T08:32:45.000Z</time>
      </trkpt>
      <trkpt lat="47.49232" lon="6.88228">
        <ele>397</ele>
        <time>2016-10-30T08:32:46.000Z</time>
      </trkpt>
      <trkpt lat="47.4923" lon="6.88226">
        <ele>397</ele>
        <time>2016-10-30T08:32:47.000Z</time>
      </trkpt>
      <trkpt lat="47.49228" lon="6.88225">
        <ele>397</ele>
        <time>2016-10-30T08:32:48.000Z</time>
      </trkpt>
      <trkpt lat="47.49226" lon="6.88223">
        <ele>397</ele>
        <time>2016-10-30T08:32:49.000Z</time>
      </trkpt>
      <trkpt lat="47.49224" lon="6.88222">
        <ele>397</ele>
        <time>2016-10-30T08:32:50.000Z</time>
      </trkpt>
      <trkpt lat="47.49221" lon="6.88221">
        <ele>397</ele>
        <time>2016-10-30T08:32:51.000Z</time>
      </trkpt>
      <trkpt lat="47.49218" lon="6.8822">
        <ele>397</ele>
        <time>2016-10-30T08:32:52.000Z</time>
      </trkpt>
      <trkpt lat="47.49216" lon="6.8822">
        <ele>397</ele>
        <time>2016-10-30T08:32:53.000Z</time>
      </trkpt>
      <trkpt lat="47.49213" lon="6.88219">
        <ele>398</ele>
        <time>2016-10-30T08:32:54.000Z</time>
      </trkpt>
      <trkpt lat="47.49209" lon="6.88218">
        <ele>398</ele>
        <time>2016-10-30T08:32:55.000Z</time>
      </trkpt>
      <trkpt lat="47.49206" lon="6.88218">
        <ele>398</ele>
        <time>2016-10-30T08:32:56.000Z</time>
      </trkpt>
      <trkpt lat="47.49202" lon="6.88218">
        <ele>398</ele>
        <time>2016-10-30T08:32:57.000Z</time>
      </trkpt>
      <trkpt lat="47.49198" lon="6.88218">
        <ele>398</ele>
        <time>2016-10-30T08:32:58.000Z</time>
      </trkpt>
      <trkpt lat="47.49195" lon="6.88217">
        <ele>398</ele>
        <time>2016-10-30T08:32:59.000Z</time>
      </trkpt>
      <trkpt lat="47.49192" lon="6.88217">
        <ele>399</ele>
        <time>2016-10-30T08:33:00.000Z</time>
      </trkpt>
      <trkpt lat="47.49189" lon="6.88217">
        <ele>399</ele>
        <time>2016-10-30T08:33:01.000Z</time>
      </trkpt>
      <trkpt lat="47.49186" lon="6.88216">
        <ele>399</ele>
        <time>2016-10-30T08:33:02.000Z</time>
      </trkpt>
      <trkpt lat="47.49183" lon="6.88215">
        <ele>399</ele>
        <time>2016-10-30T08:33:03.000Z</time>
      </trkpt>
      <trkpt lat="47.49181" lon="6.88215">
        <ele>399</ele>
        <time>2016-10-30T08:33:04.000Z</time>
      </trkpt>
      <trkpt lat="47.49178" lon="6.88215">
        <ele>399</ele>
        <time>2016-10-30T08:33:05.000Z</time>
      </trkpt>
      <trkpt lat="47.49175" lon="6.88215">
        <ele>399</ele>
        <time>2016-10-30T08:33:06.000Z</time>
      </trkpt>
      <trkpt lat="47.49173" lon="6.88215">
        <ele>399</ele>
        <time>2016-10-30T08:33:07.000Z</time>
      </trkpt>
      <trkpt lat="47.4917" lon="6.88215">
        <ele>399</ele>
        <time>2016-10-30T08:33:08.000Z</time>
      </trkpt>
      <trkpt lat="47.49167" lon="6.88215">
        <ele>399</ele>
        <time>2016-10-30T08:33:09.000Z</time>
      </trkpt>
      <trkpt lat="47.49164" lon="6.88215">
        <ele>402</ele>
        <time>2016-10-30T08:33:10.000Z</time>
      </trkpt>
      <trkpt lat="47.49161" lon="6.88215">
        <ele>403</ele>
        <time>2016-10-30T08:33:11.000Z</time>
      </trkpt>
      <trkpt lat="47.49158" lon="6.88215">
        <ele>403</ele>
        <time>2016-10-30T08:33:12.000Z</time>
      </trkpt>
      <trkpt lat="47.49155" lon="6.88215">
        <ele>403</ele>
        <time>2016-10-30T08:33:13.000Z</time>
      </trkpt>
      <trkpt lat="47.49152" lon="6.88215">
        <ele>403</ele>
        <time>2016-10-30T08:33:14.000Z</time>
      </trkpt>
      <trkpt lat="47.4915" lon="6.88215">
        <ele>403</ele>
        <time>2016-10-30T08:33:15.000Z</time>
      </trkpt>
      <trkpt lat="47.49147" lon="6.88214">
        <ele>403</ele>
        <time>2016-10-30T08:33:16.000Z</time>
      </trkpt>
      <trkpt lat="47.49144" lon="6.88213">
        <ele>403</ele>
        <time>2016-10-30T08:33:17.000Z</time>
      </trkpt>
      <trkpt lat="47.49141" lon="6.88213">
        <ele>403</ele>
        <time>2016-10-30T08:33:18.000Z</time>
      </trkpt>
      <trkpt lat="47.49138" lon="6.88212">
        <ele>403</ele>
        <time>2016-10-30T08:33:19.000Z</time>
      </trkpt>
      <trkpt lat="47.49136" lon="6.88212">
        <ele>403</ele>
        <time>2016-10-30T08:33:20.000Z</time>
      </trkpt>
      <trkpt lat="47.49133" lon="6.88212">
        <ele>403</ele>
        <time>2016-10-30T08:33:21.000Z</time>
      </trkpt>
      <trkpt lat="47.49129" lon="6.88213">
        <ele>403</ele>
        <time>2016-10-30T08:33:24.000Z</time>
      </trkpt>
      <trkpt lat="47.49128" lon="6.88213">
        <ele>403</ele>
        <time>2016-10-30T08:33:25.000Z</time>
      </trkpt>
      <trkpt lat="47.49124" lon="6.88214">
        <ele>403</ele>
        <time>2016-10-30T08:33:28.000Z</time>
      </trkpt>
      <trkpt lat="47.49122" lon="6.88215">
        <ele>403</ele>
        <time>2016-10-30T08:33:29.000Z</time>
      </trkpt>
      <trkpt lat="47.49117" lon="6.88215">
        <ele>403</ele>
        <time>2016-10-30T08:33:31.000Z</time>
      </trkpt>
      <trkpt lat="47.49115" lon="6.88215">
        <ele>403</ele>
        <time>2016-10-30T08:33:32.000Z</time>
      </trkpt>
      <trkpt lat="47.49112" lon="6.88215">
        <ele>403</ele>
        <time>2016-10-30T08:33:33.000Z</time>
      </trkpt>
      <trkpt lat="47.4911" lon="6.88215">
        <ele>403</ele>
        <time>2016-10-30T08:33:34.000Z</time>
      </trkpt>
      <trkpt lat="47.49107" lon="6.88216">
        <ele>403</ele>
        <time>2016-10-30T08:33:35.000Z</time>
      </trkpt>
      <trkpt lat="47.49104" lon="6.88216">
        <ele>403</ele>
        <time>2016-10-30T08:33:36.000Z</time>
      </trkpt>
      <trkpt lat="47.49101" lon="6.88215">
        <ele>403</ele>
        <time>2016-10-30T08:33:37.000Z</time>
      </trkpt>
      <trkpt lat="47.49099" lon="6.88215">
        <ele>403</ele>
        <time>2016-10-30T08:33:38.000Z</time>
      </trkpt>
      <trkpt lat="47.49095" lon="6.88215">
        <ele>404</ele>
        <time>2016-10-30T08:33:40.000Z</time>
      </trkpt>
      <trkpt lat="47.49093" lon="6.88217">
        <ele>404</ele>
        <time>2016-10-30T08:33:41.000Z</time>
      </trkpt>
      <trkpt lat="47.4909" lon="6.88221">
        <ele>404</ele>
        <time>2016-10-30T08:33:43.000Z</time>
      </trkpt>
      <trkpt lat="47.49088" lon="6.88222">
        <ele>404</ele>
        <time>2016-10-30T08:33:44.000Z</time>
      </trkpt>
      <trkpt lat="47.49084" lon="6.88222">
        <ele>404</ele>
        <time>2016-10-30T08:33:46.000Z</time>
      </trkpt>
      <trkpt lat="47.49082" lon="6.88221">
        <ele>404</ele>
        <time>2016-10-30T08:33:47.000Z</time>
      </trkpt>
      <trkpt lat="47.4908" lon="6.8822">
        <ele>404</ele>
        <time>2016-10-30T08:33:48.000Z</time>
      </trkpt>
      <trkpt lat="47.49077" lon="6.88219">
        <ele>404</ele>
        <time>2016-10-30T08:33:49.000Z</time>
      </trkpt>
      <trkpt lat="47.49074" lon="6.88219">
        <ele>404</ele>
        <time>2016-10-30T08:33:50.000Z</time>
      </trkpt>
      <trkpt lat="47.49071" lon="6.88219">
        <ele>404</ele>
        <time>2016-10-30T08:33:51.000Z</time>
      </trkpt>
      <trkpt lat="47.49067" lon="6.8822">
        <ele>404</ele>
        <time>2016-10-30T08:33:53.000Z</time>
      </trkpt>
      <trkpt lat="47.49066" lon="6.8822">
        <ele>404</ele>
        <time>2016-10-30T08:33:54.000Z</time>
      </trkpt>
      <trkpt lat="47.49063" lon="6.88223">
        <ele>404</ele>
        <time>2016-10-30T08:33:56.000Z</time>
      </trkpt>
      <trkpt lat="47.49062" lon="6.88223">
        <ele>404</ele>
        <time>2016-10-30T08:33:57.000Z</time>
      </trkpt>
      <trkpt lat="47.49058" lon="6.88222">
        <ele>404</ele>
        <time>2016-10-30T08:33:59.000Z</time>
      </trkpt>
      <trkpt lat="47.49056" lon="6.88221">
        <ele>404</ele>
        <time>2016-10-30T08:34:00.000Z</time>
      </trkpt>
      <trkpt lat="47.49053" lon="6.88221">
        <ele>404</ele>
        <time>2016-10-30T08:34:01.000Z</time>
      </trkpt>
      <trkpt lat="47.49049" lon="6.88221">
        <ele>404</ele>
        <time>2016-10-30T08:34:02.000Z</time>
      </trkpt>
      <trkpt lat="47.49045" lon="6.88221">
        <ele>404</ele>
        <time>2016-10-30T08:34:03.000Z</time>
      </trkpt>
      <trkpt lat="47.49042" lon="6.88222">
        <ele>404</ele>
        <time>2016-10-30T08:34:04.000Z</time>
      </trkpt>
      <trkpt lat="47.49038" lon="6.88223">
        <ele>404</ele>
        <time>2016-10-30T08:34:05.000Z</time>
      </trkpt>
      <trkpt lat="47.49035" lon="6.88225">
        <ele>404</ele>
        <time>2016-10-30T08:34:06.000Z</time>
      </trkpt>
      <trkpt lat="47.49032" lon="6.88227">
        <ele>404</ele>
        <time>2016-10-30T08:34:07.000Z</time>
      </trkpt>
      <trkpt lat="47.49027" lon="6.88227">
        <ele>404</ele>
        <time>2016-10-30T08:34:08.000Z</time>
      </trkpt>
      <trkpt lat="47.49023" lon="6.88226">
        <ele>404</ele>
        <time>2016-10-30T08:34:09.000Z</time>
      </trkpt>
      <trkpt lat="47.49019" lon="6.88226">
        <ele>404</ele>
        <time>2016-10-30T08:34:10.000Z</time>
      </trkpt>
      <trkpt lat="47.49015" lon="6.88225">
        <ele>404</ele>
        <time>2016-10-30T08:34:11.000Z</time>
      </trkpt>
      <trkpt lat="47.49012" lon="6.88226">
        <ele>404</ele>
        <time>2016-10-30T08:34:12.000Z</time>
      </trkpt>
      <trkpt lat="47.49008" lon="6.88228">
        <ele>404</ele>
        <time>2016-10-30T08:34:13.000Z</time>
      </trkpt>
      <trkpt lat="47.49005" lon="6.8823">
        <ele>404</ele>
        <time>2016-10-30T08:34:14.000Z</time>
      </trkpt>
      <trkpt lat="47.49002" lon="6.88233">
        <ele>404</ele>
        <time>2016-10-30T08:34:15.000Z</time>
      </trkpt>
      <trkpt lat="47.48998" lon="6.88235">
        <ele>402</ele>
        <time>2016-10-30T08:34:16.000Z</time>
      </trkpt>
      <trkpt lat="47.48993" lon="6.88238">
        <ele>402</ele>
        <time>2016-10-30T08:34:17.000Z</time>
      </trkpt>
      <trkpt lat="47.48987" lon="6.88241">
        <ele>402</ele>
        <time>2016-10-30T08:34:18.000Z</time>
      </trkpt>
      <trkpt lat="47.48966" lon="6.88245">
        <ele>401</ele>
        <time>2016-10-30T08:34:19.000Z</time>
      </trkpt>
      <trkpt lat="47.48958" lon="6.88248">
        <ele>401</ele>
        <time>2016-10-30T08:34:20.000Z</time>
      </trkpt>
      <trkpt lat="47.48955" lon="6.88252">
        <ele>403</ele>
        <time>2016-10-30T08:34:21.000Z</time>
      </trkpt>
      <trkpt lat="47.48952" lon="6.88254">
        <ele>403</ele>
        <time>2016-10-30T08:34:22.000Z</time>
      </trkpt>
      <trkpt lat="47.48948" lon="6.88259">
        <ele>403</ele>
        <time>2016-10-30T08:34:23.000Z</time>
      </trkpt>
      <trkpt lat="47.48944" lon="6.88262">
        <ele>403</ele>
        <time>2016-10-30T08:34:24.000Z</time>
      </trkpt>
      <trkpt lat="47.48936" lon="6.88266">
        <ele>402</ele>
        <time>2016-10-30T08:34:25.000Z</time>
      </trkpt>
      <trkpt lat="47.48929" lon="6.88271">
        <ele>402</ele>
        <time>2016-10-30T08:34:26.000Z</time>
      </trkpt>
      <trkpt lat="47.48925" lon="6.88275">
        <ele>402</ele>
        <time>2016-10-30T08:34:27.000Z</time>
      </trkpt>
      <trkpt lat="47.48915" lon="6.88275">
        <ele>400</ele>
        <time>2016-10-30T08:34:28.000Z</time>
      </trkpt>
      <trkpt lat="47.48904" lon="6.88279">
        <ele>400</ele>
        <time>2016-10-30T08:34:29.000Z</time>
      </trkpt>
      <trkpt lat="47.48899" lon="6.88281">
        <ele>401</ele>
        <time>2016-10-30T08:34:30.000Z</time>
      </trkpt>
      <trkpt lat="47.4889" lon="6.88283">
        <ele>400</ele>
        <time>2016-10-30T08:34:31.000Z</time>
      </trkpt>
      <trkpt lat="47.48884" lon="6.88286">
        <ele>400</ele>
        <time>2016-10-30T08:34:32.000Z</time>
      </trkpt>
      <trkpt lat="47.48878" lon="6.88287">
        <ele>400</ele>
        <time>2016-10-30T08:34:33.000Z</time>
      </trkpt>
      <trkpt lat="47.48867" lon="6.88287">
        <ele>400</ele>
        <time>2016-10-30T08:34:34.000Z</time>
      </trkpt>
      <trkpt lat="47.48861" lon="6.88288">
        <ele>400</ele>
        <time>2016-10-30T08:34:35.000Z</time>
      </trkpt>
      <trkpt lat="47.48856" lon="6.88289">
        <ele>400</ele>
        <time>2016-10-30T08:34:36.000Z</time>
      </trkpt>
      <trkpt lat="47.48849" lon="6.88292">
        <ele>400</ele>
        <time>2016-10-30T08:34:37.000Z</time>
      </trkpt>
      <trkpt lat="47.48841" lon="6.88296">
        <ele>400</ele>
        <time>2016-10-30T08:34:38.000Z</time>
      </trkpt>
      <trkpt lat="47.48828" lon="6.88296">
        <ele>400</ele>
        <time>2016-10-30T08:34:39.000Z</time>
      </trkpt>
      <trkpt lat="47.4882" lon="6.883">
        <ele>401</ele>
        <time>2016-10-30T08:34:40.000Z</time>
      </trkpt>
      <trkpt lat="47.48813" lon="6.88302">
        <ele>401</ele>
        <time>2016-10-30T08:34:41.000Z</time>
      </trkpt>
      <trkpt lat="47.48811" lon="6.88305">
        <ele>401</ele>
        <time>2016-10-30T08:34:42.000Z</time>
      </trkpt>
      <trkpt lat="47.48808" lon="6.88307">
        <ele>401</ele>
        <time>2016-10-30T08:34:43.000Z</time>
      </trkpt>
      <trkpt lat="47.48805" lon="6.88311">
        <ele>401</ele>
        <time>2016-10-30T08:34:45.000Z</time>
      </trkpt>
      <trkpt lat="47.48802" lon="6.88315">
        <ele>401</ele>
        <time>2016-10-30T08:34:46.000Z</time>
      </trkpt>
      <trkpt lat="47.48798" lon="6.88317">
        <ele>401</ele>
        <time>2016-10-30T08:34:47.000Z</time>
      </trkpt>
      <trkpt lat="47.48794" lon="6.88319">
        <ele>401</ele>
        <time>2016-10-30T08:34:48.000Z</time>
      </trkpt>
      <trkpt lat="47.4879" lon="6.88321">
        <ele>402</ele>
        <time>2016-10-30T08:34:49.000Z</time>
      </trkpt>
      <trkpt lat="47.48787" lon="6.88325">
        <ele>402</ele>
        <time>2016-10-30T08:34:50.000Z</time>
      </trkpt>
      <trkpt lat="47.48785" lon="6.88327">
        <ele>402</ele>
        <time>2016-10-30T08:34:51.000Z</time>
      </trkpt>
      <trkpt lat="47.48783" lon="6.88329">
        <ele>402</ele>
        <time>2016-10-30T08:34:52.000Z</time>
      </trkpt>
      <trkpt lat="47.4878" lon="6.88331">
        <ele>402</ele>
        <time>2016-10-30T08:34:53.000Z</time>
      </trkpt>
      <trkpt lat="47.48778" lon="6.88333">
        <ele>402</ele>
        <time>2016-10-30T08:34:54.000Z</time>
      </trkpt>
      <trkpt lat="47.48774" lon="6.88334">
        <ele>404</ele>
        <time>2016-10-30T08:34:55.000Z</time>
      </trkpt>
      <trkpt lat="47.48771" lon="6.88335">
        <ele>404</ele>
        <time>2016-10-30T08:34:56.000Z</time>
      </trkpt>
      <trkpt lat="47.48768" lon="6.88336">
        <ele>404</ele>
        <time>2016-10-30T08:34:57.000Z</time>
      </trkpt>
      <trkpt lat="47.48764" lon="6.88337">
        <ele>404</ele>
        <time>2016-10-30T08:34:58.000Z</time>
      </trkpt>
      <trkpt lat="47.48761" lon="6.88339">
        <ele>404</ele>
        <time>2016-10-30T08:34:59.000Z</time>
      </trkpt>
      <trkpt lat="47.48756" lon="6.8834">
        <ele>404</ele>
        <time>2016-10-30T08:35:00.000Z</time>
      </trkpt>
      <trkpt lat="47.48751" lon="6.88342">
        <ele>404</ele>
        <time>2016-10-30T08:35:01.000Z</time>
      </trkpt>
      <trkpt lat="47.48746" lon="6.88343">
        <ele>405</ele>
        <time>2016-10-30T08:35:02.000Z</time>
      </trkpt>
      <trkpt lat="47.48742" lon="6.88344">
        <ele>406</ele>
        <time>2016-10-30T08:35:03.000Z</time>
      </trkpt>
      <trkpt lat="47.48737" lon="6.88345">
        <ele>406</ele>
        <time>2016-10-30T08:35:04.000Z</time>
      </trkpt>
      <trkpt lat="47.48733" lon="6.88346">
        <ele>406</ele>
        <time>2016-10-30T08:35:05.000Z</time>
      </trkpt>
      <trkpt lat="47.4873" lon="6.88347">
        <ele>407</ele>
        <time>2016-10-30T08:35:06.000Z</time>
      </trkpt>
      <trkpt lat="47.48727" lon="6.88349">
        <ele>407</ele>
        <time>2016-10-30T08:35:07.000Z</time>
      </trkpt>
      <trkpt lat="47.48724" lon="6.88351">
        <ele>407</ele>
        <time>2016-10-30T08:35:08.000Z</time>
      </trkpt>
      <trkpt lat="47.48722" lon="6.88353">
        <ele>407</ele>
        <time>2016-10-30T08:35:09.000Z</time>
      </trkpt>
      <trkpt lat="47.48719" lon="6.88355">
        <ele>407</ele>
        <time>2016-10-30T08:35:10.000Z</time>
      </trkpt>
      <trkpt lat="47.48716" lon="6.88357">
        <ele>407</ele>
        <time>2016-10-30T08:35:11.000Z</time>
      </trkpt>
      <trkpt lat="47.48713" lon="6.88359">
        <ele>408</ele>
        <time>2016-10-30T08:35:12.000Z</time>
      </trkpt>
      <trkpt lat="47.4871" lon="6.8836">
        <ele>408</ele>
        <time>2016-10-30T08:35:13.000Z</time>
      </trkpt>
      <trkpt lat="47.48708" lon="6.88362">
        <ele>408</ele>
        <time>2016-10-30T08:35:14.000Z</time>
      </trkpt>
      <trkpt lat="47.48706" lon="6.88364">
        <ele>408</ele>
        <time>2016-10-30T08:35:15.000Z</time>
      </trkpt>
      <trkpt lat="47.48703" lon="6.88368">
        <ele>408</ele>
        <time>2016-10-30T08:35:17.000Z</time>
      </trkpt>
      <trkpt lat="47.48701" lon="6.88369">
        <ele>408</ele>
        <time>2016-10-30T08:35:18.000Z</time>
      </trkpt>
      <trkpt lat="47.48698" lon="6.88372">
        <ele>408</ele>
        <time>2016-10-30T08:35:20.000Z</time>
      </trkpt>
      <trkpt lat="47.48696" lon="6.88373">
        <ele>408</ele>
        <time>2016-10-30T08:35:21.000Z</time>
      </trkpt>
      <trkpt lat="47.48693" lon="6.88373">
        <ele>408</ele>
        <time>2016-10-30T08:35:22.000Z</time>
      </trkpt>
      <trkpt lat="47.48691" lon="6.88373">
        <ele>408</ele>
        <time>2016-10-30T08:35:23.000Z</time>
      </trkpt>
      <trkpt lat="47.48688" lon="6.88372">
        <ele>408</ele>
        <time>2016-10-30T08:35:24.000Z</time>
      </trkpt>
      <trkpt lat="47.48685" lon="6.88372">
        <ele>408</ele>
        <time>2016-10-30T08:35:25.000Z</time>
      </trkpt>
      <trkpt lat="47.48682" lon="6.88372">
        <ele>409</ele>
        <time>2016-10-30T08:35:26.000Z</time>
      </trkpt>
      <trkpt lat="47.48679" lon="6.88373">
        <ele>409</ele>
        <time>2016-10-30T08:35:27.000Z</time>
      </trkpt>
      <trkpt lat="47.48677" lon="6.88374">
        <ele>409</ele>
        <time>2016-10-30T08:35:28.000Z</time>
      </trkpt>
      <trkpt lat="47.48674" lon="6.88374">
        <ele>409</ele>
        <time>2016-10-30T08:35:29.000Z</time>
      </trkpt>
      <trkpt lat="47.4867" lon="6.88376">
        <ele>409</ele>
        <time>2016-10-30T08:35:31.000Z</time>
      </trkpt>
      <trkpt lat="47.48668" lon="6.88376">
        <ele>409</ele>
        <time>2016-10-30T08:35:32.000Z</time>
      </trkpt>
      <trkpt lat="47.48666" lon="6.88379">
        <ele>411</ele>
        <time>2016-10-30T08:35:34.000Z</time>
      </trkpt>
      <trkpt lat="47.48663" lon="6.88381">
        <ele>411</ele>
        <time>2016-10-30T08:35:35.000Z</time>
      </trkpt>
      <trkpt lat="47.48661" lon="6.88383">
        <ele>411</ele>
        <time>2016-10-30T08:35:36.000Z</time>
      </trkpt>
      <trkpt lat="47.48657" lon="6.88384">
        <ele>411</ele>
        <time>2016-10-30T08:35:37.000Z</time>
      </trkpt>
      <trkpt lat="47.48654" lon="6.88384">
        <ele>411</ele>
        <time>2016-10-30T08:35:38.000Z</time>
      </trkpt>
      <trkpt lat="47.4865" lon="6.88383">
        <ele>412</ele>
        <time>2016-10-30T08:35:39.000Z</time>
      </trkpt>
      <trkpt lat="47.48647" lon="6.8838">
        <ele>412</ele>
        <time>2016-10-30T08:35:40.000Z</time>
      </trkpt>
      <trkpt lat="47.48643" lon="6.88379">
        <ele>412</ele>
        <time>2016-10-30T08:35:41.000Z</time>
      </trkpt>
      <trkpt lat="47.4864" lon="6.88377">
        <ele>412</ele>
        <time>2016-10-30T08:35:42.000Z</time>
      </trkpt>
      <trkpt lat="47.48637" lon="6.88378">
        <ele>412</ele>
        <time>2016-10-30T08:35:43.000Z</time>
      </trkpt>
      <trkpt lat="47.48634" lon="6.8838">
        <ele>412</ele>
        <time>2016-10-30T08:35:44.000Z</time>
      </trkpt>
      <trkpt lat="47.48632" lon="6.88382">
        <ele>412</ele>
        <time>2016-10-30T08:35:45.000Z</time>
      </trkpt>
      <trkpt lat="47.4863" lon="6.88387">
        <ele>412</ele>
        <time>2016-10-30T08:35:47.000Z</time>
      </trkpt>
      <trkpt lat="47.48629" lon="6.88388">
        <ele>412</ele>
        <time>2016-10-30T08:35:48.000Z</time>
      </trkpt>
      <trkpt lat="47.48625" lon="6.8839">
        <ele>412</ele>
        <time>2016-10-30T08:35:50.000Z</time>
      </trkpt>
      <trkpt lat="47.48621" lon="6.88391">
        <ele>412</ele>
        <time>2016-10-30T08:35:51.000Z</time>
      </trkpt>
      <trkpt lat="47.48618" lon="6.88391">
        <ele>412</ele>
        <time>2016-10-30T08:35:52.000Z</time>
      </trkpt>
      <trkpt lat="47.48615" lon="6.88393">
        <ele>412</ele>
        <time>2016-10-30T08:35:53.000Z</time>
      </trkpt>
      <trkpt lat="47.48612" lon="6.88394">
        <ele>412</ele>
        <time>2016-10-30T08:35:54.000Z</time>
      </trkpt>
      <trkpt lat="47.4861" lon="6.88396">
        <ele>413</ele>
        <time>2016-10-30T08:35:55.000Z</time>
      </trkpt>
      <trkpt lat="47.48607" lon="6.88398">
        <ele>413</ele>
        <time>2016-10-30T08:35:56.000Z</time>
      </trkpt>
      <trkpt lat="47.48604" lon="6.88399">
        <ele>413</ele>
        <time>2016-10-30T08:35:57.000Z</time>
      </trkpt>
      <trkpt lat="47.486" lon="6.88401">
        <ele>413</ele>
        <time>2016-10-30T08:35:58.000Z</time>
      </trkpt>
      <trkpt lat="47.48597" lon="6.88402">
        <ele>413</ele>
        <time>2016-10-30T08:35:59.000Z</time>
      </trkpt>
      <trkpt lat="47.48593" lon="6.88404">
        <ele>413</ele>
        <time>2016-10-30T08:36:00.000Z</time>
      </trkpt>
      <trkpt lat="47.4859" lon="6.88405">
        <ele>413</ele>
        <time>2016-10-30T08:36:01.000Z</time>
      </trkpt>
      <trkpt lat="47.48587" lon="6.88406">
        <ele>413</ele>
        <time>2016-10-30T08:36:02.000Z</time>
      </trkpt>
      <trkpt lat="47.48583" lon="6.88406">
        <ele>414</ele>
        <time>2016-10-30T08:36:03.000Z</time>
      </trkpt>
      <trkpt lat="47.48579" lon="6.88407">
        <ele>414</ele>
        <time>2016-10-30T08:36:04.000Z</time>
      </trkpt>
      <trkpt lat="47.48575" lon="6.88408">
        <ele>414</ele>
        <time>2016-10-30T08:36:05.000Z</time>
      </trkpt>
      <trkpt lat="47.48571" lon="6.88408">
        <ele>414</ele>
        <time>2016-10-30T08:36:06.000Z</time>
      </trkpt>
      <trkpt lat="47.48567" lon="6.88409">
        <ele>414</ele>
        <time>2016-10-30T08:36:07.000Z</time>
      </trkpt>
      <trkpt lat="47.48563" lon="6.8841">
        <ele>414</ele>
        <time>2016-10-30T08:36:08.000Z</time>
      </trkpt>
      <trkpt lat="47.4856" lon="6.88411">
        <ele>414</ele>
        <time>2016-10-30T08:36:09.000Z</time>
      </trkpt>
      <trkpt lat="47.48557" lon="6.88412">
        <ele>414</ele>
        <time>2016-10-30T08:36:10.000Z</time>
      </trkpt>
      <trkpt lat="47.48555" lon="6.88413">
        <ele>415</ele>
        <time>2016-10-30T08:36:11.000Z</time>
      </trkpt>
      <trkpt lat="47.48552" lon="6.88415">
        <ele>415</ele>
        <time>2016-10-30T08:36:12.000Z</time>
      </trkpt>
      <trkpt lat="47.4855" lon="6.88417">
        <ele>414</ele>
        <time>2016-10-30T08:36:13.000Z</time>
      </trkpt>
      <trkpt lat="47.48548" lon="6.8842">
        <ele>414</ele>
        <time>2016-10-30T08:36:14.000Z</time>
      </trkpt>
      <trkpt lat="47.48546" lon="6.88422">
        <ele>414</ele>
        <time>2016-10-30T08:36:15.000Z</time>
      </trkpt>
      <trkpt lat="47.48543" lon="6.88424">
        <ele>414</ele>
        <time>2016-10-30T08:36:19.000Z</time>
      </trkpt>
      <trkpt lat="47.48542" lon="6.88425">
        <ele>414</ele>
        <time>2016-10-30T08:36:20.000Z</time>
      </trkpt>
      <trkpt lat="47.4854" lon="6.88426">
        <ele>414</ele>
        <time>2016-10-30T08:36:21.000Z</time>
      </trkpt>
      <trkpt lat="47.48537" lon="6.88427">
        <ele>414</ele>
        <time>2016-10-30T08:36:22.000Z</time>
      </trkpt>
      <trkpt lat="47.48534" lon="6.88428">
        <ele>414</ele>
        <time>2016-10-30T08:36:23.000Z</time>
      </trkpt>
      <trkpt lat="47.48531" lon="6.8843">
        <ele>414</ele>
        <time>2016-10-30T08:36:24.000Z</time>
      </trkpt>
      <trkpt lat="47.48528" lon="6.88431">
        <ele>414</ele>
        <time>2016-10-30T08:36:25.000Z</time>
      </trkpt>
      <trkpt lat="47.48525" lon="6.88433">
        <ele>414</ele>
        <time>2016-10-30T08:36:26.000Z</time>
      </trkpt>
      <trkpt lat="47.48521" lon="6.88435">
        <ele>414</ele>
        <time>2016-10-30T08:36:27.000Z</time>
      </trkpt>
      <trkpt lat="47.48518" lon="6.88437">
        <ele>414</ele>
        <time>2016-10-30T08:36:28.000Z</time>
      </trkpt>
      <trkpt lat="47.48515" lon="6.88439">
        <ele>414</ele>
        <time>2016-10-30T08:36:29.000Z</time>
      </trkpt>
      <trkpt lat="47.48511" lon="6.8844">
        <ele>414</ele>
        <time>2016-10-30T08:36:30.000Z</time>
      </trkpt>
      <trkpt lat="47.48508" lon="6.88442">
        <ele>415</ele>
        <time>2016-10-30T08:36:31.000Z</time>
      </trkpt>
      <trkpt lat="47.48506" lon="6.88445">
        <ele>415</ele>
        <time>2016-10-30T08:36:32.000Z</time>
      </trkpt>
      <trkpt lat="47.48502" lon="6.88448">
        <ele>415</ele>
        <time>2016-10-30T08:36:34.000Z</time>
      </trkpt>
      <trkpt lat="47.48502" lon="6.88449">
        <ele>415</ele>
        <time>2016-10-30T08:36:35.000Z</time>
      </trkpt>
      <trkpt lat="47.48498" lon="6.88452">
        <ele>415</ele>
        <time>2016-10-30T08:36:39.000Z</time>
      </trkpt>
      <trkpt lat="47.48496" lon="6.88452">
        <ele>415</ele>
        <time>2016-10-30T08:36:40.000Z</time>
      </trkpt>
      <trkpt lat="47.48492" lon="6.88451">
        <ele>415</ele>
        <time>2016-10-30T08:36:42.000Z</time>
      </trkpt>
      <trkpt lat="47.48491" lon="6.88451">
        <ele>415</ele>
        <time>2016-10-30T08:36:43.000Z</time>
      </trkpt>
      <trkpt lat="47.48486" lon="6.88451">
        <ele>415</ele>
        <time>2016-10-30T08:36:52.000Z</time>
      </trkpt>
      <trkpt lat="47.48486" lon="6.88451">
        <ele>415</ele>
        <time>2016-10-30T08:36:53.000Z</time>
      </trkpt>
      <trkpt lat="47.48482" lon="6.88452">
        <ele>415</ele>
        <time>2016-10-30T08:39:24.000Z</time>
      </trkpt>
      <trkpt lat="47.48482" lon="6.88453">
        <ele>415</ele>
        <time>2016-10-30T08:39:25.000Z</time>
      </trkpt>
      <trkpt lat="47.48479" lon="6.88455">
        <ele>415</ele>
        <time>2016-10-30T08:39:27.000Z</time>
      </trkpt>
      <trkpt lat="47.48476" lon="6.88457">
        <ele>415</ele>
        <time>2016-10-30T08:39:28.000Z</time>
      </trkpt>
      <trkpt lat="47.48474" lon="6.88459">
        <ele>415</ele>
        <time>2016-10-30T08:39:29.000Z</time>
      </trkpt>
      <trkpt lat="47.4847" lon="6.88462">
        <ele>415</ele>
        <time>2016-10-30T08:39:30.000Z</time>
      </trkpt>
      <trkpt lat="47.48467" lon="6.88465">
        <ele>415</ele>
        <time>2016-10-30T08:39:31.000Z</time>
      </trkpt>
      <trkpt lat="47.48462" lon="6.88467">
        <ele>415</ele>
        <time>2016-10-30T08:39:32.000Z</time>
      </trkpt>
      <trkpt lat="47.48458" lon="6.8847">
        <ele>415</ele>
        <time>2016-10-30T08:39:33.000Z</time>
      </trkpt>
      <trkpt lat="47.48454" lon="6.88473">
        <ele>415</ele>
        <time>2016-10-30T08:39:34.000Z</time>
      </trkpt>
      <trkpt lat="47.48449" lon="6.88476">
        <ele>414</ele>
        <time>2016-10-30T08:39:35.000Z</time>
      </trkpt>
      <trkpt lat="47.48445" lon="6.88479">
        <ele>414</ele>
        <time>2016-10-30T08:39:36.000Z</time>
      </trkpt>
      <trkpt lat="47.48438" lon="6.88484">
        <ele>414</ele>
        <time>2016-10-30T08:39:37.000Z</time>
      </trkpt>
      <trkpt lat="47.48435" lon="6.88487">
        <ele>414</ele>
        <time>2016-10-30T08:39:38.000Z</time>
      </trkpt>
      <trkpt lat="47.48431" lon="6.88489">
        <ele>414</ele>
        <time>2016-10-30T08:39:39.000Z</time>
      </trkpt>
      <trkpt lat="47.48428" lon="6.88493">
        <ele>414</ele>
        <time>2016-10-30T08:39:40.000Z</time>
      </trkpt>
      <trkpt lat="47.48421" lon="6.88497">
        <ele>414</ele>
        <time>2016-10-30T08:39:41.000Z</time>
      </trkpt>
      <trkpt lat="47.48414" lon="6.88499">
        <ele>414</ele>
        <time>2016-10-30T08:39:42.000Z</time>
      </trkpt>
      <trkpt lat="47.48409" lon="6.88502">
        <ele>414</ele>
        <time>2016-10-30T08:39:43.000Z</time>
      </trkpt>
      <trkpt lat="47.48403" lon="6.88507">
        <ele>414</ele>
        <time>2016-10-30T08:39:44.000Z</time>
      </trkpt>
      <trkpt lat="47.48399" lon="6.8851">
        <ele>414</ele>
        <time>2016-10-30T08:39:45.000Z</time>
      </trkpt>
      <trkpt lat="47.48394" lon="6.88513">
        <ele>414</ele>
        <time>2016-10-30T08:39:46.000Z</time>
      </trkpt>
      <trkpt lat="47.48389" lon="6.88515">
        <ele>414</ele>
        <time>2016-10-30T08:39:47.000Z</time>
      </trkpt>
      <trkpt lat="47.48386" lon="6.88513">
        <ele>414</ele>
        <time>2016-10-30T08:39:48.000Z</time>
      </trkpt>
      <trkpt lat="47.48376" lon="6.88512">
        <ele>414</ele>
        <time>2016-10-30T08:39:49.000Z</time>
      </trkpt>
      <trkpt lat="47.48372" lon="6.88513">
        <ele>414</ele>
        <time>2016-10-30T08:39:50.000Z</time>
      </trkpt>
      <trkpt lat="47.48365" lon="6.88514">
        <ele>414</ele>
        <time>2016-10-30T08:39:51.000Z</time>
      </trkpt>
      <trkpt lat="47.4836" lon="6.88513">
        <ele>414</ele>
        <time>2016-10-30T08:39:52.000Z</time>
      </trkpt>
      <trkpt lat="47.48355" lon="6.88513">
        <ele>414</ele>
        <time>2016-10-30T08:39:53.000Z</time>
      </trkpt>
      <trkpt lat="47.4835" lon="6.88513">
        <ele>414</ele>
        <time>2016-10-30T08:39:54.000Z</time>
      </trkpt>
      <trkpt lat="47.48345" lon="6.88513">
        <ele>414</ele>
        <time>2016-10-30T08:39:55.000Z</time>
      </trkpt>
      <trkpt lat="47.48342" lon="6.88513">
        <ele>414</ele>
        <time>2016-10-30T08:39:56.000Z</time>
      </trkpt>
      <trkpt lat="47.48336" lon="6.88512">
        <ele>413</ele>
        <time>2016-10-30T08:39:57.000Z</time>
      </trkpt>
      <trkpt lat="47.48334" lon="6.88512">
        <ele>413</ele>
        <time>2016-10-30T08:39:58.000Z</time>
      </trkpt>
      <trkpt lat="47.4833" lon="6.88514">
        <ele>413</ele>
        <time>2016-10-30T08:39:59.000Z</time>
      </trkpt>
      <trkpt lat="47.48326" lon="6.88518">
        <ele>413</ele>
        <time>2016-10-30T08:40:01.000Z</time>
      </trkpt>
      <trkpt lat="47.48325" lon="6.88518">
        <ele>413</ele>
        <time>2016-10-30T08:40:02.000Z</time>
      </trkpt>
      <trkpt lat="47.48322" lon="6.88519">
        <ele>413</ele>
        <time>2016-10-30T08:40:03.000Z</time>
      </trkpt>
      <trkpt lat="47.4832" lon="6.8852">
        <ele>413</ele>
        <time>2016-10-30T08:40:04.000Z</time>
      </trkpt>
      <trkpt lat="47.48317" lon="6.88519">
        <ele>413</ele>
        <time>2016-10-30T08:40:05.000Z</time>
      </trkpt>
      <trkpt lat="47.48315" lon="6.88519">
        <ele>413</ele>
        <time>2016-10-30T08:40:06.000Z</time>
      </trkpt>
      <trkpt lat="47.48312" lon="6.88519">
        <ele>413</ele>
        <time>2016-10-30T08:40:07.000Z</time>
      </trkpt>
      <trkpt lat="47.48308" lon="6.88518">
        <ele>413</ele>
        <time>2016-10-30T08:40:08.000Z</time>
      </trkpt>
      <trkpt lat="47.48303" lon="6.88517">
        <ele>413</ele>
        <time>2016-10-30T08:40:09.000Z</time>
      </trkpt>
      <trkpt lat="47.48292" lon="6.88517">
        <ele>413</ele>
        <time>2016-10-30T08:40:10.000Z</time>
      </trkpt>
      <trkpt lat="47.48287" lon="6.88517">
        <ele>413</ele>
        <time>2016-10-30T08:40:11.000Z</time>
      </trkpt>
      <trkpt lat="47.48281" lon="6.88518">
        <ele>413</ele>
        <time>2016-10-30T08:40:12.000Z</time>
      </trkpt>
      <trkpt lat="47.48276" lon="6.88518">
        <ele>413</ele>
        <time>2016-10-30T08:40:13.000Z</time>
      </trkpt>
      <trkpt lat="47.4827" lon="6.88519">
        <ele>413</ele>
        <time>2016-10-30T08:40:14.000Z</time>
      </trkpt>
      <trkpt lat="47.48266" lon="6.8852">
        <ele>413</ele>
        <time>2016-10-30T08:40:15.000Z</time>
      </trkpt>
      <trkpt lat="47.48258" lon="6.88519">
        <ele>412</ele>
        <time>2016-10-30T08:40:16.000Z</time>
      </trkpt>
      <trkpt lat="47.48253" lon="6.8852">
        <ele>412</ele>
        <time>2016-10-30T08:40:17.000Z</time>
      </trkpt>
      <trkpt lat="47.48246" lon="6.88519">
        <ele>410</ele>
        <time>2016-10-30T08:40:18.000Z</time>
      </trkpt>
      <trkpt lat="47.48239" lon="6.88518">
        <ele>410</ele>
        <time>2016-10-30T08:40:19.000Z</time>
      </trkpt>
      <trkpt lat="47.48233" lon="6.88517">
        <ele>409</ele>
        <time>2016-10-30T08:40:20.000Z</time>
      </trkpt>
      <trkpt lat="47.48227" lon="6.88513">
        <ele>409</ele>
        <time>2016-10-30T08:40:21.000Z</time>
      </trkpt>
      <trkpt lat="47.48222" lon="6.88511">
        <ele>409</ele>
        <time>2016-10-30T08:40:22.000Z</time>
      </trkpt>
      <trkpt lat="47.48214" lon="6.88508">
        <ele>408</ele>
        <time>2016-10-30T08:40:23.000Z</time>
      </trkpt>
      <trkpt lat="47.48211" lon="6.8851">
        <ele>408</ele>
        <time>2016-10-30T08:40:24.000Z</time>
      </trkpt>
      <trkpt lat="47.4821" lon="6.88514">
        <ele>408</ele>
        <time>2016-10-30T08:40:25.000Z</time>
      </trkpt>
      <trkpt lat="47.48207" lon="6.88516">
        <ele>407</ele>
        <time>2016-10-30T08:40:26.000Z</time>
      </trkpt>
      <trkpt lat="47.48206" lon="6.8852">
        <ele>407</ele>
        <time>2016-10-30T08:40:27.000Z</time>
      </trkpt>
      <trkpt lat="47.48201" lon="6.88522">
        <ele>407</ele>
        <time>2016-10-30T08:40:28.000Z</time>
      </trkpt>
      <trkpt lat="47.48201" lon="6.88524">
        <ele>407</ele>
        <time>2016-10-30T08:40:29.000Z</time>
      </trkpt>
      <trkpt lat="47.48201" lon="6.8853">
        <ele>407</ele>
        <time>2016-10-30T08:40:30.000Z</time>
      </trkpt>
      <trkpt lat="47.482" lon="6.88533">
        <ele>407</ele>
        <time>2016-10-30T08:40:31.000Z</time>
      </trkpt>
      <trkpt lat="47.482" lon="6.88538">
        <ele>407</ele>
        <time>2016-10-30T08:40:32.000Z</time>
      </trkpt>
      <trkpt lat="47.48201" lon="6.88542">
        <ele>407</ele>
        <time>2016-10-30T08:40:33.000Z</time>
      </trkpt>
      <trkpt lat="47.48201" lon="6.88545">
        <ele>407</ele>
        <time>2016-10-30T08:40:34.000Z</time>
      </trkpt>
      <trkpt lat="47.48202" lon="6.88551">
        <ele>407</ele>
        <time>2016-10-30T08:40:36.000Z</time>
      </trkpt>
      <trkpt lat="47.48202" lon="6.88554">
        <ele>407</ele>
        <time>2016-10-30T08:40:37.000Z</time>
      </trkpt>
      <trkpt lat="47.48203" lon="6.88557">
        <ele>407</ele>
        <time>2016-10-30T08:40:38.000Z</time>
      </trkpt>
      <trkpt lat="47.48204" lon="6.88561">
        <ele>407</ele>
        <time>2016-10-30T08:40:39.000Z</time>
      </trkpt>
      <trkpt lat="47.48206" lon="6.88566">
        <ele>407</ele>
        <time>2016-10-30T08:40:42.000Z</time>
      </trkpt>
      <trkpt lat="47.48207" lon="6.88568">
        <ele>407</ele>
        <time>2016-10-30T08:40:43.000Z</time>
      </trkpt>
      <trkpt lat="47.48208" lon="6.88572">
        <ele>407</ele>
        <time>2016-10-30T08:40:45.000Z</time>
      </trkpt>
      <trkpt lat="47.48208" lon="6.88576">
        <ele>408</ele>
        <time>2016-10-30T08:40:46.000Z</time>
      </trkpt>
      <trkpt lat="47.48209" lon="6.88579">
        <ele>408</ele>
        <time>2016-10-30T08:40:47.000Z</time>
      </trkpt>
      <trkpt lat="47.48209" lon="6.88583">
        <ele>408</ele>
        <time>2016-10-30T08:40:48.000Z</time>
      </trkpt>
      <trkpt lat="47.4821" lon="6.88586">
        <ele>408</ele>
        <time>2016-10-30T08:40:49.000Z</time>
      </trkpt>
      <trkpt lat="47.48211" lon="6.88589">
        <ele>408</ele>
        <time>2016-10-30T08:40:50.000Z</time>
      </trkpt>
      <trkpt lat="47.48212" lon="6.88592">
        <ele>408</ele>
        <time>2016-10-30T08:40:51.000Z</time>
      </trkpt>
      <trkpt lat="47.48213" lon="6.88595">
        <ele>409</ele>
        <time>2016-10-30T08:40:52.000Z</time>
      </trkpt>
      <trkpt lat="47.48214" lon="6.886">
        <ele>409</ele>
        <time>2016-10-30T08:40:53.000Z</time>
      </trkpt>
      <trkpt lat="47.48215" lon="6.88604">
        <ele>409</ele>
        <time>2016-10-30T08:40:54.000Z</time>
      </trkpt>
      <trkpt lat="47.48215" lon="6.88609">
        <ele>409</ele>
        <time>2016-10-30T08:40:55.000Z</time>
      </trkpt>
      <trkpt lat="47.48216" lon="6.88614">
        <ele>409</ele>
        <time>2016-10-30T08:40:56.000Z</time>
      </trkpt>
      <trkpt lat="47.48217" lon="6.88618">
        <ele>409</ele>
        <time>2016-10-30T08:40:57.000Z</time>
      </trkpt>
      <trkpt lat="47.48218" lon="6.88622">
        <ele>409</ele>
        <time>2016-10-30T08:40:58.000Z</time>
      </trkpt>
      <trkpt lat="47.48219" lon="6.88625">
        <ele>409</ele>
        <time>2016-10-30T08:40:59.000Z</time>
      </trkpt>
      <trkpt lat="47.4822" lon="6.88629">
        <ele>409</ele>
        <time>2016-10-30T08:41:00.000Z</time>
      </trkpt>
      <trkpt lat="47.4822" lon="6.88633">
        <ele>409</ele>
        <time>2016-10-30T08:41:01.000Z</time>
      </trkpt>
      <trkpt lat="47.48221" lon="6.88638">
        <ele>409</ele>
        <time>2016-10-30T08:41:02.000Z</time>
      </trkpt>
      <trkpt lat="47.48221" lon="6.88643">
        <ele>410</ele>
        <time>2016-10-30T08:41:03.000Z</time>
      </trkpt>
      <trkpt lat="47.48222" lon="6.88647">
        <ele>410</ele>
        <time>2016-10-30T08:41:04.000Z</time>
      </trkpt>
      <trkpt lat="47.48223" lon="6.88652">
        <ele>410</ele>
        <time>2016-10-30T08:41:06.000Z</time>
      </trkpt>
      <trkpt lat="47.48223" lon="6.88655">
        <ele>410</ele>
        <time>2016-10-30T08:41:07.000Z</time>
      </trkpt>
      <trkpt lat="47.48222" lon="6.88659">
        <ele>410</ele>
        <time>2016-10-30T08:41:09.000Z</time>
      </trkpt>
      <trkpt lat="47.48223" lon="6.88662">
        <ele>410</ele>
        <time>2016-10-30T08:41:10.000Z</time>
      </trkpt>
      <trkpt lat="47.48224" lon="6.88668">
        <ele>411</ele>
        <time>2016-10-30T08:41:12.000Z</time>
      </trkpt>
      <trkpt lat="47.48225" lon="6.88672">
        <ele>411</ele>
        <time>2016-10-30T08:41:13.000Z</time>
      </trkpt>
      <trkpt lat="47.48226" lon="6.88676">
        <ele>412</ele>
        <time>2016-10-30T08:41:14.000Z</time>
      </trkpt>
      <trkpt lat="47.48228" lon="6.88679">
        <ele>412</ele>
        <time>2016-10-30T08:41:15.000Z</time>
      </trkpt>
      <trkpt lat="47.48229" lon="6.88683">
        <ele>412</ele>
        <time>2016-10-30T08:41:16.000Z</time>
      </trkpt>
      <trkpt lat="47.48231" lon="6.88685">
        <ele>412</ele>
        <time>2016-10-30T08:41:17.000Z</time>
      </trkpt>
      <trkpt lat="47.48232" lon="6.88688">
        <ele>412</ele>
        <time>2016-10-30T08:41:18.000Z</time>
      </trkpt>
      <trkpt lat="47.48232" lon="6.88692">
        <ele>412</ele>
        <time>2016-10-30T08:41:19.000Z</time>
      </trkpt>
      <trkpt lat="47.48232" lon="6.88695">
        <ele>412</ele>
        <time>2016-10-30T08:41:20.000Z</time>
      </trkpt>
      <trkpt lat="47.4823" lon="6.88699">
        <ele>412</ele>
        <time>2016-10-30T08:41:21.000Z</time>
      </trkpt>
      <trkpt lat="47.48228" lon="6.88703">
        <ele>411</ele>
        <time>2016-10-30T08:41:22.000Z</time>
      </trkpt>
      <trkpt lat="47.48226" lon="6.88707">
        <ele>411</ele>
        <time>2016-10-30T08:41:23.000Z</time>
      </trkpt>
      <trkpt lat="47.48224" lon="6.8871">
        <ele>411</ele>
        <time>2016-10-30T08:41:24.000Z</time>
      </trkpt>
      <trkpt lat="47.48222" lon="6.88713">
        <ele>411</ele>
        <time>2016-10-30T08:41:25.000Z</time>
      </trkpt>
      <trkpt lat="47.4822" lon="6.88716">
        <ele>411</ele>
        <time>2016-10-30T08:41:26.000Z</time>
      </trkpt>
      <trkpt lat="47.48217" lon="6.88719">
        <ele>411</ele>
        <time>2016-10-30T08:41:27.000Z</time>
      </trkpt>
      <trkpt lat="47.48214" lon="6.88722">
        <ele>411</ele>
        <time>2016-10-30T08:41:28.000Z</time>
      </trkpt>
      <trkpt lat="47.48211" lon="6.88725">
        <ele>411</ele>
        <time>2016-10-30T08:41:29.000Z</time>
      </trkpt>
      <trkpt lat="47.48208" lon="6.88727">
        <ele>411</ele>
        <time>2016-10-30T08:41:30.000Z</time>
      </trkpt>
      <trkpt lat="47.48205" lon="6.88729">
        <ele>410</ele>
        <time>2016-10-30T08:41:31.000Z</time>
      </trkpt>
      <trkpt lat="47.48202" lon="6.88729">
        <ele>410</ele>
        <time>2016-10-30T08:41:32.000Z</time>
      </trkpt>
      <trkpt lat="47.48198" lon="6.88732">
        <ele>410</ele>
        <time>2016-10-30T08:41:33.000Z</time>
      </trkpt>
      <trkpt lat="47.48189" lon="6.88741">
        <ele>409</ele>
        <time>2016-10-30T08:41:34.000Z</time>
      </trkpt>
      <trkpt lat="47.48186" lon="6.88748">
        <ele>409</ele>
        <time>2016-10-30T08:41:35.000Z</time>
      </trkpt>
      <trkpt lat="47.48181" lon="6.88751">
        <ele>409</ele>
        <time>2016-10-30T08:41:36.000Z</time>
      </trkpt>
      <trkpt lat="47.48177" lon="6.88755">
        <ele>409</ele>
        <time>2016-10-30T08:41:37.000Z</time>
      </trkpt>
      <trkpt lat="47.48172" lon="6.88758">
        <ele>409</ele>
        <time>2016-10-30T08:41:38.000Z</time>
      </trkpt>
      <trkpt lat="47.48167" lon="6.8876">
        <ele>409</ele>
        <time>2016-10-30T08:41:39.000Z</time>
      </trkpt>
      <trkpt lat="47.48162" lon="6.88762">
        <ele>406</ele>
        <time>2016-10-30T08:41:40.000Z</time>
      </trkpt>
      <trkpt lat="47.48157" lon="6.88765">
        <ele>406</ele>
        <time>2016-10-30T08:41:41.000Z</time>
      </trkpt>
      <trkpt lat="47.48152" lon="6.88767">
        <ele>405</ele>
        <time>2016-10-30T08:41:42.000Z</time>
      </trkpt>
      <trkpt lat="47.48146" lon="6.88769">
        <ele>405</ele>
        <time>2016-10-30T08:41:43.000Z</time>
      </trkpt>
      <trkpt lat="47.48141" lon="6.88771">
        <ele>405</ele>
        <time>2016-10-30T08:41:44.000Z</time>
      </trkpt>
      <trkpt lat="47.48135" lon="6.88775">
        <ele>404</ele>
        <time>2016-10-30T08:41:45.000Z</time>
      </trkpt>
      <trkpt lat="47.48129" lon="6.88778">
        <ele>404</ele>
        <time>2016-10-30T08:41:46.000Z</time>
      </trkpt>
      <trkpt lat="47.48123" lon="6.88782">
        <ele>404</ele>
        <time>2016-10-30T08:41:47.000Z</time>
      </trkpt>
      <trkpt lat="47.48117" lon="6.88787">
        <ele>404</ele>
        <time>2016-10-30T08:41:48.000Z</time>
      </trkpt>
      <trkpt lat="47.48111" lon="6.88792">
        <ele>404</ele>
        <time>2016-10-30T08:41:49.000Z</time>
      </trkpt>
      <trkpt lat="47.48105" lon="6.88797">
        <ele>403</ele>
        <time>2016-10-30T08:41:50.000Z</time>
      </trkpt>
      <trkpt lat="47.48099" lon="6.88802">
        <ele>403</ele>
        <time>2016-10-30T08:41:51.000Z</time>
      </trkpt>
      <trkpt lat="47.48092" lon="6.88808">
        <ele>403</ele>
        <time>2016-10-30T08:41:52.000Z</time>
      </trkpt>
      <trkpt lat="47.48086" lon="6.88813">
        <ele>402</ele>
        <time>2016-10-30T08:41:53.000Z</time>
      </trkpt>
      <trkpt lat="47.48078" lon="6.88819">
        <ele>398</ele>
        <time>2016-10-30T08:41:54.000Z</time>
      </trkpt>
      <trkpt lat="47.48071" lon="6.88824">
        <ele>398</ele>
        <time>2016-10-30T08:41:55.000Z</time>
      </trkpt>
      <trkpt lat="47.48063" lon="6.88831">
        <ele>398</ele>
        <time>2016-10-30T08:41:56.000Z</time>
      </trkpt>
      <trkpt lat="47.48055" lon="6.88837">
        <ele>397</ele>
        <time>2016-10-30T08:41:57.000Z</time>
      </trkpt>
      <trkpt lat="47.48047" lon="6.88843">
        <ele>396</ele>
        <time>2016-10-30T08:41:58.000Z</time>
      </trkpt>
      <trkpt lat="47.48039" lon="6.88849">
        <ele>395</ele>
        <time>2016-10-30T08:41:59.000Z</time>
      </trkpt>
      <trkpt lat="47.4803" lon="6.88855">
        <ele>395</ele>
        <time>2016-10-30T08:42:00.000Z</time>
      </trkpt>
      <trkpt lat="47.48021" lon="6.88861">
        <ele>394</ele>
        <time>2016-10-30T08:42:01.000Z</time>
      </trkpt>
      <trkpt lat="47.48013" lon="6.88868">
        <ele>394</ele>
        <time>2016-10-30T08:42:02.000Z</time>
      </trkpt>
      <trkpt lat="47.48004" lon="6.88873">
        <ele>394</ele>
        <time>2016-10-30T08:42:03.000Z</time>
      </trkpt>
      <trkpt lat="47.47995" lon="6.88879">
        <ele>389</ele>
        <time>2016-10-30T08:42:04.000Z</time>
      </trkpt>
      <trkpt lat="47.47987" lon="6.88884">
        <ele>389</ele>
        <time>2016-10-30T08:42:05.000Z</time>
      </trkpt>
      <trkpt lat="47.47979" lon="6.88888">
        <ele>389</ele>
        <time>2016-10-30T08:42:06.000Z</time>
      </trkpt>
      <trkpt lat="47.47971" lon="6.88892">
        <ele>388</ele>
        <time>2016-10-30T08:42:07.000Z</time>
      </trkpt>
      <trkpt lat="47.47963" lon="6.88896">
        <ele>388</ele>
        <time>2016-10-30T08:42:08.000Z</time>
      </trkpt>
      <trkpt lat="47.47956" lon="6.889">
        <ele>388</ele>
        <time>2016-10-30T08:42:09.000Z</time>
      </trkpt>
      <trkpt lat="47.4795" lon="6.88906">
        <ele>388</ele>
        <time>2016-10-30T08:42:10.000Z</time>
      </trkpt>
      <trkpt lat="47.47945" lon="6.88913">
        <ele>387</ele>
        <time>2016-10-30T08:42:11.000Z</time>
      </trkpt>
      <trkpt lat="47.47942" lon="6.8892">
        <ele>388</ele>
        <time>2016-10-30T08:42:12.000Z</time>
      </trkpt>
      <trkpt lat="47.4794" lon="6.88929">
        <ele>388</ele>
        <time>2016-10-30T08:42:13.000Z</time>
      </trkpt>
      <trkpt lat="47.47939" lon="6.88937">
        <ele>388</ele>
        <time>2016-10-30T08:42:14.000Z</time>
      </trkpt>
      <trkpt lat="47.47938" lon="6.88944">
        <ele>388</ele>
        <time>2016-10-30T08:42:15.000Z</time>
      </trkpt>
      <trkpt lat="47.47937" lon="6.88951">
        <ele>388</ele>
        <time>2016-10-30T08:42:16.000Z</time>
      </trkpt>
      <trkpt lat="47.47936" lon="6.88958">
        <ele>388</ele>
        <time>2016-10-30T08:42:17.000Z</time>
      </trkpt>
      <trkpt lat="47.47935" lon="6.88965">
        <ele>388</ele>
        <time>2016-10-30T08:42:18.000Z</time>
      </trkpt>
      <trkpt lat="47.47935" lon="6.88972">
        <ele>388</ele>
        <time>2016-10-30T08:42:19.000Z</time>
      </trkpt>
      <trkpt lat="47.47934" lon="6.88978">
        <ele>388</ele>
        <time>2016-10-30T08:42:20.000Z</time>
      </trkpt>
      <trkpt lat="47.47932" lon="6.88985">
        <ele>388</ele>
        <time>2016-10-30T08:42:21.000Z</time>
      </trkpt>
      <trkpt lat="47.47931" lon="6.88991">
        <ele>387</ele>
        <time>2016-10-30T08:42:22.000Z</time>
      </trkpt>
      <trkpt lat="47.4793" lon="6.88998">
        <ele>387</ele>
        <time>2016-10-30T08:42:23.000Z</time>
      </trkpt>
      <trkpt lat="47.47928" lon="6.89004">
        <ele>387</ele>
        <time>2016-10-30T08:42:24.000Z</time>
      </trkpt>
      <trkpt lat="47.47927" lon="6.8901">
        <ele>387</ele>
        <time>2016-10-30T08:42:25.000Z</time>
      </trkpt>
      <trkpt lat="47.47926" lon="6.89016">
        <ele>387</ele>
        <time>2016-10-30T08:42:26.000Z</time>
      </trkpt>
      <trkpt lat="47.47925" lon="6.89022">
        <ele>387</ele>
        <time>2016-10-30T08:42:27.000Z</time>
      </trkpt>
      <trkpt lat="47.47923" lon="6.89028">
        <ele>388</ele>
        <time>2016-10-30T08:42:28.000Z</time>
      </trkpt>
      <trkpt lat="47.47922" lon="6.89034">
        <ele>388</ele>
        <time>2016-10-30T08:42:29.000Z</time>
      </trkpt>
      <trkpt lat="47.4792" lon="6.89041">
        <ele>388</ele>
        <time>2016-10-30T08:42:30.000Z</time>
      </trkpt>
      <trkpt lat="47.47918" lon="6.89047">
        <ele>387</ele>
        <time>2016-10-30T08:42:31.000Z</time>
      </trkpt>
      <trkpt lat="47.47914" lon="6.89052">
        <ele>384</ele>
        <time>2016-10-30T08:42:32.000Z</time>
      </trkpt>
      <trkpt lat="47.47911" lon="6.89057">
        <ele>384</ele>
        <time>2016-10-30T08:42:33.000Z</time>
      </trkpt>
      <trkpt lat="47.47908" lon="6.89062">
        <ele>384</ele>
        <time>2016-10-30T08:42:34.000Z</time>
      </trkpt>
      <trkpt lat="47.47904" lon="6.89069">
        <ele>384</ele>
        <time>2016-10-30T08:42:35.000Z</time>
      </trkpt>
      <trkpt lat="47.479" lon="6.89075">
        <ele>384</ele>
        <time>2016-10-30T08:42:36.000Z</time>
      </trkpt>
      <trkpt lat="47.47896" lon="6.8908">
        <ele>384</ele>
        <time>2016-10-30T08:42:37.000Z</time>
      </trkpt>
      <trkpt lat="47.47892" lon="6.89087">
        <ele>384</ele>
        <time>2016-10-30T08:42:38.000Z</time>
      </trkpt>
      <trkpt lat="47.47888" lon="6.89093">
        <ele>384</ele>
        <time>2016-10-30T08:42:39.000Z</time>
      </trkpt>
      <trkpt lat="47.47884" lon="6.891">
        <ele>383</ele>
        <time>2016-10-30T08:42:40.000Z</time>
      </trkpt>
      <trkpt lat="47.4788" lon="6.89107">
        <ele>383</ele>
        <time>2016-10-30T08:42:41.000Z</time>
      </trkpt>
      <trkpt lat="47.47875" lon="6.89114">
        <ele>383</ele>
        <time>2016-10-30T08:42:42.000Z</time>
      </trkpt>
      <trkpt lat="47.4787" lon="6.89121">
        <ele>383</ele>
        <time>2016-10-30T08:42:43.000Z</time>
      </trkpt>
      <trkpt lat="47.47867" lon="6.89129">
        <ele>383</ele>
        <time>2016-10-30T08:42:44.000Z</time>
      </trkpt>
      <trkpt lat="47.47862" lon="6.89135">
        <ele>383</ele>
        <time>2016-10-30T08:42:45.000Z</time>
      </trkpt>
      <trkpt lat="47.47858" lon="6.8914">
        <ele>383</ele>
        <time>2016-10-30T08:42:46.000Z</time>
      </trkpt>
      <trkpt lat="47.47854" lon="6.89146">
        <ele>382</ele>
        <time>2016-10-30T08:42:47.000Z</time>
      </trkpt>
      <trkpt lat="47.47849" lon="6.89151">
        <ele>382</ele>
        <time>2016-10-30T08:42:48.000Z</time>
      </trkpt>
      <trkpt lat="47.47845" lon="6.89157">
        <ele>382</ele>
        <time>2016-10-30T08:42:49.000Z</time>
      </trkpt>
      <trkpt lat="47.47841" lon="6.89163">
        <ele>382</ele>
        <time>2016-10-30T08:42:50.000Z</time>
      </trkpt>
      <trkpt lat="47.47837" lon="6.89169">
        <ele>381</ele>
        <time>2016-10-30T08:42:51.000Z</time>
      </trkpt>
      <trkpt lat="47.47832" lon="6.89175">
        <ele>381</ele>
        <time>2016-10-30T08:42:52.000Z</time>
      </trkpt>
      <trkpt lat="47.47827" lon="6.89181">
        <ele>380</ele>
        <time>2016-10-30T08:42:53.000Z</time>
      </trkpt>
      <trkpt lat="47.47822" lon="6.89187">
        <ele>380</ele>
        <time>2016-10-30T08:42:54.000Z</time>
      </trkpt>
      <trkpt lat="47.47817" lon="6.89194">
        <ele>380</ele>
        <time>2016-10-30T08:42:55.000Z</time>
      </trkpt>
      <trkpt lat="47.47812" lon="6.89201">
        <ele>380</ele>
        <time>2016-10-30T08:42:56.000Z</time>
      </trkpt>
      <trkpt lat="47.47807" lon="6.89207">
        <ele>380</ele>
        <time>2016-10-30T08:42:57.000Z</time>
      </trkpt>
      <trkpt lat="47.47801" lon="6.89214">
        <ele>379</ele>
        <time>2016-10-30T08:42:58.000Z</time>
      </trkpt>
      <trkpt lat="47.47795" lon="6.89219">
        <ele>379</ele>
        <time>2016-10-30T08:42:59.000Z</time>
      </trkpt>
      <trkpt lat="47.47788" lon="6.89223">
        <ele>379</ele>
        <time>2016-10-30T08:43:00.000Z</time>
      </trkpt>
      <trkpt lat="47.47782" lon="6.89227">
        <ele>379</ele>
        <time>2016-10-30T08:43:01.000Z</time>
      </trkpt>
      <trkpt lat="47.47775" lon="6.89231">
        <ele>379</ele>
        <time>2016-10-30T08:43:02.000Z</time>
      </trkpt>
      <trkpt lat="47.47768" lon="6.89235">
        <ele>379</ele>
        <time>2016-10-30T08:43:03.000Z</time>
      </trkpt>
      <trkpt lat="47.47761" lon="6.89238">
        <ele>379</ele>
        <time>2016-10-30T08:43:04.000Z</time>
      </trkpt>
      <trkpt lat="47.47756" lon="6.89241">
        <ele>378</ele>
        <time>2016-10-30T08:43:05.000Z</time>
      </trkpt>
      <trkpt lat="47.47753" lon="6.89242">
        <ele>378</ele>
        <time>2016-10-30T08:43:06.000Z</time>
      </trkpt>
      <trkpt lat="47.47749" lon="6.8924">
        <ele>377</ele>
        <time>2016-10-30T08:43:07.000Z</time>
      </trkpt>
      <trkpt lat="47.47747" lon="6.89236">
        <ele>377</ele>
        <time>2016-10-30T08:43:08.000Z</time>
      </trkpt>
      <trkpt lat="47.47746" lon="6.89231">
        <ele>377</ele>
        <time>2016-10-30T08:43:09.000Z</time>
      </trkpt>
      <trkpt lat="47.47746" lon="6.89226">
        <ele>377</ele>
        <time>2016-10-30T08:43:10.000Z</time>
      </trkpt>
      <trkpt lat="47.47744" lon="6.89225">
        <ele>377</ele>
        <time>2016-10-30T08:43:11.000Z</time>
      </trkpt>
      <trkpt lat="47.4774" lon="6.89222">
        <ele>377</ele>
        <time>2016-10-30T08:43:15.000Z</time>
      </trkpt>
      <trkpt lat="47.4774" lon="6.89221">
        <ele>377</ele>
        <time>2016-10-30T08:43:16.000Z</time>
      </trkpt>
      <trkpt lat="47.47738" lon="6.89216">
        <ele>377</ele>
        <time>2016-10-30T08:43:21.000Z</time>
      </trkpt>
      <trkpt lat="47.47738" lon="6.89214">
        <ele>377</ele>
        <time>2016-10-30T08:43:22.000Z</time>
      </trkpt>
      <trkpt lat="47.47736" lon="6.8921">
        <ele>376</ele>
        <time>2016-10-30T08:43:34.000Z</time>
      </trkpt>
      <trkpt lat="47.47734" lon="6.89207">
        <ele>376</ele>
        <time>2016-10-30T08:43:35.000Z</time>
      </trkpt>
      <trkpt lat="47.47732" lon="6.89203">
        <ele>376</ele>
        <time>2016-10-30T08:43:36.000Z</time>
      </trkpt>
      <trkpt lat="47.47731" lon="6.89198">
        <ele>376</ele>
        <time>2016-10-30T08:43:37.000Z</time>
      </trkpt>
      <trkpt lat="47.47729" lon="6.89192">
        <ele>376</ele>
        <time>2016-10-30T08:43:38.000Z</time>
      </trkpt>
      <trkpt lat="47.47726" lon="6.89187">
        <ele>376</ele>
        <time>2016-10-30T08:43:39.000Z</time>
      </trkpt>
      <trkpt lat="47.47723" lon="6.89182">
        <ele>376</ele>
        <time>2016-10-30T08:43:40.000Z</time>
      </trkpt>
      <trkpt lat="47.4772" lon="6.89177">
        <ele>376</ele>
        <time>2016-10-30T08:43:41.000Z</time>
      </trkpt>
      <trkpt lat="47.47715" lon="6.89171">
        <ele>376</ele>
        <time>2016-10-30T08:43:42.000Z</time>
      </trkpt>
      <trkpt lat="47.47712" lon="6.89167">
        <ele>375</ele>
        <time>2016-10-30T08:43:43.000Z</time>
      </trkpt>
      <trkpt lat="47.47707" lon="6.89163">
        <ele>375</ele>
        <time>2016-10-30T08:43:44.000Z</time>
      </trkpt>
      <trkpt lat="47.47702" lon="6.8916">
        <ele>375</ele>
        <time>2016-10-30T08:43:45.000Z</time>
      </trkpt>
      <trkpt lat="47.47697" lon="6.89159">
        <ele>375</ele>
        <time>2016-10-30T08:43:46.000Z</time>
      </trkpt>
      <trkpt lat="47.47692" lon="6.89158">
        <ele>375</ele>
        <time>2016-10-30T08:43:47.000Z</time>
      </trkpt>
      <trkpt lat="47.47688" lon="6.89159">
        <ele>375</ele>
        <time>2016-10-30T08:43:48.000Z</time>
      </trkpt>
      <trkpt lat="47.47684" lon="6.89161">
        <ele>374</ele>
        <time>2016-10-30T08:43:49.000Z</time>
      </trkpt>
      <trkpt lat="47.47679" lon="6.89162">
        <ele>374</ele>
        <time>2016-10-30T08:43:50.000Z</time>
      </trkpt>
      <trkpt lat="47.47675" lon="6.89164">
        <ele>374</ele>
        <time>2016-10-30T08:43:51.000Z</time>
      </trkpt>
      <trkpt lat="47.4767" lon="6.89166">
        <ele>374</ele>
        <time>2016-10-30T08:43:52.000Z</time>
      </trkpt>
      <trkpt lat="47.47665" lon="6.89168">
        <ele>374</ele>
        <time>2016-10-30T08:43:53.000Z</time>
      </trkpt>
      <trkpt lat="47.47661" lon="6.8917">
        <ele>374</ele>
        <time>2016-10-30T08:43:54.000Z</time>
      </trkpt>
      <trkpt lat="47.47656" lon="6.89172">
        <ele>374</ele>
        <time>2016-10-30T08:43:55.000Z</time>
      </trkpt>
      <trkpt lat="47.47651" lon="6.89174">
        <ele>375</ele>
        <time>2016-10-30T08:43:56.000Z</time>
      </trkpt>
      <trkpt lat="47.47646" lon="6.89176">
        <ele>375</ele>
        <time>2016-10-30T08:43:57.000Z</time>
      </trkpt>
      <trkpt lat="47.47642" lon="6.89179">
        <ele>375</ele>
        <time>2016-10-30T08:43:58.000Z</time>
      </trkpt>
      <trkpt lat="47.47638" lon="6.89182">
        <ele>375</ele>
        <time>2016-10-30T08:43:59.000Z</time>
      </trkpt>
      <trkpt lat="47.47633" lon="6.89185">
        <ele>375</ele>
        <time>2016-10-30T08:44:00.000Z</time>
      </trkpt>
      <trkpt lat="47.4763" lon="6.89188">
        <ele>375</ele>
        <time>2016-10-30T08:44:01.000Z</time>
      </trkpt>
      <trkpt lat="47.47626" lon="6.8919">
        <ele>375</ele>
        <time>2016-10-30T08:44:02.000Z</time>
      </trkpt>
      <trkpt lat="47.47622" lon="6.89192">
        <ele>375</ele>
        <time>2016-10-30T08:44:03.000Z</time>
      </trkpt>
      <trkpt lat="47.47619" lon="6.89194">
        <ele>375</ele>
        <time>2016-10-30T08:44:04.000Z</time>
      </trkpt>
      <trkpt lat="47.47615" lon="6.89196">
        <ele>375</ele>
        <time>2016-10-30T08:44:05.000Z</time>
      </trkpt>
      <trkpt lat="47.47611" lon="6.89198">
        <ele>375</ele>
        <time>2016-10-30T08:44:06.000Z</time>
      </trkpt>
      <trkpt lat="47.47608" lon="6.89199">
        <ele>375</ele>
        <time>2016-10-30T08:44:07.000Z</time>
      </trkpt>
      <trkpt lat="47.47605" lon="6.89201">
        <ele>375</ele>
        <time>2016-10-30T08:44:08.000Z</time>
      </trkpt>
      <trkpt lat="47.47604" lon="6.89204">
        <ele>375</ele>
        <time>2016-10-30T08:44:09.000Z</time>
      </trkpt>
      <trkpt lat="47.47602" lon="6.89207">
        <ele>375</ele>
        <time>2016-10-30T08:44:10.000Z</time>
      </trkpt>
      <trkpt lat="47.47601" lon="6.89212">
        <ele>376</ele>
        <time>2016-10-30T08:44:11.000Z</time>
      </trkpt>
      <trkpt lat="47.47601" lon="6.89218">
        <ele>376</ele>
        <time>2016-10-30T08:44:12.000Z</time>
      </trkpt>
      <trkpt lat="47.47601" lon="6.89224">
        <ele>376</ele>
        <time>2016-10-30T08:44:13.000Z</time>
      </trkpt>
      <trkpt lat="47.47601" lon="6.8923">
        <ele>376</ele>
        <time>2016-10-30T08:44:14.000Z</time>
      </trkpt>
      <trkpt lat="47.47602" lon="6.89237">
        <ele>376</ele>
        <time>2016-10-30T08:44:15.000Z</time>
      </trkpt>
      <trkpt lat="47.47603" lon="6.89244">
        <ele>376</ele>
        <time>2016-10-30T08:44:16.000Z</time>
      </trkpt>
      <trkpt lat="47.47603" lon="6.8925">
        <ele>376</ele>
        <time>2016-10-30T08:44:17.000Z</time>
      </trkpt>
      <trkpt lat="47.47604" lon="6.89257">
        <ele>376</ele>
        <time>2016-10-30T08:44:18.000Z</time>
      </trkpt>
      <trkpt lat="47.47605" lon="6.89264">
        <ele>376</ele>
        <time>2016-10-30T08:44:19.000Z</time>
      </trkpt>
      <trkpt lat="47.47605" lon="6.89271">
        <ele>376</ele>
        <time>2016-10-30T08:44:20.000Z</time>
      </trkpt>
      <trkpt lat="47.47605" lon="6.89276">
        <ele>376</ele>
        <time>2016-10-30T08:44:21.000Z</time>
      </trkpt>
      <trkpt lat="47.47603" lon="6.8928">
        <ele>376</ele>
        <time>2016-10-30T08:44:22.000Z</time>
      </trkpt>
      <trkpt lat="47.476" lon="6.89281">
        <ele>376</ele>
        <time>2016-10-30T08:44:23.000Z</time>
      </trkpt>
      <trkpt lat="47.47596" lon="6.89279">
        <ele>376</ele>
        <time>2016-10-30T08:44:24.000Z</time>
      </trkpt>
      <trkpt lat="47.47592" lon="6.89275">
        <ele>376</ele>
        <time>2016-10-30T08:44:25.000Z</time>
      </trkpt>
      <trkpt lat="47.47589" lon="6.89269">
        <ele>376</ele>
        <time>2016-10-30T08:44:26.000Z</time>
      </trkpt>
      <trkpt lat="47.47587" lon="6.89262">
        <ele>377</ele>
        <time>2016-10-30T08:44:27.000Z</time>
      </trkpt>
      <trkpt lat="47.47587" lon="6.89247">
        <ele>377</ele>
        <time>2016-10-30T08:44:28.000Z</time>
      </trkpt>
      <trkpt lat="47.47587" lon="6.8924">
        <ele>376</ele>
        <time>2016-10-30T08:44:29.000Z</time>
      </trkpt>
      <trkpt lat="47.47586" lon="6.89233">
        <ele>376</ele>
        <time>2016-10-30T08:44:30.000Z</time>
      </trkpt>
      <trkpt lat="47.47583" lon="6.89228">
        <ele>377</ele>
        <time>2016-10-30T08:44:31.000Z</time>
      </trkpt>
      <trkpt lat="47.4758" lon="6.89223">
        <ele>377</ele>
        <time>2016-10-30T08:44:32.000Z</time>
      </trkpt>
      <trkpt lat="47.47577" lon="6.89219">
        <ele>377</ele>
        <time>2016-10-30T08:44:33.000Z</time>
      </trkpt>
      <trkpt lat="47.47573" lon="6.89216">
        <ele>377</ele>
        <time>2016-10-30T08:44:34.000Z</time>
      </trkpt>
      <trkpt lat="47.4757" lon="6.89215">
        <ele>377</ele>
        <time>2016-10-30T08:44:35.000Z</time>
      </trkpt>
      <trkpt lat="47.47564" lon="6.89215">
        <ele>377</ele>
        <time>2016-10-30T08:44:36.000Z</time>
      </trkpt>
      <trkpt lat="47.47559" lon="6.89216">
        <ele>377</ele>
        <time>2016-10-30T08:44:37.000Z</time>
      </trkpt>
      <trkpt lat="47.47555" lon="6.89216">
        <ele>377</ele>
        <time>2016-10-30T08:44:38.000Z</time>
      </trkpt>
      <trkpt lat="47.4755" lon="6.89216">
        <ele>377</ele>
        <time>2016-10-30T08:44:39.000Z</time>
      </trkpt>
      <trkpt lat="47.47545" lon="6.89216">
        <ele>377</ele>
        <time>2016-10-30T08:44:40.000Z</time>
      </trkpt>
      <trkpt lat="47.47541" lon="6.89217">
        <ele>377</ele>
        <time>2016-10-30T08:44:41.000Z</time>
      </trkpt>
      <trkpt lat="47.47536" lon="6.89218">
        <ele>377</ele>
        <time>2016-10-30T08:44:42.000Z</time>
      </trkpt>
      <trkpt lat="47.47532" lon="6.89219">
        <ele>377</ele>
        <time>2016-10-30T08:44:43.000Z</time>
      </trkpt>
      <trkpt lat="47.47528" lon="6.8922">
        <ele>377</ele>
        <time>2016-10-30T08:44:44.000Z</time>
      </trkpt>
      <trkpt lat="47.47523" lon="6.8922">
        <ele>377</ele>
        <time>2016-10-30T08:44:45.000Z</time>
      </trkpt>
      <trkpt lat="47.47519" lon="6.89221">
        <ele>377</ele>
        <time>2016-10-30T08:44:46.000Z</time>
      </trkpt>
      <trkpt lat="47.47515" lon="6.89221">
        <ele>377</ele>
        <time>2016-10-30T08:44:47.000Z</time>
      </trkpt>
      <trkpt lat="47.47512" lon="6.89222">
        <ele>377</ele>
        <time>2016-10-30T08:44:48.000Z</time>
      </trkpt>
      <trkpt lat="47.47508" lon="6.89222">
        <ele>377</ele>
        <time>2016-10-30T08:44:49.000Z</time>
      </trkpt>
      <trkpt lat="47.47505" lon="6.89222">
        <ele>377</ele>
        <time>2016-10-30T08:44:50.000Z</time>
      </trkpt>
      <trkpt lat="47.47502" lon="6.89223">
        <ele>377</ele>
        <time>2016-10-30T08:44:51.000Z</time>
      </trkpt>
      <trkpt lat="47.47498" lon="6.89222">
        <ele>379</ele>
        <time>2016-10-30T08:44:52.000Z</time>
      </trkpt>
      <trkpt lat="47.47495" lon="6.89222">
        <ele>379</ele>
        <time>2016-10-30T08:44:53.000Z</time>
      </trkpt>
      <trkpt lat="47.47492" lon="6.89221">
        <ele>379</ele>
        <time>2016-10-30T08:44:54.000Z</time>
      </trkpt>
      <trkpt lat="47.47488" lon="6.8922">
        <ele>379</ele>
        <time>2016-10-30T08:44:55.104Z</time>
      </trkpt>
      <trkpt lat="47.47483" lon="6.89216">
        <ele>379</ele>
        <time>2016-10-30T08:44:57.000Z</time>
      </trkpt>
      <trkpt lat="47.47481" lon="6.89214">
        <ele>379</ele>
        <time>2016-10-30T08:44:58.000Z</time>
      </trkpt>
      <trkpt lat="47.47478" lon="6.89211">
        <ele>379</ele>
        <time>2016-10-30T08:44:59.000Z</time>
      </trkpt>
      <trkpt lat="47.47476" lon="6.89208">
        <ele>379</ele>
        <time>2016-10-30T08:45:00.000Z</time>
      </trkpt>
      <trkpt lat="47.47474" lon="6.89205">
        <ele>379</ele>
        <time>2016-10-30T08:45:01.000Z</time>
      </trkpt>
      <trkpt lat="47.47471" lon="6.89202">
        <ele>379</ele>
        <time>2016-10-30T08:45:02.000Z</time>
      </trkpt>
      <trkpt lat="47.47469" lon="6.89199">
        <ele>379</ele>
        <time>2016-10-30T08:45:03.000Z</time>
      </trkpt>
      <trkpt lat="47.47466" lon="6.89197">
        <ele>379</ele>
        <time>2016-10-30T08:45:04.102Z</time>
      </trkpt>
      <trkpt lat="47.47461" lon="6.89194">
        <ele>379</ele>
        <time>2016-10-30T08:45:06.000Z</time>
      </trkpt>
      <trkpt lat="47.47457" lon="6.89193">
        <ele>380</ele>
        <time>2016-10-30T08:45:07.000Z</time>
      </trkpt>
      <trkpt lat="47.47454" lon="6.89193">
        <ele>380</ele>
        <time>2016-10-30T08:45:08.000Z</time>
      </trkpt>
      <trkpt lat="47.47451" lon="6.89193">
        <ele>380</ele>
        <time>2016-10-30T08:45:09.000Z</time>
      </trkpt>
      <trkpt lat="47.47447" lon="6.89193">
        <ele>380</ele>
        <time>2016-10-30T08:45:10.000Z</time>
      </trkpt>
      <trkpt lat="47.47444" lon="6.89193">
        <ele>380</ele>
        <time>2016-10-30T08:45:11.000Z</time>
      </trkpt>
      <trkpt lat="47.47441" lon="6.89194">
        <ele>380</ele>
        <time>2016-10-30T08:45:12.000Z</time>
      </trkpt>
      <trkpt lat="47.47438" lon="6.89194">
        <ele>380</ele>
        <time>2016-10-30T08:45:13.000Z</time>
      </trkpt>
      <trkpt lat="47.47434" lon="6.89195">
        <ele>380</ele>
        <time>2016-10-30T08:45:14.000Z</time>
      </trkpt>
      <trkpt lat="47.47431" lon="6.89195">
        <ele>380</ele>
        <time>2016-10-30T08:45:15.000Z</time>
      </trkpt>
      <trkpt lat="47.47428" lon="6.89195">
        <ele>380</ele>
        <time>2016-10-30T08:45:16.000Z</time>
      </trkpt>
      <trkpt lat="47.47425" lon="6.89195">
        <ele>380</ele>
        <time>2016-10-30T08:45:17.000Z</time>
      </trkpt>
      <trkpt lat="47.47422" lon="6.89195">
        <ele>380</ele>
        <time>2016-10-30T08:45:18.000Z</time>
      </trkpt>
      <trkpt lat="47.47419" lon="6.89195">
        <ele>380</ele>
        <time>2016-10-30T08:45:19.000Z</time>
      </trkpt>
      <trkpt lat="47.47415" lon="6.89195">
        <ele>382</ele>
        <time>2016-10-30T08:45:20.000Z</time>
      </trkpt>
      <trkpt lat="47.47412" lon="6.89195">
        <ele>382</ele>
        <time>2016-10-30T08:45:21.000Z</time>
      </trkpt>
      <trkpt lat="47.47409" lon="6.89196">
        <ele>382</ele>
        <time>2016-10-30T08:45:22.000Z</time>
      </trkpt>
      <trkpt lat="47.47405" lon="6.89196">
        <ele>382</ele>
        <time>2016-10-30T08:45:23.000Z</time>
      </trkpt>
      <trkpt lat="47.47402" lon="6.89197">
        <ele>382</ele>
        <time>2016-10-30T08:45:24.000Z</time>
      </trkpt>
      <trkpt lat="47.47399" lon="6.89197">
        <ele>383</ele>
        <time>2016-10-30T08:45:25.000Z</time>
      </trkpt>
      <trkpt lat="47.47396" lon="6.89198">
        <ele>383</ele>
        <time>2016-10-30T08:45:26.000Z</time>
      </trkpt>
      <trkpt lat="47.47393" lon="6.89199">
        <ele>383</ele>
        <time>2016-10-30T08:45:27.000Z</time>
      </trkpt>
      <trkpt lat="47.47389" lon="6.89199">
        <ele>383</ele>
        <time>2016-10-30T08:45:28.000Z</time>
      </trkpt>
      <trkpt lat="47.47386" lon="6.892">
        <ele>383</ele>
        <time>2016-10-30T08:45:29.000Z</time>
      </trkpt>
      <trkpt lat="47.47383" lon="6.892">
        <ele>383</ele>
        <time>2016-10-30T08:45:30.000Z</time>
      </trkpt>
      <trkpt lat="47.4738" lon="6.89201">
        <ele>383</ele>
        <time>2016-10-30T08:45:31.000Z</time>
      </trkpt>
      <trkpt lat="47.47377" lon="6.89201">
        <ele>383</ele>
        <time>2016-10-30T08:45:32.000Z</time>
      </trkpt>
      <trkpt lat="47.47374" lon="6.89202">
        <ele>383</ele>
        <time>2016-10-30T08:45:33.000Z</time>
      </trkpt>
      <trkpt lat="47.47371" lon="6.89202">
        <ele>383</ele>
        <time>2016-10-30T08:45:34.000Z</time>
      </trkpt>
      <trkpt lat="47.47368" lon="6.89202">
        <ele>383</ele>
        <time>2016-10-30T08:45:35.000Z</time>
      </trkpt>
      <trkpt lat="47.47366" lon="6.89203">
        <ele>383</ele>
        <time>2016-10-30T08:45:36.000Z</time>
      </trkpt>
      <trkpt lat="47.47363" lon="6.89204">
        <ele>383</ele>
        <time>2016-10-30T08:45:37.000Z</time>
      </trkpt>
      <trkpt lat="47.4736" lon="6.89205">
        <ele>383</ele>
        <time>2016-10-30T08:45:38.000Z</time>
      </trkpt>
      <trkpt lat="47.47356" lon="6.89206">
        <ele>383</ele>
        <time>2016-10-30T08:45:39.000Z</time>
      </trkpt>
      <trkpt lat="47.47352" lon="6.89207">
        <ele>384</ele>
        <time>2016-10-30T08:45:40.000Z</time>
      </trkpt>
      <trkpt lat="47.47346" lon="6.89208">
        <ele>384</ele>
        <time>2016-10-30T08:45:41.000Z</time>
      </trkpt>
      <trkpt lat="47.47341" lon="6.89209">
        <ele>384</ele>
        <time>2016-10-30T08:45:42.000Z</time>
      </trkpt>
      <trkpt lat="47.47337" lon="6.8921">
        <ele>384</ele>
        <time>2016-10-30T08:45:43.000Z</time>
      </trkpt>
      <trkpt lat="47.47332" lon="6.8921">
        <ele>386</ele>
        <time>2016-10-30T08:45:44.000Z</time>
      </trkpt>
      <trkpt lat="47.47328" lon="6.89211">
        <ele>386</ele>
        <time>2016-10-30T08:45:45.000Z</time>
      </trkpt>
      <trkpt lat="47.47323" lon="6.89211">
        <ele>386</ele>
        <time>2016-10-30T08:45:46.000Z</time>
      </trkpt>
      <trkpt lat="47.47318" lon="6.89211">
        <ele>386</ele>
        <time>2016-10-30T08:45:47.000Z</time>
      </trkpt>
      <trkpt lat="47.47314" lon="6.89211">
        <ele>386</ele>
        <time>2016-10-30T08:45:48.000Z</time>
      </trkpt>
      <trkpt lat="47.47309" lon="6.89212">
        <ele>386</ele>
        <time>2016-10-30T08:45:49.000Z</time>
      </trkpt>
      <trkpt lat="47.47305" lon="6.89211">
        <ele>386</ele>
        <time>2016-10-30T08:45:50.000Z</time>
      </trkpt>
      <trkpt lat="47.47301" lon="6.89211">
        <ele>386</ele>
        <time>2016-10-30T08:45:51.000Z</time>
      </trkpt>
      <trkpt lat="47.47297" lon="6.89211">
        <ele>386</ele>
        <time>2016-10-30T08:45:52.000Z</time>
      </trkpt>
      <trkpt lat="47.47294" lon="6.89211">
        <ele>387</ele>
        <time>2016-10-30T08:45:53.000Z</time>
      </trkpt>
      <trkpt lat="47.4729" lon="6.89211">
        <ele>387</ele>
        <time>2016-10-30T08:45:54.000Z</time>
      </trkpt>
      <trkpt lat="47.47287" lon="6.89211">
        <ele>387</ele>
        <time>2016-10-30T08:45:55.000Z</time>
      </trkpt>
      <trkpt lat="47.47284" lon="6.8921">
        <ele>387</ele>
        <time>2016-10-30T08:45:56.000Z</time>
      </trkpt>
      <trkpt lat="47.47281" lon="6.8921">
        <ele>387</ele>
        <time>2016-10-30T08:45:57.000Z</time>
      </trkpt>
      <trkpt lat="47.47278" lon="6.89209">
        <ele>387</ele>
        <time>2016-10-30T08:45:58.000Z</time>
      </trkpt>
      <trkpt lat="47.47275" lon="6.89209">
        <ele>387</ele>
        <time>2016-10-30T08:45:59.000Z</time>
      </trkpt>
      <trkpt lat="47.47272" lon="6.89208">
        <ele>387</ele>
        <time>2016-10-30T08:46:00.000Z</time>
      </trkpt>
      <trkpt lat="47.47269" lon="6.89208">
        <ele>387</ele>
        <time>2016-10-30T08:46:01.000Z</time>
      </trkpt>
      <trkpt lat="47.47266" lon="6.89207">
        <ele>387</ele>
        <time>2016-10-30T08:46:02.000Z</time>
      </trkpt>
      <trkpt lat="47.47263" lon="6.89207">
        <ele>387</ele>
        <time>2016-10-30T08:46:03.000Z</time>
      </trkpt>
      <trkpt lat="47.4726" lon="6.89206">
        <ele>387</ele>
        <time>2016-10-30T08:46:04.000Z</time>
      </trkpt>
      <trkpt lat="47.47258" lon="6.89205">
        <ele>387</ele>
        <time>2016-10-30T08:46:05.000Z</time>
      </trkpt>
      <trkpt lat="47.47255" lon="6.89205">
        <ele>387</ele>
        <time>2016-10-30T08:46:06.000Z</time>
      </trkpt>
      <trkpt lat="47.47252" lon="6.89204">
        <ele>387</ele>
        <time>2016-10-30T08:46:07.000Z</time>
      </trkpt>
      <trkpt lat="47.47249" lon="6.89203">
        <ele>390</ele>
        <time>2016-10-30T08:46:08.000Z</time>
      </trkpt>
      <trkpt lat="47.47246" lon="6.89202">
        <ele>390</ele>
        <time>2016-10-30T08:46:09.000Z</time>
      </trkpt>
      <trkpt lat="47.47244" lon="6.89201">
        <ele>390</ele>
        <time>2016-10-30T08:46:10.000Z</time>
      </trkpt>
      <trkpt lat="47.47241" lon="6.892">
        <ele>390</ele>
        <time>2016-10-30T08:46:11.000Z</time>
      </trkpt>
      <trkpt lat="47.47238" lon="6.89199">
        <ele>390</ele>
        <time>2016-10-30T08:46:12.000Z</time>
      </trkpt>
      <trkpt lat="47.47235" lon="6.89198">
        <ele>390</ele>
        <time>2016-10-30T08:46:13.000Z</time>
      </trkpt>
      <trkpt lat="47.47232" lon="6.89197">
        <ele>390</ele>
        <time>2016-10-30T08:46:14.000Z</time>
      </trkpt>
      <trkpt lat="47.47229" lon="6.89196">
        <ele>390</ele>
        <time>2016-10-30T08:46:15.000Z</time>
      </trkpt>
      <trkpt lat="47.47226" lon="6.89195">
        <ele>391</ele>
        <time>2016-10-30T08:46:16.000Z</time>
      </trkpt>
      <trkpt lat="47.47223" lon="6.89194">
        <ele>391</ele>
        <time>2016-10-30T08:46:17.000Z</time>
      </trkpt>
      <trkpt lat="47.47221" lon="6.89193">
        <ele>391</ele>
        <time>2016-10-30T08:46:18.000Z</time>
      </trkpt>
      <trkpt lat="47.47218" lon="6.89193">
        <ele>391</ele>
        <time>2016-10-30T08:46:19.000Z</time>
      </trkpt>
      <trkpt lat="47.47216" lon="6.89192">
        <ele>391</ele>
        <time>2016-10-30T08:46:20.000Z</time>
      </trkpt>
      <trkpt lat="47.47213" lon="6.89192">
        <ele>391</ele>
        <time>2016-10-30T08:46:21.000Z</time>
      </trkpt>
      <trkpt lat="47.47211" lon="6.89191">
        <ele>391</ele>
        <time>2016-10-30T08:46:22.000Z</time>
      </trkpt>
      <trkpt lat="47.47208" lon="6.89191">
        <ele>391</ele>
        <time>2016-10-30T08:46:23.000Z</time>
      </trkpt>
      <trkpt lat="47.47204" lon="6.8919">
        <ele>391</ele>
        <time>2016-10-30T08:46:25.000Z</time>
      </trkpt>
      <trkpt lat="47.47202" lon="6.89189">
        <ele>391</ele>
        <time>2016-10-30T08:46:26.000Z</time>
      </trkpt>
      <trkpt lat="47.47197" lon="6.89188">
        <ele>392</ele>
        <time>2016-10-30T08:46:28.000Z</time>
      </trkpt>
      <trkpt lat="47.47195" lon="6.89187">
        <ele>392</ele>
        <time>2016-10-30T08:46:29.000Z</time>
      </trkpt>
      <trkpt lat="47.47191" lon="6.89186">
        <ele>392</ele>
        <time>2016-10-30T08:46:31.000Z</time>
      </trkpt>
      <trkpt lat="47.47189" lon="6.89185">
        <ele>392</ele>
        <time>2016-10-30T08:46:32.000Z</time>
      </trkpt>
      <trkpt lat="47.47186" lon="6.89185">
        <ele>392</ele>
        <time>2016-10-30T08:46:33.000Z</time>
      </trkpt>
      <trkpt lat="47.47184" lon="6.89185">
        <ele>392</ele>
        <time>2016-10-30T08:46:34.000Z</time>
      </trkpt>
      <trkpt lat="47.47181" lon="6.89184">
        <ele>392</ele>
        <time>2016-10-30T08:46:35.000Z</time>
      </trkpt>
      <trkpt lat="47.47178" lon="6.89184">
        <ele>392</ele>
        <time>2016-10-30T08:46:36.000Z</time>
      </trkpt>
      <trkpt lat="47.47176" lon="6.89184">
        <ele>392</ele>
        <time>2016-10-30T08:46:37.000Z</time>
      </trkpt>
      <trkpt lat="47.47173" lon="6.89184">
        <ele>392</ele>
        <time>2016-10-30T08:46:38.000Z</time>
      </trkpt>
      <trkpt lat="47.47171" lon="6.89184">
        <ele>392</ele>
        <time>2016-10-30T08:46:39.000Z</time>
      </trkpt>
      <trkpt lat="47.47168" lon="6.89184">
        <ele>392</ele>
        <time>2016-10-30T08:46:40.000Z</time>
      </trkpt>
      <trkpt lat="47.47166" lon="6.89184">
        <ele>395</ele>
        <time>2016-10-30T08:46:41.000Z</time>
      </trkpt>
      <trkpt lat="47.47164" lon="6.89184">
        <ele>395</ele>
        <time>2016-10-30T08:46:42.000Z</time>
      </trkpt>
      <trkpt lat="47.47161" lon="6.89184">
        <ele>395</ele>
        <time>2016-10-30T08:46:43.000Z</time>
      </trkpt>
      <trkpt lat="47.47159" lon="6.89184">
        <ele>395</ele>
        <time>2016-10-30T08:46:44.000Z</time>
      </trkpt>
      <trkpt lat="47.47157" lon="6.89184">
        <ele>396</ele>
        <time>2016-10-30T08:46:45.000Z</time>
      </trkpt>
      <trkpt lat="47.47154" lon="6.89184">
        <ele>396</ele>
        <time>2016-10-30T08:46:46.000Z</time>
      </trkpt>
      <trkpt lat="47.47152" lon="6.89184">
        <ele>396</ele>
        <time>2016-10-30T08:46:47.000Z</time>
      </trkpt>
      <trkpt lat="47.4715" lon="6.89183">
        <ele>396</ele>
        <time>2016-10-30T08:46:48.000Z</time>
      </trkpt>
      <trkpt lat="47.47147" lon="6.89183">
        <ele>396</ele>
        <time>2016-10-30T08:46:49.000Z</time>
      </trkpt>
      <trkpt lat="47.47145" lon="6.89183">
        <ele>396</ele>
        <time>2016-10-30T08:46:50.000Z</time>
      </trkpt>
      <trkpt lat="47.47142" lon="6.89183">
        <ele>396</ele>
        <time>2016-10-30T08:46:51.000Z</time>
      </trkpt>
      <trkpt lat="47.47139" lon="6.89183">
        <ele>397</ele>
        <time>2016-10-30T08:46:52.000Z</time>
      </trkpt>
      <trkpt lat="47.47137" lon="6.89183">
        <ele>397</ele>
        <time>2016-10-30T08:46:53.000Z</time>
      </trkpt>
      <trkpt lat="47.47135" lon="6.89183">
        <ele>397</ele>
        <time>2016-10-30T08:46:54.000Z</time>
      </trkpt>
      <trkpt lat="47.47132" lon="6.89183">
        <ele>397</ele>
        <time>2016-10-30T08:46:55.000Z</time>
      </trkpt>
      <trkpt lat="47.4713" lon="6.89183">
        <ele>397</ele>
        <time>2016-10-30T08:46:56.000Z</time>
      </trkpt>
      <trkpt lat="47.47127" lon="6.89183">
        <ele>397</ele>
        <time>2016-10-30T08:46:57.000Z</time>
      </trkpt>
      <trkpt lat="47.47125" lon="6.89183">
        <ele>397</ele>
        <time>2016-10-30T08:46:58.000Z</time>
      </trkpt>
      <trkpt lat="47.47122" lon="6.89182">
        <ele>398</ele>
        <time>2016-10-30T08:46:59.000Z</time>
      </trkpt>
      <trkpt lat="47.4712" lon="6.89182">
        <ele>398</ele>
        <time>2016-10-30T08:47:00.000Z</time>
      </trkpt>
      <trkpt lat="47.47117" lon="6.89182">
        <ele>398</ele>
        <time>2016-10-30T08:47:01.000Z</time>
      </trkpt>
      <trkpt lat="47.47115" lon="6.89182">
        <ele>398</ele>
        <time>2016-10-30T08:47:02.000Z</time>
      </trkpt>
      <trkpt lat="47.47112" lon="6.89181">
        <ele>398</ele>
        <time>2016-10-30T08:47:03.000Z</time>
      </trkpt>
      <trkpt lat="47.4711" lon="6.89181">
        <ele>398</ele>
        <time>2016-10-30T08:47:04.000Z</time>
      </trkpt>
      <trkpt lat="47.47108" lon="6.89181">
        <ele>398</ele>
        <time>2016-10-30T08:47:05.000Z</time>
      </trkpt>
      <trkpt lat="47.47105" lon="6.89181">
        <ele>398</ele>
        <time>2016-10-30T08:47:06.000Z</time>
      </trkpt>
      <trkpt lat="47.47103" lon="6.89181">
        <ele>399</ele>
        <time>2016-10-30T08:47:07.000Z</time>
      </trkpt>
      <trkpt lat="47.471" lon="6.89181">
        <ele>399</ele>
        <time>2016-10-30T08:47:08.000Z</time>
      </trkpt>
      <trkpt lat="47.47098" lon="6.89181">
        <ele>399</ele>
        <time>2016-10-30T08:47:09.000Z</time>
      </trkpt>
      <trkpt lat="47.47095" lon="6.89181">
        <ele>399</ele>
        <time>2016-10-30T08:47:10.000Z</time>
      </trkpt>
      <trkpt lat="47.47092" lon="6.89181">
        <ele>399</ele>
        <time>2016-10-30T08:47:11.106Z</time>
      </trkpt>
      <trkpt lat="47.47088" lon="6.89182">
        <ele>399</ele>
        <time>2016-10-30T08:47:13.000Z</time>
      </trkpt>
      <trkpt lat="47.47085" lon="6.89182">
        <ele>399</ele>
        <time>2016-10-30T08:47:14.000Z</time>
      </trkpt>
      <trkpt lat="47.47083" lon="6.89182">
        <ele>401</ele>
        <time>2016-10-30T08:47:15.000Z</time>
      </trkpt>
      <trkpt lat="47.4708" lon="6.89182">
        <ele>402</ele>
        <time>2016-10-30T08:47:16.000Z</time>
      </trkpt>
      <trkpt lat="47.47077" lon="6.89183">
        <ele>402</ele>
        <time>2016-10-30T08:47:17.000Z</time>
      </trkpt>
      <trkpt lat="47.47075" lon="6.89183">
        <ele>402</ele>
        <time>2016-10-30T08:47:18.000Z</time>
      </trkpt>
      <trkpt lat="47.47072" lon="6.89183">
        <ele>402</ele>
        <time>2016-10-30T08:47:19.000Z</time>
      </trkpt>
      <trkpt lat="47.4707" lon="6.89183">
        <ele>402</ele>
        <time>2016-10-30T08:47:20.000Z</time>
      </trkpt>
      <trkpt lat="47.47067" lon="6.89184">
        <ele>402</ele>
        <time>2016-10-30T08:47:21.000Z</time>
      </trkpt>
      <trkpt lat="47.47063" lon="6.89185">
        <ele>402</ele>
        <time>2016-10-30T08:47:23.000Z</time>
      </trkpt>
      <trkpt lat="47.47061" lon="6.89186">
        <ele>402</ele>
        <time>2016-10-30T08:47:24.000Z</time>
      </trkpt>
      <trkpt lat="47.47059" lon="6.89189">
        <ele>403</ele>
        <time>2016-10-30T08:47:25.000Z</time>
      </trkpt>
      <trkpt lat="47.47058" lon="6.89192">
        <ele>403</ele>
        <time>2016-10-30T08:47:26.000Z</time>
      </trkpt>
      <trkpt lat="47.47057" lon="6.89195">
        <ele>403</ele>
        <time>2016-10-30T08:47:27.000Z</time>
      </trkpt>
      <trkpt lat="47.47057" lon="6.89199">
        <ele>403</ele>
        <time>2016-10-30T08:47:28.000Z</time>
      </trkpt>
      <trkpt lat="47.47056" lon="6.89202">
        <ele>403</ele>
        <time>2016-10-30T08:47:29.000Z</time>
      </trkpt>
      <trkpt lat="47.47055" lon="6.89206">
        <ele>403</ele>
        <time>2016-10-30T08:47:30.000Z</time>
      </trkpt>
      <trkpt lat="47.47054" lon="6.89209">
        <ele>403</ele>
        <time>2016-10-30T08:47:31.000Z</time>
      </trkpt>
      <trkpt lat="47.47053" lon="6.89213">
        <ele>403</ele>
        <time>2016-10-30T08:47:32.000Z</time>
      </trkpt>
      <trkpt lat="47.47052" lon="6.89216">
        <ele>403</ele>
        <time>2016-10-30T08:47:33.000Z</time>
      </trkpt>
      <trkpt lat="47.47051" lon="6.8922">
        <ele>403</ele>
        <time>2016-10-30T08:47:34.000Z</time>
      </trkpt>
      <trkpt lat="47.4705" lon="6.89223">
        <ele>403</ele>
        <time>2016-10-30T08:47:35.000Z</time>
      </trkpt>
      <trkpt lat="47.47049" lon="6.89226">
        <ele>404</ele>
        <time>2016-10-30T08:47:36.000Z</time>
      </trkpt>
      <trkpt lat="47.47048" lon="6.8923">
        <ele>404</ele>
        <time>2016-10-30T08:47:37.000Z</time>
      </trkpt>
      <trkpt lat="47.47048" lon="6.89233">
        <ele>404</ele>
        <time>2016-10-30T08:47:38.000Z</time>
      </trkpt>
      <trkpt lat="47.47047" lon="6.89236">
        <ele>404</ele>
        <time>2016-10-30T08:47:39.000Z</time>
      </trkpt>
      <trkpt lat="47.47046" lon="6.89239">
        <ele>404</ele>
        <time>2016-10-30T08:47:40.000Z</time>
      </trkpt>
      <trkpt lat="47.47045" lon="6.89243">
        <ele>404</ele>
        <time>2016-10-30T08:47:41.000Z</time>
      </trkpt>
      <trkpt lat="47.47044" lon="6.89246">
        <ele>404</ele>
        <time>2016-10-30T08:47:42.000Z</time>
      </trkpt>
      <trkpt lat="47.47042" lon="6.89252">
        <ele>406</ele>
        <time>2016-10-30T08:47:44.000Z</time>
      </trkpt>
      <trkpt lat="47.47041" lon="6.89254">
        <ele>406</ele>
        <time>2016-10-30T08:47:45.000Z</time>
      </trkpt>
      <trkpt lat="47.47039" lon="6.89257">
        <ele>406</ele>
        <time>2016-10-30T08:47:46.000Z</time>
      </trkpt>
      <trkpt lat="47.47038" lon="6.8926">
        <ele>406</ele>
        <time>2016-10-30T08:47:47.000Z</time>
      </trkpt>
      <trkpt lat="47.47035" lon="6.89266">
        <ele>406</ele>
        <time>2016-10-30T08:47:49.000Z</time>
      </trkpt>
      <trkpt lat="47.47034" lon="6.89268">
        <ele>406</ele>
        <time>2016-10-30T08:47:50.000Z</time>
      </trkpt>
      <trkpt lat="47.47033" lon="6.89271">
        <ele>406</ele>
        <time>2016-10-30T08:47:51.000Z</time>
      </trkpt>
      <trkpt lat="47.47031" lon="6.89273">
        <ele>406</ele>
        <time>2016-10-30T08:47:52.000Z</time>
      </trkpt>
      <trkpt lat="47.4703" lon="6.89276">
        <ele>406</ele>
        <time>2016-10-30T08:47:53.000Z</time>
      </trkpt>
      <trkpt lat="47.47028" lon="6.89278">
        <ele>406</ele>
        <time>2016-10-30T08:47:54.000Z</time>
      </trkpt>
      <trkpt lat="47.47027" lon="6.89281">
        <ele>406</ele>
        <time>2016-10-30T08:47:55.000Z</time>
      </trkpt>
      <trkpt lat="47.47026" lon="6.89284">
        <ele>407</ele>
        <time>2016-10-30T08:47:56.000Z</time>
      </trkpt>
      <trkpt lat="47.47025" lon="6.89287">
        <ele>407</ele>
        <time>2016-10-30T08:47:57.000Z</time>
      </trkpt>
      <trkpt lat="47.47025" lon="6.89291">
        <ele>407</ele>
        <time>2016-10-30T08:47:58.000Z</time>
      </trkpt>
      <trkpt lat="47.47023" lon="6.89297">
        <ele>407</ele>
        <time>2016-10-30T08:48:00.000Z</time>
      </trkpt>
      <trkpt lat="47.47022" lon="6.893">
        <ele>407</ele>
        <time>2016-10-30T08:48:01.000Z</time>
      </trkpt>
      <trkpt lat="47.4702" lon="6.89305">
        <ele>407</ele>
        <time>2016-10-30T08:48:03.000Z</time>
      </trkpt>
      <trkpt lat="47.47019" lon="6.89308">
        <ele>407</ele>
        <time>2016-10-30T08:48:04.000Z</time>
      </trkpt>
      <trkpt lat="47.47017" lon="6.89314">
        <ele>408</ele>
        <time>2016-10-30T08:48:06.000Z</time>
      </trkpt>
      <trkpt lat="47.47016" lon="6.89316">
        <ele>408</ele>
        <time>2016-10-30T08:48:07.000Z</time>
      </trkpt>
      <trkpt lat="47.47015" lon="6.89319">
        <ele>408</ele>
        <time>2016-10-30T08:48:08.000Z</time>
      </trkpt>
      <trkpt lat="47.47013" lon="6.89323">
        <ele>408</ele>
        <time>2016-10-30T08:48:09.000Z</time>
      </trkpt>
      <trkpt lat="47.47012" lon="6.89326">
        <ele>409</ele>
        <time>2016-10-30T08:48:10.000Z</time>
      </trkpt>
      <trkpt lat="47.47011" lon="6.8933">
        <ele>409</ele>
        <time>2016-10-30T08:48:11.000Z</time>
      </trkpt>
      <trkpt lat="47.4701" lon="6.89333">
        <ele>409</ele>
        <time>2016-10-30T08:48:12.000Z</time>
      </trkpt>
      <trkpt lat="47.47009" lon="6.89337">
        <ele>410</ele>
        <time>2016-10-30T08:48:13.000Z</time>
      </trkpt>
      <trkpt lat="47.47008" lon="6.8934">
        <ele>410</ele>
        <time>2016-10-30T08:48:14.000Z</time>
      </trkpt>
      <trkpt lat="47.47007" lon="6.89343">
        <ele>410</ele>
        <time>2016-10-30T08:48:15.000Z</time>
      </trkpt>
      <trkpt lat="47.47006" lon="6.89346">
        <ele>410</ele>
        <time>2016-10-30T08:48:16.000Z</time>
      </trkpt>
      <trkpt lat="47.47005" lon="6.8935">
        <ele>410</ele>
        <time>2016-10-30T08:48:17.000Z</time>
      </trkpt>
      <trkpt lat="47.47004" lon="6.89353">
        <ele>409</ele>
        <time>2016-10-30T08:48:18.000Z</time>
      </trkpt>
      <trkpt lat="47.47003" lon="6.89356">
        <ele>409</ele>
        <time>2016-10-30T08:48:19.000Z</time>
      </trkpt>
      <trkpt lat="47.47003" lon="6.89359">
        <ele>409</ele>
        <time>2016-10-30T08:48:20.000Z</time>
      </trkpt>
      <trkpt lat="47.47002" lon="6.89362">
        <ele>409</ele>
        <time>2016-10-30T08:48:21.000Z</time>
      </trkpt>
      <trkpt lat="47.47001" lon="6.89368">
        <ele>409</ele>
        <time>2016-10-30T08:48:23.000Z</time>
      </trkpt>
      <trkpt lat="47.47" lon="6.89371">
        <ele>414</ele>
        <time>2016-10-30T08:48:24.000Z</time>
      </trkpt>
      <trkpt lat="47.46998" lon="6.89377">
        <ele>414</ele>
        <time>2016-10-30T08:48:26.000Z</time>
      </trkpt>
      <trkpt lat="47.46997" lon="6.8938">
        <ele>414</ele>
        <time>2016-10-30T08:48:27.000Z</time>
      </trkpt>
      <trkpt lat="47.46996" lon="6.89386">
        <ele>414</ele>
        <time>2016-10-30T08:48:29.000Z</time>
      </trkpt>
      <trkpt lat="47.46996" lon="6.89389">
        <ele>414</ele>
        <time>2016-10-30T08:48:30.000Z</time>
      </trkpt>
      <trkpt lat="47.46994" lon="6.89395">
        <ele>414</ele>
        <time>2016-10-30T08:48:32.000Z</time>
      </trkpt>
      <trkpt lat="47.46993" lon="6.89397">
        <ele>414</ele>
        <time>2016-10-30T08:48:33.000Z</time>
      </trkpt>
      <trkpt lat="47.46991" lon="6.89403">
        <ele>414</ele>
        <time>2016-10-30T08:48:35.000Z</time>
      </trkpt>
      <trkpt lat="47.4699" lon="6.89405">
        <ele>414</ele>
        <time>2016-10-30T08:48:36.000Z</time>
      </trkpt>
      <trkpt lat="47.46988" lon="6.8941">
        <ele>414</ele>
        <time>2016-10-30T08:48:38.000Z</time>
      </trkpt>
      <trkpt lat="47.46986" lon="6.89413">
        <ele>414</ele>
        <time>2016-10-30T08:48:39.000Z</time>
      </trkpt>
      <trkpt lat="47.46984" lon="6.89418">
        <ele>413</ele>
        <time>2016-10-30T08:48:41.000Z</time>
      </trkpt>
      <trkpt lat="47.46983" lon="6.89421">
        <ele>413</ele>
        <time>2016-10-30T08:48:42.000Z</time>
      </trkpt>
      <trkpt lat="47.46982" lon="6.89424">
        <ele>413</ele>
        <time>2016-10-30T08:48:43.000Z</time>
      </trkpt>
      <trkpt lat="47.46981" lon="6.89428">
        <ele>413</ele>
        <time>2016-10-30T08:48:44.000Z</time>
      </trkpt>
      <trkpt lat="47.4698" lon="6.89431">
        <ele>413</ele>
        <time>2016-10-30T08:48:45.000Z</time>
      </trkpt>
      <trkpt lat="47.46978" lon="6.89433">
        <ele>413</ele>
        <time>2016-10-30T08:48:46.000Z</time>
      </trkpt>
      <trkpt lat="47.46975" lon="6.89438">
        <ele>413</ele>
        <time>2016-10-30T08:48:48.000Z</time>
      </trkpt>
      <trkpt lat="47.46974" lon="6.89441">
        <ele>413</ele>
        <time>2016-10-30T08:48:49.000Z</time>
      </trkpt>
      <trkpt lat="47.46971" lon="6.89445">
        <ele>413</ele>
        <time>2016-10-30T08:48:51.000Z</time>
      </trkpt>
      <trkpt lat="47.46969" lon="6.89447">
        <ele>413</ele>
        <time>2016-10-30T08:48:52.000Z</time>
      </trkpt>
      <trkpt lat="47.46967" lon="6.89449">
        <ele>413</ele>
        <time>2016-10-30T08:48:53.000Z</time>
      </trkpt>
      <trkpt lat="47.46966" lon="6.89451">
        <ele>414</ele>
        <time>2016-10-30T08:48:54.000Z</time>
      </trkpt>
      <trkpt lat="47.46964" lon="6.89454">
        <ele>414</ele>
        <time>2016-10-30T08:48:55.000Z</time>
      </trkpt>
      <trkpt lat="47.46962" lon="6.89456">
        <ele>414</ele>
        <time>2016-10-30T08:48:56.000Z</time>
      </trkpt>
      <trkpt lat="47.4696" lon="6.89457">
        <ele>414</ele>
        <time>2016-10-30T08:48:57.000Z</time>
      </trkpt>
      <trkpt lat="47.46957" lon="6.89459">
        <ele>414</ele>
        <time>2016-10-30T08:48:58.000Z</time>
      </trkpt>
      <trkpt lat="47.46955" lon="6.8946">
        <ele>414</ele>
        <time>2016-10-30T08:48:59.000Z</time>
      </trkpt>
      <trkpt lat="47.46953" lon="6.89462">
        <ele>414</ele>
        <time>2016-10-30T08:49:00.000Z</time>
      </trkpt>
      <trkpt lat="47.46951" lon="6.89463">
        <ele>414</ele>
        <time>2016-10-30T08:49:01.000Z</time>
      </trkpt>
      <trkpt lat="47.46949" lon="6.89464">
        <ele>414</ele>
        <time>2016-10-30T08:49:02.000Z</time>
      </trkpt>
      <trkpt lat="47.46944" lon="6.89466">
        <ele>414</ele>
        <time>2016-10-30T08:49:04.000Z</time>
      </trkpt>
      <trkpt lat="47.46942" lon="6.89467">
        <ele>415</ele>
        <time>2016-10-30T08:49:05.000Z</time>
      </trkpt>
      <trkpt lat="47.46938" lon="6.89468">
        <ele>415</ele>
        <time>2016-10-30T08:49:07.000Z</time>
      </trkpt>
      <trkpt lat="47.46936" lon="6.89469">
        <ele>415</ele>
        <time>2016-10-30T08:49:08.000Z</time>
      </trkpt>
      <trkpt lat="47.46932" lon="6.89471">
        <ele>415</ele>
        <time>2016-10-30T08:49:10.000Z</time>
      </trkpt>
      <trkpt lat="47.4693" lon="6.89472">
        <ele>415</ele>
        <time>2016-10-30T08:49:11.000Z</time>
      </trkpt>
      <trkpt lat="47.46926" lon="6.89473">
        <ele>415</ele>
        <time>2016-10-30T08:49:13.000Z</time>
      </trkpt>
      <trkpt lat="47.46924" lon="6.89474">
        <ele>416</ele>
        <time>2016-10-30T08:49:14.000Z</time>
      </trkpt>
      <trkpt lat="47.4692" lon="6.89476">
        <ele>416</ele>
        <time>2016-10-30T08:49:16.000Z</time>
      </trkpt>
      <trkpt lat="47.46918" lon="6.89477">
        <ele>416</ele>
        <time>2016-10-30T08:49:17.000Z</time>
      </trkpt>
      <trkpt lat="47.46914" lon="6.89479">
        <ele>419</ele>
        <time>2016-10-30T08:49:19.000Z</time>
      </trkpt>
      <trkpt lat="47.46912" lon="6.8948">
        <ele>419</ele>
        <time>2016-10-30T08:49:20.000Z</time>
      </trkpt>
      <trkpt lat="47.4691" lon="6.89481">
        <ele>419</ele>
        <time>2016-10-30T08:49:21.000Z</time>
      </trkpt>
      <trkpt lat="47.46908" lon="6.89482">
        <ele>419</ele>
        <time>2016-10-30T08:49:22.000Z</time>
      </trkpt>
      <trkpt lat="47.46905" lon="6.89483">
        <ele>419</ele>
        <time>2016-10-30T08:49:23.001Z</time>
      </trkpt>
      <trkpt lat="47.46903" lon="6.89484">
        <ele>419</ele>
        <time>2016-10-30T08:49:24.000Z</time>
      </trkpt>
      <trkpt lat="47.469" lon="6.89485">
        <ele>419</ele>
        <time>2016-10-30T08:49:25.000Z</time>
      </trkpt>
      <trkpt lat="47.46898" lon="6.89485">
        <ele>419</ele>
        <time>2016-10-30T08:49:26.000Z</time>
      </trkpt>
      <trkpt lat="47.46895" lon="6.89486">
        <ele>419</ele>
        <time>2016-10-30T08:49:27.000Z</time>
      </trkpt>
      <trkpt lat="47.46892" lon="6.89487">
        <ele>419</ele>
        <time>2016-10-30T08:49:28.000Z</time>
      </trkpt>
      <trkpt lat="47.4689" lon="6.89489">
        <ele>420</ele>
        <time>2016-10-30T08:49:29.000Z</time>
      </trkpt>
      <trkpt lat="47.46887" lon="6.8949">
        <ele>420</ele>
        <time>2016-10-30T08:49:30.000Z</time>
      </trkpt>
      <trkpt lat="47.46884" lon="6.89491">
        <ele>420</ele>
        <time>2016-10-30T08:49:31.000Z</time>
      </trkpt>
      <trkpt lat="47.46882" lon="6.89492">
        <ele>420</ele>
        <time>2016-10-30T08:49:32.000Z</time>
      </trkpt>
      <trkpt lat="47.4688" lon="6.89493">
        <ele>420</ele>
        <time>2016-10-30T08:49:33.000Z</time>
      </trkpt>
      <trkpt lat="47.46878" lon="6.89495">
        <ele>420</ele>
        <time>2016-10-30T08:49:34.000Z</time>
      </trkpt>
      <trkpt lat="47.46874" lon="6.89499">
        <ele>420</ele>
        <time>2016-10-30T08:49:36.000Z</time>
      </trkpt>
      <trkpt lat="47.46873" lon="6.89501">
        <ele>420</ele>
        <time>2016-10-30T08:49:37.000Z</time>
      </trkpt>
      <trkpt lat="47.46872" lon="6.89507">
        <ele>420</ele>
        <time>2016-10-30T08:49:39.000Z</time>
      </trkpt>
      <trkpt lat="47.46872" lon="6.8951">
        <ele>420</ele>
        <time>2016-10-30T08:49:40.000Z</time>
      </trkpt>
      <trkpt lat="47.46871" lon="6.89516">
        <ele>420</ele>
        <time>2016-10-30T08:49:42.000Z</time>
      </trkpt>
      <trkpt lat="47.4687" lon="6.89519">
        <ele>420</ele>
        <time>2016-10-30T08:49:43.000Z</time>
      </trkpt>
      <trkpt lat="47.46869" lon="6.89522">
        <ele>420</ele>
        <time>2016-10-30T08:49:44.000Z</time>
      </trkpt>
      <trkpt lat="47.46867" lon="6.89524">
        <ele>420</ele>
        <time>2016-10-30T08:49:45.000Z</time>
      </trkpt>
      <trkpt lat="47.46865" lon="6.89526">
        <ele>420</ele>
        <time>2016-10-30T08:49:46.000Z</time>
      </trkpt>
      <trkpt lat="47.46863" lon="6.89528">
        <ele>420</ele>
        <time>2016-10-30T08:49:47.000Z</time>
      </trkpt>
      <trkpt lat="47.4686" lon="6.89532">
        <ele>420</ele>
        <time>2016-10-30T08:49:49.000Z</time>
      </trkpt>
      <trkpt lat="47.46858" lon="6.89533">
        <ele>420</ele>
        <time>2016-10-30T08:49:50.000Z</time>
      </trkpt>
      <trkpt lat="47.46855" lon="6.89535">
        <ele>420</ele>
        <time>2016-10-30T08:49:54.000Z</time>
      </trkpt>
      <trkpt lat="47.46854" lon="6.89536">
        <ele>420</ele>
        <time>2016-10-30T08:49:55.000Z</time>
      </trkpt>
      <trkpt lat="47.46851" lon="6.8954">
        <ele>420</ele>
        <time>2016-10-30T08:50:33.000Z</time>
      </trkpt>
      <trkpt lat="47.46851" lon="6.8954">
        <ele>420</ele>
        <time>2016-10-30T08:50:34.000Z</time>
      </trkpt>
      <trkpt lat="47.46848" lon="6.89541">
        <ele>420</ele>
        <time>2016-10-30T08:50:53.000Z</time>
      </trkpt>
      <trkpt lat="47.46846" lon="6.89542">
        <ele>420</ele>
        <time>2016-10-30T08:50:54.000Z</time>
      </trkpt>
      <trkpt lat="47.46844" lon="6.89543">
        <ele>420</ele>
        <time>2016-10-30T08:50:55.000Z</time>
      </trkpt>
      <trkpt lat="47.46841" lon="6.89545">
        <ele>420</ele>
        <time>2016-10-30T08:50:56.000Z</time>
      </trkpt>
      <trkpt lat="47.46838" lon="6.89546">
        <ele>420</ele>
        <time>2016-10-30T08:50:57.000Z</time>
      </trkpt>
      <trkpt lat="47.46834" lon="6.89547">
        <ele>421</ele>
        <time>2016-10-30T08:50:58.000Z</time>
      </trkpt>
      <trkpt lat="47.46831" lon="6.89549">
        <ele>422</ele>
        <time>2016-10-30T08:50:59.000Z</time>
      </trkpt>
      <trkpt lat="47.46828" lon="6.8955">
        <ele>422</ele>
        <time>2016-10-30T08:51:00.000Z</time>
      </trkpt>
      <trkpt lat="47.46824" lon="6.89551">
        <ele>422</ele>
        <time>2016-10-30T08:51:01.001Z</time>
      </trkpt>
      <trkpt lat="47.46821" lon="6.89553">
        <ele>422</ele>
        <time>2016-10-30T08:51:02.000Z</time>
      </trkpt>
      <trkpt lat="47.46818" lon="6.89554">
        <ele>422</ele>
        <time>2016-10-30T08:51:03.000Z</time>
      </trkpt>
      <trkpt lat="47.46815" lon="6.89555">
        <ele>422</ele>
        <time>2016-10-30T08:51:04.000Z</time>
      </trkpt>
      <trkpt lat="47.46813" lon="6.89556">
        <ele>422</ele>
        <time>2016-10-30T08:51:05.000Z</time>
      </trkpt>
      <trkpt lat="47.4681" lon="6.89557">
        <ele>422</ele>
        <time>2016-10-30T08:51:06.000Z</time>
      </trkpt>
      <trkpt lat="47.46807" lon="6.89558">
        <ele>422</ele>
        <time>2016-10-30T08:51:07.000Z</time>
      </trkpt>
      <trkpt lat="47.46804" lon="6.89559">
        <ele>422</ele>
        <time>2016-10-30T08:51:08.000Z</time>
      </trkpt>
      <trkpt lat="47.46801" lon="6.8956">
        <ele>422</ele>
        <time>2016-10-30T08:51:09.000Z</time>
      </trkpt>
      <trkpt lat="47.46798" lon="6.89561">
        <ele>422</ele>
        <time>2016-10-30T08:51:10.000Z</time>
      </trkpt>
      <trkpt lat="47.46795" lon="6.89562">
        <ele>422</ele>
        <time>2016-10-30T08:51:11.000Z</time>
      </trkpt>
      <trkpt lat="47.46792" lon="6.89563">
        <ele>422</ele>
        <time>2016-10-30T08:51:12.000Z</time>
      </trkpt>
      <trkpt lat="47.46789" lon="6.89564">
        <ele>422</ele>
        <time>2016-10-30T08:51:13.000Z</time>
      </trkpt>
      <trkpt lat="47.46787" lon="6.89565">
        <ele>422</ele>
        <time>2016-10-30T08:51:14.000Z</time>
      </trkpt>
      <trkpt lat="47.46784" lon="6.89567">
        <ele>422</ele>
        <time>2016-10-30T08:51:15.000Z</time>
      </trkpt>
      <trkpt lat="47.46782" lon="6.89568">
        <ele>422</ele>
        <time>2016-10-30T08:51:16.000Z</time>
      </trkpt>
      <trkpt lat="47.46779" lon="6.89569">
        <ele>422</ele>
        <time>2016-10-30T08:51:17.000Z</time>
      </trkpt>
      <trkpt lat="47.46776" lon="6.89571">
        <ele>422</ele>
        <time>2016-10-30T08:51:18.000Z</time>
      </trkpt>
      <trkpt lat="47.46774" lon="6.89572">
        <ele>422</ele>
        <time>2016-10-30T08:51:19.000Z</time>
      </trkpt>
      <trkpt lat="47.46771" lon="6.89573">
        <ele>422</ele>
        <time>2016-10-30T08:51:20.000Z</time>
      </trkpt>
      <trkpt lat="47.46769" lon="6.89574">
        <ele>422</ele>
        <time>2016-10-30T08:51:21.000Z</time>
      </trkpt>
      <trkpt lat="47.46766" lon="6.89576">
        <ele>422</ele>
        <time>2016-10-30T08:51:22.000Z</time>
      </trkpt>
      <trkpt lat="47.46763" lon="6.89577">
        <ele>423</ele>
        <time>2016-10-30T08:51:23.000Z</time>
      </trkpt>
      <trkpt lat="47.46761" lon="6.89579">
        <ele>423</ele>
        <time>2016-10-30T08:51:24.000Z</time>
      </trkpt>
      <trkpt lat="47.46759" lon="6.89581">
        <ele>423</ele>
        <time>2016-10-30T08:51:25.000Z</time>
      </trkpt>
      <trkpt lat="47.46757" lon="6.89584">
        <ele>423</ele>
        <time>2016-10-30T08:51:26.000Z</time>
      </trkpt>
      <trkpt lat="47.46755" lon="6.89586">
        <ele>423</ele>
        <time>2016-10-30T08:51:27.000Z</time>
      </trkpt>
      <trkpt lat="47.46752" lon="6.89587">
        <ele>423</ele>
        <time>2016-10-30T08:51:28.000Z</time>
      </trkpt>
      <trkpt lat="47.46749" lon="6.89588">
        <ele>422</ele>
        <time>2016-10-30T08:51:29.000Z</time>
      </trkpt>
      <trkpt lat="47.46747" lon="6.89589">
        <ele>422</ele>
        <time>2016-10-30T08:51:30.000Z</time>
      </trkpt>
      <trkpt lat="47.46744" lon="6.8959">
        <ele>422</ele>
        <time>2016-10-30T08:51:31.000Z</time>
      </trkpt>
      <trkpt lat="47.46741" lon="6.89591">
        <ele>422</ele>
        <time>2016-10-30T08:51:32.000Z</time>
      </trkpt>
      <trkpt lat="47.46739" lon="6.89593">
        <ele>421</ele>
        <time>2016-10-30T08:51:33.000Z</time>
      </trkpt>
      <trkpt lat="47.46737" lon="6.89595">
        <ele>421</ele>
        <time>2016-10-30T08:51:34.000Z</time>
      </trkpt>
      <trkpt lat="47.46734" lon="6.89598">
        <ele>421</ele>
        <time>2016-10-30T08:51:35.000Z</time>
      </trkpt>
      <trkpt lat="47.46731" lon="6.896">
        <ele>421</ele>
        <time>2016-10-30T08:51:36.000Z</time>
      </trkpt>
      <trkpt lat="47.46728" lon="6.89603">
        <ele>420</ele>
        <time>2016-10-30T08:51:37.000Z</time>
      </trkpt>
      <trkpt lat="47.46725" lon="6.89606">
        <ele>420</ele>
        <time>2016-10-30T08:51:38.000Z</time>
      </trkpt>
      <trkpt lat="47.46721" lon="6.89609">
        <ele>420</ele>
        <time>2016-10-30T08:51:39.000Z</time>
      </trkpt>
      <trkpt lat="47.46717" lon="6.89614">
        <ele>420</ele>
        <time>2016-10-30T08:51:40.000Z</time>
      </trkpt>
      <trkpt lat="47.46712" lon="6.89617">
        <ele>419</ele>
        <time>2016-10-30T08:51:41.000Z</time>
      </trkpt>
      <trkpt lat="47.46708" lon="6.89621">
        <ele>419</ele>
        <time>2016-10-30T08:51:42.000Z</time>
      </trkpt>
      <trkpt lat="47.46703" lon="6.89625">
        <ele>419</ele>
        <time>2016-10-30T08:51:43.000Z</time>
      </trkpt>
      <trkpt lat="47.46699" lon="6.89629">
        <ele>419</ele>
        <time>2016-10-30T08:51:44.000Z</time>
      </trkpt>
      <trkpt lat="47.46695" lon="6.89634">
        <ele>419</ele>
        <time>2016-10-30T08:51:45.000Z</time>
      </trkpt>
      <trkpt lat="47.4669" lon="6.89639">
        <ele>418</ele>
        <time>2016-10-30T08:51:46.000Z</time>
      </trkpt>
      <trkpt lat="47.46686" lon="6.89643">
        <ele>418</ele>
        <time>2016-10-30T08:51:47.000Z</time>
      </trkpt>
      <trkpt lat="47.46683" lon="6.89648">
        <ele>418</ele>
        <time>2016-10-30T08:51:48.000Z</time>
      </trkpt>
      <trkpt lat="47.46679" lon="6.89652">
        <ele>417</ele>
        <time>2016-10-30T08:51:49.000Z</time>
      </trkpt>
      <trkpt lat="47.46676" lon="6.89658">
        <ele>417</ele>
        <time>2016-10-30T08:51:50.000Z</time>
      </trkpt>
      <trkpt lat="47.46672" lon="6.89666">
        <ele>416</ele>
        <time>2016-10-30T08:51:51.000Z</time>
      </trkpt>
      <trkpt lat="47.46669" lon="6.89672">
        <ele>415</ele>
        <time>2016-10-30T08:51:52.000Z</time>
      </trkpt>
      <trkpt lat="47.46665" lon="6.89678">
        <ele>413</ele>
        <time>2016-10-30T08:51:53.000Z</time>
      </trkpt>
      <trkpt lat="47.46661" lon="6.89682">
        <ele>413</ele>
        <time>2016-10-30T08:51:54.000Z</time>
      </trkpt>
      <trkpt lat="47.46655" lon="6.89686">
        <ele>412</ele>
        <time>2016-10-30T08:51:55.000Z</time>
      </trkpt>
      <trkpt lat="47.46649" lon="6.89689">
        <ele>412</ele>
        <time>2016-10-30T08:51:56.000Z</time>
      </trkpt>
      <trkpt lat="47.46641" lon="6.89692">
        <ele>411</ele>
        <time>2016-10-30T08:51:57.000Z</time>
      </trkpt>
      <trkpt lat="47.46634" lon="6.89695">
        <ele>411</ele>
        <time>2016-10-30T08:51:58.000Z</time>
      </trkpt>
      <trkpt lat="47.46627" lon="6.89699">
        <ele>410</ele>
        <time>2016-10-30T08:51:59.000Z</time>
      </trkpt>
      <trkpt lat="47.4662" lon="6.89703">
        <ele>410</ele>
        <time>2016-10-30T08:52:00.000Z</time>
      </trkpt>
      <trkpt lat="47.46612" lon="6.89706">
        <ele>410</ele>
        <time>2016-10-30T08:52:01.000Z</time>
      </trkpt>
      <trkpt lat="47.46606" lon="6.89709">
        <ele>410</ele>
        <time>2016-10-30T08:52:02.000Z</time>
      </trkpt>
      <trkpt lat="47.46601" lon="6.89711">
        <ele>409</ele>
        <time>2016-10-30T08:52:03.000Z</time>
      </trkpt>
      <trkpt lat="47.46596" lon="6.89712">
        <ele>409</ele>
        <time>2016-10-30T08:52:04.000Z</time>
      </trkpt>
      <trkpt lat="47.46593" lon="6.89713">
        <ele>409</ele>
        <time>2016-10-30T08:52:05.000Z</time>
      </trkpt>
      <trkpt lat="47.46591" lon="6.89715">
        <ele>409</ele>
        <time>2016-10-30T08:52:06.000Z</time>
      </trkpt>
      <trkpt lat="47.4659" lon="6.89719">
        <ele>409</ele>
        <time>2016-10-30T08:52:07.000Z</time>
      </trkpt>
      <trkpt lat="47.46591" lon="6.89724">
        <ele>409</ele>
        <time>2016-10-30T08:52:08.000Z</time>
      </trkpt>
      <trkpt lat="47.46593" lon="6.89729">
        <ele>408</ele>
        <time>2016-10-30T08:52:09.000Z</time>
      </trkpt>
      <trkpt lat="47.46594" lon="6.89733">
        <ele>408</ele>
        <time>2016-10-30T08:52:10.000Z</time>
      </trkpt>
      <trkpt lat="47.46595" lon="6.89738">
        <ele>408</ele>
        <time>2016-10-30T08:52:11.000Z</time>
      </trkpt>
      <trkpt lat="47.46596" lon="6.89743">
        <ele>408</ele>
        <time>2016-10-30T08:52:12.000Z</time>
      </trkpt>
      <trkpt lat="47.46598" lon="6.89747">
        <ele>408</ele>
        <time>2016-10-30T08:52:13.000Z</time>
      </trkpt>
      <trkpt lat="47.46599" lon="6.89752">
        <ele>407</ele>
        <time>2016-10-30T08:52:14.000Z</time>
      </trkpt>
      <trkpt lat="47.46601" lon="6.89757">
        <ele>407</ele>
        <time>2016-10-30T08:52:15.000Z</time>
      </trkpt>
      <trkpt lat="47.46602" lon="6.89762">
        <ele>407</ele>
        <time>2016-10-30T08:52:16.000Z</time>
      </trkpt>
      <trkpt lat="47.46604" lon="6.89767">
        <ele>407</ele>
        <time>2016-10-30T08:52:17.000Z</time>
      </trkpt>
      <trkpt lat="47.46606" lon="6.89773">
        <ele>407</ele>
        <time>2016-10-30T08:52:18.000Z</time>
      </trkpt>
      <trkpt lat="47.46608" lon="6.89778">
        <ele>407</ele>
        <time>2016-10-30T08:52:19.000Z</time>
      </trkpt>
      <trkpt lat="47.4661" lon="6.89784">
        <ele>407</ele>
        <time>2016-10-30T08:52:20.000Z</time>
      </trkpt>
      <trkpt lat="47.46612" lon="6.8979">
        <ele>407</ele>
        <time>2016-10-30T08:52:21.000Z</time>
      </trkpt>
      <trkpt lat="47.46614" lon="6.89796">
        <ele>407</ele>
        <time>2016-10-30T08:52:22.000Z</time>
      </trkpt>
      <trkpt lat="47.46616" lon="6.89802">
        <ele>407</ele>
        <time>2016-10-30T08:52:23.000Z</time>
      </trkpt>
      <trkpt lat="47.46618" lon="6.89808">
        <ele>407</ele>
        <time>2016-10-30T08:52:24.000Z</time>
      </trkpt>
      <trkpt lat="47.4662" lon="6.89814">
        <ele>407</ele>
        <time>2016-10-30T08:52:25.000Z</time>
      </trkpt>
      <trkpt lat="47.46622" lon="6.8982">
        <ele>407</ele>
        <time>2016-10-30T08:52:26.000Z</time>
      </trkpt>
      <trkpt lat="47.46625" lon="6.89825">
        <ele>407</ele>
        <time>2016-10-30T08:52:27.000Z</time>
      </trkpt>
      <trkpt lat="47.46627" lon="6.89831">
        <ele>407</ele>
        <time>2016-10-30T08:52:28.000Z</time>
      </trkpt>
      <trkpt lat="47.46629" lon="6.89838">
        <ele>406</ele>
        <time>2016-10-30T08:52:29.000Z</time>
      </trkpt>
      <trkpt lat="47.46632" lon="6.89844">
        <ele>406</ele>
        <time>2016-10-30T08:52:30.000Z</time>
      </trkpt>
      <trkpt lat="47.46634" lon="6.8985">
        <ele>406</ele>
        <time>2016-10-30T08:52:31.000Z</time>
      </trkpt>
      <trkpt lat="47.46636" lon="6.89855">
        <ele>406</ele>
        <time>2016-10-30T08:52:32.000Z</time>
      </trkpt>
      <trkpt lat="47.46638" lon="6.8986">
        <ele>406</ele>
        <time>2016-10-30T08:52:33.000Z</time>
      </trkpt>
      <trkpt lat="47.4664" lon="6.89866">
        <ele>406</ele>
        <time>2016-10-30T08:52:34.000Z</time>
      </trkpt>
      <trkpt lat="47.46641" lon="6.89873">
        <ele>406</ele>
        <time>2016-10-30T08:52:35.000Z</time>
      </trkpt>
      <trkpt lat="47.46643" lon="6.89879">
        <ele>407</ele>
        <time>2016-10-30T08:52:36.000Z</time>
      </trkpt>
      <trkpt lat="47.46645" lon="6.89884">
        <ele>407</ele>
        <time>2016-10-30T08:52:37.000Z</time>
      </trkpt>
      <trkpt lat="47.46647" lon="6.8989">
        <ele>407</ele>
        <time>2016-10-30T08:52:38.000Z</time>
      </trkpt>
      <trkpt lat="47.46648" lon="6.89896">
        <ele>407</ele>
        <time>2016-10-30T08:52:39.000Z</time>
      </trkpt>
      <trkpt lat="47.46649" lon="6.89901">
        <ele>407</ele>
        <time>2016-10-30T08:52:40.000Z</time>
      </trkpt>
      <trkpt lat="47.46651" lon="6.89906">
        <ele>407</ele>
        <time>2016-10-30T08:52:41.000Z</time>
      </trkpt>
      <trkpt lat="47.46653" lon="6.89911">
        <ele>408</ele>
        <time>2016-10-30T08:52:42.000Z</time>
      </trkpt>
      <trkpt lat="47.46655" lon="6.89916">
        <ele>408</ele>
        <time>2016-10-30T08:52:43.000Z</time>
      </trkpt>
      <trkpt lat="47.46656" lon="6.8992">
        <ele>409</ele>
        <time>2016-10-30T08:52:44.000Z</time>
      </trkpt>
      <trkpt lat="47.46658" lon="6.89925">
        <ele>409</ele>
        <time>2016-10-30T08:52:45.000Z</time>
      </trkpt>
      <trkpt lat="47.46659" lon="6.89929">
        <ele>409</ele>
        <time>2016-10-30T08:52:46.000Z</time>
      </trkpt>
      <trkpt lat="47.46661" lon="6.89933">
        <ele>409</ele>
        <time>2016-10-30T08:52:47.000Z</time>
      </trkpt>
      <trkpt lat="47.46663" lon="6.89938">
        <ele>409</ele>
        <time>2016-10-30T08:52:48.000Z</time>
      </trkpt>
      <trkpt lat="47.46664" lon="6.89942">
        <ele>409</ele>
        <time>2016-10-30T08:52:49.000Z</time>
      </trkpt>
      <trkpt lat="47.46665" lon="6.89947">
        <ele>409</ele>
        <time>2016-10-30T08:52:50.000Z</time>
      </trkpt>
      <trkpt lat="47.46666" lon="6.89952">
        <ele>409</ele>
        <time>2016-10-30T08:52:51.000Z</time>
      </trkpt>
      <trkpt lat="47.46668" lon="6.89956">
        <ele>413</ele>
        <time>2016-10-30T08:52:52.000Z</time>
      </trkpt>
      <trkpt lat="47.4667" lon="6.89961">
        <ele>413</ele>
        <time>2016-10-30T08:52:53.000Z</time>
      </trkpt>
      <trkpt lat="47.46672" lon="6.89966">
        <ele>413</ele>
        <time>2016-10-30T08:52:54.000Z</time>
      </trkpt>
      <trkpt lat="47.46674" lon="6.8997">
        <ele>413</ele>
        <time>2016-10-30T08:52:55.000Z</time>
      </trkpt>
      <trkpt lat="47.46676" lon="6.89974">
        <ele>413</ele>
        <time>2016-10-30T08:52:56.000Z</time>
      </trkpt>
      <trkpt lat="47.46677" lon="6.89978">
        <ele>413</ele>
        <time>2016-10-30T08:52:57.000Z</time>
      </trkpt>
      <trkpt lat="47.46679" lon="6.89983">
        <ele>413</ele>
        <time>2016-10-30T08:52:58.000Z</time>
      </trkpt>
      <trkpt lat="47.4668" lon="6.89987">
        <ele>413</ele>
        <time>2016-10-30T08:52:59.000Z</time>
      </trkpt>
      <trkpt lat="47.46682" lon="6.89991">
        <ele>413</ele>
        <time>2016-10-30T08:53:00.000Z</time>
      </trkpt>
      <trkpt lat="47.46684" lon="6.89995">
        <ele>413</ele>
        <time>2016-10-30T08:53:01.000Z</time>
      </trkpt>
      <trkpt lat="47.46685" lon="6.9">
        <ele>414</ele>
        <time>2016-10-30T08:53:02.000Z</time>
      </trkpt>
      <trkpt lat="47.46686" lon="6.90004">
        <ele>415</ele>
        <time>2016-10-30T08:53:03.000Z</time>
      </trkpt>
      <trkpt lat="47.46687" lon="6.90009">
        <ele>415</ele>
        <time>2016-10-30T08:53:04.000Z</time>
      </trkpt>
      <trkpt lat="47.46687" lon="6.90014">
        <ele>415</ele>
        <time>2016-10-30T08:53:05.000Z</time>
      </trkpt>
      <trkpt lat="47.46687" lon="6.90019">
        <ele>415</ele>
        <time>2016-10-30T08:53:06.001Z</time>
      </trkpt>
      <trkpt lat="47.46686" lon="6.90025">
        <ele>415</ele>
        <time>2016-10-30T08:53:07.000Z</time>
      </trkpt>
      <trkpt lat="47.46686" lon="6.90031">
        <ele>416</ele>
        <time>2016-10-30T08:53:08.000Z</time>
      </trkpt>
      <trkpt lat="47.46686" lon="6.90037">
        <ele>416</ele>
        <time>2016-10-30T08:53:09.000Z</time>
      </trkpt>
      <trkpt lat="47.46686" lon="6.90043">
        <ele>416</ele>
        <time>2016-10-30T08:53:10.000Z</time>
      </trkpt>
      <trkpt lat="47.46687" lon="6.90049">
        <ele>416</ele>
        <time>2016-10-30T08:53:11.000Z</time>
      </trkpt>
      <trkpt lat="47.46687" lon="6.90055">
        <ele>416</ele>
        <time>2016-10-30T08:53:12.000Z</time>
      </trkpt>
      <trkpt lat="47.46688" lon="6.90061">
        <ele>416</ele>
        <time>2016-10-30T08:53:13.000Z</time>
      </trkpt>
      <trkpt lat="47.46688" lon="6.90067">
        <ele>416</ele>
        <time>2016-10-30T08:53:14.000Z</time>
      </trkpt>
      <trkpt lat="47.46688" lon="6.90073">
        <ele>416</ele>
        <time>2016-10-30T08:53:15.000Z</time>
      </trkpt>
      <trkpt lat="47.46688" lon="6.90078">
        <ele>416</ele>
        <time>2016-10-30T08:53:16.000Z</time>
      </trkpt>
      <trkpt lat="47.46689" lon="6.90084">
        <ele>417</ele>
        <time>2016-10-30T08:53:17.000Z</time>
      </trkpt>
      <trkpt lat="47.46689" lon="6.9009">
        <ele>417</ele>
        <time>2016-10-30T08:53:18.000Z</time>
      </trkpt>
      <trkpt lat="47.4669" lon="6.90095">
        <ele>417</ele>
        <time>2016-10-30T08:53:19.001Z</time>
      </trkpt>
      <trkpt lat="47.4669" lon="6.90101">
        <ele>417</ele>
        <time>2016-10-30T08:53:20.000Z</time>
      </trkpt>
      <trkpt lat="47.4669" lon="6.90107">
        <ele>417</ele>
        <time>2016-10-30T08:53:21.000Z</time>
      </trkpt>
      <trkpt lat="47.46691" lon="6.90113">
        <ele>418</ele>
        <time>2016-10-30T08:53:22.000Z</time>
      </trkpt>
      <trkpt lat="47.46691" lon="6.90119">
        <ele>418</ele>
        <time>2016-10-30T08:53:23.000Z</time>
      </trkpt>
      <trkpt lat="47.46692" lon="6.90124">
        <ele>418</ele>
        <time>2016-10-30T08:53:24.000Z</time>
      </trkpt>
      <trkpt lat="47.46691" lon="6.90129">
        <ele>418</ele>
        <time>2016-10-30T08:53:25.000Z</time>
      </trkpt>
      <trkpt lat="47.4669" lon="6.90134">
        <ele>418</ele>
        <time>2016-10-30T08:53:26.000Z</time>
      </trkpt>
      <trkpt lat="47.46688" lon="6.90137">
        <ele>418</ele>
        <time>2016-10-30T08:53:27.000Z</time>
      </trkpt>
      <trkpt lat="47.46684" lon="6.9014">
        <ele>418</ele>
        <time>2016-10-30T08:53:28.000Z</time>
      </trkpt>
      <trkpt lat="47.4668" lon="6.90143">
        <ele>417</ele>
        <time>2016-10-30T08:53:29.000Z</time>
      </trkpt>
      <trkpt lat="47.46676" lon="6.90145">
        <ele>417</ele>
        <time>2016-10-30T08:53:30.000Z</time>
      </trkpt>
      <trkpt lat="47.46672" lon="6.90148">
        <ele>417</ele>
        <time>2016-10-30T08:53:31.000Z</time>
      </trkpt>
      <trkpt lat="47.46668" lon="6.90151">
        <ele>417</ele>
        <time>2016-10-30T08:53:32.000Z</time>
      </trkpt>
      <trkpt lat="47.46664" lon="6.90153">
        <ele>415</ele>
        <time>2016-10-30T08:53:33.000Z</time>
      </trkpt>
      <trkpt lat="47.4666" lon="6.90156">
        <ele>415</ele>
        <time>2016-10-30T08:53:34.000Z</time>
      </trkpt>
      <trkpt lat="47.46656" lon="6.90158">
        <ele>415</ele>
        <time>2016-10-30T08:53:35.000Z</time>
      </trkpt>
      <trkpt lat="47.46652" lon="6.90161">
        <ele>415</ele>
        <time>2016-10-30T08:53:36.000Z</time>
      </trkpt>
      <trkpt lat="47.46648" lon="6.90164">
        <ele>415</ele>
        <time>2016-10-30T08:53:37.000Z</time>
      </trkpt>
      <trkpt lat="47.46644" lon="6.90166">
        <ele>415</ele>
        <time>2016-10-30T08:53:38.000Z</time>
      </trkpt>
      <trkpt lat="47.4664" lon="6.90169">
        <ele>417</ele>
        <time>2016-10-30T08:53:39.000Z</time>
      </trkpt>
      <trkpt lat="47.46637" lon="6.90172">
        <ele>417</ele>
        <time>2016-10-30T08:53:40.000Z</time>
      </trkpt>
      <trkpt lat="47.46633" lon="6.90175">
        <ele>417</ele>
        <time>2016-10-30T08:53:41.000Z</time>
      </trkpt>
      <trkpt lat="47.46629" lon="6.90177">
        <ele>417</ele>
        <time>2016-10-30T08:53:42.000Z</time>
      </trkpt>
      <trkpt lat="47.46625" lon="6.9018">
        <ele>417</ele>
        <time>2016-10-30T08:53:43.000Z</time>
      </trkpt>
      <trkpt lat="47.46622" lon="6.90183">
        <ele>417</ele>
        <time>2016-10-30T08:53:44.000Z</time>
      </trkpt>
      <trkpt lat="47.46619" lon="6.90186">
        <ele>417</ele>
        <time>2016-10-30T08:53:45.000Z</time>
      </trkpt>
      <trkpt lat="47.46616" lon="6.90189">
        <ele>417</ele>
        <time>2016-10-30T08:53:46.000Z</time>
      </trkpt>
      <trkpt lat="47.46612" lon="6.90192">
        <ele>417</ele>
        <time>2016-10-30T08:53:47.000Z</time>
      </trkpt>
      <trkpt lat="47.4661" lon="6.90195">
        <ele>417</ele>
        <time>2016-10-30T08:53:48.000Z</time>
      </trkpt>
      <trkpt lat="47.46607" lon="6.90197">
        <ele>417</ele>
        <time>2016-10-30T08:53:49.000Z</time>
      </trkpt>
      <trkpt lat="47.46604" lon="6.902">
        <ele>417</ele>
        <time>2016-10-30T08:53:50.000Z</time>
      </trkpt>
      <trkpt lat="47.46601" lon="6.90203">
        <ele>417</ele>
        <time>2016-10-30T08:53:51.000Z</time>
      </trkpt>
      <trkpt lat="47.46599" lon="6.90206">
        <ele>417</ele>
        <time>2016-10-30T08:53:52.000Z</time>
      </trkpt>
      <trkpt lat="47.46596" lon="6.90208">
        <ele>417</ele>
        <time>2016-10-30T08:53:53.000Z</time>
      </trkpt>
      <trkpt lat="47.46594" lon="6.90211">
        <ele>417</ele>
        <time>2016-10-30T08:53:54.000Z</time>
      </trkpt>
      <trkpt lat="47.46592" lon="6.90214">
        <ele>418</ele>
        <time>2016-10-30T08:53:55.000Z</time>
      </trkpt>
      <trkpt lat="47.4659" lon="6.90217">
        <ele>418</ele>
        <time>2016-10-30T08:53:56.000Z</time>
      </trkpt>
      <trkpt lat="47.46588" lon="6.90219">
        <ele>418</ele>
        <time>2016-10-30T08:53:57.000Z</time>
      </trkpt>
      <trkpt lat="47.46586" lon="6.90222">
        <ele>418</ele>
        <time>2016-10-30T08:53:58.000Z</time>
      </trkpt>
      <trkpt lat="47.46584" lon="6.90224">
        <ele>418</ele>
        <time>2016-10-30T08:53:59.000Z</time>
      </trkpt>
      <trkpt lat="47.46582" lon="6.90227">
        <ele>419</ele>
        <time>2016-10-30T08:54:00.000Z</time>
      </trkpt>
      <trkpt lat="47.46581" lon="6.9023">
        <ele>419</ele>
        <time>2016-10-30T08:54:01.000Z</time>
      </trkpt>
      <trkpt lat="47.4658" lon="6.90233">
        <ele>419</ele>
        <time>2016-10-30T08:54:02.000Z</time>
      </trkpt>
      <trkpt lat="47.4658" lon="6.90237">
        <ele>420</ele>
        <time>2016-10-30T08:54:03.000Z</time>
      </trkpt>
      <trkpt lat="47.4658" lon="6.9024">
        <ele>420</ele>
        <time>2016-10-30T08:54:04.000Z</time>
      </trkpt>
      <trkpt lat="47.4658" lon="6.90243">
        <ele>420</ele>
        <time>2016-10-30T08:54:05.000Z</time>
      </trkpt>
      <trkpt lat="47.46579" lon="6.90249">
        <ele>420</ele>
        <time>2016-10-30T08:54:07.000Z</time>
      </trkpt>
      <trkpt lat="47.46577" lon="6.90251">
        <ele>421</ele>
        <time>2016-10-30T08:54:08.000Z</time>
      </trkpt>
      <trkpt lat="47.46575" lon="6.90253">
        <ele>421</ele>
        <time>2016-10-30T08:54:09.000Z</time>
      </trkpt>
      <trkpt lat="47.46573" lon="6.90255">
        <ele>422</ele>
        <time>2016-10-30T08:54:10.000Z</time>
      </trkpt>
      <trkpt lat="47.46572" lon="6.90258">
        <ele>422</ele>
        <time>2016-10-30T08:54:11.000Z</time>
      </trkpt>
      <trkpt lat="47.4657" lon="6.9026">
        <ele>422</ele>
        <time>2016-10-30T08:54:12.000Z</time>
      </trkpt>
      <trkpt lat="47.46568" lon="6.90263">
        <ele>422</ele>
        <time>2016-10-30T08:54:13.000Z</time>
      </trkpt>
      <trkpt lat="47.46567" lon="6.90265">
        <ele>423</ele>
        <time>2016-10-30T08:54:14.000Z</time>
      </trkpt>
      <trkpt lat="47.46565" lon="6.90268">
        <ele>423</ele>
        <time>2016-10-30T08:54:15.000Z</time>
      </trkpt>
      <trkpt lat="47.46562" lon="6.9027">
        <ele>423</ele>
        <time>2016-10-30T08:54:16.000Z</time>
      </trkpt>
      <trkpt lat="47.4656" lon="6.90273">
        <ele>423</ele>
        <time>2016-10-30T08:54:17.000Z</time>
      </trkpt>
      <trkpt lat="47.46558" lon="6.90276">
        <ele>424</ele>
        <time>2016-10-30T08:54:18.000Z</time>
      </trkpt>
      <trkpt lat="47.46556" lon="6.90279">
        <ele>424</ele>
        <time>2016-10-30T08:54:19.000Z</time>
      </trkpt>
      <trkpt lat="47.46554" lon="6.90282">
        <ele>424</ele>
        <time>2016-10-30T08:54:20.000Z</time>
      </trkpt>
      <trkpt lat="47.46552" lon="6.90285">
        <ele>424</ele>
        <time>2016-10-30T08:54:21.000Z</time>
      </trkpt>
      <trkpt lat="47.4655" lon="6.90288">
        <ele>424</ele>
        <time>2016-10-30T08:54:22.000Z</time>
      </trkpt>
      <trkpt lat="47.46548" lon="6.90291">
        <ele>424</ele>
        <time>2016-10-30T08:54:23.000Z</time>
      </trkpt>
      <trkpt lat="47.46546" lon="6.90294">
        <ele>424</ele>
        <time>2016-10-30T08:54:24.000Z</time>
      </trkpt>
      <trkpt lat="47.46544" lon="6.90297">
        <ele>425</ele>
        <time>2016-10-30T08:54:25.000Z</time>
      </trkpt>
      <trkpt lat="47.46542" lon="6.903">
        <ele>425</ele>
        <time>2016-10-30T08:54:26.000Z</time>
      </trkpt>
      <trkpt lat="47.4654" lon="6.90302">
        <ele>425</ele>
        <time>2016-10-30T08:54:27.000Z</time>
      </trkpt>
      <trkpt lat="47.46538" lon="6.90305">
        <ele>425</ele>
        <time>2016-10-30T08:54:28.000Z</time>
      </trkpt>
      <trkpt lat="47.46535" lon="6.90307">
        <ele>425</ele>
        <time>2016-10-30T08:54:29.000Z</time>
      </trkpt>
      <trkpt lat="47.46533" lon="6.9031">
        <ele>425</ele>
        <time>2016-10-30T08:54:30.000Z</time>
      </trkpt>
      <trkpt lat="47.46531" lon="6.90312">
        <ele>425</ele>
        <time>2016-10-30T08:54:31.000Z</time>
      </trkpt>
      <trkpt lat="47.46528" lon="6.90315">
        <ele>425</ele>
        <time>2016-10-30T08:54:32.000Z</time>
      </trkpt>
      <trkpt lat="47.46526" lon="6.90318">
        <ele>426</ele>
        <time>2016-10-30T08:54:33.000Z</time>
      </trkpt>
      <trkpt lat="47.46522" lon="6.90323">
        <ele>426</ele>
        <time>2016-10-30T08:54:35.000Z</time>
      </trkpt>
      <trkpt lat="47.4652" lon="6.90326">
        <ele>426</ele>
        <time>2016-10-30T08:54:36.000Z</time>
      </trkpt>
      <trkpt lat="47.46518" lon="6.90328">
        <ele>426</ele>
        <time>2016-10-30T08:54:37.000Z</time>
      </trkpt>
      <trkpt lat="47.46516" lon="6.90331">
        <ele>426</ele>
        <time>2016-10-30T08:54:38.000Z</time>
      </trkpt>
      <trkpt lat="47.46514" lon="6.90333">
        <ele>427</ele>
        <time>2016-10-30T08:54:39.000Z</time>
      </trkpt>
      <trkpt lat="47.46512" lon="6.90335">
        <ele>428</ele>
        <time>2016-10-30T08:54:40.000Z</time>
      </trkpt>
      <trkpt lat="47.4651" lon="6.90337">
        <ele>428</ele>
        <time>2016-10-30T08:54:41.000Z</time>
      </trkpt>
      <trkpt lat="47.46508" lon="6.90339">
        <ele>428</ele>
        <time>2016-10-30T08:54:42.000Z</time>
      </trkpt>
      <trkpt lat="47.46506" lon="6.90341">
        <ele>428</ele>
        <time>2016-10-30T08:54:43.000Z</time>
      </trkpt>
      <trkpt lat="47.46503" lon="6.90344">
        <ele>428</ele>
        <time>2016-10-30T08:54:44.000Z</time>
      </trkpt>
      <trkpt lat="47.46502" lon="6.90346">
        <ele>429</ele>
        <time>2016-10-30T08:54:45.000Z</time>
      </trkpt>
      <trkpt lat="47.465" lon="6.90349">
        <ele>431</ele>
        <time>2016-10-30T08:54:46.000Z</time>
      </trkpt>
      <trkpt lat="47.46498" lon="6.90352">
        <ele>431</ele>
        <time>2016-10-30T08:54:47.000Z</time>
      </trkpt>
      <trkpt lat="47.46496" lon="6.90355">
        <ele>432</ele>
        <time>2016-10-30T08:54:48.000Z</time>
      </trkpt>
      <trkpt lat="47.46495" lon="6.90358">
        <ele>432</ele>
        <time>2016-10-30T08:54:49.000Z</time>
      </trkpt>
      <trkpt lat="47.46493" lon="6.9036">
        <ele>432</ele>
        <time>2016-10-30T08:54:50.000Z</time>
      </trkpt>
      <trkpt lat="47.46491" lon="6.90362">
        <ele>432</ele>
        <time>2016-10-30T08:54:51.000Z</time>
      </trkpt>
      <trkpt lat="47.46488" lon="6.90364">
        <ele>433</ele>
        <time>2016-10-30T08:54:52.000Z</time>
      </trkpt>
      <trkpt lat="47.46486" lon="6.90366">
        <ele>433</ele>
        <time>2016-10-30T08:54:53.000Z</time>
      </trkpt>
      <trkpt lat="47.46484" lon="6.90367">
        <ele>433</ele>
        <time>2016-10-30T08:54:54.000Z</time>
      </trkpt>
      <trkpt lat="47.46482" lon="6.90369">
        <ele>433</ele>
        <time>2016-10-30T08:54:55.000Z</time>
      </trkpt>
      <trkpt lat="47.46479" lon="6.9037">
        <ele>433</ele>
        <time>2016-10-30T08:54:56.000Z</time>
      </trkpt>
      <trkpt lat="47.46477" lon="6.9037">
        <ele>433</ele>
        <time>2016-10-30T08:54:57.000Z</time>
      </trkpt>
      <trkpt lat="47.46472" lon="6.90371">
        <ele>434</ele>
        <time>2016-10-30T08:54:59.000Z</time>
      </trkpt>
      <trkpt lat="47.4647" lon="6.90371">
        <ele>434</ele>
        <time>2016-10-30T08:55:00.000Z</time>
      </trkpt>
      <trkpt lat="47.46468" lon="6.90372">
        <ele>434</ele>
        <time>2016-10-30T08:55:01.000Z</time>
      </trkpt>
      <trkpt lat="47.46466" lon="6.90372">
        <ele>434</ele>
        <time>2016-10-30T08:55:02.000Z</time>
      </trkpt>
      <trkpt lat="47.46463" lon="6.90372">
        <ele>434</ele>
        <time>2016-10-30T08:55:03.000Z</time>
      </trkpt>
      <trkpt lat="47.46461" lon="6.90371">
        <ele>434</ele>
        <time>2016-10-30T08:55:04.000Z</time>
      </trkpt>
      <trkpt lat="47.46458" lon="6.90371">
        <ele>434</ele>
        <time>2016-10-30T08:55:05.000Z</time>
      </trkpt>
      <trkpt lat="47.46456" lon="6.9037">
        <ele>434</ele>
        <time>2016-10-30T08:55:06.000Z</time>
      </trkpt>
      <trkpt lat="47.46452" lon="6.90369">
        <ele>435</ele>
        <time>2016-10-30T08:55:08.000Z</time>
      </trkpt>
      <trkpt lat="47.4645" lon="6.90368">
        <ele>435</ele>
        <time>2016-10-30T08:55:09.000Z</time>
      </trkpt>
      <trkpt lat="47.46446" lon="6.90367">
        <ele>435</ele>
        <time>2016-10-30T08:55:11.000Z</time>
      </trkpt>
      <trkpt lat="47.46444" lon="6.90366">
        <ele>435</ele>
        <time>2016-10-30T08:55:12.000Z</time>
      </trkpt>
      <trkpt lat="47.4644" lon="6.90366">
        <ele>435</ele>
        <time>2016-10-30T08:55:14.000Z</time>
      </trkpt>
      <trkpt lat="47.46438" lon="6.90366">
        <ele>435</ele>
        <time>2016-10-30T08:55:15.000Z</time>
      </trkpt>
      <trkpt lat="47.46434" lon="6.90365">
        <ele>435</ele>
        <time>2016-10-30T08:55:17.000Z</time>
      </trkpt>
      <trkpt lat="47.46433" lon="6.90364">
        <ele>435</ele>
        <time>2016-10-30T08:55:18.000Z</time>
      </trkpt>
      <trkpt lat="47.46429" lon="6.90365">
        <ele>435</ele>
        <time>2016-10-30T08:55:20.000Z</time>
      </trkpt>
      <trkpt lat="47.46427" lon="6.90365">
        <ele>435</ele>
        <time>2016-10-30T08:55:21.000Z</time>
      </trkpt>
      <trkpt lat="47.46423" lon="6.90367">
        <ele>436</ele>
        <time>2016-10-30T08:55:23.000Z</time>
      </trkpt>
      <trkpt lat="47.46421" lon="6.90368">
        <ele>436</ele>
        <time>2016-10-30T08:55:24.000Z</time>
      </trkpt>
      <trkpt lat="47.46418" lon="6.9037">
        <ele>436</ele>
        <time>2016-10-30T08:55:26.000Z</time>
      </trkpt>
      <trkpt lat="47.46416" lon="6.90371">
        <ele>438</ele>
        <time>2016-10-30T08:55:27.000Z</time>
      </trkpt>
      <trkpt lat="47.46413" lon="6.90374">
        <ele>438</ele>
        <time>2016-10-30T08:55:29.000Z</time>
      </trkpt>
      <trkpt lat="47.46411" lon="6.90376">
        <ele>439</ele>
        <time>2016-10-30T08:55:30.000Z</time>
      </trkpt>
      <trkpt lat="47.46408" lon="6.9038">
        <ele>439</ele>
        <time>2016-10-30T08:55:32.000Z</time>
      </trkpt>
      <trkpt lat="47.46407" lon="6.90382">
        <ele>439</ele>
        <time>2016-10-30T08:55:33.000Z</time>
      </trkpt>
      <trkpt lat="47.46404" lon="6.90386">
        <ele>439</ele>
        <time>2016-10-30T08:55:35.000Z</time>
      </trkpt>
      <trkpt lat="47.46402" lon="6.90389">
        <ele>439</ele>
        <time>2016-10-30T08:55:36.000Z</time>
      </trkpt>
      <trkpt lat="47.46401" lon="6.90392">
        <ele>439</ele>
        <time>2016-10-30T08:55:37.000Z</time>
      </trkpt>
      <trkpt lat="47.464" lon="6.90394">
        <ele>439</ele>
        <time>2016-10-30T08:55:38.000Z</time>
      </trkpt>
      <trkpt lat="47.46398" lon="6.90397">
        <ele>439</ele>
        <time>2016-10-30T08:55:39.000Z</time>
      </trkpt>
      <trkpt lat="47.46397" lon="6.90401">
        <ele>439</ele>
        <time>2016-10-30T08:55:40.000Z</time>
      </trkpt>
      <trkpt lat="47.46395" lon="6.90404">
        <ele>440</ele>
        <time>2016-10-30T08:55:41.000Z</time>
      </trkpt>
      <trkpt lat="47.46393" lon="6.90407">
        <ele>440</ele>
        <time>2016-10-30T08:55:42.000Z</time>
      </trkpt>
      <trkpt lat="47.46392" lon="6.90411">
        <ele>440</ele>
        <time>2016-10-30T08:55:43.000Z</time>
      </trkpt>
      <trkpt lat="47.46391" lon="6.90416">
        <ele>440</ele>
        <time>2016-10-30T08:55:44.000Z</time>
      </trkpt>
      <trkpt lat="47.46389" lon="6.9042">
        <ele>442</ele>
        <time>2016-10-30T08:55:45.000Z</time>
      </trkpt>
      <trkpt lat="47.46388" lon="6.90425">
        <ele>442</ele>
        <time>2016-10-30T08:55:46.000Z</time>
      </trkpt>
      <trkpt lat="47.46387" lon="6.90429">
        <ele>443</ele>
        <time>2016-10-30T08:55:47.000Z</time>
      </trkpt>
      <trkpt lat="47.46387" lon="6.90434">
        <ele>443</ele>
        <time>2016-10-30T08:55:48.000Z</time>
      </trkpt>
      <trkpt lat="47.46386" lon="6.90439">
        <ele>443</ele>
        <time>2016-10-30T08:55:49.000Z</time>
      </trkpt>
      <trkpt lat="47.46385" lon="6.90444">
        <ele>443</ele>
        <time>2016-10-30T08:55:50.000Z</time>
      </trkpt>
      <trkpt lat="47.46384" lon="6.90448">
        <ele>443</ele>
        <time>2016-10-30T08:55:51.000Z</time>
      </trkpt>
      <trkpt lat="47.46383" lon="6.90453">
        <ele>443</ele>
        <time>2016-10-30T08:55:52.000Z</time>
      </trkpt>
      <trkpt lat="47.46382" lon="6.90458">
        <ele>443</ele>
        <time>2016-10-30T08:55:53.000Z</time>
      </trkpt>
      <trkpt lat="47.46381" lon="6.90463">
        <ele>443</ele>
        <time>2016-10-30T08:55:54.000Z</time>
      </trkpt>
      <trkpt lat="47.46379" lon="6.90468">
        <ele>443</ele>
        <time>2016-10-30T08:55:55.000Z</time>
      </trkpt>
      <trkpt lat="47.46377" lon="6.90472">
        <ele>444</ele>
        <time>2016-10-30T08:55:56.000Z</time>
      </trkpt>
      <trkpt lat="47.46375" lon="6.90476">
        <ele>444</ele>
        <time>2016-10-30T08:55:57.000Z</time>
      </trkpt>
      <trkpt lat="47.46373" lon="6.9048">
        <ele>444</ele>
        <time>2016-10-30T08:55:58.000Z</time>
      </trkpt>
      <trkpt lat="47.4637" lon="6.90484">
        <ele>444</ele>
        <time>2016-10-30T08:55:59.000Z</time>
      </trkpt>
      <trkpt lat="47.46367" lon="6.90487">
        <ele>444</ele>
        <time>2016-10-30T08:56:00.000Z</time>
      </trkpt>
      <trkpt lat="47.46365" lon="6.9049">
        <ele>444</ele>
        <time>2016-10-30T08:56:01.000Z</time>
      </trkpt>
      <trkpt lat="47.46362" lon="6.90493">
        <ele>444</ele>
        <time>2016-10-30T08:56:02.000Z</time>
      </trkpt>
      <trkpt lat="47.46359" lon="6.90496">
        <ele>444</ele>
        <time>2016-10-30T08:56:03.000Z</time>
      </trkpt>
      <trkpt lat="47.46356" lon="6.90498">
        <ele>444</ele>
        <time>2016-10-30T08:56:04.000Z</time>
      </trkpt>
      <trkpt lat="47.46353" lon="6.90501">
        <ele>446</ele>
        <time>2016-10-30T08:56:05.000Z</time>
      </trkpt>
      <trkpt lat="47.4635" lon="6.90502">
        <ele>446</ele>
        <time>2016-10-30T08:56:06.000Z</time>
      </trkpt>
      <trkpt lat="47.46347" lon="6.90504">
        <ele>446</ele>
        <time>2016-10-30T08:56:07.000Z</time>
      </trkpt>
      <trkpt lat="47.46344" lon="6.90505">
        <ele>446</ele>
        <time>2016-10-30T08:56:08.000Z</time>
      </trkpt>
      <trkpt lat="47.46341" lon="6.90507">
        <ele>446</ele>
        <time>2016-10-30T08:56:09.000Z</time>
      </trkpt>
      <trkpt lat="47.46337" lon="6.90509">
        <ele>446</ele>
        <time>2016-10-30T08:56:10.000Z</time>
      </trkpt>
      <trkpt lat="47.46334" lon="6.90511">
        <ele>446</ele>
        <time>2016-10-30T08:56:11.000Z</time>
      </trkpt>
      <trkpt lat="47.4633" lon="6.90513">
        <ele>448</ele>
        <time>2016-10-30T08:56:12.000Z</time>
      </trkpt>
      <trkpt lat="47.46326" lon="6.90515">
        <ele>448</ele>
        <time>2016-10-30T08:56:13.000Z</time>
      </trkpt>
      <trkpt lat="47.46322" lon="6.90517">
        <ele>448</ele>
        <time>2016-10-30T08:56:14.000Z</time>
      </trkpt>
      <trkpt lat="47.46318" lon="6.90519">
        <ele>449</ele>
        <time>2016-10-30T08:56:15.000Z</time>
      </trkpt>
      <trkpt lat="47.46314" lon="6.90521">
        <ele>449</ele>
        <time>2016-10-30T08:56:16.000Z</time>
      </trkpt>
      <trkpt lat="47.4631" lon="6.90523">
        <ele>449</ele>
        <time>2016-10-30T08:56:17.000Z</time>
      </trkpt>
      <trkpt lat="47.46307" lon="6.90524">
        <ele>449</ele>
        <time>2016-10-30T08:56:18.000Z</time>
      </trkpt>
      <trkpt lat="47.46303" lon="6.90525">
        <ele>449</ele>
        <time>2016-10-30T08:56:19.000Z</time>
      </trkpt>
      <trkpt lat="47.463" lon="6.90527">
        <ele>449</ele>
        <time>2016-10-30T08:56:20.000Z</time>
      </trkpt>
      <trkpt lat="47.46297" lon="6.90528">
        <ele>450</ele>
        <time>2016-10-30T08:56:21.000Z</time>
      </trkpt>
      <trkpt lat="47.46293" lon="6.90529">
        <ele>450</ele>
        <time>2016-10-30T08:56:22.000Z</time>
      </trkpt>
      <trkpt lat="47.46289" lon="6.90531">
        <ele>450</ele>
        <time>2016-10-30T08:56:23.000Z</time>
      </trkpt>
      <trkpt lat="47.46286" lon="6.90532">
        <ele>450</ele>
        <time>2016-10-30T08:56:24.000Z</time>
      </trkpt>
      <trkpt lat="47.46282" lon="6.90534">
        <ele>450</ele>
        <time>2016-10-30T08:56:25.000Z</time>
      </trkpt>
      <trkpt lat="47.46279" lon="6.90536">
        <ele>450</ele>
        <time>2016-10-30T08:56:26.000Z</time>
      </trkpt>
      <trkpt lat="47.46275" lon="6.90538">
        <ele>450</ele>
        <time>2016-10-30T08:56:27.000Z</time>
      </trkpt>
      <trkpt lat="47.46271" lon="6.9054">
        <ele>451</ele>
        <time>2016-10-30T08:56:28.000Z</time>
      </trkpt>
      <trkpt lat="47.46268" lon="6.90542">
        <ele>451</ele>
        <time>2016-10-30T08:56:29.000Z</time>
      </trkpt>
      <trkpt lat="47.46265" lon="6.90543">
        <ele>451</ele>
        <time>2016-10-30T08:56:30.000Z</time>
      </trkpt>
      <trkpt lat="47.46261" lon="6.90545">
        <ele>451</ele>
        <time>2016-10-30T08:56:31.000Z</time>
      </trkpt>
      <trkpt lat="47.46258" lon="6.90547">
        <ele>451</ele>
        <time>2016-10-30T08:56:32.000Z</time>
      </trkpt>
      <trkpt lat="47.46256" lon="6.90548">
        <ele>452</ele>
        <time>2016-10-30T08:56:33.000Z</time>
      </trkpt>
      <trkpt lat="47.46252" lon="6.9055">
        <ele>452</ele>
        <time>2016-10-30T08:56:34.000Z</time>
      </trkpt>
      <trkpt lat="47.46249" lon="6.90551">
        <ele>451</ele>
        <time>2016-10-30T08:56:35.000Z</time>
      </trkpt>
      <trkpt lat="47.46246" lon="6.90552">
        <ele>452</ele>
        <time>2016-10-30T08:56:36.000Z</time>
      </trkpt>
      <trkpt lat="47.46242" lon="6.90554">
        <ele>452</ele>
        <time>2016-10-30T08:56:37.000Z</time>
      </trkpt>
      <trkpt lat="47.46238" lon="6.90555">
        <ele>452</ele>
        <time>2016-10-30T08:56:38.000Z</time>
      </trkpt>
      <trkpt lat="47.46235" lon="6.90556">
        <ele>451</ele>
        <time>2016-10-30T08:56:39.000Z</time>
      </trkpt>
      <trkpt lat="47.46231" lon="6.90557">
        <ele>451</ele>
        <time>2016-10-30T08:56:40.000Z</time>
      </trkpt>
      <trkpt lat="47.46227" lon="6.90559">
        <ele>451</ele>
        <time>2016-10-30T08:56:41.000Z</time>
      </trkpt>
      <trkpt lat="47.46224" lon="6.9056">
        <ele>451</ele>
        <time>2016-10-30T08:56:42.000Z</time>
      </trkpt>
      <trkpt lat="47.46221" lon="6.90562">
        <ele>451</ele>
        <time>2016-10-30T08:56:43.000Z</time>
      </trkpt>
      <trkpt lat="47.46218" lon="6.90563">
        <ele>451</ele>
        <time>2016-10-30T08:56:44.000Z</time>
      </trkpt>
      <trkpt lat="47.46216" lon="6.90564">
        <ele>451</ele>
        <time>2016-10-30T08:56:45.000Z</time>
      </trkpt>
      <trkpt lat="47.46214" lon="6.90565">
        <ele>451</ele>
        <time>2016-10-30T08:56:46.000Z</time>
      </trkpt>
      <trkpt lat="47.4621" lon="6.90566">
        <ele>451</ele>
        <time>2016-10-30T08:56:48.000Z</time>
      </trkpt>
      <trkpt lat="47.46208" lon="6.90567">
        <ele>451</ele>
        <time>2016-10-30T08:56:49.000Z</time>
      </trkpt>
      <trkpt lat="47.46204" lon="6.90569">
        <ele>451</ele>
        <time>2016-10-30T08:56:52.000Z</time>
      </trkpt>
      <trkpt lat="47.46202" lon="6.9057">
        <ele>451</ele>
        <time>2016-10-30T08:56:53.000Z</time>
      </trkpt>
      <trkpt lat="47.462" lon="6.90572">
        <ele>451</ele>
        <time>2016-10-30T08:56:54.000Z</time>
      </trkpt>
      <trkpt lat="47.46197" lon="6.90575">
        <ele>451</ele>
        <time>2016-10-30T08:56:55.000Z</time>
      </trkpt>
      <trkpt lat="47.46194" lon="6.90578">
        <ele>451</ele>
        <time>2016-10-30T08:56:56.000Z</time>
      </trkpt>
      <trkpt lat="47.46191" lon="6.90582">
        <ele>451</ele>
        <time>2016-10-30T08:56:57.000Z</time>
      </trkpt>
      <trkpt lat="47.46187" lon="6.90584">
        <ele>454</ele>
        <time>2016-10-30T08:56:58.000Z</time>
      </trkpt>
      <trkpt lat="47.46183" lon="6.90587">
        <ele>454</ele>
        <time>2016-10-30T08:56:59.000Z</time>
      </trkpt>
      <trkpt lat="47.4618" lon="6.9059">
        <ele>454</ele>
        <time>2016-10-30T08:57:00.000Z</time>
      </trkpt>
      <trkpt lat="47.46176" lon="6.90593">
        <ele>454</ele>
        <time>2016-10-30T08:57:01.000Z</time>
      </trkpt>
      <trkpt lat="47.46174" lon="6.90596">
        <ele>454</ele>
        <time>2016-10-30T08:57:02.000Z</time>
      </trkpt>
      <trkpt lat="47.46171" lon="6.906">
        <ele>454</ele>
        <time>2016-10-30T08:57:03.000Z</time>
      </trkpt>
      <trkpt lat="47.46169" lon="6.90604">
        <ele>455</ele>
        <time>2016-10-30T08:57:04.000Z</time>
      </trkpt>
      <trkpt lat="47.46166" lon="6.90609">
        <ele>454</ele>
        <time>2016-10-30T08:57:05.000Z</time>
      </trkpt>
      <trkpt lat="47.46163" lon="6.90614">
        <ele>454</ele>
        <time>2016-10-30T08:57:06.000Z</time>
      </trkpt>
      <trkpt lat="47.4616" lon="6.90619">
        <ele>455</ele>
        <time>2016-10-30T08:57:07.000Z</time>
      </trkpt>
      <trkpt lat="47.46157" lon="6.90628">
        <ele>455</ele>
        <time>2016-10-30T08:57:08.000Z</time>
      </trkpt>
      <trkpt lat="47.46154" lon="6.90632">
        <ele>455</ele>
        <time>2016-10-30T08:57:09.000Z</time>
      </trkpt>
      <trkpt lat="47.46151" lon="6.90636">
        <ele>456</ele>
        <time>2016-10-30T08:57:10.000Z</time>
      </trkpt>
      <trkpt lat="47.46149" lon="6.90639">
        <ele>456</ele>
        <time>2016-10-30T08:57:11.000Z</time>
      </trkpt>
      <trkpt lat="47.46138" lon="6.90641">
        <ele>455</ele>
        <time>2016-10-30T08:57:12.000Z</time>
      </trkpt>
      <trkpt lat="47.46136" lon="6.90646">
        <ele>456</ele>
        <time>2016-10-30T08:57:13.000Z</time>
      </trkpt>
      <trkpt lat="47.46135" lon="6.90647">
        <ele>456</ele>
        <time>2016-10-30T08:57:14.000Z</time>
      </trkpt>
      <trkpt lat="47.46134" lon="6.90651">
        <ele>456</ele>
        <time>2016-10-30T08:57:16.000Z</time>
      </trkpt>
      <trkpt lat="47.46133" lon="6.90655">
        <ele>456</ele>
        <time>2016-10-30T08:57:17.000Z</time>
      </trkpt>
      <trkpt lat="47.4613" lon="6.90658">
        <ele>456</ele>
        <time>2016-10-30T08:57:18.000Z</time>
      </trkpt>
      <trkpt lat="47.46128" lon="6.90662">
        <ele>455</ele>
        <time>2016-10-30T08:57:19.000Z</time>
      </trkpt>
      <trkpt lat="47.46124" lon="6.90668">
        <ele>458</ele>
        <time>2016-10-30T08:57:20.000Z</time>
      </trkpt>
      <trkpt lat="47.46123" lon="6.90672">
        <ele>458</ele>
        <time>2016-10-30T08:57:21.000Z</time>
      </trkpt>
      <trkpt lat="47.4612" lon="6.90677">
        <ele>458</ele>
        <time>2016-10-30T08:57:22.000Z</time>
      </trkpt>
      <trkpt lat="47.46118" lon="6.90683">
        <ele>458</ele>
        <time>2016-10-30T08:57:23.000Z</time>
      </trkpt>
      <trkpt lat="47.46115" lon="6.90688">
        <ele>458</ele>
        <time>2016-10-30T08:57:24.000Z</time>
      </trkpt>
      <trkpt lat="47.46112" lon="6.90692">
        <ele>458</ele>
        <time>2016-10-30T08:57:25.000Z</time>
      </trkpt>
      <trkpt lat="47.46109" lon="6.90697">
        <ele>458</ele>
        <time>2016-10-30T08:57:26.000Z</time>
      </trkpt>
      <trkpt lat="47.46106" lon="6.90703">
        <ele>458</ele>
        <time>2016-10-30T08:57:27.000Z</time>
      </trkpt>
      <trkpt lat="47.46103" lon="6.90709">
        <ele>458</ele>
        <time>2016-10-30T08:57:28.000Z</time>
      </trkpt>
      <trkpt lat="47.461" lon="6.90715">
        <ele>458</ele>
        <time>2016-10-30T08:57:29.000Z</time>
      </trkpt>
      <trkpt lat="47.46096" lon="6.90721">
        <ele>458</ele>
        <time>2016-10-30T08:57:30.000Z</time>
      </trkpt>
      <trkpt lat="47.46092" lon="6.90728">
        <ele>458</ele>
        <time>2016-10-30T08:57:31.000Z</time>
      </trkpt>
      <trkpt lat="47.46088" lon="6.90731">
        <ele>458</ele>
        <time>2016-10-30T08:57:32.000Z</time>
      </trkpt>
      <trkpt lat="47.46088" lon="6.9074">
        <ele>458</ele>
        <time>2016-10-30T08:57:33.000Z</time>
      </trkpt>
      <trkpt lat="47.46087" lon="6.90748">
        <ele>457</ele>
        <time>2016-10-30T08:57:34.000Z</time>
      </trkpt>
      <trkpt lat="47.46085" lon="6.90754">
        <ele>459</ele>
        <time>2016-10-30T08:57:35.000Z</time>
      </trkpt>
      <trkpt lat="47.46086" lon="6.9076">
        <ele>460</ele>
        <time>2016-10-30T08:57:36.000Z</time>
      </trkpt>
      <trkpt lat="47.46086" lon="6.90766">
        <ele>461</ele>
        <time>2016-10-30T08:57:37.000Z</time>
      </trkpt>
      <trkpt lat="47.46081" lon="6.90771">
        <ele>463</ele>
        <time>2016-10-30T08:57:38.000Z</time>
      </trkpt>
      <trkpt lat="47.46079" lon="6.90778">
        <ele>464</ele>
        <time>2016-10-30T08:57:39.000Z</time>
      </trkpt>
      <trkpt lat="47.46077" lon="6.90783">
        <ele>465</ele>
        <time>2016-10-30T08:57:40.000Z</time>
      </trkpt>
      <trkpt lat="47.46077" lon="6.90788">
        <ele>465</ele>
        <time>2016-10-30T08:57:41.000Z</time>
      </trkpt>
      <trkpt lat="47.46073" lon="6.90793">
        <ele>466</ele>
        <time>2016-10-30T08:57:42.000Z</time>
      </trkpt>
      <trkpt lat="47.46071" lon="6.90798">
        <ele>466</ele>
        <time>2016-10-30T08:57:43.000Z</time>
      </trkpt>
      <trkpt lat="47.4607" lon="6.90803">
        <ele>467</ele>
        <time>2016-10-30T08:57:44.000Z</time>
      </trkpt>
      <trkpt lat="47.46068" lon="6.90809">
        <ele>467</ele>
        <time>2016-10-30T08:57:45.000Z</time>
      </trkpt>
      <trkpt lat="47.46067" lon="6.90815">
        <ele>467</ele>
        <time>2016-10-30T08:57:46.000Z</time>
      </trkpt>
      <trkpt lat="47.46066" lon="6.9082">
        <ele>467</ele>
        <time>2016-10-30T08:57:47.000Z</time>
      </trkpt>
      <trkpt lat="47.46066" lon="6.90825">
        <ele>467</ele>
        <time>2016-10-30T08:57:48.000Z</time>
      </trkpt>
      <trkpt lat="47.46065" lon="6.90829">
        <ele>467</ele>
        <time>2016-10-30T08:57:49.000Z</time>
      </trkpt>
      <trkpt lat="47.46064" lon="6.90834">
        <ele>470</ele>
        <time>2016-10-30T08:57:50.000Z</time>
      </trkpt>
      <trkpt lat="47.46062" lon="6.90839">
        <ele>470</ele>
        <time>2016-10-30T08:57:51.000Z</time>
      </trkpt>
      <trkpt lat="47.4606" lon="6.90844">
        <ele>470</ele>
        <time>2016-10-30T08:57:52.000Z</time>
      </trkpt>
      <trkpt lat="47.46058" lon="6.90849">
        <ele>471</ele>
        <time>2016-10-30T08:57:53.000Z</time>
      </trkpt>
      <trkpt lat="47.46057" lon="6.90854">
        <ele>471</ele>
        <time>2016-10-30T08:57:54.000Z</time>
      </trkpt>
      <trkpt lat="47.46055" lon="6.90859">
        <ele>471</ele>
        <time>2016-10-30T08:57:55.000Z</time>
      </trkpt>
      <trkpt lat="47.46054" lon="6.90864">
        <ele>471</ele>
        <time>2016-10-30T08:57:56.000Z</time>
      </trkpt>
      <trkpt lat="47.46052" lon="6.90869">
        <ele>471</ele>
        <time>2016-10-30T08:57:57.000Z</time>
      </trkpt>
      <trkpt lat="47.4605" lon="6.90874">
        <ele>472</ele>
        <time>2016-10-30T08:57:58.000Z</time>
      </trkpt>
      <trkpt lat="47.46048" lon="6.90878">
        <ele>472</ele>
        <time>2016-10-30T08:57:59.000Z</time>
      </trkpt>
      <trkpt lat="47.46046" lon="6.90882">
        <ele>472</ele>
        <time>2016-10-30T08:58:00.000Z</time>
      </trkpt>
      <trkpt lat="47.46044" lon="6.90886">
        <ele>472</ele>
        <time>2016-10-30T08:58:01.000Z</time>
      </trkpt>
      <trkpt lat="47.46042" lon="6.9089">
        <ele>472</ele>
        <time>2016-10-30T08:58:02.000Z</time>
      </trkpt>
      <trkpt lat="47.4604" lon="6.90893">
        <ele>472</ele>
        <time>2016-10-30T08:58:03.000Z</time>
      </trkpt>
      <trkpt lat="47.46038" lon="6.90897">
        <ele>472</ele>
        <time>2016-10-30T08:58:04.000Z</time>
      </trkpt>
      <trkpt lat="47.46036" lon="6.90901">
        <ele>472</ele>
        <time>2016-10-30T08:58:05.000Z</time>
      </trkpt>
      <trkpt lat="47.46035" lon="6.90904">
        <ele>472</ele>
        <time>2016-10-30T08:58:06.000Z</time>
      </trkpt>
      <trkpt lat="47.46033" lon="6.90906">
        <ele>472</ele>
        <time>2016-10-30T08:58:07.000Z</time>
      </trkpt>
      <trkpt lat="47.46031" lon="6.90908">
        <ele>472</ele>
        <time>2016-10-30T08:58:08.000Z</time>
      </trkpt>
      <trkpt lat="47.46027" lon="6.9091">
        <ele>472</ele>
        <time>2016-10-30T08:58:11.000Z</time>
      </trkpt>
      <trkpt lat="47.46026" lon="6.90909">
        <ele>472</ele>
        <time>2016-10-30T08:58:12.000Z</time>
      </trkpt>
      <trkpt lat="47.46024" lon="6.90903">
        <ele>472</ele>
        <time>2016-10-30T08:58:16.000Z</time>
      </trkpt>
      <trkpt lat="47.46023" lon="6.90903">
        <ele>472</ele>
        <time>2016-10-30T08:58:17.000Z</time>
      </trkpt>
      <trkpt lat="47.46019" lon="6.90902">
        <ele>472</ele>
        <time>2016-10-30T08:58:20.000Z</time>
      </trkpt>
      <trkpt lat="47.46018" lon="6.90902">
        <ele>472</ele>
        <time>2016-10-30T08:58:21.000Z</time>
      </trkpt>
      <trkpt lat="47.46014" lon="6.909">
        <ele>472</ele>
        <time>2016-10-30T08:58:30.000Z</time>
      </trkpt>
      <trkpt lat="47.46013" lon="6.909">
        <ele>472</ele>
        <time>2016-10-30T08:58:31.000Z</time>
      </trkpt>
      <trkpt lat="47.4601" lon="6.90896">
        <ele>472</ele>
        <time>2016-10-30T08:58:36.000Z</time>
      </trkpt>
      <trkpt lat="47.46009" lon="6.90895">
        <ele>472</ele>
        <time>2016-10-30T08:58:37.000Z</time>
      </trkpt>
      <trkpt lat="47.46006" lon="6.90891">
        <ele>472</ele>
        <time>2016-10-30T08:58:41.000Z</time>
      </trkpt>
      <trkpt lat="47.46005" lon="6.90891">
        <ele>472</ele>
        <time>2016-10-30T08:58:42.000Z</time>
      </trkpt>
      <trkpt lat="47.46002" lon="6.90888">
        <ele>472</ele>
        <time>2016-10-30T08:58:47.000Z</time>
      </trkpt>
      <trkpt lat="47.46001" lon="6.90886">
        <ele>472</ele>
        <time>2016-10-30T08:58:48.000Z</time>
      </trkpt>
      <trkpt lat="47.46" lon="6.9088">
        <ele>472</ele>
        <time>2016-10-30T08:58:50.000Z</time>
      </trkpt>
      <trkpt lat="47.46" lon="6.90877">
        <ele>481</ele>
        <time>2016-10-30T08:58:51.000Z</time>
      </trkpt>
      <trkpt lat="47.45999" lon="6.90873">
        <ele>481</ele>
        <time>2016-10-30T08:58:53.000Z</time>
      </trkpt>
      <trkpt lat="47.45998" lon="6.90871">
        <ele>481</ele>
        <time>2016-10-30T08:58:54.000Z</time>
      </trkpt>
      <trkpt lat="47.45997" lon="6.90866">
        <ele>481</ele>
        <time>2016-10-30T08:58:57.000Z</time>
      </trkpt>
      <trkpt lat="47.45996" lon="6.90864">
        <ele>481</ele>
        <time>2016-10-30T08:58:58.000Z</time>
      </trkpt>
      <trkpt lat="47.45995" lon="6.90858">
        <ele>481</ele>
        <time>2016-10-30T08:59:01.000Z</time>
      </trkpt>
      <trkpt lat="47.45995" lon="6.90856">
        <ele>481</ele>
        <time>2016-10-30T08:59:02.000Z</time>
      </trkpt>
      <trkpt lat="47.45993" lon="6.90851">
        <ele>480</ele>
        <time>2016-10-30T08:59:06.000Z</time>
      </trkpt>
      <trkpt lat="47.45993" lon="6.90849">
        <ele>480</ele>
        <time>2016-10-30T08:59:07.000Z</time>
      </trkpt>
      <trkpt lat="47.45993" lon="6.90843">
        <ele>478</ele>
        <time>2016-10-30T08:59:12.000Z</time>
      </trkpt>
      <trkpt lat="47.45993" lon="6.90842">
        <ele>478</ele>
        <time>2016-10-30T08:59:13.000Z</time>
      </trkpt>
      <trkpt lat="47.45991" lon="6.90836">
        <ele>478</ele>
        <time>2016-10-30T08:59:17.000Z</time>
      </trkpt>
      <trkpt lat="47.45991" lon="6.90835">
        <ele>478</ele>
        <time>2016-10-30T08:59:18.000Z</time>
      </trkpt>
      <trkpt lat="47.4599" lon="6.9083">
        <ele>477</ele>
        <time>2016-10-30T08:59:21.000Z</time>
      </trkpt>
      <trkpt lat="47.45989" lon="6.90828">
        <ele>477</ele>
        <time>2016-10-30T08:59:22.000Z</time>
      </trkpt>
      <trkpt lat="47.45987" lon="6.90822">
        <ele>478</ele>
        <time>2016-10-30T08:59:26.000Z</time>
      </trkpt>
      <trkpt lat="47.45987" lon="6.90822">
        <ele>478</ele>
        <time>2016-10-30T08:59:27.000Z</time>
      </trkpt>
      <trkpt lat="47.45986" lon="6.90816">
        <ele>479</ele>
        <time>2016-10-30T08:59:31.000Z</time>
      </trkpt>
      <trkpt lat="47.45985" lon="6.90814">
        <ele>479</ele>
        <time>2016-10-30T08:59:32.000Z</time>
      </trkpt>
      <trkpt lat="47.45984" lon="6.90809">
        <ele>480</ele>
        <time>2016-10-30T08:59:34.000Z</time>
      </trkpt>
      <trkpt lat="47.45983" lon="6.90807">
        <ele>480</ele>
        <time>2016-10-30T08:59:35.000Z</time>
      </trkpt>
      <trkpt lat="47.45982" lon="6.90802">
        <ele>480</ele>
        <time>2016-10-30T08:59:37.000Z</time>
      </trkpt>
      <trkpt lat="47.45981" lon="6.908">
        <ele>480</ele>
        <time>2016-10-30T08:59:38.000Z</time>
      </trkpt>
      <trkpt lat="47.45979" lon="6.90796">
        <ele>480</ele>
        <time>2016-10-30T08:59:40.000Z</time>
      </trkpt>
      <trkpt lat="47.45979" lon="6.90794">
        <ele>480</ele>
        <time>2016-10-30T08:59:41.000Z</time>
      </trkpt>
      <trkpt lat="47.45977" lon="6.9079">
        <ele>480</ele>
        <time>2016-10-30T08:59:43.000Z</time>
      </trkpt>
      <trkpt lat="47.45976" lon="6.90788">
        <ele>480</ele>
        <time>2016-10-30T08:59:44.000Z</time>
      </trkpt>
      <trkpt lat="47.45974" lon="6.90782">
        <ele>480</ele>
        <time>2016-10-30T08:59:46.000Z</time>
      </trkpt>
      <trkpt lat="47.45974" lon="6.90779">
        <ele>480</ele>
        <time>2016-10-30T08:59:47.000Z</time>
      </trkpt>
      <trkpt lat="47.45973" lon="6.90775">
        <ele>480</ele>
        <time>2016-10-30T08:59:48.000Z</time>
      </trkpt>
      <trkpt lat="47.45972" lon="6.90771">
        <ele>480</ele>
        <time>2016-10-30T08:59:49.000Z</time>
      </trkpt>
      <trkpt lat="47.45972" lon="6.90767">
        <ele>480</ele>
        <time>2016-10-30T08:59:50.000Z</time>
      </trkpt>
      <trkpt lat="47.45971" lon="6.90763">
        <ele>480</ele>
        <time>2016-10-30T08:59:51.000Z</time>
      </trkpt>
      <trkpt lat="47.45969" lon="6.90757">
        <ele>480</ele>
        <time>2016-10-30T08:59:53.000Z</time>
      </trkpt>
      <trkpt lat="47.45969" lon="6.90755">
        <ele>480</ele>
        <time>2016-10-30T08:59:54.000Z</time>
      </trkpt>
      <trkpt lat="47.45966" lon="6.90751">
        <ele>480</ele>
        <time>2016-10-30T08:59:56.000Z</time>
      </trkpt>
      <trkpt lat="47.45965" lon="6.9075">
        <ele>481</ele>
        <time>2016-10-30T08:59:57.000Z</time>
      </trkpt>
      <trkpt lat="47.45961" lon="6.90746">
        <ele>479</ele>
        <time>2016-10-30T09:00:01.000Z</time>
      </trkpt>
      <trkpt lat="47.45961" lon="6.90745">
        <ele>479</ele>
        <time>2016-10-30T09:00:02.000Z</time>
      </trkpt>
      <trkpt lat="47.45958" lon="6.9074">
        <ele>480</ele>
        <time>2016-10-30T09:00:08.000Z</time>
      </trkpt>
      <trkpt lat="47.45958" lon="6.90739">
        <ele>480</ele>
        <time>2016-10-30T09:00:09.000Z</time>
      </trkpt>
      <trkpt lat="47.45955" lon="6.90736">
        <ele>480</ele>
        <time>2016-10-30T09:00:12.000Z</time>
      </trkpt>
      <trkpt lat="47.45954" lon="6.90734">
        <ele>480</ele>
        <time>2016-10-30T09:00:13.000Z</time>
      </trkpt>
      <trkpt lat="47.45952" lon="6.90729">
        <ele>480</ele>
        <time>2016-10-30T09:00:16.000Z</time>
      </trkpt>
      <trkpt lat="47.45952" lon="6.90728">
        <ele>480</ele>
        <time>2016-10-30T09:00:17.000Z</time>
      </trkpt>
      <trkpt lat="47.45948" lon="6.90725">
        <ele>480</ele>
        <time>2016-10-30T09:00:20.000Z</time>
      </trkpt>
      <trkpt lat="47.45947" lon="6.90725">
        <ele>481</ele>
        <time>2016-10-30T09:00:21.000Z</time>
      </trkpt>
      <trkpt lat="47.45943" lon="6.90724">
        <ele>481</ele>
        <time>2016-10-30T09:00:23.000Z</time>
      </trkpt>
      <trkpt lat="47.45942" lon="6.90724">
        <ele>481</ele>
        <time>2016-10-30T09:00:24.000Z</time>
      </trkpt>
      <trkpt lat="47.45937" lon="6.90724">
        <ele>481</ele>
        <time>2016-10-30T09:00:27.000Z</time>
      </trkpt>
      <trkpt lat="47.45936" lon="6.90725">
        <ele>482</ele>
        <time>2016-10-30T09:00:28.000Z</time>
      </trkpt>
      <trkpt lat="47.45933" lon="6.90726">
        <ele>482</ele>
        <time>2016-10-30T09:00:30.000Z</time>
      </trkpt>
      <trkpt lat="47.45931" lon="6.90726">
        <ele>482</ele>
        <time>2016-10-30T09:00:31.000Z</time>
      </trkpt>
      <trkpt lat="47.45928" lon="6.90727">
        <ele>483</ele>
        <time>2016-10-30T09:00:33.000Z</time>
      </trkpt>
      <trkpt lat="47.45927" lon="6.90728">
        <ele>483</ele>
        <time>2016-10-30T09:00:34.000Z</time>
      </trkpt>
      <trkpt lat="47.45924" lon="6.90732">
        <ele>483</ele>
        <time>2016-10-30T09:00:38.000Z</time>
      </trkpt>
      <trkpt lat="47.45923" lon="6.90733">
        <ele>484</ele>
        <time>2016-10-30T09:00:39.000Z</time>
      </trkpt>
      <trkpt lat="47.45919" lon="6.90736">
        <ele>484</ele>
        <time>2016-10-30T09:00:42.000Z</time>
      </trkpt>
      <trkpt lat="47.45918" lon="6.90737">
        <ele>485</ele>
        <time>2016-10-30T09:00:43.000Z</time>
      </trkpt>
      <trkpt lat="47.45915" lon="6.90741">
        <ele>488</ele>
        <time>2016-10-30T09:00:46.000Z</time>
      </trkpt>
      <trkpt lat="47.45914" lon="6.90742">
        <ele>488</ele>
        <time>2016-10-30T09:00:47.000Z</time>
      </trkpt>
      <trkpt lat="47.45911" lon="6.90745">
        <ele>488</ele>
        <time>2016-10-30T09:00:50.000Z</time>
      </trkpt>
      <trkpt lat="47.4591" lon="6.90746">
        <ele>488</ele>
        <time>2016-10-30T09:00:51.000Z</time>
      </trkpt>
      <trkpt lat="47.45908" lon="6.9075">
        <ele>490</ele>
        <time>2016-10-30T09:00:54.000Z</time>
      </trkpt>
      <trkpt lat="47.45907" lon="6.90752">
        <ele>490</ele>
        <time>2016-10-30T09:00:55.000Z</time>
      </trkpt>
      <trkpt lat="47.45906" lon="6.90757">
        <ele>491</ele>
        <time>2016-10-30T09:00:57.000Z</time>
      </trkpt>
      <trkpt lat="47.45905" lon="6.90759">
        <ele>491</ele>
        <time>2016-10-30T09:00:58.000Z</time>
      </trkpt>
      <trkpt lat="47.45903" lon="6.90764">
        <ele>492</ele>
        <time>2016-10-30T09:01:01.000Z</time>
      </trkpt>
      <trkpt lat="47.45903" lon="6.90766">
        <ele>492</ele>
        <time>2016-10-30T09:01:02.000Z</time>
      </trkpt>
      <trkpt lat="47.45901" lon="6.90769">
        <ele>493</ele>
        <time>2016-10-30T09:01:04.000Z</time>
      </trkpt>
      <trkpt lat="47.45899" lon="6.90771">
        <ele>493</ele>
        <time>2016-10-30T09:01:05.000Z</time>
      </trkpt>
      <trkpt lat="47.45897" lon="6.90774">
        <ele>493</ele>
        <time>2016-10-30T09:01:07.000Z</time>
      </trkpt>
      <trkpt lat="47.45896" lon="6.90776">
        <ele>494</ele>
        <time>2016-10-30T09:01:08.000Z</time>
      </trkpt>
      <trkpt lat="47.45894" lon="6.9078">
        <ele>494</ele>
        <time>2016-10-30T09:01:10.000Z</time>
      </trkpt>
      <trkpt lat="47.45893" lon="6.90782">
        <ele>494</ele>
        <time>2016-10-30T09:01:11.000Z</time>
      </trkpt>
      <trkpt lat="47.4589" lon="6.90785">
        <ele>494</ele>
        <time>2016-10-30T09:01:13.000Z</time>
      </trkpt>
      <trkpt lat="47.45889" lon="6.90787">
        <ele>494</ele>
        <time>2016-10-30T09:01:14.000Z</time>
      </trkpt>
      <trkpt lat="47.45888" lon="6.90791">
        <ele>495</ele>
        <time>2016-10-30T09:01:16.000Z</time>
      </trkpt>
      <trkpt lat="47.45887" lon="6.90794">
        <ele>495</ele>
        <time>2016-10-30T09:01:17.000Z</time>
      </trkpt>
      <trkpt lat="47.45886" lon="6.90798">
        <ele>495</ele>
        <time>2016-10-30T09:01:19.000Z</time>
      </trkpt>
      <trkpt lat="47.45885" lon="6.908">
        <ele>495</ele>
        <time>2016-10-30T09:01:20.000Z</time>
      </trkpt>
      <trkpt lat="47.45883" lon="6.90804">
        <ele>495</ele>
        <time>2016-10-30T09:01:22.000Z</time>
      </trkpt>
      <trkpt lat="47.45882" lon="6.90807">
        <ele>496</ele>
        <time>2016-10-30T09:01:23.000Z</time>
      </trkpt>
      <trkpt lat="47.45879" lon="6.9081">
        <ele>496</ele>
        <time>2016-10-30T09:01:25.000Z</time>
      </trkpt>
      <trkpt lat="47.45878" lon="6.90812">
        <ele>496</ele>
        <time>2016-10-30T09:01:26.000Z</time>
      </trkpt>
      <trkpt lat="47.45876" lon="6.90815">
        <ele>496</ele>
        <time>2016-10-30T09:01:28.000Z</time>
      </trkpt>
      <trkpt lat="47.45875" lon="6.90816">
        <ele>496</ele>
        <time>2016-10-30T09:01:29.000Z</time>
      </trkpt>
      <trkpt lat="47.45872" lon="6.90821">
        <ele>496</ele>
        <time>2016-10-30T09:01:32.000Z</time>
      </trkpt>
      <trkpt lat="47.45871" lon="6.90824">
        <ele>496</ele>
        <time>2016-10-30T09:01:33.000Z</time>
      </trkpt>
      <trkpt lat="47.4587" lon="6.90828">
        <ele>497</ele>
        <time>2016-10-30T09:01:35.000Z</time>
      </trkpt>
      <trkpt lat="47.45869" lon="6.9083">
        <ele>497</ele>
        <time>2016-10-30T09:01:36.000Z</time>
      </trkpt>
      <trkpt lat="47.45867" lon="6.90833">
        <ele>497</ele>
        <time>2016-10-30T09:01:38.000Z</time>
      </trkpt>
      <trkpt lat="47.45867" lon="6.90835">
        <ele>501</ele>
        <time>2016-10-30T09:01:39.000Z</time>
      </trkpt>
      <trkpt lat="47.45865" lon="6.90838">
        <ele>502</ele>
        <time>2016-10-30T09:01:41.000Z</time>
      </trkpt>
      <trkpt lat="47.45863" lon="6.9084">
        <ele>502</ele>
        <time>2016-10-30T09:01:42.000Z</time>
      </trkpt>
      <trkpt lat="47.45862" lon="6.90844">
        <ele>502</ele>
        <time>2016-10-30T09:01:44.000Z</time>
      </trkpt>
      <trkpt lat="47.45861" lon="6.90846">
        <ele>502</ele>
        <time>2016-10-30T09:01:45.000Z</time>
      </trkpt>
      <trkpt lat="47.45857" lon="6.90848">
        <ele>502</ele>
        <time>2016-10-30T09:01:48.000Z</time>
      </trkpt>
      <trkpt lat="47.45857" lon="6.9085">
        <ele>502</ele>
        <time>2016-10-30T09:01:49.000Z</time>
      </trkpt>
      <trkpt lat="47.45855" lon="6.90855">
        <ele>502</ele>
        <time>2016-10-30T09:01:53.000Z</time>
      </trkpt>
      <trkpt lat="47.45854" lon="6.90856">
        <ele>502</ele>
        <time>2016-10-30T09:01:54.000Z</time>
      </trkpt>
      <trkpt lat="47.45851" lon="6.9086">
        <ele>503</ele>
        <time>2016-10-30T09:01:57.000Z</time>
      </trkpt>
      <trkpt lat="47.4585" lon="6.90862">
        <ele>503</ele>
        <time>2016-10-30T09:01:58.000Z</time>
      </trkpt>
      <trkpt lat="47.45847" lon="6.90866">
        <ele>503</ele>
        <time>2016-10-30T09:02:01.000Z</time>
      </trkpt>
      <trkpt lat="47.45846" lon="6.90867">
        <ele>503</ele>
        <time>2016-10-30T09:02:02.000Z</time>
      </trkpt>
      <trkpt lat="47.45844" lon="6.90871">
        <ele>504</ele>
        <time>2016-10-30T09:02:04.000Z</time>
      </trkpt>
      <trkpt lat="47.45844" lon="6.90874">
        <ele>504</ele>
        <time>2016-10-30T09:02:05.000Z</time>
      </trkpt>
      <trkpt lat="47.45843" lon="6.9088">
        <ele>504</ele>
        <time>2016-10-30T09:02:07.000Z</time>
      </trkpt>
      <trkpt lat="47.45842" lon="6.90882">
        <ele>505</ele>
        <time>2016-10-30T09:02:08.000Z</time>
      </trkpt>
      <trkpt lat="47.45839" lon="6.90885">
        <ele>505</ele>
        <time>2016-10-30T09:02:11.000Z</time>
      </trkpt>
      <trkpt lat="47.45839" lon="6.90887">
        <ele>505</ele>
        <time>2016-10-30T09:02:12.000Z</time>
      </trkpt>
      <trkpt lat="47.45839" lon="6.90893">
        <ele>506</ele>
        <time>2016-10-30T09:02:16.000Z</time>
      </trkpt>
      <trkpt lat="47.45838" lon="6.90895">
        <ele>506</ele>
        <time>2016-10-30T09:02:17.000Z</time>
      </trkpt>
      <trkpt lat="47.45837" lon="6.90899">
        <ele>507</ele>
        <time>2016-10-30T09:02:19.000Z</time>
      </trkpt>
      <trkpt lat="47.45836" lon="6.90901">
        <ele>508</ele>
        <time>2016-10-30T09:02:20.000Z</time>
      </trkpt>
      <trkpt lat="47.45835" lon="6.90906">
        <ele>509</ele>
        <time>2016-10-30T09:02:23.000Z</time>
      </trkpt>
      <trkpt lat="47.45834" lon="6.90907">
        <ele>509</ele>
        <time>2016-10-30T09:02:24.000Z</time>
      </trkpt>
      <trkpt lat="47.45831" lon="6.90911">
        <ele>512</ele>
        <time>2016-10-30T09:02:27.000Z</time>
      </trkpt>
      <trkpt lat="47.4583" lon="6.90913">
        <ele>512</ele>
        <time>2016-10-30T09:02:28.000Z</time>
      </trkpt>
      <trkpt lat="47.45827" lon="6.90916">
        <ele>512</ele>
        <time>2016-10-30T09:02:30.000Z</time>
      </trkpt>
      <trkpt lat="47.45826" lon="6.90917">
        <ele>514</ele>
        <time>2016-10-30T09:02:31.000Z</time>
      </trkpt>
      <trkpt lat="47.45823" lon="6.9092">
        <ele>514</ele>
        <time>2016-10-30T09:02:33.000Z</time>
      </trkpt>
      <trkpt lat="47.45821" lon="6.9092">
        <ele>514</ele>
        <time>2016-10-30T09:02:34.000Z</time>
      </trkpt>
      <trkpt lat="47.45818" lon="6.90922">
        <ele>515</ele>
        <time>2016-10-30T09:02:36.000Z</time>
      </trkpt>
      <trkpt lat="47.45816" lon="6.90922">
        <ele>515</ele>
        <time>2016-10-30T09:02:37.000Z</time>
      </trkpt>
      <trkpt lat="47.45813" lon="6.90924">
        <ele>515</ele>
        <time>2016-10-30T09:02:39.000Z</time>
      </trkpt>
      <trkpt lat="47.45812" lon="6.90925">
        <ele>515</ele>
        <time>2016-10-30T09:02:40.000Z</time>
      </trkpt>
      <trkpt lat="47.45811" lon="6.90931">
        <ele>516</ele>
        <time>2016-10-30T09:02:44.000Z</time>
      </trkpt>
      <trkpt lat="47.4581" lon="6.90933">
        <ele>516</ele>
        <time>2016-10-30T09:02:45.000Z</time>
      </trkpt>
      <trkpt lat="47.45808" lon="6.90936">
        <ele>516</ele>
        <time>2016-10-30T09:02:47.000Z</time>
      </trkpt>
      <trkpt lat="47.45806" lon="6.90938">
        <ele>516</ele>
        <time>2016-10-30T09:02:48.000Z</time>
      </trkpt>
      <trkpt lat="47.45803" lon="6.9094">
        <ele>517</ele>
        <time>2016-10-30T09:02:50.000Z</time>
      </trkpt>
      <trkpt lat="47.45801" lon="6.90941">
        <ele>517</ele>
        <time>2016-10-30T09:02:51.000Z</time>
      </trkpt>
      <trkpt lat="47.45798" lon="6.90942">
        <ele>517</ele>
        <time>2016-10-30T09:02:52.000Z</time>
      </trkpt>
      <trkpt lat="47.45796" lon="6.90943">
        <ele>517</ele>
        <time>2016-10-30T09:02:53.000Z</time>
      </trkpt>
      <trkpt lat="47.45793" lon="6.90946">
        <ele>517</ele>
        <time>2016-10-30T09:02:55.000Z</time>
      </trkpt>
      <trkpt lat="47.45791" lon="6.90948">
        <ele>517</ele>
        <time>2016-10-30T09:02:56.000Z</time>
      </trkpt>
      <trkpt lat="47.45788" lon="6.90951">
        <ele>518</ele>
        <time>2016-10-30T09:02:59.000Z</time>
      </trkpt>
      <trkpt lat="47.45787" lon="6.90952">
        <ele>518</ele>
        <time>2016-10-30T09:03:00.000Z</time>
      </trkpt>
      <trkpt lat="47.45785" lon="6.90954">
        <ele>518</ele>
        <time>2016-10-30T09:03:02.000Z</time>
      </trkpt>
      <trkpt lat="47.45783" lon="6.90956">
        <ele>518</ele>
        <time>2016-10-30T09:03:03.000Z</time>
      </trkpt>
      <trkpt lat="47.45782" lon="6.90958">
        <ele>518</ele>
        <time>2016-10-30T09:03:04.000Z</time>
      </trkpt>
      <trkpt lat="47.4578" lon="6.90961">
        <ele>518</ele>
        <time>2016-10-30T09:03:05.000Z</time>
      </trkpt>
      <trkpt lat="47.45778" lon="6.90963">
        <ele>518</ele>
        <time>2016-10-30T09:03:06.000Z</time>
      </trkpt>
      <trkpt lat="47.45777" lon="6.90966">
        <ele>518</ele>
        <time>2016-10-30T09:03:07.000Z</time>
      </trkpt>
      <trkpt lat="47.45774" lon="6.90969">
        <ele>519</ele>
        <time>2016-10-30T09:03:09.000Z</time>
      </trkpt>
      <trkpt lat="47.45773" lon="6.90971">
        <ele>519</ele>
        <time>2016-10-30T09:03:10.000Z</time>
      </trkpt>
      <trkpt lat="47.4577" lon="6.90973">
        <ele>519</ele>
        <time>2016-10-30T09:03:12.000Z</time>
      </trkpt>
      <trkpt lat="47.45769" lon="6.90975">
        <ele>519</ele>
        <time>2016-10-30T09:03:13.000Z</time>
      </trkpt>
      <trkpt lat="47.45765" lon="6.90978">
        <ele>520</ele>
        <time>2016-10-30T09:03:15.000Z</time>
      </trkpt>
      <trkpt lat="47.45762" lon="6.90979">
        <ele>520</ele>
        <time>2016-10-30T09:03:16.000Z</time>
      </trkpt>
      <trkpt lat="47.4576" lon="6.9098">
        <ele>520</ele>
        <time>2016-10-30T09:03:17.000Z</time>
      </trkpt>
      <trkpt lat="47.45758" lon="6.90981">
        <ele>520</ele>
        <time>2016-10-30T09:03:18.000Z</time>
      </trkpt>
      <trkpt lat="47.45755" lon="6.90983">
        <ele>520</ele>
        <time>2016-10-30T09:03:20.000Z</time>
      </trkpt>
      <trkpt lat="47.45754" lon="6.90985">
        <ele>521</ele>
        <time>2016-10-30T09:03:21.000Z</time>
      </trkpt>
      <trkpt lat="47.4575" lon="6.90988">
        <ele>521</ele>
        <time>2016-10-30T09:03:23.000Z</time>
      </trkpt>
      <trkpt lat="47.45748" lon="6.9099">
        <ele>522</ele>
        <time>2016-10-30T09:03:24.000Z</time>
      </trkpt>
      <trkpt lat="47.45746" lon="6.90994">
        <ele>522</ele>
        <time>2016-10-30T09:03:26.000Z</time>
      </trkpt>
      <trkpt lat="47.45745" lon="6.90996">
        <ele>522</ele>
        <time>2016-10-30T09:03:27.000Z</time>
      </trkpt>
      <trkpt lat="47.45744" lon="6.91">
        <ele>523</ele>
        <time>2016-10-30T09:03:29.000Z</time>
      </trkpt>
      <trkpt lat="47.45743" lon="6.91003">
        <ele>523</ele>
        <time>2016-10-30T09:03:30.000Z</time>
      </trkpt>
      <trkpt lat="47.45741" lon="6.91008">
        <ele>523</ele>
        <time>2016-10-30T09:03:32.000Z</time>
      </trkpt>
      <trkpt lat="47.45739" lon="6.91011">
        <ele>523</ele>
        <time>2016-10-30T09:03:33.000Z</time>
      </trkpt>
      <trkpt lat="47.45736" lon="6.91014">
        <ele>523</ele>
        <time>2016-10-30T09:03:35.000Z</time>
      </trkpt>
      <trkpt lat="47.45734" lon="6.91016">
        <ele>523</ele>
        <time>2016-10-30T09:03:36.000Z</time>
      </trkpt>
      <trkpt lat="47.45731" lon="6.91021">
        <ele>523</ele>
        <time>2016-10-30T09:03:38.000Z</time>
      </trkpt>
      <trkpt lat="47.4573" lon="6.91023">
        <ele>523</ele>
        <time>2016-10-30T09:03:39.000Z</time>
      </trkpt>
      <trkpt lat="47.4573" lon="6.91028">
        <ele>523</ele>
        <time>2016-10-30T09:03:41.000Z</time>
      </trkpt>
      <trkpt lat="47.4573" lon="6.9103">
        <ele>523</ele>
        <time>2016-10-30T09:03:42.000Z</time>
      </trkpt>
      <trkpt lat="47.4573" lon="6.91035">
        <ele>523</ele>
        <time>2016-10-30T09:03:44.000Z</time>
      </trkpt>
      <trkpt lat="47.4573" lon="6.91037">
        <ele>523</ele>
        <time>2016-10-30T09:03:45.000Z</time>
      </trkpt>
      <trkpt lat="47.45729" lon="6.91043">
        <ele>524</ele>
        <time>2016-10-30T09:03:47.000Z</time>
      </trkpt>
      <trkpt lat="47.45729" lon="6.91045">
        <ele>524</ele>
        <time>2016-10-30T09:03:48.000Z</time>
      </trkpt>
      <trkpt lat="47.45729" lon="6.9105">
        <ele>524</ele>
        <time>2016-10-30T09:03:50.000Z</time>
      </trkpt>
      <trkpt lat="47.45729" lon="6.91053">
        <ele>524</ele>
        <time>2016-10-30T09:03:51.000Z</time>
      </trkpt>
      <trkpt lat="47.45727" lon="6.91059">
        <ele>524</ele>
        <time>2016-10-30T09:03:54.000Z</time>
      </trkpt>
      <trkpt lat="47.45727" lon="6.91061">
        <ele>524</ele>
        <time>2016-10-30T09:03:55.000Z</time>
      </trkpt>
      <trkpt lat="47.45726" lon="6.91066">
        <ele>524</ele>
        <time>2016-10-30T09:03:58.000Z</time>
      </trkpt>
      <trkpt lat="47.45725" lon="6.91068">
        <ele>524</ele>
        <time>2016-10-30T09:03:59.000Z</time>
      </trkpt>
      <trkpt lat="47.45722" lon="6.91071">
        <ele>524</ele>
        <time>2016-10-30T09:04:01.000Z</time>
      </trkpt>
      <trkpt lat="47.4572" lon="6.91072">
        <ele>524</ele>
        <time>2016-10-30T09:04:02.000Z</time>
      </trkpt>
      <trkpt lat="47.45718" lon="6.91077">
        <ele>524</ele>
        <time>2016-10-30T09:04:05.000Z</time>
      </trkpt>
      <trkpt lat="47.45718" lon="6.91079">
        <ele>524</ele>
        <time>2016-10-30T09:04:06.000Z</time>
      </trkpt>
      <trkpt lat="47.45716" lon="6.91083">
        <ele>524</ele>
        <time>2016-10-30T09:04:08.000Z</time>
      </trkpt>
      <trkpt lat="47.45715" lon="6.91086">
        <ele>526</ele>
        <time>2016-10-30T09:04:09.000Z</time>
      </trkpt>
      <trkpt lat="47.45713" lon="6.9109">
        <ele>526</ele>
        <time>2016-10-30T09:04:11.000Z</time>
      </trkpt>
      <trkpt lat="47.45711" lon="6.91091">
        <ele>526</ele>
        <time>2016-10-30T09:04:12.000Z</time>
      </trkpt>
      <trkpt lat="47.4571" lon="6.91097">
        <ele>526</ele>
        <time>2016-10-30T09:04:15.000Z</time>
      </trkpt>
      <trkpt lat="47.4571" lon="6.91099">
        <ele>526</ele>
        <time>2016-10-30T09:04:16.000Z</time>
      </trkpt>
      <trkpt lat="47.45709" lon="6.91104">
        <ele>526</ele>
        <time>2016-10-30T09:04:19.000Z</time>
      </trkpt>
      <trkpt lat="47.45708" lon="6.91107">
        <ele>526</ele>
        <time>2016-10-30T09:04:20.000Z</time>
      </trkpt>
      <trkpt lat="47.45707" lon="6.9111">
        <ele>526</ele>
        <time>2016-10-30T09:04:21.000Z</time>
      </trkpt>
      <trkpt lat="47.45706" lon="6.91113">
        <ele>526</ele>
        <time>2016-10-30T09:04:22.000Z</time>
      </trkpt>
      <trkpt lat="47.45705" lon="6.91117">
        <ele>526</ele>
        <time>2016-10-30T09:04:23.000Z</time>
      </trkpt>
      <trkpt lat="47.45705" lon="6.9112">
        <ele>526</ele>
        <time>2016-10-30T09:04:24.000Z</time>
      </trkpt>
      <trkpt lat="47.45704" lon="6.91125">
        <ele>526</ele>
        <time>2016-10-30T09:04:26.000Z</time>
      </trkpt>
      <trkpt lat="47.45704" lon="6.91128">
        <ele>527</ele>
        <time>2016-10-30T09:04:27.000Z</time>
      </trkpt>
      <trkpt lat="47.45705" lon="6.91133">
        <ele>527</ele>
        <time>2016-10-30T09:04:29.000Z</time>
      </trkpt>
      <trkpt lat="47.45704" lon="6.91136">
        <ele>527</ele>
        <time>2016-10-30T09:04:30.000Z</time>
      </trkpt>
      <trkpt lat="47.45703" lon="6.91141">
        <ele>527</ele>
        <time>2016-10-30T09:04:32.000Z</time>
      </trkpt>
      <trkpt lat="47.45702" lon="6.91143">
        <ele>527</ele>
        <time>2016-10-30T09:04:33.000Z</time>
      </trkpt>
      <trkpt lat="47.45699" lon="6.91147">
        <ele>527</ele>
        <time>2016-10-30T09:04:35.000Z</time>
      </trkpt>
      <trkpt lat="47.45698" lon="6.91149">
        <ele>527</ele>
        <time>2016-10-30T09:04:36.000Z</time>
      </trkpt>
      <trkpt lat="47.45697" lon="6.91153">
        <ele>527</ele>
        <time>2016-10-30T09:04:38.000Z</time>
      </trkpt>
      <trkpt lat="47.45697" lon="6.91155">
        <ele>527</ele>
        <time>2016-10-30T09:04:39.000Z</time>
      </trkpt>
      <trkpt lat="47.45696" lon="6.91159">
        <ele>527</ele>
        <time>2016-10-30T09:04:41.000Z</time>
      </trkpt>
      <trkpt lat="47.45696" lon="6.91162">
        <ele>527</ele>
        <time>2016-10-30T09:04:42.000Z</time>
      </trkpt>
      <trkpt lat="47.45695" lon="6.91167">
        <ele>528</ele>
        <time>2016-10-30T09:04:44.000Z</time>
      </trkpt>
      <trkpt lat="47.45695" lon="6.9117">
        <ele>528</ele>
        <time>2016-10-30T09:04:45.000Z</time>
      </trkpt>
      <trkpt lat="47.45694" lon="6.91174">
        <ele>528</ele>
        <time>2016-10-30T09:04:47.000Z</time>
      </trkpt>
      <trkpt lat="47.45693" lon="6.91176">
        <ele>528</ele>
        <time>2016-10-30T09:04:48.000Z</time>
      </trkpt>
      <trkpt lat="47.4569" lon="6.9118">
        <ele>528</ele>
        <time>2016-10-30T09:04:51.000Z</time>
      </trkpt>
      <trkpt lat="47.4569" lon="6.91181">
        <ele>528</ele>
        <time>2016-10-30T09:04:52.000Z</time>
      </trkpt>
      <trkpt lat="47.45689" lon="6.91187">
        <ele>528</ele>
        <time>2016-10-30T09:04:56.000Z</time>
      </trkpt>
      <trkpt lat="47.45688" lon="6.91188">
        <ele>528</ele>
        <time>2016-10-30T09:04:57.000Z</time>
      </trkpt>
      <trkpt lat="47.45691" lon="6.91193">
        <ele>528</ele>
        <time>2016-10-30T09:05:17.000Z</time>
      </trkpt>
      <trkpt lat="47.45691" lon="6.91193">
        <ele>528</ele>
        <time>2016-10-30T09:05:18.000Z</time>
      </trkpt>
      <trkpt lat="47.45695" lon="6.91196">
        <ele>527</ele>
        <time>2016-10-30T09:07:59.000Z</time>
      </trkpt>
      <trkpt lat="47.45695" lon="6.91196">
        <ele>527</ele>
        <time>2016-10-30T09:08:00.000Z</time>
      </trkpt>
      <trkpt lat="47.45698" lon="6.912">
        <ele>527</ele>
        <time>2016-10-30T09:11:59.000Z</time>
      </trkpt>
      <trkpt lat="47.457" lon="6.91202">
        <ele>527</ele>
        <time>2016-10-30T09:12:00.000Z</time>
      </trkpt>
      <trkpt lat="47.45699" lon="6.91208">
        <ele>527</ele>
        <time>2016-10-30T09:12:04.000Z</time>
      </trkpt>
      <trkpt lat="47.45699" lon="6.91209">
        <ele>527</ele>
        <time>2016-10-30T09:12:05.000Z</time>
      </trkpt>
      <trkpt lat="47.45698" lon="6.91215">
        <ele>527</ele>
        <time>2016-10-30T09:14:51.000Z</time>
      </trkpt>
      <trkpt lat="47.45697" lon="6.91217">
        <ele>527</ele>
        <time>2016-10-30T09:14:52.000Z</time>
      </trkpt>
      <trkpt lat="47.45694" lon="6.9122">
        <ele>527</ele>
        <time>2016-10-30T09:14:54.000Z</time>
      </trkpt>
      <trkpt lat="47.45692" lon="6.91221">
        <ele>527</ele>
        <time>2016-10-30T09:14:55.000Z</time>
      </trkpt>
      <trkpt lat="47.4569" lon="6.91226">
        <ele>528</ele>
        <time>2016-10-30T09:14:58.000Z</time>
      </trkpt>
      <trkpt lat="47.45689" lon="6.91227">
        <ele>528</ele>
        <time>2016-10-30T09:14:59.000Z</time>
      </trkpt>
      <trkpt lat="47.45686" lon="6.91231">
        <ele>528</ele>
        <time>2016-10-30T09:15:02.000Z</time>
      </trkpt>
      <trkpt lat="47.45684" lon="6.91232">
        <ele>528</ele>
        <time>2016-10-30T09:15:03.000Z</time>
      </trkpt>
      <trkpt lat="47.45681" lon="6.91236">
        <ele>528</ele>
        <time>2016-10-30T09:15:16.000Z</time>
      </trkpt>
      <trkpt lat="47.45681" lon="6.91237">
        <ele>528</ele>
        <time>2016-10-30T09:15:17.000Z</time>
      </trkpt>
      <trkpt lat="47.45679" lon="6.91242">
        <ele>529</ele>
        <time>2016-10-30T09:15:20.000Z</time>
      </trkpt>
      <trkpt lat="47.45678" lon="6.91244">
        <ele>529</ele>
        <time>2016-10-30T09:15:21.000Z</time>
      </trkpt>
      <trkpt lat="47.45676" lon="6.9125">
        <ele>530</ele>
        <time>2016-10-30T09:15:24.000Z</time>
      </trkpt>
      <trkpt lat="47.45675" lon="6.91251">
        <ele>529</ele>
        <time>2016-10-30T09:15:25.000Z</time>
      </trkpt>
      <trkpt lat="47.45672" lon="6.91256">
        <ele>529</ele>
        <time>2016-10-30T09:15:28.000Z</time>
      </trkpt>
      <trkpt lat="47.45671" lon="6.91258">
        <ele>529</ele>
        <time>2016-10-30T09:15:29.000Z</time>
      </trkpt>
      <trkpt lat="47.45669" lon="6.9126">
        <ele>529</ele>
        <time>2016-10-30T09:15:30.000Z</time>
      </trkpt>
      <trkpt lat="47.45667" lon="6.91262">
        <ele>529</ele>
        <time>2016-10-30T09:15:31.000Z</time>
      </trkpt>
      <trkpt lat="47.45665" lon="6.91264">
        <ele>533</ele>
        <time>2016-10-30T09:15:32.000Z</time>
      </trkpt>
      <trkpt lat="47.45662" lon="6.91266">
        <ele>533</ele>
        <time>2016-10-30T09:15:33.000Z</time>
      </trkpt>
      <trkpt lat="47.4566" lon="6.91268">
        <ele>533</ele>
        <time>2016-10-30T09:15:34.000Z</time>
      </trkpt>
      <trkpt lat="47.45657" lon="6.9127">
        <ele>533</ele>
        <time>2016-10-30T09:15:35.000Z</time>
      </trkpt>
      <trkpt lat="47.45655" lon="6.91272">
        <ele>533</ele>
        <time>2016-10-30T09:15:36.000Z</time>
      </trkpt>
      <trkpt lat="47.45653" lon="6.91274">
        <ele>533</ele>
        <time>2016-10-30T09:15:37.000Z</time>
      </trkpt>
      <trkpt lat="47.45651" lon="6.91276">
        <ele>534</ele>
        <time>2016-10-30T09:15:38.000Z</time>
      </trkpt>
      <trkpt lat="47.45649" lon="6.91279">
        <ele>534</ele>
        <time>2016-10-30T09:15:39.000Z</time>
      </trkpt>
      <trkpt lat="47.45647" lon="6.91281">
        <ele>534</ele>
        <time>2016-10-30T09:15:40.000Z</time>
      </trkpt>
      <trkpt lat="47.45645" lon="6.91283">
        <ele>534</ele>
        <time>2016-10-30T09:15:41.000Z</time>
      </trkpt>
      <trkpt lat="47.45642" lon="6.91286">
        <ele>534</ele>
        <time>2016-10-30T09:15:42.000Z</time>
      </trkpt>
      <trkpt lat="47.4564" lon="6.91288">
        <ele>534</ele>
        <time>2016-10-30T09:15:43.000Z</time>
      </trkpt>
      <trkpt lat="47.45638" lon="6.91291">
        <ele>534</ele>
        <time>2016-10-30T09:15:44.000Z</time>
      </trkpt>
      <trkpt lat="47.45636" lon="6.91294">
        <ele>534</ele>
        <time>2016-10-30T09:15:45.000Z</time>
      </trkpt>
      <trkpt lat="47.45635" lon="6.91297">
        <ele>534</ele>
        <time>2016-10-30T09:15:46.000Z</time>
      </trkpt>
      <trkpt lat="47.45633" lon="6.913">
        <ele>535</ele>
        <time>2016-10-30T09:15:47.000Z</time>
      </trkpt>
      <trkpt lat="47.45631" lon="6.91302">
        <ele>535</ele>
        <time>2016-10-30T09:15:48.000Z</time>
      </trkpt>
      <trkpt lat="47.45629" lon="6.91305">
        <ele>535</ele>
        <time>2016-10-30T09:15:49.000Z</time>
      </trkpt>
      <trkpt lat="47.45628" lon="6.91308">
        <ele>535</ele>
        <time>2016-10-30T09:15:50.000Z</time>
      </trkpt>
      <trkpt lat="47.45628" lon="6.91312">
        <ele>535</ele>
        <time>2016-10-30T09:15:51.000Z</time>
      </trkpt>
      <trkpt lat="47.45628" lon="6.91318">
        <ele>535</ele>
        <time>2016-10-30T09:15:53.000Z</time>
      </trkpt>
      <trkpt lat="47.45627" lon="6.91321">
        <ele>535</ele>
        <time>2016-10-30T09:15:54.000Z</time>
      </trkpt>
      <trkpt lat="47.45625" lon="6.91323">
        <ele>535</ele>
        <time>2016-10-30T09:15:55.000Z</time>
      </trkpt>
      <trkpt lat="47.45623" lon="6.91326">
        <ele>535</ele>
        <time>2016-10-30T09:15:56.000Z</time>
      </trkpt>
      <trkpt lat="47.45621" lon="6.91329">
        <ele>535</ele>
        <time>2016-10-30T09:15:57.000Z</time>
      </trkpt>
      <trkpt lat="47.4562" lon="6.91332">
        <ele>535</ele>
        <time>2016-10-30T09:15:58.000Z</time>
      </trkpt>
      <trkpt lat="47.45619" lon="6.91335">
        <ele>537</ele>
        <time>2016-10-30T09:15:59.000Z</time>
      </trkpt>
      <trkpt lat="47.45618" lon="6.91338">
        <ele>537</ele>
        <time>2016-10-30T09:16:00.000Z</time>
      </trkpt>
      <trkpt lat="47.45617" lon="6.91342">
        <ele>537</ele>
        <time>2016-10-30T09:16:01.000Z</time>
      </trkpt>
      <trkpt lat="47.45617" lon="6.91346">
        <ele>537</ele>
        <time>2016-10-30T09:16:02.000Z</time>
      </trkpt>
      <trkpt lat="47.45617" lon="6.9135">
        <ele>537</ele>
        <time>2016-10-30T09:16:03.000Z</time>
      </trkpt>
      <trkpt lat="47.45617" lon="6.91353">
        <ele>537</ele>
        <time>2016-10-30T09:16:04.000Z</time>
      </trkpt>
      <trkpt lat="47.45618" lon="6.91357">
        <ele>537</ele>
        <time>2016-10-30T09:16:05.000Z</time>
      </trkpt>
      <trkpt lat="47.45618" lon="6.9136">
        <ele>537</ele>
        <time>2016-10-30T09:16:06.000Z</time>
      </trkpt>
      <trkpt lat="47.45619" lon="6.91366">
        <ele>537</ele>
        <time>2016-10-30T09:16:08.000Z</time>
      </trkpt>
      <trkpt lat="47.45619" lon="6.9137">
        <ele>537</ele>
        <time>2016-10-30T09:16:09.000Z</time>
      </trkpt>
      <trkpt lat="47.4562" lon="6.91376">
        <ele>537</ele>
        <time>2016-10-30T09:16:11.000Z</time>
      </trkpt>
      <trkpt lat="47.4562" lon="6.91379">
        <ele>537</ele>
        <time>2016-10-30T09:16:12.000Z</time>
      </trkpt>
      <trkpt lat="47.4562" lon="6.91383">
        <ele>537</ele>
        <time>2016-10-30T09:16:13.000Z</time>
      </trkpt>
      <trkpt lat="47.4562" lon="6.91386">
        <ele>537</ele>
        <time>2016-10-30T09:16:14.000Z</time>
      </trkpt>
      <trkpt lat="47.4562" lon="6.9139">
        <ele>537</ele>
        <time>2016-10-30T09:16:15.000Z</time>
      </trkpt>
      <trkpt lat="47.4562" lon="6.91394">
        <ele>537</ele>
        <time>2016-10-30T09:16:16.000Z</time>
      </trkpt>
      <trkpt lat="47.4562" lon="6.91398">
        <ele>537</ele>
        <time>2016-10-30T09:16:17.000Z</time>
      </trkpt>
      <trkpt lat="47.4562" lon="6.91402">
        <ele>537</ele>
        <time>2016-10-30T09:16:18.000Z</time>
      </trkpt>
      <trkpt lat="47.45621" lon="6.91405">
        <ele>537</ele>
        <time>2016-10-30T09:16:19.000Z</time>
      </trkpt>
      <trkpt lat="47.4562" lon="6.91409">
        <ele>538</ele>
        <time>2016-10-30T09:16:20.000Z</time>
      </trkpt>
      <trkpt lat="47.4562" lon="6.91413">
        <ele>538</ele>
        <time>2016-10-30T09:16:21.000Z</time>
      </trkpt>
      <trkpt lat="47.4562" lon="6.91417">
        <ele>540</ele>
        <time>2016-10-30T09:16:22.000Z</time>
      </trkpt>
      <trkpt lat="47.4562" lon="6.91421">
        <ele>540</ele>
        <time>2016-10-30T09:16:23.000Z</time>
      </trkpt>
      <trkpt lat="47.4562" lon="6.91424">
        <ele>540</ele>
        <time>2016-10-30T09:16:24.000Z</time>
      </trkpt>
      <trkpt lat="47.4562" lon="6.91428">
        <ele>540</ele>
        <time>2016-10-30T09:16:25.000Z</time>
      </trkpt>
      <trkpt lat="47.4562" lon="6.91432">
        <ele>540</ele>
        <time>2016-10-30T09:16:26.000Z</time>
      </trkpt>
      <trkpt lat="47.45619" lon="6.91435">
        <ele>540</ele>
        <time>2016-10-30T09:16:27.000Z</time>
      </trkpt>
      <trkpt lat="47.45618" lon="6.91438">
        <ele>540</ele>
        <time>2016-10-30T09:16:28.000Z</time>
      </trkpt>
      <trkpt lat="47.45616" lon="6.91443">
        <ele>540</ele>
        <time>2016-10-30T09:16:30.000Z</time>
      </trkpt>
      <trkpt lat="47.45616" lon="6.91446">
        <ele>540</ele>
        <time>2016-10-30T09:16:31.000Z</time>
      </trkpt>
      <trkpt lat="47.45617" lon="6.91451">
        <ele>540</ele>
        <time>2016-10-30T09:16:34.000Z</time>
      </trkpt>
      <trkpt lat="47.45617" lon="6.91453">
        <ele>540</ele>
        <time>2016-10-30T09:16:35.000Z</time>
      </trkpt>
      <trkpt lat="47.45616" lon="6.91459">
        <ele>540</ele>
        <time>2016-10-30T09:16:38.000Z</time>
      </trkpt>
      <trkpt lat="47.45615" lon="6.91461">
        <ele>541</ele>
        <time>2016-10-30T09:16:39.000Z</time>
      </trkpt>
      <trkpt lat="47.45614" lon="6.91466">
        <ele>541</ele>
        <time>2016-10-30T09:16:41.000Z</time>
      </trkpt>
      <trkpt lat="47.45614" lon="6.91469">
        <ele>541</ele>
        <time>2016-10-30T09:16:42.000Z</time>
      </trkpt>
      <trkpt lat="47.45615" lon="6.91475">
        <ele>541</ele>
        <time>2016-10-30T09:16:45.000Z</time>
      </trkpt>
      <trkpt lat="47.45616" lon="6.91476">
        <ele>541</ele>
        <time>2016-10-30T09:16:46.000Z</time>
      </trkpt>
      <trkpt lat="47.45617" lon="6.91481">
        <ele>541</ele>
        <time>2016-10-30T09:16:52.000Z</time>
      </trkpt>
      <trkpt lat="47.45618" lon="6.91483">
        <ele>541</ele>
        <time>2016-10-30T09:16:53.000Z</time>
      </trkpt>
      <trkpt lat="47.45619" lon="6.91487">
        <ele>541</ele>
        <time>2016-10-30T09:16:55.000Z</time>
      </trkpt>
      <trkpt lat="47.4562" lon="6.91489">
        <ele>541</ele>
        <time>2016-10-30T09:16:56.000Z</time>
      </trkpt>
      <trkpt lat="47.45623" lon="6.91493">
        <ele>541</ele>
        <time>2016-10-30T09:17:02.000Z</time>
      </trkpt>
      <trkpt lat="47.45624" lon="6.91493">
        <ele>541</ele>
        <time>2016-10-30T09:17:03.000Z</time>
      </trkpt>
      <trkpt lat="47.45625" lon="6.91499">
        <ele>541</ele>
        <time>2016-10-30T09:17:10.000Z</time>
      </trkpt>
      <trkpt lat="47.45626" lon="6.91501">
        <ele>544</ele>
        <time>2016-10-30T09:17:11.000Z</time>
      </trkpt>
      <trkpt lat="47.45628" lon="6.91506">
        <ele>544</ele>
        <time>2016-10-30T09:17:13.000Z</time>
      </trkpt>
      <trkpt lat="47.45629" lon="6.91507">
        <ele>544</ele>
        <time>2016-10-30T09:17:14.000Z</time>
      </trkpt>
      <trkpt lat="47.45629" lon="6.91513">
        <ele>544</ele>
        <time>2016-10-30T09:17:39.000Z</time>
      </trkpt>
      <trkpt lat="47.45628" lon="6.91514">
        <ele>544</ele>
        <time>2016-10-30T09:17:40.000Z</time>
      </trkpt>
      <trkpt lat="47.45626" lon="6.91518">
        <ele>545</ele>
        <time>2016-10-30T09:17:46.000Z</time>
      </trkpt>
      <trkpt lat="47.45626" lon="6.9152">
        <ele>545</ele>
        <time>2016-10-30T09:17:47.000Z</time>
      </trkpt>
      <trkpt lat="47.4563" lon="6.91519">
        <ele>544</ele>
        <time>2016-10-30T09:17:56.000Z</time>
      </trkpt>
      <trkpt lat="47.4563" lon="6.91519">
        <ele>544</ele>
        <time>2016-10-30T09:17:57.000Z</time>
      </trkpt>
      <trkpt lat="47.45632" lon="6.91513">
        <ele>544</ele>
        <time>2016-10-30T09:18:03.000Z</time>
      </trkpt>
      <trkpt lat="47.45632" lon="6.91512">
        <ele>544</ele>
        <time>2016-10-30T09:18:04.000Z</time>
      </trkpt>
      <trkpt lat="47.45628" lon="6.91512">
        <ele>544</ele>
        <time>2016-10-30T09:18:17.000Z</time>
      </trkpt>
      <trkpt lat="47.45628" lon="6.91515">
        <ele>544</ele>
        <time>2016-10-30T09:18:18.000Z</time>
      </trkpt>
      <trkpt lat="47.45626" lon="6.91521">
        <ele>545</ele>
        <time>2016-10-30T09:18:20.000Z</time>
      </trkpt>
      <trkpt lat="47.45626" lon="6.91523">
        <ele>545</ele>
        <time>2016-10-30T09:18:21.000Z</time>
      </trkpt>
      <trkpt lat="47.45625" lon="6.91529">
        <ele>545</ele>
        <time>2016-10-30T09:18:23.000Z</time>
      </trkpt>
      <trkpt lat="47.45624" lon="6.91531">
        <ele>545</ele>
        <time>2016-10-30T09:18:24.000Z</time>
      </trkpt>
      <trkpt lat="47.45623" lon="6.91535">
        <ele>546</ele>
        <time>2016-10-30T09:18:26.000Z</time>
      </trkpt>
      <trkpt lat="47.45623" lon="6.91538">
        <ele>546</ele>
        <time>2016-10-30T09:18:27.000Z</time>
      </trkpt>
      <trkpt lat="47.45621" lon="6.91543">
        <ele>546</ele>
        <time>2016-10-30T09:18:30.000Z</time>
      </trkpt>
      <trkpt lat="47.4562" lon="6.91544">
        <ele>546</ele>
        <time>2016-10-30T09:18:31.000Z</time>
      </trkpt>
      <trkpt lat="47.45616" lon="6.91548">
        <ele>546</ele>
        <time>2016-10-30T09:18:34.000Z</time>
      </trkpt>
      <trkpt lat="47.45614" lon="6.91549">
        <ele>547</ele>
        <time>2016-10-30T09:18:35.000Z</time>
      </trkpt>
      <trkpt lat="47.45611" lon="6.91553">
        <ele>547</ele>
        <time>2016-10-30T09:18:37.000Z</time>
      </trkpt>
      <trkpt lat="47.45611" lon="6.91555">
        <ele>547</ele>
        <time>2016-10-30T09:18:38.000Z</time>
      </trkpt>
      <trkpt lat="47.45609" lon="6.9155">
        <ele>547</ele>
        <time>2016-10-30T09:18:47.000Z</time>
      </trkpt>
      <trkpt lat="47.45608" lon="6.91548">
        <ele>547</ele>
        <time>2016-10-30T09:18:48.000Z</time>
      </trkpt>
      <trkpt lat="47.45606" lon="6.91545">
        <ele>547</ele>
        <time>2016-10-30T09:18:50.000Z</time>
      </trkpt>
      <trkpt lat="47.45605" lon="6.91543">
        <ele>547</ele>
        <time>2016-10-30T09:18:51.000Z</time>
      </trkpt>
      <trkpt lat="47.45604" lon="6.91537">
        <ele>546</ele>
        <time>2016-10-30T09:18:54.000Z</time>
      </trkpt>
      <trkpt lat="47.45605" lon="6.91535">
        <ele>546</ele>
        <time>2016-10-30T09:18:55.000Z</time>
      </trkpt>
      <trkpt lat="47.45604" lon="6.91529">
        <ele>546</ele>
        <time>2016-10-30T09:19:00.000Z</time>
      </trkpt>
      <trkpt lat="47.45603" lon="6.91528">
        <ele>546</ele>
        <time>2016-10-30T09:19:01.000Z</time>
      </trkpt>
      <trkpt lat="47.45601" lon="6.91522">
        <ele>546</ele>
        <time>2016-10-30T09:19:05.000Z</time>
      </trkpt>
      <trkpt lat="47.456" lon="6.91521">
        <ele>546</ele>
        <time>2016-10-30T09:19:06.000Z</time>
      </trkpt>
      <trkpt lat="47.45598" lon="6.91517">
        <ele>546</ele>
        <time>2016-10-30T09:19:08.000Z</time>
      </trkpt>
      <trkpt lat="47.45597" lon="6.91515">
        <ele>546</ele>
        <time>2016-10-30T09:19:09.000Z</time>
      </trkpt>
      <trkpt lat="47.45595" lon="6.91511">
        <ele>546</ele>
        <time>2016-10-30T09:19:11.000Z</time>
      </trkpt>
      <trkpt lat="47.45594" lon="6.91509">
        <ele>546</ele>
        <time>2016-10-30T09:19:12.000Z</time>
      </trkpt>
      <trkpt lat="47.45592" lon="6.91505">
        <ele>546</ele>
        <time>2016-10-30T09:19:14.000Z</time>
      </trkpt>
      <trkpt lat="47.45591" lon="6.91503">
        <ele>546</ele>
        <time>2016-10-30T09:19:15.000Z</time>
      </trkpt>
      <trkpt lat="47.45588" lon="6.915">
        <ele>546</ele>
        <time>2016-10-30T09:19:17.000Z</time>
      </trkpt>
      <trkpt lat="47.45586" lon="6.915">
        <ele>545</ele>
        <time>2016-10-30T09:19:18.000Z</time>
      </trkpt>
      <trkpt lat="47.45583" lon="6.91496">
        <ele>547</ele>
        <time>2016-10-30T09:19:21.000Z</time>
      </trkpt>
      <trkpt lat="47.45581" lon="6.91494">
        <ele>547</ele>
        <time>2016-10-30T09:19:22.000Z</time>
      </trkpt>
      <trkpt lat="47.45577" lon="6.91491">
        <ele>548</ele>
        <time>2016-10-30T09:19:25.000Z</time>
      </trkpt>
      <trkpt lat="47.45576" lon="6.91491">
        <ele>549</ele>
        <time>2016-10-30T09:19:26.000Z</time>
      </trkpt>
      <trkpt lat="47.45574" lon="6.91488">
        <ele>549</ele>
        <time>2016-10-30T09:19:28.000Z</time>
      </trkpt>
      <trkpt lat="47.45572" lon="6.91486">
        <ele>549</ele>
        <time>2016-10-30T09:19:29.000Z</time>
      </trkpt>
      <trkpt lat="47.4557" lon="6.91481">
        <ele>550</ele>
        <time>2016-10-30T09:19:32.000Z</time>
      </trkpt>
      <trkpt lat="47.45569" lon="6.9148">
        <ele>550</ele>
        <time>2016-10-30T09:19:33.000Z</time>
      </trkpt>
      <trkpt lat="47.45567" lon="6.91477">
        <ele>550</ele>
        <time>2016-10-30T09:19:36.000Z</time>
      </trkpt>
      <trkpt lat="47.45566" lon="6.91476">
        <ele>551</ele>
        <time>2016-10-30T09:19:37.000Z</time>
      </trkpt>
      <trkpt lat="47.45561" lon="6.91474">
        <ele>551</ele>
        <time>2016-10-30T09:19:40.000Z</time>
      </trkpt>
      <trkpt lat="47.4556" lon="6.91473">
        <ele>551</ele>
        <time>2016-10-30T09:19:41.000Z</time>
      </trkpt>
      <trkpt lat="47.45556" lon="6.91469">
        <ele>551</ele>
        <time>2016-10-30T09:19:45.000Z</time>
      </trkpt>
      <trkpt lat="47.45555" lon="6.91468">
        <ele>552</ele>
        <time>2016-10-30T09:19:46.000Z</time>
      </trkpt>
      <trkpt lat="47.4555" lon="6.91466">
        <ele>552</ele>
        <time>2016-10-30T09:19:49.000Z</time>
      </trkpt>
      <trkpt lat="47.4555" lon="6.91466">
        <ele>552</ele>
        <time>2016-10-30T09:19:50.000Z</time>
      </trkpt>
      <trkpt lat="47.45547" lon="6.91465">
        <ele>552</ele>
        <time>2016-10-30T09:19:52.000Z</time>
      </trkpt>
      <trkpt lat="47.45546" lon="6.91463">
        <ele>553</ele>
        <time>2016-10-30T09:19:53.000Z</time>
      </trkpt>
      <trkpt lat="47.45543" lon="6.9146">
        <ele>553</ele>
        <time>2016-10-30T09:19:55.000Z</time>
      </trkpt>
      <trkpt lat="47.45541" lon="6.91459">
        <ele>553</ele>
        <time>2016-10-30T09:19:56.000Z</time>
      </trkpt>
      <trkpt lat="47.45537" lon="6.91457">
        <ele>553</ele>
        <time>2016-10-30T09:19:58.000Z</time>
      </trkpt>
      <trkpt lat="47.45535" lon="6.91456">
        <ele>553</ele>
        <time>2016-10-30T09:19:59.000Z</time>
      </trkpt>
      <trkpt lat="47.45531" lon="6.91454">
        <ele>554</ele>
        <time>2016-10-30T09:20:01.000Z</time>
      </trkpt>
      <trkpt lat="47.45529" lon="6.91453">
        <ele>554</ele>
        <time>2016-10-30T09:20:02.000Z</time>
      </trkpt>
      <trkpt lat="47.45525" lon="6.91452">
        <ele>554</ele>
        <time>2016-10-30T09:20:04.000Z</time>
      </trkpt>
      <trkpt lat="47.45523" lon="6.91452">
        <ele>554</ele>
        <time>2016-10-30T09:20:05.000Z</time>
      </trkpt>
      <trkpt lat="47.4552" lon="6.91451">
        <ele>555</ele>
        <time>2016-10-30T09:20:07.000Z</time>
      </trkpt>
      <trkpt lat="47.45518" lon="6.91449">
        <ele>555</ele>
        <time>2016-10-30T09:20:08.000Z</time>
      </trkpt>
      <trkpt lat="47.45515" lon="6.91447">
        <ele>555</ele>
        <time>2016-10-30T09:20:10.000Z</time>
      </trkpt>
      <trkpt lat="47.45513" lon="6.91445">
        <ele>555</ele>
        <time>2016-10-30T09:20:11.000Z</time>
      </trkpt>
      <trkpt lat="47.4551" lon="6.91444">
        <ele>555</ele>
        <time>2016-10-30T09:20:12.000Z</time>
      </trkpt>
      <trkpt lat="47.45507" lon="6.91442">
        <ele>555</ele>
        <time>2016-10-30T09:20:13.000Z</time>
      </trkpt>
      <trkpt lat="47.45505" lon="6.9144">
        <ele>555</ele>
        <time>2016-10-30T09:20:14.000Z</time>
      </trkpt>
      <trkpt lat="47.45503" lon="6.91438">
        <ele>556</ele>
        <time>2016-10-30T09:20:15.000Z</time>
      </trkpt>
      <trkpt lat="47.455" lon="6.91436">
        <ele>556</ele>
        <time>2016-10-30T09:20:16.000Z</time>
      </trkpt>
      <trkpt lat="47.45497" lon="6.91434">
        <ele>562</ele>
        <time>2016-10-30T09:20:17.000Z</time>
      </trkpt>
      <trkpt lat="47.45495" lon="6.91433">
        <ele>562</ele>
        <time>2016-10-30T09:20:18.000Z</time>
      </trkpt>
      <trkpt lat="47.45492" lon="6.91432">
        <ele>562</ele>
        <time>2016-10-30T09:20:19.000Z</time>
      </trkpt>
      <trkpt lat="47.45489" lon="6.91433">
        <ele>562</ele>
        <time>2016-10-30T09:20:20.000Z</time>
      </trkpt>
      <trkpt lat="47.45486" lon="6.91432">
        <ele>563</ele>
        <time>2016-10-30T09:20:21.000Z</time>
      </trkpt>
      <trkpt lat="47.45484" lon="6.91432">
        <ele>563</ele>
        <time>2016-10-30T09:20:22.000Z</time>
      </trkpt>
      <trkpt lat="47.45481" lon="6.91431">
        <ele>563</ele>
        <time>2016-10-30T09:20:23.000Z</time>
      </trkpt>
      <trkpt lat="47.45478" lon="6.9143">
        <ele>563</ele>
        <time>2016-10-30T09:20:24.000Z</time>
      </trkpt>
      <trkpt lat="47.45475" lon="6.91429">
        <ele>564</ele>
        <time>2016-10-30T09:20:25.000Z</time>
      </trkpt>
      <trkpt lat="47.45473" lon="6.91429">
        <ele>564</ele>
        <time>2016-10-30T09:20:26.000Z</time>
      </trkpt>
      <trkpt lat="47.4547" lon="6.91429">
        <ele>564</ele>
        <time>2016-10-30T09:20:27.000Z</time>
      </trkpt>
      <trkpt lat="47.45468" lon="6.91428">
        <ele>564</ele>
        <time>2016-10-30T09:20:28.000Z</time>
      </trkpt>
      <trkpt lat="47.45466" lon="6.91428">
        <ele>565</ele>
        <time>2016-10-30T09:20:29.000Z</time>
      </trkpt>
      <trkpt lat="47.45463" lon="6.91428">
        <ele>565</ele>
        <time>2016-10-30T09:20:30.000Z</time>
      </trkpt>
      <trkpt lat="47.4546" lon="6.91428">
        <ele>565</ele>
        <time>2016-10-30T09:20:31.000Z</time>
      </trkpt>
      <trkpt lat="47.45457" lon="6.91427">
        <ele>565</ele>
        <time>2016-10-30T09:20:32.000Z</time>
      </trkpt>
      <trkpt lat="47.45455" lon="6.91427">
        <ele>565</ele>
        <time>2016-10-30T09:20:33.000Z</time>
      </trkpt>
      <trkpt lat="47.45453" lon="6.91426">
        <ele>566</ele>
        <time>2016-10-30T09:20:34.000Z</time>
      </trkpt>
      <trkpt lat="47.45449" lon="6.91428">
        <ele>566</ele>
        <time>2016-10-30T09:20:35.000Z</time>
      </trkpt>
      <trkpt lat="47.45446" lon="6.91429">
        <ele>566</ele>
        <time>2016-10-30T09:20:36.000Z</time>
      </trkpt>
      <trkpt lat="47.45442" lon="6.9143">
        <ele>567</ele>
        <time>2016-10-30T09:20:37.000Z</time>
      </trkpt>
      <trkpt lat="47.45439" lon="6.9143">
        <ele>567</ele>
        <time>2016-10-30T09:20:38.000Z</time>
      </trkpt>
      <trkpt lat="47.45435" lon="6.91429">
        <ele>567</ele>
        <time>2016-10-30T09:20:39.000Z</time>
      </trkpt>
      <trkpt lat="47.45432" lon="6.91428">
        <ele>567</ele>
        <time>2016-10-30T09:20:40.000Z</time>
      </trkpt>
      <trkpt lat="47.45429" lon="6.91428">
        <ele>567</ele>
        <time>2016-10-30T09:20:41.000Z</time>
      </trkpt>
      <trkpt lat="47.45426" lon="6.91427">
        <ele>568</ele>
        <time>2016-10-30T09:20:42.000Z</time>
      </trkpt>
      <trkpt lat="47.45423" lon="6.91426">
        <ele>568</ele>
        <time>2016-10-30T09:20:43.000Z</time>
      </trkpt>
      <trkpt lat="47.4542" lon="6.91426">
        <ele>568</ele>
        <time>2016-10-30T09:20:44.000Z</time>
      </trkpt>
      <trkpt lat="47.45417" lon="6.91425">
        <ele>568</ele>
        <time>2016-10-30T09:20:45.000Z</time>
      </trkpt>
      <trkpt lat="47.45414" lon="6.91425">
        <ele>570</ele>
        <time>2016-10-30T09:20:46.000Z</time>
      </trkpt>
      <trkpt lat="47.45411" lon="6.91425">
        <ele>570</ele>
        <time>2016-10-30T09:20:47.000Z</time>
      </trkpt>
      <trkpt lat="47.45408" lon="6.91425">
        <ele>570</ele>
        <time>2016-10-30T09:20:48.000Z</time>
      </trkpt>
      <trkpt lat="47.45404" lon="6.91425">
        <ele>570</ele>
        <time>2016-10-30T09:20:49.000Z</time>
      </trkpt>
      <trkpt lat="47.45401" lon="6.91424">
        <ele>571</ele>
        <time>2016-10-30T09:20:50.000Z</time>
      </trkpt>
      <trkpt lat="47.45398" lon="6.91424">
        <ele>571</ele>
        <time>2016-10-30T09:20:51.000Z</time>
      </trkpt>
      <trkpt lat="47.45395" lon="6.91423">
        <ele>571</ele>
        <time>2016-10-30T09:20:52.000Z</time>
      </trkpt>
      <trkpt lat="47.45392" lon="6.91422">
        <ele>571</ele>
        <time>2016-10-30T09:20:53.000Z</time>
      </trkpt>
      <trkpt lat="47.45388" lon="6.91422">
        <ele>571</ele>
        <time>2016-10-30T09:20:54.000Z</time>
      </trkpt>
      <trkpt lat="47.45385" lon="6.91422">
        <ele>571</ele>
        <time>2016-10-30T09:20:55.000Z</time>
      </trkpt>
      <trkpt lat="47.45382" lon="6.91423">
        <ele>571</ele>
        <time>2016-10-30T09:20:56.000Z</time>
      </trkpt>
      <trkpt lat="47.45379" lon="6.91422">
        <ele>571</ele>
        <time>2016-10-30T09:20:57.000Z</time>
      </trkpt>
      <trkpt lat="47.45375" lon="6.91422">
        <ele>571</ele>
        <time>2016-10-30T09:20:58.000Z</time>
      </trkpt>
      <trkpt lat="47.45372" lon="6.91422">
        <ele>572</ele>
        <time>2016-10-30T09:20:59.000Z</time>
      </trkpt>
      <trkpt lat="47.45369" lon="6.91421">
        <ele>572</ele>
        <time>2016-10-30T09:21:00.000Z</time>
      </trkpt>
      <trkpt lat="47.45366" lon="6.91421">
        <ele>572</ele>
        <time>2016-10-30T09:21:01.000Z</time>
      </trkpt>
      <trkpt lat="47.45362" lon="6.91421">
        <ele>572</ele>
        <time>2016-10-30T09:21:02.000Z</time>
      </trkpt>
      <trkpt lat="47.45358" lon="6.9142">
        <ele>572</ele>
        <time>2016-10-30T09:21:03.000Z</time>
      </trkpt>
      <trkpt lat="47.45354" lon="6.91419">
        <ele>572</ele>
        <time>2016-10-30T09:21:04.000Z</time>
      </trkpt>
      <trkpt lat="47.45351" lon="6.91419">
        <ele>572</ele>
        <time>2016-10-30T09:21:05.000Z</time>
      </trkpt>
      <trkpt lat="47.45348" lon="6.91418">
        <ele>572</ele>
        <time>2016-10-30T09:21:06.000Z</time>
      </trkpt>
      <trkpt lat="47.45346" lon="6.91417">
        <ele>572</ele>
        <time>2016-10-30T09:21:07.000Z</time>
      </trkpt>
      <trkpt lat="47.45344" lon="6.91417">
        <ele>572</ele>
        <time>2016-10-30T09:21:08.000Z</time>
      </trkpt>
      <trkpt lat="47.45341" lon="6.91416">
        <ele>571</ele>
        <time>2016-10-30T09:21:09.000Z</time>
      </trkpt>
      <trkpt lat="47.45339" lon="6.91415">
        <ele>571</ele>
        <time>2016-10-30T09:21:10.000Z</time>
      </trkpt>
      <trkpt lat="47.45336" lon="6.91414">
        <ele>572</ele>
        <time>2016-10-30T09:21:11.000Z</time>
      </trkpt>
      <trkpt lat="47.45333" lon="6.91414">
        <ele>572</ele>
        <time>2016-10-30T09:21:12.000Z</time>
      </trkpt>
      <trkpt lat="47.4533" lon="6.91414">
        <ele>572</ele>
        <time>2016-10-30T09:21:13.000Z</time>
      </trkpt>
      <trkpt lat="47.45327" lon="6.91413">
        <ele>572</ele>
        <time>2016-10-30T09:21:14.000Z</time>
      </trkpt>
      <trkpt lat="47.45324" lon="6.91413">
        <ele>572</ele>
        <time>2016-10-30T09:21:15.000Z</time>
      </trkpt>
      <trkpt lat="47.45321" lon="6.91413">
        <ele>572</ele>
        <time>2016-10-30T09:21:16.000Z</time>
      </trkpt>
      <trkpt lat="47.45318" lon="6.91413">
        <ele>573</ele>
        <time>2016-10-30T09:21:17.000Z</time>
      </trkpt>
      <trkpt lat="47.45316" lon="6.91412">
        <ele>573</ele>
        <time>2016-10-30T09:21:18.000Z</time>
      </trkpt>
      <trkpt lat="47.45313" lon="6.91412">
        <ele>573</ele>
        <time>2016-10-30T09:21:19.000Z</time>
      </trkpt>
      <trkpt lat="47.45311" lon="6.91411">
        <ele>573</ele>
        <time>2016-10-30T09:21:20.000Z</time>
      </trkpt>
      <trkpt lat="47.45308" lon="6.91411">
        <ele>573</ele>
        <time>2016-10-30T09:21:21.000Z</time>
      </trkpt>
      <trkpt lat="47.45304" lon="6.9141">
        <ele>573</ele>
        <time>2016-10-30T09:21:22.000Z</time>
      </trkpt>
      <trkpt lat="47.45299" lon="6.91409">
        <ele>573</ele>
        <time>2016-10-30T09:21:23.000Z</time>
      </trkpt>
      <trkpt lat="47.45295" lon="6.91409">
        <ele>573</ele>
        <time>2016-10-30T09:21:24.000Z</time>
      </trkpt>
      <trkpt lat="47.4529" lon="6.91409">
        <ele>573</ele>
        <time>2016-10-30T09:21:25.000Z</time>
      </trkpt>
      <trkpt lat="47.45287" lon="6.91409">
        <ele>573</ele>
        <time>2016-10-30T09:21:26.000Z</time>
      </trkpt>
      <trkpt lat="47.45284" lon="6.91409">
        <ele>574</ele>
        <time>2016-10-30T09:21:27.000Z</time>
      </trkpt>
      <trkpt lat="47.4528" lon="6.91408">
        <ele>574</ele>
        <time>2016-10-30T09:21:28.000Z</time>
      </trkpt>
      <trkpt lat="47.45277" lon="6.91407">
        <ele>574</ele>
        <time>2016-10-30T09:21:29.000Z</time>
      </trkpt>
      <trkpt lat="47.45274" lon="6.91405">
        <ele>574</ele>
        <time>2016-10-30T09:21:30.000Z</time>
      </trkpt>
      <trkpt lat="47.45271" lon="6.91404">
        <ele>574</ele>
        <time>2016-10-30T09:21:31.000Z</time>
      </trkpt>
      <trkpt lat="47.45269" lon="6.91404">
        <ele>574</ele>
        <time>2016-10-30T09:21:32.000Z</time>
      </trkpt>
      <trkpt lat="47.45266" lon="6.91403">
        <ele>574</ele>
        <time>2016-10-30T09:21:33.000Z</time>
      </trkpt>
      <trkpt lat="47.45264" lon="6.91403">
        <ele>574</ele>
        <time>2016-10-30T09:21:34.000Z</time>
      </trkpt>
      <trkpt lat="47.45261" lon="6.91402">
        <ele>574</ele>
        <time>2016-10-30T09:21:35.000Z</time>
      </trkpt>
      <trkpt lat="47.45257" lon="6.91402">
        <ele>574</ele>
        <time>2016-10-30T09:21:36.000Z</time>
      </trkpt>
      <trkpt lat="47.45254" lon="6.91402">
        <ele>574</ele>
        <time>2016-10-30T09:21:37.000Z</time>
      </trkpt>
      <trkpt lat="47.45251" lon="6.91402">
        <ele>574</ele>
        <time>2016-10-30T09:21:38.000Z</time>
      </trkpt>
      <trkpt lat="47.45248" lon="6.91402">
        <ele>576</ele>
        <time>2016-10-30T09:21:39.000Z</time>
      </trkpt>
      <trkpt lat="47.45246" lon="6.91402">
        <ele>576</ele>
        <time>2016-10-30T09:21:40.000Z</time>
      </trkpt>
      <trkpt lat="47.45243" lon="6.91402">
        <ele>576</ele>
        <time>2016-10-30T09:21:41.000Z</time>
      </trkpt>
      <trkpt lat="47.45241" lon="6.91402">
        <ele>576</ele>
        <time>2016-10-30T09:21:42.000Z</time>
      </trkpt>
      <trkpt lat="47.45238" lon="6.91402">
        <ele>576</ele>
        <time>2016-10-30T09:21:43.000Z</time>
      </trkpt>
      <trkpt lat="47.45235" lon="6.91401">
        <ele>576</ele>
        <time>2016-10-30T09:21:44.000Z</time>
      </trkpt>
      <trkpt lat="47.45233" lon="6.91401">
        <ele>576</ele>
        <time>2016-10-30T09:21:45.000Z</time>
      </trkpt>
      <trkpt lat="47.4523" lon="6.914">
        <ele>576</ele>
        <time>2016-10-30T09:21:46.000Z</time>
      </trkpt>
      <trkpt lat="47.45227" lon="6.91399">
        <ele>576</ele>
        <time>2016-10-30T09:21:47.000Z</time>
      </trkpt>
      <trkpt lat="47.45224" lon="6.91398">
        <ele>576</ele>
        <time>2016-10-30T09:21:48.000Z</time>
      </trkpt>
      <trkpt lat="47.45221" lon="6.91397">
        <ele>576</ele>
        <time>2016-10-30T09:21:49.000Z</time>
      </trkpt>
      <trkpt lat="47.45218" lon="6.91396">
        <ele>576</ele>
        <time>2016-10-30T09:21:51.000Z</time>
      </trkpt>
      <trkpt lat="47.45216" lon="6.91395">
        <ele>576</ele>
        <time>2016-10-30T09:21:52.000Z</time>
      </trkpt>
      <trkpt lat="47.45213" lon="6.91394">
        <ele>576</ele>
        <time>2016-10-30T09:21:54.000Z</time>
      </trkpt>
      <trkpt lat="47.45211" lon="6.91394">
        <ele>576</ele>
        <time>2016-10-30T09:21:55.000Z</time>
      </trkpt>
      <trkpt lat="47.45207" lon="6.91391">
        <ele>576</ele>
        <time>2016-10-30T09:21:58.000Z</time>
      </trkpt>
      <trkpt lat="47.45205" lon="6.91391">
        <ele>576</ele>
        <time>2016-10-30T09:21:59.000Z</time>
      </trkpt>
      <trkpt lat="47.45203" lon="6.9139">
        <ele>576</ele>
        <time>2016-10-30T09:22:00.000Z</time>
      </trkpt>
      <trkpt lat="47.45201" lon="6.9139">
        <ele>576</ele>
        <time>2016-10-30T09:22:01.000Z</time>
      </trkpt>
      <trkpt lat="47.45198" lon="6.91389">
        <ele>576</ele>
        <time>2016-10-30T09:22:02.000Z</time>
      </trkpt>
      <trkpt lat="47.45195" lon="6.91388">
        <ele>576</ele>
        <time>2016-10-30T09:22:03.000Z</time>
      </trkpt>
      <trkpt lat="47.45193" lon="6.91388">
        <ele>577</ele>
        <time>2016-10-30T09:22:04.000Z</time>
      </trkpt>
      <trkpt lat="47.4519" lon="6.91387">
        <ele>577</ele>
        <time>2016-10-30T09:22:05.000Z</time>
      </trkpt>
      <trkpt lat="47.45187" lon="6.91387">
        <ele>577</ele>
        <time>2016-10-30T09:22:06.999Z</time>
      </trkpt>
      <trkpt lat="47.45182" lon="6.91386">
        <ele>577</ele>
        <time>2016-10-30T09:22:08.000Z</time>
      </trkpt>
      <trkpt lat="47.4518" lon="6.91386">
        <ele>577</ele>
        <time>2016-10-30T09:22:08.999Z</time>
      </trkpt>
      <trkpt lat="47.45175" lon="6.91385">
        <ele>577</ele>
        <time>2016-10-30T09:22:10.000Z</time>
      </trkpt>
      <trkpt lat="47.45171" lon="6.91385">
        <ele>577</ele>
        <time>2016-10-30T09:22:11.000Z</time>
      </trkpt>
      <trkpt lat="47.45167" lon="6.91385">
        <ele>577</ele>
        <time>2016-10-30T09:22:12.000Z</time>
      </trkpt>
      <trkpt lat="47.45163" lon="6.91384">
        <ele>578</ele>
        <time>2016-10-30T09:22:13.000Z</time>
      </trkpt>
      <trkpt lat="47.45159" lon="6.91384">
        <ele>578</ele>
        <time>2016-10-30T09:22:14.000Z</time>
      </trkpt>
      <trkpt lat="47.45155" lon="6.91384">
        <ele>578</ele>
        <time>2016-10-30T09:22:15.000Z</time>
      </trkpt>
      <trkpt lat="47.45151" lon="6.91383">
        <ele>578</ele>
        <time>2016-10-30T09:22:16.000Z</time>
      </trkpt>
      <trkpt lat="47.45147" lon="6.91383">
        <ele>578</ele>
        <time>2016-10-30T09:22:17.000Z</time>
      </trkpt>
      <trkpt lat="47.45142" lon="6.91382">
        <ele>578</ele>
        <time>2016-10-30T09:22:18.000Z</time>
      </trkpt>
      <trkpt lat="47.45138" lon="6.91382">
        <ele>578</ele>
        <time>2016-10-30T09:22:19.000Z</time>
      </trkpt>
      <trkpt lat="47.45134" lon="6.91382">
        <ele>578</ele>
        <time>2016-10-30T09:22:20.000Z</time>
      </trkpt>
      <trkpt lat="47.4513" lon="6.91382">
        <ele>578</ele>
        <time>2016-10-30T09:22:21.000Z</time>
      </trkpt>
      <trkpt lat="47.45126" lon="6.91382">
        <ele>578</ele>
        <time>2016-10-30T09:22:22.000Z</time>
      </trkpt>
      <trkpt lat="47.45122" lon="6.91382">
        <ele>578</ele>
        <time>2016-10-30T09:22:23.000Z</time>
      </trkpt>
      <trkpt lat="47.45118" lon="6.91382">
        <ele>578</ele>
        <time>2016-10-30T09:22:24.000Z</time>
      </trkpt>
      <trkpt lat="47.45115" lon="6.91382">
        <ele>578</ele>
        <time>2016-10-30T09:22:25.000Z</time>
      </trkpt>
      <trkpt lat="47.45112" lon="6.91382">
        <ele>578</ele>
        <time>2016-10-30T09:22:25.999Z</time>
      </trkpt>
      <trkpt lat="47.45108" lon="6.91382">
        <ele>578</ele>
        <time>2016-10-30T09:22:28.000Z</time>
      </trkpt>
      <trkpt lat="47.45105" lon="6.91381">
        <ele>578</ele>
        <time>2016-10-30T09:22:29.000Z</time>
      </trkpt>
      <trkpt lat="47.45102" lon="6.9138">
        <ele>578</ele>
        <time>2016-10-30T09:22:30.000Z</time>
      </trkpt>
      <trkpt lat="47.45098" lon="6.9138">
        <ele>578</ele>
        <time>2016-10-30T09:22:31.000Z</time>
      </trkpt>
      <trkpt lat="47.45095" lon="6.91379">
        <ele>578</ele>
        <time>2016-10-30T09:22:32.000Z</time>
      </trkpt>
      <trkpt lat="47.45091" lon="6.91379">
        <ele>578</ele>
        <time>2016-10-30T09:22:33.000Z</time>
      </trkpt>
      <trkpt lat="47.45088" lon="6.91379">
        <ele>578</ele>
        <time>2016-10-30T09:22:34.000Z</time>
      </trkpt>
      <trkpt lat="47.45084" lon="6.91378">
        <ele>578</ele>
        <time>2016-10-30T09:22:35.000Z</time>
      </trkpt>
      <trkpt lat="47.45081" lon="6.91378">
        <ele>580</ele>
        <time>2016-10-30T09:22:36.000Z</time>
      </trkpt>
      <trkpt lat="47.45078" lon="6.91377">
        <ele>581</ele>
        <time>2016-10-30T09:22:37.000Z</time>
      </trkpt>
      <trkpt lat="47.45075" lon="6.91376">
        <ele>581</ele>
        <time>2016-10-30T09:22:38.000Z</time>
      </trkpt>
      <trkpt lat="47.45069" lon="6.91377">
        <ele>581</ele>
        <time>2016-10-30T09:22:39.000Z</time>
      </trkpt>
      <trkpt lat="47.45067" lon="6.91375">
        <ele>581</ele>
        <time>2016-10-30T09:22:41.000Z</time>
      </trkpt>
      <trkpt lat="47.45065" lon="6.91374">
        <ele>581</ele>
        <time>2016-10-30T09:22:42.000Z</time>
      </trkpt>
      <trkpt lat="47.45061" lon="6.91372">
        <ele>581</ele>
        <time>2016-10-30T09:22:43.000Z</time>
      </trkpt>
      <trkpt lat="47.45058" lon="6.9137">
        <ele>581</ele>
        <time>2016-10-30T09:22:44.000Z</time>
      </trkpt>
      <trkpt lat="47.45056" lon="6.91369">
        <ele>581</ele>
        <time>2016-10-30T09:22:45.000Z</time>
      </trkpt>
      <trkpt lat="47.45053" lon="6.91368">
        <ele>581</ele>
        <time>2016-10-30T09:22:46.000Z</time>
      </trkpt>
      <trkpt lat="47.4505" lon="6.91368">
        <ele>581</ele>
        <time>2016-10-30T09:22:47.000Z</time>
      </trkpt>
      <trkpt lat="47.45048" lon="6.91368">
        <ele>581</ele>
        <time>2016-10-30T09:22:48.000Z</time>
      </trkpt>
      <trkpt lat="47.45045" lon="6.91367">
        <ele>581</ele>
        <time>2016-10-30T09:22:50.000Z</time>
      </trkpt>
      <trkpt lat="47.45043" lon="6.91367">
        <ele>581</ele>
        <time>2016-10-30T09:22:51.000Z</time>
      </trkpt>
      <trkpt lat="47.45039" lon="6.91365">
        <ele>581</ele>
        <time>2016-10-30T09:22:53.000Z</time>
      </trkpt>
      <trkpt lat="47.45037" lon="6.91365">
        <ele>581</ele>
        <time>2016-10-30T09:22:54.000Z</time>
      </trkpt>
      <trkpt lat="47.45034" lon="6.91364">
        <ele>582</ele>
        <time>2016-10-30T09:22:55.000Z</time>
      </trkpt>
      <trkpt lat="47.45032" lon="6.91363">
        <ele>582</ele>
        <time>2016-10-30T09:22:56.000Z</time>
      </trkpt>
      <trkpt lat="47.4503" lon="6.91361">
        <ele>582</ele>
        <time>2016-10-30T09:22:57.000Z</time>
      </trkpt>
      <trkpt lat="47.45027" lon="6.91361">
        <ele>582</ele>
        <time>2016-10-30T09:22:58.000Z</time>
      </trkpt>
      <trkpt lat="47.45023" lon="6.91359">
        <ele>582</ele>
        <time>2016-10-30T09:23:00.000Z</time>
      </trkpt>
      <trkpt lat="47.45021" lon="6.91359">
        <ele>582</ele>
        <time>2016-10-30T09:23:01.000Z</time>
      </trkpt>
      <trkpt lat="47.45018" lon="6.91358">
        <ele>582</ele>
        <time>2016-10-30T09:23:02.000Z</time>
      </trkpt>
      <trkpt lat="47.45016" lon="6.91357">
        <ele>582</ele>
        <time>2016-10-30T09:23:03.000Z</time>
      </trkpt>
      <trkpt lat="47.45013" lon="6.91357">
        <ele>582</ele>
        <time>2016-10-30T09:23:04.000Z</time>
      </trkpt>
      <trkpt lat="47.45011" lon="6.91356">
        <ele>582</ele>
        <time>2016-10-30T09:23:05.000Z</time>
      </trkpt>
      <trkpt lat="47.45006" lon="6.91355">
        <ele>582</ele>
        <time>2016-10-30T09:23:07.000Z</time>
      </trkpt>
      <trkpt lat="47.45004" lon="6.91354">
        <ele>582</ele>
        <time>2016-10-30T09:23:08.000Z</time>
      </trkpt>
      <trkpt lat="47.45" lon="6.91353">
        <ele>582</ele>
        <time>2016-10-30T09:23:10.000Z</time>
      </trkpt>
      <trkpt lat="47.44999" lon="6.91352">
        <ele>585</ele>
        <time>2016-10-30T09:23:11.000Z</time>
      </trkpt>
      <trkpt lat="47.44996" lon="6.91351">
        <ele>585</ele>
        <time>2016-10-30T09:23:13.000Z</time>
      </trkpt>
      <trkpt lat="47.44994" lon="6.91351">
        <ele>585</ele>
        <time>2016-10-30T09:23:14.000Z</time>
      </trkpt>
      <trkpt lat="47.4499" lon="6.91351">
        <ele>586</ele>
        <time>2016-10-30T09:23:16.000Z</time>
      </trkpt>
      <trkpt lat="47.44988" lon="6.91351">
        <ele>586</ele>
        <time>2016-10-30T09:23:17.000Z</time>
      </trkpt>
      <trkpt lat="47.44985" lon="6.9135">
        <ele>586</ele>
        <time>2016-10-30T09:23:19.000Z</time>
      </trkpt>
      <trkpt lat="47.44983" lon="6.91349">
        <ele>586</ele>
        <time>2016-10-30T09:23:20.000Z</time>
      </trkpt>
      <trkpt lat="47.44979" lon="6.91349">
        <ele>586</ele>
        <time>2016-10-30T09:23:22.000Z</time>
      </trkpt>
      <trkpt lat="47.44977" lon="6.91349">
        <ele>586</ele>
        <time>2016-10-30T09:23:23.000Z</time>
      </trkpt>
      <trkpt lat="47.44974" lon="6.91349">
        <ele>587</ele>
        <time>2016-10-30T09:23:24.000Z</time>
      </trkpt>
      <trkpt lat="47.4497" lon="6.91348">
        <ele>587</ele>
        <time>2016-10-30T09:23:25.000Z</time>
      </trkpt>
      <trkpt lat="47.44967" lon="6.91348">
        <ele>587</ele>
        <time>2016-10-30T09:23:26.000Z</time>
      </trkpt>
      <trkpt lat="47.44962" lon="6.91347">
        <ele>587</ele>
        <time>2016-10-30T09:23:27.000Z</time>
      </trkpt>
      <trkpt lat="47.44958" lon="6.91347">
        <ele>588</ele>
        <time>2016-10-30T09:23:28.000Z</time>
      </trkpt>
      <trkpt lat="47.44955" lon="6.91346">
        <ele>588</ele>
        <time>2016-10-30T09:23:29.000Z</time>
      </trkpt>
      <trkpt lat="47.44952" lon="6.91346">
        <ele>588</ele>
        <time>2016-10-30T09:23:30.000Z</time>
      </trkpt>
      <trkpt lat="47.4495" lon="6.91346">
        <ele>588</ele>
        <time>2016-10-30T09:23:31.000Z</time>
      </trkpt>
      <trkpt lat="47.44946" lon="6.91345">
        <ele>588</ele>
        <time>2016-10-30T09:23:34.000Z</time>
      </trkpt>
      <trkpt lat="47.44945" lon="6.91344">
        <ele>588</ele>
        <time>2016-10-30T09:23:35.000Z</time>
      </trkpt>
      <trkpt lat="47.44942" lon="6.91344">
        <ele>589</ele>
        <time>2016-10-30T09:23:37.000Z</time>
      </trkpt>
      <trkpt lat="47.4494" lon="6.91344">
        <ele>589</ele>
        <time>2016-10-30T09:23:38.000Z</time>
      </trkpt>
      <trkpt lat="47.44936" lon="6.91343">
        <ele>589</ele>
        <time>2016-10-30T09:23:40.000Z</time>
      </trkpt>
      <trkpt lat="47.44934" lon="6.91343">
        <ele>589</ele>
        <time>2016-10-30T09:23:41.000Z</time>
      </trkpt>
      <trkpt lat="47.4493" lon="6.91342">
        <ele>589</ele>
        <time>2016-10-30T09:23:43.000Z</time>
      </trkpt>
      <trkpt lat="47.44928" lon="6.91342">
        <ele>590</ele>
        <time>2016-10-30T09:23:44.000Z</time>
      </trkpt>
      <trkpt lat="47.44923" lon="6.91342">
        <ele>590</ele>
        <time>2016-10-30T09:23:46.000Z</time>
      </trkpt>
      <trkpt lat="47.44921" lon="6.91341">
        <ele>590</ele>
        <time>2016-10-30T09:23:47.000Z</time>
      </trkpt>
      <trkpt lat="47.44918" lon="6.91338">
        <ele>590</ele>
        <time>2016-10-30T09:23:49.000Z</time>
      </trkpt>
      <trkpt lat="47.44917" lon="6.91337">
        <ele>591</ele>
        <time>2016-10-30T09:23:50.000Z</time>
      </trkpt>
      <trkpt lat="47.44913" lon="6.91334">
        <ele>591</ele>
        <time>2016-10-30T09:23:54.000Z</time>
      </trkpt>
      <trkpt lat="47.44911" lon="6.91334">
        <ele>592</ele>
        <time>2016-10-30T09:23:55.000Z</time>
      </trkpt>
      <trkpt lat="47.44907" lon="6.91333">
        <ele>591</ele>
        <time>2016-10-30T09:23:57.000Z</time>
      </trkpt>
      <trkpt lat="47.44905" lon="6.91332">
        <ele>591</ele>
        <time>2016-10-30T09:23:58.000Z</time>
      </trkpt>
      <trkpt lat="47.44901" lon="6.9133">
        <ele>592</ele>
        <time>2016-10-30T09:24:00.000Z</time>
      </trkpt>
      <trkpt lat="47.449" lon="6.91329">
        <ele>592</ele>
        <time>2016-10-30T09:24:01.000Z</time>
      </trkpt>
      <trkpt lat="47.44896" lon="6.91326">
        <ele>592</ele>
        <time>2016-10-30T09:24:04.000Z</time>
      </trkpt>
      <trkpt lat="47.44895" lon="6.91325">
        <ele>592</ele>
        <time>2016-10-30T09:24:05.000Z</time>
      </trkpt>
      <trkpt lat="47.44891" lon="6.91323">
        <ele>592</ele>
        <time>2016-10-30T09:24:07.000Z</time>
      </trkpt>
      <trkpt lat="47.44889" lon="6.91322">
        <ele>592</ele>
        <time>2016-10-30T09:24:08.000Z</time>
      </trkpt>
      <trkpt lat="47.44885" lon="6.91321">
        <ele>592</ele>
        <time>2016-10-30T09:24:10.000Z</time>
      </trkpt>
      <trkpt lat="47.44883" lon="6.91321">
        <ele>592</ele>
        <time>2016-10-30T09:24:11.000Z</time>
      </trkpt>
      <trkpt lat="47.44881" lon="6.9132">
        <ele>592</ele>
        <time>2016-10-30T09:24:12.000Z</time>
      </trkpt>
      <trkpt lat="47.44879" lon="6.91318">
        <ele>592</ele>
        <time>2016-10-30T09:24:13.000Z</time>
      </trkpt>
      <trkpt lat="47.44875" lon="6.91317">
        <ele>592</ele>
        <time>2016-10-30T09:24:17.000Z</time>
      </trkpt>
      <trkpt lat="47.44874" lon="6.91316">
        <ele>592</ele>
        <time>2016-10-30T09:24:18.000Z</time>
      </trkpt>
      <trkpt lat="47.44871" lon="6.91312">
        <ele>593</ele>
        <time>2016-10-30T09:24:20.000Z</time>
      </trkpt>
      <trkpt lat="47.4487" lon="6.91311">
        <ele>593</ele>
        <time>2016-10-30T09:24:21.000Z</time>
      </trkpt>
      <trkpt lat="47.44866" lon="6.91308">
        <ele>593</ele>
        <time>2016-10-30T09:24:23.000Z</time>
      </trkpt>
      <trkpt lat="47.44864" lon="6.91307">
        <ele>593</ele>
        <time>2016-10-30T09:24:24.000Z</time>
      </trkpt>
      <trkpt lat="47.44859" lon="6.91305">
        <ele>593</ele>
        <time>2016-10-30T09:24:26.000Z</time>
      </trkpt>
      <trkpt lat="47.44857" lon="6.91304">
        <ele>593</ele>
        <time>2016-10-30T09:24:27.000Z</time>
      </trkpt>
      <trkpt lat="47.44854" lon="6.91303">
        <ele>593</ele>
        <time>2016-10-30T09:24:28.000Z</time>
      </trkpt>
      <trkpt lat="47.44852" lon="6.91303">
        <ele>593</ele>
        <time>2016-10-30T09:24:29.000Z</time>
      </trkpt>
      <trkpt lat="47.44849" lon="6.91302">
        <ele>593</ele>
        <time>2016-10-30T09:24:30.000Z</time>
      </trkpt>
      <trkpt lat="47.44846" lon="6.91301">
        <ele>593</ele>
        <time>2016-10-30T09:24:31.000Z</time>
      </trkpt>
      <trkpt lat="47.44843" lon="6.913">
        <ele>593</ele>
        <time>2016-10-30T09:24:32.000Z</time>
      </trkpt>
      <trkpt lat="47.4484" lon="6.91299">
        <ele>593</ele>
        <time>2016-10-30T09:24:33.000Z</time>
      </trkpt>
      <trkpt lat="47.44836" lon="6.91298">
        <ele>593</ele>
        <time>2016-10-30T09:24:34.000Z</time>
      </trkpt>
      <trkpt lat="47.44832" lon="6.91297">
        <ele>597</ele>
        <time>2016-10-30T09:24:35.000Z</time>
      </trkpt>
      <trkpt lat="47.44829" lon="6.91296">
        <ele>598</ele>
        <time>2016-10-30T09:24:36.000Z</time>
      </trkpt>
      <trkpt lat="47.44826" lon="6.91294">
        <ele>598</ele>
        <time>2016-10-30T09:24:37.000Z</time>
      </trkpt>
      <trkpt lat="47.44823" lon="6.91291">
        <ele>598</ele>
        <time>2016-10-30T09:24:39.000Z</time>
      </trkpt>
      <trkpt lat="47.4482" lon="6.91289">
        <ele>598</ele>
        <time>2016-10-30T09:24:40.000Z</time>
      </trkpt>
      <trkpt lat="47.44818" lon="6.91288">
        <ele>598</ele>
        <time>2016-10-30T09:24:41.000Z</time>
      </trkpt>
      <trkpt lat="47.44816" lon="6.91286">
        <ele>598</ele>
        <time>2016-10-30T09:24:42.000Z</time>
      </trkpt>
      <trkpt lat="47.44812" lon="6.91284">
        <ele>598</ele>
        <time>2016-10-30T09:24:44.000Z</time>
      </trkpt>
      <trkpt lat="47.4481" lon="6.91283">
        <ele>598</ele>
        <time>2016-10-30T09:24:45.000Z</time>
      </trkpt>
      <trkpt lat="47.44808" lon="6.91282">
        <ele>598</ele>
        <time>2016-10-30T09:24:46.000Z</time>
      </trkpt>
      <trkpt lat="47.44805" lon="6.91281">
        <ele>598</ele>
        <time>2016-10-30T09:24:47.000Z</time>
      </trkpt>
      <trkpt lat="47.44801" lon="6.91279">
        <ele>598</ele>
        <time>2016-10-30T09:24:49.000Z</time>
      </trkpt>
      <trkpt lat="47.44799" lon="6.91278">
        <ele>599</ele>
        <time>2016-10-30T09:24:50.000Z</time>
      </trkpt>
      <trkpt lat="47.44795" lon="6.91278">
        <ele>599</ele>
        <time>2016-10-30T09:24:52.000Z</time>
      </trkpt>
      <trkpt lat="47.44794" lon="6.91278">
        <ele>599</ele>
        <time>2016-10-30T09:24:53.000Z</time>
      </trkpt>
      <trkpt lat="47.44791" lon="6.91276">
        <ele>599</ele>
        <time>2016-10-30T09:24:55.000Z</time>
      </trkpt>
      <trkpt lat="47.44789" lon="6.91275">
        <ele>599</ele>
        <time>2016-10-30T09:24:56.000Z</time>
      </trkpt>
      <trkpt lat="47.44785" lon="6.91273">
        <ele>599</ele>
        <time>2016-10-30T09:24:58.000Z</time>
      </trkpt>
      <trkpt lat="47.44783" lon="6.91272">
        <ele>599</ele>
        <time>2016-10-30T09:24:59.000Z</time>
      </trkpt>
      <trkpt lat="47.4478" lon="6.91271">
        <ele>600</ele>
        <time>2016-10-30T09:25:00.000Z</time>
      </trkpt>
      <trkpt lat="47.44777" lon="6.91271">
        <ele>600</ele>
        <time>2016-10-30T09:25:01.000Z</time>
      </trkpt>
      <trkpt lat="47.44773" lon="6.9127">
        <ele>600</ele>
        <time>2016-10-30T09:25:02.000Z</time>
      </trkpt>
      <trkpt lat="47.44769" lon="6.91269">
        <ele>600</ele>
        <time>2016-10-30T09:25:03.000Z</time>
      </trkpt>
      <trkpt lat="47.44766" lon="6.91268">
        <ele>600</ele>
        <time>2016-10-30T09:25:04.000Z</time>
      </trkpt>
      <trkpt lat="47.44763" lon="6.91267">
        <ele>600</ele>
        <time>2016-10-30T09:25:05.000Z</time>
      </trkpt>
      <trkpt lat="47.44758" lon="6.91267">
        <ele>601</ele>
        <time>2016-10-30T09:25:07.000Z</time>
      </trkpt>
      <trkpt lat="47.44756" lon="6.91266">
        <ele>601</ele>
        <time>2016-10-30T09:25:08.000Z</time>
      </trkpt>
      <trkpt lat="47.44753" lon="6.91266">
        <ele>601</ele>
        <time>2016-10-30T09:25:09.000Z</time>
      </trkpt>
      <trkpt lat="47.4475" lon="6.91265">
        <ele>601</ele>
        <time>2016-10-30T09:25:10.000Z</time>
      </trkpt>
      <trkpt lat="47.44746" lon="6.91265">
        <ele>602</ele>
        <time>2016-10-30T09:25:12.000Z</time>
      </trkpt>
      <trkpt lat="47.44743" lon="6.91265">
        <ele>602</ele>
        <time>2016-10-30T09:25:13.000Z</time>
      </trkpt>
      <trkpt lat="47.4474" lon="6.91265">
        <ele>602</ele>
        <time>2016-10-30T09:25:14.000Z</time>
      </trkpt>
      <trkpt lat="47.44737" lon="6.91265">
        <ele>602</ele>
        <time>2016-10-30T09:25:15.000Z</time>
      </trkpt>
      <trkpt lat="47.44734" lon="6.91265">
        <ele>602</ele>
        <time>2016-10-30T09:25:16.000Z</time>
      </trkpt>
      <trkpt lat="47.44731" lon="6.91264">
        <ele>602</ele>
        <time>2016-10-30T09:25:17.000Z</time>
      </trkpt>
      <trkpt lat="47.44729" lon="6.91263">
        <ele>602</ele>
        <time>2016-10-30T09:25:18.000Z</time>
      </trkpt>
      <trkpt lat="47.44726" lon="6.91262">
        <ele>602</ele>
        <time>2016-10-30T09:25:19.000Z</time>
      </trkpt>
      <trkpt lat="47.44723" lon="6.91261">
        <ele>602</ele>
        <time>2016-10-30T09:25:20.000Z</time>
      </trkpt>
      <trkpt lat="47.44721" lon="6.91261">
        <ele>602</ele>
        <time>2016-10-30T09:25:21.000Z</time>
      </trkpt>
      <trkpt lat="47.44717" lon="6.91261">
        <ele>602</ele>
        <time>2016-10-30T09:25:23.000Z</time>
      </trkpt>
      <trkpt lat="47.44716" lon="6.91261">
        <ele>602</ele>
        <time>2016-10-30T09:25:24.000Z</time>
      </trkpt>
      <trkpt lat="47.44711" lon="6.9126">
        <ele>602</ele>
        <time>2016-10-30T09:25:26.000Z</time>
      </trkpt>
      <trkpt lat="47.4471" lon="6.91259">
        <ele>602</ele>
        <time>2016-10-30T09:25:27.000Z</time>
      </trkpt>
      <trkpt lat="47.44706" lon="6.91257">
        <ele>602</ele>
        <time>2016-10-30T09:25:31.000Z</time>
      </trkpt>
      <trkpt lat="47.44704" lon="6.91257">
        <ele>602</ele>
        <time>2016-10-30T09:25:32.000Z</time>
      </trkpt>
      <trkpt lat="47.44701" lon="6.9126">
        <ele>602</ele>
        <time>2016-10-30T09:25:36.000Z</time>
      </trkpt>
      <trkpt lat="47.447" lon="6.9126">
        <ele>602</ele>
        <time>2016-10-30T09:25:37.000Z</time>
      </trkpt>
      <trkpt lat="47.44696" lon="6.91263">
        <ele>602</ele>
        <time>2016-10-30T09:25:39.000Z</time>
      </trkpt>
      <trkpt lat="47.44694" lon="6.91265">
        <ele>602</ele>
        <time>2016-10-30T09:25:40.000Z</time>
      </trkpt>
      <trkpt lat="47.44692" lon="6.91267">
        <ele>602</ele>
        <time>2016-10-30T09:25:41.000Z</time>
      </trkpt>
      <trkpt lat="47.44689" lon="6.91268">
        <ele>602</ele>
        <time>2016-10-30T09:25:42.000Z</time>
      </trkpt>
      <trkpt lat="47.44687" lon="6.91269">
        <ele>602</ele>
        <time>2016-10-30T09:25:43.000Z</time>
      </trkpt>
      <trkpt lat="47.44685" lon="6.9127">
        <ele>602</ele>
        <time>2016-10-30T09:25:44.000Z</time>
      </trkpt>
      <trkpt lat="47.44681" lon="6.91271">
        <ele>602</ele>
        <time>2016-10-30T09:25:46.000Z</time>
      </trkpt>
      <trkpt lat="47.44678" lon="6.91271">
        <ele>602</ele>
        <time>2016-10-30T09:25:47.000Z</time>
      </trkpt>
      <trkpt lat="47.44674" lon="6.91271">
        <ele>602</ele>
        <time>2016-10-30T09:25:49.000Z</time>
      </trkpt>
      <trkpt lat="47.44673" lon="6.91271">
        <ele>602</ele>
        <time>2016-10-30T09:25:50.000Z</time>
      </trkpt>
      <trkpt lat="47.44669" lon="6.91272">
        <ele>602</ele>
        <time>2016-10-30T09:25:53.000Z</time>
      </trkpt>
      <trkpt lat="47.44667" lon="6.91272">
        <ele>602</ele>
        <time>2016-10-30T09:25:54.000Z</time>
      </trkpt>
      <trkpt lat="47.44663" lon="6.91272">
        <ele>601</ele>
        <time>2016-10-30T09:25:57.000Z</time>
      </trkpt>
      <trkpt lat="47.44663" lon="6.91271">
        <ele>601</ele>
        <time>2016-10-30T09:25:58.000Z</time>
      </trkpt>
      <trkpt lat="47.44658" lon="6.91272">
        <ele>601</ele>
        <time>2016-10-30T09:26:02.000Z</time>
      </trkpt>
      <trkpt lat="47.44656" lon="6.91271">
        <ele>601</ele>
        <time>2016-10-30T09:26:03.000Z</time>
      </trkpt>
      <trkpt lat="47.44652" lon="6.9127">
        <ele>600</ele>
        <time>2016-10-30T09:26:05.000Z</time>
      </trkpt>
      <trkpt lat="47.44651" lon="6.9127">
        <ele>600</ele>
        <time>2016-10-30T09:26:06.000Z</time>
      </trkpt>
      <trkpt lat="47.44648" lon="6.9127">
        <ele>600</ele>
        <time>2016-10-30T09:26:09.000Z</time>
      </trkpt>
      <trkpt lat="47.44646" lon="6.9127">
        <ele>600</ele>
        <time>2016-10-30T09:26:10.000Z</time>
      </trkpt>
      <trkpt lat="47.44644" lon="6.9127">
        <ele>600</ele>
        <time>2016-10-30T09:26:11.000Z</time>
      </trkpt>
      <trkpt lat="47.44641" lon="6.9127">
        <ele>600</ele>
        <time>2016-10-30T09:26:12.000Z</time>
      </trkpt>
      <trkpt lat="47.44638" lon="6.9127">
        <ele>600</ele>
        <time>2016-10-30T09:26:13.000Z</time>
      </trkpt>
      <trkpt lat="47.44635" lon="6.9127">
        <ele>600</ele>
        <time>2016-10-30T09:26:14.000Z</time>
      </trkpt>
      <trkpt lat="47.44631" lon="6.9127">
        <ele>599</ele>
        <time>2016-10-30T09:26:15.000Z</time>
      </trkpt>
      <trkpt lat="47.44628" lon="6.9127">
        <ele>599</ele>
        <time>2016-10-30T09:26:16.000Z</time>
      </trkpt>
      <trkpt lat="47.44625" lon="6.9127">
        <ele>599</ele>
        <time>2016-10-30T09:26:17.000Z</time>
      </trkpt>
      <trkpt lat="47.44622" lon="6.9127">
        <ele>599</ele>
        <time>2016-10-30T09:26:18.000Z</time>
      </trkpt>
      <trkpt lat="47.44619" lon="6.9127">
        <ele>599</ele>
        <time>2016-10-30T09:26:19.000Z</time>
      </trkpt>
      <trkpt lat="47.44616" lon="6.91271">
        <ele>599</ele>
        <time>2016-10-30T09:26:20.000Z</time>
      </trkpt>
      <trkpt lat="47.44611" lon="6.91271">
        <ele>598</ele>
        <time>2016-10-30T09:26:21.000Z</time>
      </trkpt>
      <trkpt lat="47.44607" lon="6.91272">
        <ele>598</ele>
        <time>2016-10-30T09:26:22.000Z</time>
      </trkpt>
      <trkpt lat="47.44603" lon="6.91273">
        <ele>598</ele>
        <time>2016-10-30T09:26:23.000Z</time>
      </trkpt>
      <trkpt lat="47.44599" lon="6.91274">
        <ele>598</ele>
        <time>2016-10-30T09:26:24.000Z</time>
      </trkpt>
      <trkpt lat="47.44595" lon="6.91276">
        <ele>598</ele>
        <time>2016-10-30T09:26:25.000Z</time>
      </trkpt>
      <trkpt lat="47.44591" lon="6.91278">
        <ele>598</ele>
        <time>2016-10-30T09:26:26.000Z</time>
      </trkpt>
      <trkpt lat="47.44587" lon="6.9128">
        <ele>598</ele>
        <time>2016-10-30T09:26:27.000Z</time>
      </trkpt>
      <trkpt lat="47.44584" lon="6.91282">
        <ele>598</ele>
        <time>2016-10-30T09:26:28.000Z</time>
      </trkpt>
      <trkpt lat="47.44581" lon="6.91284">
        <ele>593</ele>
        <time>2016-10-30T09:26:29.000Z</time>
      </trkpt>
      <trkpt lat="47.44577" lon="6.91286">
        <ele>593</ele>
        <time>2016-10-30T09:26:30.000Z</time>
      </trkpt>
      <trkpt lat="47.44574" lon="6.91287">
        <ele>593</ele>
        <time>2016-10-30T09:26:31.000Z</time>
      </trkpt>
      <trkpt lat="47.44571" lon="6.91289">
        <ele>593</ele>
        <time>2016-10-30T09:26:32.000Z</time>
      </trkpt>
      <trkpt lat="47.44567" lon="6.9129">
        <ele>593</ele>
        <time>2016-10-30T09:26:33.000Z</time>
      </trkpt>
      <trkpt lat="47.44564" lon="6.91292">
        <ele>593</ele>
        <time>2016-10-30T09:26:34.000Z</time>
      </trkpt>
      <trkpt lat="47.4456" lon="6.91294">
        <ele>593</ele>
        <time>2016-10-30T09:26:35.000Z</time>
      </trkpt>
      <trkpt lat="47.44555" lon="6.91297">
        <ele>592</ele>
        <time>2016-10-30T09:26:36.000Z</time>
      </trkpt>
      <trkpt lat="47.4455" lon="6.91301">
        <ele>592</ele>
        <time>2016-10-30T09:26:37.000Z</time>
      </trkpt>
      <trkpt lat="47.44545" lon="6.91304">
        <ele>592</ele>
        <time>2016-10-30T09:26:38.000Z</time>
      </trkpt>
      <trkpt lat="47.4454" lon="6.91308">
        <ele>592</ele>
        <time>2016-10-30T09:26:39.000Z</time>
      </trkpt>
      <trkpt lat="47.44536" lon="6.91312">
        <ele>592</ele>
        <time>2016-10-30T09:26:40.000Z</time>
      </trkpt>
      <trkpt lat="47.44532" lon="6.91316">
        <ele>591</ele>
        <time>2016-10-30T09:26:41.000Z</time>
      </trkpt>
      <trkpt lat="47.44527" lon="6.9132">
        <ele>591</ele>
        <time>2016-10-30T09:26:42.000Z</time>
      </trkpt>
      <trkpt lat="47.44523" lon="6.91325">
        <ele>591</ele>
        <time>2016-10-30T09:26:43.000Z</time>
      </trkpt>
      <trkpt lat="47.44518" lon="6.91329">
        <ele>590</ele>
        <time>2016-10-30T09:26:44.000Z</time>
      </trkpt>
      <trkpt lat="47.44514" lon="6.91333">
        <ele>590</ele>
        <time>2016-10-30T09:26:45.000Z</time>
      </trkpt>
      <trkpt lat="47.4451" lon="6.91338">
        <ele>591</ele>
        <time>2016-10-30T09:26:46.000Z</time>
      </trkpt>
      <trkpt lat="47.44506" lon="6.91341">
        <ele>591</ele>
        <time>2016-10-30T09:26:47.000Z</time>
      </trkpt>
      <trkpt lat="47.44501" lon="6.91344">
        <ele>591</ele>
        <time>2016-10-30T09:26:48.000Z</time>
      </trkpt>
      <trkpt lat="47.44497" lon="6.91347">
        <ele>586</ele>
        <time>2016-10-30T09:26:49.000Z</time>
      </trkpt>
      <trkpt lat="47.44493" lon="6.9135">
        <ele>586</ele>
        <time>2016-10-30T09:26:50.000Z</time>
      </trkpt>
      <trkpt lat="47.4449" lon="6.91352">
        <ele>585</ele>
        <time>2016-10-30T09:26:51.000Z</time>
      </trkpt>
      <trkpt lat="47.44487" lon="6.91354">
        <ele>585</ele>
        <time>2016-10-30T09:26:52.000Z</time>
      </trkpt>
      <trkpt lat="47.44483" lon="6.91356">
        <ele>584</ele>
        <time>2016-10-30T09:26:53.000Z</time>
      </trkpt>
      <trkpt lat="47.4448" lon="6.91359">
        <ele>584</ele>
        <time>2016-10-30T09:26:54.000Z</time>
      </trkpt>
      <trkpt lat="47.44476" lon="6.91363">
        <ele>584</ele>
        <time>2016-10-30T09:26:55.000Z</time>
      </trkpt>
      <trkpt lat="47.44473" lon="6.91367">
        <ele>583</ele>
        <time>2016-10-30T09:26:56.000Z</time>
      </trkpt>
      <trkpt lat="47.44467" lon="6.91369">
        <ele>583</ele>
        <time>2016-10-30T09:26:57.000Z</time>
      </trkpt>
      <trkpt lat="47.44463" lon="6.91372">
        <ele>583</ele>
        <time>2016-10-30T09:26:58.000Z</time>
      </trkpt>
      <trkpt lat="47.4446" lon="6.91375">
        <ele>582</ele>
        <time>2016-10-30T09:26:59.000Z</time>
      </trkpt>
      <trkpt lat="47.44456" lon="6.91378">
        <ele>582</ele>
        <time>2016-10-30T09:27:00.000Z</time>
      </trkpt>
      <trkpt lat="47.44452" lon="6.9138">
        <ele>582</ele>
        <time>2016-10-30T09:27:01.000Z</time>
      </trkpt>
      <trkpt lat="47.44448" lon="6.91383">
        <ele>582</ele>
        <time>2016-10-30T09:27:02.000Z</time>
      </trkpt>
      <trkpt lat="47.44444" lon="6.91386">
        <ele>581</ele>
        <time>2016-10-30T09:27:03.000Z</time>
      </trkpt>
      <trkpt lat="47.4444" lon="6.91389">
        <ele>581</ele>
        <time>2016-10-30T09:27:04.000Z</time>
      </trkpt>
      <trkpt lat="47.44435" lon="6.91391">
        <ele>581</ele>
        <time>2016-10-30T09:27:05.000Z</time>
      </trkpt>
      <trkpt lat="47.44431" lon="6.91393">
        <ele>580</ele>
        <time>2016-10-30T09:27:06.000Z</time>
      </trkpt>
      <trkpt lat="47.44428" lon="6.91396">
        <ele>580</ele>
        <time>2016-10-30T09:27:07.000Z</time>
      </trkpt>
      <trkpt lat="47.44424" lon="6.91398">
        <ele>580</ele>
        <time>2016-10-30T09:27:07.999Z</time>
      </trkpt>
      <trkpt lat="47.4442" lon="6.91401">
        <ele>579</ele>
        <time>2016-10-30T09:27:09.000Z</time>
      </trkpt>
      <trkpt lat="47.44416" lon="6.91404">
        <ele>576</ele>
        <time>2016-10-30T09:27:10.000Z</time>
      </trkpt>
      <trkpt lat="47.44412" lon="6.91407">
        <ele>576</ele>
        <time>2016-10-30T09:27:11.000Z</time>
      </trkpt>
      <trkpt lat="47.44408" lon="6.91409">
        <ele>576</ele>
        <time>2016-10-30T09:27:12.000Z</time>
      </trkpt>
      <trkpt lat="47.44404" lon="6.91411">
        <ele>575</ele>
        <time>2016-10-30T09:27:13.000Z</time>
      </trkpt>
      <trkpt lat="47.444" lon="6.91413">
        <ele>575</ele>
        <time>2016-10-30T09:27:14.000Z</time>
      </trkpt>
      <trkpt lat="47.44395" lon="6.91416">
        <ele>575</ele>
        <time>2016-10-30T09:27:15.000Z</time>
      </trkpt>
      <trkpt lat="47.44391" lon="6.91418">
        <ele>576</ele>
        <time>2016-10-30T09:27:16.000Z</time>
      </trkpt>
      <trkpt lat="47.44386" lon="6.91421">
        <ele>575</ele>
        <time>2016-10-30T09:27:17.000Z</time>
      </trkpt>
      <trkpt lat="47.44382" lon="6.91424">
        <ele>575</ele>
        <time>2016-10-30T09:27:18.000Z</time>
      </trkpt>
      <trkpt lat="47.44377" lon="6.91427">
        <ele>575</ele>
        <time>2016-10-30T09:27:19.000Z</time>
      </trkpt>
      <trkpt lat="47.44373" lon="6.91431">
        <ele>575</ele>
        <time>2016-10-30T09:27:20.000Z</time>
      </trkpt>
      <trkpt lat="47.44369" lon="6.91434">
        <ele>575</ele>
        <time>2016-10-30T09:27:20.999Z</time>
      </trkpt>
      <trkpt lat="47.44365" lon="6.91439">
        <ele>575</ele>
        <time>2016-10-30T09:27:22.000Z</time>
      </trkpt>
      <trkpt lat="47.44362" lon="6.91443">
        <ele>575</ele>
        <time>2016-10-30T09:27:23.000Z</time>
      </trkpt>
      <trkpt lat="47.44357" lon="6.91447">
        <ele>574</ele>
        <time>2016-10-30T09:27:24.000Z</time>
      </trkpt>
      <trkpt lat="47.44354" lon="6.91452">
        <ele>574</ele>
        <time>2016-10-30T09:27:25.000Z</time>
      </trkpt>
      <trkpt lat="47.4435" lon="6.91458">
        <ele>574</ele>
        <time>2016-10-30T09:27:26.000Z</time>
      </trkpt>
      <trkpt lat="47.44347" lon="6.91463">
        <ele>574</ele>
        <time>2016-10-30T09:27:27.000Z</time>
      </trkpt>
      <trkpt lat="47.44343" lon="6.91469">
        <ele>574</ele>
        <time>2016-10-30T09:27:28.000Z</time>
      </trkpt>
      <trkpt lat="47.44339" lon="6.91474">
        <ele>574</ele>
        <time>2016-10-30T09:27:29.000Z</time>
      </trkpt>
      <trkpt lat="47.44336" lon="6.91478">
        <ele>574</ele>
        <time>2016-10-30T09:27:30.000Z</time>
      </trkpt>
      <trkpt lat="47.44333" lon="6.91481">
        <ele>572</ele>
        <time>2016-10-30T09:27:31.000Z</time>
      </trkpt>
      <trkpt lat="47.4433" lon="6.91484">
        <ele>572</ele>
        <time>2016-10-30T09:27:32.000Z</time>
      </trkpt>
      <trkpt lat="47.44326" lon="6.91488">
        <ele>572</ele>
        <time>2016-10-30T09:27:33.000Z</time>
      </trkpt>
      <trkpt lat="47.44323" lon="6.91489">
        <ele>572</ele>
        <time>2016-10-30T09:27:34.000Z</time>
      </trkpt>
      <trkpt lat="47.44319" lon="6.91492">
        <ele>572</ele>
        <time>2016-10-30T09:27:35.000Z</time>
      </trkpt>
      <trkpt lat="47.44316" lon="6.91494">
        <ele>572</ele>
        <time>2016-10-30T09:27:36.000Z</time>
      </trkpt>
      <trkpt lat="47.44312" lon="6.91495">
        <ele>572</ele>
        <time>2016-10-30T09:27:37.000Z</time>
      </trkpt>
      <trkpt lat="47.44309" lon="6.91498">
        <ele>572</ele>
        <time>2016-10-30T09:27:38.000Z</time>
      </trkpt>
      <trkpt lat="47.44306" lon="6.915">
        <ele>572</ele>
        <time>2016-10-30T09:27:39.000Z</time>
      </trkpt>
      <trkpt lat="47.44302" lon="6.91503">
        <ele>572</ele>
        <time>2016-10-30T09:27:40.000Z</time>
      </trkpt>
      <trkpt lat="47.44298" lon="6.91505">
        <ele>572</ele>
        <time>2016-10-30T09:27:41.000Z</time>
      </trkpt>
      <trkpt lat="47.44295" lon="6.91507">
        <ele>572</ele>
        <time>2016-10-30T09:27:42.000Z</time>
      </trkpt>
      <trkpt lat="47.44291" lon="6.9151">
        <ele>572</ele>
        <time>2016-10-30T09:27:43.000Z</time>
      </trkpt>
      <trkpt lat="47.44287" lon="6.91512">
        <ele>572</ele>
        <time>2016-10-30T09:27:44.000Z</time>
      </trkpt>
      <trkpt lat="47.44283" lon="6.91513">
        <ele>572</ele>
        <time>2016-10-30T09:27:45.000Z</time>
      </trkpt>
      <trkpt lat="47.44279" lon="6.91515">
        <ele>572</ele>
        <time>2016-10-30T09:27:46.000Z</time>
      </trkpt>
      <trkpt lat="47.44276" lon="6.91517">
        <ele>572</ele>
        <time>2016-10-30T09:27:47.000Z</time>
      </trkpt>
      <trkpt lat="47.44272" lon="6.91519">
        <ele>572</ele>
        <time>2016-10-30T09:27:48.000Z</time>
      </trkpt>
      <trkpt lat="47.44268" lon="6.91521">
        <ele>572</ele>
        <time>2016-10-30T09:27:49.000Z</time>
      </trkpt>
      <trkpt lat="47.44265" lon="6.91523">
        <ele>572</ele>
        <time>2016-10-30T09:27:50.000Z</time>
      </trkpt>
      <trkpt lat="47.44261" lon="6.91524">
        <ele>572</ele>
        <time>2016-10-30T09:27:51.000Z</time>
      </trkpt>
      <trkpt lat="47.44258" lon="6.91526">
        <ele>572</ele>
        <time>2016-10-30T09:27:52.000Z</time>
      </trkpt>
      <trkpt lat="47.44254" lon="6.91528">
        <ele>572</ele>
        <time>2016-10-30T09:27:53.000Z</time>
      </trkpt>
      <trkpt lat="47.44251" lon="6.9153">
        <ele>572</ele>
        <time>2016-10-30T09:27:54.000Z</time>
      </trkpt>
      <trkpt lat="47.44247" lon="6.91531">
        <ele>574</ele>
        <time>2016-10-30T09:27:55.000Z</time>
      </trkpt>
      <trkpt lat="47.44244" lon="6.91533">
        <ele>574</ele>
        <time>2016-10-30T09:27:56.000Z</time>
      </trkpt>
      <trkpt lat="47.4424" lon="6.91534">
        <ele>574</ele>
        <time>2016-10-30T09:27:57.000Z</time>
      </trkpt>
      <trkpt lat="47.44237" lon="6.91536">
        <ele>574</ele>
        <time>2016-10-30T09:27:58.000Z</time>
      </trkpt>
      <trkpt lat="47.44234" lon="6.91537">
        <ele>575</ele>
        <time>2016-10-30T09:27:59.000Z</time>
      </trkpt>
      <trkpt lat="47.44231" lon="6.91539">
        <ele>575</ele>
        <time>2016-10-30T09:28:00.000Z</time>
      </trkpt>
      <trkpt lat="47.44228" lon="6.9154">
        <ele>575</ele>
        <time>2016-10-30T09:28:01.000Z</time>
      </trkpt>
      <trkpt lat="47.44225" lon="6.91541">
        <ele>575</ele>
        <time>2016-10-30T09:28:02.000Z</time>
      </trkpt>
      <trkpt lat="47.44223" lon="6.91541">
        <ele>575</ele>
        <time>2016-10-30T09:28:03.000Z</time>
      </trkpt>
      <trkpt lat="47.4422" lon="6.91541">
        <ele>575</ele>
        <time>2016-10-30T09:28:04.000Z</time>
      </trkpt>
      <trkpt lat="47.44218" lon="6.91541">
        <ele>575</ele>
        <time>2016-10-30T09:28:05.000Z</time>
      </trkpt>
      <trkpt lat="47.44215" lon="6.91541">
        <ele>575</ele>
        <time>2016-10-30T09:28:06.000Z</time>
      </trkpt>
      <trkpt lat="47.44213" lon="6.91541">
        <ele>575</ele>
        <time>2016-10-30T09:28:07.000Z</time>
      </trkpt>
      <trkpt lat="47.4421" lon="6.91542">
        <ele>575</ele>
        <time>2016-10-30T09:28:08.000Z</time>
      </trkpt>
      <trkpt lat="47.44207" lon="6.91542">
        <ele>576</ele>
        <time>2016-10-30T09:28:09.000Z</time>
      </trkpt>
      <trkpt lat="47.44204" lon="6.91543">
        <ele>576</ele>
        <time>2016-10-30T09:28:10.000Z</time>
      </trkpt>
      <trkpt lat="47.44201" lon="6.91543">
        <ele>576</ele>
        <time>2016-10-30T09:28:11.000Z</time>
      </trkpt>
      <trkpt lat="47.44198" lon="6.91544">
        <ele>576</ele>
        <time>2016-10-30T09:28:12.000Z</time>
      </trkpt>
      <trkpt lat="47.44196" lon="6.91545">
        <ele>576</ele>
        <time>2016-10-30T09:28:13.000Z</time>
      </trkpt>
      <trkpt lat="47.44193" lon="6.91546">
        <ele>576</ele>
        <time>2016-10-30T09:28:14.000Z</time>
      </trkpt>
      <trkpt lat="47.4419" lon="6.91546">
        <ele>576</ele>
        <time>2016-10-30T09:28:15.000Z</time>
      </trkpt>
      <trkpt lat="47.44188" lon="6.91547">
        <ele>576</ele>
        <time>2016-10-30T09:28:16.000Z</time>
      </trkpt>
      <trkpt lat="47.44185" lon="6.91547">
        <ele>576</ele>
        <time>2016-10-30T09:28:17.000Z</time>
      </trkpt>
      <trkpt lat="47.44183" lon="6.91548">
        <ele>577</ele>
        <time>2016-10-30T09:28:18.000Z</time>
      </trkpt>
      <trkpt lat="47.4418" lon="6.91549">
        <ele>577</ele>
        <time>2016-10-30T09:28:19.000Z</time>
      </trkpt>
      <trkpt lat="47.44177" lon="6.91549">
        <ele>577</ele>
        <time>2016-10-30T09:28:20.000Z</time>
      </trkpt>
      <trkpt lat="47.44174" lon="6.9155">
        <ele>577</ele>
        <time>2016-10-30T09:28:21.000Z</time>
      </trkpt>
      <trkpt lat="47.44172" lon="6.91551">
        <ele>577</ele>
        <time>2016-10-30T09:28:22.000Z</time>
      </trkpt>
      <trkpt lat="47.4417" lon="6.91552">
        <ele>577</ele>
        <time>2016-10-30T09:28:23.000Z</time>
      </trkpt>
      <trkpt lat="47.44167" lon="6.91552">
        <ele>577</ele>
        <time>2016-10-30T09:28:24.000Z</time>
      </trkpt>
      <trkpt lat="47.44163" lon="6.91553">
        <ele>582</ele>
        <time>2016-10-30T09:28:26.000Z</time>
      </trkpt>
      <trkpt lat="47.44161" lon="6.91554">
        <ele>583</ele>
        <time>2016-10-30T09:28:27.000Z</time>
      </trkpt>
      <trkpt lat="47.44159" lon="6.91554">
        <ele>583</ele>
        <time>2016-10-30T09:28:28.000Z</time>
      </trkpt>
      <trkpt lat="47.44156" lon="6.91555">
        <ele>583</ele>
        <time>2016-10-30T09:28:29.000Z</time>
      </trkpt>
      <trkpt lat="47.44154" lon="6.91555">
        <ele>583</ele>
        <time>2016-10-30T09:28:30.000Z</time>
      </trkpt>
      <trkpt lat="47.44152" lon="6.91556">
        <ele>583</ele>
        <time>2016-10-30T09:28:31.000Z</time>
      </trkpt>
      <trkpt lat="47.44149" lon="6.91556">
        <ele>583</ele>
        <time>2016-10-30T09:28:33.000Z</time>
      </trkpt>
      <trkpt lat="47.44147" lon="6.91556">
        <ele>583</ele>
        <time>2016-10-30T09:28:34.000Z</time>
      </trkpt>
      <trkpt lat="47.44143" lon="6.91556">
        <ele>583</ele>
        <time>2016-10-30T09:28:37.000Z</time>
      </trkpt>
      <trkpt lat="47.44141" lon="6.91557">
        <ele>584</ele>
        <time>2016-10-30T09:28:38.000Z</time>
      </trkpt>
      <trkpt lat="47.44138" lon="6.91557">
        <ele>584</ele>
        <time>2016-10-30T09:28:40.000Z</time>
      </trkpt>
      <trkpt lat="47.44136" lon="6.91557">
        <ele>584</ele>
        <time>2016-10-30T09:28:41.000Z</time>
      </trkpt>
      <trkpt lat="47.44132" lon="6.91557">
        <ele>584</ele>
        <time>2016-10-30T09:28:43.000Z</time>
      </trkpt>
      <trkpt lat="47.44131" lon="6.91558">
        <ele>584</ele>
        <time>2016-10-30T09:28:44.000Z</time>
      </trkpt>
      <trkpt lat="47.44127" lon="6.91558">
        <ele>585</ele>
        <time>2016-10-30T09:28:46.000Z</time>
      </trkpt>
      <trkpt lat="47.44125" lon="6.91558">
        <ele>585</ele>
        <time>2016-10-30T09:28:47.000Z</time>
      </trkpt>
      <trkpt lat="47.44121" lon="6.91558">
        <ele>585</ele>
        <time>2016-10-30T09:28:49.000Z</time>
      </trkpt>
      <trkpt lat="47.4412" lon="6.91559">
        <ele>585</ele>
        <time>2016-10-30T09:28:50.000Z</time>
      </trkpt>
      <trkpt lat="47.44117" lon="6.91559">
        <ele>585</ele>
        <time>2016-10-30T09:28:52.000Z</time>
      </trkpt>
      <trkpt lat="47.44115" lon="6.91559">
        <ele>585</ele>
        <time>2016-10-30T09:28:53.000Z</time>
      </trkpt>
      <trkpt lat="47.44111" lon="6.91559">
        <ele>586</ele>
        <time>2016-10-30T09:28:56.000Z</time>
      </trkpt>
      <trkpt lat="47.44109" lon="6.9156">
        <ele>586</ele>
        <time>2016-10-30T09:28:57.000Z</time>
      </trkpt>
      <trkpt lat="47.44107" lon="6.9156">
        <ele>586</ele>
        <time>2016-10-30T09:28:59.000Z</time>
      </trkpt>
      <trkpt lat="47.44105" lon="6.9156">
        <ele>586</ele>
        <time>2016-10-30T09:29:00.000Z</time>
      </trkpt>
      <trkpt lat="47.44101" lon="6.9156">
        <ele>586</ele>
        <time>2016-10-30T09:29:02.000Z</time>
      </trkpt>
      <trkpt lat="47.44099" lon="6.9156">
        <ele>587</ele>
        <time>2016-10-30T09:29:03.001Z</time>
      </trkpt>
      <trkpt lat="47.44095" lon="6.91561">
        <ele>587</ele>
        <time>2016-10-30T09:29:11.000Z</time>
      </trkpt>
      <trkpt lat="47.44094" lon="6.9156">
        <ele>587</ele>
        <time>2016-10-30T09:29:12.000Z</time>
      </trkpt>
      <trkpt lat="47.4409" lon="6.91561">
        <ele>587</ele>
        <time>2016-10-30T09:29:15.000Z</time>
      </trkpt>
      <trkpt lat="47.44088" lon="6.91562">
        <ele>587</ele>
        <time>2016-10-30T09:29:16.000Z</time>
      </trkpt>
      <trkpt lat="47.44085" lon="6.91564">
        <ele>587</ele>
        <time>2016-10-30T09:29:18.000Z</time>
      </trkpt>
      <trkpt lat="47.44082" lon="6.91564">
        <ele>593</ele>
        <time>2016-10-30T09:29:19.000Z</time>
      </trkpt>
      <trkpt lat="47.4408" lon="6.91564">
        <ele>593</ele>
        <time>2016-10-30T09:29:20.000Z</time>
      </trkpt>
      <trkpt lat="47.44078" lon="6.91564">
        <ele>593</ele>
        <time>2016-10-30T09:29:21.000Z</time>
      </trkpt>
      <trkpt lat="47.44074" lon="6.91565">
        <ele>593</ele>
        <time>2016-10-30T09:29:23.000Z</time>
      </trkpt>
      <trkpt lat="47.44073" lon="6.91566">
        <ele>593</ele>
        <time>2016-10-30T09:29:24.000Z</time>
      </trkpt>
      <trkpt lat="47.44068" lon="6.91567">
        <ele>593</ele>
        <time>2016-10-30T09:29:27.000Z</time>
      </trkpt>
      <trkpt lat="47.44066" lon="6.91568">
        <ele>594</ele>
        <time>2016-10-30T09:29:28.000Z</time>
      </trkpt>
      <trkpt lat="47.44063" lon="6.91568">
        <ele>594</ele>
        <time>2016-10-30T09:29:30.000Z</time>
      </trkpt>
      <trkpt lat="47.44061" lon="6.91568">
        <ele>594</ele>
        <time>2016-10-30T09:29:31.000Z</time>
      </trkpt>
      <trkpt lat="47.44057" lon="6.91567">
        <ele>594</ele>
        <time>2016-10-30T09:29:34.000Z</time>
      </trkpt>
      <trkpt lat="47.44056" lon="6.91567">
        <ele>594</ele>
        <time>2016-10-30T09:29:35.000Z</time>
      </trkpt>
      <trkpt lat="47.44053" lon="6.91567">
        <ele>595</ele>
        <time>2016-10-30T09:29:37.000Z</time>
      </trkpt>
      <trkpt lat="47.44051" lon="6.91567">
        <ele>595</ele>
        <time>2016-10-30T09:29:38.000Z</time>
      </trkpt>
      <trkpt lat="47.44048" lon="6.91567">
        <ele>595</ele>
        <time>2016-10-30T09:29:40.000Z</time>
      </trkpt>
      <trkpt lat="47.44046" lon="6.91567">
        <ele>595</ele>
        <time>2016-10-30T09:29:41.000Z</time>
      </trkpt>
      <trkpt lat="47.44042" lon="6.91567">
        <ele>596</ele>
        <time>2016-10-30T09:29:43.000Z</time>
      </trkpt>
      <trkpt lat="47.44041" lon="6.91567">
        <ele>596</ele>
        <time>2016-10-30T09:29:43.999Z</time>
      </trkpt>
      <trkpt lat="47.44037" lon="6.91567">
        <ele>596</ele>
        <time>2016-10-30T09:29:46.000Z</time>
      </trkpt>
      <trkpt lat="47.44036" lon="6.91567">
        <ele>596</ele>
        <time>2016-10-30T09:29:46.999Z</time>
      </trkpt>
      <trkpt lat="47.44032" lon="6.91567">
        <ele>596</ele>
        <time>2016-10-30T09:29:49.000Z</time>
      </trkpt>
      <trkpt lat="47.4403" lon="6.91567">
        <ele>596</ele>
        <time>2016-10-30T09:29:50.000Z</time>
      </trkpt>
      <trkpt lat="47.44027" lon="6.91568">
        <ele>597</ele>
        <time>2016-10-30T09:29:52.000Z</time>
      </trkpt>
      <trkpt lat="47.44025" lon="6.91568">
        <ele>597</ele>
        <time>2016-10-30T09:29:53.000Z</time>
      </trkpt>
      <trkpt lat="47.44021" lon="6.91569">
        <ele>597</ele>
        <time>2016-10-30T09:29:55.000Z</time>
      </trkpt>
      <trkpt lat="47.4402" lon="6.91569">
        <ele>597</ele>
        <time>2016-10-30T09:29:55.999Z</time>
      </trkpt>
      <trkpt lat="47.44016" lon="6.9157">
        <ele>597</ele>
        <time>2016-10-30T09:29:58.000Z</time>
      </trkpt>
      <trkpt lat="47.44014" lon="6.91571">
        <ele>597</ele>
        <time>2016-10-30T09:29:59.000Z</time>
      </trkpt>
      <trkpt lat="47.44011" lon="6.91572">
        <ele>598</ele>
        <time>2016-10-30T09:30:01.000Z</time>
      </trkpt>
      <trkpt lat="47.44009" lon="6.91573">
        <ele>598</ele>
        <time>2016-10-30T09:30:02.000Z</time>
      </trkpt>
      <trkpt lat="47.44006" lon="6.91574">
        <ele>598</ele>
        <time>2016-10-30T09:30:04.000Z</time>
      </trkpt>
      <trkpt lat="47.44004" lon="6.91575">
        <ele>598</ele>
        <time>2016-10-30T09:30:05.000Z</time>
      </trkpt>
      <trkpt lat="47.44001" lon="6.91576">
        <ele>598</ele>
        <time>2016-10-30T09:30:07.000Z</time>
      </trkpt>
      <trkpt lat="47.43999" lon="6.91577">
        <ele>599</ele>
        <time>2016-10-30T09:30:08.000Z</time>
      </trkpt>
      <trkpt lat="47.43995" lon="6.91577">
        <ele>600</ele>
        <time>2016-10-30T09:30:10.000Z</time>
      </trkpt>
      <trkpt lat="47.43993" lon="6.91577">
        <ele>600</ele>
        <time>2016-10-30T09:30:11.000Z</time>
      </trkpt>
      <trkpt lat="47.43989" lon="6.91578">
        <ele>600</ele>
        <time>2016-10-30T09:30:13.000Z</time>
      </trkpt>
      <trkpt lat="47.43987" lon="6.91578">
        <ele>600</ele>
        <time>2016-10-30T09:30:14.000Z</time>
      </trkpt>
      <trkpt lat="47.43984" lon="6.91579">
        <ele>600</ele>
        <time>2016-10-30T09:30:16.000Z</time>
      </trkpt>
      <trkpt lat="47.43982" lon="6.91579">
        <ele>600</ele>
        <time>2016-10-30T09:30:17.000Z</time>
      </trkpt>
      <trkpt lat="47.43978" lon="6.91579">
        <ele>600</ele>
        <time>2016-10-30T09:30:19.000Z</time>
      </trkpt>
      <trkpt lat="47.43977" lon="6.9158">
        <ele>600</ele>
        <time>2016-10-30T09:30:20.000Z</time>
      </trkpt>
      <trkpt lat="47.43974" lon="6.9158">
        <ele>600</ele>
        <time>2016-10-30T09:30:22.000Z</time>
      </trkpt>
      <trkpt lat="47.43972" lon="6.9158">
        <ele>600</ele>
        <time>2016-10-30T09:30:23.000Z</time>
      </trkpt>
      <trkpt lat="47.43968" lon="6.9158">
        <ele>600</ele>
        <time>2016-10-30T09:30:25.000Z</time>
      </trkpt>
      <trkpt lat="47.43966" lon="6.9158">
        <ele>600</ele>
        <time>2016-10-30T09:30:26.000Z</time>
      </trkpt>
      <trkpt lat="47.43962" lon="6.91581">
        <ele>600</ele>
        <time>2016-10-30T09:30:28.000Z</time>
      </trkpt>
      <trkpt lat="47.4396" lon="6.91581">
        <ele>600</ele>
        <time>2016-10-30T09:30:29.000Z</time>
      </trkpt>
      <trkpt lat="47.43956" lon="6.91582">
        <ele>600</ele>
        <time>2016-10-30T09:30:31.000Z</time>
      </trkpt>
      <trkpt lat="47.43954" lon="6.91582">
        <ele>600</ele>
        <time>2016-10-30T09:30:32.000Z</time>
      </trkpt>
      <trkpt lat="47.43952" lon="6.91582">
        <ele>600</ele>
        <time>2016-10-30T09:30:33.000Z</time>
      </trkpt>
      <trkpt lat="47.4395" lon="6.91583">
        <ele>600</ele>
        <time>2016-10-30T09:30:34.000Z</time>
      </trkpt>
      <trkpt lat="47.43947" lon="6.91584">
        <ele>599</ele>
        <time>2016-10-30T09:30:35.000Z</time>
      </trkpt>
      <trkpt lat="47.43945" lon="6.91584">
        <ele>599</ele>
        <time>2016-10-30T09:30:36.000Z</time>
      </trkpt>
      <trkpt lat="47.43942" lon="6.91584">
        <ele>599</ele>
        <time>2016-10-30T09:30:37.000Z</time>
      </trkpt>
      <trkpt lat="47.43939" lon="6.91584">
        <ele>599</ele>
        <time>2016-10-30T09:30:38.000Z</time>
      </trkpt>
      <trkpt lat="47.43937" lon="6.91584">
        <ele>599</ele>
        <time>2016-10-30T09:30:39.000Z</time>
      </trkpt>
      <trkpt lat="47.43934" lon="6.91584">
        <ele>599</ele>
        <time>2016-10-30T09:30:40.000Z</time>
      </trkpt>
      <trkpt lat="47.43931" lon="6.91584">
        <ele>599</ele>
        <time>2016-10-30T09:30:41.000Z</time>
      </trkpt>
      <trkpt lat="47.43928" lon="6.91584">
        <ele>599</ele>
        <time>2016-10-30T09:30:42.000Z</time>
      </trkpt>
      <trkpt lat="47.43925" lon="6.91583">
        <ele>600</ele>
        <time>2016-10-30T09:30:43.000Z</time>
      </trkpt>
      <trkpt lat="47.43923" lon="6.91583">
        <ele>600</ele>
        <time>2016-10-30T09:30:44.000Z</time>
      </trkpt>
      <trkpt lat="47.4392" lon="6.91583">
        <ele>600</ele>
        <time>2016-10-30T09:30:45.000Z</time>
      </trkpt>
      <trkpt lat="47.43918" lon="6.91582">
        <ele>600</ele>
        <time>2016-10-30T09:30:46.000Z</time>
      </trkpt>
      <trkpt lat="47.43915" lon="6.91582">
        <ele>600</ele>
        <time>2016-10-30T09:30:47.000Z</time>
      </trkpt>
      <trkpt lat="47.43913" lon="6.91581">
        <ele>600</ele>
        <time>2016-10-30T09:30:48.000Z</time>
      </trkpt>
      <trkpt lat="47.43911" lon="6.91581">
        <ele>600</ele>
        <time>2016-10-30T09:30:49.000Z</time>
      </trkpt>
      <trkpt lat="47.43908" lon="6.91581">
        <ele>600</ele>
        <time>2016-10-30T09:30:50.000Z</time>
      </trkpt>
      <trkpt lat="47.43906" lon="6.9158">
        <ele>599</ele>
        <time>2016-10-30T09:30:51.000Z</time>
      </trkpt>
      <trkpt lat="47.43903" lon="6.9158">
        <ele>599</ele>
        <time>2016-10-30T09:30:52.000Z</time>
      </trkpt>
      <trkpt lat="47.43901" lon="6.91579">
        <ele>599</ele>
        <time>2016-10-30T09:30:53.000Z</time>
      </trkpt>
      <trkpt lat="47.43898" lon="6.91579">
        <ele>599</ele>
        <time>2016-10-30T09:30:54.000Z</time>
      </trkpt>
      <trkpt lat="47.43895" lon="6.91578">
        <ele>599</ele>
        <time>2016-10-30T09:30:55.000Z</time>
      </trkpt>
      <trkpt lat="47.43893" lon="6.91577">
        <ele>599</ele>
        <time>2016-10-30T09:30:56.001Z</time>
      </trkpt>
      <trkpt lat="47.4389" lon="6.91576">
        <ele>599</ele>
        <time>2016-10-30T09:30:57.000Z</time>
      </trkpt>
      <trkpt lat="47.43887" lon="6.91575">
        <ele>599</ele>
        <time>2016-10-30T09:30:58.000Z</time>
      </trkpt>
      <trkpt lat="47.43884" lon="6.91574">
        <ele>599</ele>
        <time>2016-10-30T09:30:59.000Z</time>
      </trkpt>
      <trkpt lat="47.43881" lon="6.91573">
        <ele>599</ele>
        <time>2016-10-30T09:31:00.000Z</time>
      </trkpt>
      <trkpt lat="47.43878" lon="6.91571">
        <ele>598</ele>
        <time>2016-10-30T09:31:01.000Z</time>
      </trkpt>
      <trkpt lat="47.43876" lon="6.9157">
        <ele>598</ele>
        <time>2016-10-30T09:31:02.000Z</time>
      </trkpt>
      <trkpt lat="47.43873" lon="6.91569">
        <ele>598</ele>
        <time>2016-10-30T09:31:03.000Z</time>
      </trkpt>
      <trkpt lat="47.4387" lon="6.91567">
        <ele>598</ele>
        <time>2016-10-30T09:31:04.000Z</time>
      </trkpt>
      <trkpt lat="47.43867" lon="6.91566">
        <ele>598</ele>
        <time>2016-10-30T09:31:05.000Z</time>
      </trkpt>
      <trkpt lat="47.43864" lon="6.91565">
        <ele>598</ele>
        <time>2016-10-30T09:31:06.000Z</time>
      </trkpt>
      <trkpt lat="47.43862" lon="6.91563">
        <ele>598</ele>
        <time>2016-10-30T09:31:07.000Z</time>
      </trkpt>
      <trkpt lat="47.43859" lon="6.91562">
        <ele>598</ele>
        <time>2016-10-30T09:31:08.000Z</time>
      </trkpt>
      <trkpt lat="47.43857" lon="6.91562">
        <ele>598</ele>
        <time>2016-10-30T09:31:09.000Z</time>
      </trkpt>
      <trkpt lat="47.43854" lon="6.91561">
        <ele>598</ele>
        <time>2016-10-30T09:31:10.000Z</time>
      </trkpt>
      <trkpt lat="47.43852" lon="6.9156">
        <ele>598</ele>
        <time>2016-10-30T09:31:11.000Z</time>
      </trkpt>
      <trkpt lat="47.43849" lon="6.91559">
        <ele>598</ele>
        <time>2016-10-30T09:31:12.000Z</time>
      </trkpt>
      <trkpt lat="47.43847" lon="6.91558">
        <ele>598</ele>
        <time>2016-10-30T09:31:13.000Z</time>
      </trkpt>
      <trkpt lat="47.43844" lon="6.91557">
        <ele>598</ele>
        <time>2016-10-30T09:31:14.000Z</time>
      </trkpt>
      <trkpt lat="47.43841" lon="6.91556">
        <ele>598</ele>
        <time>2016-10-30T09:31:15.000Z</time>
      </trkpt>
      <trkpt lat="47.43839" lon="6.91556">
        <ele>598</ele>
        <time>2016-10-30T09:31:16.000Z</time>
      </trkpt>
      <trkpt lat="47.43836" lon="6.91555">
        <ele>598</ele>
        <time>2016-10-30T09:31:17.000Z</time>
      </trkpt>
      <trkpt lat="47.43834" lon="6.91554">
        <ele>598</ele>
        <time>2016-10-30T09:31:18.000Z</time>
      </trkpt>
      <trkpt lat="47.43831" lon="6.91554">
        <ele>596</ele>
        <time>2016-10-30T09:31:19.000Z</time>
      </trkpt>
      <trkpt lat="47.43828" lon="6.91553">
        <ele>596</ele>
        <time>2016-10-30T09:31:20.000Z</time>
      </trkpt>
      <trkpt lat="47.43825" lon="6.91552">
        <ele>596</ele>
        <time>2016-10-30T09:31:21.000Z</time>
      </trkpt>
      <trkpt lat="47.43822" lon="6.91552">
        <ele>596</ele>
        <time>2016-10-30T09:31:22.000Z</time>
      </trkpt>
      <trkpt lat="47.43819" lon="6.91551">
        <ele>595</ele>
        <time>2016-10-30T09:31:23.000Z</time>
      </trkpt>
      <trkpt lat="47.43815" lon="6.9155">
        <ele>595</ele>
        <time>2016-10-30T09:31:24.000Z</time>
      </trkpt>
      <trkpt lat="47.43811" lon="6.91548">
        <ele>595</ele>
        <time>2016-10-30T09:31:25.000Z</time>
      </trkpt>
      <trkpt lat="47.43807" lon="6.91547">
        <ele>595</ele>
        <time>2016-10-30T09:31:26.000Z</time>
      </trkpt>
      <trkpt lat="47.43804" lon="6.91545">
        <ele>595</ele>
        <time>2016-10-30T09:31:27.000Z</time>
      </trkpt>
      <trkpt lat="47.438" lon="6.91543">
        <ele>595</ele>
        <time>2016-10-30T09:31:28.000Z</time>
      </trkpt>
      <trkpt lat="47.43797" lon="6.91541">
        <ele>595</ele>
        <time>2016-10-30T09:31:29.000Z</time>
      </trkpt>
      <trkpt lat="47.43793" lon="6.9154">
        <ele>595</ele>
        <time>2016-10-30T09:31:30.000Z</time>
      </trkpt>
      <trkpt lat="47.4379" lon="6.91538">
        <ele>595</ele>
        <time>2016-10-30T09:31:31.000Z</time>
      </trkpt>
      <trkpt lat="47.43787" lon="6.91537">
        <ele>595</ele>
        <time>2016-10-30T09:31:32.000Z</time>
      </trkpt>
      <trkpt lat="47.43783" lon="6.91535">
        <ele>595</ele>
        <time>2016-10-30T09:31:33.000Z</time>
      </trkpt>
      <trkpt lat="47.4378" lon="6.91534">
        <ele>595</ele>
        <time>2016-10-30T09:31:34.000Z</time>
      </trkpt>
      <trkpt lat="47.43776" lon="6.91533">
        <ele>595</ele>
        <time>2016-10-30T09:31:35.000Z</time>
      </trkpt>
      <trkpt lat="47.43772" lon="6.91533">
        <ele>595</ele>
        <time>2016-10-30T09:31:36.000Z</time>
      </trkpt>
      <trkpt lat="47.43768" lon="6.91532">
        <ele>595</ele>
        <time>2016-10-30T09:31:37.000Z</time>
      </trkpt>
      <trkpt lat="47.43764" lon="6.9153">
        <ele>595</ele>
        <time>2016-10-30T09:31:38.000Z</time>
      </trkpt>
      <trkpt lat="47.4376" lon="6.91529">
        <ele>594</ele>
        <time>2016-10-30T09:31:39.000Z</time>
      </trkpt>
      <trkpt lat="47.43754" lon="6.91528">
        <ele>594</ele>
        <time>2016-10-30T09:31:40.000Z</time>
      </trkpt>
      <trkpt lat="47.4375" lon="6.91527">
        <ele>592</ele>
        <time>2016-10-30T09:31:41.000Z</time>
      </trkpt>
      <trkpt lat="47.43745" lon="6.91525">
        <ele>592</ele>
        <time>2016-10-30T09:31:42.000Z</time>
      </trkpt>
      <trkpt lat="47.4374" lon="6.91523">
        <ele>592</ele>
        <time>2016-10-30T09:31:43.000Z</time>
      </trkpt>
      <trkpt lat="47.43735" lon="6.91522">
        <ele>592</ele>
        <time>2016-10-30T09:31:44.000Z</time>
      </trkpt>
      <trkpt lat="47.4373" lon="6.91521">
        <ele>592</ele>
        <time>2016-10-30T09:31:45.000Z</time>
      </trkpt>
      <trkpt lat="47.43725" lon="6.91519">
        <ele>592</ele>
        <time>2016-10-30T09:31:46.000Z</time>
      </trkpt>
      <trkpt lat="47.43719" lon="6.91517">
        <ele>591</ele>
        <time>2016-10-30T09:31:47.000Z</time>
      </trkpt>
      <trkpt lat="47.43713" lon="6.91516">
        <ele>591</ele>
        <time>2016-10-30T09:31:48.000Z</time>
      </trkpt>
      <trkpt lat="47.43707" lon="6.91514">
        <ele>591</ele>
        <time>2016-10-30T09:31:49.000Z</time>
      </trkpt>
      <trkpt lat="47.43701" lon="6.91512">
        <ele>591</ele>
        <time>2016-10-30T09:31:50.000Z</time>
      </trkpt>
      <trkpt lat="47.43695" lon="6.9151">
        <ele>591</ele>
        <time>2016-10-30T09:31:51.000Z</time>
      </trkpt>
      <trkpt lat="47.43689" lon="6.91508">
        <ele>591</ele>
        <time>2016-10-30T09:31:52.000Z</time>
      </trkpt>
      <trkpt lat="47.43684" lon="6.91506">
        <ele>590</ele>
        <time>2016-10-30T09:31:53.000Z</time>
      </trkpt>
      <trkpt lat="47.43678" lon="6.91504">
        <ele>590</ele>
        <time>2016-10-30T09:31:54.000Z</time>
      </trkpt>
      <trkpt lat="47.43672" lon="6.91501">
        <ele>590</ele>
        <time>2016-10-30T09:31:55.000Z</time>
      </trkpt>
      <trkpt lat="47.43666" lon="6.91499">
        <ele>590</ele>
        <time>2016-10-30T09:31:56.000Z</time>
      </trkpt>
      <trkpt lat="47.43661" lon="6.91497">
        <ele>589</ele>
        <time>2016-10-30T09:31:57.000Z</time>
      </trkpt>
      <trkpt lat="47.43655" lon="6.91495">
        <ele>588</ele>
        <time>2016-10-30T09:31:58.000Z</time>
      </trkpt>
      <trkpt lat="47.43648" lon="6.91493">
        <ele>587</ele>
        <time>2016-10-30T09:31:59.000Z</time>
      </trkpt>
      <trkpt lat="47.43641" lon="6.9149">
        <ele>587</ele>
        <time>2016-10-30T09:32:00.000Z</time>
      </trkpt>
      <trkpt lat="47.43635" lon="6.91486">
        <ele>586</ele>
        <time>2016-10-30T09:32:01.000Z</time>
      </trkpt>
      <trkpt lat="47.43629" lon="6.91482">
        <ele>586</ele>
        <time>2016-10-30T09:32:02.000Z</time>
      </trkpt>
      <trkpt lat="47.43622" lon="6.91478">
        <ele>585</ele>
        <time>2016-10-30T09:32:03.000Z</time>
      </trkpt>
      <trkpt lat="47.43616" lon="6.91474">
        <ele>585</ele>
        <time>2016-10-30T09:32:04.000Z</time>
      </trkpt>
      <trkpt lat="47.43609" lon="6.91469">
        <ele>585</ele>
        <time>2016-10-30T09:32:05.000Z</time>
      </trkpt>
      <trkpt lat="47.43602" lon="6.91464">
        <ele>584</ele>
        <time>2016-10-30T09:32:06.000Z</time>
      </trkpt>
      <trkpt lat="47.43596" lon="6.91459">
        <ele>584</ele>
        <time>2016-10-30T09:32:07.000Z</time>
      </trkpt>
      <trkpt lat="47.43588" lon="6.91455">
        <ele>584</ele>
        <time>2016-10-30T09:32:08.000Z</time>
      </trkpt>
      <trkpt lat="47.43581" lon="6.91451">
        <ele>579</ele>
        <time>2016-10-30T09:32:09.000Z</time>
      </trkpt>
      <trkpt lat="47.43573" lon="6.91447">
        <ele>579</ele>
        <time>2016-10-30T09:32:10.000Z</time>
      </trkpt>
      <trkpt lat="47.43566" lon="6.91443">
        <ele>579</ele>
        <time>2016-10-30T09:32:11.000Z</time>
      </trkpt>
      <trkpt lat="47.43557" lon="6.91438">
        <ele>579</ele>
        <time>2016-10-30T09:32:12.000Z</time>
      </trkpt>
      <trkpt lat="47.4355" lon="6.91434">
        <ele>579</ele>
        <time>2016-10-30T09:32:13.000Z</time>
      </trkpt>
      <trkpt lat="47.43542" lon="6.91431">
        <ele>578</ele>
        <time>2016-10-30T09:32:14.000Z</time>
      </trkpt>
      <trkpt lat="47.43534" lon="6.91429">
        <ele>578</ele>
        <time>2016-10-30T09:32:15.000Z</time>
      </trkpt>
      <trkpt lat="47.43525" lon="6.91427">
        <ele>578</ele>
        <time>2016-10-30T09:32:16.000Z</time>
      </trkpt>
      <trkpt lat="47.43517" lon="6.91426">
        <ele>577</ele>
        <time>2016-10-30T09:32:17.000Z</time>
      </trkpt>
      <trkpt lat="47.43509" lon="6.91424">
        <ele>577</ele>
        <time>2016-10-30T09:32:18.000Z</time>
      </trkpt>
      <trkpt lat="47.435" lon="6.91423">
        <ele>576</ele>
        <time>2016-10-30T09:32:19.000Z</time>
      </trkpt>
      <trkpt lat="47.43492" lon="6.91422">
        <ele>575</ele>
        <time>2016-10-30T09:32:20.000Z</time>
      </trkpt>
      <trkpt lat="47.43483" lon="6.91421">
        <ele>574</ele>
        <time>2016-10-30T09:32:21.000Z</time>
      </trkpt>
      <trkpt lat="47.43474" lon="6.91419">
        <ele>573</ele>
        <time>2016-10-30T09:32:22.000Z</time>
      </trkpt>
      <trkpt lat="47.43465" lon="6.91417">
        <ele>571</ele>
        <time>2016-10-30T09:32:23.000Z</time>
      </trkpt>
      <trkpt lat="47.43456" lon="6.91414">
        <ele>570</ele>
        <time>2016-10-30T09:32:24.000Z</time>
      </trkpt>
      <trkpt lat="47.43448" lon="6.91411">
        <ele>570</ele>
        <time>2016-10-30T09:32:25.000Z</time>
      </trkpt>
      <trkpt lat="47.43439" lon="6.91409">
        <ele>569</ele>
        <time>2016-10-30T09:32:26.000Z</time>
      </trkpt>
      <trkpt lat="47.4343" lon="6.91407">
        <ele>569</ele>
        <time>2016-10-30T09:32:27.000Z</time>
      </trkpt>
      <trkpt lat="47.43423" lon="6.91406">
        <ele>569</ele>
        <time>2016-10-30T09:32:28.000Z</time>
      </trkpt>
      <trkpt lat="47.43416" lon="6.91406">
        <ele>567</ele>
        <time>2016-10-30T09:32:29.000Z</time>
      </trkpt>
      <trkpt lat="47.4341" lon="6.91412">
        <ele>567</ele>
        <time>2016-10-30T09:32:30.000Z</time>
      </trkpt>
      <trkpt lat="47.43405" lon="6.91418">
        <ele>567</ele>
        <time>2016-10-30T09:32:31.000Z</time>
      </trkpt>
      <trkpt lat="47.43406" lon="6.91431">
        <ele>567</ele>
        <time>2016-10-30T09:32:32.000Z</time>
      </trkpt>
      <trkpt lat="47.43406" lon="6.91441">
        <ele>566</ele>
        <time>2016-10-30T09:32:33.000Z</time>
      </trkpt>
      <trkpt lat="47.43406" lon="6.91451">
        <ele>566</ele>
        <time>2016-10-30T09:32:34.000Z</time>
      </trkpt>
      <trkpt lat="47.43406" lon="6.91462">
        <ele>566</ele>
        <time>2016-10-30T09:32:35.000Z</time>
      </trkpt>
      <trkpt lat="47.43406" lon="6.91472">
        <ele>566</ele>
        <time>2016-10-30T09:32:36.000Z</time>
      </trkpt>
      <trkpt lat="47.43406" lon="6.91482">
        <ele>567</ele>
        <time>2016-10-30T09:32:37.000Z</time>
      </trkpt>
      <trkpt lat="47.43406" lon="6.91492">
        <ele>567</ele>
        <time>2016-10-30T09:32:38.000Z</time>
      </trkpt>
      <trkpt lat="47.43405" lon="6.915">
        <ele>568</ele>
        <time>2016-10-30T09:32:39.000Z</time>
      </trkpt>
      <trkpt lat="47.43404" lon="6.91509">
        <ele>567</ele>
        <time>2016-10-30T09:32:40.000Z</time>
      </trkpt>
      <trkpt lat="47.43403" lon="6.91516">
        <ele>567</ele>
        <time>2016-10-30T09:32:41.000Z</time>
      </trkpt>
      <trkpt lat="47.43402" lon="6.91524">
        <ele>567</ele>
        <time>2016-10-30T09:32:42.000Z</time>
      </trkpt>
      <trkpt lat="47.43399" lon="6.9153">
        <ele>567</ele>
        <time>2016-10-30T09:32:43.000Z</time>
      </trkpt>
      <trkpt lat="47.43393" lon="6.91533">
        <ele>566</ele>
        <time>2016-10-30T09:32:44.000Z</time>
      </trkpt>
      <trkpt lat="47.43387" lon="6.91534">
        <ele>566</ele>
        <time>2016-10-30T09:32:45.000Z</time>
      </trkpt>
      <trkpt lat="47.43381" lon="6.91533">
        <ele>566</ele>
        <time>2016-10-30T09:32:46.000Z</time>
      </trkpt>
      <trkpt lat="47.43375" lon="6.91531">
        <ele>566</ele>
        <time>2016-10-30T09:32:47.000Z</time>
      </trkpt>
      <trkpt lat="47.4337" lon="6.91529">
        <ele>565</ele>
        <time>2016-10-30T09:32:48.000Z</time>
      </trkpt>
      <trkpt lat="47.43365" lon="6.91527">
        <ele>565</ele>
        <time>2016-10-30T09:32:49.000Z</time>
      </trkpt>
      <trkpt lat="47.4336" lon="6.91525">
        <ele>565</ele>
        <time>2016-10-30T09:32:50.000Z</time>
      </trkpt>
      <trkpt lat="47.43355" lon="6.91522">
        <ele>564</ele>
        <time>2016-10-30T09:32:51.000Z</time>
      </trkpt>
      <trkpt lat="47.4335" lon="6.91519">
        <ele>564</ele>
        <time>2016-10-30T09:32:52.000Z</time>
      </trkpt>
      <trkpt lat="47.43345" lon="6.91516">
        <ele>564</ele>
        <time>2016-10-30T09:32:53.000Z</time>
      </trkpt>
      <trkpt lat="47.43338" lon="6.91513">
        <ele>563</ele>
        <time>2016-10-30T09:32:54.000Z</time>
      </trkpt>
      <trkpt lat="47.43331" lon="6.9151">
        <ele>561</ele>
        <time>2016-10-30T09:32:55.000Z</time>
      </trkpt>
      <trkpt lat="47.43325" lon="6.91507">
        <ele>561</ele>
        <time>2016-10-30T09:32:56.000Z</time>
      </trkpt>
      <trkpt lat="47.43319" lon="6.91504">
        <ele>561</ele>
        <time>2016-10-30T09:32:57.000Z</time>
      </trkpt>
      <trkpt lat="47.43313" lon="6.915">
        <ele>561</ele>
        <time>2016-10-30T09:32:58.000Z</time>
      </trkpt>
      <trkpt lat="47.43308" lon="6.91498">
        <ele>559</ele>
        <time>2016-10-30T09:32:59.000Z</time>
      </trkpt>
      <trkpt lat="47.43304" lon="6.91496">
        <ele>559</ele>
        <time>2016-10-30T09:33:00.000Z</time>
      </trkpt>
      <trkpt lat="47.433" lon="6.91495">
        <ele>559</ele>
        <time>2016-10-30T09:33:01.000Z</time>
      </trkpt>
      <trkpt lat="47.43295" lon="6.91497">
        <ele>559</ele>
        <time>2016-10-30T09:33:02.000Z</time>
      </trkpt>
      <trkpt lat="47.43292" lon="6.915">
        <ele>561</ele>
        <time>2016-10-30T09:33:03.000Z</time>
      </trkpt>
      <trkpt lat="47.4329" lon="6.91504">
        <ele>561</ele>
        <time>2016-10-30T09:33:04.000Z</time>
      </trkpt>
      <trkpt lat="47.43288" lon="6.91508">
        <ele>561</ele>
        <time>2016-10-30T09:33:05.000Z</time>
      </trkpt>
      <trkpt lat="47.43286" lon="6.91512">
        <ele>561</ele>
        <time>2016-10-30T09:33:06.000Z</time>
      </trkpt>
      <trkpt lat="47.43284" lon="6.91516">
        <ele>561</ele>
        <time>2016-10-30T09:33:07.000Z</time>
      </trkpt>
      <trkpt lat="47.43282" lon="6.91521">
        <ele>561</ele>
        <time>2016-10-30T09:33:08.000Z</time>
      </trkpt>
      <trkpt lat="47.4328" lon="6.91525">
        <ele>561</ele>
        <time>2016-10-30T09:33:09.000Z</time>
      </trkpt>
      <trkpt lat="47.43277" lon="6.91529">
        <ele>561</ele>
        <time>2016-10-30T09:33:10.000Z</time>
      </trkpt>
      <trkpt lat="47.43276" lon="6.91533">
        <ele>561</ele>
        <time>2016-10-30T09:33:11.000Z</time>
      </trkpt>
      <trkpt lat="47.43274" lon="6.91536">
        <ele>561</ele>
        <time>2016-10-30T09:33:12.000Z</time>
      </trkpt>
      <trkpt lat="47.43271" lon="6.91538">
        <ele>561</ele>
        <time>2016-10-30T09:33:18.000Z</time>
      </trkpt>
      <trkpt lat="47.43269" lon="6.91541">
        <ele>561</ele>
        <time>2016-10-30T09:33:19.000Z</time>
      </trkpt>
      <trkpt lat="47.43268" lon="6.91546">
        <ele>562</ele>
        <time>2016-10-30T09:33:20.000Z</time>
      </trkpt>
      <trkpt lat="47.43268" lon="6.91551">
        <ele>562</ele>
        <time>2016-10-30T09:33:21.000Z</time>
      </trkpt>
      <trkpt lat="47.43267" lon="6.91558">
        <ele>562</ele>
        <time>2016-10-30T09:33:22.000Z</time>
      </trkpt>
      <trkpt lat="47.43266" lon="6.91564">
        <ele>562</ele>
        <time>2016-10-30T09:33:23.000Z</time>
      </trkpt>
      <trkpt lat="47.43265" lon="6.9157">
        <ele>563</ele>
        <time>2016-10-30T09:33:24.000Z</time>
      </trkpt>
      <trkpt lat="47.43263" lon="6.91575">
        <ele>563</ele>
        <time>2016-10-30T09:33:25.000Z</time>
      </trkpt>
      <trkpt lat="47.43261" lon="6.91581">
        <ele>563</ele>
        <time>2016-10-30T09:33:26.000Z</time>
      </trkpt>
      <trkpt lat="47.43259" lon="6.91586">
        <ele>564</ele>
        <time>2016-10-30T09:33:27.000Z</time>
      </trkpt>
      <trkpt lat="47.43258" lon="6.91591">
        <ele>564</ele>
        <time>2016-10-30T09:33:28.000Z</time>
      </trkpt>
      <trkpt lat="47.43256" lon="6.91596">
        <ele>564</ele>
        <time>2016-10-30T09:33:29.000Z</time>
      </trkpt>
      <trkpt lat="47.43254" lon="6.91601">
        <ele>564</ele>
        <time>2016-10-30T09:33:30.000Z</time>
      </trkpt>
      <trkpt lat="47.43253" lon="6.91606">
        <ele>564</ele>
        <time>2016-10-30T09:33:31.000Z</time>
      </trkpt>
      <trkpt lat="47.43251" lon="6.91611">
        <ele>564</ele>
        <time>2016-10-30T09:33:32.000Z</time>
      </trkpt>
      <trkpt lat="47.4325" lon="6.91615">
        <ele>566</ele>
        <time>2016-10-30T09:33:33.000Z</time>
      </trkpt>
      <trkpt lat="47.43248" lon="6.9162">
        <ele>566</ele>
        <time>2016-10-30T09:33:34.000Z</time>
      </trkpt>
      <trkpt lat="47.43247" lon="6.91624">
        <ele>566</ele>
        <time>2016-10-30T09:33:35.000Z</time>
      </trkpt>
      <trkpt lat="47.43245" lon="6.91629">
        <ele>566</ele>
        <time>2016-10-30T09:33:36.000Z</time>
      </trkpt>
      <trkpt lat="47.43244" lon="6.91633">
        <ele>567</ele>
        <time>2016-10-30T09:33:37.000Z</time>
      </trkpt>
      <trkpt lat="47.43242" lon="6.91638">
        <ele>567</ele>
        <time>2016-10-30T09:33:38.000Z</time>
      </trkpt>
      <trkpt lat="47.43241" lon="6.91642">
        <ele>567</ele>
        <time>2016-10-30T09:33:39.000Z</time>
      </trkpt>
      <trkpt lat="47.43239" lon="6.91646">
        <ele>567</ele>
        <time>2016-10-30T09:33:40.000Z</time>
      </trkpt>
      <trkpt lat="47.43237" lon="6.9165">
        <ele>567</ele>
        <time>2016-10-30T09:33:41.000Z</time>
      </trkpt>
      <trkpt lat="47.43236" lon="6.91654">
        <ele>567</ele>
        <time>2016-10-30T09:33:42.000Z</time>
      </trkpt>
      <trkpt lat="47.43235" lon="6.91658">
        <ele>567</ele>
        <time>2016-10-30T09:33:43.000Z</time>
      </trkpt>
      <trkpt lat="47.43234" lon="6.91662">
        <ele>567</ele>
        <time>2016-10-30T09:33:44.000Z</time>
      </trkpt>
      <trkpt lat="47.43232" lon="6.91666">
        <ele>567</ele>
        <time>2016-10-30T09:33:45.000Z</time>
      </trkpt>
      <trkpt lat="47.43231" lon="6.91669">
        <ele>567</ele>
        <time>2016-10-30T09:33:46.000Z</time>
      </trkpt>
      <trkpt lat="47.4323" lon="6.91673">
        <ele>567</ele>
        <time>2016-10-30T09:33:47.000Z</time>
      </trkpt>
      <trkpt lat="47.43228" lon="6.91677">
        <ele>567</ele>
        <time>2016-10-30T09:33:48.000Z</time>
      </trkpt>
      <trkpt lat="47.43227" lon="6.9168">
        <ele>568</ele>
        <time>2016-10-30T09:33:49.000Z</time>
      </trkpt>
      <trkpt lat="47.43225" lon="6.91683">
        <ele>568</ele>
        <time>2016-10-30T09:33:50.000Z</time>
      </trkpt>
      <trkpt lat="47.43223" lon="6.91686">
        <ele>568</ele>
        <time>2016-10-30T09:33:51.000Z</time>
      </trkpt>
      <trkpt lat="47.43221" lon="6.91689">
        <ele>568</ele>
        <time>2016-10-30T09:33:52.000Z</time>
      </trkpt>
      <trkpt lat="47.43219" lon="6.91692">
        <ele>568</ele>
        <time>2016-10-30T09:33:53.000Z</time>
      </trkpt>
      <trkpt lat="47.43217" lon="6.91695">
        <ele>568</ele>
        <time>2016-10-30T09:33:54.000Z</time>
      </trkpt>
      <trkpt lat="47.43215" lon="6.91698">
        <ele>568</ele>
        <time>2016-10-30T09:33:55.000Z</time>
      </trkpt>
      <trkpt lat="47.43213" lon="6.91701">
        <ele>568</ele>
        <time>2016-10-30T09:33:56.000Z</time>
      </trkpt>
      <trkpt lat="47.43211" lon="6.91704">
        <ele>568</ele>
        <time>2016-10-30T09:33:57.000Z</time>
      </trkpt>
      <trkpt lat="47.43209" lon="6.91707">
        <ele>568</ele>
        <time>2016-10-30T09:33:58.000Z</time>
      </trkpt>
      <trkpt lat="47.43207" lon="6.9171">
        <ele>568</ele>
        <time>2016-10-30T09:33:59.000Z</time>
      </trkpt>
      <trkpt lat="47.43206" lon="6.91713">
        <ele>568</ele>
        <time>2016-10-30T09:34:00.000Z</time>
      </trkpt>
      <trkpt lat="47.43204" lon="6.91716">
        <ele>568</ele>
        <time>2016-10-30T09:34:01.000Z</time>
      </trkpt>
      <trkpt lat="47.43202" lon="6.91719">
        <ele>568</ele>
        <time>2016-10-30T09:34:02.000Z</time>
      </trkpt>
      <trkpt lat="47.432" lon="6.91722">
        <ele>568</ele>
        <time>2016-10-30T09:34:03.000Z</time>
      </trkpt>
      <trkpt lat="47.43198" lon="6.91725">
        <ele>569</ele>
        <time>2016-10-30T09:34:04.000Z</time>
      </trkpt>
      <trkpt lat="47.43197" lon="6.91729">
        <ele>569</ele>
        <time>2016-10-30T09:34:05.000Z</time>
      </trkpt>
      <trkpt lat="47.43195" lon="6.91732">
        <ele>569</ele>
        <time>2016-10-30T09:34:06.000Z</time>
      </trkpt>
      <trkpt lat="47.43194" lon="6.91735">
        <ele>569</ele>
        <time>2016-10-30T09:34:07.000Z</time>
      </trkpt>
      <trkpt lat="47.43192" lon="6.91738">
        <ele>569</ele>
        <time>2016-10-30T09:34:08.000Z</time>
      </trkpt>
      <trkpt lat="47.43191" lon="6.91742">
        <ele>569</ele>
        <time>2016-10-30T09:34:09.000Z</time>
      </trkpt>
      <trkpt lat="47.4319" lon="6.91746">
        <ele>569</ele>
        <time>2016-10-30T09:34:10.000Z</time>
      </trkpt>
      <trkpt lat="47.43189" lon="6.9175">
        <ele>569</ele>
        <time>2016-10-30T09:34:11.000Z</time>
      </trkpt>
      <trkpt lat="47.43188" lon="6.91754">
        <ele>570</ele>
        <time>2016-10-30T09:34:12.000Z</time>
      </trkpt>
      <trkpt lat="47.43187" lon="6.91758">
        <ele>570</ele>
        <time>2016-10-30T09:34:13.000Z</time>
      </trkpt>
      <trkpt lat="47.43186" lon="6.91761">
        <ele>571</ele>
        <time>2016-10-30T09:34:14.000Z</time>
      </trkpt>
      <trkpt lat="47.43185" lon="6.91765">
        <ele>571</ele>
        <time>2016-10-30T09:34:15.000Z</time>
      </trkpt>
      <trkpt lat="47.43183" lon="6.91769">
        <ele>571</ele>
        <time>2016-10-30T09:34:16.000Z</time>
      </trkpt>
      <trkpt lat="47.43182" lon="6.91772">
        <ele>571</ele>
        <time>2016-10-30T09:34:17.000Z</time>
      </trkpt>
      <trkpt lat="47.43181" lon="6.91776">
        <ele>571</ele>
        <time>2016-10-30T09:34:18.000Z</time>
      </trkpt>
      <trkpt lat="47.43179" lon="6.91779">
        <ele>571</ele>
        <time>2016-10-30T09:34:19.000Z</time>
      </trkpt>
      <trkpt lat="47.43178" lon="6.91783">
        <ele>571</ele>
        <time>2016-10-30T09:34:20.000Z</time>
      </trkpt>
      <trkpt lat="47.43176" lon="6.91786">
        <ele>571</ele>
        <time>2016-10-30T09:34:21.000Z</time>
      </trkpt>
      <trkpt lat="47.43175" lon="6.9179">
        <ele>571</ele>
        <time>2016-10-30T09:34:22.000Z</time>
      </trkpt>
      <trkpt lat="47.43174" lon="6.91794">
        <ele>571</ele>
        <time>2016-10-30T09:34:23.000Z</time>
      </trkpt>
      <trkpt lat="47.43172" lon="6.91797">
        <ele>572</ele>
        <time>2016-10-30T09:34:24.000Z</time>
      </trkpt>
      <trkpt lat="47.43171" lon="6.91801">
        <ele>572</ele>
        <time>2016-10-30T09:34:25.000Z</time>
      </trkpt>
      <trkpt lat="47.43169" lon="6.91804">
        <ele>572</ele>
        <time>2016-10-30T09:34:26.000Z</time>
      </trkpt>
      <trkpt lat="47.43168" lon="6.91808">
        <ele>572</ele>
        <time>2016-10-30T09:34:27.000Z</time>
      </trkpt>
      <trkpt lat="47.43167" lon="6.91812">
        <ele>572</ele>
        <time>2016-10-30T09:34:28.000Z</time>
      </trkpt>
      <trkpt lat="47.43165" lon="6.91815">
        <ele>573</ele>
        <time>2016-10-30T09:34:29.000Z</time>
      </trkpt>
      <trkpt lat="47.43164" lon="6.91819">
        <ele>573</ele>
        <time>2016-10-30T09:34:30.000Z</time>
      </trkpt>
      <trkpt lat="47.43162" lon="6.91822">
        <ele>573</ele>
        <time>2016-10-30T09:34:31.000Z</time>
      </trkpt>
      <trkpt lat="47.4316" lon="6.91825">
        <ele>573</ele>
        <time>2016-10-30T09:34:32.000Z</time>
      </trkpt>
      <trkpt lat="47.43158" lon="6.91828">
        <ele>573</ele>
        <time>2016-10-30T09:34:33.000Z</time>
      </trkpt>
      <trkpt lat="47.43156" lon="6.91831">
        <ele>573</ele>
        <time>2016-10-30T09:34:34.000Z</time>
      </trkpt>
      <trkpt lat="47.43154" lon="6.91833">
        <ele>574</ele>
        <time>2016-10-30T09:34:35.000Z</time>
      </trkpt>
      <trkpt lat="47.43152" lon="6.91836">
        <ele>574</ele>
        <time>2016-10-30T09:34:36.000Z</time>
      </trkpt>
      <trkpt lat="47.4315" lon="6.91838">
        <ele>574</ele>
        <time>2016-10-30T09:34:37.000Z</time>
      </trkpt>
      <trkpt lat="47.43147" lon="6.9184">
        <ele>574</ele>
        <time>2016-10-30T09:34:38.000Z</time>
      </trkpt>
      <trkpt lat="47.43144" lon="6.91841">
        <ele>574</ele>
        <time>2016-10-30T09:34:39.000Z</time>
      </trkpt>
      <trkpt lat="47.43141" lon="6.91842">
        <ele>574</ele>
        <time>2016-10-30T09:34:40.000Z</time>
      </trkpt>
      <trkpt lat="47.43139" lon="6.91843">
        <ele>574</ele>
        <time>2016-10-30T09:34:41.000Z</time>
      </trkpt>
      <trkpt lat="47.43136" lon="6.91845">
        <ele>574</ele>
        <time>2016-10-30T09:34:42.000Z</time>
      </trkpt>
      <trkpt lat="47.43133" lon="6.91846">
        <ele>573</ele>
        <time>2016-10-30T09:34:43.000Z</time>
      </trkpt>
      <trkpt lat="47.4313" lon="6.91847">
        <ele>573</ele>
        <time>2016-10-30T09:34:44.000Z</time>
      </trkpt>
      <trkpt lat="47.43126" lon="6.91848">
        <ele>573</ele>
        <time>2016-10-30T09:34:45.000Z</time>
      </trkpt>
      <trkpt lat="47.43123" lon="6.9185">
        <ele>573</ele>
        <time>2016-10-30T09:34:46.000Z</time>
      </trkpt>
      <trkpt lat="47.4312" lon="6.9185">
        <ele>573</ele>
        <time>2016-10-30T09:34:47.000Z</time>
      </trkpt>
      <trkpt lat="47.43116" lon="6.91851">
        <ele>573</ele>
        <time>2016-10-30T09:34:48.000Z</time>
      </trkpt>
      <trkpt lat="47.43113" lon="6.91851">
        <ele>573</ele>
        <time>2016-10-30T09:34:49.000Z</time>
      </trkpt>
      <trkpt lat="47.4311" lon="6.9185">
        <ele>573</ele>
        <time>2016-10-30T09:34:50.000Z</time>
      </trkpt>
      <trkpt lat="47.43107" lon="6.91849">
        <ele>573</ele>
        <time>2016-10-30T09:34:51.000Z</time>
      </trkpt>
      <trkpt lat="47.43104" lon="6.91847">
        <ele>573</ele>
        <time>2016-10-30T09:34:52.000Z</time>
      </trkpt>
      <trkpt lat="47.431" lon="6.91845">
        <ele>573</ele>
        <time>2016-10-30T09:34:53.000Z</time>
      </trkpt>
      <trkpt lat="47.43095" lon="6.91844">
        <ele>573</ele>
        <time>2016-10-30T09:34:54.000Z</time>
      </trkpt>
      <trkpt lat="47.43091" lon="6.91843">
        <ele>573</ele>
        <time>2016-10-30T09:34:55.000Z</time>
      </trkpt>
      <trkpt lat="47.43087" lon="6.91841">
        <ele>572</ele>
        <time>2016-10-30T09:34:56.000Z</time>
      </trkpt>
      <trkpt lat="47.43082" lon="6.91839">
        <ele>572</ele>
        <time>2016-10-30T09:34:57.000Z</time>
      </trkpt>
      <trkpt lat="47.43077" lon="6.91835">
        <ele>572</ele>
        <time>2016-10-30T09:34:58.000Z</time>
      </trkpt>
      <trkpt lat="47.43072" lon="6.91833">
        <ele>571</ele>
        <time>2016-10-30T09:34:59.000Z</time>
      </trkpt>
      <trkpt lat="47.43067" lon="6.91831">
        <ele>571</ele>
        <time>2016-10-30T09:35:00.000Z</time>
      </trkpt>
      <trkpt lat="47.43062" lon="6.91828">
        <ele>571</ele>
        <time>2016-10-30T09:35:01.000Z</time>
      </trkpt>
      <trkpt lat="47.43058" lon="6.91826">
        <ele>570</ele>
        <time>2016-10-30T09:35:02.000Z</time>
      </trkpt>
      <trkpt lat="47.43053" lon="6.91823">
        <ele>570</ele>
        <time>2016-10-30T09:35:03.000Z</time>
      </trkpt>
      <trkpt lat="47.4305" lon="6.91821">
        <ele>570</ele>
        <time>2016-10-30T09:35:04.000Z</time>
      </trkpt>
      <trkpt lat="47.43046" lon="6.91819">
        <ele>570</ele>
        <time>2016-10-30T09:35:05.000Z</time>
      </trkpt>
      <trkpt lat="47.43041" lon="6.91817">
        <ele>570</ele>
        <time>2016-10-30T09:35:06.000Z</time>
      </trkpt>
      <trkpt lat="47.43036" lon="6.91815">
        <ele>570</ele>
        <time>2016-10-30T09:35:07.000Z</time>
      </trkpt>
      <trkpt lat="47.43031" lon="6.91813">
        <ele>570</ele>
        <time>2016-10-30T09:35:08.000Z</time>
      </trkpt>
      <trkpt lat="47.43027" lon="6.91811">
        <ele>570</ele>
        <time>2016-10-30T09:35:09.000Z</time>
      </trkpt>
      <trkpt lat="47.43023" lon="6.91809">
        <ele>570</ele>
        <time>2016-10-30T09:35:10.000Z</time>
      </trkpt>
      <trkpt lat="47.4302" lon="6.91807">
        <ele>570</ele>
        <time>2016-10-30T09:35:11.000Z</time>
      </trkpt>
      <trkpt lat="47.43014" lon="6.91805">
        <ele>569</ele>
        <time>2016-10-30T09:35:12.000Z</time>
      </trkpt>
      <trkpt lat="47.43009" lon="6.91803">
        <ele>569</ele>
        <time>2016-10-30T09:35:13.000Z</time>
      </trkpt>
      <trkpt lat="47.43003" lon="6.91801">
        <ele>569</ele>
        <time>2016-10-30T09:35:14.000Z</time>
      </trkpt>
      <trkpt lat="47.42998" lon="6.91799">
        <ele>568</ele>
        <time>2016-10-30T09:35:15.000Z</time>
      </trkpt>
      <trkpt lat="47.42992" lon="6.91796">
        <ele>568</ele>
        <time>2016-10-30T09:35:16.000Z</time>
      </trkpt>
      <trkpt lat="47.42987" lon="6.91794">
        <ele>568</ele>
        <time>2016-10-30T09:35:17.000Z</time>
      </trkpt>
      <trkpt lat="47.42981" lon="6.91792">
        <ele>568</ele>
        <time>2016-10-30T09:35:18.000Z</time>
      </trkpt>
      <trkpt lat="47.42975" lon="6.9179">
        <ele>568</ele>
        <time>2016-10-30T09:35:19.000Z</time>
      </trkpt>
      <trkpt lat="47.42969" lon="6.91788">
        <ele>568</ele>
        <time>2016-10-30T09:35:20.000Z</time>
      </trkpt>
      <trkpt lat="47.42963" lon="6.91785">
        <ele>568</ele>
        <time>2016-10-30T09:35:21.000Z</time>
      </trkpt>
      <trkpt lat="47.42957" lon="6.91783">
        <ele>568</ele>
        <time>2016-10-30T09:35:22.000Z</time>
      </trkpt>
      <trkpt lat="47.42952" lon="6.9178">
        <ele>568</ele>
        <time>2016-10-30T09:35:23.000Z</time>
      </trkpt>
      <trkpt lat="47.42946" lon="6.91777">
        <ele>568</ele>
        <time>2016-10-30T09:35:24.000Z</time>
      </trkpt>
      <trkpt lat="47.4294" lon="6.91774">
        <ele>568</ele>
        <time>2016-10-30T09:35:25.000Z</time>
      </trkpt>
      <trkpt lat="47.42935" lon="6.91771">
        <ele>568</ele>
        <time>2016-10-30T09:35:26.000Z</time>
      </trkpt>
      <trkpt lat="47.42929" lon="6.91768">
        <ele>568</ele>
        <time>2016-10-30T09:35:27.000Z</time>
      </trkpt>
      <trkpt lat="47.42924" lon="6.91766">
        <ele>567</ele>
        <time>2016-10-30T09:35:28.000Z</time>
      </trkpt>
      <trkpt lat="47.42918" lon="6.91763">
        <ele>567</ele>
        <time>2016-10-30T09:35:29.000Z</time>
      </trkpt>
      <trkpt lat="47.42912" lon="6.91759">
        <ele>567</ele>
        <time>2016-10-30T09:35:30.000Z</time>
      </trkpt>
      <trkpt lat="47.42907" lon="6.91756">
        <ele>568</ele>
        <time>2016-10-30T09:35:31.000Z</time>
      </trkpt>
      <trkpt lat="47.42901" lon="6.91753">
        <ele>568</ele>
        <time>2016-10-30T09:35:32.000Z</time>
      </trkpt>
      <trkpt lat="47.42896" lon="6.91751">
        <ele>568</ele>
        <time>2016-10-30T09:35:33.000Z</time>
      </trkpt>
      <trkpt lat="47.4289" lon="6.91748">
        <ele>568</ele>
        <time>2016-10-30T09:35:34.000Z</time>
      </trkpt>
      <trkpt lat="47.42885" lon="6.91745">
        <ele>568</ele>
        <time>2016-10-30T09:35:35.000Z</time>
      </trkpt>
      <trkpt lat="47.42879" lon="6.91742">
        <ele>568</ele>
        <time>2016-10-30T09:35:36.000Z</time>
      </trkpt>
      <trkpt lat="47.42873" lon="6.91738">
        <ele>568</ele>
        <time>2016-10-30T09:35:37.000Z</time>
      </trkpt>
      <trkpt lat="47.42867" lon="6.91736">
        <ele>568</ele>
        <time>2016-10-30T09:35:38.000Z</time>
      </trkpt>
      <trkpt lat="47.42861" lon="6.91733">
        <ele>568</ele>
        <time>2016-10-30T09:35:39.000Z</time>
      </trkpt>
      <trkpt lat="47.42855" lon="6.91731">
        <ele>568</ele>
        <time>2016-10-30T09:35:40.000Z</time>
      </trkpt>
      <trkpt lat="47.4285" lon="6.91728">
        <ele>568</ele>
        <time>2016-10-30T09:35:41.000Z</time>
      </trkpt>
      <trkpt lat="47.42845" lon="6.91725">
        <ele>568</ele>
        <time>2016-10-30T09:35:42.000Z</time>
      </trkpt>
      <trkpt lat="47.42839" lon="6.91722">
        <ele>568</ele>
        <time>2016-10-30T09:35:43.000Z</time>
      </trkpt>
      <trkpt lat="47.42834" lon="6.91719">
        <ele>568</ele>
        <time>2016-10-30T09:35:44.000Z</time>
      </trkpt>
      <trkpt lat="47.42828" lon="6.91717">
        <ele>568</ele>
        <time>2016-10-30T09:35:45.000Z</time>
      </trkpt>
      <trkpt lat="47.42823" lon="6.91714">
        <ele>568</ele>
        <time>2016-10-30T09:35:46.000Z</time>
      </trkpt>
      <trkpt lat="47.42817" lon="6.91711">
        <ele>568</ele>
        <time>2016-10-30T09:35:47.000Z</time>
      </trkpt>
      <trkpt lat="47.42811" lon="6.91708">
        <ele>568</ele>
        <time>2016-10-30T09:35:48.000Z</time>
      </trkpt>
      <trkpt lat="47.42806" lon="6.91706">
        <ele>568</ele>
        <time>2016-10-30T09:35:49.000Z</time>
      </trkpt>
      <trkpt lat="47.428" lon="6.91704">
        <ele>568</ele>
        <time>2016-10-30T09:35:50.000Z</time>
      </trkpt>
      <trkpt lat="47.42795" lon="6.91701">
        <ele>568</ele>
        <time>2016-10-30T09:35:51.000Z</time>
      </trkpt>
      <trkpt lat="47.4279" lon="6.91699">
        <ele>568</ele>
        <time>2016-10-30T09:35:52.000Z</time>
      </trkpt>
      <trkpt lat="47.42784" lon="6.91696">
        <ele>568</ele>
        <time>2016-10-30T09:35:53.000Z</time>
      </trkpt>
      <trkpt lat="47.42778" lon="6.91693">
        <ele>568</ele>
        <time>2016-10-30T09:35:54.000Z</time>
      </trkpt>
      <trkpt lat="47.42773" lon="6.91691">
        <ele>568</ele>
        <time>2016-10-30T09:35:55.000Z</time>
      </trkpt>
      <trkpt lat="47.42768" lon="6.91688">
        <ele>568</ele>
        <time>2016-10-30T09:35:56.000Z</time>
      </trkpt>
      <trkpt lat="47.42762" lon="6.91686">
        <ele>568</ele>
        <time>2016-10-30T09:35:57.000Z</time>
      </trkpt>
      <trkpt lat="47.42756" lon="6.91684">
        <ele>568</ele>
        <time>2016-10-30T09:35:58.000Z</time>
      </trkpt>
      <trkpt lat="47.42751" lon="6.91682">
        <ele>567</ele>
        <time>2016-10-30T09:35:59.000Z</time>
      </trkpt>
      <trkpt lat="47.42746" lon="6.91681">
        <ele>568</ele>
        <time>2016-10-30T09:36:00.000Z</time>
      </trkpt>
      <trkpt lat="47.4274" lon="6.91679">
        <ele>568</ele>
        <time>2016-10-30T09:36:01.000Z</time>
      </trkpt>
      <trkpt lat="47.42735" lon="6.91678">
        <ele>568</ele>
        <time>2016-10-30T09:36:02.000Z</time>
      </trkpt>
      <trkpt lat="47.4273" lon="6.91676">
        <ele>568</ele>
        <time>2016-10-30T09:36:03.000Z</time>
      </trkpt>
      <trkpt lat="47.42724" lon="6.91675">
        <ele>568</ele>
        <time>2016-10-30T09:36:04.000Z</time>
      </trkpt>
      <trkpt lat="47.4272" lon="6.91674">
        <ele>568</ele>
        <time>2016-10-30T09:36:05.000Z</time>
      </trkpt>
      <trkpt lat="47.42714" lon="6.91674">
        <ele>569</ele>
        <time>2016-10-30T09:36:06.000Z</time>
      </trkpt>
      <trkpt lat="47.4271" lon="6.91674">
        <ele>569</ele>
        <time>2016-10-30T09:36:07.000Z</time>
      </trkpt>
      <trkpt lat="47.42706" lon="6.91674">
        <ele>569</ele>
        <time>2016-10-30T09:36:08.000Z</time>
      </trkpt>
      <trkpt lat="47.42703" lon="6.91675">
        <ele>569</ele>
        <time>2016-10-30T09:36:09.000Z</time>
      </trkpt>
      <trkpt lat="47.42699" lon="6.91675">
        <ele>569</ele>
        <time>2016-10-30T09:36:10.000Z</time>
      </trkpt>
      <trkpt lat="47.42695" lon="6.91676">
        <ele>569</ele>
        <time>2016-10-30T09:36:11.000Z</time>
      </trkpt>
      <trkpt lat="47.42691" lon="6.91677">
        <ele>569</ele>
        <time>2016-10-30T09:36:12.000Z</time>
      </trkpt>
      <trkpt lat="47.42687" lon="6.91677">
        <ele>569</ele>
        <time>2016-10-30T09:36:13.000Z</time>
      </trkpt>
      <trkpt lat="47.42683" lon="6.91677">
        <ele>569</ele>
        <time>2016-10-30T09:36:14.000Z</time>
      </trkpt>
      <trkpt lat="47.42678" lon="6.91677">
        <ele>569</ele>
        <time>2016-10-30T09:36:15.000Z</time>
      </trkpt>
      <trkpt lat="47.42673" lon="6.91677">
        <ele>569</ele>
        <time>2016-10-30T09:36:16.000Z</time>
      </trkpt>
      <trkpt lat="47.42669" lon="6.91677">
        <ele>569</ele>
        <time>2016-10-30T09:36:17.000Z</time>
      </trkpt>
      <trkpt lat="47.42664" lon="6.91676">
        <ele>570</ele>
        <time>2016-10-30T09:36:18.000Z</time>
      </trkpt>
      <trkpt lat="47.4266" lon="6.91675">
        <ele>570</ele>
        <time>2016-10-30T09:36:19.000Z</time>
      </trkpt>
      <trkpt lat="47.42656" lon="6.91675">
        <ele>570</ele>
        <time>2016-10-30T09:36:20.000Z</time>
      </trkpt>
      <trkpt lat="47.42652" lon="6.91674">
        <ele>570</ele>
        <time>2016-10-30T09:36:21.000Z</time>
      </trkpt>
      <trkpt lat="47.42648" lon="6.91673">
        <ele>570</ele>
        <time>2016-10-30T09:36:22.000Z</time>
      </trkpt>
      <trkpt lat="47.42644" lon="6.91671">
        <ele>570</ele>
        <time>2016-10-30T09:36:23.000Z</time>
      </trkpt>
      <trkpt lat="47.4264" lon="6.9167">
        <ele>570</ele>
        <time>2016-10-30T09:36:24.000Z</time>
      </trkpt>
      <trkpt lat="47.42636" lon="6.91669">
        <ele>570</ele>
        <time>2016-10-30T09:36:25.000Z</time>
      </trkpt>
      <trkpt lat="47.42631" lon="6.91668">
        <ele>570</ele>
        <time>2016-10-30T09:36:26.000Z</time>
      </trkpt>
      <trkpt lat="47.42627" lon="6.91667">
        <ele>570</ele>
        <time>2016-10-30T09:36:27.000Z</time>
      </trkpt>
      <trkpt lat="47.42623" lon="6.91667">
        <ele>568</ele>
        <time>2016-10-30T09:36:28.000Z</time>
      </trkpt>
      <trkpt lat="47.42618" lon="6.91666">
        <ele>568</ele>
        <time>2016-10-30T09:36:29.000Z</time>
      </trkpt>
      <trkpt lat="47.42614" lon="6.91665">
        <ele>568</ele>
        <time>2016-10-30T09:36:30.000Z</time>
      </trkpt>
      <trkpt lat="47.4261" lon="6.91664">
        <ele>569</ele>
        <time>2016-10-30T09:36:31.000Z</time>
      </trkpt>
      <trkpt lat="47.42606" lon="6.91663">
        <ele>569</ele>
        <time>2016-10-30T09:36:32.000Z</time>
      </trkpt>
      <trkpt lat="47.42602" lon="6.91662">
        <ele>569</ele>
        <time>2016-10-30T09:36:33.000Z</time>
      </trkpt>
      <trkpt lat="47.42597" lon="6.9166">
        <ele>569</ele>
        <time>2016-10-30T09:36:34.000Z</time>
      </trkpt>
      <trkpt lat="47.42593" lon="6.91659">
        <ele>569</ele>
        <time>2016-10-30T09:36:35.000Z</time>
      </trkpt>
      <trkpt lat="47.42589" lon="6.91658">
        <ele>569</ele>
        <time>2016-10-30T09:36:36.000Z</time>
      </trkpt>
      <trkpt lat="47.42585" lon="6.91657">
        <ele>569</ele>
        <time>2016-10-30T09:36:37.000Z</time>
      </trkpt>
      <trkpt lat="47.42581" lon="6.91656">
        <ele>569</ele>
        <time>2016-10-30T09:36:38.000Z</time>
      </trkpt>
      <trkpt lat="47.42577" lon="6.91654">
        <ele>569</ele>
        <time>2016-10-30T09:36:39.000Z</time>
      </trkpt>
      <trkpt lat="47.42573" lon="6.91653">
        <ele>568</ele>
        <time>2016-10-30T09:36:40.000Z</time>
      </trkpt>
      <trkpt lat="47.42568" lon="6.91652">
        <ele>568</ele>
        <time>2016-10-30T09:36:41.000Z</time>
      </trkpt>
      <trkpt lat="47.42563" lon="6.91651">
        <ele>568</ele>
        <time>2016-10-30T09:36:42.000Z</time>
      </trkpt>
      <trkpt lat="47.42558" lon="6.9165">
        <ele>568</ele>
        <time>2016-10-30T09:36:43.000Z</time>
      </trkpt>
      <trkpt lat="47.42554" lon="6.91651">
        <ele>568</ele>
        <time>2016-10-30T09:36:44.000Z</time>
      </trkpt>
      <trkpt lat="47.4255" lon="6.9165">
        <ele>567</ele>
        <time>2016-10-30T09:36:45.000Z</time>
      </trkpt>
      <trkpt lat="47.42545" lon="6.91649">
        <ele>567</ele>
        <time>2016-10-30T09:36:46.000Z</time>
      </trkpt>
      <trkpt lat="47.42541" lon="6.91648">
        <ele>567</ele>
        <time>2016-10-30T09:36:47.000Z</time>
      </trkpt>
      <trkpt lat="47.42537" lon="6.91647">
        <ele>567</ele>
        <time>2016-10-30T09:36:48.000Z</time>
      </trkpt>
      <trkpt lat="47.42533" lon="6.91647">
        <ele>567</ele>
        <time>2016-10-30T09:36:49.000Z</time>
      </trkpt>
      <trkpt lat="47.42528" lon="6.91646">
        <ele>567</ele>
        <time>2016-10-30T09:36:50.000Z</time>
      </trkpt>
      <trkpt lat="47.42524" lon="6.91645">
        <ele>567</ele>
        <time>2016-10-30T09:36:51.000Z</time>
      </trkpt>
      <trkpt lat="47.42519" lon="6.91645">
        <ele>567</ele>
        <time>2016-10-30T09:36:52.000Z</time>
      </trkpt>
      <trkpt lat="47.42515" lon="6.91644">
        <ele>567</ele>
        <time>2016-10-30T09:36:53.000Z</time>
      </trkpt>
      <trkpt lat="47.4251" lon="6.91644">
        <ele>567</ele>
        <time>2016-10-30T09:36:54.000Z</time>
      </trkpt>
      <trkpt lat="47.42505" lon="6.91643">
        <ele>567</ele>
        <time>2016-10-30T09:36:55.000Z</time>
      </trkpt>
      <trkpt lat="47.425" lon="6.91642">
        <ele>567</ele>
        <time>2016-10-30T09:36:56.000Z</time>
      </trkpt>
      <trkpt lat="47.42495" lon="6.91642">
        <ele>566</ele>
        <time>2016-10-30T09:36:57.000Z</time>
      </trkpt>
      <trkpt lat="47.42489" lon="6.91641">
        <ele>566</ele>
        <time>2016-10-30T09:36:58.000Z</time>
      </trkpt>
      <trkpt lat="47.42484" lon="6.91641">
        <ele>566</ele>
        <time>2016-10-30T09:36:59.000Z</time>
      </trkpt>
      <trkpt lat="47.42479" lon="6.91641">
        <ele>566</ele>
        <time>2016-10-30T09:37:00.000Z</time>
      </trkpt>
      <trkpt lat="47.42474" lon="6.91641">
        <ele>566</ele>
        <time>2016-10-30T09:37:01.000Z</time>
      </trkpt>
      <trkpt lat="47.42469" lon="6.9164">
        <ele>566</ele>
        <time>2016-10-30T09:37:02.000Z</time>
      </trkpt>
      <trkpt lat="47.42463" lon="6.91641">
        <ele>566</ele>
        <time>2016-10-30T09:37:03.000Z</time>
      </trkpt>
      <trkpt lat="47.42458" lon="6.9164">
        <ele>566</ele>
        <time>2016-10-30T09:37:04.000Z</time>
      </trkpt>
      <trkpt lat="47.42452" lon="6.91641">
        <ele>566</ele>
        <time>2016-10-30T09:37:05.000Z</time>
      </trkpt>
      <trkpt lat="47.42446" lon="6.91641">
        <ele>566</ele>
        <time>2016-10-30T09:37:06.000Z</time>
      </trkpt>
      <trkpt lat="47.4244" lon="6.91641">
        <ele>566</ele>
        <time>2016-10-30T09:37:07.000Z</time>
      </trkpt>
      <trkpt lat="47.42435" lon="6.91642">
        <ele>567</ele>
        <time>2016-10-30T09:37:08.000Z</time>
      </trkpt>
      <trkpt lat="47.4243" lon="6.91642">
        <ele>567</ele>
        <time>2016-10-30T09:37:09.000Z</time>
      </trkpt>
      <trkpt lat="47.42425" lon="6.91642">
        <ele>567</ele>
        <time>2016-10-30T09:37:10.000Z</time>
      </trkpt>
      <trkpt lat="47.4242" lon="6.91642">
        <ele>567</ele>
        <time>2016-10-30T09:37:11.000Z</time>
      </trkpt>
      <trkpt lat="47.42416" lon="6.91642">
        <ele>568</ele>
        <time>2016-10-30T09:37:12.000Z</time>
      </trkpt>
      <trkpt lat="47.42411" lon="6.91642">
        <ele>568</ele>
        <time>2016-10-30T09:37:13.000Z</time>
      </trkpt>
      <trkpt lat="47.42405" lon="6.91643">
        <ele>568</ele>
        <time>2016-10-30T09:37:14.000Z</time>
      </trkpt>
      <trkpt lat="47.42401" lon="6.91642">
        <ele>568</ele>
        <time>2016-10-30T09:37:15.000Z</time>
      </trkpt>
      <trkpt lat="47.42397" lon="6.91642">
        <ele>568</ele>
        <time>2016-10-30T09:37:16.000Z</time>
      </trkpt>
      <trkpt lat="47.42391" lon="6.91643">
        <ele>568</ele>
        <time>2016-10-30T09:37:17.000Z</time>
      </trkpt>
      <trkpt lat="47.42387" lon="6.91643">
        <ele>569</ele>
        <time>2016-10-30T09:37:18.000Z</time>
      </trkpt>
      <trkpt lat="47.42382" lon="6.91644">
        <ele>569</ele>
        <time>2016-10-30T09:37:19.000Z</time>
      </trkpt>
      <trkpt lat="47.42378" lon="6.91644">
        <ele>569</ele>
        <time>2016-10-30T09:37:20.000Z</time>
      </trkpt>
      <trkpt lat="47.42373" lon="6.91645">
        <ele>569</ele>
        <time>2016-10-30T09:37:21.000Z</time>
      </trkpt>
      <trkpt lat="47.4237" lon="6.91646">
        <ele>569</ele>
        <time>2016-10-30T09:37:22.000Z</time>
      </trkpt>
      <trkpt lat="47.42366" lon="6.91647">
        <ele>569</ele>
        <time>2016-10-30T09:37:23.000Z</time>
      </trkpt>
      <trkpt lat="47.42362" lon="6.91649">
        <ele>569</ele>
        <time>2016-10-30T09:37:24.000Z</time>
      </trkpt>
      <trkpt lat="47.42358" lon="6.91651">
        <ele>570</ele>
        <time>2016-10-30T09:37:25.000Z</time>
      </trkpt>
      <trkpt lat="47.42357" lon="6.91652">
        <ele>570</ele>
        <time>2016-10-30T09:37:26.000Z</time>
      </trkpt>
      <trkpt lat="47.42352" lon="6.91653">
        <ele>570</ele>
        <time>2016-10-30T09:37:27.000Z</time>
      </trkpt>
      <trkpt lat="47.42349" lon="6.91654">
        <ele>570</ele>
        <time>2016-10-30T09:37:28.000Z</time>
      </trkpt>
      <trkpt lat="47.42345" lon="6.91654">
        <ele>570</ele>
        <time>2016-10-30T09:37:29.001Z</time>
      </trkpt>
      <trkpt lat="47.4234" lon="6.91655">
        <ele>571</ele>
        <time>2016-10-30T09:37:30.000Z</time>
      </trkpt>
      <trkpt lat="47.42336" lon="6.91656">
        <ele>571</ele>
        <time>2016-10-30T09:37:31.000Z</time>
      </trkpt>
      <trkpt lat="47.42331" lon="6.91657">
        <ele>571</ele>
        <time>2016-10-30T09:37:32.000Z</time>
      </trkpt>
      <trkpt lat="47.42326" lon="6.91657">
        <ele>571</ele>
        <time>2016-10-30T09:37:33.000Z</time>
      </trkpt>
      <trkpt lat="47.42322" lon="6.91658">
        <ele>571</ele>
        <time>2016-10-30T09:37:34.000Z</time>
      </trkpt>
      <trkpt lat="47.42317" lon="6.91659">
        <ele>571</ele>
        <time>2016-10-30T09:37:35.000Z</time>
      </trkpt>
      <trkpt lat="47.42312" lon="6.9166">
        <ele>571</ele>
        <time>2016-10-30T09:37:36.000Z</time>
      </trkpt>
      <trkpt lat="47.42307" lon="6.9166">
        <ele>570</ele>
        <time>2016-10-30T09:37:37.000Z</time>
      </trkpt>
      <trkpt lat="47.42302" lon="6.9166">
        <ele>570</ele>
        <time>2016-10-30T09:37:38.000Z</time>
      </trkpt>
      <trkpt lat="47.42298" lon="6.91659">
        <ele>570</ele>
        <time>2016-10-30T09:37:39.000Z</time>
      </trkpt>
      <trkpt lat="47.42293" lon="6.9166">
        <ele>570</ele>
        <time>2016-10-30T09:37:40.000Z</time>
      </trkpt>
      <trkpt lat="47.42289" lon="6.9166">
        <ele>570</ele>
        <time>2016-10-30T09:37:41.000Z</time>
      </trkpt>
      <trkpt lat="47.42286" lon="6.9166">
        <ele>570</ele>
        <time>2016-10-30T09:37:42.001Z</time>
      </trkpt>
      <trkpt lat="47.42281" lon="6.91659">
        <ele>570</ele>
        <time>2016-10-30T09:37:43.000Z</time>
      </trkpt>
      <trkpt lat="47.42276" lon="6.91659">
        <ele>570</ele>
        <time>2016-10-30T09:37:44.000Z</time>
      </trkpt>
      <trkpt lat="47.42271" lon="6.91659">
        <ele>570</ele>
        <time>2016-10-30T09:37:45.000Z</time>
      </trkpt>
      <trkpt lat="47.42265" lon="6.91658">
        <ele>570</ele>
        <time>2016-10-30T09:37:45.999Z</time>
      </trkpt>
      <trkpt lat="47.4226" lon="6.91658">
        <ele>570</ele>
        <time>2016-10-30T09:37:47.000Z</time>
      </trkpt>
      <trkpt lat="47.42253" lon="6.91659">
        <ele>570</ele>
        <time>2016-10-30T09:37:48.000Z</time>
      </trkpt>
      <trkpt lat="47.42247" lon="6.91659">
        <ele>569</ele>
        <time>2016-10-30T09:37:49.000Z</time>
      </trkpt>
      <trkpt lat="47.42243" lon="6.91659">
        <ele>569</ele>
        <time>2016-10-30T09:37:50.000Z</time>
      </trkpt>
      <trkpt lat="47.42238" lon="6.9166">
        <ele>568</ele>
        <time>2016-10-30T09:37:51.000Z</time>
      </trkpt>
      <trkpt lat="47.42233" lon="6.91661">
        <ele>568</ele>
        <time>2016-10-30T09:37:52.000Z</time>
      </trkpt>
      <trkpt lat="47.42228" lon="6.9166">
        <ele>568</ele>
        <time>2016-10-30T09:37:53.000Z</time>
      </trkpt>
      <trkpt lat="47.42222" lon="6.91661">
        <ele>567</ele>
        <time>2016-10-30T09:37:54.000Z</time>
      </trkpt>
      <trkpt lat="47.42216" lon="6.91661">
        <ele>567</ele>
        <time>2016-10-30T09:37:55.000Z</time>
      </trkpt>
      <trkpt lat="47.4221" lon="6.91661">
        <ele>567</ele>
        <time>2016-10-30T09:37:56.000Z</time>
      </trkpt>
      <trkpt lat="47.42205" lon="6.91661">
        <ele>567</ele>
        <time>2016-10-30T09:37:56.999Z</time>
      </trkpt>
      <trkpt lat="47.42199" lon="6.91662">
        <ele>566</ele>
        <time>2016-10-30T09:37:58.000Z</time>
      </trkpt>
      <trkpt lat="47.42194" lon="6.91663">
        <ele>566</ele>
        <time>2016-10-30T09:37:59.000Z</time>
      </trkpt>
      <trkpt lat="47.42189" lon="6.91663">
        <ele>566</ele>
        <time>2016-10-30T09:38:00.000Z</time>
      </trkpt>
      <trkpt lat="47.42185" lon="6.91664">
        <ele>566</ele>
        <time>2016-10-30T09:38:01.000Z</time>
      </trkpt>
      <trkpt lat="47.4218" lon="6.91665">
        <ele>566</ele>
        <time>2016-10-30T09:38:01.999Z</time>
      </trkpt>
      <trkpt lat="47.42175" lon="6.91665">
        <ele>565</ele>
        <time>2016-10-30T09:38:03.000Z</time>
      </trkpt>
      <trkpt lat="47.42171" lon="6.91665">
        <ele>565</ele>
        <time>2016-10-30T09:38:04.000Z</time>
      </trkpt>
      <trkpt lat="47.42166" lon="6.91665">
        <ele>565</ele>
        <time>2016-10-30T09:38:05.000Z</time>
      </trkpt>
      <trkpt lat="47.4216" lon="6.91666">
        <ele>565</ele>
        <time>2016-10-30T09:38:06.000Z</time>
      </trkpt>
      <trkpt lat="47.42155" lon="6.91666">
        <ele>564</ele>
        <time>2016-10-30T09:38:07.000Z</time>
      </trkpt>
      <trkpt lat="47.4215" lon="6.91666">
        <ele>564</ele>
        <time>2016-10-30T09:38:08.000Z</time>
      </trkpt>
      <trkpt lat="47.42145" lon="6.91666">
        <ele>564</ele>
        <time>2016-10-30T09:38:09.000Z</time>
      </trkpt>
      <trkpt lat="47.4214" lon="6.91666">
        <ele>564</ele>
        <time>2016-10-30T09:38:09.999Z</time>
      </trkpt>
      <trkpt lat="47.42135" lon="6.91666">
        <ele>564</ele>
        <time>2016-10-30T09:38:11.000Z</time>
      </trkpt>
      <trkpt lat="47.4213" lon="6.91665">
        <ele>564</ele>
        <time>2016-10-30T09:38:12.000Z</time>
      </trkpt>
      <trkpt lat="47.42125" lon="6.91665">
        <ele>564</ele>
        <time>2016-10-30T09:38:13.001Z</time>
      </trkpt>
      <trkpt lat="47.42119" lon="6.91664">
        <ele>563</ele>
        <time>2016-10-30T09:38:14.000Z</time>
      </trkpt>
      <trkpt lat="47.42113" lon="6.91663">
        <ele>563</ele>
        <time>2016-10-30T09:38:15.000Z</time>
      </trkpt>
      <trkpt lat="47.42109" lon="6.91663">
        <ele>563</ele>
        <time>2016-10-30T09:38:16.000Z</time>
      </trkpt>
      <trkpt lat="47.42104" lon="6.91662">
        <ele>563</ele>
        <time>2016-10-30T09:38:17.000Z</time>
      </trkpt>
      <trkpt lat="47.421" lon="6.91663">
        <ele>563</ele>
        <time>2016-10-30T09:38:18.000Z</time>
      </trkpt>
      <trkpt lat="47.42097" lon="6.91664">
        <ele>563</ele>
        <time>2016-10-30T09:38:18.999Z</time>
      </trkpt>
      <trkpt lat="47.42089" lon="6.91662">
        <ele>563</ele>
        <time>2016-10-30T09:38:20.000Z</time>
      </trkpt>
      <trkpt lat="47.42083" lon="6.91662">
        <ele>563</ele>
        <time>2016-10-30T09:38:21.000Z</time>
      </trkpt>
      <trkpt lat="47.42078" lon="6.91663">
        <ele>563</ele>
        <time>2016-10-30T09:38:22.000Z</time>
      </trkpt>
      <trkpt lat="47.42072" lon="6.9166">
        <ele>562</ele>
        <time>2016-10-30T09:38:23.000Z</time>
      </trkpt>
      <trkpt lat="47.42065" lon="6.91658">
        <ele>562</ele>
        <time>2016-10-30T09:38:24.000Z</time>
      </trkpt>
      <trkpt lat="47.42061" lon="6.91657">
        <ele>562</ele>
        <time>2016-10-30T09:38:25.000Z</time>
      </trkpt>
      <trkpt lat="47.42055" lon="6.91657">
        <ele>562</ele>
        <time>2016-10-30T09:38:25.999Z</time>
      </trkpt>
      <trkpt lat="47.4205" lon="6.91657">
        <ele>562</ele>
        <time>2016-10-30T09:38:27.000Z</time>
      </trkpt>
      <trkpt lat="47.42045" lon="6.91656">
        <ele>562</ele>
        <time>2016-10-30T09:38:28.000Z</time>
      </trkpt>
      <trkpt lat="47.42039" lon="6.91656">
        <ele>562</ele>
        <time>2016-10-30T09:38:29.000Z</time>
      </trkpt>
      <trkpt lat="47.42033" lon="6.91656">
        <ele>562</ele>
        <time>2016-10-30T09:38:30.000Z</time>
      </trkpt>
      <trkpt lat="47.42028" lon="6.91657">
        <ele>562</ele>
        <time>2016-10-30T09:38:31.000Z</time>
      </trkpt>
      <trkpt lat="47.42023" lon="6.91658">
        <ele>562</ele>
        <time>2016-10-30T09:38:32.000Z</time>
      </trkpt>
      <trkpt lat="47.42018" lon="6.91657">
        <ele>562</ele>
        <time>2016-10-30T09:38:33.000Z</time>
      </trkpt>
      <trkpt lat="47.42013" lon="6.91657">
        <ele>562</ele>
        <time>2016-10-30T09:38:33.999Z</time>
      </trkpt>
      <trkpt lat="47.42011" lon="6.91656">
        <ele>562</ele>
        <time>2016-10-30T09:38:35.000Z</time>
      </trkpt>
      <trkpt lat="47.42007" lon="6.91655">
        <ele>562</ele>
        <time>2016-10-30T09:38:36.000Z</time>
      </trkpt>
      <trkpt lat="47.42" lon="6.91654">
        <ele>562</ele>
        <time>2016-10-30T09:38:37.000Z</time>
      </trkpt>
      <trkpt lat="47.41995" lon="6.91653">
        <ele>561</ele>
        <time>2016-10-30T09:38:38.000Z</time>
      </trkpt>
      <trkpt lat="47.41989" lon="6.91653">
        <ele>561</ele>
        <time>2016-10-30T09:38:39.001Z</time>
      </trkpt>
      <trkpt lat="47.41983" lon="6.91653">
        <ele>561</ele>
        <time>2016-10-30T09:38:40.000Z</time>
      </trkpt>
      <trkpt lat="47.41977" lon="6.91654">
        <ele>561</ele>
        <time>2016-10-30T09:38:41.000Z</time>
      </trkpt>
      <trkpt lat="47.41971" lon="6.91652">
        <ele>561</ele>
        <time>2016-10-30T09:38:42.000Z</time>
      </trkpt>
      <trkpt lat="47.41965" lon="6.91653">
        <ele>561</ele>
        <time>2016-10-30T09:38:43.000Z</time>
      </trkpt>
      <trkpt lat="47.41959" lon="6.91653">
        <ele>561</ele>
        <time>2016-10-30T09:38:43.999Z</time>
      </trkpt>
      <trkpt lat="47.41952" lon="6.91652">
        <ele>561</ele>
        <time>2016-10-30T09:38:45.001Z</time>
      </trkpt>
      <trkpt lat="47.41946" lon="6.91653">
        <ele>561</ele>
        <time>2016-10-30T09:38:46.000Z</time>
      </trkpt>
      <trkpt lat="47.4194" lon="6.91653">
        <ele>562</ele>
        <time>2016-10-30T09:38:47.000Z</time>
      </trkpt>
      <trkpt lat="47.41934" lon="6.91653">
        <ele>562</ele>
        <time>2016-10-30T09:38:48.000Z</time>
      </trkpt>
      <trkpt lat="47.41929" lon="6.91653">
        <ele>562</ele>
        <time>2016-10-30T09:38:49.000Z</time>
      </trkpt>
      <trkpt lat="47.41924" lon="6.91653">
        <ele>562</ele>
        <time>2016-10-30T09:38:50.000Z</time>
      </trkpt>
      <trkpt lat="47.41919" lon="6.91657">
        <ele>562</ele>
        <time>2016-10-30T09:38:51.000Z</time>
      </trkpt>
      <trkpt lat="47.41915" lon="6.91656">
        <ele>562</ele>
        <time>2016-10-30T09:38:52.000Z</time>
      </trkpt>
      <trkpt lat="47.41911" lon="6.91656">
        <ele>562</ele>
        <time>2016-10-30T09:38:53.000Z</time>
      </trkpt>
      <trkpt lat="47.41911" lon="6.91658">
        <ele>562</ele>
        <time>2016-10-30T09:38:54.000Z</time>
      </trkpt>
      <trkpt lat="47.41905" lon="6.91657">
        <ele>561</ele>
        <time>2016-10-30T09:38:55.000Z</time>
      </trkpt>
      <trkpt lat="47.41902" lon="6.91657">
        <ele>561</ele>
        <time>2016-10-30T09:38:56.000Z</time>
      </trkpt>
      <trkpt lat="47.41898" lon="6.91658">
        <ele>561</ele>
        <time>2016-10-30T09:38:57.000Z</time>
      </trkpt>
      <trkpt lat="47.41895" lon="6.91659">
        <ele>561</ele>
        <time>2016-10-30T09:38:58.000Z</time>
      </trkpt>
      <trkpt lat="47.41889" lon="6.91658">
        <ele>560</ele>
        <time>2016-10-30T09:38:59.000Z</time>
      </trkpt>
      <trkpt lat="47.41885" lon="6.91659">
        <ele>560</ele>
        <time>2016-10-30T09:39:00.000Z</time>
      </trkpt>
      <trkpt lat="47.4188" lon="6.9166">
        <ele>560</ele>
        <time>2016-10-30T09:39:01.000Z</time>
      </trkpt>
      <trkpt lat="47.41875" lon="6.91661">
        <ele>559</ele>
        <time>2016-10-30T09:39:02.000Z</time>
      </trkpt>
      <trkpt lat="47.41872" lon="6.91662">
        <ele>559</ele>
        <time>2016-10-30T09:39:03.000Z</time>
      </trkpt>
      <trkpt lat="47.4187" lon="6.91663">
        <ele>559</ele>
        <time>2016-10-30T09:39:04.000Z</time>
      </trkpt>
      <trkpt lat="47.41866" lon="6.91664">
        <ele>559</ele>
        <time>2016-10-30T09:39:23.000Z</time>
      </trkpt>
      <trkpt lat="47.41864" lon="6.91665">
        <ele>559</ele>
        <time>2016-10-30T09:39:24.000Z</time>
      </trkpt>
      <trkpt lat="47.4186" lon="6.91668">
        <ele>554</ele>
        <time>2016-10-30T09:39:26.000Z</time>
      </trkpt>
      <trkpt lat="47.41858" lon="6.91671">
        <ele>554</ele>
        <time>2016-10-30T09:39:27.000Z</time>
      </trkpt>
      <trkpt lat="47.41855" lon="6.91673">
        <ele>554</ele>
        <time>2016-10-30T09:39:28.000Z</time>
      </trkpt>
      <trkpt lat="47.41852" lon="6.91675">
        <ele>554</ele>
        <time>2016-10-30T09:39:29.000Z</time>
      </trkpt>
      <trkpt lat="47.41849" lon="6.91677">
        <ele>554</ele>
        <time>2016-10-30T09:39:30.000Z</time>
      </trkpt>
      <trkpt lat="47.41845" lon="6.91678">
        <ele>554</ele>
        <time>2016-10-30T09:39:31.000Z</time>
      </trkpt>
      <trkpt lat="47.41841" lon="6.91677">
        <ele>554</ele>
        <time>2016-10-30T09:39:32.000Z</time>
      </trkpt>
      <trkpt lat="47.41838" lon="6.91674">
        <ele>554</ele>
        <time>2016-10-30T09:39:33.000Z</time>
      </trkpt>
      <trkpt lat="47.41834" lon="6.91669">
        <ele>555</ele>
        <time>2016-10-30T09:39:34.000Z</time>
      </trkpt>
      <trkpt lat="47.4183" lon="6.91665">
        <ele>554</ele>
        <time>2016-10-30T09:39:35.000Z</time>
      </trkpt>
      <trkpt lat="47.41826" lon="6.91661">
        <ele>552</ele>
        <time>2016-10-30T09:39:36.000Z</time>
      </trkpt>
      <trkpt lat="47.41822" lon="6.91659">
        <ele>552</ele>
        <time>2016-10-30T09:39:37.000Z</time>
      </trkpt>
      <trkpt lat="47.41818" lon="6.91657">
        <ele>551</ele>
        <time>2016-10-30T09:39:38.000Z</time>
      </trkpt>
      <trkpt lat="47.41815" lon="6.91656">
        <ele>550</ele>
        <time>2016-10-30T09:39:39.000Z</time>
      </trkpt>
      <trkpt lat="47.41811" lon="6.91654">
        <ele>549</ele>
        <time>2016-10-30T09:39:40.000Z</time>
      </trkpt>
      <trkpt lat="47.41807" lon="6.91653">
        <ele>549</ele>
        <time>2016-10-30T09:39:41.000Z</time>
      </trkpt>
      <trkpt lat="47.41802" lon="6.91651">
        <ele>548</ele>
        <time>2016-10-30T09:39:42.000Z</time>
      </trkpt>
      <trkpt lat="47.41798" lon="6.91649">
        <ele>547</ele>
        <time>2016-10-30T09:39:43.000Z</time>
      </trkpt>
      <trkpt lat="47.41794" lon="6.91647">
        <ele>546</ele>
        <time>2016-10-30T09:39:44.000Z</time>
      </trkpt>
      <trkpt lat="47.4179" lon="6.91644">
        <ele>546</ele>
        <time>2016-10-30T09:39:45.000Z</time>
      </trkpt>
      <trkpt lat="47.41776" lon="6.91626">
        <ele>545</ele>
        <time>2016-10-30T09:39:46.000Z</time>
      </trkpt>
      <trkpt lat="47.41767" lon="6.91617">
        <ele>545</ele>
        <time>2016-10-30T09:39:47.000Z</time>
      </trkpt>
      <trkpt lat="47.4176" lon="6.91607">
        <ele>546</ele>
        <time>2016-10-30T09:39:48.000Z</time>
      </trkpt>
      <trkpt lat="47.41753" lon="6.91601">
        <ele>545</ele>
        <time>2016-10-30T09:39:49.000Z</time>
      </trkpt>
      <trkpt lat="47.41747" lon="6.91591">
        <ele>538</ele>
        <time>2016-10-30T09:39:50.000Z</time>
      </trkpt>
      <trkpt lat="47.41742" lon="6.91587">
        <ele>537</ele>
        <time>2016-10-30T09:39:51.000Z</time>
      </trkpt>
      <trkpt lat="47.41736" lon="6.9158">
        <ele>542</ele>
        <time>2016-10-30T09:39:52.000Z</time>
      </trkpt>
      <trkpt lat="47.41731" lon="6.91575">
        <ele>541</ele>
        <time>2016-10-30T09:39:53.000Z</time>
      </trkpt>
      <trkpt lat="47.41726" lon="6.91571">
        <ele>540</ele>
        <time>2016-10-30T09:39:54.000Z</time>
      </trkpt>
      <trkpt lat="47.41722" lon="6.91567">
        <ele>539</ele>
        <time>2016-10-30T09:39:55.000Z</time>
      </trkpt>
      <trkpt lat="47.41717" lon="6.91565">
        <ele>538</ele>
        <time>2016-10-30T09:39:56.000Z</time>
      </trkpt>
      <trkpt lat="47.41714" lon="6.91561">
        <ele>538</ele>
        <time>2016-10-30T09:39:57.000Z</time>
      </trkpt>
      <trkpt lat="47.4171" lon="6.91559">
        <ele>537</ele>
        <time>2016-10-30T09:39:58.000Z</time>
      </trkpt>
      <trkpt lat="47.41707" lon="6.91556">
        <ele>537</ele>
        <time>2016-10-30T09:39:59.000Z</time>
      </trkpt>
      <trkpt lat="47.41702" lon="6.91556">
        <ele>536</ele>
        <time>2016-10-30T09:40:00.000Z</time>
      </trkpt>
      <trkpt lat="47.41699" lon="6.91553">
        <ele>535</ele>
        <time>2016-10-30T09:40:01.000Z</time>
      </trkpt>
      <trkpt lat="47.41695" lon="6.91551">
        <ele>535</ele>
        <time>2016-10-30T09:40:02.000Z</time>
      </trkpt>
      <trkpt lat="47.4169" lon="6.91551">
        <ele>534</ele>
        <time>2016-10-30T09:40:03.000Z</time>
      </trkpt>
      <trkpt lat="47.41687" lon="6.91549">
        <ele>534</ele>
        <time>2016-10-30T09:40:04.000Z</time>
      </trkpt>
      <trkpt lat="47.41684" lon="6.91547">
        <ele>534</ele>
        <time>2016-10-30T09:40:05.000Z</time>
      </trkpt>
      <trkpt lat="47.41681" lon="6.91546">
        <ele>534</ele>
        <time>2016-10-30T09:40:06.000Z</time>
      </trkpt>
      <trkpt lat="47.41678" lon="6.91544">
        <ele>533</ele>
        <time>2016-10-30T09:40:07.000Z</time>
      </trkpt>
      <trkpt lat="47.41674" lon="6.91542">
        <ele>534</ele>
        <time>2016-10-30T09:40:08.000Z</time>
      </trkpt>
      <trkpt lat="47.41671" lon="6.91539">
        <ele>534</ele>
        <time>2016-10-30T09:40:09.000Z</time>
      </trkpt>
      <trkpt lat="47.41668" lon="6.91537">
        <ele>534</ele>
        <time>2016-10-30T09:40:10.000Z</time>
      </trkpt>
      <trkpt lat="47.41657" lon="6.91524">
        <ele>517</ele>
        <time>2016-10-30T09:40:11.000Z</time>
      </trkpt>
      <trkpt lat="47.41653" lon="6.9152">
        <ele>517</ele>
        <time>2016-10-30T09:40:12.000Z</time>
      </trkpt>
      <trkpt lat="47.41647" lon="6.91518">
        <ele>516</ele>
        <time>2016-10-30T09:40:13.000Z</time>
      </trkpt>
      <trkpt lat="47.41644" lon="6.91516">
        <ele>515</ele>
        <time>2016-10-30T09:40:14.000Z</time>
      </trkpt>
      <trkpt lat="47.41639" lon="6.91514">
        <ele>514</ele>
        <time>2016-10-30T09:40:15.000Z</time>
      </trkpt>
      <trkpt lat="47.41632" lon="6.91511">
        <ele>512</ele>
        <time>2016-10-30T09:40:16.000Z</time>
      </trkpt>
      <trkpt lat="47.41626" lon="6.91508">
        <ele>511</ele>
        <time>2016-10-30T09:40:17.000Z</time>
      </trkpt>
      <trkpt lat="47.41621" lon="6.915">
        <ele>510</ele>
        <time>2016-10-30T09:40:18.000Z</time>
      </trkpt>
      <trkpt lat="47.41616" lon="6.91499">
        <ele>520</ele>
        <time>2016-10-30T09:40:19.000Z</time>
      </trkpt>
      <trkpt lat="47.41612" lon="6.91496">
        <ele>519</ele>
        <time>2016-10-30T09:40:20.000Z</time>
      </trkpt>
      <trkpt lat="47.41606" lon="6.91488">
        <ele>518</ele>
        <time>2016-10-30T09:40:21.000Z</time>
      </trkpt>
      <trkpt lat="47.41601" lon="6.91483">
        <ele>517</ele>
        <time>2016-10-30T09:40:22.000Z</time>
      </trkpt>
      <trkpt lat="47.41598" lon="6.91479">
        <ele>518</ele>
        <time>2016-10-30T09:40:23.000Z</time>
      </trkpt>
      <trkpt lat="47.41593" lon="6.91475">
        <ele>518</ele>
        <time>2016-10-30T09:40:24.000Z</time>
      </trkpt>
      <trkpt lat="47.41589" lon="6.91472">
        <ele>518</ele>
        <time>2016-10-30T09:40:25.000Z</time>
      </trkpt>
      <trkpt lat="47.41584" lon="6.91469">
        <ele>519</ele>
        <time>2016-10-30T09:40:26.000Z</time>
      </trkpt>
      <trkpt lat="47.41579" lon="6.91467">
        <ele>502</ele>
        <time>2016-10-30T09:40:27.000Z</time>
      </trkpt>
      <trkpt lat="47.41575" lon="6.91462">
        <ele>502</ele>
        <time>2016-10-30T09:40:28.000Z</time>
      </trkpt>
      <trkpt lat="47.41571" lon="6.91458">
        <ele>503</ele>
        <time>2016-10-30T09:40:29.000Z</time>
      </trkpt>
      <trkpt lat="47.41567" lon="6.91457">
        <ele>502</ele>
        <time>2016-10-30T09:40:30.000Z</time>
      </trkpt>
      <trkpt lat="47.41563" lon="6.91454">
        <ele>502</ele>
        <time>2016-10-30T09:40:31.000Z</time>
      </trkpt>
      <trkpt lat="47.41559" lon="6.91452">
        <ele>502</ele>
        <time>2016-10-30T09:40:32.000Z</time>
      </trkpt>
      <trkpt lat="47.4155" lon="6.91438">
        <ele>503</ele>
        <time>2016-10-30T09:40:33.000Z</time>
      </trkpt>
      <trkpt lat="47.41544" lon="6.91433">
        <ele>502</ele>
        <time>2016-10-30T09:40:34.000Z</time>
      </trkpt>
      <trkpt lat="47.41539" lon="6.91427">
        <ele>502</ele>
        <time>2016-10-30T09:40:35.000Z</time>
      </trkpt>
      <trkpt lat="47.41535" lon="6.9142">
        <ele>501</ele>
        <time>2016-10-30T09:40:36.000Z</time>
      </trkpt>
      <trkpt lat="47.41531" lon="6.91414">
        <ele>512</ele>
        <time>2016-10-30T09:40:37.000Z</time>
      </trkpt>
      <trkpt lat="47.41527" lon="6.91411">
        <ele>511</ele>
        <time>2016-10-30T09:40:38.000Z</time>
      </trkpt>
      <trkpt lat="47.41523" lon="6.91407">
        <ele>510</ele>
        <time>2016-10-30T09:40:39.000Z</time>
      </trkpt>
      <trkpt lat="47.41519" lon="6.91403">
        <ele>510</ele>
        <time>2016-10-30T09:40:40.000Z</time>
      </trkpt>
      <trkpt lat="47.41517" lon="6.914">
        <ele>510</ele>
        <time>2016-10-30T09:40:41.000Z</time>
      </trkpt>
      <trkpt lat="47.41512" lon="6.91398">
        <ele>509</ele>
        <time>2016-10-30T09:40:42.000Z</time>
      </trkpt>
      <trkpt lat="47.41508" lon="6.91398">
        <ele>508</ele>
        <time>2016-10-30T09:40:43.000Z</time>
      </trkpt>
      <trkpt lat="47.41506" lon="6.91395">
        <ele>509</ele>
        <time>2016-10-30T09:40:44.000Z</time>
      </trkpt>
      <trkpt lat="47.41505" lon="6.91391">
        <ele>510</ele>
        <time>2016-10-30T09:40:45.000Z</time>
      </trkpt>
      <trkpt lat="47.41503" lon="6.9139">
        <ele>510</ele>
        <time>2016-10-30T09:40:46.000Z</time>
      </trkpt>
      <trkpt lat="47.415" lon="6.91386">
        <ele>496</ele>
        <time>2016-10-30T09:40:50.000Z</time>
      </trkpt>
      <trkpt lat="47.41499" lon="6.91385">
        <ele>496</ele>
        <time>2016-10-30T09:40:51.000Z</time>
      </trkpt>
      <trkpt lat="47.41495" lon="6.91382">
        <ele>496</ele>
        <time>2016-10-30T09:40:57.000Z</time>
      </trkpt>
      <trkpt lat="47.41495" lon="6.91382">
        <ele>496</ele>
        <time>2016-10-30T09:40:58.000Z</time>
      </trkpt>
      <trkpt lat="47.41491" lon="6.91379">
        <ele>496</ele>
        <time>2016-10-30T09:41:23.000Z</time>
      </trkpt>
      <trkpt lat="47.4149" lon="6.91379">
        <ele>496</ele>
        <time>2016-10-30T09:41:24.000Z</time>
      </trkpt>
      <trkpt lat="47.41489" lon="6.91377">
        <ele>496</ele>
        <time>2016-10-30T09:41:25.000Z</time>
      </trkpt>
      <trkpt lat="47.41486" lon="6.91377">
        <ele>496</ele>
        <time>2016-10-30T09:41:26.000Z</time>
      </trkpt>
      <trkpt lat="47.41483" lon="6.91376">
        <ele>496</ele>
        <time>2016-10-30T09:41:27.000Z</time>
      </trkpt>
      <trkpt lat="47.4148" lon="6.91376">
        <ele>496</ele>
        <time>2016-10-30T09:41:28.000Z</time>
      </trkpt>
      <trkpt lat="47.41477" lon="6.91375">
        <ele>495</ele>
        <time>2016-10-30T09:41:29.000Z</time>
      </trkpt>
      <trkpt lat="47.41473" lon="6.91374">
        <ele>495</ele>
        <time>2016-10-30T09:41:30.000Z</time>
      </trkpt>
      <trkpt lat="47.4147" lon="6.91374">
        <ele>494</ele>
        <time>2016-10-30T09:41:31.000Z</time>
      </trkpt>
      <trkpt lat="47.41452" lon="6.91367">
        <ele>492</ele>
        <time>2016-10-30T09:41:32.000Z</time>
      </trkpt>
      <trkpt lat="47.41447" lon="6.91365">
        <ele>492</ele>
        <time>2016-10-30T09:41:33.000Z</time>
      </trkpt>
      <trkpt lat="47.4144" lon="6.91365">
        <ele>491</ele>
        <time>2016-10-30T09:41:34.000Z</time>
      </trkpt>
      <trkpt lat="47.41433" lon="6.91365">
        <ele>490</ele>
        <time>2016-10-30T09:41:35.000Z</time>
      </trkpt>
      <trkpt lat="47.41427" lon="6.91364">
        <ele>490</ele>
        <time>2016-10-30T09:41:36.000Z</time>
      </trkpt>
      <trkpt lat="47.41423" lon="6.91363">
        <ele>489</ele>
        <time>2016-10-30T09:41:37.000Z</time>
      </trkpt>
      <trkpt lat="47.41414" lon="6.91359">
        <ele>478</ele>
        <time>2016-10-30T09:41:38.000Z</time>
      </trkpt>
      <trkpt lat="47.41407" lon="6.91357">
        <ele>478</ele>
        <time>2016-10-30T09:41:39.000Z</time>
      </trkpt>
      <trkpt lat="47.41402" lon="6.91356">
        <ele>478</ele>
        <time>2016-10-30T09:41:40.000Z</time>
      </trkpt>
      <trkpt lat="47.41398" lon="6.91352">
        <ele>478</ele>
        <time>2016-10-30T09:41:41.000Z</time>
      </trkpt>
      <trkpt lat="47.41396" lon="6.91349">
        <ele>478</ele>
        <time>2016-10-30T09:41:42.000Z</time>
      </trkpt>
      <trkpt lat="47.41391" lon="6.91347">
        <ele>477</ele>
        <time>2016-10-30T09:41:43.000Z</time>
      </trkpt>
      <trkpt lat="47.41384" lon="6.91345">
        <ele>476</ele>
        <time>2016-10-30T09:41:44.000Z</time>
      </trkpt>
      <trkpt lat="47.41379" lon="6.91339">
        <ele>475</ele>
        <time>2016-10-30T09:41:45.000Z</time>
      </trkpt>
      <trkpt lat="47.41375" lon="6.91338">
        <ele>475</ele>
        <time>2016-10-30T09:41:46.000Z</time>
      </trkpt>
      <trkpt lat="47.41371" lon="6.91335">
        <ele>474</ele>
        <time>2016-10-30T09:41:47.000Z</time>
      </trkpt>
      <trkpt lat="47.41365" lon="6.91332">
        <ele>481</ele>
        <time>2016-10-30T09:41:48.000Z</time>
      </trkpt>
      <trkpt lat="47.4136" lon="6.91331">
        <ele>480</ele>
        <time>2016-10-30T09:41:49.000Z</time>
      </trkpt>
      <trkpt lat="47.41349" lon="6.91329">
        <ele>477</ele>
        <time>2016-10-30T09:41:50.000Z</time>
      </trkpt>
      <trkpt lat="47.41342" lon="6.91327">
        <ele>474</ele>
        <time>2016-10-30T09:41:51.000Z</time>
      </trkpt>
      <trkpt lat="47.41334" lon="6.91325">
        <ele>473</ele>
        <time>2016-10-30T09:41:52.000Z</time>
      </trkpt>
      <trkpt lat="47.41323" lon="6.91329">
        <ele>468</ele>
        <time>2016-10-30T09:41:53.000Z</time>
      </trkpt>
      <trkpt lat="47.41315" lon="6.91327">
        <ele>468</ele>
        <time>2016-10-30T09:41:54.000Z</time>
      </trkpt>
      <trkpt lat="47.41307" lon="6.91324">
        <ele>468</ele>
        <time>2016-10-30T09:41:55.000Z</time>
      </trkpt>
      <trkpt lat="47.41299" lon="6.91323">
        <ele>468</ele>
        <time>2016-10-30T09:41:56.000Z</time>
      </trkpt>
      <trkpt lat="47.41293" lon="6.91319">
        <ele>467</ele>
        <time>2016-10-30T09:41:57.000Z</time>
      </trkpt>
      <trkpt lat="47.41286" lon="6.91317">
        <ele>467</ele>
        <time>2016-10-30T09:41:58.000Z</time>
      </trkpt>
      <trkpt lat="47.41278" lon="6.91315">
        <ele>466</ele>
        <time>2016-10-30T09:41:59.000Z</time>
      </trkpt>
      <trkpt lat="47.41269" lon="6.91311">
        <ele>466</ele>
        <time>2016-10-30T09:42:00.000Z</time>
      </trkpt>
      <trkpt lat="47.41262" lon="6.91304">
        <ele>466</ele>
        <time>2016-10-30T09:42:01.000Z</time>
      </trkpt>
      <trkpt lat="47.41256" lon="6.91296">
        <ele>466</ele>
        <time>2016-10-30T09:42:02.000Z</time>
      </trkpt>
      <trkpt lat="47.4125" lon="6.91292">
        <ele>463</ele>
        <time>2016-10-30T09:42:03.000Z</time>
      </trkpt>
      <trkpt lat="47.41244" lon="6.91288">
        <ele>464</ele>
        <time>2016-10-30T09:42:04.000Z</time>
      </trkpt>
      <trkpt lat="47.41239" lon="6.91285">
        <ele>464</ele>
        <time>2016-10-30T09:42:05.000Z</time>
      </trkpt>
      <trkpt lat="47.41233" lon="6.91281">
        <ele>464</ele>
        <time>2016-10-30T09:42:06.000Z</time>
      </trkpt>
      <trkpt lat="47.41229" lon="6.91278">
        <ele>464</ele>
        <time>2016-10-30T09:42:07.000Z</time>
      </trkpt>
      <trkpt lat="47.41226" lon="6.91275">
        <ele>464</ele>
        <time>2016-10-30T09:42:08.000Z</time>
      </trkpt>
      <trkpt lat="47.41223" lon="6.91273">
        <ele>464</ele>
        <time>2016-10-30T09:42:09.000Z</time>
      </trkpt>
      <trkpt lat="47.4122" lon="6.91272">
        <ele>464</ele>
        <time>2016-10-30T09:42:10.000Z</time>
      </trkpt>
      <trkpt lat="47.41217" lon="6.91271">
        <ele>464</ele>
        <time>2016-10-30T09:42:11.000Z</time>
      </trkpt>
      <trkpt lat="47.41213" lon="6.91269">
        <ele>464</ele>
        <time>2016-10-30T09:42:12.000Z</time>
      </trkpt>
      <trkpt lat="47.4121" lon="6.91268">
        <ele>463</ele>
        <time>2016-10-30T09:42:13.000Z</time>
      </trkpt>
      <trkpt lat="47.41206" lon="6.91267">
        <ele>463</ele>
        <time>2016-10-30T09:42:14.000Z</time>
      </trkpt>
      <trkpt lat="47.41201" lon="6.91266">
        <ele>463</ele>
        <time>2016-10-30T09:42:15.000Z</time>
      </trkpt>
      <trkpt lat="47.41196" lon="6.91266">
        <ele>463</ele>
        <time>2016-10-30T09:42:16.000Z</time>
      </trkpt>
      <trkpt lat="47.41191" lon="6.91265">
        <ele>463</ele>
        <time>2016-10-30T09:42:17.000Z</time>
      </trkpt>
      <trkpt lat="47.41187" lon="6.91264">
        <ele>462</ele>
        <time>2016-10-30T09:42:18.000Z</time>
      </trkpt>
      <trkpt lat="47.41186" lon="6.9126">
        <ele>462</ele>
        <time>2016-10-30T09:42:19.000Z</time>
      </trkpt>
      <trkpt lat="47.41184" lon="6.91254">
        <ele>462</ele>
        <time>2016-10-30T09:42:23.000Z</time>
      </trkpt>
      <trkpt lat="47.41184" lon="6.91254">
        <ele>462</ele>
        <time>2016-10-30T09:42:24.000Z</time>
      </trkpt>
      <trkpt lat="47.41181" lon="6.9125">
        <ele>461</ele>
        <time>2016-10-30T09:42:37.000Z</time>
      </trkpt>
      <trkpt lat="47.4118" lon="6.9125">
        <ele>461</ele>
        <time>2016-10-30T09:42:38.000Z</time>
      </trkpt>
      <trkpt lat="47.41176" lon="6.91249">
        <ele>461</ele>
        <time>2016-10-30T09:42:41.000Z</time>
      </trkpt>
      <trkpt lat="47.41175" lon="6.91249">
        <ele>461</ele>
        <time>2016-10-30T09:42:42.000Z</time>
      </trkpt>
      <trkpt lat="47.41172" lon="6.91249">
        <ele>460</ele>
        <time>2016-10-30T09:42:44.000Z</time>
      </trkpt>
      <trkpt lat="47.4117" lon="6.9125">
        <ele>460</ele>
        <time>2016-10-30T09:42:45.000Z</time>
      </trkpt>
      <trkpt lat="47.41166" lon="6.91249">
        <ele>459</ele>
        <time>2016-10-30T09:42:52.000Z</time>
      </trkpt>
      <trkpt lat="47.41165" lon="6.91249">
        <ele>459</ele>
        <time>2016-10-30T09:42:53.000Z</time>
      </trkpt>
      <trkpt lat="47.41161" lon="6.9125">
        <ele>459</ele>
        <time>2016-10-30T09:44:02.000Z</time>
      </trkpt>
      <trkpt lat="47.41161" lon="6.9125">
        <ele>459</ele>
        <time>2016-10-30T09:44:03.000Z</time>
      </trkpt>
      <trkpt lat="47.41163" lon="6.91245">
        <ele>459</ele>
        <time>2016-10-30T09:44:45.000Z</time>
      </trkpt>
      <trkpt lat="47.41164" lon="6.91244">
        <ele>459</ele>
        <time>2016-10-30T09:44:46.000Z</time>
      </trkpt>
      <trkpt lat="47.41168" lon="6.91245">
        <ele>460</ele>
        <time>2016-10-30T09:44:50.000Z</time>
      </trkpt>
      <trkpt lat="47.41169" lon="6.91245">
        <ele>460</ele>
        <time>2016-10-30T09:44:51.000Z</time>
      </trkpt>
      <trkpt lat="47.41171" lon="6.91249">
        <ele>460</ele>
        <time>2016-10-30T09:44:53.000Z</time>
      </trkpt>
      <trkpt lat="47.41172" lon="6.9125">
        <ele>460</ele>
        <time>2016-10-30T09:44:54.000Z</time>
      </trkpt>
      <trkpt lat="47.41175" lon="6.91254">
        <ele>461</ele>
        <time>2016-10-30T09:44:57.000Z</time>
      </trkpt>
      <trkpt lat="47.41177" lon="6.91255">
        <ele>461</ele>
        <time>2016-10-30T09:44:58.000Z</time>
      </trkpt>
      <trkpt lat="47.41181" lon="6.91257">
        <ele>461</ele>
        <time>2016-10-30T09:45:02.000Z</time>
      </trkpt>
      <trkpt lat="47.41182" lon="6.91257">
        <ele>462</ele>
        <time>2016-10-30T09:45:03.000Z</time>
      </trkpt>
      <trkpt lat="47.41186" lon="6.91259">
        <ele>462</ele>
        <time>2016-10-30T09:45:05.000Z</time>
      </trkpt>
      <trkpt lat="47.41187" lon="6.9126">
        <ele>462</ele>
        <time>2016-10-30T09:45:06.000Z</time>
      </trkpt>
      <trkpt lat="47.4119" lon="6.91261">
        <ele>462</ele>
        <time>2016-10-30T09:45:08.000Z</time>
      </trkpt>
      <trkpt lat="47.41192" lon="6.91262">
        <ele>462</ele>
        <time>2016-10-30T09:45:09.000Z</time>
      </trkpt>
      <trkpt lat="47.41195" lon="6.91264">
        <ele>463</ele>
        <time>2016-10-30T09:45:11.000Z</time>
      </trkpt>
      <trkpt lat="47.41196" lon="6.91266">
        <ele>463</ele>
        <time>2016-10-30T09:45:12.000Z</time>
      </trkpt>
      <trkpt lat="47.41199" lon="6.91269">
        <ele>463</ele>
        <time>2016-10-30T09:45:14.000Z</time>
      </trkpt>
      <trkpt lat="47.41201" lon="6.9127">
        <ele>463</ele>
        <time>2016-10-30T09:45:15.000Z</time>
      </trkpt>
      <trkpt lat="47.41204" lon="6.91272">
        <ele>463</ele>
        <time>2016-10-30T09:45:19.000Z</time>
      </trkpt>
      <trkpt lat="47.41205" lon="6.91272">
        <ele>463</ele>
        <time>2016-10-30T09:45:20.000Z</time>
      </trkpt>
      <trkpt lat="47.41209" lon="6.91273">
        <ele>463</ele>
        <time>2016-10-30T09:45:22.000Z</time>
      </trkpt>
      <trkpt lat="47.4121" lon="6.91274">
        <ele>463</ele>
        <time>2016-10-30T09:45:23.000Z</time>
      </trkpt>
      <trkpt lat="47.41213" lon="6.91276">
        <ele>464</ele>
        <time>2016-10-30T09:45:25.000Z</time>
      </trkpt>
      <trkpt lat="47.41214" lon="6.91278">
        <ele>464</ele>
        <time>2016-10-30T09:45:26.000Z</time>
      </trkpt>
      <trkpt lat="47.41216" lon="6.9128">
        <ele>464</ele>
        <time>2016-10-30T09:45:27.000Z</time>
      </trkpt>
      <trkpt lat="47.41218" lon="6.91281">
        <ele>464</ele>
        <time>2016-10-30T09:45:28.000Z</time>
      </trkpt>
      <trkpt lat="47.4122" lon="6.91283">
        <ele>464</ele>
        <time>2016-10-30T09:45:29.000Z</time>
      </trkpt>
      <trkpt lat="47.41222" lon="6.91285">
        <ele>464</ele>
        <time>2016-10-30T09:45:30.000Z</time>
      </trkpt>
      <trkpt lat="47.41224" lon="6.91287">
        <ele>464</ele>
        <time>2016-10-30T09:45:31.000Z</time>
      </trkpt>
      <trkpt lat="47.41227" lon="6.91288">
        <ele>463</ele>
        <time>2016-10-30T09:45:32.000Z</time>
      </trkpt>
      <trkpt lat="47.41229" lon="6.91289">
        <ele>463</ele>
        <time>2016-10-30T09:45:33.000Z</time>
      </trkpt>
      <trkpt lat="47.41231" lon="6.91291">
        <ele>463</ele>
        <time>2016-10-30T09:45:34.000Z</time>
      </trkpt>
      <trkpt lat="47.41234" lon="6.91293">
        <ele>463</ele>
        <time>2016-10-30T09:45:36.000Z</time>
      </trkpt>
      <trkpt lat="47.41236" lon="6.91295">
        <ele>463</ele>
        <time>2016-10-30T09:45:37.000Z</time>
      </trkpt>
      <trkpt lat="47.41238" lon="6.91298">
        <ele>463</ele>
        <time>2016-10-30T09:45:39.000Z</time>
      </trkpt>
      <trkpt lat="47.4124" lon="6.91299">
        <ele>463</ele>
        <time>2016-10-30T09:45:40.000Z</time>
      </trkpt>
      <trkpt lat="47.41242" lon="6.91301">
        <ele>463</ele>
        <time>2016-10-30T09:45:41.000Z</time>
      </trkpt>
      <trkpt lat="47.41244" lon="6.91302">
        <ele>463</ele>
        <time>2016-10-30T09:45:42.000Z</time>
      </trkpt>
      <trkpt lat="47.41246" lon="6.91304">
        <ele>463</ele>
        <time>2016-10-30T09:45:43.000Z</time>
      </trkpt>
      <trkpt lat="47.41248" lon="6.91306">
        <ele>462</ele>
        <time>2016-10-30T09:45:44.000Z</time>
      </trkpt>
      <trkpt lat="47.4125" lon="6.91307">
        <ele>465</ele>
        <time>2016-10-30T09:45:45.000Z</time>
      </trkpt>
      <trkpt lat="47.41252" lon="6.91308">
        <ele>465</ele>
        <time>2016-10-30T09:45:46.000Z</time>
      </trkpt>
      <trkpt lat="47.41255" lon="6.91308">
        <ele>465</ele>
        <time>2016-10-30T09:45:47.000Z</time>
      </trkpt>
      <trkpt lat="47.41258" lon="6.91308">
        <ele>465</ele>
        <time>2016-10-30T09:45:48.000Z</time>
      </trkpt>
      <trkpt lat="47.41262" lon="6.91309">
        <ele>465</ele>
        <time>2016-10-30T09:45:50.000Z</time>
      </trkpt>
      <trkpt lat="47.41264" lon="6.91311">
        <ele>465</ele>
        <time>2016-10-30T09:45:51.000Z</time>
      </trkpt>
      <trkpt lat="47.41268" lon="6.91314">
        <ele>465</ele>
        <time>2016-10-30T09:45:53.000Z</time>
      </trkpt>
      <trkpt lat="47.41269" lon="6.91315">
        <ele>465</ele>
        <time>2016-10-30T09:45:54.000Z</time>
      </trkpt>
      <trkpt lat="47.41272" lon="6.91318">
        <ele>465</ele>
        <time>2016-10-30T09:45:57.000Z</time>
      </trkpt>
      <trkpt lat="47.41274" lon="6.9132">
        <ele>465</ele>
        <time>2016-10-30T09:45:58.000Z</time>
      </trkpt>
      <trkpt lat="47.41277" lon="6.91324">
        <ele>466</ele>
        <time>2016-10-30T09:46:00.000Z</time>
      </trkpt>
      <trkpt lat="47.41279" lon="6.91325">
        <ele>466</ele>
        <time>2016-10-30T09:46:01.000Z</time>
      </trkpt>
      <trkpt lat="47.4128" lon="6.91328">
        <ele>466</ele>
        <time>2016-10-30T09:46:02.000Z</time>
      </trkpt>
      <trkpt lat="47.41282" lon="6.91331">
        <ele>466</ele>
        <time>2016-10-30T09:46:03.000Z</time>
      </trkpt>
      <trkpt lat="47.41285" lon="6.91334">
        <ele>465</ele>
        <time>2016-10-30T09:46:04.000Z</time>
      </trkpt>
      <trkpt lat="47.41287" lon="6.91337">
        <ele>465</ele>
        <time>2016-10-30T09:46:05.000Z</time>
      </trkpt>
      <trkpt lat="47.41289" lon="6.9134">
        <ele>466</ele>
        <time>2016-10-30T09:46:06.000Z</time>
      </trkpt>
      <trkpt lat="47.41291" lon="6.91343">
        <ele>466</ele>
        <time>2016-10-30T09:46:07.000Z</time>
      </trkpt>
      <trkpt lat="47.41293" lon="6.91346">
        <ele>466</ele>
        <time>2016-10-30T09:46:08.000Z</time>
      </trkpt>
      <trkpt lat="47.41294" lon="6.91349">
        <ele>466</ele>
        <time>2016-10-30T09:46:09.000Z</time>
      </trkpt>
      <trkpt lat="47.41296" lon="6.91352">
        <ele>466</ele>
        <time>2016-10-30T09:46:10.000Z</time>
      </trkpt>
      <trkpt lat="47.41298" lon="6.91354">
        <ele>466</ele>
        <time>2016-10-30T09:46:11.000Z</time>
      </trkpt>
      <trkpt lat="47.41301" lon="6.91358">
        <ele>467</ele>
        <time>2016-10-30T09:46:13.000Z</time>
      </trkpt>
      <trkpt lat="47.41303" lon="6.91359">
        <ele>467</ele>
        <time>2016-10-30T09:46:14.000Z</time>
      </trkpt>
      <trkpt lat="47.41305" lon="6.91361">
        <ele>467</ele>
        <time>2016-10-30T09:46:15.000Z</time>
      </trkpt>
      <trkpt lat="47.41307" lon="6.91363">
        <ele>467</ele>
        <time>2016-10-30T09:46:16.000Z</time>
      </trkpt>
      <trkpt lat="47.41309" lon="6.91365">
        <ele>467</ele>
        <time>2016-10-30T09:46:17.000Z</time>
      </trkpt>
      <trkpt lat="47.41312" lon="6.91368">
        <ele>467</ele>
        <time>2016-10-30T09:46:18.000Z</time>
      </trkpt>
      <trkpt lat="47.41315" lon="6.91371">
        <ele>467</ele>
        <time>2016-10-30T09:46:19.000Z</time>
      </trkpt>
      <trkpt lat="47.41317" lon="6.91373">
        <ele>467</ele>
        <time>2016-10-30T09:46:20.000Z</time>
      </trkpt>
      <trkpt lat="47.4132" lon="6.91376">
        <ele>467</ele>
        <time>2016-10-30T09:46:21.000Z</time>
      </trkpt>
      <trkpt lat="47.41321" lon="6.91378">
        <ele>467</ele>
        <time>2016-10-30T09:46:22.000Z</time>
      </trkpt>
      <trkpt lat="47.41323" lon="6.9138">
        <ele>467</ele>
        <time>2016-10-30T09:46:23.000Z</time>
      </trkpt>
      <trkpt lat="47.41325" lon="6.91383">
        <ele>467</ele>
        <time>2016-10-30T09:46:24.000Z</time>
      </trkpt>
      <trkpt lat="47.41327" lon="6.91385">
        <ele>466</ele>
        <time>2016-10-30T09:46:25.000Z</time>
      </trkpt>
      <trkpt lat="47.41329" lon="6.91388">
        <ele>466</ele>
        <time>2016-10-30T09:46:26.000Z</time>
      </trkpt>
      <trkpt lat="47.41331" lon="6.9139">
        <ele>466</ele>
        <time>2016-10-30T09:46:27.000Z</time>
      </trkpt>
      <trkpt lat="47.41333" lon="6.91393">
        <ele>466</ele>
        <time>2016-10-30T09:46:28.000Z</time>
      </trkpt>
      <trkpt lat="47.41335" lon="6.91395">
        <ele>469</ele>
        <time>2016-10-30T09:46:29.000Z</time>
      </trkpt>
      <trkpt lat="47.41337" lon="6.91397">
        <ele>468</ele>
        <time>2016-10-30T09:46:30.000Z</time>
      </trkpt>
      <trkpt lat="47.41339" lon="6.91399">
        <ele>468</ele>
        <time>2016-10-30T09:46:31.000Z</time>
      </trkpt>
      <trkpt lat="47.41341" lon="6.914">
        <ele>468</ele>
        <time>2016-10-30T09:46:32.000Z</time>
      </trkpt>
      <trkpt lat="47.41343" lon="6.91402">
        <ele>468</ele>
        <time>2016-10-30T09:46:33.000Z</time>
      </trkpt>
      <trkpt lat="47.41345" lon="6.91404">
        <ele>468</ele>
        <time>2016-10-30T09:46:34.000Z</time>
      </trkpt>
      <trkpt lat="47.41348" lon="6.91408">
        <ele>468</ele>
        <time>2016-10-30T09:46:36.000Z</time>
      </trkpt>
      <trkpt lat="47.4135" lon="6.9141">
        <ele>468</ele>
        <time>2016-10-30T09:46:37.000Z</time>
      </trkpt>
      <trkpt lat="47.41352" lon="6.91412">
        <ele>468</ele>
        <time>2016-10-30T09:46:38.000Z</time>
      </trkpt>
      <trkpt lat="47.41354" lon="6.91414">
        <ele>469</ele>
        <time>2016-10-30T09:46:39.000Z</time>
      </trkpt>
      <trkpt lat="47.41356" lon="6.91416">
        <ele>469</ele>
        <time>2016-10-30T09:46:40.000Z</time>
      </trkpt>
      <trkpt lat="47.41359" lon="6.91418">
        <ele>468</ele>
        <time>2016-10-30T09:46:41.000Z</time>
      </trkpt>
      <trkpt lat="47.41361" lon="6.91419">
        <ele>469</ele>
        <time>2016-10-30T09:46:42.000Z</time>
      </trkpt>
      <trkpt lat="47.41363" lon="6.91421">
        <ele>469</ele>
        <time>2016-10-30T09:46:43.000Z</time>
      </trkpt>
      <trkpt lat="47.41367" lon="6.91424">
        <ele>469</ele>
        <time>2016-10-30T09:46:45.000Z</time>
      </trkpt>
      <trkpt lat="47.41369" lon="6.91426">
        <ele>469</ele>
        <time>2016-10-30T09:46:46.000Z</time>
      </trkpt>
      <trkpt lat="47.41371" lon="6.91428">
        <ele>469</ele>
        <time>2016-10-30T09:46:47.000Z</time>
      </trkpt>
      <trkpt lat="47.41373" lon="6.91431">
        <ele>470</ele>
        <time>2016-10-30T09:46:48.000Z</time>
      </trkpt>
      <trkpt lat="47.41375" lon="6.91434">
        <ele>470</ele>
        <time>2016-10-30T09:46:49.000Z</time>
      </trkpt>
      <trkpt lat="47.41377" lon="6.91437">
        <ele>470</ele>
        <time>2016-10-30T09:46:50.000Z</time>
      </trkpt>
      <trkpt lat="47.41379" lon="6.9144">
        <ele>470</ele>
        <time>2016-10-30T09:46:51.000Z</time>
      </trkpt>
      <trkpt lat="47.4138" lon="6.91444">
        <ele>470</ele>
        <time>2016-10-30T09:46:52.000Z</time>
      </trkpt>
      <trkpt lat="47.41382" lon="6.91447">
        <ele>470</ele>
        <time>2016-10-30T09:46:53.000Z</time>
      </trkpt>
      <trkpt lat="47.41383" lon="6.9145">
        <ele>470</ele>
        <time>2016-10-30T09:46:54.000Z</time>
      </trkpt>
      <trkpt lat="47.41385" lon="6.91454">
        <ele>470</ele>
        <time>2016-10-30T09:46:55.000Z</time>
      </trkpt>
      <trkpt lat="47.41386" lon="6.91458">
        <ele>470</ele>
        <time>2016-10-30T09:46:56.000Z</time>
      </trkpt>
      <trkpt lat="47.41388" lon="6.91462">
        <ele>470</ele>
        <time>2016-10-30T09:46:57.000Z</time>
      </trkpt>
      <trkpt lat="47.41389" lon="6.91466">
        <ele>470</ele>
        <time>2016-10-30T09:46:58.000Z</time>
      </trkpt>
      <trkpt lat="47.41391" lon="6.91469">
        <ele>470</ele>
        <time>2016-10-30T09:46:59.000Z</time>
      </trkpt>
      <trkpt lat="47.41392" lon="6.91472">
        <ele>470</ele>
        <time>2016-10-30T09:47:00.000Z</time>
      </trkpt>
      <trkpt lat="47.41394" lon="6.91476">
        <ele>470</ele>
        <time>2016-10-30T09:47:01.000Z</time>
      </trkpt>
      <trkpt lat="47.41396" lon="6.91479">
        <ele>469</ele>
        <time>2016-10-30T09:47:02.000Z</time>
      </trkpt>
      <trkpt lat="47.41398" lon="6.91482">
        <ele>469</ele>
        <time>2016-10-30T09:47:03.000Z</time>
      </trkpt>
      <trkpt lat="47.41399" lon="6.91484">
        <ele>469</ele>
        <time>2016-10-30T09:47:04.000Z</time>
      </trkpt>
      <trkpt lat="47.41402" lon="6.91487">
        <ele>468</ele>
        <time>2016-10-30T09:47:06.000Z</time>
      </trkpt>
      <trkpt lat="47.41403" lon="6.91488">
        <ele>468</ele>
        <time>2016-10-30T09:47:07.000Z</time>
      </trkpt>
      <trkpt lat="47.41407" lon="6.91491">
        <ele>467</ele>
        <time>2016-10-30T09:47:13.000Z</time>
      </trkpt>
      <trkpt lat="47.41408" lon="6.91492">
        <ele>467</ele>
        <time>2016-10-30T09:47:14.000Z</time>
      </trkpt>
      <trkpt lat="47.41412" lon="6.91495">
        <ele>466</ele>
        <time>2016-10-30T09:47:23.000Z</time>
      </trkpt>
      <trkpt lat="47.41413" lon="6.91496">
        <ele>466</ele>
        <time>2016-10-30T09:47:24.000Z</time>
      </trkpt>
      <trkpt lat="47.41417" lon="6.91498">
        <ele>465</ele>
        <time>2016-10-30T09:47:28.000Z</time>
      </trkpt>
      <trkpt lat="47.41418" lon="6.91498">
        <ele>465</ele>
        <time>2016-10-30T09:47:29.000Z</time>
      </trkpt>
      <trkpt lat="47.41422" lon="6.915">
        <ele>466</ele>
        <time>2016-10-30T09:47:33.000Z</time>
      </trkpt>
      <trkpt lat="47.41422" lon="6.91501">
        <ele>466</ele>
        <time>2016-10-30T09:47:34.000Z</time>
      </trkpt>
      <trkpt lat="47.41426" lon="6.91502">
        <ele>467</ele>
        <time>2016-10-30T09:47:37.000Z</time>
      </trkpt>
      <trkpt lat="47.41428" lon="6.91503">
        <ele>468</ele>
        <time>2016-10-30T09:47:38.000Z</time>
      </trkpt>
      <trkpt lat="47.41431" lon="6.91505">
        <ele>469</ele>
        <time>2016-10-30T09:47:40.000Z</time>
      </trkpt>
      <trkpt lat="47.41433" lon="6.91507">
        <ele>469</ele>
        <time>2016-10-30T09:47:41.000Z</time>
      </trkpt>
      <trkpt lat="47.41437" lon="6.9151">
        <ele>470</ele>
        <time>2016-10-30T09:47:43.000Z</time>
      </trkpt>
      <trkpt lat="47.41438" lon="6.91511">
        <ele>470</ele>
        <time>2016-10-30T09:47:44.000Z</time>
      </trkpt>
      <trkpt lat="47.41442" lon="6.91514">
        <ele>471</ele>
        <time>2016-10-30T09:47:46.000Z</time>
      </trkpt>
      <trkpt lat="47.41443" lon="6.91515">
        <ele>471</ele>
        <time>2016-10-30T09:47:47.000Z</time>
      </trkpt>
      <trkpt lat="47.41447" lon="6.91518">
        <ele>472</ele>
        <time>2016-10-30T09:47:49.000Z</time>
      </trkpt>
      <trkpt lat="47.41449" lon="6.9152">
        <ele>472</ele>
        <time>2016-10-30T09:47:50.000Z</time>
      </trkpt>
      <trkpt lat="47.41451" lon="6.91521">
        <ele>472</ele>
        <time>2016-10-30T09:47:51.000Z</time>
      </trkpt>
      <trkpt lat="47.41453" lon="6.91523">
        <ele>472</ele>
        <time>2016-10-30T09:47:52.000Z</time>
      </trkpt>
      <trkpt lat="47.41455" lon="6.91525">
        <ele>473</ele>
        <time>2016-10-30T09:47:53.000Z</time>
      </trkpt>
      <trkpt lat="47.41458" lon="6.91527">
        <ele>473</ele>
        <time>2016-10-30T09:47:54.000Z</time>
      </trkpt>
      <trkpt lat="47.4146" lon="6.9153">
        <ele>473</ele>
        <time>2016-10-30T09:47:55.000Z</time>
      </trkpt>
      <trkpt lat="47.41463" lon="6.91532">
        <ele>473</ele>
        <time>2016-10-30T09:47:56.000Z</time>
      </trkpt>
      <trkpt lat="47.41465" lon="6.91534">
        <ele>473</ele>
        <time>2016-10-30T09:47:57.000Z</time>
      </trkpt>
      <trkpt lat="47.41467" lon="6.91536">
        <ele>473</ele>
        <time>2016-10-30T09:47:58.000Z</time>
      </trkpt>
      <trkpt lat="47.4147" lon="6.9154">
        <ele>473</ele>
        <time>2016-10-30T09:48:00.000Z</time>
      </trkpt>
      <trkpt lat="47.41472" lon="6.91542">
        <ele>473</ele>
        <time>2016-10-30T09:48:01.000Z</time>
      </trkpt>
      <trkpt lat="47.41474" lon="6.91544">
        <ele>473</ele>
        <time>2016-10-30T09:48:02.000Z</time>
      </trkpt>
      <trkpt lat="47.41476" lon="6.91546">
        <ele>473</ele>
        <time>2016-10-30T09:48:03.000Z</time>
      </trkpt>
      <trkpt lat="47.41479" lon="6.91548">
        <ele>473</ele>
        <time>2016-10-30T09:48:04.000Z</time>
      </trkpt>
      <trkpt lat="47.41481" lon="6.91549">
        <ele>473</ele>
        <time>2016-10-30T09:48:05.000Z</time>
      </trkpt>
      <trkpt lat="47.41483" lon="6.91551">
        <ele>473</ele>
        <time>2016-10-30T09:48:06.000Z</time>
      </trkpt>
      <trkpt lat="47.41486" lon="6.91553">
        <ele>473</ele>
        <time>2016-10-30T09:48:07.000Z</time>
      </trkpt>
      <trkpt lat="47.41488" lon="6.91555">
        <ele>473</ele>
        <time>2016-10-30T09:48:08.000Z</time>
      </trkpt>
      <trkpt lat="47.41491" lon="6.91558">
        <ele>473</ele>
        <time>2016-10-30T09:48:09.000Z</time>
      </trkpt>
      <trkpt lat="47.41495" lon="6.9156">
        <ele>473</ele>
        <time>2016-10-30T09:48:10.000Z</time>
      </trkpt>
      <trkpt lat="47.41498" lon="6.91562">
        <ele>472</ele>
        <time>2016-10-30T09:48:11.000Z</time>
      </trkpt>
      <trkpt lat="47.41502" lon="6.91564">
        <ele>475</ele>
        <time>2016-10-30T09:48:12.000Z</time>
      </trkpt>
      <trkpt lat="47.41506" lon="6.91567">
        <ele>475</ele>
        <time>2016-10-30T09:48:13.000Z</time>
      </trkpt>
      <trkpt lat="47.4151" lon="6.9157">
        <ele>475</ele>
        <time>2016-10-30T09:48:14.000Z</time>
      </trkpt>
      <trkpt lat="47.41514" lon="6.91572">
        <ele>475</ele>
        <time>2016-10-30T09:48:15.000Z</time>
      </trkpt>
      <trkpt lat="47.41518" lon="6.91575">
        <ele>476</ele>
        <time>2016-10-30T09:48:16.000Z</time>
      </trkpt>
      <trkpt lat="47.41522" lon="6.91577">
        <ele>476</ele>
        <time>2016-10-30T09:48:17.000Z</time>
      </trkpt>
      <trkpt lat="47.41525" lon="6.91579">
        <ele>477</ele>
        <time>2016-10-30T09:48:18.000Z</time>
      </trkpt>
      <trkpt lat="47.41527" lon="6.91581">
        <ele>477</ele>
        <time>2016-10-30T09:48:19.000Z</time>
      </trkpt>
      <trkpt lat="47.4153" lon="6.91583">
        <ele>477</ele>
        <time>2016-10-30T09:48:20.000Z</time>
      </trkpt>
      <trkpt lat="47.41532" lon="6.91584">
        <ele>477</ele>
        <time>2016-10-30T09:48:21.000Z</time>
      </trkpt>
      <trkpt lat="47.41535" lon="6.91587">
        <ele>478</ele>
        <time>2016-10-30T09:48:22.000Z</time>
      </trkpt>
      <trkpt lat="47.41537" lon="6.91589">
        <ele>478</ele>
        <time>2016-10-30T09:48:23.000Z</time>
      </trkpt>
      <trkpt lat="47.4154" lon="6.91592">
        <ele>478</ele>
        <time>2016-10-30T09:48:24.000Z</time>
      </trkpt>
      <trkpt lat="47.41543" lon="6.91594">
        <ele>478</ele>
        <time>2016-10-30T09:48:25.000Z</time>
      </trkpt>
      <trkpt lat="47.41546" lon="6.91596">
        <ele>479</ele>
        <time>2016-10-30T09:48:26.000Z</time>
      </trkpt>
      <trkpt lat="47.4155" lon="6.91598">
        <ele>479</ele>
        <time>2016-10-30T09:48:27.000Z</time>
      </trkpt>
      <trkpt lat="47.41553" lon="6.916">
        <ele>479</ele>
        <time>2016-10-30T09:48:28.000Z</time>
      </trkpt>
      <trkpt lat="47.41556" lon="6.91602">
        <ele>479</ele>
        <time>2016-10-30T09:48:29.000Z</time>
      </trkpt>
      <trkpt lat="47.41563" lon="6.9161">
        <ele>479</ele>
        <time>2016-10-30T09:48:30.000Z</time>
      </trkpt>
      <trkpt lat="47.41566" lon="6.91613">
        <ele>479</ele>
        <time>2016-10-30T09:48:31.000Z</time>
      </trkpt>
      <trkpt lat="47.41569" lon="6.91617">
        <ele>480</ele>
        <time>2016-10-30T09:48:32.000Z</time>
      </trkpt>
      <trkpt lat="47.41571" lon="6.9162">
        <ele>480</ele>
        <time>2016-10-30T09:48:33.000Z</time>
      </trkpt>
      <trkpt lat="47.41573" lon="6.91623">
        <ele>480</ele>
        <time>2016-10-30T09:48:34.000Z</time>
      </trkpt>
      <trkpt lat="47.41575" lon="6.91626">
        <ele>479</ele>
        <time>2016-10-30T09:48:35.000Z</time>
      </trkpt>
      <trkpt lat="47.41577" lon="6.91629">
        <ele>479</ele>
        <time>2016-10-30T09:48:36.000Z</time>
      </trkpt>
      <trkpt lat="47.4158" lon="6.91631">
        <ele>479</ele>
        <time>2016-10-30T09:48:37.000Z</time>
      </trkpt>
      <trkpt lat="47.41582" lon="6.91634">
        <ele>479</ele>
        <time>2016-10-30T09:48:38.000Z</time>
      </trkpt>
      <trkpt lat="47.41584" lon="6.91637">
        <ele>485</ele>
        <time>2016-10-30T09:48:39.000Z</time>
      </trkpt>
      <trkpt lat="47.41586" lon="6.9164">
        <ele>485</ele>
        <time>2016-10-30T09:48:40.000Z</time>
      </trkpt>
      <trkpt lat="47.41588" lon="6.91644">
        <ele>484</ele>
        <time>2016-10-30T09:48:41.000Z</time>
      </trkpt>
      <trkpt lat="47.41589" lon="6.91647">
        <ele>484</ele>
        <time>2016-10-30T09:48:42.000Z</time>
      </trkpt>
      <trkpt lat="47.41591" lon="6.9165">
        <ele>483</ele>
        <time>2016-10-30T09:48:43.000Z</time>
      </trkpt>
      <trkpt lat="47.41593" lon="6.91653">
        <ele>483</ele>
        <time>2016-10-30T09:48:44.000Z</time>
      </trkpt>
      <trkpt lat="47.41595" lon="6.91656">
        <ele>483</ele>
        <time>2016-10-30T09:48:45.000Z</time>
      </trkpt>
      <trkpt lat="47.41597" lon="6.91659">
        <ele>483</ele>
        <time>2016-10-30T09:48:46.000Z</time>
      </trkpt>
      <trkpt lat="47.41599" lon="6.91662">
        <ele>483</ele>
        <time>2016-10-30T09:48:47.000Z</time>
      </trkpt>
      <trkpt lat="47.41601" lon="6.91664">
        <ele>484</ele>
        <time>2016-10-30T09:48:48.000Z</time>
      </trkpt>
      <trkpt lat="47.41604" lon="6.91667">
        <ele>482</ele>
        <time>2016-10-30T09:48:49.000Z</time>
      </trkpt>
      <trkpt lat="47.41606" lon="6.91669">
        <ele>483</ele>
        <time>2016-10-30T09:48:50.000Z</time>
      </trkpt>
      <trkpt lat="47.41608" lon="6.91671">
        <ele>483</ele>
        <time>2016-10-30T09:48:51.000Z</time>
      </trkpt>
      <trkpt lat="47.4161" lon="6.91673">
        <ele>484</ele>
        <time>2016-10-30T09:48:52.000Z</time>
      </trkpt>
      <trkpt lat="47.41612" lon="6.91675">
        <ele>484</ele>
        <time>2016-10-30T09:48:53.000Z</time>
      </trkpt>
      <trkpt lat="47.41614" lon="6.91678">
        <ele>484</ele>
        <time>2016-10-30T09:48:54.000Z</time>
      </trkpt>
      <trkpt lat="47.41616" lon="6.9168">
        <ele>485</ele>
        <time>2016-10-30T09:48:55.000Z</time>
      </trkpt>
      <trkpt lat="47.41618" lon="6.91683">
        <ele>485</ele>
        <time>2016-10-30T09:48:56.000Z</time>
      </trkpt>
      <trkpt lat="47.4162" lon="6.91686">
        <ele>485</ele>
        <time>2016-10-30T09:48:57.000Z</time>
      </trkpt>
      <trkpt lat="47.41622" lon="6.91689">
        <ele>485</ele>
        <time>2016-10-30T09:48:58.000Z</time>
      </trkpt>
      <trkpt lat="47.41625" lon="6.91692">
        <ele>486</ele>
        <time>2016-10-30T09:48:59.000Z</time>
      </trkpt>
      <trkpt lat="47.41627" lon="6.91694">
        <ele>486</ele>
        <time>2016-10-30T09:49:00.000Z</time>
      </trkpt>
      <trkpt lat="47.41628" lon="6.91697">
        <ele>486</ele>
        <time>2016-10-30T09:49:01.000Z</time>
      </trkpt>
      <trkpt lat="47.4163" lon="6.917">
        <ele>486</ele>
        <time>2016-10-30T09:49:02.000Z</time>
      </trkpt>
      <trkpt lat="47.41632" lon="6.91703">
        <ele>486</ele>
        <time>2016-10-30T09:49:03.000Z</time>
      </trkpt>
      <trkpt lat="47.41634" lon="6.91706">
        <ele>486</ele>
        <time>2016-10-30T09:49:04.000Z</time>
      </trkpt>
      <trkpt lat="47.41636" lon="6.91709">
        <ele>486</ele>
        <time>2016-10-30T09:49:05.000Z</time>
      </trkpt>
      <trkpt lat="47.41639" lon="6.91712">
        <ele>486</ele>
        <time>2016-10-30T09:49:06.000Z</time>
      </trkpt>
      <trkpt lat="47.41642" lon="6.91715">
        <ele>486</ele>
        <time>2016-10-30T09:49:07.000Z</time>
      </trkpt>
      <trkpt lat="47.41644" lon="6.91718">
        <ele>486</ele>
        <time>2016-10-30T09:49:08.000Z</time>
      </trkpt>
      <trkpt lat="47.41647" lon="6.91721">
        <ele>486</ele>
        <time>2016-10-30T09:49:09.000Z</time>
      </trkpt>
      <trkpt lat="47.4165" lon="6.91724">
        <ele>486</ele>
        <time>2016-10-30T09:49:10.000Z</time>
      </trkpt>
      <trkpt lat="47.41653" lon="6.91728">
        <ele>485</ele>
        <time>2016-10-30T09:49:11.000Z</time>
      </trkpt>
      <trkpt lat="47.41654" lon="6.9173">
        <ele>485</ele>
        <time>2016-10-30T09:49:12.000Z</time>
      </trkpt>
      <trkpt lat="47.41656" lon="6.91733">
        <ele>485</ele>
        <time>2016-10-30T09:49:13.000Z</time>
      </trkpt>
      <trkpt lat="47.41658" lon="6.91736">
        <ele>484</ele>
        <time>2016-10-30T09:49:14.000Z</time>
      </trkpt>
      <trkpt lat="47.41659" lon="6.91739">
        <ele>484</ele>
        <time>2016-10-30T09:49:15.000Z</time>
      </trkpt>
      <trkpt lat="47.41661" lon="6.91741">
        <ele>484</ele>
        <time>2016-10-30T09:49:16.000Z</time>
      </trkpt>
      <trkpt lat="47.41663" lon="6.91744">
        <ele>483</ele>
        <time>2016-10-30T09:49:17.000Z</time>
      </trkpt>
      <trkpt lat="47.41665" lon="6.91747">
        <ele>483</ele>
        <time>2016-10-30T09:49:18.000Z</time>
      </trkpt>
      <trkpt lat="47.41667" lon="6.9175">
        <ele>482</ele>
        <time>2016-10-30T09:49:19.000Z</time>
      </trkpt>
      <trkpt lat="47.41668" lon="6.91754">
        <ele>484</ele>
        <time>2016-10-30T09:49:20.000Z</time>
      </trkpt>
      <trkpt lat="47.4167" lon="6.91758">
        <ele>485</ele>
        <time>2016-10-30T09:49:21.000Z</time>
      </trkpt>
      <trkpt lat="47.41672" lon="6.91762">
        <ele>486</ele>
        <time>2016-10-30T09:49:22.000Z</time>
      </trkpt>
      <trkpt lat="47.41674" lon="6.91766">
        <ele>487</ele>
        <time>2016-10-30T09:49:23.000Z</time>
      </trkpt>
      <trkpt lat="47.41675" lon="6.91769">
        <ele>487</ele>
        <time>2016-10-30T09:49:24.000Z</time>
      </trkpt>
      <trkpt lat="47.41677" lon="6.91773">
        <ele>488</ele>
        <time>2016-10-30T09:49:25.000Z</time>
      </trkpt>
      <trkpt lat="47.41679" lon="6.91777">
        <ele>488</ele>
        <time>2016-10-30T09:49:26.000Z</time>
      </trkpt>
      <trkpt lat="47.41681" lon="6.91782">
        <ele>488</ele>
        <time>2016-10-30T09:49:27.000Z</time>
      </trkpt>
      <trkpt lat="47.41683" lon="6.91786">
        <ele>489</ele>
        <time>2016-10-30T09:49:28.000Z</time>
      </trkpt>
      <trkpt lat="47.41685" lon="6.91791">
        <ele>489</ele>
        <time>2016-10-30T09:49:29.000Z</time>
      </trkpt>
      <trkpt lat="47.41687" lon="6.91796">
        <ele>489</ele>
        <time>2016-10-30T09:49:30.000Z</time>
      </trkpt>
      <trkpt lat="47.4169" lon="6.918">
        <ele>489</ele>
        <time>2016-10-30T09:49:31.000Z</time>
      </trkpt>
      <trkpt lat="47.41692" lon="6.91804">
        <ele>489</ele>
        <time>2016-10-30T09:49:32.000Z</time>
      </trkpt>
      <trkpt lat="47.41695" lon="6.91808">
        <ele>489</ele>
        <time>2016-10-30T09:49:33.000Z</time>
      </trkpt>
      <trkpt lat="47.41697" lon="6.91812">
        <ele>489</ele>
        <time>2016-10-30T09:49:34.000Z</time>
      </trkpt>
      <trkpt lat="47.41699" lon="6.91816">
        <ele>489</ele>
        <time>2016-10-30T09:49:35.000Z</time>
      </trkpt>
      <trkpt lat="47.41701" lon="6.9182">
        <ele>489</ele>
        <time>2016-10-30T09:49:36.000Z</time>
      </trkpt>
      <trkpt lat="47.41704" lon="6.91823">
        <ele>489</ele>
        <time>2016-10-30T09:49:37.000Z</time>
      </trkpt>
      <trkpt lat="47.41706" lon="6.91826">
        <ele>489</ele>
        <time>2016-10-30T09:49:38.000Z</time>
      </trkpt>
      <trkpt lat="47.41708" lon="6.91829">
        <ele>489</ele>
        <time>2016-10-30T09:49:39.000Z</time>
      </trkpt>
      <trkpt lat="47.4171" lon="6.91832">
        <ele>489</ele>
        <time>2016-10-30T09:49:40.000Z</time>
      </trkpt>
      <trkpt lat="47.41712" lon="6.91835">
        <ele>487</ele>
        <time>2016-10-30T09:49:41.000Z</time>
      </trkpt>
      <trkpt lat="47.41714" lon="6.91838">
        <ele>487</ele>
        <time>2016-10-30T09:49:42.000Z</time>
      </trkpt>
      <trkpt lat="47.41715" lon="6.91842">
        <ele>487</ele>
        <time>2016-10-30T09:49:43.000Z</time>
      </trkpt>
      <trkpt lat="47.41717" lon="6.91845">
        <ele>487</ele>
        <time>2016-10-30T09:49:44.000Z</time>
      </trkpt>
      <trkpt lat="47.41718" lon="6.91847">
        <ele>487</ele>
        <time>2016-10-30T09:49:45.000Z</time>
      </trkpt>
      <trkpt lat="47.4172" lon="6.9185">
        <ele>487</ele>
        <time>2016-10-30T09:49:46.000Z</time>
      </trkpt>
      <trkpt lat="47.41722" lon="6.91853">
        <ele>487</ele>
        <time>2016-10-30T09:49:47.000Z</time>
      </trkpt>
      <trkpt lat="47.41725" lon="6.91856">
        <ele>487</ele>
        <time>2016-10-30T09:49:48.000Z</time>
      </trkpt>
      <trkpt lat="47.41727" lon="6.9186">
        <ele>487</ele>
        <time>2016-10-30T09:49:49.000Z</time>
      </trkpt>
      <trkpt lat="47.41729" lon="6.91863">
        <ele>487</ele>
        <time>2016-10-30T09:49:50.000Z</time>
      </trkpt>
      <trkpt lat="47.41731" lon="6.91866">
        <ele>487</ele>
        <time>2016-10-30T09:49:51.000Z</time>
      </trkpt>
      <trkpt lat="47.41734" lon="6.9187">
        <ele>487</ele>
        <time>2016-10-30T09:49:52.000Z</time>
      </trkpt>
      <trkpt lat="47.41736" lon="6.91873">
        <ele>486</ele>
        <time>2016-10-30T09:49:53.000Z</time>
      </trkpt>
      <trkpt lat="47.41738" lon="6.91877">
        <ele>486</ele>
        <time>2016-10-30T09:49:54.000Z</time>
      </trkpt>
      <trkpt lat="47.41741" lon="6.9188">
        <ele>486</ele>
        <time>2016-10-30T09:49:55.000Z</time>
      </trkpt>
      <trkpt lat="47.41743" lon="6.91883">
        <ele>486</ele>
        <time>2016-10-30T09:49:56.000Z</time>
      </trkpt>
      <trkpt lat="47.41746" lon="6.91887">
        <ele>485</ele>
        <time>2016-10-30T09:49:57.000Z</time>
      </trkpt>
      <trkpt lat="47.41749" lon="6.9189">
        <ele>485</ele>
        <time>2016-10-30T09:49:58.000Z</time>
      </trkpt>
      <trkpt lat="47.41751" lon="6.91892">
        <ele>487</ele>
        <time>2016-10-30T09:49:59.000Z</time>
      </trkpt>
      <trkpt lat="47.41754" lon="6.91894">
        <ele>487</ele>
        <time>2016-10-30T09:50:00.000Z</time>
      </trkpt>
      <trkpt lat="47.41757" lon="6.91897">
        <ele>486</ele>
        <time>2016-10-30T09:50:01.000Z</time>
      </trkpt>
      <trkpt lat="47.41759" lon="6.91899">
        <ele>486</ele>
        <time>2016-10-30T09:50:02.000Z</time>
      </trkpt>
      <trkpt lat="47.41762" lon="6.91901">
        <ele>486</ele>
        <time>2016-10-30T09:50:03.000Z</time>
      </trkpt>
      <trkpt lat="47.41764" lon="6.91904">
        <ele>486</ele>
        <time>2016-10-30T09:50:04.000Z</time>
      </trkpt>
      <trkpt lat="47.41766" lon="6.91907">
        <ele>486</ele>
        <time>2016-10-30T09:50:05.000Z</time>
      </trkpt>
      <trkpt lat="47.41768" lon="6.91909">
        <ele>486</ele>
        <time>2016-10-30T09:50:06.000Z</time>
      </trkpt>
      <trkpt lat="47.4177" lon="6.91912">
        <ele>486</ele>
        <time>2016-10-30T09:50:07.000Z</time>
      </trkpt>
      <trkpt lat="47.41772" lon="6.91915">
        <ele>487</ele>
        <time>2016-10-30T09:50:08.000Z</time>
      </trkpt>
      <trkpt lat="47.41774" lon="6.91918">
        <ele>482</ele>
        <time>2016-10-30T09:50:09.000Z</time>
      </trkpt>
      <trkpt lat="47.41777" lon="6.91921">
        <ele>482</ele>
        <time>2016-10-30T09:50:10.000Z</time>
      </trkpt>
      <trkpt lat="47.41779" lon="6.91924">
        <ele>482</ele>
        <time>2016-10-30T09:50:11.000Z</time>
      </trkpt>
      <trkpt lat="47.41781" lon="6.91926">
        <ele>483</ele>
        <time>2016-10-30T09:50:12.000Z</time>
      </trkpt>
      <trkpt lat="47.41784" lon="6.91928">
        <ele>483</ele>
        <time>2016-10-30T09:50:13.000Z</time>
      </trkpt>
      <trkpt lat="47.41786" lon="6.9193">
        <ele>483</ele>
        <time>2016-10-30T09:50:14.000Z</time>
      </trkpt>
      <trkpt lat="47.41789" lon="6.91932">
        <ele>483</ele>
        <time>2016-10-30T09:50:15.000Z</time>
      </trkpt>
      <trkpt lat="47.41791" lon="6.91934">
        <ele>483</ele>
        <time>2016-10-30T09:50:16.000Z</time>
      </trkpt>
      <trkpt lat="47.41795" lon="6.91936">
        <ele>484</ele>
        <time>2016-10-30T09:50:18.000Z</time>
      </trkpt>
      <trkpt lat="47.41797" lon="6.91937">
        <ele>484</ele>
        <time>2016-10-30T09:50:19.000Z</time>
      </trkpt>
      <trkpt lat="47.418" lon="6.9194">
        <ele>484</ele>
        <time>2016-10-30T09:50:21.000Z</time>
      </trkpt>
      <trkpt lat="47.41803" lon="6.91942">
        <ele>484</ele>
        <time>2016-10-30T09:50:22.000Z</time>
      </trkpt>
      <trkpt lat="47.41805" lon="6.91943">
        <ele>484</ele>
        <time>2016-10-30T09:50:23.000Z</time>
      </trkpt>
      <trkpt lat="47.41807" lon="6.91945">
        <ele>484</ele>
        <time>2016-10-30T09:50:24.000Z</time>
      </trkpt>
      <trkpt lat="47.41809" lon="6.91947">
        <ele>484</ele>
        <time>2016-10-30T09:50:25.000Z</time>
      </trkpt>
      <trkpt lat="47.41812" lon="6.91948">
        <ele>484</ele>
        <time>2016-10-30T09:50:26.000Z</time>
      </trkpt>
      <trkpt lat="47.41814" lon="6.9195">
        <ele>484</ele>
        <time>2016-10-30T09:50:27.000Z</time>
      </trkpt>
      <trkpt lat="47.41817" lon="6.91952">
        <ele>484</ele>
        <time>2016-10-30T09:50:28.000Z</time>
      </trkpt>
      <trkpt lat="47.4182" lon="6.91953">
        <ele>484</ele>
        <time>2016-10-30T09:50:29.000Z</time>
      </trkpt>
      <trkpt lat="47.41823" lon="6.91955">
        <ele>484</ele>
        <time>2016-10-30T09:50:30.000Z</time>
      </trkpt>
      <trkpt lat="47.41826" lon="6.91956">
        <ele>484</ele>
        <time>2016-10-30T09:50:31.000Z</time>
      </trkpt>
      <trkpt lat="47.41829" lon="6.91958">
        <ele>484</ele>
        <time>2016-10-30T09:50:32.000Z</time>
      </trkpt>
      <trkpt lat="47.41832" lon="6.91959">
        <ele>484</ele>
        <time>2016-10-30T09:50:33.000Z</time>
      </trkpt>
      <trkpt lat="47.41834" lon="6.91961">
        <ele>488</ele>
        <time>2016-10-30T09:50:34.000Z</time>
      </trkpt>
      <trkpt lat="47.41837" lon="6.91962">
        <ele>488</ele>
        <time>2016-10-30T09:50:35.000Z</time>
      </trkpt>
      <trkpt lat="47.41839" lon="6.91964">
        <ele>488</ele>
        <time>2016-10-30T09:50:36.000Z</time>
      </trkpt>
      <trkpt lat="47.41842" lon="6.91965">
        <ele>488</ele>
        <time>2016-10-30T09:50:37.000Z</time>
      </trkpt>
      <trkpt lat="47.41845" lon="6.91966">
        <ele>488</ele>
        <time>2016-10-30T09:50:38.000Z</time>
      </trkpt>
      <trkpt lat="47.41848" lon="6.91966">
        <ele>488</ele>
        <time>2016-10-30T09:50:39.000Z</time>
      </trkpt>
      <trkpt lat="47.4185" lon="6.91967">
        <ele>488</ele>
        <time>2016-10-30T09:50:40.000Z</time>
      </trkpt>
      <trkpt lat="47.41852" lon="6.91967">
        <ele>488</ele>
        <time>2016-10-30T09:50:41.000Z</time>
      </trkpt>
      <trkpt lat="47.41855" lon="6.91968">
        <ele>488</ele>
        <time>2016-10-30T09:50:42.000Z</time>
      </trkpt>
      <trkpt lat="47.41857" lon="6.9197">
        <ele>488</ele>
        <time>2016-10-30T09:50:43.000Z</time>
      </trkpt>
      <trkpt lat="47.4186" lon="6.91971">
        <ele>488</ele>
        <time>2016-10-30T09:50:44.000Z</time>
      </trkpt>
      <trkpt lat="47.41863" lon="6.91973">
        <ele>488</ele>
        <time>2016-10-30T09:50:45.000Z</time>
      </trkpt>
      <trkpt lat="47.41866" lon="6.91976">
        <ele>488</ele>
        <time>2016-10-30T09:50:46.000Z</time>
      </trkpt>
      <trkpt lat="47.41868" lon="6.91977">
        <ele>488</ele>
        <time>2016-10-30T09:50:47.000Z</time>
      </trkpt>
      <trkpt lat="47.41871" lon="6.91979">
        <ele>489</ele>
        <time>2016-10-30T09:50:48.000Z</time>
      </trkpt>
      <trkpt lat="47.41874" lon="6.91981">
        <ele>489</ele>
        <time>2016-10-30T09:50:49.000Z</time>
      </trkpt>
      <trkpt lat="47.41876" lon="6.91982">
        <ele>489</ele>
        <time>2016-10-30T09:50:50.000Z</time>
      </trkpt>
      <trkpt lat="47.41879" lon="6.91984">
        <ele>489</ele>
        <time>2016-10-30T09:50:51.000Z</time>
      </trkpt>
      <trkpt lat="47.41882" lon="6.91985">
        <ele>489</ele>
        <time>2016-10-30T09:50:52.000Z</time>
      </trkpt>
      <trkpt lat="47.41885" lon="6.91987">
        <ele>489</ele>
        <time>2016-10-30T09:50:53.000Z</time>
      </trkpt>
      <trkpt lat="47.41888" lon="6.9199">
        <ele>489</ele>
        <time>2016-10-30T09:50:54.000Z</time>
      </trkpt>
      <trkpt lat="47.4189" lon="6.91992">
        <ele>489</ele>
        <time>2016-10-30T09:50:55.000Z</time>
      </trkpt>
      <trkpt lat="47.41893" lon="6.91995">
        <ele>488</ele>
        <time>2016-10-30T09:50:56.000Z</time>
      </trkpt>
      <trkpt lat="47.41895" lon="6.91997">
        <ele>488</ele>
        <time>2016-10-30T09:50:57.000Z</time>
      </trkpt>
      <trkpt lat="47.41898" lon="6.91999">
        <ele>488</ele>
        <time>2016-10-30T09:50:58.000Z</time>
      </trkpt>
      <trkpt lat="47.419" lon="6.92001">
        <ele>487</ele>
        <time>2016-10-30T09:50:59.000Z</time>
      </trkpt>
      <trkpt lat="47.41903" lon="6.92003">
        <ele>486</ele>
        <time>2016-10-30T09:51:00.000Z</time>
      </trkpt>
      <trkpt lat="47.41905" lon="6.92006">
        <ele>487</ele>
        <time>2016-10-30T09:51:01.000Z</time>
      </trkpt>
      <trkpt lat="47.41908" lon="6.92009">
        <ele>487</ele>
        <time>2016-10-30T09:51:02.000Z</time>
      </trkpt>
      <trkpt lat="47.4191" lon="6.92012">
        <ele>487</ele>
        <time>2016-10-30T09:51:03.000Z</time>
      </trkpt>
      <trkpt lat="47.41913" lon="6.92015">
        <ele>487</ele>
        <time>2016-10-30T09:51:04.000Z</time>
      </trkpt>
      <trkpt lat="47.41915" lon="6.92019">
        <ele>487</ele>
        <time>2016-10-30T09:51:05.000Z</time>
      </trkpt>
      <trkpt lat="47.41918" lon="6.92022">
        <ele>491</ele>
        <time>2016-10-30T09:51:06.000Z</time>
      </trkpt>
      <trkpt lat="47.4192" lon="6.92024">
        <ele>491</ele>
        <time>2016-10-30T09:51:07.000Z</time>
      </trkpt>
      <trkpt lat="47.41922" lon="6.92027">
        <ele>491</ele>
        <time>2016-10-30T09:51:08.000Z</time>
      </trkpt>
      <trkpt lat="47.41925" lon="6.92028">
        <ele>492</ele>
        <time>2016-10-30T09:51:09.000Z</time>
      </trkpt>
      <trkpt lat="47.41927" lon="6.92031">
        <ele>492</ele>
        <time>2016-10-30T09:51:10.000Z</time>
      </trkpt>
      <trkpt lat="47.41929" lon="6.92033">
        <ele>492</ele>
        <time>2016-10-30T09:51:11.000Z</time>
      </trkpt>
      <trkpt lat="47.41932" lon="6.92035">
        <ele>492</ele>
        <time>2016-10-30T09:51:12.000Z</time>
      </trkpt>
      <trkpt lat="47.41934" lon="6.92037">
        <ele>492</ele>
        <time>2016-10-30T09:51:13.000Z</time>
      </trkpt>
      <trkpt lat="47.41936" lon="6.92039">
        <ele>493</ele>
        <time>2016-10-30T09:51:14.000Z</time>
      </trkpt>
      <trkpt lat="47.41939" lon="6.92042">
        <ele>493</ele>
        <time>2016-10-30T09:51:15.000Z</time>
      </trkpt>
      <trkpt lat="47.41941" lon="6.92045">
        <ele>493</ele>
        <time>2016-10-30T09:51:16.000Z</time>
      </trkpt>
      <trkpt lat="47.41944" lon="6.92049">
        <ele>493</ele>
        <time>2016-10-30T09:51:17.000Z</time>
      </trkpt>
      <trkpt lat="47.41948" lon="6.92051">
        <ele>493</ele>
        <time>2016-10-30T09:51:18.000Z</time>
      </trkpt>
      <trkpt lat="47.41951" lon="6.92053">
        <ele>493</ele>
        <time>2016-10-30T09:51:19.000Z</time>
      </trkpt>
      <trkpt lat="47.41954" lon="6.92054">
        <ele>494</ele>
        <time>2016-10-30T09:51:20.000Z</time>
      </trkpt>
      <trkpt lat="47.41957" lon="6.92056">
        <ele>494</ele>
        <time>2016-10-30T09:51:21.000Z</time>
      </trkpt>
      <trkpt lat="47.4196" lon="6.92059">
        <ele>494</ele>
        <time>2016-10-30T09:51:22.000Z</time>
      </trkpt>
      <trkpt lat="47.41963" lon="6.92063">
        <ele>494</ele>
        <time>2016-10-30T09:51:23.000Z</time>
      </trkpt>
      <trkpt lat="47.41965" lon="6.92067">
        <ele>494</ele>
        <time>2016-10-30T09:51:24.000Z</time>
      </trkpt>
      <trkpt lat="47.41968" lon="6.92072">
        <ele>494</ele>
        <time>2016-10-30T09:51:25.000Z</time>
      </trkpt>
      <trkpt lat="47.4197" lon="6.92077">
        <ele>494</ele>
        <time>2016-10-30T09:51:26.000Z</time>
      </trkpt>
      <trkpt lat="47.41973" lon="6.92082">
        <ele>494</ele>
        <time>2016-10-30T09:51:27.000Z</time>
      </trkpt>
      <trkpt lat="47.41975" lon="6.92087">
        <ele>492</ele>
        <time>2016-10-30T09:51:28.000Z</time>
      </trkpt>
      <trkpt lat="47.41978" lon="6.92092">
        <ele>492</ele>
        <time>2016-10-30T09:51:29.000Z</time>
      </trkpt>
      <trkpt lat="47.41981" lon="6.92096">
        <ele>492</ele>
        <time>2016-10-30T09:51:30.000Z</time>
      </trkpt>
      <trkpt lat="47.41983" lon="6.921">
        <ele>492</ele>
        <time>2016-10-30T09:51:31.000Z</time>
      </trkpt>
      <trkpt lat="47.41985" lon="6.92104">
        <ele>492</ele>
        <time>2016-10-30T09:51:32.000Z</time>
      </trkpt>
      <trkpt lat="47.41988" lon="6.92108">
        <ele>492</ele>
        <time>2016-10-30T09:51:33.000Z</time>
      </trkpt>
      <trkpt lat="47.4199" lon="6.92112">
        <ele>492</ele>
        <time>2016-10-30T09:51:34.000Z</time>
      </trkpt>
      <trkpt lat="47.41992" lon="6.92116">
        <ele>492</ele>
        <time>2016-10-30T09:51:35.000Z</time>
      </trkpt>
      <trkpt lat="47.41994" lon="6.92121">
        <ele>492</ele>
        <time>2016-10-30T09:51:36.000Z</time>
      </trkpt>
      <trkpt lat="47.41997" lon="6.92125">
        <ele>491</ele>
        <time>2016-10-30T09:51:37.000Z</time>
      </trkpt>
      <trkpt lat="47.41999" lon="6.92129">
        <ele>491</ele>
        <time>2016-10-30T09:51:38.000Z</time>
      </trkpt>
      <trkpt lat="47.42" lon="6.92134">
        <ele>493</ele>
        <time>2016-10-30T09:51:39.000Z</time>
      </trkpt>
      <trkpt lat="47.42002" lon="6.92138">
        <ele>493</ele>
        <time>2016-10-30T09:51:40.000Z</time>
      </trkpt>
      <trkpt lat="47.42004" lon="6.92141">
        <ele>493</ele>
        <time>2016-10-30T09:51:41.000Z</time>
      </trkpt>
      <trkpt lat="47.42006" lon="6.92145">
        <ele>492</ele>
        <time>2016-10-30T09:51:42.000Z</time>
      </trkpt>
      <trkpt lat="47.42008" lon="6.92149">
        <ele>492</ele>
        <time>2016-10-30T09:51:43.000Z</time>
      </trkpt>
      <trkpt lat="47.42011" lon="6.92153">
        <ele>491</ele>
        <time>2016-10-30T09:51:44.000Z</time>
      </trkpt>
      <trkpt lat="47.42013" lon="6.92157">
        <ele>491</ele>
        <time>2016-10-30T09:51:45.000Z</time>
      </trkpt>
      <trkpt lat="47.42016" lon="6.92161">
        <ele>491</ele>
        <time>2016-10-30T09:51:46.000Z</time>
      </trkpt>
      <trkpt lat="47.42019" lon="6.92164">
        <ele>491</ele>
        <time>2016-10-30T09:51:47.000Z</time>
      </trkpt>
      <trkpt lat="47.42021" lon="6.92167">
        <ele>488</ele>
        <time>2016-10-30T09:51:48.000Z</time>
      </trkpt>
      <trkpt lat="47.42024" lon="6.92169">
        <ele>489</ele>
        <time>2016-10-30T09:51:49.000Z</time>
      </trkpt>
      <trkpt lat="47.42027" lon="6.92171">
        <ele>489</ele>
        <time>2016-10-30T09:51:50.000Z</time>
      </trkpt>
      <trkpt lat="47.4203" lon="6.92172">
        <ele>489</ele>
        <time>2016-10-30T09:51:51.000Z</time>
      </trkpt>
      <trkpt lat="47.42033" lon="6.92174">
        <ele>489</ele>
        <time>2016-10-30T09:51:52.000Z</time>
      </trkpt>
      <trkpt lat="47.42036" lon="6.92175">
        <ele>490</ele>
        <time>2016-10-30T09:51:53.000Z</time>
      </trkpt>
      <trkpt lat="47.42039" lon="6.92176">
        <ele>490</ele>
        <time>2016-10-30T09:51:54.000Z</time>
      </trkpt>
      <trkpt lat="47.42042" lon="6.92177">
        <ele>490</ele>
        <time>2016-10-30T09:51:55.000Z</time>
      </trkpt>
      <trkpt lat="47.42045" lon="6.92178">
        <ele>490</ele>
        <time>2016-10-30T09:51:56.000Z</time>
      </trkpt>
      <trkpt lat="47.42048" lon="6.92179">
        <ele>490</ele>
        <time>2016-10-30T09:51:57.000Z</time>
      </trkpt>
      <trkpt lat="47.42051" lon="6.92179">
        <ele>490</ele>
        <time>2016-10-30T09:51:58.000Z</time>
      </trkpt>
      <trkpt lat="47.42054" lon="6.92179">
        <ele>490</ele>
        <time>2016-10-30T09:51:59.000Z</time>
      </trkpt>
      <trkpt lat="47.42058" lon="6.9218">
        <ele>491</ele>
        <time>2016-10-30T09:52:00.000Z</time>
      </trkpt>
      <trkpt lat="47.42061" lon="6.9218">
        <ele>491</ele>
        <time>2016-10-30T09:52:01.000Z</time>
      </trkpt>
      <trkpt lat="47.42064" lon="6.9218">
        <ele>491</ele>
        <time>2016-10-30T09:52:02.000Z</time>
      </trkpt>
      <trkpt lat="47.42067" lon="6.9218">
        <ele>491</ele>
        <time>2016-10-30T09:52:03.000Z</time>
      </trkpt>
      <trkpt lat="47.4207" lon="6.9218">
        <ele>491</ele>
        <time>2016-10-30T09:52:04.000Z</time>
      </trkpt>
      <trkpt lat="47.42073" lon="6.9218">
        <ele>491</ele>
        <time>2016-10-30T09:52:05.000Z</time>
      </trkpt>
      <trkpt lat="47.42076" lon="6.92179">
        <ele>491</ele>
        <time>2016-10-30T09:52:06.000Z</time>
      </trkpt>
      <trkpt lat="47.4208" lon="6.92178">
        <ele>491</ele>
        <time>2016-10-30T09:52:07.000Z</time>
      </trkpt>
      <trkpt lat="47.42083" lon="6.92177">
        <ele>492</ele>
        <time>2016-10-30T09:52:08.000Z</time>
      </trkpt>
      <trkpt lat="47.42087" lon="6.92175">
        <ele>493</ele>
        <time>2016-10-30T09:52:09.000Z</time>
      </trkpt>
      <trkpt lat="47.4209" lon="6.92175">
        <ele>494</ele>
        <time>2016-10-30T09:52:10.000Z</time>
      </trkpt>
      <trkpt lat="47.42093" lon="6.92175">
        <ele>494</ele>
        <time>2016-10-30T09:52:11.000Z</time>
      </trkpt>
      <trkpt lat="47.42096" lon="6.92176">
        <ele>494</ele>
        <time>2016-10-30T09:52:12.000Z</time>
      </trkpt>
      <trkpt lat="47.42099" lon="6.92177">
        <ele>495</ele>
        <time>2016-10-30T09:52:13.000Z</time>
      </trkpt>
      <trkpt lat="47.42102" lon="6.92178">
        <ele>495</ele>
        <time>2016-10-30T09:52:14.000Z</time>
      </trkpt>
      <trkpt lat="47.42105" lon="6.92178">
        <ele>495</ele>
        <time>2016-10-30T09:52:15.000Z</time>
      </trkpt>
      <trkpt lat="47.42108" lon="6.92179">
        <ele>495</ele>
        <time>2016-10-30T09:52:16.000Z</time>
      </trkpt>
      <trkpt lat="47.42111" lon="6.92179">
        <ele>496</ele>
        <time>2016-10-30T09:52:17.000Z</time>
      </trkpt>
      <trkpt lat="47.42115" lon="6.9218">
        <ele>496</ele>
        <time>2016-10-30T09:52:18.000Z</time>
      </trkpt>
      <trkpt lat="47.42117" lon="6.92181">
        <ele>496</ele>
        <time>2016-10-30T09:52:19.000Z</time>
      </trkpt>
      <trkpt lat="47.4212" lon="6.92182">
        <ele>496</ele>
        <time>2016-10-30T09:52:20.000Z</time>
      </trkpt>
      <trkpt lat="47.42123" lon="6.92183">
        <ele>496</ele>
        <time>2016-10-30T09:52:21.000Z</time>
      </trkpt>
      <trkpt lat="47.42126" lon="6.92183">
        <ele>497</ele>
        <time>2016-10-30T09:52:22.000Z</time>
      </trkpt>
      <trkpt lat="47.42129" lon="6.92184">
        <ele>497</ele>
        <time>2016-10-30T09:52:23.000Z</time>
      </trkpt>
      <trkpt lat="47.42132" lon="6.92185">
        <ele>497</ele>
        <time>2016-10-30T09:52:24.000Z</time>
      </trkpt>
      <trkpt lat="47.42135" lon="6.92186">
        <ele>497</ele>
        <time>2016-10-30T09:52:25.000Z</time>
      </trkpt>
      <trkpt lat="47.42137" lon="6.92188">
        <ele>497</ele>
        <time>2016-10-30T09:52:26.000Z</time>
      </trkpt>
      <trkpt lat="47.4214" lon="6.9219">
        <ele>497</ele>
        <time>2016-10-30T09:52:27.000Z</time>
      </trkpt>
      <trkpt lat="47.42143" lon="6.92193">
        <ele>497</ele>
        <time>2016-10-30T09:52:28.000Z</time>
      </trkpt>
      <trkpt lat="47.42146" lon="6.92196">
        <ele>497</ele>
        <time>2016-10-30T09:52:29.000Z</time>
      </trkpt>
      <trkpt lat="47.42149" lon="6.922">
        <ele>497</ele>
        <time>2016-10-30T09:52:30.000Z</time>
      </trkpt>
      <trkpt lat="47.42151" lon="6.92203">
        <ele>497</ele>
        <time>2016-10-30T09:52:31.000Z</time>
      </trkpt>
      <trkpt lat="47.42154" lon="6.92207">
        <ele>497</ele>
        <time>2016-10-30T09:52:32.000Z</time>
      </trkpt>
      <trkpt lat="47.42156" lon="6.9221">
        <ele>497</ele>
        <time>2016-10-30T09:52:33.000Z</time>
      </trkpt>
      <trkpt lat="47.42159" lon="6.92213">
        <ele>497</ele>
        <time>2016-10-30T09:52:34.000Z</time>
      </trkpt>
      <trkpt lat="47.42161" lon="6.92216">
        <ele>497</ele>
        <time>2016-10-30T09:52:35.000Z</time>
      </trkpt>
      <trkpt lat="47.42163" lon="6.92219">
        <ele>497</ele>
        <time>2016-10-30T09:52:36.000Z</time>
      </trkpt>
      <trkpt lat="47.42165" lon="6.92222">
        <ele>497</ele>
        <time>2016-10-30T09:52:37.000Z</time>
      </trkpt>
      <trkpt lat="47.42168" lon="6.92225">
        <ele>502</ele>
        <time>2016-10-30T09:52:38.000Z</time>
      </trkpt>
      <trkpt lat="47.4217" lon="6.92228">
        <ele>502</ele>
        <time>2016-10-30T09:52:39.000Z</time>
      </trkpt>
      <trkpt lat="47.42173" lon="6.9223">
        <ele>502</ele>
        <time>2016-10-30T09:52:40.000Z</time>
      </trkpt>
      <trkpt lat="47.42175" lon="6.92233">
        <ele>502</ele>
        <time>2016-10-30T09:52:41.000Z</time>
      </trkpt>
      <trkpt lat="47.42177" lon="6.92236">
        <ele>502</ele>
        <time>2016-10-30T09:52:42.000Z</time>
      </trkpt>
      <trkpt lat="47.4218" lon="6.92238">
        <ele>502</ele>
        <time>2016-10-30T09:52:43.000Z</time>
      </trkpt>
      <trkpt lat="47.42182" lon="6.92241">
        <ele>502</ele>
        <time>2016-10-30T09:52:44.000Z</time>
      </trkpt>
      <trkpt lat="47.42185" lon="6.92243">
        <ele>502</ele>
        <time>2016-10-30T09:52:45.000Z</time>
      </trkpt>
      <trkpt lat="47.42188" lon="6.92246">
        <ele>502</ele>
        <time>2016-10-30T09:52:46.000Z</time>
      </trkpt>
      <trkpt lat="47.4219" lon="6.92248">
        <ele>503</ele>
        <time>2016-10-30T09:52:47.000Z</time>
      </trkpt>
      <trkpt lat="47.42193" lon="6.92251">
        <ele>502</ele>
        <time>2016-10-30T09:52:48.000Z</time>
      </trkpt>
      <trkpt lat="47.42195" lon="6.92254">
        <ele>502</ele>
        <time>2016-10-30T09:52:49.000Z</time>
      </trkpt>
      <trkpt lat="47.42198" lon="6.92257">
        <ele>503</ele>
        <time>2016-10-30T09:52:50.000Z</time>
      </trkpt>
      <trkpt lat="47.422" lon="6.92259">
        <ele>503</ele>
        <time>2016-10-30T09:52:51.000Z</time>
      </trkpt>
      <trkpt lat="47.42202" lon="6.92262">
        <ele>503</ele>
        <time>2016-10-30T09:52:52.000Z</time>
      </trkpt>
      <trkpt lat="47.42204" lon="6.92264">
        <ele>503</ele>
        <time>2016-10-30T09:52:53.000Z</time>
      </trkpt>
      <trkpt lat="47.42206" lon="6.92267">
        <ele>503</ele>
        <time>2016-10-30T09:52:54.000Z</time>
      </trkpt>
      <trkpt lat="47.42209" lon="6.92269">
        <ele>503</ele>
        <time>2016-10-30T09:52:55.000Z</time>
      </trkpt>
      <trkpt lat="47.42211" lon="6.92272">
        <ele>503</ele>
        <time>2016-10-30T09:52:56.000Z</time>
      </trkpt>
      <trkpt lat="47.42213" lon="6.92274">
        <ele>503</ele>
        <time>2016-10-30T09:52:57.000Z</time>
      </trkpt>
      <trkpt lat="47.42215" lon="6.92277">
        <ele>504</ele>
        <time>2016-10-30T09:52:58.000Z</time>
      </trkpt>
      <trkpt lat="47.42218" lon="6.92279">
        <ele>504</ele>
        <time>2016-10-30T09:52:59.000Z</time>
      </trkpt>
      <trkpt lat="47.4222" lon="6.92282">
        <ele>504</ele>
        <time>2016-10-30T09:53:00.000Z</time>
      </trkpt>
      <trkpt lat="47.42222" lon="6.92284">
        <ele>503</ele>
        <time>2016-10-30T09:53:01.000Z</time>
      </trkpt>
      <trkpt lat="47.42225" lon="6.92287">
        <ele>503</ele>
        <time>2016-10-30T09:53:02.000Z</time>
      </trkpt>
      <trkpt lat="47.42227" lon="6.9229">
        <ele>503</ele>
        <time>2016-10-30T09:53:03.000Z</time>
      </trkpt>
      <trkpt lat="47.4223" lon="6.92293">
        <ele>503</ele>
        <time>2016-10-30T09:53:04.000Z</time>
      </trkpt>
      <trkpt lat="47.42232" lon="6.92296">
        <ele>503</ele>
        <time>2016-10-30T09:53:05.000Z</time>
      </trkpt>
      <trkpt lat="47.42234" lon="6.92299">
        <ele>503</ele>
        <time>2016-10-30T09:53:06.000Z</time>
      </trkpt>
      <trkpt lat="47.42237" lon="6.92302">
        <ele>503</ele>
        <time>2016-10-30T09:53:07.000Z</time>
      </trkpt>
      <trkpt lat="47.42239" lon="6.92305">
        <ele>502</ele>
        <time>2016-10-30T09:53:08.000Z</time>
      </trkpt>
      <trkpt lat="47.42241" lon="6.92308">
        <ele>502</ele>
        <time>2016-10-30T09:53:09.000Z</time>
      </trkpt>
      <trkpt lat="47.42243" lon="6.9231">
        <ele>502</ele>
        <time>2016-10-30T09:53:10.000Z</time>
      </trkpt>
      <trkpt lat="47.42245" lon="6.92313">
        <ele>501</ele>
        <time>2016-10-30T09:53:11.000Z</time>
      </trkpt>
      <trkpt lat="47.42247" lon="6.92316">
        <ele>501</ele>
        <time>2016-10-30T09:53:12.000Z</time>
      </trkpt>
      <trkpt lat="47.42249" lon="6.92319">
        <ele>500</ele>
        <time>2016-10-30T09:53:13.000Z</time>
      </trkpt>
      <trkpt lat="47.42251" lon="6.92323">
        <ele>502</ele>
        <time>2016-10-30T09:53:14.000Z</time>
      </trkpt>
      <trkpt lat="47.42253" lon="6.92326">
        <ele>501</ele>
        <time>2016-10-30T09:53:15.000Z</time>
      </trkpt>
      <trkpt lat="47.42255" lon="6.92329">
        <ele>500</ele>
        <time>2016-10-30T09:53:16.000Z</time>
      </trkpt>
      <trkpt lat="47.42258" lon="6.92332">
        <ele>501</ele>
        <time>2016-10-30T09:53:17.000Z</time>
      </trkpt>
      <trkpt lat="47.4226" lon="6.92336">
        <ele>500</ele>
        <time>2016-10-30T09:53:18.000Z</time>
      </trkpt>
      <trkpt lat="47.42262" lon="6.92339">
        <ele>501</ele>
        <time>2016-10-30T09:53:19.000Z</time>
      </trkpt>
      <trkpt lat="47.42265" lon="6.92342">
        <ele>502</ele>
        <time>2016-10-30T09:53:20.000Z</time>
      </trkpt>
      <trkpt lat="47.42267" lon="6.92345">
        <ele>502</ele>
        <time>2016-10-30T09:53:21.000Z</time>
      </trkpt>
      <trkpt lat="47.42269" lon="6.92348">
        <ele>503</ele>
        <time>2016-10-30T09:53:22.000Z</time>
      </trkpt>
      <trkpt lat="47.42271" lon="6.92351">
        <ele>503</ele>
        <time>2016-10-30T09:53:23.000Z</time>
      </trkpt>
      <trkpt lat="47.42273" lon="6.92354">
        <ele>504</ele>
        <time>2016-10-30T09:53:24.000Z</time>
      </trkpt>
      <trkpt lat="47.42275" lon="6.92357">
        <ele>504</ele>
        <time>2016-10-30T09:53:25.000Z</time>
      </trkpt>
      <trkpt lat="47.42277" lon="6.9236">
        <ele>505</ele>
        <time>2016-10-30T09:53:26.000Z</time>
      </trkpt>
      <trkpt lat="47.4228" lon="6.92363">
        <ele>505</ele>
        <time>2016-10-30T09:53:27.000Z</time>
      </trkpt>
      <trkpt lat="47.42282" lon="6.92366">
        <ele>505</ele>
        <time>2016-10-30T09:53:28.000Z</time>
      </trkpt>
      <trkpt lat="47.42284" lon="6.9237">
        <ele>505</ele>
        <time>2016-10-30T09:53:29.000Z</time>
      </trkpt>
      <trkpt lat="47.42286" lon="6.92373">
        <ele>506</ele>
        <time>2016-10-30T09:53:30.000Z</time>
      </trkpt>
      <trkpt lat="47.42288" lon="6.92376">
        <ele>506</ele>
        <time>2016-10-30T09:53:31.000Z</time>
      </trkpt>
      <trkpt lat="47.4229" lon="6.92379">
        <ele>506</ele>
        <time>2016-10-30T09:53:32.000Z</time>
      </trkpt>
      <trkpt lat="47.42292" lon="6.92382">
        <ele>506</ele>
        <time>2016-10-30T09:53:34.000Z</time>
      </trkpt>
      <trkpt lat="47.42293" lon="6.92384">
        <ele>506</ele>
        <time>2016-10-30T09:53:35.000Z</time>
      </trkpt>
      <trkpt lat="47.42294" lon="6.92386">
        <ele>506</ele>
        <time>2016-10-30T09:53:36.000Z</time>
      </trkpt>
      <trkpt lat="47.42296" lon="6.92389">
        <ele>506</ele>
        <time>2016-10-30T09:53:37.000Z</time>
      </trkpt>
      <trkpt lat="47.42298" lon="6.92392">
        <ele>506</ele>
        <time>2016-10-30T09:53:38.000Z</time>
      </trkpt>
      <trkpt lat="47.423" lon="6.92394">
        <ele>506</ele>
        <time>2016-10-30T09:53:39.000Z</time>
      </trkpt>
      <trkpt lat="47.42303" lon="6.92399">
        <ele>506</ele>
        <time>2016-10-30T09:53:41.000Z</time>
      </trkpt>
      <trkpt lat="47.42304" lon="6.92401">
        <ele>506</ele>
        <time>2016-10-30T09:53:42.000Z</time>
      </trkpt>
      <trkpt lat="47.42306" lon="6.92406">
        <ele>506</ele>
        <time>2016-10-30T09:53:46.000Z</time>
      </trkpt>
      <trkpt lat="47.42307" lon="6.92408">
        <ele>506</ele>
        <time>2016-10-30T09:53:47.000Z</time>
      </trkpt>
      <trkpt lat="47.42308" lon="6.92411">
        <ele>506</ele>
        <time>2016-10-30T09:53:48.000Z</time>
      </trkpt>
      <trkpt lat="47.4231" lon="6.92414">
        <ele>506</ele>
        <time>2016-10-30T09:53:49.000Z</time>
      </trkpt>
      <trkpt lat="47.42312" lon="6.92417">
        <ele>507</ele>
        <time>2016-10-30T09:53:50.000Z</time>
      </trkpt>
      <trkpt lat="47.42314" lon="6.92421">
        <ele>507</ele>
        <time>2016-10-30T09:53:51.000Z</time>
      </trkpt>
      <trkpt lat="47.42316" lon="6.92424">
        <ele>507</ele>
        <time>2016-10-30T09:53:52.000Z</time>
      </trkpt>
      <trkpt lat="47.42317" lon="6.92427">
        <ele>507</ele>
        <time>2016-10-30T09:53:53.000Z</time>
      </trkpt>
      <trkpt lat="47.4232" lon="6.92431">
        <ele>507</ele>
        <time>2016-10-30T09:53:55.000Z</time>
      </trkpt>
      <trkpt lat="47.42322" lon="6.92433">
        <ele>507</ele>
        <time>2016-10-30T09:53:56.000Z</time>
      </trkpt>
      <trkpt lat="47.42324" lon="6.92437">
        <ele>507</ele>
        <time>2016-10-30T09:53:58.000Z</time>
      </trkpt>
      <trkpt lat="47.42325" lon="6.92438">
        <ele>507</ele>
        <time>2016-10-30T09:53:59.000Z</time>
      </trkpt>
      <trkpt lat="47.42327" lon="6.92442">
        <ele>507</ele>
        <time>2016-10-30T09:54:01.000Z</time>
      </trkpt>
      <trkpt lat="47.42329" lon="6.92444">
        <ele>507</ele>
        <time>2016-10-30T09:54:02.000Z</time>
      </trkpt>
      <trkpt lat="47.42331" lon="6.92447">
        <ele>507</ele>
        <time>2016-10-30T09:54:03.000Z</time>
      </trkpt>
      <trkpt lat="47.42332" lon="6.9245">
        <ele>507</ele>
        <time>2016-10-30T09:54:04.000Z</time>
      </trkpt>
      <trkpt lat="47.42334" lon="6.92455">
        <ele>506</ele>
        <time>2016-10-30T09:54:06.000Z</time>
      </trkpt>
      <trkpt lat="47.42335" lon="6.92457">
        <ele>506</ele>
        <time>2016-10-30T09:54:07.000Z</time>
      </trkpt>
      <trkpt lat="47.42338" lon="6.92461">
        <ele>506</ele>
        <time>2016-10-30T09:54:08.000Z</time>
      </trkpt>
      <trkpt lat="47.4234" lon="6.92464">
        <ele>506</ele>
        <time>2016-10-30T09:54:09.000Z</time>
      </trkpt>
      <trkpt lat="47.42344" lon="6.92469">
        <ele>506</ele>
        <time>2016-10-30T09:54:10.000Z</time>
      </trkpt>
      <trkpt lat="47.42348" lon="6.92474">
        <ele>506</ele>
        <time>2016-10-30T09:54:11.000Z</time>
      </trkpt>
      <trkpt lat="47.42353" lon="6.92479">
        <ele>506</ele>
        <time>2016-10-30T09:54:12.000Z</time>
      </trkpt>
      <trkpt lat="47.42357" lon="6.92484">
        <ele>506</ele>
        <time>2016-10-30T09:54:13.000Z</time>
      </trkpt>
      <trkpt lat="47.4236" lon="6.92489">
        <ele>506</ele>
        <time>2016-10-30T09:54:14.000Z</time>
      </trkpt>
      <trkpt lat="47.42364" lon="6.92494">
        <ele>506</ele>
        <time>2016-10-30T09:54:15.000Z</time>
      </trkpt>
      <trkpt lat="47.42367" lon="6.925">
        <ele>506</ele>
        <time>2016-10-30T09:54:16.000Z</time>
      </trkpt>
      <trkpt lat="47.4237" lon="6.92505">
        <ele>507</ele>
        <time>2016-10-30T09:54:17.000Z</time>
      </trkpt>
      <trkpt lat="47.42373" lon="6.9251">
        <ele>508</ele>
        <time>2016-10-30T09:54:18.000Z</time>
      </trkpt>
      <trkpt lat="47.42376" lon="6.92515">
        <ele>508</ele>
        <time>2016-10-30T09:54:19.000Z</time>
      </trkpt>
      <trkpt lat="47.42378" lon="6.9252">
        <ele>508</ele>
        <time>2016-10-30T09:54:20.000Z</time>
      </trkpt>
      <trkpt lat="47.4238" lon="6.92525">
        <ele>508</ele>
        <time>2016-10-30T09:54:21.000Z</time>
      </trkpt>
      <trkpt lat="47.42381" lon="6.92529">
        <ele>509</ele>
        <time>2016-10-30T09:54:22.000Z</time>
      </trkpt>
      <trkpt lat="47.42383" lon="6.92534">
        <ele>509</ele>
        <time>2016-10-30T09:54:23.000Z</time>
      </trkpt>
      <trkpt lat="47.42385" lon="6.92538">
        <ele>509</ele>
        <time>2016-10-30T09:54:24.000Z</time>
      </trkpt>
      <trkpt lat="47.42386" lon="6.92542">
        <ele>510</ele>
        <time>2016-10-30T09:54:25.000Z</time>
      </trkpt>
      <trkpt lat="47.42388" lon="6.92547">
        <ele>510</ele>
        <time>2016-10-30T09:54:26.000Z</time>
      </trkpt>
      <trkpt lat="47.42389" lon="6.9255">
        <ele>510</ele>
        <time>2016-10-30T09:54:27.000Z</time>
      </trkpt>
      <trkpt lat="47.4239" lon="6.92554">
        <ele>510</ele>
        <time>2016-10-30T09:54:28.000Z</time>
      </trkpt>
      <trkpt lat="47.42391" lon="6.92558">
        <ele>511</ele>
        <time>2016-10-30T09:54:29.000Z</time>
      </trkpt>
      <trkpt lat="47.42393" lon="6.92562">
        <ele>511</ele>
        <time>2016-10-30T09:54:30.000Z</time>
      </trkpt>
      <trkpt lat="47.42394" lon="6.92566">
        <ele>511</ele>
        <time>2016-10-30T09:54:31.000Z</time>
      </trkpt>
      <trkpt lat="47.42395" lon="6.92571">
        <ele>512</ele>
        <time>2016-10-30T09:54:32.000Z</time>
      </trkpt>
      <trkpt lat="47.42396" lon="6.92575">
        <ele>512</ele>
        <time>2016-10-30T09:54:33.000Z</time>
      </trkpt>
      <trkpt lat="47.42397" lon="6.92579">
        <ele>512</ele>
        <time>2016-10-30T09:54:34.000Z</time>
      </trkpt>
      <trkpt lat="47.42398" lon="6.92583">
        <ele>512</ele>
        <time>2016-10-30T09:54:35.000Z</time>
      </trkpt>
      <trkpt lat="47.42398" lon="6.92587">
        <ele>516</ele>
        <time>2016-10-30T09:54:36.000Z</time>
      </trkpt>
      <trkpt lat="47.42398" lon="6.9259">
        <ele>516</ele>
        <time>2016-10-30T09:54:37.000Z</time>
      </trkpt>
      <trkpt lat="47.42398" lon="6.92593">
        <ele>516</ele>
        <time>2016-10-30T09:54:38.000Z</time>
      </trkpt>
      <trkpt lat="47.42396" lon="6.926">
        <ele>517</ele>
        <time>2016-10-30T09:54:40.000Z</time>
      </trkpt>
      <trkpt lat="47.42396" lon="6.92603">
        <ele>517</ele>
        <time>2016-10-30T09:54:41.000Z</time>
      </trkpt>
      <trkpt lat="47.42395" lon="6.92606">
        <ele>517</ele>
        <time>2016-10-30T09:54:42.000Z</time>
      </trkpt>
      <trkpt lat="47.42395" lon="6.92609">
        <ele>517</ele>
        <time>2016-10-30T09:54:43.000Z</time>
      </trkpt>
      <trkpt lat="47.42395" lon="6.92614">
        <ele>517</ele>
        <time>2016-10-30T09:54:44.000Z</time>
      </trkpt>
      <trkpt lat="47.42394" lon="6.92618">
        <ele>518</ele>
        <time>2016-10-30T09:54:45.000Z</time>
      </trkpt>
      <trkpt lat="47.42394" lon="6.92622">
        <ele>518</ele>
        <time>2016-10-30T09:54:46.000Z</time>
      </trkpt>
      <trkpt lat="47.42394" lon="6.92626">
        <ele>518</ele>
        <time>2016-10-30T09:54:47.000Z</time>
      </trkpt>
      <trkpt lat="47.42394" lon="6.9263">
        <ele>518</ele>
        <time>2016-10-30T09:54:48.000Z</time>
      </trkpt>
      <trkpt lat="47.42394" lon="6.92633">
        <ele>518</ele>
        <time>2016-10-30T09:54:49.000Z</time>
      </trkpt>
      <trkpt lat="47.42393" lon="6.92639">
        <ele>519</ele>
        <time>2016-10-30T09:54:51.000Z</time>
      </trkpt>
      <trkpt lat="47.42392" lon="6.92642">
        <ele>519</ele>
        <time>2016-10-30T09:54:52.000Z</time>
      </trkpt>
      <trkpt lat="47.42391" lon="6.92645">
        <ele>519</ele>
        <time>2016-10-30T09:54:53.000Z</time>
      </trkpt>
      <trkpt lat="47.4239" lon="6.92648">
        <ele>519</ele>
        <time>2016-10-30T09:54:54.000Z</time>
      </trkpt>
      <trkpt lat="47.42388" lon="6.92652">
        <ele>519</ele>
        <time>2016-10-30T09:54:55.000Z</time>
      </trkpt>
      <trkpt lat="47.42387" lon="6.92655">
        <ele>519</ele>
        <time>2016-10-30T09:54:56.000Z</time>
      </trkpt>
      <trkpt lat="47.42384" lon="6.92659">
        <ele>519</ele>
        <time>2016-10-30T09:54:58.000Z</time>
      </trkpt>
      <trkpt lat="47.42383" lon="6.92661">
        <ele>519</ele>
        <time>2016-10-30T09:54:59.000Z</time>
      </trkpt>
      <trkpt lat="47.42381" lon="6.92665">
        <ele>519</ele>
        <time>2016-10-30T09:55:01.000Z</time>
      </trkpt>
      <trkpt lat="47.4238" lon="6.92668">
        <ele>523</ele>
        <time>2016-10-30T09:55:02.000Z</time>
      </trkpt>
      <trkpt lat="47.42378" lon="6.92672">
        <ele>523</ele>
        <time>2016-10-30T09:55:04.000Z</time>
      </trkpt>
      <trkpt lat="47.42378" lon="6.92675">
        <ele>523</ele>
        <time>2016-10-30T09:55:05.000Z</time>
      </trkpt>
      <trkpt lat="47.42377" lon="6.92681">
        <ele>523</ele>
        <time>2016-10-30T09:55:08.000Z</time>
      </trkpt>
      <trkpt lat="47.42376" lon="6.92683">
        <ele>523</ele>
        <time>2016-10-30T09:55:09.000Z</time>
      </trkpt>
      <trkpt lat="47.42374" lon="6.92687">
        <ele>524</ele>
        <time>2016-10-30T09:55:11.000Z</time>
      </trkpt>
      <trkpt lat="47.42373" lon="6.9269">
        <ele>524</ele>
        <time>2016-10-30T09:55:12.000Z</time>
      </trkpt>
      <trkpt lat="47.42371" lon="6.92693">
        <ele>524</ele>
        <time>2016-10-30T09:55:13.000Z</time>
      </trkpt>
      <trkpt lat="47.42369" lon="6.92697">
        <ele>524</ele>
        <time>2016-10-30T09:55:14.000Z</time>
      </trkpt>
      <trkpt lat="47.42367" lon="6.927">
        <ele>524</ele>
        <time>2016-10-30T09:55:15.000Z</time>
      </trkpt>
      <trkpt lat="47.42364" lon="6.92702">
        <ele>524</ele>
        <time>2016-10-30T09:55:16.000Z</time>
      </trkpt>
      <trkpt lat="47.42362" lon="6.92705">
        <ele>524</ele>
        <time>2016-10-30T09:55:17.000Z</time>
      </trkpt>
      <trkpt lat="47.42359" lon="6.92708">
        <ele>524</ele>
        <time>2016-10-30T09:55:18.000Z</time>
      </trkpt>
      <trkpt lat="47.42356" lon="6.9271">
        <ele>524</ele>
        <time>2016-10-30T09:55:19.000Z</time>
      </trkpt>
      <trkpt lat="47.42353" lon="6.92713">
        <ele>524</ele>
        <time>2016-10-30T09:55:20.000Z</time>
      </trkpt>
      <trkpt lat="47.42351" lon="6.92716">
        <ele>524</ele>
        <time>2016-10-30T09:55:21.000Z</time>
      </trkpt>
      <trkpt lat="47.42349" lon="6.92719">
        <ele>524</ele>
        <time>2016-10-30T09:55:22.000Z</time>
      </trkpt>
      <trkpt lat="47.42347" lon="6.92722">
        <ele>525</ele>
        <time>2016-10-30T09:55:23.000Z</time>
      </trkpt>
      <trkpt lat="47.42345" lon="6.92726">
        <ele>525</ele>
        <time>2016-10-30T09:55:24.000Z</time>
      </trkpt>
      <trkpt lat="47.42343" lon="6.9273">
        <ele>525</ele>
        <time>2016-10-30T09:55:25.000Z</time>
      </trkpt>
      <trkpt lat="47.42341" lon="6.92734">
        <ele>525</ele>
        <time>2016-10-30T09:55:26.000Z</time>
      </trkpt>
      <trkpt lat="47.42339" lon="6.92739">
        <ele>525</ele>
        <time>2016-10-30T09:55:27.000Z</time>
      </trkpt>
      <trkpt lat="47.42338" lon="6.92743">
        <ele>525</ele>
        <time>2016-10-30T09:55:28.000Z</time>
      </trkpt>
      <trkpt lat="47.42338" lon="6.92748">
        <ele>526</ele>
        <time>2016-10-30T09:55:29.000Z</time>
      </trkpt>
      <trkpt lat="47.42337" lon="6.92752">
        <ele>527</ele>
        <time>2016-10-30T09:55:30.000Z</time>
      </trkpt>
      <trkpt lat="47.42337" lon="6.92756">
        <ele>527</ele>
        <time>2016-10-30T09:55:31.000Z</time>
      </trkpt>
      <trkpt lat="47.42336" lon="6.9276">
        <ele>527</ele>
        <time>2016-10-30T09:55:32.000Z</time>
      </trkpt>
      <trkpt lat="47.42336" lon="6.92765">
        <ele>528</ele>
        <time>2016-10-30T09:55:33.000Z</time>
      </trkpt>
      <trkpt lat="47.42336" lon="6.92769">
        <ele>528</ele>
        <time>2016-10-30T09:55:34.000Z</time>
      </trkpt>
      <trkpt lat="47.42336" lon="6.92773">
        <ele>528</ele>
        <time>2016-10-30T09:55:35.000Z</time>
      </trkpt>
      <trkpt lat="47.42336" lon="6.92777">
        <ele>529</ele>
        <time>2016-10-30T09:55:36.000Z</time>
      </trkpt>
      <trkpt lat="47.42336" lon="6.92781">
        <ele>529</ele>
        <time>2016-10-30T09:55:37.000Z</time>
      </trkpt>
      <trkpt lat="47.42336" lon="6.92785">
        <ele>529</ele>
        <time>2016-10-30T09:55:38.000Z</time>
      </trkpt>
      <trkpt lat="47.42336" lon="6.92789">
        <ele>529</ele>
        <time>2016-10-30T09:55:39.000Z</time>
      </trkpt>
      <trkpt lat="47.42337" lon="6.92793">
        <ele>529</ele>
        <time>2016-10-30T09:55:40.000Z</time>
      </trkpt>
      <trkpt lat="47.42337" lon="6.92797">
        <ele>530</ele>
        <time>2016-10-30T09:55:41.000Z</time>
      </trkpt>
      <trkpt lat="47.42337" lon="6.928">
        <ele>530</ele>
        <time>2016-10-30T09:55:42.000Z</time>
      </trkpt>
      <trkpt lat="47.42338" lon="6.92804">
        <ele>530</ele>
        <time>2016-10-30T09:55:43.000Z</time>
      </trkpt>
      <trkpt lat="47.42338" lon="6.92808">
        <ele>530</ele>
        <time>2016-10-30T09:55:44.000Z</time>
      </trkpt>
      <trkpt lat="47.42338" lon="6.92812">
        <ele>530</ele>
        <time>2016-10-30T09:55:45.000Z</time>
      </trkpt>
      <trkpt lat="47.42339" lon="6.92816">
        <ele>530</ele>
        <time>2016-10-30T09:55:46.000Z</time>
      </trkpt>
      <trkpt lat="47.42339" lon="6.92821">
        <ele>530</ele>
        <time>2016-10-30T09:55:47.000Z</time>
      </trkpt>
      <trkpt lat="47.42339" lon="6.92825">
        <ele>530</ele>
        <time>2016-10-30T09:55:48.000Z</time>
      </trkpt>
      <trkpt lat="47.42339" lon="6.92829">
        <ele>530</ele>
        <time>2016-10-30T09:55:49.000Z</time>
      </trkpt>
      <trkpt lat="47.42338" lon="6.92832">
        <ele>530</ele>
        <time>2016-10-30T09:55:50.000Z</time>
      </trkpt>
      <trkpt lat="47.42338" lon="6.92836">
        <ele>531</ele>
        <time>2016-10-30T09:55:51.000Z</time>
      </trkpt>
      <trkpt lat="47.42338" lon="6.9284">
        <ele>532</ele>
        <time>2016-10-30T09:55:52.000Z</time>
      </trkpt>
      <trkpt lat="47.42338" lon="6.92844">
        <ele>532</ele>
        <time>2016-10-30T09:55:53.000Z</time>
      </trkpt>
      <trkpt lat="47.42346" lon="6.92852">
        <ele>533</ele>
        <time>2016-10-30T09:55:54.000Z</time>
      </trkpt>
      <trkpt lat="47.42349" lon="6.92856">
        <ele>534</ele>
        <time>2016-10-30T09:55:55.000Z</time>
      </trkpt>
      <trkpt lat="47.42351" lon="6.92861">
        <ele>534</ele>
        <time>2016-10-30T09:55:56.000Z</time>
      </trkpt>
      <trkpt lat="47.42353" lon="6.92866">
        <ele>534</ele>
        <time>2016-10-30T09:55:57.000Z</time>
      </trkpt>
      <trkpt lat="47.42342" lon="6.92864">
        <ele>534</ele>
        <time>2016-10-30T09:55:58.000Z</time>
      </trkpt>
      <trkpt lat="47.4234" lon="6.92868">
        <ele>534</ele>
        <time>2016-10-30T09:55:59.000Z</time>
      </trkpt>
      <trkpt lat="47.42339" lon="6.92871">
        <ele>534</ele>
        <time>2016-10-30T09:56:00.000Z</time>
      </trkpt>
      <trkpt lat="47.42342" lon="6.92875">
        <ele>534</ele>
        <time>2016-10-30T09:56:01.000Z</time>
      </trkpt>
      <trkpt lat="47.42344" lon="6.92881">
        <ele>534</ele>
        <time>2016-10-30T09:56:02.000Z</time>
      </trkpt>
      <trkpt lat="47.42345" lon="6.92887">
        <ele>535</ele>
        <time>2016-10-30T09:56:03.000Z</time>
      </trkpt>
      <trkpt lat="47.42344" lon="6.9289">
        <ele>534</ele>
        <time>2016-10-30T09:56:04.000Z</time>
      </trkpt>
      <trkpt lat="47.42344" lon="6.92894">
        <ele>534</ele>
        <time>2016-10-30T09:56:05.000Z</time>
      </trkpt>
      <trkpt lat="47.42345" lon="6.92899">
        <ele>534</ele>
        <time>2016-10-30T09:56:06.000Z</time>
      </trkpt>
      <trkpt lat="47.42345" lon="6.92903">
        <ele>534</ele>
        <time>2016-10-30T09:56:07.000Z</time>
      </trkpt>
      <trkpt lat="47.42345" lon="6.92908">
        <ele>534</ele>
        <time>2016-10-30T09:56:08.000Z</time>
      </trkpt>
      <trkpt lat="47.42345" lon="6.92913">
        <ele>534</ele>
        <time>2016-10-30T09:56:09.000Z</time>
      </trkpt>
      <trkpt lat="47.42346" lon="6.92918">
        <ele>535</ele>
        <time>2016-10-30T09:56:10.000Z</time>
      </trkpt>
      <trkpt lat="47.42347" lon="6.92923">
        <ele>535</ele>
        <time>2016-10-30T09:56:11.000Z</time>
      </trkpt>
      <trkpt lat="47.42348" lon="6.92929">
        <ele>535</ele>
        <time>2016-10-30T09:56:12.000Z</time>
      </trkpt>
      <trkpt lat="47.42349" lon="6.92934">
        <ele>536</ele>
        <time>2016-10-30T09:56:13.000Z</time>
      </trkpt>
      <trkpt lat="47.4235" lon="6.92939">
        <ele>536</ele>
        <time>2016-10-30T09:56:14.000Z</time>
      </trkpt>
      <trkpt lat="47.42351" lon="6.92944">
        <ele>537</ele>
        <time>2016-10-30T09:56:15.000Z</time>
      </trkpt>
      <trkpt lat="47.42352" lon="6.92949">
        <ele>537</ele>
        <time>2016-10-30T09:56:16.000Z</time>
      </trkpt>
      <trkpt lat="47.42353" lon="6.92954">
        <ele>537</ele>
        <time>2016-10-30T09:56:17.000Z</time>
      </trkpt>
      <trkpt lat="47.42354" lon="6.92958">
        <ele>537</ele>
        <time>2016-10-30T09:56:18.000Z</time>
      </trkpt>
      <trkpt lat="47.42354" lon="6.92964">
        <ele>537</ele>
        <time>2016-10-30T09:56:20.000Z</time>
      </trkpt>
      <trkpt lat="47.42353" lon="6.92966">
        <ele>537</ele>
        <time>2016-10-30T09:56:21.000Z</time>
      </trkpt>
      <trkpt lat="47.42354" lon="6.92972">
        <ele>537</ele>
        <time>2016-10-30T09:56:24.000Z</time>
      </trkpt>
      <trkpt lat="47.42355" lon="6.92976">
        <ele>537</ele>
        <time>2016-10-30T09:56:25.000Z</time>
      </trkpt>
      <trkpt lat="47.42357" lon="6.9298">
        <ele>537</ele>
        <time>2016-10-30T09:56:26.000Z</time>
      </trkpt>
      <trkpt lat="47.42358" lon="6.92984">
        <ele>537</ele>
        <time>2016-10-30T09:56:27.000Z</time>
      </trkpt>
      <trkpt lat="47.42359" lon="6.92988">
        <ele>537</ele>
        <time>2016-10-30T09:56:28.000Z</time>
      </trkpt>
      <trkpt lat="47.4236" lon="6.92991">
        <ele>537</ele>
        <time>2016-10-30T09:56:29.000Z</time>
      </trkpt>
      <trkpt lat="47.4236" lon="6.92995">
        <ele>537</ele>
        <time>2016-10-30T09:56:30.000Z</time>
      </trkpt>
      <trkpt lat="47.4236" lon="6.92998">
        <ele>537</ele>
        <time>2016-10-30T09:56:31.000Z</time>
      </trkpt>
      <trkpt lat="47.4236" lon="6.93005">
        <ele>537</ele>
        <time>2016-10-30T09:56:33.000Z</time>
      </trkpt>
      <trkpt lat="47.42361" lon="6.93008">
        <ele>537</ele>
        <time>2016-10-30T09:56:34.000Z</time>
      </trkpt>
      <trkpt lat="47.42362" lon="6.93012">
        <ele>537</ele>
        <time>2016-10-30T09:56:35.000Z</time>
      </trkpt>
      <trkpt lat="47.42363" lon="6.93016">
        <ele>537</ele>
        <time>2016-10-30T09:56:36.000Z</time>
      </trkpt>
      <trkpt lat="47.42364" lon="6.93021">
        <ele>537</ele>
        <time>2016-10-30T09:56:37.000Z</time>
      </trkpt>
      <trkpt lat="47.42365" lon="6.93025">
        <ele>537</ele>
        <time>2016-10-30T09:56:38.000Z</time>
      </trkpt>
      <trkpt lat="47.42366" lon="6.93029">
        <ele>538</ele>
        <time>2016-10-30T09:56:39.000Z</time>
      </trkpt>
      <trkpt lat="47.42367" lon="6.93034">
        <ele>538</ele>
        <time>2016-10-30T09:56:40.000Z</time>
      </trkpt>
      <trkpt lat="47.42367" lon="6.93038">
        <ele>538</ele>
        <time>2016-10-30T09:56:41.000Z</time>
      </trkpt>
      <trkpt lat="47.42368" lon="6.93043">
        <ele>538</ele>
        <time>2016-10-30T09:56:42.000Z</time>
      </trkpt>
      <trkpt lat="47.42369" lon="6.93047">
        <ele>538</ele>
        <time>2016-10-30T09:56:43.000Z</time>
      </trkpt>
      <trkpt lat="47.4237" lon="6.93051">
        <ele>538</ele>
        <time>2016-10-30T09:56:44.000Z</time>
      </trkpt>
      <trkpt lat="47.42371" lon="6.93055">
        <ele>538</ele>
        <time>2016-10-30T09:56:45.000Z</time>
      </trkpt>
      <trkpt lat="47.42373" lon="6.93059">
        <ele>538</ele>
        <time>2016-10-30T09:56:46.000Z</time>
      </trkpt>
      <trkpt lat="47.42375" lon="6.93062">
        <ele>538</ele>
        <time>2016-10-30T09:56:47.000Z</time>
      </trkpt>
      <trkpt lat="47.42376" lon="6.93065">
        <ele>538</ele>
        <time>2016-10-30T09:56:48.000Z</time>
      </trkpt>
      <trkpt lat="47.42378" lon="6.93068">
        <ele>538</ele>
        <time>2016-10-30T09:56:49.000Z</time>
      </trkpt>
      <trkpt lat="47.42379" lon="6.93073">
        <ele>538</ele>
        <time>2016-10-30T09:56:50.000Z</time>
      </trkpt>
      <trkpt lat="47.42381" lon="6.93077">
        <ele>537</ele>
        <time>2016-10-30T09:56:51.000Z</time>
      </trkpt>
      <trkpt lat="47.42382" lon="6.93082">
        <ele>537</ele>
        <time>2016-10-30T09:56:52.000Z</time>
      </trkpt>
      <trkpt lat="47.42383" lon="6.93086">
        <ele>540</ele>
        <time>2016-10-30T09:56:53.000Z</time>
      </trkpt>
      <trkpt lat="47.42384" lon="6.9309">
        <ele>540</ele>
        <time>2016-10-30T09:56:54.000Z</time>
      </trkpt>
      <trkpt lat="47.42386" lon="6.93094">
        <ele>540</ele>
        <time>2016-10-30T09:56:55.000Z</time>
      </trkpt>
      <trkpt lat="47.42387" lon="6.93098">
        <ele>540</ele>
        <time>2016-10-30T09:56:56.000Z</time>
      </trkpt>
      <trkpt lat="47.42389" lon="6.93102">
        <ele>540</ele>
        <time>2016-10-30T09:56:57.000Z</time>
      </trkpt>
      <trkpt lat="47.42392" lon="6.93106">
        <ele>540</ele>
        <time>2016-10-30T09:56:58.000Z</time>
      </trkpt>
      <trkpt lat="47.42394" lon="6.93109">
        <ele>540</ele>
        <time>2016-10-30T09:56:59.000Z</time>
      </trkpt>
      <trkpt lat="47.42397" lon="6.93112">
        <ele>540</ele>
        <time>2016-10-30T09:57:00.000Z</time>
      </trkpt>
      <trkpt lat="47.424" lon="6.93115">
        <ele>540</ele>
        <time>2016-10-30T09:57:01.000Z</time>
      </trkpt>
      <trkpt lat="47.42404" lon="6.93119">
        <ele>540</ele>
        <time>2016-10-30T09:57:02.000Z</time>
      </trkpt>
      <trkpt lat="47.42406" lon="6.93122">
        <ele>540</ele>
        <time>2016-10-30T09:57:03.000Z</time>
      </trkpt>
      <trkpt lat="47.42409" lon="6.93126">
        <ele>540</ele>
        <time>2016-10-30T09:57:04.000Z</time>
      </trkpt>
      <trkpt lat="47.42411" lon="6.93129">
        <ele>540</ele>
        <time>2016-10-30T09:57:05.000Z</time>
      </trkpt>
      <trkpt lat="47.42413" lon="6.93131">
        <ele>540</ele>
        <time>2016-10-30T09:57:05.999Z</time>
      </trkpt>
      <trkpt lat="47.42416" lon="6.93135">
        <ele>540</ele>
        <time>2016-10-30T09:57:07.000Z</time>
      </trkpt>
      <trkpt lat="47.42419" lon="6.93138">
        <ele>544</ele>
        <time>2016-10-30T09:57:08.000Z</time>
      </trkpt>
      <trkpt lat="47.42421" lon="6.9314">
        <ele>544</ele>
        <time>2016-10-30T09:57:09.000Z</time>
      </trkpt>
      <trkpt lat="47.42423" lon="6.93144">
        <ele>544</ele>
        <time>2016-10-30T09:57:10.000Z</time>
      </trkpt>
      <trkpt lat="47.42425" lon="6.93147">
        <ele>544</ele>
        <time>2016-10-30T09:57:11.000Z</time>
      </trkpt>
      <trkpt lat="47.42427" lon="6.93149">
        <ele>544</ele>
        <time>2016-10-30T09:57:12.000Z</time>
      </trkpt>
      <trkpt lat="47.4243" lon="6.93154">
        <ele>544</ele>
        <time>2016-10-30T09:57:14.000Z</time>
      </trkpt>
      <trkpt lat="47.42432" lon="6.93156">
        <ele>544</ele>
        <time>2016-10-30T09:57:15.000Z</time>
      </trkpt>
      <trkpt lat="47.42433" lon="6.93158">
        <ele>544</ele>
        <time>2016-10-30T09:57:15.999Z</time>
      </trkpt>
      <trkpt lat="47.42435" lon="6.9316">
        <ele>544</ele>
        <time>2016-10-30T09:57:17.000Z</time>
      </trkpt>
      <trkpt lat="47.42437" lon="6.93162">
        <ele>545</ele>
        <time>2016-10-30T09:57:17.999Z</time>
      </trkpt>
      <trkpt lat="47.42439" lon="6.93166">
        <ele>545</ele>
        <time>2016-10-30T09:57:19.000Z</time>
      </trkpt>
      <trkpt lat="47.42441" lon="6.93168">
        <ele>546</ele>
        <time>2016-10-30T09:57:20.000Z</time>
      </trkpt>
      <trkpt lat="47.42442" lon="6.93171">
        <ele>547</ele>
        <time>2016-10-30T09:57:21.000Z</time>
      </trkpt>
      <trkpt lat="47.42444" lon="6.93176">
        <ele>547</ele>
        <time>2016-10-30T09:57:24.000Z</time>
      </trkpt>
      <trkpt lat="47.42443" lon="6.93177">
        <ele>547</ele>
        <time>2016-10-30T09:57:25.000Z</time>
      </trkpt>
      <trkpt lat="47.42442" lon="6.93184">
        <ele>547</ele>
        <time>2016-10-30T09:57:29.000Z</time>
      </trkpt>
      <trkpt lat="47.42444" lon="6.93185">
        <ele>548</ele>
        <time>2016-10-30T09:57:30.001Z</time>
      </trkpt>
      <trkpt lat="47.42447" lon="6.93187">
        <ele>548</ele>
        <time>2016-10-30T09:57:31.000Z</time>
      </trkpt>
      <trkpt lat="47.4245" lon="6.93187">
        <ele>548</ele>
        <time>2016-10-30T09:57:32.000Z</time>
      </trkpt>
      <trkpt lat="47.42454" lon="6.93186">
        <ele>549</ele>
        <time>2016-10-30T09:57:34.000Z</time>
      </trkpt>
      <trkpt lat="47.42455" lon="6.93185">
        <ele>549</ele>
        <time>2016-10-30T09:57:35.000Z</time>
      </trkpt>
      <trkpt lat="47.42458" lon="6.9318">
        <ele>549</ele>
        <time>2016-10-30T09:57:37.000Z</time>
      </trkpt>
      <trkpt lat="47.42459" lon="6.93177">
        <ele>549</ele>
        <time>2016-10-30T09:57:38.000Z</time>
      </trkpt>
      <trkpt lat="47.42459" lon="6.93171">
        <ele>549</ele>
        <time>2016-10-30T09:57:40.000Z</time>
      </trkpt>
      <trkpt lat="47.42459" lon="6.93169">
        <ele>549</ele>
        <time>2016-10-30T09:57:41.000Z</time>
      </trkpt>
      <trkpt lat="47.42458" lon="6.93164">
        <ele>548</ele>
        <time>2016-10-30T09:57:44.000Z</time>
      </trkpt>
      <trkpt lat="47.42457" lon="6.93162">
        <ele>548</ele>
        <time>2016-10-30T09:57:45.000Z</time>
      </trkpt>
      <trkpt lat="47.42455" lon="6.93157">
        <ele>548</ele>
        <time>2016-10-30T09:57:48.000Z</time>
      </trkpt>
      <trkpt lat="47.42454" lon="6.93155">
        <ele>548</ele>
        <time>2016-10-30T09:57:49.000Z</time>
      </trkpt>
      <trkpt lat="47.42453" lon="6.93151">
        <ele>547</ele>
        <time>2016-10-30T09:57:52.000Z</time>
      </trkpt>
      <trkpt lat="47.42452" lon="6.93149">
        <ele>547</ele>
        <time>2016-10-30T09:57:53.000Z</time>
      </trkpt>
      <trkpt lat="47.42451" lon="6.93143">
        <ele>547</ele>
        <time>2016-10-30T09:57:56.000Z</time>
      </trkpt>
      <trkpt lat="47.4245" lon="6.93142">
        <ele>547</ele>
        <time>2016-10-30T09:57:57.000Z</time>
      </trkpt>
      <trkpt lat="47.42449" lon="6.93137">
        <ele>547</ele>
        <time>2016-10-30T09:57:59.000Z</time>
      </trkpt>
      <trkpt lat="47.42448" lon="6.93134">
        <ele>547</ele>
        <time>2016-10-30T09:58:00.000Z</time>
      </trkpt>
      <trkpt lat="47.42447" lon="6.93129">
        <ele>547</ele>
        <time>2016-10-30T09:58:02.000Z</time>
      </trkpt>
      <trkpt lat="47.42446" lon="6.93127">
        <ele>547</ele>
        <time>2016-10-30T09:58:03.000Z</time>
      </trkpt>
      <trkpt lat="47.42446" lon="6.93122">
        <ele>547</ele>
        <time>2016-10-30T09:58:06.000Z</time>
      </trkpt>
      <trkpt lat="47.42445" lon="6.9312">
        <ele>547</ele>
        <time>2016-10-30T09:58:07.000Z</time>
      </trkpt>
      <trkpt lat="47.42445" lon="6.93115">
        <ele>546</ele>
        <time>2016-10-30T09:58:09.000Z</time>
      </trkpt>
      <trkpt lat="47.42444" lon="6.93113">
        <ele>546</ele>
        <time>2016-10-30T09:58:10.000Z</time>
      </trkpt>
      <trkpt lat="47.42444" lon="6.93108">
        <ele>546</ele>
        <time>2016-10-30T09:58:12.000Z</time>
      </trkpt>
      <trkpt lat="47.42444" lon="6.93106">
        <ele>546</ele>
        <time>2016-10-30T09:58:13.000Z</time>
      </trkpt>
      <trkpt lat="47.42444" lon="6.931">
        <ele>545</ele>
        <time>2016-10-30T09:58:15.000Z</time>
      </trkpt>
      <trkpt lat="47.42444" lon="6.93098">
        <ele>545</ele>
        <time>2016-10-30T09:58:16.000Z</time>
      </trkpt>
      <trkpt lat="47.42444" lon="6.93092">
        <ele>545</ele>
        <time>2016-10-30T09:58:18.000Z</time>
      </trkpt>
      <trkpt lat="47.42443" lon="6.93089">
        <ele>545</ele>
        <time>2016-10-30T09:58:19.000Z</time>
      </trkpt>
      <trkpt lat="47.42443" lon="6.93084">
        <ele>545</ele>
        <time>2016-10-30T09:58:21.000Z</time>
      </trkpt>
      <trkpt lat="47.42443" lon="6.93082">
        <ele>546</ele>
        <time>2016-10-30T09:58:22.000Z</time>
      </trkpt>
      <trkpt lat="47.42442" lon="6.93077">
        <ele>546</ele>
        <time>2016-10-30T09:58:25.000Z</time>
      </trkpt>
      <trkpt lat="47.42442" lon="6.93074">
        <ele>546</ele>
        <time>2016-10-30T09:58:26.000Z</time>
      </trkpt>
      <trkpt lat="47.42441" lon="6.93068">
        <ele>547</ele>
        <time>2016-10-30T09:58:28.000Z</time>
      </trkpt>
      <trkpt lat="47.42441" lon="6.93066">
        <ele>547</ele>
        <time>2016-10-30T09:58:29.000Z</time>
      </trkpt>
      <trkpt lat="47.4244" lon="6.9306">
        <ele>547</ele>
        <time>2016-10-30T09:58:31.000Z</time>
      </trkpt>
      <trkpt lat="47.4244" lon="6.93057">
        <ele>548</ele>
        <time>2016-10-30T09:58:32.000Z</time>
      </trkpt>
      <trkpt lat="47.4244" lon="6.93053">
        <ele>548</ele>
        <time>2016-10-30T09:58:33.000Z</time>
      </trkpt>
      <trkpt lat="47.4244" lon="6.93049">
        <ele>548</ele>
        <time>2016-10-30T09:58:34.000Z</time>
      </trkpt>
      <trkpt lat="47.42441" lon="6.93042">
        <ele>549</ele>
        <time>2016-10-30T09:58:36.000Z</time>
      </trkpt>
      <trkpt lat="47.42441" lon="6.9304">
        <ele>549</ele>
        <time>2016-10-30T09:58:37.000Z</time>
      </trkpt>
      <trkpt lat="47.42441" lon="6.93034">
        <ele>549</ele>
        <time>2016-10-30T09:58:39.000Z</time>
      </trkpt>
      <trkpt lat="47.42441" lon="6.93031">
        <ele>549</ele>
        <time>2016-10-30T09:58:40.000Z</time>
      </trkpt>
      <trkpt lat="47.42442" lon="6.93025">
        <ele>549</ele>
        <time>2016-10-30T09:58:42.000Z</time>
      </trkpt>
      <trkpt lat="47.42443" lon="6.93022">
        <ele>549</ele>
        <time>2016-10-30T09:58:43.000Z</time>
      </trkpt>
      <trkpt lat="47.42444" lon="6.93016">
        <ele>550</ele>
        <time>2016-10-30T09:58:45.000Z</time>
      </trkpt>
      <trkpt lat="47.42444" lon="6.93013">
        <ele>550</ele>
        <time>2016-10-30T09:58:46.000Z</time>
      </trkpt>
      <trkpt lat="47.42446" lon="6.93007">
        <ele>550</ele>
        <time>2016-10-30T09:58:48.000Z</time>
      </trkpt>
      <trkpt lat="47.42447" lon="6.93004">
        <ele>550</ele>
        <time>2016-10-30T09:58:49.000Z</time>
      </trkpt>
      <trkpt lat="47.42449" lon="6.92998">
        <ele>552</ele>
        <time>2016-10-30T09:58:51.000Z</time>
      </trkpt>
      <trkpt lat="47.4245" lon="6.92995">
        <ele>553</ele>
        <time>2016-10-30T09:58:52.000Z</time>
      </trkpt>
      <trkpt lat="47.42452" lon="6.92989">
        <ele>553</ele>
        <time>2016-10-30T09:58:54.000Z</time>
      </trkpt>
      <trkpt lat="47.42454" lon="6.92986">
        <ele>553</ele>
        <time>2016-10-30T09:58:55.000Z</time>
      </trkpt>
      <trkpt lat="47.42455" lon="6.92984">
        <ele>554</ele>
        <time>2016-10-30T09:58:56.000Z</time>
      </trkpt>
      <trkpt lat="47.42456" lon="6.92981">
        <ele>554</ele>
        <time>2016-10-30T09:58:57.000Z</time>
      </trkpt>
      <trkpt lat="47.4246" lon="6.92977">
        <ele>555</ele>
        <time>2016-10-30T09:58:59.000Z</time>
      </trkpt>
      <trkpt lat="47.42461" lon="6.92975">
        <ele>555</ele>
        <time>2016-10-30T09:59:00.000Z</time>
      </trkpt>
      <trkpt lat="47.42464" lon="6.92972">
        <ele>555</ele>
        <time>2016-10-30T09:59:02.000Z</time>
      </trkpt>
      <trkpt lat="47.42466" lon="6.9297">
        <ele>555</ele>
        <time>2016-10-30T09:59:03.000Z</time>
      </trkpt>
      <trkpt lat="47.42469" lon="6.92967">
        <ele>556</ele>
        <time>2016-10-30T09:59:05.000Z</time>
      </trkpt>
      <trkpt lat="47.42471" lon="6.92965">
        <ele>556</ele>
        <time>2016-10-30T09:59:06.000Z</time>
      </trkpt>
      <trkpt lat="47.42473" lon="6.92964">
        <ele>556</ele>
        <time>2016-10-30T09:59:07.000Z</time>
      </trkpt>
      <trkpt lat="47.42475" lon="6.92962">
        <ele>556</ele>
        <time>2016-10-30T09:59:08.000Z</time>
      </trkpt>
      <trkpt lat="47.42477" lon="6.9296">
        <ele>557</ele>
        <time>2016-10-30T09:59:09.000Z</time>
      </trkpt>
      <trkpt lat="47.42479" lon="6.92959">
        <ele>557</ele>
        <time>2016-10-30T09:59:10.000Z</time>
      </trkpt>
      <trkpt lat="47.42483" lon="6.92955">
        <ele>557</ele>
        <time>2016-10-30T09:59:12.000Z</time>
      </trkpt>
      <trkpt lat="47.42485" lon="6.92954">
        <ele>557</ele>
        <time>2016-10-30T09:59:13.000Z</time>
      </trkpt>
      <trkpt lat="47.42488" lon="6.9295">
        <ele>558</ele>
        <time>2016-10-30T09:59:15.000Z</time>
      </trkpt>
      <trkpt lat="47.42489" lon="6.92949">
        <ele>558</ele>
        <time>2016-10-30T09:59:16.000Z</time>
      </trkpt>
      <trkpt lat="47.42493" lon="6.92947">
        <ele>558</ele>
        <time>2016-10-30T09:59:18.000Z</time>
      </trkpt>
      <trkpt lat="47.42495" lon="6.92945">
        <ele>558</ele>
        <time>2016-10-30T09:59:19.000Z</time>
      </trkpt>
      <trkpt lat="47.42497" lon="6.92944">
        <ele>558</ele>
        <time>2016-10-30T09:59:20.000Z</time>
      </trkpt>
      <trkpt lat="47.42499" lon="6.92943">
        <ele>559</ele>
        <time>2016-10-30T09:59:21.000Z</time>
      </trkpt>
      <trkpt lat="47.42503" lon="6.9294">
        <ele>566</ele>
        <time>2016-10-30T09:59:23.000Z</time>
      </trkpt>
      <trkpt lat="47.42505" lon="6.92939">
        <ele>566</ele>
        <time>2016-10-30T09:59:24.000Z</time>
      </trkpt>
      <trkpt lat="47.42509" lon="6.92936">
        <ele>566</ele>
        <time>2016-10-30T09:59:26.000Z</time>
      </trkpt>
      <trkpt lat="47.42511" lon="6.92935">
        <ele>566</ele>
        <time>2016-10-30T09:59:27.000Z</time>
      </trkpt>
      <trkpt lat="47.42514" lon="6.92933">
        <ele>566</ele>
        <time>2016-10-30T09:59:29.000Z</time>
      </trkpt>
      <trkpt lat="47.42516" lon="6.92933">
        <ele>566</ele>
        <time>2016-10-30T09:59:30.000Z</time>
      </trkpt>
      <trkpt lat="47.42519" lon="6.92932">
        <ele>566</ele>
        <time>2016-10-30T09:59:31.000Z</time>
      </trkpt>
      <trkpt lat="47.42521" lon="6.9293">
        <ele>566</ele>
        <time>2016-10-30T09:59:32.000Z</time>
      </trkpt>
      <trkpt lat="47.42523" lon="6.92929">
        <ele>566</ele>
        <time>2016-10-30T09:59:33.000Z</time>
      </trkpt>
      <trkpt lat="47.42525" lon="6.92928">
        <ele>567</ele>
        <time>2016-10-30T09:59:34.000Z</time>
      </trkpt>
      <trkpt lat="47.42528" lon="6.92927">
        <ele>567</ele>
        <time>2016-10-30T09:59:35.000Z</time>
      </trkpt>
      <trkpt lat="47.4253" lon="6.92925">
        <ele>567</ele>
        <time>2016-10-30T09:59:36.000Z</time>
      </trkpt>
      <trkpt lat="47.42534" lon="6.92923">
        <ele>567</ele>
        <time>2016-10-30T09:59:38.000Z</time>
      </trkpt>
      <trkpt lat="47.42535" lon="6.92922">
        <ele>567</ele>
        <time>2016-10-30T09:59:39.000Z</time>
      </trkpt>
      <trkpt lat="47.42539" lon="6.92919">
        <ele>567</ele>
        <time>2016-10-30T09:59:42.000Z</time>
      </trkpt>
      <trkpt lat="47.4254" lon="6.92919">
        <ele>568</ele>
        <time>2016-10-30T09:59:43.000Z</time>
      </trkpt>
      <trkpt lat="47.42543" lon="6.92914">
        <ele>566</ele>
        <time>2016-10-30T09:59:46.000Z</time>
      </trkpt>
      <trkpt lat="47.42545" lon="6.92913">
        <ele>566</ele>
        <time>2016-10-30T09:59:47.000Z</time>
      </trkpt>
      <trkpt lat="47.42547" lon="6.92911">
        <ele>567</ele>
        <time>2016-10-30T09:59:48.000Z</time>
      </trkpt>
      <trkpt lat="47.42548" lon="6.92909">
        <ele>567</ele>
        <time>2016-10-30T09:59:49.000Z</time>
      </trkpt>
      <trkpt lat="47.42552" lon="6.92904">
        <ele>567</ele>
        <time>2016-10-30T09:59:51.000Z</time>
      </trkpt>
      <trkpt lat="47.42553" lon="6.92903">
        <ele>567</ele>
        <time>2016-10-30T09:59:52.000Z</time>
      </trkpt>
      <trkpt lat="47.42556" lon="6.929">
        <ele>567</ele>
        <time>2016-10-30T09:59:54.000Z</time>
      </trkpt>
      <trkpt lat="47.42557" lon="6.92899">
        <ele>567</ele>
        <time>2016-10-30T09:59:55.000Z</time>
      </trkpt>
      <trkpt lat="47.4256" lon="6.92896">
        <ele>567</ele>
        <time>2016-10-30T09:59:57.000Z</time>
      </trkpt>
      <trkpt lat="47.42561" lon="6.92895">
        <ele>567</ele>
        <time>2016-10-30T09:59:58.000Z</time>
      </trkpt>
      <trkpt lat="47.42563" lon="6.92891">
        <ele>567</ele>
        <time>2016-10-30T10:00:00.000Z</time>
      </trkpt>
      <trkpt lat="47.42563" lon="6.92889">
        <ele>567</ele>
        <time>2016-10-30T10:00:01.000Z</time>
      </trkpt>
      <trkpt lat="47.42565" lon="6.92883">
        <ele>567</ele>
        <time>2016-10-30T10:00:04.000Z</time>
      </trkpt>
      <trkpt lat="47.42565" lon="6.92881">
        <ele>567</ele>
        <time>2016-10-30T10:00:05.000Z</time>
      </trkpt>
      <trkpt lat="47.42566" lon="6.92876">
        <ele>567</ele>
        <time>2016-10-30T10:00:07.000Z</time>
      </trkpt>
      <trkpt lat="47.42566" lon="6.92874">
        <ele>567</ele>
        <time>2016-10-30T10:00:08.000Z</time>
      </trkpt>
      <trkpt lat="47.42567" lon="6.92869">
        <ele>567</ele>
        <time>2016-10-30T10:00:10.000Z</time>
      </trkpt>
      <trkpt lat="47.42567" lon="6.92866">
        <ele>567</ele>
        <time>2016-10-30T10:00:11.000Z</time>
      </trkpt>
      <trkpt lat="47.42568" lon="6.9286">
        <ele>567</ele>
        <time>2016-10-30T10:00:13.000Z</time>
      </trkpt>
      <trkpt lat="47.42568" lon="6.92857">
        <ele>568</ele>
        <time>2016-10-30T10:00:14.000Z</time>
      </trkpt>
      <trkpt lat="47.42569" lon="6.92851">
        <ele>568</ele>
        <time>2016-10-30T10:00:16.000Z</time>
      </trkpt>
      <trkpt lat="47.42569" lon="6.92848">
        <ele>568</ele>
        <time>2016-10-30T10:00:17.000Z</time>
      </trkpt>
      <trkpt lat="47.42569" lon="6.92843">
        <ele>568</ele>
        <time>2016-10-30T10:00:19.000Z</time>
      </trkpt>
      <trkpt lat="47.42569" lon="6.9284">
        <ele>568</ele>
        <time>2016-10-30T10:00:20.000Z</time>
      </trkpt>
      <trkpt lat="47.42569" lon="6.92834">
        <ele>569</ele>
        <time>2016-10-30T10:00:22.000Z</time>
      </trkpt>
      <trkpt lat="47.4257" lon="6.92831">
        <ele>568</ele>
        <time>2016-10-30T10:00:23.000Z</time>
      </trkpt>
      <trkpt lat="47.4257" lon="6.92825">
        <ele>568</ele>
        <time>2016-10-30T10:00:25.000Z</time>
      </trkpt>
      <trkpt lat="47.4257" lon="6.92822">
        <ele>568</ele>
        <time>2016-10-30T10:00:26.000Z</time>
      </trkpt>
      <trkpt lat="47.42571" lon="6.92815">
        <ele>567</ele>
        <time>2016-10-30T10:00:28.000Z</time>
      </trkpt>
      <trkpt lat="47.42571" lon="6.92813">
        <ele>567</ele>
        <time>2016-10-30T10:00:29.000Z</time>
      </trkpt>
      <trkpt lat="47.42571" lon="6.92808">
        <ele>567</ele>
        <time>2016-10-30T10:00:31.000Z</time>
      </trkpt>
      <trkpt lat="47.42571" lon="6.92805">
        <ele>567</ele>
        <time>2016-10-30T10:00:32.000Z</time>
      </trkpt>
      <trkpt lat="47.42571" lon="6.92802">
        <ele>567</ele>
        <time>2016-10-30T10:00:33.000Z</time>
      </trkpt>
      <trkpt lat="47.42571" lon="6.92798">
        <ele>566</ele>
        <time>2016-10-30T10:00:34.000Z</time>
      </trkpt>
      <trkpt lat="47.42571" lon="6.92792">
        <ele>566</ele>
        <time>2016-10-30T10:00:36.000Z</time>
      </trkpt>
      <trkpt lat="47.42572" lon="6.92789">
        <ele>567</ele>
        <time>2016-10-30T10:00:37.000Z</time>
      </trkpt>
      <trkpt lat="47.42573" lon="6.92786">
        <ele>567</ele>
        <time>2016-10-30T10:00:38.000Z</time>
      </trkpt>
      <trkpt lat="47.42573" lon="6.92782">
        <ele>567</ele>
        <time>2016-10-30T10:00:39.000Z</time>
      </trkpt>
      <trkpt lat="47.42574" lon="6.92779">
        <ele>567</ele>
        <time>2016-10-30T10:00:40.000Z</time>
      </trkpt>
      <trkpt lat="47.42575" lon="6.92776">
        <ele>567</ele>
        <time>2016-10-30T10:00:41.000Z</time>
      </trkpt>
      <trkpt lat="47.42577" lon="6.9277">
        <ele>568</ele>
        <time>2016-10-30T10:00:43.000Z</time>
      </trkpt>
      <trkpt lat="47.42577" lon="6.92767">
        <ele>568</ele>
        <time>2016-10-30T10:00:44.000Z</time>
      </trkpt>
      <trkpt lat="47.42578" lon="6.92761">
        <ele>570</ele>
        <time>2016-10-30T10:00:46.000Z</time>
      </trkpt>
      <trkpt lat="47.42579" lon="6.92758">
        <ele>570</ele>
        <time>2016-10-30T10:00:47.000Z</time>
      </trkpt>
      <trkpt lat="47.42581" lon="6.92752">
        <ele>572</ele>
        <time>2016-10-30T10:00:49.000Z</time>
      </trkpt>
      <trkpt lat="47.42582" lon="6.9275">
        <ele>572</ele>
        <time>2016-10-30T10:00:50.000Z</time>
      </trkpt>
      <trkpt lat="47.42583" lon="6.92745">
        <ele>571</ele>
        <time>2016-10-30T10:00:52.000Z</time>
      </trkpt>
      <trkpt lat="47.42583" lon="6.92743">
        <ele>571</ele>
        <time>2016-10-30T10:00:53.000Z</time>
      </trkpt>
      <trkpt lat="47.42585" lon="6.92739">
        <ele>575</ele>
        <time>2016-10-30T10:00:55.000Z</time>
      </trkpt>
      <trkpt lat="47.42585" lon="6.92737">
        <ele>575</ele>
        <time>2016-10-30T10:00:56.000Z</time>
      </trkpt>
      <trkpt lat="47.42586" lon="6.92731">
        <ele>575</ele>
        <time>2016-10-30T10:00:58.000Z</time>
      </trkpt>
      <trkpt lat="47.42586" lon="6.92729">
        <ele>575</ele>
        <time>2016-10-30T10:00:59.000Z</time>
      </trkpt>
      <trkpt lat="47.42587" lon="6.92723">
        <ele>576</ele>
        <time>2016-10-30T10:01:02.000Z</time>
      </trkpt>
      <trkpt lat="47.42588" lon="6.92721">
        <ele>576</ele>
        <time>2016-10-30T10:01:03.000Z</time>
      </trkpt>
      <trkpt lat="47.42589" lon="6.92716">
        <ele>576</ele>
        <time>2016-10-30T10:01:05.000Z</time>
      </trkpt>
      <trkpt lat="47.42591" lon="6.92713">
        <ele>576</ele>
        <time>2016-10-30T10:01:06.000Z</time>
      </trkpt>
      <trkpt lat="47.42592" lon="6.9271">
        <ele>576</ele>
        <time>2016-10-30T10:01:07.000Z</time>
      </trkpt>
      <trkpt lat="47.42594" lon="6.92707">
        <ele>576</ele>
        <time>2016-10-30T10:01:08.000Z</time>
      </trkpt>
      <trkpt lat="47.42595" lon="6.92704">
        <ele>576</ele>
        <time>2016-10-30T10:01:09.000Z</time>
      </trkpt>
      <trkpt lat="47.42597" lon="6.92701">
        <ele>576</ele>
        <time>2016-10-30T10:01:10.000Z</time>
      </trkpt>
      <trkpt lat="47.426" lon="6.92698">
        <ele>576</ele>
        <time>2016-10-30T10:01:11.000Z</time>
      </trkpt>
      <trkpt lat="47.42602" lon="6.92696">
        <ele>576</ele>
        <time>2016-10-30T10:01:12.000Z</time>
      </trkpt>
      <trkpt lat="47.42605" lon="6.92694">
        <ele>577</ele>
        <time>2016-10-30T10:01:13.000Z</time>
      </trkpt>
      <trkpt lat="47.42607" lon="6.92692">
        <ele>577</ele>
        <time>2016-10-30T10:01:14.000Z</time>
      </trkpt>
      <trkpt lat="47.4261" lon="6.92691">
        <ele>577</ele>
        <time>2016-10-30T10:01:15.000Z</time>
      </trkpt>
      <trkpt lat="47.42612" lon="6.9269">
        <ele>577</ele>
        <time>2016-10-30T10:01:16.000Z</time>
      </trkpt>
      <trkpt lat="47.42614" lon="6.92689">
        <ele>577</ele>
        <time>2016-10-30T10:01:17.000Z</time>
      </trkpt>
      <trkpt lat="47.42617" lon="6.92687">
        <ele>577</ele>
        <time>2016-10-30T10:01:18.000Z</time>
      </trkpt>
      <trkpt lat="47.42619" lon="6.92686">
        <ele>577</ele>
        <time>2016-10-30T10:01:19.000Z</time>
      </trkpt>
      <trkpt lat="47.42621" lon="6.92684">
        <ele>577</ele>
        <time>2016-10-30T10:01:20.000Z</time>
      </trkpt>
      <trkpt lat="47.42624" lon="6.92683">
        <ele>577</ele>
        <time>2016-10-30T10:01:21.000Z</time>
      </trkpt>
      <trkpt lat="47.42626" lon="6.92681">
        <ele>578</ele>
        <time>2016-10-30T10:01:22.000Z</time>
      </trkpt>
      <trkpt lat="47.42628" lon="6.9268">
        <ele>578</ele>
        <time>2016-10-30T10:01:23.000Z</time>
      </trkpt>
      <trkpt lat="47.4263" lon="6.92678">
        <ele>578</ele>
        <time>2016-10-30T10:01:24.000Z</time>
      </trkpt>
      <trkpt lat="47.42632" lon="6.92676">
        <ele>578</ele>
        <time>2016-10-30T10:01:25.000Z</time>
      </trkpt>
      <trkpt lat="47.42634" lon="6.92674">
        <ele>578</ele>
        <time>2016-10-30T10:01:26.000Z</time>
      </trkpt>
      <trkpt lat="47.42636" lon="6.92673">
        <ele>578</ele>
        <time>2016-10-30T10:01:27.000Z</time>
      </trkpt>
      <trkpt lat="47.42639" lon="6.92671">
        <ele>578</ele>
        <time>2016-10-30T10:01:28.000Z</time>
      </trkpt>
      <trkpt lat="47.42641" lon="6.92669">
        <ele>579</ele>
        <time>2016-10-30T10:01:29.000Z</time>
      </trkpt>
      <trkpt lat="47.42643" lon="6.92668">
        <ele>579</ele>
        <time>2016-10-30T10:01:30.000Z</time>
      </trkpt>
      <trkpt lat="47.42646" lon="6.92666">
        <ele>578</ele>
        <time>2016-10-30T10:01:31.000Z</time>
      </trkpt>
      <trkpt lat="47.42648" lon="6.92665">
        <ele>578</ele>
        <time>2016-10-30T10:01:32.000Z</time>
      </trkpt>
      <trkpt lat="47.42651" lon="6.92663">
        <ele>579</ele>
        <time>2016-10-30T10:01:33.000Z</time>
      </trkpt>
      <trkpt lat="47.42653" lon="6.92662">
        <ele>579</ele>
        <time>2016-10-30T10:01:34.000Z</time>
      </trkpt>
      <trkpt lat="47.42655" lon="6.9266">
        <ele>579</ele>
        <time>2016-10-30T10:01:35.000Z</time>
      </trkpt>
      <trkpt lat="47.42658" lon="6.92659">
        <ele>579</ele>
        <time>2016-10-30T10:01:36.000Z</time>
      </trkpt>
      <trkpt lat="47.4266" lon="6.92657">
        <ele>579</ele>
        <time>2016-10-30T10:01:37.000Z</time>
      </trkpt>
      <trkpt lat="47.42662" lon="6.92656">
        <ele>579</ele>
        <time>2016-10-30T10:01:38.000Z</time>
      </trkpt>
      <trkpt lat="47.42666" lon="6.92655">
        <ele>579</ele>
        <time>2016-10-30T10:01:41.000Z</time>
      </trkpt>
      <trkpt lat="47.42667" lon="6.92656">
        <ele>582</ele>
        <time>2016-10-30T10:01:42.000Z</time>
      </trkpt>
      <trkpt lat="47.4267" lon="6.92653">
        <ele>583</ele>
        <time>2016-10-30T10:01:46.000Z</time>
      </trkpt>
      <trkpt lat="47.42671" lon="6.9265">
        <ele>583</ele>
        <time>2016-10-30T10:01:47.000Z</time>
      </trkpt>
      <trkpt lat="47.42672" lon="6.92645">
        <ele>583</ele>
        <time>2016-10-30T10:01:49.000Z</time>
      </trkpt>
      <trkpt lat="47.42672" lon="6.92643">
        <ele>584</ele>
        <time>2016-10-30T10:01:50.000Z</time>
      </trkpt>
      <trkpt lat="47.42674" lon="6.92638">
        <ele>584</ele>
        <time>2016-10-30T10:01:52.000Z</time>
      </trkpt>
      <trkpt lat="47.42675" lon="6.92637">
        <ele>584</ele>
        <time>2016-10-30T10:01:53.000Z</time>
      </trkpt>
      <trkpt lat="47.42678" lon="6.92635">
        <ele>584</ele>
        <time>2016-10-30T10:02:30.000Z</time>
      </trkpt>
      <trkpt lat="47.4268" lon="6.92636">
        <ele>584</ele>
        <time>2016-10-30T10:02:31.000Z</time>
      </trkpt>
      <trkpt lat="47.4268" lon="6.92629">
        <ele>584</ele>
        <time>2016-10-30T10:02:38.000Z</time>
      </trkpt>
      <trkpt lat="47.4268" lon="6.92629">
        <ele>584</ele>
        <time>2016-10-30T10:02:39.000Z</time>
      </trkpt>
      <trkpt lat="47.42678" lon="6.92634">
        <ele>584</ele>
        <time>2016-10-30T10:02:50.000Z</time>
      </trkpt>
      <trkpt lat="47.42678" lon="6.92635">
        <ele>584</ele>
        <time>2016-10-30T10:02:51.000Z</time>
      </trkpt>
      <trkpt lat="47.42676" lon="6.92641">
        <ele>584</ele>
        <time>2016-10-30T10:02:55.000Z</time>
      </trkpt>
      <trkpt lat="47.42676" lon="6.92642">
        <ele>584</ele>
        <time>2016-10-30T10:02:56.000Z</time>
      </trkpt>
      <trkpt lat="47.42677" lon="6.92648">
        <ele>583</ele>
        <time>2016-10-30T10:03:01.000Z</time>
      </trkpt>
      <trkpt lat="47.42677" lon="6.92649">
        <ele>583</ele>
        <time>2016-10-30T10:03:02.000Z</time>
      </trkpt>
      <trkpt lat="47.42676" lon="6.92655">
        <ele>583</ele>
        <time>2016-10-30T10:03:43.000Z</time>
      </trkpt>
      <trkpt lat="47.42676" lon="6.92658">
        <ele>583</ele>
        <time>2016-10-30T10:03:44.000Z</time>
      </trkpt>
      <trkpt lat="47.42676" lon="6.92661">
        <ele>583</ele>
        <time>2016-10-30T10:03:45.000Z</time>
      </trkpt>
      <trkpt lat="47.42675" lon="6.92665">
        <ele>582</ele>
        <time>2016-10-30T10:03:46.000Z</time>
      </trkpt>
      <trkpt lat="47.42675" lon="6.9267">
        <ele>582</ele>
        <time>2016-10-30T10:03:47.000Z</time>
      </trkpt>
      <trkpt lat="47.42674" lon="6.92674">
        <ele>583</ele>
        <time>2016-10-30T10:03:48.000Z</time>
      </trkpt>
      <trkpt lat="47.42674" lon="6.92679">
        <ele>583</ele>
        <time>2016-10-30T10:03:49.000Z</time>
      </trkpt>
      <trkpt lat="47.42673" lon="6.92685">
        <ele>584</ele>
        <time>2016-10-30T10:03:50.000Z</time>
      </trkpt>
      <trkpt lat="47.42673" lon="6.9269">
        <ele>584</ele>
        <time>2016-10-30T10:03:51.000Z</time>
      </trkpt>
      <trkpt lat="47.42672" lon="6.92696">
        <ele>584</ele>
        <time>2016-10-30T10:03:52.000Z</time>
      </trkpt>
      <trkpt lat="47.42671" lon="6.92702">
        <ele>584</ele>
        <time>2016-10-30T10:03:53.000Z</time>
      </trkpt>
      <trkpt lat="47.42671" lon="6.92709">
        <ele>584</ele>
        <time>2016-10-30T10:03:54.000Z</time>
      </trkpt>
      <trkpt lat="47.42671" lon="6.92715">
        <ele>584</ele>
        <time>2016-10-30T10:03:55.000Z</time>
      </trkpt>
      <trkpt lat="47.4267" lon="6.92721">
        <ele>584</ele>
        <time>2016-10-30T10:03:56.000Z</time>
      </trkpt>
      <trkpt lat="47.4267" lon="6.92727">
        <ele>584</ele>
        <time>2016-10-30T10:03:57.000Z</time>
      </trkpt>
      <trkpt lat="47.42669" lon="6.92732">
        <ele>584</ele>
        <time>2016-10-30T10:03:58.000Z</time>
      </trkpt>
      <trkpt lat="47.42669" lon="6.92738">
        <ele>583</ele>
        <time>2016-10-30T10:03:59.000Z</time>
      </trkpt>
      <trkpt lat="47.42668" lon="6.92744">
        <ele>583</ele>
        <time>2016-10-30T10:04:00.000Z</time>
      </trkpt>
      <trkpt lat="47.42668" lon="6.92753">
        <ele>583</ele>
        <time>2016-10-30T10:04:01.000Z</time>
      </trkpt>
      <trkpt lat="47.42668" lon="6.9276">
        <ele>583</ele>
        <time>2016-10-30T10:04:02.000Z</time>
      </trkpt>
      <trkpt lat="47.42668" lon="6.92767">
        <ele>584</ele>
        <time>2016-10-30T10:04:03.000Z</time>
      </trkpt>
      <trkpt lat="47.42667" lon="6.92773">
        <ele>584</ele>
        <time>2016-10-30T10:04:04.000Z</time>
      </trkpt>
      <trkpt lat="47.42667" lon="6.92778">
        <ele>584</ele>
        <time>2016-10-30T10:04:05.000Z</time>
      </trkpt>
      <trkpt lat="47.42667" lon="6.92784">
        <ele>584</ele>
        <time>2016-10-30T10:04:06.000Z</time>
      </trkpt>
      <trkpt lat="47.42667" lon="6.9279">
        <ele>584</ele>
        <time>2016-10-30T10:04:07.000Z</time>
      </trkpt>
      <trkpt lat="47.42667" lon="6.92795">
        <ele>578</ele>
        <time>2016-10-30T10:04:08.000Z</time>
      </trkpt>
      <trkpt lat="47.42666" lon="6.92801">
        <ele>578</ele>
        <time>2016-10-30T10:04:09.000Z</time>
      </trkpt>
      <trkpt lat="47.42665" lon="6.92806">
        <ele>578</ele>
        <time>2016-10-30T10:04:10.000Z</time>
      </trkpt>
      <trkpt lat="47.42664" lon="6.92812">
        <ele>578</ele>
        <time>2016-10-30T10:04:11.000Z</time>
      </trkpt>
      <trkpt lat="47.42664" lon="6.92817">
        <ele>578</ele>
        <time>2016-10-30T10:04:12.000Z</time>
      </trkpt>
      <trkpt lat="47.42663" lon="6.92822">
        <ele>579</ele>
        <time>2016-10-30T10:04:13.000Z</time>
      </trkpt>
      <trkpt lat="47.42663" lon="6.92827">
        <ele>579</ele>
        <time>2016-10-30T10:04:14.000Z</time>
      </trkpt>
      <trkpt lat="47.42663" lon="6.92832">
        <ele>579</ele>
        <time>2016-10-30T10:04:15.000Z</time>
      </trkpt>
      <trkpt lat="47.42662" lon="6.92837">
        <ele>579</ele>
        <time>2016-10-30T10:04:16.000Z</time>
      </trkpt>
      <trkpt lat="47.42662" lon="6.92842">
        <ele>578</ele>
        <time>2016-10-30T10:04:17.000Z</time>
      </trkpt>
      <trkpt lat="47.42661" lon="6.92847">
        <ele>578</ele>
        <time>2016-10-30T10:04:18.000Z</time>
      </trkpt>
      <trkpt lat="47.4266" lon="6.92853">
        <ele>577</ele>
        <time>2016-10-30T10:04:19.000Z</time>
      </trkpt>
      <trkpt lat="47.42659" lon="6.9286">
        <ele>577</ele>
        <time>2016-10-30T10:04:20.000Z</time>
      </trkpt>
      <trkpt lat="47.42658" lon="6.92872">
        <ele>577</ele>
        <time>2016-10-30T10:04:21.000Z</time>
      </trkpt>
      <trkpt lat="47.42658" lon="6.92879">
        <ele>577</ele>
        <time>2016-10-30T10:04:22.000Z</time>
      </trkpt>
      <trkpt lat="47.42657" lon="6.92888">
        <ele>577</ele>
        <time>2016-10-30T10:04:23.000Z</time>
      </trkpt>
      <trkpt lat="47.42656" lon="6.92894">
        <ele>577</ele>
        <time>2016-10-30T10:04:24.000Z</time>
      </trkpt>
      <trkpt lat="47.42655" lon="6.92901">
        <ele>577</ele>
        <time>2016-10-30T10:04:25.000Z</time>
      </trkpt>
      <trkpt lat="47.42654" lon="6.92907">
        <ele>577</ele>
        <time>2016-10-30T10:04:26.000Z</time>
      </trkpt>
      <trkpt lat="47.42653" lon="6.92914">
        <ele>577</ele>
        <time>2016-10-30T10:04:27.000Z</time>
      </trkpt>
      <trkpt lat="47.42652" lon="6.92921">
        <ele>577</ele>
        <time>2016-10-30T10:04:28.000Z</time>
      </trkpt>
      <trkpt lat="47.42651" lon="6.92927">
        <ele>577</ele>
        <time>2016-10-30T10:04:29.000Z</time>
      </trkpt>
      <trkpt lat="47.4265" lon="6.92935">
        <ele>576</ele>
        <time>2016-10-30T10:04:30.000Z</time>
      </trkpt>
      <trkpt lat="47.4265" lon="6.9294">
        <ele>576</ele>
        <time>2016-10-30T10:04:31.000Z</time>
      </trkpt>
      <trkpt lat="47.42648" lon="6.92946">
        <ele>576</ele>
        <time>2016-10-30T10:04:32.000Z</time>
      </trkpt>
      <trkpt lat="47.42648" lon="6.92951">
        <ele>576</ele>
        <time>2016-10-30T10:04:33.000Z</time>
      </trkpt>
      <trkpt lat="47.42648" lon="6.92957">
        <ele>575</ele>
        <time>2016-10-30T10:04:34.000Z</time>
      </trkpt>
      <trkpt lat="47.42647" lon="6.92963">
        <ele>575</ele>
        <time>2016-10-30T10:04:35.000Z</time>
      </trkpt>
      <trkpt lat="47.42646" lon="6.9297">
        <ele>575</ele>
        <time>2016-10-30T10:04:36.000Z</time>
      </trkpt>
      <trkpt lat="47.42646" lon="6.92976">
        <ele>575</ele>
        <time>2016-10-30T10:04:37.000Z</time>
      </trkpt>
      <trkpt lat="47.42645" lon="6.92981">
        <ele>575</ele>
        <time>2016-10-30T10:04:38.000Z</time>
      </trkpt>
      <trkpt lat="47.42644" lon="6.92987">
        <ele>575</ele>
        <time>2016-10-30T10:04:39.000Z</time>
      </trkpt>
      <trkpt lat="47.42644" lon="6.92993">
        <ele>575</ele>
        <time>2016-10-30T10:04:40.000Z</time>
      </trkpt>
      <trkpt lat="47.42643" lon="6.92999">
        <ele>575</ele>
        <time>2016-10-30T10:04:41.000Z</time>
      </trkpt>
      <trkpt lat="47.42643" lon="6.93005">
        <ele>575</ele>
        <time>2016-10-30T10:04:42.000Z</time>
      </trkpt>
      <trkpt lat="47.42644" lon="6.93012">
        <ele>575</ele>
        <time>2016-10-30T10:04:43.000Z</time>
      </trkpt>
      <trkpt lat="47.42643" lon="6.93019">
        <ele>575</ele>
        <time>2016-10-30T10:04:44.000Z</time>
      </trkpt>
      <trkpt lat="47.42643" lon="6.93024">
        <ele>575</ele>
        <time>2016-10-30T10:04:45.000Z</time>
      </trkpt>
      <trkpt lat="47.42642" lon="6.9303">
        <ele>575</ele>
        <time>2016-10-30T10:04:46.000Z</time>
      </trkpt>
      <trkpt lat="47.42642" lon="6.93036">
        <ele>575</ele>
        <time>2016-10-30T10:04:47.000Z</time>
      </trkpt>
      <trkpt lat="47.42641" lon="6.93042">
        <ele>575</ele>
        <time>2016-10-30T10:04:48.000Z</time>
      </trkpt>
      <trkpt lat="47.42641" lon="6.93047">
        <ele>575</ele>
        <time>2016-10-30T10:04:49.000Z</time>
      </trkpt>
      <trkpt lat="47.4264" lon="6.93053">
        <ele>575</ele>
        <time>2016-10-30T10:04:50.000Z</time>
      </trkpt>
      <trkpt lat="47.4264" lon="6.93058">
        <ele>575</ele>
        <time>2016-10-30T10:04:51.000Z</time>
      </trkpt>
      <trkpt lat="47.42639" lon="6.93065">
        <ele>576</ele>
        <time>2016-10-30T10:04:52.000Z</time>
      </trkpt>
      <trkpt lat="47.42638" lon="6.9307">
        <ele>576</ele>
        <time>2016-10-30T10:04:53.000Z</time>
      </trkpt>
      <trkpt lat="47.42637" lon="6.93076">
        <ele>576</ele>
        <time>2016-10-30T10:04:54.000Z</time>
      </trkpt>
      <trkpt lat="47.42636" lon="6.93081">
        <ele>576</ele>
        <time>2016-10-30T10:04:55.000Z</time>
      </trkpt>
      <trkpt lat="47.42636" lon="6.93088">
        <ele>576</ele>
        <time>2016-10-30T10:04:56.000Z</time>
      </trkpt>
      <trkpt lat="47.42635" lon="6.93093">
        <ele>576</ele>
        <time>2016-10-30T10:04:57.000Z</time>
      </trkpt>
      <trkpt lat="47.42635" lon="6.93098">
        <ele>576</ele>
        <time>2016-10-30T10:04:58.000Z</time>
      </trkpt>
      <trkpt lat="47.42634" lon="6.93104">
        <ele>575</ele>
        <time>2016-10-30T10:04:59.000Z</time>
      </trkpt>
      <trkpt lat="47.42633" lon="6.93109">
        <ele>575</ele>
        <time>2016-10-30T10:05:00.000Z</time>
      </trkpt>
      <trkpt lat="47.42633" lon="6.93114">
        <ele>575</ele>
        <time>2016-10-30T10:05:01.000Z</time>
      </trkpt>
      <trkpt lat="47.42632" lon="6.93119">
        <ele>575</ele>
        <time>2016-10-30T10:05:02.000Z</time>
      </trkpt>
      <trkpt lat="47.42632" lon="6.93125">
        <ele>575</ele>
        <time>2016-10-30T10:05:03.000Z</time>
      </trkpt>
      <trkpt lat="47.42631" lon="6.9313">
        <ele>575</ele>
        <time>2016-10-30T10:05:04.000Z</time>
      </trkpt>
      <trkpt lat="47.42631" lon="6.93135">
        <ele>575</ele>
        <time>2016-10-30T10:05:05.000Z</time>
      </trkpt>
      <trkpt lat="47.42631" lon="6.9314">
        <ele>575</ele>
        <time>2016-10-30T10:05:06.000Z</time>
      </trkpt>
      <trkpt lat="47.4263" lon="6.93145">
        <ele>575</ele>
        <time>2016-10-30T10:05:07.000Z</time>
      </trkpt>
      <trkpt lat="47.4263" lon="6.9315">
        <ele>575</ele>
        <time>2016-10-30T10:05:08.000Z</time>
      </trkpt>
      <trkpt lat="47.4263" lon="6.93155">
        <ele>575</ele>
        <time>2016-10-30T10:05:09.000Z</time>
      </trkpt>
      <trkpt lat="47.42631" lon="6.9316">
        <ele>575</ele>
        <time>2016-10-30T10:05:10.000Z</time>
      </trkpt>
      <trkpt lat="47.42632" lon="6.93165">
        <ele>575</ele>
        <time>2016-10-30T10:05:11.000Z</time>
      </trkpt>
      <trkpt lat="47.42634" lon="6.9317">
        <ele>575</ele>
        <time>2016-10-30T10:05:12.000Z</time>
      </trkpt>
      <trkpt lat="47.42636" lon="6.93174">
        <ele>575</ele>
        <time>2016-10-30T10:05:13.000Z</time>
      </trkpt>
      <trkpt lat="47.42639" lon="6.93177">
        <ele>575</ele>
        <time>2016-10-30T10:05:14.000Z</time>
      </trkpt>
      <trkpt lat="47.42642" lon="6.93179">
        <ele>575</ele>
        <time>2016-10-30T10:05:15.000Z</time>
      </trkpt>
      <trkpt lat="47.42644" lon="6.9318">
        <ele>575</ele>
        <time>2016-10-30T10:05:16.000Z</time>
      </trkpt>
      <trkpt lat="47.42647" lon="6.9318">
        <ele>575</ele>
        <time>2016-10-30T10:05:17.000Z</time>
      </trkpt>
      <trkpt lat="47.42649" lon="6.93179">
        <ele>576</ele>
        <time>2016-10-30T10:05:18.000Z</time>
      </trkpt>
      <trkpt lat="47.42654" lon="6.93179">
        <ele>576</ele>
        <time>2016-10-30T10:05:20.000Z</time>
      </trkpt>
      <trkpt lat="47.42656" lon="6.93179">
        <ele>576</ele>
        <time>2016-10-30T10:05:21.000Z</time>
      </trkpt>
      <trkpt lat="47.42658" lon="6.9318">
        <ele>576</ele>
        <time>2016-10-30T10:05:22.000Z</time>
      </trkpt>
      <trkpt lat="47.4266" lon="6.9318">
        <ele>576</ele>
        <time>2016-10-30T10:05:23.000Z</time>
      </trkpt>
      <trkpt lat="47.42663" lon="6.9318">
        <ele>576</ele>
        <time>2016-10-30T10:05:24.000Z</time>
      </trkpt>
      <trkpt lat="47.42665" lon="6.93181">
        <ele>576</ele>
        <time>2016-10-30T10:05:25.000Z</time>
      </trkpt>
      <trkpt lat="47.42667" lon="6.93181">
        <ele>579</ele>
        <time>2016-10-30T10:05:26.000Z</time>
      </trkpt>
      <trkpt lat="47.4267" lon="6.93182">
        <ele>579</ele>
        <time>2016-10-30T10:05:27.000Z</time>
      </trkpt>
      <trkpt lat="47.42672" lon="6.93183">
        <ele>579</ele>
        <time>2016-10-30T10:05:28.000Z</time>
      </trkpt>
      <trkpt lat="47.42675" lon="6.93183">
        <ele>579</ele>
        <time>2016-10-30T10:05:29.000Z</time>
      </trkpt>
      <trkpt lat="47.42677" lon="6.93184">
        <ele>579</ele>
        <time>2016-10-30T10:05:30.000Z</time>
      </trkpt>
      <trkpt lat="47.4268" lon="6.93185">
        <ele>579</ele>
        <time>2016-10-30T10:05:31.000Z</time>
      </trkpt>
      <trkpt lat="47.42683" lon="6.93185">
        <ele>579</ele>
        <time>2016-10-30T10:05:32.000Z</time>
      </trkpt>
      <trkpt lat="47.42685" lon="6.93186">
        <ele>579</ele>
        <time>2016-10-30T10:05:33.000Z</time>
      </trkpt>
      <trkpt lat="47.42688" lon="6.93187">
        <ele>580</ele>
        <time>2016-10-30T10:05:34.000Z</time>
      </trkpt>
      <trkpt lat="47.42691" lon="6.93187">
        <ele>580</ele>
        <time>2016-10-30T10:05:35.000Z</time>
      </trkpt>
      <trkpt lat="47.42693" lon="6.93188">
        <ele>580</ele>
        <time>2016-10-30T10:05:36.000Z</time>
      </trkpt>
      <trkpt lat="47.42696" lon="6.93188">
        <ele>580</ele>
        <time>2016-10-30T10:05:37.000Z</time>
      </trkpt>
      <trkpt lat="47.42698" lon="6.93189">
        <ele>580</ele>
        <time>2016-10-30T10:05:38.000Z</time>
      </trkpt>
      <trkpt lat="47.42701" lon="6.93189">
        <ele>580</ele>
        <time>2016-10-30T10:05:39.000Z</time>
      </trkpt>
      <trkpt lat="47.42703" lon="6.9319">
        <ele>580</ele>
        <time>2016-10-30T10:05:40.000Z</time>
      </trkpt>
      <trkpt lat="47.42706" lon="6.93191">
        <ele>580</ele>
        <time>2016-10-30T10:05:41.000Z</time>
      </trkpt>
      <trkpt lat="47.42708" lon="6.93191">
        <ele>580</ele>
        <time>2016-10-30T10:05:42.000Z</time>
      </trkpt>
      <trkpt lat="47.42711" lon="6.93192">
        <ele>580</ele>
        <time>2016-10-30T10:05:43.000Z</time>
      </trkpt>
      <trkpt lat="47.42713" lon="6.93193">
        <ele>580</ele>
        <time>2016-10-30T10:05:44.000Z</time>
      </trkpt>
      <trkpt lat="47.42716" lon="6.93193">
        <ele>580</ele>
        <time>2016-10-30T10:05:45.000Z</time>
      </trkpt>
      <trkpt lat="47.42718" lon="6.93194">
        <ele>580</ele>
        <time>2016-10-30T10:05:46.000Z</time>
      </trkpt>
      <trkpt lat="47.4272" lon="6.93195">
        <ele>581</ele>
        <time>2016-10-30T10:05:47.000Z</time>
      </trkpt>
      <trkpt lat="47.42723" lon="6.93195">
        <ele>581</ele>
        <time>2016-10-30T10:05:48.000Z</time>
      </trkpt>
      <trkpt lat="47.42726" lon="6.93196">
        <ele>581</ele>
        <time>2016-10-30T10:05:49.000Z</time>
      </trkpt>
      <trkpt lat="47.42728" lon="6.93197">
        <ele>581</ele>
        <time>2016-10-30T10:05:50.000Z</time>
      </trkpt>
      <trkpt lat="47.42731" lon="6.93198">
        <ele>581</ele>
        <time>2016-10-30T10:05:51.000Z</time>
      </trkpt>
      <trkpt lat="47.42733" lon="6.93199">
        <ele>581</ele>
        <time>2016-10-30T10:05:52.000Z</time>
      </trkpt>
      <trkpt lat="47.42736" lon="6.932">
        <ele>581</ele>
        <time>2016-10-30T10:05:53.000Z</time>
      </trkpt>
      <trkpt lat="47.42738" lon="6.93201">
        <ele>581</ele>
        <time>2016-10-30T10:05:54.000Z</time>
      </trkpt>
      <trkpt lat="47.4274" lon="6.93203">
        <ele>581</ele>
        <time>2016-10-30T10:05:55.000Z</time>
      </trkpt>
      <trkpt lat="47.42743" lon="6.93204">
        <ele>581</ele>
        <time>2016-10-30T10:05:56.000Z</time>
      </trkpt>
      <trkpt lat="47.42745" lon="6.93204">
        <ele>581</ele>
        <time>2016-10-30T10:05:57.000Z</time>
      </trkpt>
      <trkpt lat="47.42748" lon="6.93205">
        <ele>581</ele>
        <time>2016-10-30T10:05:58.000Z</time>
      </trkpt>
      <trkpt lat="47.4275" lon="6.93206">
        <ele>581</ele>
        <time>2016-10-30T10:05:59.000Z</time>
      </trkpt>
      <trkpt lat="47.42752" lon="6.93206">
        <ele>585</ele>
        <time>2016-10-30T10:05:59.999Z</time>
      </trkpt>
      <trkpt lat="47.42755" lon="6.93206">
        <ele>585</ele>
        <time>2016-10-30T10:06:01.000Z</time>
      </trkpt>
      <trkpt lat="47.42759" lon="6.93207">
        <ele>585</ele>
        <time>2016-10-30T10:06:03.000Z</time>
      </trkpt>
      <trkpt lat="47.42761" lon="6.93207">
        <ele>585</ele>
        <time>2016-10-30T10:06:04.000Z</time>
      </trkpt>
      <trkpt lat="47.42764" lon="6.93208">
        <ele>585</ele>
        <time>2016-10-30T10:06:05.000Z</time>
      </trkpt>
      <trkpt lat="47.42766" lon="6.93208">
        <ele>585</ele>
        <time>2016-10-30T10:06:06.000Z</time>
      </trkpt>
      <trkpt lat="47.42769" lon="6.93209">
        <ele>585</ele>
        <time>2016-10-30T10:06:07.000Z</time>
      </trkpt>
      <trkpt lat="47.42772" lon="6.93209">
        <ele>586</ele>
        <time>2016-10-30T10:06:08.000Z</time>
      </trkpt>
      <trkpt lat="47.42774" lon="6.9321">
        <ele>586</ele>
        <time>2016-10-30T10:06:09.000Z</time>
      </trkpt>
      <trkpt lat="47.42777" lon="6.93211">
        <ele>586</ele>
        <time>2016-10-30T10:06:10.000Z</time>
      </trkpt>
      <trkpt lat="47.42779" lon="6.93212">
        <ele>586</ele>
        <time>2016-10-30T10:06:11.000Z</time>
      </trkpt>
      <trkpt lat="47.42782" lon="6.93212">
        <ele>586</ele>
        <time>2016-10-30T10:06:12.000Z</time>
      </trkpt>
      <trkpt lat="47.42784" lon="6.93213">
        <ele>586</ele>
        <time>2016-10-30T10:06:13.000Z</time>
      </trkpt>
      <trkpt lat="47.42787" lon="6.93214">
        <ele>586</ele>
        <time>2016-10-30T10:06:14.000Z</time>
      </trkpt>
      <trkpt lat="47.42789" lon="6.93215">
        <ele>586</ele>
        <time>2016-10-30T10:06:15.000Z</time>
      </trkpt>
      <trkpt lat="47.42791" lon="6.93216">
        <ele>587</ele>
        <time>2016-10-30T10:06:16.000Z</time>
      </trkpt>
      <trkpt lat="47.42794" lon="6.93216">
        <ele>587</ele>
        <time>2016-10-30T10:06:17.000Z</time>
      </trkpt>
      <trkpt lat="47.42796" lon="6.93216">
        <ele>587</ele>
        <time>2016-10-30T10:06:18.000Z</time>
      </trkpt>
      <trkpt lat="47.42798" lon="6.93216">
        <ele>587</ele>
        <time>2016-10-30T10:06:19.000Z</time>
      </trkpt>
      <trkpt lat="47.42801" lon="6.93216">
        <ele>587</ele>
        <time>2016-10-30T10:06:20.000Z</time>
      </trkpt>
      <trkpt lat="47.42804" lon="6.93216">
        <ele>587</ele>
        <time>2016-10-30T10:06:21.000Z</time>
      </trkpt>
      <trkpt lat="47.42806" lon="6.93216">
        <ele>587</ele>
        <time>2016-10-30T10:06:22.000Z</time>
      </trkpt>
      <trkpt lat="47.42809" lon="6.93217">
        <ele>588</ele>
        <time>2016-10-30T10:06:23.000Z</time>
      </trkpt>
      <trkpt lat="47.42812" lon="6.93217">
        <ele>588</ele>
        <time>2016-10-30T10:06:24.000Z</time>
      </trkpt>
      <trkpt lat="47.42814" lon="6.93218">
        <ele>588</ele>
        <time>2016-10-30T10:06:25.000Z</time>
      </trkpt>
      <trkpt lat="47.42817" lon="6.93219">
        <ele>588</ele>
        <time>2016-10-30T10:06:26.000Z</time>
      </trkpt>
      <trkpt lat="47.42819" lon="6.9322">
        <ele>588</ele>
        <time>2016-10-30T10:06:27.000Z</time>
      </trkpt>
      <trkpt lat="47.42822" lon="6.9322">
        <ele>588</ele>
        <time>2016-10-30T10:06:28.000Z</time>
      </trkpt>
      <trkpt lat="47.42824" lon="6.93221">
        <ele>588</ele>
        <time>2016-10-30T10:06:29.000Z</time>
      </trkpt>
      <trkpt lat="47.42827" lon="6.93222">
        <ele>589</ele>
        <time>2016-10-30T10:06:30.000Z</time>
      </trkpt>
      <trkpt lat="47.42829" lon="6.93223">
        <ele>589</ele>
        <time>2016-10-30T10:06:31.000Z</time>
      </trkpt>
      <trkpt lat="47.42832" lon="6.93224">
        <ele>589</ele>
        <time>2016-10-30T10:06:32.000Z</time>
      </trkpt>
      <trkpt lat="47.42835" lon="6.93225">
        <ele>590</ele>
        <time>2016-10-30T10:06:33.000Z</time>
      </trkpt>
      <trkpt lat="47.42837" lon="6.93225">
        <ele>590</ele>
        <time>2016-10-30T10:06:34.000Z</time>
      </trkpt>
      <trkpt lat="47.4284" lon="6.93226">
        <ele>590</ele>
        <time>2016-10-30T10:06:35.000Z</time>
      </trkpt>
      <trkpt lat="47.42843" lon="6.93227">
        <ele>590</ele>
        <time>2016-10-30T10:06:36.000Z</time>
      </trkpt>
      <trkpt lat="47.42846" lon="6.93227">
        <ele>590</ele>
        <time>2016-10-30T10:06:37.000Z</time>
      </trkpt>
      <trkpt lat="47.42848" lon="6.93228">
        <ele>590</ele>
        <time>2016-10-30T10:06:38.000Z</time>
      </trkpt>
      <trkpt lat="47.42852" lon="6.93228">
        <ele>590</ele>
        <time>2016-10-30T10:06:40.000Z</time>
      </trkpt>
      <trkpt lat="47.42854" lon="6.93228">
        <ele>590</ele>
        <time>2016-10-30T10:06:41.000Z</time>
      </trkpt>
      <trkpt lat="47.42857" lon="6.93228">
        <ele>590</ele>
        <time>2016-10-30T10:06:43.000Z</time>
      </trkpt>
      <trkpt lat="47.42859" lon="6.93228">
        <ele>590</ele>
        <time>2016-10-30T10:06:44.000Z</time>
      </trkpt>
      <trkpt lat="47.42862" lon="6.93227">
        <ele>589</ele>
        <time>2016-10-30T10:06:47.000Z</time>
      </trkpt>
      <trkpt lat="47.42863" lon="6.93226">
        <ele>589</ele>
        <time>2016-10-30T10:06:48.000Z</time>
      </trkpt>
      <trkpt lat="47.42867" lon="6.93225">
        <ele>589</ele>
        <time>2016-10-30T10:06:49.999Z</time>
      </trkpt>
      <trkpt lat="47.4287" lon="6.93223">
        <ele>589</ele>
        <time>2016-10-30T10:06:51.000Z</time>
      </trkpt>
      <trkpt lat="47.42873" lon="6.93222">
        <ele>589</ele>
        <time>2016-10-30T10:06:52.000Z</time>
      </trkpt>
      <trkpt lat="47.42875" lon="6.93221">
        <ele>589</ele>
        <time>2016-10-30T10:06:53.000Z</time>
      </trkpt>
      <trkpt lat="47.42877" lon="6.9322">
        <ele>589</ele>
        <time>2016-10-30T10:06:54.002Z</time>
      </trkpt>
      <trkpt lat="47.42879" lon="6.93219">
        <ele>589</ele>
        <time>2016-10-30T10:06:55.000Z</time>
      </trkpt>
      <trkpt lat="47.42882" lon="6.93218">
        <ele>589</ele>
        <time>2016-10-30T10:06:56.000Z</time>
      </trkpt>
      <trkpt lat="47.42885" lon="6.93218">
        <ele>588</ele>
        <time>2016-10-30T10:06:57.000Z</time>
      </trkpt>
      <trkpt lat="47.42889" lon="6.93218">
        <ele>588</ele>
        <time>2016-10-30T10:06:58.000Z</time>
      </trkpt>
      <trkpt lat="47.42893" lon="6.93218">
        <ele>588</ele>
        <time>2016-10-30T10:06:59.000Z</time>
      </trkpt>
      <trkpt lat="47.42897" lon="6.93219">
        <ele>588</ele>
        <time>2016-10-30T10:07:00.000Z</time>
      </trkpt>
      <trkpt lat="47.42901" lon="6.9322">
        <ele>588</ele>
        <time>2016-10-30T10:07:01.000Z</time>
      </trkpt>
      <trkpt lat="47.42905" lon="6.93222">
        <ele>588</ele>
        <time>2016-10-30T10:07:02.000Z</time>
      </trkpt>
      <trkpt lat="47.4291" lon="6.93223">
        <ele>588</ele>
        <time>2016-10-30T10:07:03.000Z</time>
      </trkpt>
      <trkpt lat="47.42916" lon="6.93226">
        <ele>588</ele>
        <time>2016-10-30T10:07:04.000Z</time>
      </trkpt>
      <trkpt lat="47.42921" lon="6.93228">
        <ele>585</ele>
        <time>2016-10-30T10:07:05.000Z</time>
      </trkpt>
      <trkpt lat="47.42927" lon="6.93229">
        <ele>585</ele>
        <time>2016-10-30T10:07:06.000Z</time>
      </trkpt>
      <trkpt lat="47.42932" lon="6.9323">
        <ele>585</ele>
        <time>2016-10-30T10:07:07.000Z</time>
      </trkpt>
      <trkpt lat="47.42938" lon="6.93231">
        <ele>585</ele>
        <time>2016-10-30T10:07:08.001Z</time>
      </trkpt>
      <trkpt lat="47.42944" lon="6.93232">
        <ele>584</ele>
        <time>2016-10-30T10:07:09.000Z</time>
      </trkpt>
      <trkpt lat="47.4295" lon="6.93233">
        <ele>584</ele>
        <time>2016-10-30T10:07:10.000Z</time>
      </trkpt>
      <trkpt lat="47.42956" lon="6.93234">
        <ele>584</ele>
        <time>2016-10-30T10:07:11.000Z</time>
      </trkpt>
      <trkpt lat="47.42962" lon="6.93235">
        <ele>584</ele>
        <time>2016-10-30T10:07:12.000Z</time>
      </trkpt>
      <trkpt lat="47.42967" lon="6.93233">
        <ele>583</ele>
        <time>2016-10-30T10:07:13.000Z</time>
      </trkpt>
      <trkpt lat="47.42972" lon="6.93236">
        <ele>583</ele>
        <time>2016-10-30T10:07:14.000Z</time>
      </trkpt>
      <trkpt lat="47.42978" lon="6.93235">
        <ele>583</ele>
        <time>2016-10-30T10:07:15.000Z</time>
      </trkpt>
      <trkpt lat="47.42984" lon="6.93236">
        <ele>583</ele>
        <time>2016-10-30T10:07:16.000Z</time>
      </trkpt>
      <trkpt lat="47.42989" lon="6.93236">
        <ele>583</ele>
        <time>2016-10-30T10:07:17.000Z</time>
      </trkpt>
      <trkpt lat="47.42993" lon="6.93234">
        <ele>582</ele>
        <time>2016-10-30T10:07:18.000Z</time>
      </trkpt>
      <trkpt lat="47.42997" lon="6.93233">
        <ele>582</ele>
        <time>2016-10-30T10:07:19.000Z</time>
      </trkpt>
      <trkpt lat="47.43001" lon="6.9323">
        <ele>581</ele>
        <time>2016-10-30T10:07:20.000Z</time>
      </trkpt>
      <trkpt lat="47.43005" lon="6.93225">
        <ele>581</ele>
        <time>2016-10-30T10:07:21.000Z</time>
      </trkpt>
      <trkpt lat="47.43007" lon="6.93218">
        <ele>581</ele>
        <time>2016-10-30T10:07:22.000Z</time>
      </trkpt>
      <trkpt lat="47.43009" lon="6.93211">
        <ele>580</ele>
        <time>2016-10-30T10:07:23.000Z</time>
      </trkpt>
      <trkpt lat="47.43009" lon="6.93202">
        <ele>580</ele>
        <time>2016-10-30T10:07:24.000Z</time>
      </trkpt>
      <trkpt lat="47.4301" lon="6.93193">
        <ele>580</ele>
        <time>2016-10-30T10:07:25.000Z</time>
      </trkpt>
      <trkpt lat="47.43011" lon="6.93183">
        <ele>579</ele>
        <time>2016-10-30T10:07:26.000Z</time>
      </trkpt>
      <trkpt lat="47.43012" lon="6.93172">
        <ele>579</ele>
        <time>2016-10-30T10:07:27.000Z</time>
      </trkpt>
      <trkpt lat="47.43013" lon="6.93161">
        <ele>578</ele>
        <time>2016-10-30T10:07:28.000Z</time>
      </trkpt>
      <trkpt lat="47.43014" lon="6.9315">
        <ele>578</ele>
        <time>2016-10-30T10:07:29.000Z</time>
      </trkpt>
      <trkpt lat="47.43015" lon="6.9314">
        <ele>578</ele>
        <time>2016-10-30T10:07:30.000Z</time>
      </trkpt>
      <trkpt lat="47.43017" lon="6.9313">
        <ele>578</ele>
        <time>2016-10-30T10:07:31.000Z</time>
      </trkpt>
      <trkpt lat="47.43018" lon="6.93119">
        <ele>578</ele>
        <time>2016-10-30T10:07:32.000Z</time>
      </trkpt>
      <trkpt lat="47.43019" lon="6.93108">
        <ele>578</ele>
        <time>2016-10-30T10:07:33.000Z</time>
      </trkpt>
      <trkpt lat="47.43021" lon="6.93099">
        <ele>578</ele>
        <time>2016-10-30T10:07:34.000Z</time>
      </trkpt>
      <trkpt lat="47.43023" lon="6.93087">
        <ele>578</ele>
        <time>2016-10-30T10:07:35.000Z</time>
      </trkpt>
      <trkpt lat="47.43023" lon="6.93078">
        <ele>578</ele>
        <time>2016-10-30T10:07:36.000Z</time>
      </trkpt>
      <trkpt lat="47.43025" lon="6.93068">
        <ele>578</ele>
        <time>2016-10-30T10:07:37.000Z</time>
      </trkpt>
      <trkpt lat="47.43026" lon="6.93057">
        <ele>578</ele>
        <time>2016-10-30T10:07:38.000Z</time>
      </trkpt>
      <trkpt lat="47.43027" lon="6.93047">
        <ele>578</ele>
        <time>2016-10-30T10:07:39.000Z</time>
      </trkpt>
      <trkpt lat="47.43028" lon="6.93038">
        <ele>578</ele>
        <time>2016-10-30T10:07:40.000Z</time>
      </trkpt>
      <trkpt lat="47.43028" lon="6.93028">
        <ele>578</ele>
        <time>2016-10-30T10:07:41.000Z</time>
      </trkpt>
      <trkpt lat="47.43028" lon="6.93019">
        <ele>578</ele>
        <time>2016-10-30T10:07:42.000Z</time>
      </trkpt>
      <trkpt lat="47.43028" lon="6.93009">
        <ele>578</ele>
        <time>2016-10-30T10:07:43.000Z</time>
      </trkpt>
      <trkpt lat="47.43029" lon="6.92999">
        <ele>577</ele>
        <time>2016-10-30T10:07:44.000Z</time>
      </trkpt>
      <trkpt lat="47.4303" lon="6.92989">
        <ele>577</ele>
        <time>2016-10-30T10:07:45.000Z</time>
      </trkpt>
      <trkpt lat="47.43031" lon="6.92978">
        <ele>577</ele>
        <time>2016-10-30T10:07:46.000Z</time>
      </trkpt>
      <trkpt lat="47.43031" lon="6.92969">
        <ele>577</ele>
        <time>2016-10-30T10:07:47.000Z</time>
      </trkpt>
      <trkpt lat="47.43032" lon="6.92959">
        <ele>577</ele>
        <time>2016-10-30T10:07:48.000Z</time>
      </trkpt>
      <trkpt lat="47.43033" lon="6.9295">
        <ele>577</ele>
        <time>2016-10-30T10:07:49.000Z</time>
      </trkpt>
      <trkpt lat="47.43037" lon="6.92943">
        <ele>577</ele>
        <time>2016-10-30T10:07:50.000Z</time>
      </trkpt>
      <trkpt lat="47.43042" lon="6.92936">
        <ele>577</ele>
        <time>2016-10-30T10:07:51.000Z</time>
      </trkpt>
      <trkpt lat="47.43048" lon="6.92931">
        <ele>577</ele>
        <time>2016-10-30T10:07:52.000Z</time>
      </trkpt>
      <trkpt lat="47.43055" lon="6.9293">
        <ele>577</ele>
        <time>2016-10-30T10:07:53.000Z</time>
      </trkpt>
      <trkpt lat="47.43062" lon="6.92929">
        <ele>577</ele>
        <time>2016-10-30T10:07:54.000Z</time>
      </trkpt>
      <trkpt lat="47.43068" lon="6.92929">
        <ele>577</ele>
        <time>2016-10-30T10:07:55.000Z</time>
      </trkpt>
      <trkpt lat="47.43074" lon="6.92929">
        <ele>577</ele>
        <time>2016-10-30T10:07:56.000Z</time>
      </trkpt>
      <trkpt lat="47.43081" lon="6.92929">
        <ele>577</ele>
        <time>2016-10-30T10:07:57.000Z</time>
      </trkpt>
      <trkpt lat="47.43087" lon="6.92928">
        <ele>577</ele>
        <time>2016-10-30T10:07:58.000Z</time>
      </trkpt>
      <trkpt lat="47.43093" lon="6.92927">
        <ele>577</ele>
        <time>2016-10-30T10:07:59.000Z</time>
      </trkpt>
      <trkpt lat="47.43099" lon="6.92927">
        <ele>577</ele>
        <time>2016-10-30T10:08:00.000Z</time>
      </trkpt>
      <trkpt lat="47.43105" lon="6.92928">
        <ele>577</ele>
        <time>2016-10-30T10:08:01.000Z</time>
      </trkpt>
      <trkpt lat="47.43111" lon="6.92928">
        <ele>577</ele>
        <time>2016-10-30T10:08:02.000Z</time>
      </trkpt>
      <trkpt lat="47.43117" lon="6.92928">
        <ele>577</ele>
        <time>2016-10-30T10:08:03.000Z</time>
      </trkpt>
      <trkpt lat="47.43123" lon="6.92928">
        <ele>578</ele>
        <time>2016-10-30T10:08:04.000Z</time>
      </trkpt>
      <trkpt lat="47.43129" lon="6.92927">
        <ele>578</ele>
        <time>2016-10-30T10:08:05.000Z</time>
      </trkpt>
      <trkpt lat="47.43135" lon="6.92925">
        <ele>577</ele>
        <time>2016-10-30T10:08:06.000Z</time>
      </trkpt>
      <trkpt lat="47.43141" lon="6.92924">
        <ele>577</ele>
        <time>2016-10-30T10:08:07.000Z</time>
      </trkpt>
      <trkpt lat="47.43147" lon="6.92924">
        <ele>577</ele>
        <time>2016-10-30T10:08:08.000Z</time>
      </trkpt>
      <trkpt lat="47.43152" lon="6.92922">
        <ele>577</ele>
        <time>2016-10-30T10:08:09.000Z</time>
      </trkpt>
      <trkpt lat="47.43158" lon="6.92922">
        <ele>577</ele>
        <time>2016-10-30T10:08:10.000Z</time>
      </trkpt>
      <trkpt lat="47.43164" lon="6.92921">
        <ele>577</ele>
        <time>2016-10-30T10:08:11.000Z</time>
      </trkpt>
      <trkpt lat="47.43168" lon="6.92919">
        <ele>577</ele>
        <time>2016-10-30T10:08:12.000Z</time>
      </trkpt>
      <trkpt lat="47.43174" lon="6.92918">
        <ele>577</ele>
        <time>2016-10-30T10:08:13.000Z</time>
      </trkpt>
      <trkpt lat="47.43179" lon="6.92918">
        <ele>577</ele>
        <time>2016-10-30T10:08:14.000Z</time>
      </trkpt>
      <trkpt lat="47.43185" lon="6.92918">
        <ele>577</ele>
        <time>2016-10-30T10:08:15.000Z</time>
      </trkpt>
      <trkpt lat="47.4319" lon="6.92917">
        <ele>577</ele>
        <time>2016-10-30T10:08:16.000Z</time>
      </trkpt>
      <trkpt lat="47.43194" lon="6.92917">
        <ele>577</ele>
        <time>2016-10-30T10:08:17.000Z</time>
      </trkpt>
      <trkpt lat="47.43199" lon="6.92916">
        <ele>576</ele>
        <time>2016-10-30T10:08:18.000Z</time>
      </trkpt>
      <trkpt lat="47.43203" lon="6.92916">
        <ele>576</ele>
        <time>2016-10-30T10:08:19.000Z</time>
      </trkpt>
      <trkpt lat="47.43207" lon="6.92915">
        <ele>576</ele>
        <time>2016-10-30T10:08:20.000Z</time>
      </trkpt>
      <trkpt lat="47.43212" lon="6.92915">
        <ele>576</ele>
        <time>2016-10-30T10:08:21.000Z</time>
      </trkpt>
      <trkpt lat="47.43216" lon="6.92914">
        <ele>576</ele>
        <time>2016-10-30T10:08:22.000Z</time>
      </trkpt>
      <trkpt lat="47.43221" lon="6.92914">
        <ele>576</ele>
        <time>2016-10-30T10:08:23.000Z</time>
      </trkpt>
      <trkpt lat="47.43225" lon="6.92913">
        <ele>576</ele>
        <time>2016-10-30T10:08:24.000Z</time>
      </trkpt>
      <trkpt lat="47.43229" lon="6.92913">
        <ele>576</ele>
        <time>2016-10-30T10:08:25.000Z</time>
      </trkpt>
      <trkpt lat="47.43233" lon="6.92914">
        <ele>576</ele>
        <time>2016-10-30T10:08:26.000Z</time>
      </trkpt>
      <trkpt lat="47.43238" lon="6.92913">
        <ele>576</ele>
        <time>2016-10-30T10:08:27.000Z</time>
      </trkpt>
      <trkpt lat="47.43243" lon="6.92912">
        <ele>576</ele>
        <time>2016-10-30T10:08:28.000Z</time>
      </trkpt>
      <trkpt lat="47.43247" lon="6.92911">
        <ele>576</ele>
        <time>2016-10-30T10:08:29.000Z</time>
      </trkpt>
      <trkpt lat="47.43251" lon="6.9291">
        <ele>576</ele>
        <time>2016-10-30T10:08:30.000Z</time>
      </trkpt>
      <trkpt lat="47.43255" lon="6.92908">
        <ele>576</ele>
        <time>2016-10-30T10:08:31.000Z</time>
      </trkpt>
      <trkpt lat="47.43259" lon="6.92908">
        <ele>577</ele>
        <time>2016-10-30T10:08:32.000Z</time>
      </trkpt>
      <trkpt lat="47.43262" lon="6.92906">
        <ele>577</ele>
        <time>2016-10-30T10:08:33.000Z</time>
      </trkpt>
      <trkpt lat="47.43266" lon="6.92906">
        <ele>577</ele>
        <time>2016-10-30T10:08:34.000Z</time>
      </trkpt>
      <trkpt lat="47.43271" lon="6.92907">
        <ele>577</ele>
        <time>2016-10-30T10:08:35.000Z</time>
      </trkpt>
      <trkpt lat="47.43275" lon="6.92907">
        <ele>577</ele>
        <time>2016-10-30T10:08:36.000Z</time>
      </trkpt>
      <trkpt lat="47.43278" lon="6.92906">
        <ele>577</ele>
        <time>2016-10-30T10:08:37.000Z</time>
      </trkpt>
      <trkpt lat="47.43281" lon="6.92906">
        <ele>577</ele>
        <time>2016-10-30T10:08:38.000Z</time>
      </trkpt>
      <trkpt lat="47.43284" lon="6.92905">
        <ele>577</ele>
        <time>2016-10-30T10:08:39.000Z</time>
      </trkpt>
      <trkpt lat="47.43288" lon="6.92905">
        <ele>577</ele>
        <time>2016-10-30T10:08:40.000Z</time>
      </trkpt>
      <trkpt lat="47.43292" lon="6.92904">
        <ele>577</ele>
        <time>2016-10-30T10:08:41.000Z</time>
      </trkpt>
      <trkpt lat="47.43295" lon="6.92903">
        <ele>578</ele>
        <time>2016-10-30T10:08:42.000Z</time>
      </trkpt>
      <trkpt lat="47.43298" lon="6.92902">
        <ele>578</ele>
        <time>2016-10-30T10:08:43.000Z</time>
      </trkpt>
      <trkpt lat="47.43301" lon="6.92902">
        <ele>578</ele>
        <time>2016-10-30T10:08:44.000Z</time>
      </trkpt>
      <trkpt lat="47.43304" lon="6.92902">
        <ele>578</ele>
        <time>2016-10-30T10:08:45.000Z</time>
      </trkpt>
      <trkpt lat="47.43307" lon="6.92902">
        <ele>578</ele>
        <time>2016-10-30T10:08:46.000Z</time>
      </trkpt>
      <trkpt lat="47.4331" lon="6.92902">
        <ele>578</ele>
        <time>2016-10-30T10:08:47.000Z</time>
      </trkpt>
      <trkpt lat="47.43314" lon="6.92902">
        <ele>578</ele>
        <time>2016-10-30T10:08:48.000Z</time>
      </trkpt>
      <trkpt lat="47.43317" lon="6.92903">
        <ele>578</ele>
        <time>2016-10-30T10:08:49.000Z</time>
      </trkpt>
      <trkpt lat="47.4332" lon="6.92903">
        <ele>579</ele>
        <time>2016-10-30T10:08:50.000Z</time>
      </trkpt>
      <trkpt lat="47.43324" lon="6.92902">
        <ele>579</ele>
        <time>2016-10-30T10:08:51.000Z</time>
      </trkpt>
      <trkpt lat="47.43327" lon="6.92902">
        <ele>579</ele>
        <time>2016-10-30T10:08:52.000Z</time>
      </trkpt>
      <trkpt lat="47.4333" lon="6.92902">
        <ele>579</ele>
        <time>2016-10-30T10:08:53.000Z</time>
      </trkpt>
      <trkpt lat="47.43334" lon="6.92901">
        <ele>580</ele>
        <time>2016-10-30T10:08:54.000Z</time>
      </trkpt>
      <trkpt lat="47.43337" lon="6.92901">
        <ele>580</ele>
        <time>2016-10-30T10:08:55.000Z</time>
      </trkpt>
      <trkpt lat="47.43341" lon="6.92901">
        <ele>580</ele>
        <time>2016-10-30T10:08:56.000Z</time>
      </trkpt>
      <trkpt lat="47.43344" lon="6.929">
        <ele>580</ele>
        <time>2016-10-30T10:08:57.000Z</time>
      </trkpt>
      <trkpt lat="47.43348" lon="6.929">
        <ele>580</ele>
        <time>2016-10-30T10:08:58.000Z</time>
      </trkpt>
      <trkpt lat="47.43352" lon="6.92899">
        <ele>580</ele>
        <time>2016-10-30T10:08:59.000Z</time>
      </trkpt>
      <trkpt lat="47.43356" lon="6.92899">
        <ele>580</ele>
        <time>2016-10-30T10:09:00.000Z</time>
      </trkpt>
      <trkpt lat="47.43359" lon="6.92898">
        <ele>580</ele>
        <time>2016-10-30T10:09:01.000Z</time>
      </trkpt>
      <trkpt lat="47.43363" lon="6.92898">
        <ele>580</ele>
        <time>2016-10-30T10:09:02.000Z</time>
      </trkpt>
      <trkpt lat="47.43367" lon="6.92898">
        <ele>580</ele>
        <time>2016-10-30T10:09:03.000Z</time>
      </trkpt>
      <trkpt lat="47.4337" lon="6.92898">
        <ele>580</ele>
        <time>2016-10-30T10:09:04.000Z</time>
      </trkpt>
      <trkpt lat="47.43374" lon="6.92897">
        <ele>580</ele>
        <time>2016-10-30T10:09:05.000Z</time>
      </trkpt>
      <trkpt lat="47.43378" lon="6.92897">
        <ele>580</ele>
        <time>2016-10-30T10:09:06.000Z</time>
      </trkpt>
      <trkpt lat="47.43382" lon="6.92897">
        <ele>580</ele>
        <time>2016-10-30T10:09:07.000Z</time>
      </trkpt>
      <trkpt lat="47.43387" lon="6.92896">
        <ele>580</ele>
        <time>2016-10-30T10:09:08.000Z</time>
      </trkpt>
      <trkpt lat="47.43391" lon="6.92896">
        <ele>580</ele>
        <time>2016-10-30T10:09:09.000Z</time>
      </trkpt>
      <trkpt lat="47.43395" lon="6.92894">
        <ele>580</ele>
        <time>2016-10-30T10:09:10.000Z</time>
      </trkpt>
      <trkpt lat="47.43399" lon="6.92894">
        <ele>580</ele>
        <time>2016-10-30T10:09:11.000Z</time>
      </trkpt>
      <trkpt lat="47.43404" lon="6.92893">
        <ele>580</ele>
        <time>2016-10-30T10:09:12.000Z</time>
      </trkpt>
      <trkpt lat="47.43407" lon="6.92893">
        <ele>580</ele>
        <time>2016-10-30T10:09:13.000Z</time>
      </trkpt>
      <trkpt lat="47.43411" lon="6.92892">
        <ele>580</ele>
        <time>2016-10-30T10:09:14.000Z</time>
      </trkpt>
      <trkpt lat="47.43415" lon="6.92892">
        <ele>580</ele>
        <time>2016-10-30T10:09:15.000Z</time>
      </trkpt>
      <trkpt lat="47.4342" lon="6.92892">
        <ele>580</ele>
        <time>2016-10-30T10:09:16.000Z</time>
      </trkpt>
      <trkpt lat="47.43425" lon="6.92891">
        <ele>580</ele>
        <time>2016-10-30T10:09:17.000Z</time>
      </trkpt>
      <trkpt lat="47.43429" lon="6.92891">
        <ele>580</ele>
        <time>2016-10-30T10:09:18.000Z</time>
      </trkpt>
      <trkpt lat="47.43434" lon="6.9289">
        <ele>580</ele>
        <time>2016-10-30T10:09:19.000Z</time>
      </trkpt>
      <trkpt lat="47.43439" lon="6.9289">
        <ele>580</ele>
        <time>2016-10-30T10:09:20.000Z</time>
      </trkpt>
      <trkpt lat="47.43444" lon="6.92889">
        <ele>580</ele>
        <time>2016-10-30T10:09:21.000Z</time>
      </trkpt>
      <trkpt lat="47.43449" lon="6.92887">
        <ele>579</ele>
        <time>2016-10-30T10:09:22.000Z</time>
      </trkpt>
      <trkpt lat="47.43455" lon="6.92886">
        <ele>579</ele>
        <time>2016-10-30T10:09:23.000Z</time>
      </trkpt>
      <trkpt lat="47.43461" lon="6.92886">
        <ele>579</ele>
        <time>2016-10-30T10:09:24.000Z</time>
      </trkpt>
      <trkpt lat="47.43465" lon="6.92885">
        <ele>579</ele>
        <time>2016-10-30T10:09:25.000Z</time>
      </trkpt>
      <trkpt lat="47.4347" lon="6.92885">
        <ele>579</ele>
        <time>2016-10-30T10:09:26.000Z</time>
      </trkpt>
      <trkpt lat="47.43475" lon="6.92884">
        <ele>579</ele>
        <time>2016-10-30T10:09:27.000Z</time>
      </trkpt>
      <trkpt lat="47.43479" lon="6.92884">
        <ele>579</ele>
        <time>2016-10-30T10:09:28.000Z</time>
      </trkpt>
      <trkpt lat="47.43484" lon="6.92883">
        <ele>579</ele>
        <time>2016-10-30T10:09:29.000Z</time>
      </trkpt>
      <trkpt lat="47.43489" lon="6.92882">
        <ele>579</ele>
        <time>2016-10-30T10:09:30.000Z</time>
      </trkpt>
      <trkpt lat="47.43493" lon="6.92881">
        <ele>579</ele>
        <time>2016-10-30T10:09:31.000Z</time>
      </trkpt>
      <trkpt lat="47.43498" lon="6.92881">
        <ele>579</ele>
        <time>2016-10-30T10:09:32.000Z</time>
      </trkpt>
      <trkpt lat="47.43502" lon="6.92881">
        <ele>579</ele>
        <time>2016-10-30T10:09:33.000Z</time>
      </trkpt>
      <trkpt lat="47.43507" lon="6.9288">
        <ele>579</ele>
        <time>2016-10-30T10:09:34.000Z</time>
      </trkpt>
      <trkpt lat="47.43511" lon="6.92879">
        <ele>579</ele>
        <time>2016-10-30T10:09:35.000Z</time>
      </trkpt>
      <trkpt lat="47.43515" lon="6.92878">
        <ele>579</ele>
        <time>2016-10-30T10:09:36.000Z</time>
      </trkpt>
      <trkpt lat="47.4352" lon="6.92877">
        <ele>579</ele>
        <time>2016-10-30T10:09:37.000Z</time>
      </trkpt>
      <trkpt lat="47.43524" lon="6.92877">
        <ele>579</ele>
        <time>2016-10-30T10:09:38.000Z</time>
      </trkpt>
      <trkpt lat="47.43528" lon="6.92876">
        <ele>579</ele>
        <time>2016-10-30T10:09:39.000Z</time>
      </trkpt>
      <trkpt lat="47.43533" lon="6.92876">
        <ele>579</ele>
        <time>2016-10-30T10:09:40.000Z</time>
      </trkpt>
      <trkpt lat="47.43537" lon="6.92875">
        <ele>579</ele>
        <time>2016-10-30T10:09:41.000Z</time>
      </trkpt>
      <trkpt lat="47.43542" lon="6.92875">
        <ele>579</ele>
        <time>2016-10-30T10:09:42.000Z</time>
      </trkpt>
      <trkpt lat="47.43546" lon="6.92875">
        <ele>579</ele>
        <time>2016-10-30T10:09:43.000Z</time>
      </trkpt>
      <trkpt lat="47.4355" lon="6.92875">
        <ele>579</ele>
        <time>2016-10-30T10:09:44.000Z</time>
      </trkpt>
      <trkpt lat="47.43554" lon="6.92874">
        <ele>579</ele>
        <time>2016-10-30T10:09:45.000Z</time>
      </trkpt>
      <trkpt lat="47.43557" lon="6.92874">
        <ele>579</ele>
        <time>2016-10-30T10:09:46.000Z</time>
      </trkpt>
      <trkpt lat="47.43561" lon="6.92873">
        <ele>579</ele>
        <time>2016-10-30T10:09:47.000Z</time>
      </trkpt>
      <trkpt lat="47.43564" lon="6.92873">
        <ele>579</ele>
        <time>2016-10-30T10:09:48.000Z</time>
      </trkpt>
      <trkpt lat="47.43568" lon="6.92873">
        <ele>579</ele>
        <time>2016-10-30T10:09:49.000Z</time>
      </trkpt>
      <trkpt lat="47.43571" lon="6.92872">
        <ele>580</ele>
        <time>2016-10-30T10:09:50.000Z</time>
      </trkpt>
      <trkpt lat="47.43574" lon="6.92871">
        <ele>580</ele>
        <time>2016-10-30T10:09:51.000Z</time>
      </trkpt>
      <trkpt lat="47.43578" lon="6.92871">
        <ele>580</ele>
        <time>2016-10-30T10:09:52.000Z</time>
      </trkpt>
      <trkpt lat="47.43581" lon="6.9287">
        <ele>580</ele>
        <time>2016-10-30T10:09:53.000Z</time>
      </trkpt>
      <trkpt lat="47.43583" lon="6.9287">
        <ele>580</ele>
        <time>2016-10-30T10:09:54.000Z</time>
      </trkpt>
      <trkpt lat="47.43586" lon="6.9287">
        <ele>581</ele>
        <time>2016-10-30T10:09:55.000Z</time>
      </trkpt>
      <trkpt lat="47.43589" lon="6.9287">
        <ele>581</ele>
        <time>2016-10-30T10:09:56.000Z</time>
      </trkpt>
      <trkpt lat="47.43592" lon="6.9287">
        <ele>581</ele>
        <time>2016-10-30T10:09:57.000Z</time>
      </trkpt>
      <trkpt lat="47.43595" lon="6.9287">
        <ele>581</ele>
        <time>2016-10-30T10:09:58.000Z</time>
      </trkpt>
      <trkpt lat="47.43598" lon="6.92871">
        <ele>581</ele>
        <time>2016-10-30T10:09:59.000Z</time>
      </trkpt>
      <trkpt lat="47.43601" lon="6.92871">
        <ele>581</ele>
        <time>2016-10-30T10:10:00.000Z</time>
      </trkpt>
      <trkpt lat="47.43604" lon="6.92871">
        <ele>581</ele>
        <time>2016-10-30T10:10:01.000Z</time>
      </trkpt>
      <trkpt lat="47.43607" lon="6.9287">
        <ele>581</ele>
        <time>2016-10-30T10:10:02.000Z</time>
      </trkpt>
      <trkpt lat="47.4361" lon="6.92869">
        <ele>581</ele>
        <time>2016-10-30T10:10:03.000Z</time>
      </trkpt>
      <trkpt lat="47.43612" lon="6.92869">
        <ele>581</ele>
        <time>2016-10-30T10:10:04.000Z</time>
      </trkpt>
      <trkpt lat="47.43616" lon="6.92867">
        <ele>581</ele>
        <time>2016-10-30T10:10:06.000Z</time>
      </trkpt>
      <trkpt lat="47.43617" lon="6.92867">
        <ele>581</ele>
        <time>2016-10-30T10:10:07.000Z</time>
      </trkpt>
      <trkpt lat="47.43621" lon="6.92865">
        <ele>581</ele>
        <time>2016-10-30T10:10:11.000Z</time>
      </trkpt>
      <trkpt lat="47.43622" lon="6.92865">
        <ele>581</ele>
        <time>2016-10-30T10:10:12.000Z</time>
      </trkpt>
      <trkpt lat="47.43625" lon="6.92865">
        <ele>581</ele>
        <time>2016-10-30T10:10:14.000Z</time>
      </trkpt>
      <trkpt lat="47.43627" lon="6.92866">
        <ele>581</ele>
        <time>2016-10-30T10:10:15.000Z</time>
      </trkpt>
      <trkpt lat="47.43629" lon="6.92867">
        <ele>581</ele>
        <time>2016-10-30T10:10:16.000Z</time>
      </trkpt>
      <trkpt lat="47.43632" lon="6.92869">
        <ele>581</ele>
        <time>2016-10-30T10:10:17.000Z</time>
      </trkpt>
      <trkpt lat="47.43634" lon="6.92871">
        <ele>581</ele>
        <time>2016-10-30T10:10:18.000Z</time>
      </trkpt>
      <trkpt lat="47.43639" lon="6.92878">
        <ele>581</ele>
        <time>2016-10-30T10:10:19.000Z</time>
      </trkpt>
      <trkpt lat="47.43641" lon="6.92883">
        <ele>581</ele>
        <time>2016-10-30T10:10:20.000Z</time>
      </trkpt>
      <trkpt lat="47.43643" lon="6.92887">
        <ele>581</ele>
        <time>2016-10-30T10:10:21.000Z</time>
      </trkpt>
      <trkpt lat="47.43646" lon="6.92891">
        <ele>581</ele>
        <time>2016-10-30T10:10:22.000Z</time>
      </trkpt>
      <trkpt lat="47.43648" lon="6.92894">
        <ele>581</ele>
        <time>2016-10-30T10:10:23.000Z</time>
      </trkpt>
      <trkpt lat="47.4365" lon="6.92899">
        <ele>581</ele>
        <time>2016-10-30T10:10:24.000Z</time>
      </trkpt>
      <trkpt lat="47.43653" lon="6.92904">
        <ele>581</ele>
        <time>2016-10-30T10:10:25.000Z</time>
      </trkpt>
      <trkpt lat="47.43655" lon="6.92908">
        <ele>581</ele>
        <time>2016-10-30T10:10:26.000Z</time>
      </trkpt>
      <trkpt lat="47.43657" lon="6.92913">
        <ele>581</ele>
        <time>2016-10-30T10:10:27.000Z</time>
      </trkpt>
      <trkpt lat="47.43659" lon="6.92918">
        <ele>581</ele>
        <time>2016-10-30T10:10:28.000Z</time>
      </trkpt>
      <trkpt lat="47.43661" lon="6.92922">
        <ele>581</ele>
        <time>2016-10-30T10:10:29.000Z</time>
      </trkpt>
      <trkpt lat="47.43663" lon="6.92927">
        <ele>581</ele>
        <time>2016-10-30T10:10:30.000Z</time>
      </trkpt>
      <trkpt lat="47.43665" lon="6.92931">
        <ele>581</ele>
        <time>2016-10-30T10:10:31.000Z</time>
      </trkpt>
      <trkpt lat="47.43667" lon="6.92936">
        <ele>580</ele>
        <time>2016-10-30T10:10:32.000Z</time>
      </trkpt>
      <trkpt lat="47.43669" lon="6.9294">
        <ele>580</ele>
        <time>2016-10-30T10:10:33.000Z</time>
      </trkpt>
      <trkpt lat="47.43671" lon="6.92945">
        <ele>580</ele>
        <time>2016-10-30T10:10:34.000Z</time>
      </trkpt>
      <trkpt lat="47.43673" lon="6.9295">
        <ele>580</ele>
        <time>2016-10-30T10:10:35.000Z</time>
      </trkpt>
      <trkpt lat="47.43675" lon="6.92954">
        <ele>580</ele>
        <time>2016-10-30T10:10:36.000Z</time>
      </trkpt>
      <trkpt lat="47.43677" lon="6.92959">
        <ele>580</ele>
        <time>2016-10-30T10:10:37.000Z</time>
      </trkpt>
      <trkpt lat="47.43678" lon="6.92964">
        <ele>580</ele>
        <time>2016-10-30T10:10:38.000Z</time>
      </trkpt>
      <trkpt lat="47.4368" lon="6.92969">
        <ele>580</ele>
        <time>2016-10-30T10:10:39.000Z</time>
      </trkpt>
      <trkpt lat="47.43681" lon="6.92973">
        <ele>580</ele>
        <time>2016-10-30T10:10:40.000Z</time>
      </trkpt>
      <trkpt lat="47.43683" lon="6.92978">
        <ele>581</ele>
        <time>2016-10-30T10:10:41.000Z</time>
      </trkpt>
      <trkpt lat="47.43685" lon="6.92982">
        <ele>581</ele>
        <time>2016-10-30T10:10:42.000Z</time>
      </trkpt>
      <trkpt lat="47.43686" lon="6.92986">
        <ele>581</ele>
        <time>2016-10-30T10:10:43.000Z</time>
      </trkpt>
      <trkpt lat="47.43688" lon="6.92991">
        <ele>581</ele>
        <time>2016-10-30T10:10:44.000Z</time>
      </trkpt>
      <trkpt lat="47.43689" lon="6.92995">
        <ele>581</ele>
        <time>2016-10-30T10:10:45.000Z</time>
      </trkpt>
      <trkpt lat="47.43691" lon="6.92999">
        <ele>581</ele>
        <time>2016-10-30T10:10:46.000Z</time>
      </trkpt>
      <trkpt lat="47.43692" lon="6.93003">
        <ele>582</ele>
        <time>2016-10-30T10:10:47.000Z</time>
      </trkpt>
      <trkpt lat="47.43693" lon="6.93008">
        <ele>582</ele>
        <time>2016-10-30T10:10:48.000Z</time>
      </trkpt>
      <trkpt lat="47.43694" lon="6.93012">
        <ele>583</ele>
        <time>2016-10-30T10:10:49.000Z</time>
      </trkpt>
      <trkpt lat="47.43695" lon="6.93017">
        <ele>583</ele>
        <time>2016-10-30T10:10:50.000Z</time>
      </trkpt>
      <trkpt lat="47.43696" lon="6.93021">
        <ele>583</ele>
        <time>2016-10-30T10:10:51.000Z</time>
      </trkpt>
      <trkpt lat="47.43698" lon="6.93024">
        <ele>583</ele>
        <time>2016-10-30T10:10:52.000Z</time>
      </trkpt>
      <trkpt lat="47.43699" lon="6.93028">
        <ele>583</ele>
        <time>2016-10-30T10:10:53.000Z</time>
      </trkpt>
      <trkpt lat="47.437" lon="6.93032">
        <ele>583</ele>
        <time>2016-10-30T10:10:54.000Z</time>
      </trkpt>
      <trkpt lat="47.43701" lon="6.93036">
        <ele>583</ele>
        <time>2016-10-30T10:10:55.000Z</time>
      </trkpt>
      <trkpt lat="47.43702" lon="6.9304">
        <ele>583</ele>
        <time>2016-10-30T10:10:56.000Z</time>
      </trkpt>
      <trkpt lat="47.43703" lon="6.93044">
        <ele>583</ele>
        <time>2016-10-30T10:10:57.000Z</time>
      </trkpt>
      <trkpt lat="47.43704" lon="6.93048">
        <ele>583</ele>
        <time>2016-10-30T10:10:58.000Z</time>
      </trkpt>
      <trkpt lat="47.43705" lon="6.93052">
        <ele>583</ele>
        <time>2016-10-30T10:10:59.000Z</time>
      </trkpt>
      <trkpt lat="47.43706" lon="6.93057">
        <ele>583</ele>
        <time>2016-10-30T10:11:00.000Z</time>
      </trkpt>
      <trkpt lat="47.43707" lon="6.93061">
        <ele>583</ele>
        <time>2016-10-30T10:11:01.000Z</time>
      </trkpt>
      <trkpt lat="47.43708" lon="6.93065">
        <ele>583</ele>
        <time>2016-10-30T10:11:02.000Z</time>
      </trkpt>
      <trkpt lat="47.43709" lon="6.93069">
        <ele>583</ele>
        <time>2016-10-30T10:11:03.000Z</time>
      </trkpt>
      <trkpt lat="47.43709" lon="6.93073">
        <ele>583</ele>
        <time>2016-10-30T10:11:04.000Z</time>
      </trkpt>
      <trkpt lat="47.4371" lon="6.93077">
        <ele>584</ele>
        <time>2016-10-30T10:11:05.000Z</time>
      </trkpt>
      <trkpt lat="47.43711" lon="6.93081">
        <ele>584</ele>
        <time>2016-10-30T10:11:06.000Z</time>
      </trkpt>
      <trkpt lat="47.43712" lon="6.93085">
        <ele>586</ele>
        <time>2016-10-30T10:11:07.000Z</time>
      </trkpt>
      <trkpt lat="47.43713" lon="6.93089">
        <ele>586</ele>
        <time>2016-10-30T10:11:08.000Z</time>
      </trkpt>
      <trkpt lat="47.43713" lon="6.93093">
        <ele>586</ele>
        <time>2016-10-30T10:11:09.000Z</time>
      </trkpt>
      <trkpt lat="47.43714" lon="6.93097">
        <ele>586</ele>
        <time>2016-10-30T10:11:10.000Z</time>
      </trkpt>
      <trkpt lat="47.43714" lon="6.93101">
        <ele>586</ele>
        <time>2016-10-30T10:11:11.000Z</time>
      </trkpt>
      <trkpt lat="47.43715" lon="6.93104">
        <ele>586</ele>
        <time>2016-10-30T10:11:12.000Z</time>
      </trkpt>
      <trkpt lat="47.43716" lon="6.93108">
        <ele>586</ele>
        <time>2016-10-30T10:11:13.000Z</time>
      </trkpt>
      <trkpt lat="47.43716" lon="6.93111">
        <ele>586</ele>
        <time>2016-10-30T10:11:14.000Z</time>
      </trkpt>
      <trkpt lat="47.43717" lon="6.93115">
        <ele>586</ele>
        <time>2016-10-30T10:11:15.000Z</time>
      </trkpt>
      <trkpt lat="47.43717" lon="6.93119">
        <ele>587</ele>
        <time>2016-10-30T10:11:16.000Z</time>
      </trkpt>
      <trkpt lat="47.43718" lon="6.93123">
        <ele>587</ele>
        <time>2016-10-30T10:11:17.000Z</time>
      </trkpt>
      <trkpt lat="47.43719" lon="6.93127">
        <ele>587</ele>
        <time>2016-10-30T10:11:18.000Z</time>
      </trkpt>
      <trkpt lat="47.4372" lon="6.93131">
        <ele>587</ele>
        <time>2016-10-30T10:11:19.000Z</time>
      </trkpt>
      <trkpt lat="47.43721" lon="6.93136">
        <ele>587</ele>
        <time>2016-10-30T10:11:20.000Z</time>
      </trkpt>
      <trkpt lat="47.43723" lon="6.9314">
        <ele>587</ele>
        <time>2016-10-30T10:11:21.000Z</time>
      </trkpt>
      <trkpt lat="47.43724" lon="6.93144">
        <ele>587</ele>
        <time>2016-10-30T10:11:22.000Z</time>
      </trkpt>
      <trkpt lat="47.43725" lon="6.93148">
        <ele>587</ele>
        <time>2016-10-30T10:11:23.000Z</time>
      </trkpt>
      <trkpt lat="47.43726" lon="6.93152">
        <ele>587</ele>
        <time>2016-10-30T10:11:24.000Z</time>
      </trkpt>
      <trkpt lat="47.43727" lon="6.93156">
        <ele>587</ele>
        <time>2016-10-30T10:11:25.000Z</time>
      </trkpt>
      <trkpt lat="47.43728" lon="6.93161">
        <ele>587</ele>
        <time>2016-10-30T10:11:26.000Z</time>
      </trkpt>
      <trkpt lat="47.4373" lon="6.93165">
        <ele>587</ele>
        <time>2016-10-30T10:11:27.000Z</time>
      </trkpt>
      <trkpt lat="47.43731" lon="6.93169">
        <ele>589</ele>
        <time>2016-10-30T10:11:28.000Z</time>
      </trkpt>
      <trkpt lat="47.43732" lon="6.93174">
        <ele>589</ele>
        <time>2016-10-30T10:11:29.000Z</time>
      </trkpt>
      <trkpt lat="47.43733" lon="6.93178">
        <ele>589</ele>
        <time>2016-10-30T10:11:30.000Z</time>
      </trkpt>
      <trkpt lat="47.43734" lon="6.93182">
        <ele>589</ele>
        <time>2016-10-30T10:11:31.000Z</time>
      </trkpt>
      <trkpt lat="47.43735" lon="6.93186">
        <ele>589</ele>
        <time>2016-10-30T10:11:32.000Z</time>
      </trkpt>
      <trkpt lat="47.43736" lon="6.93191">
        <ele>589</ele>
        <time>2016-10-30T10:11:33.000Z</time>
      </trkpt>
      <trkpt lat="47.43737" lon="6.93195">
        <ele>590</ele>
        <time>2016-10-30T10:11:34.000Z</time>
      </trkpt>
      <trkpt lat="47.43738" lon="6.932">
        <ele>590</ele>
        <time>2016-10-30T10:11:35.000Z</time>
      </trkpt>
      <trkpt lat="47.43739" lon="6.93204">
        <ele>590</ele>
        <time>2016-10-30T10:11:36.000Z</time>
      </trkpt>
      <trkpt lat="47.43741" lon="6.93208">
        <ele>590</ele>
        <time>2016-10-30T10:11:37.000Z</time>
      </trkpt>
      <trkpt lat="47.43742" lon="6.93213">
        <ele>590</ele>
        <time>2016-10-30T10:11:38.000Z</time>
      </trkpt>
      <trkpt lat="47.43743" lon="6.93217">
        <ele>590</ele>
        <time>2016-10-30T10:11:39.000Z</time>
      </trkpt>
      <trkpt lat="47.43744" lon="6.93222">
        <ele>590</ele>
        <time>2016-10-30T10:11:40.000Z</time>
      </trkpt>
      <trkpt lat="47.43745" lon="6.93226">
        <ele>591</ele>
        <time>2016-10-30T10:11:41.000Z</time>
      </trkpt>
      <trkpt lat="47.43746" lon="6.9323">
        <ele>591</ele>
        <time>2016-10-30T10:11:42.000Z</time>
      </trkpt>
      <trkpt lat="47.43747" lon="6.93235">
        <ele>591</ele>
        <time>2016-10-30T10:11:43.000Z</time>
      </trkpt>
      <trkpt lat="47.43749" lon="6.93239">
        <ele>591</ele>
        <time>2016-10-30T10:11:44.000Z</time>
      </trkpt>
      <trkpt lat="47.4375" lon="6.93243">
        <ele>592</ele>
        <time>2016-10-30T10:11:45.000Z</time>
      </trkpt>
      <trkpt lat="47.43751" lon="6.93248">
        <ele>592</ele>
        <time>2016-10-30T10:11:46.000Z</time>
      </trkpt>
      <trkpt lat="47.43752" lon="6.93252">
        <ele>592</ele>
        <time>2016-10-30T10:11:47.000Z</time>
      </trkpt>
      <trkpt lat="47.43753" lon="6.93256">
        <ele>593</ele>
        <time>2016-10-30T10:11:48.000Z</time>
      </trkpt>
      <trkpt lat="47.43754" lon="6.9326">
        <ele>593</ele>
        <time>2016-10-30T10:11:49.000Z</time>
      </trkpt>
      <trkpt lat="47.43755" lon="6.93264">
        <ele>593</ele>
        <time>2016-10-30T10:11:50.000Z</time>
      </trkpt>
      <trkpt lat="47.43756" lon="6.93268">
        <ele>593</ele>
        <time>2016-10-30T10:11:51.000Z</time>
      </trkpt>
      <trkpt lat="47.43757" lon="6.93271">
        <ele>593</ele>
        <time>2016-10-30T10:11:52.000Z</time>
      </trkpt>
      <trkpt lat="47.43758" lon="6.93275">
        <ele>593</ele>
        <time>2016-10-30T10:11:53.000Z</time>
      </trkpt>
      <trkpt lat="47.43759" lon="6.93278">
        <ele>594</ele>
        <time>2016-10-30T10:11:54.000Z</time>
      </trkpt>
      <trkpt lat="47.4376" lon="6.93282">
        <ele>594</ele>
        <time>2016-10-30T10:11:55.000Z</time>
      </trkpt>
      <trkpt lat="47.4376" lon="6.93286">
        <ele>594</ele>
        <time>2016-10-30T10:11:56.000Z</time>
      </trkpt>
      <trkpt lat="47.43761" lon="6.9329">
        <ele>594</ele>
        <time>2016-10-30T10:11:57.000Z</time>
      </trkpt>
      <trkpt lat="47.43762" lon="6.93294">
        <ele>594</ele>
        <time>2016-10-30T10:11:58.000Z</time>
      </trkpt>
      <trkpt lat="47.43763" lon="6.93298">
        <ele>594</ele>
        <time>2016-10-30T10:11:59.000Z</time>
      </trkpt>
      <trkpt lat="47.43764" lon="6.93302">
        <ele>594</ele>
        <time>2016-10-30T10:12:00.001Z</time>
      </trkpt>
      <trkpt lat="47.43765" lon="6.93305">
        <ele>594</ele>
        <time>2016-10-30T10:12:01.000Z</time>
      </trkpt>
      <trkpt lat="47.43765" lon="6.93309">
        <ele>594</ele>
        <time>2016-10-30T10:12:02.000Z</time>
      </trkpt>
      <trkpt lat="47.43766" lon="6.93313">
        <ele>594</ele>
        <time>2016-10-30T10:12:03.000Z</time>
      </trkpt>
      <trkpt lat="47.43767" lon="6.93317">
        <ele>595</ele>
        <time>2016-10-30T10:12:04.000Z</time>
      </trkpt>
      <trkpt lat="47.43768" lon="6.9332">
        <ele>595</ele>
        <time>2016-10-30T10:12:05.000Z</time>
      </trkpt>
      <trkpt lat="47.43769" lon="6.93323">
        <ele>595</ele>
        <time>2016-10-30T10:12:06.000Z</time>
      </trkpt>
      <trkpt lat="47.43769" lon="6.93327">
        <ele>595</ele>
        <time>2016-10-30T10:12:07.000Z</time>
      </trkpt>
      <trkpt lat="47.43771" lon="6.93333">
        <ele>595</ele>
        <time>2016-10-30T10:12:09.000Z</time>
      </trkpt>
      <trkpt lat="47.43772" lon="6.93336">
        <ele>596</ele>
        <time>2016-10-30T10:12:10.000Z</time>
      </trkpt>
      <trkpt lat="47.43773" lon="6.93342">
        <ele>596</ele>
        <time>2016-10-30T10:12:12.000Z</time>
      </trkpt>
      <trkpt lat="47.43774" lon="6.93345">
        <ele>596</ele>
        <time>2016-10-30T10:12:13.000Z</time>
      </trkpt>
      <trkpt lat="47.43775" lon="6.93348">
        <ele>596</ele>
        <time>2016-10-30T10:12:14.000Z</time>
      </trkpt>
      <trkpt lat="47.43776" lon="6.93351">
        <ele>597</ele>
        <time>2016-10-30T10:12:15.000Z</time>
      </trkpt>
      <trkpt lat="47.43777" lon="6.93355">
        <ele>597</ele>
        <time>2016-10-30T10:12:16.000Z</time>
      </trkpt>
      <trkpt lat="47.43777" lon="6.93358">
        <ele>597</ele>
        <time>2016-10-30T10:12:17.000Z</time>
      </trkpt>
      <trkpt lat="47.43778" lon="6.93362">
        <ele>597</ele>
        <time>2016-10-30T10:12:18.000Z</time>
      </trkpt>
      <trkpt lat="47.43779" lon="6.93366">
        <ele>597</ele>
        <time>2016-10-30T10:12:19.000Z</time>
      </trkpt>
      <trkpt lat="47.43779" lon="6.9337">
        <ele>597</ele>
        <time>2016-10-30T10:12:20.000Z</time>
      </trkpt>
      <trkpt lat="47.4378" lon="6.93373">
        <ele>597</ele>
        <time>2016-10-30T10:12:21.000Z</time>
      </trkpt>
      <trkpt lat="47.43781" lon="6.93377">
        <ele>597</ele>
        <time>2016-10-30T10:12:22.000Z</time>
      </trkpt>
      <trkpt lat="47.43782" lon="6.9338">
        <ele>597</ele>
        <time>2016-10-30T10:12:23.000Z</time>
      </trkpt>
      <trkpt lat="47.43783" lon="6.93383">
        <ele>597</ele>
        <time>2016-10-30T10:12:24.000Z</time>
      </trkpt>
      <trkpt lat="47.43784" lon="6.93387">
        <ele>597</ele>
        <time>2016-10-30T10:12:25.000Z</time>
      </trkpt>
      <trkpt lat="47.43785" lon="6.9339">
        <ele>597</ele>
        <time>2016-10-30T10:12:26.000Z</time>
      </trkpt>
      <trkpt lat="47.43786" lon="6.93394">
        <ele>598</ele>
        <time>2016-10-30T10:12:27.000Z</time>
      </trkpt>
      <trkpt lat="47.43787" lon="6.93397">
        <ele>598</ele>
        <time>2016-10-30T10:12:28.000Z</time>
      </trkpt>
      <trkpt lat="47.43788" lon="6.93401">
        <ele>598</ele>
        <time>2016-10-30T10:12:29.000Z</time>
      </trkpt>
      <trkpt lat="47.43789" lon="6.93404">
        <ele>598</ele>
        <time>2016-10-30T10:12:30.000Z</time>
      </trkpt>
      <trkpt lat="47.4379" lon="6.93408">
        <ele>598</ele>
        <time>2016-10-30T10:12:31.000Z</time>
      </trkpt>
      <trkpt lat="47.43791" lon="6.93412">
        <ele>598</ele>
        <time>2016-10-30T10:12:32.000Z</time>
      </trkpt>
      <trkpt lat="47.43792" lon="6.93415">
        <ele>598</ele>
        <time>2016-10-30T10:12:33.000Z</time>
      </trkpt>
      <trkpt lat="47.43793" lon="6.93418">
        <ele>600</ele>
        <time>2016-10-30T10:12:34.000Z</time>
      </trkpt>
      <trkpt lat="47.43794" lon="6.93422">
        <ele>600</ele>
        <time>2016-10-30T10:12:35.000Z</time>
      </trkpt>
      <trkpt lat="47.43795" lon="6.93425">
        <ele>600</ele>
        <time>2016-10-30T10:12:36.000Z</time>
      </trkpt>
      <trkpt lat="47.43796" lon="6.93428">
        <ele>600</ele>
        <time>2016-10-30T10:12:37.000Z</time>
      </trkpt>
      <trkpt lat="47.43797" lon="6.93431">
        <ele>600</ele>
        <time>2016-10-30T10:12:38.000Z</time>
      </trkpt>
      <trkpt lat="47.43798" lon="6.93435">
        <ele>600</ele>
        <time>2016-10-30T10:12:39.000Z</time>
      </trkpt>
      <trkpt lat="47.43799" lon="6.93439">
        <ele>600</ele>
        <time>2016-10-30T10:12:40.000Z</time>
      </trkpt>
      <trkpt lat="47.438" lon="6.93442">
        <ele>600</ele>
        <time>2016-10-30T10:12:41.000Z</time>
      </trkpt>
      <trkpt lat="47.43801" lon="6.93445">
        <ele>600</ele>
        <time>2016-10-30T10:12:42.000Z</time>
      </trkpt>
      <trkpt lat="47.43802" lon="6.93448">
        <ele>600</ele>
        <time>2016-10-30T10:12:43.001Z</time>
      </trkpt>
      <trkpt lat="47.43804" lon="6.93451">
        <ele>600</ele>
        <time>2016-10-30T10:12:44.000Z</time>
      </trkpt>
      <trkpt lat="47.43805" lon="6.93454">
        <ele>600</ele>
        <time>2016-10-30T10:12:45.000Z</time>
      </trkpt>
      <trkpt lat="47.43807" lon="6.93459">
        <ele>600</ele>
        <time>2016-10-30T10:12:47.000Z</time>
      </trkpt>
      <trkpt lat="47.43808" lon="6.93462">
        <ele>600</ele>
        <time>2016-10-30T10:12:48.000Z</time>
      </trkpt>
      <trkpt lat="47.43811" lon="6.93467">
        <ele>600</ele>
        <time>2016-10-30T10:12:50.000Z</time>
      </trkpt>
      <trkpt lat="47.43813" lon="6.93469">
        <ele>601</ele>
        <time>2016-10-30T10:12:51.000Z</time>
      </trkpt>
      <trkpt lat="47.43816" lon="6.93472">
        <ele>601</ele>
        <time>2016-10-30T10:12:53.000Z</time>
      </trkpt>
      <trkpt lat="47.43818" lon="6.93473">
        <ele>601</ele>
        <time>2016-10-30T10:12:54.000Z</time>
      </trkpt>
      <trkpt lat="47.4382" lon="6.93477">
        <ele>601</ele>
        <time>2016-10-30T10:12:56.000Z</time>
      </trkpt>
      <trkpt lat="47.43821" lon="6.93479">
        <ele>601</ele>
        <time>2016-10-30T10:12:57.000Z</time>
      </trkpt>
      <trkpt lat="47.43825" lon="6.93481">
        <ele>601</ele>
        <time>2016-10-30T10:12:59.000Z</time>
      </trkpt>
      <trkpt lat="47.43826" lon="6.93482">
        <ele>601</ele>
        <time>2016-10-30T10:13:00.000Z</time>
      </trkpt>
      <trkpt lat="47.4383" lon="6.93484">
        <ele>602</ele>
        <time>2016-10-30T10:13:02.000Z</time>
      </trkpt>
      <trkpt lat="47.43831" lon="6.93484">
        <ele>602</ele>
        <time>2016-10-30T10:13:03.000Z</time>
      </trkpt>
      <trkpt lat="47.43835" lon="6.93483">
        <ele>602</ele>
        <time>2016-10-30T10:13:06.000Z</time>
      </trkpt>
      <trkpt lat="47.43837" lon="6.93483">
        <ele>602</ele>
        <time>2016-10-30T10:13:07.000Z</time>
      </trkpt>
      <trkpt lat="47.4384" lon="6.93482">
        <ele>602</ele>
        <time>2016-10-30T10:13:31.000Z</time>
      </trkpt>
      <trkpt lat="47.43841" lon="6.93481">
        <ele>602</ele>
        <time>2016-10-30T10:13:32.000Z</time>
      </trkpt>
      <trkpt lat="47.43845" lon="6.93477">
        <ele>602</ele>
        <time>2016-10-30T10:13:34.000Z</time>
      </trkpt>
      <trkpt lat="47.43848" lon="6.93476">
        <ele>601</ele>
        <time>2016-10-30T10:13:35.000Z</time>
      </trkpt>
      <trkpt lat="47.43851" lon="6.93473">
        <ele>601</ele>
        <time>2016-10-30T10:13:36.000Z</time>
      </trkpt>
      <trkpt lat="47.43854" lon="6.93471">
        <ele>601</ele>
        <time>2016-10-30T10:13:37.000Z</time>
      </trkpt>
      <trkpt lat="47.43858" lon="6.93468">
        <ele>601</ele>
        <time>2016-10-30T10:13:38.000Z</time>
      </trkpt>
      <trkpt lat="47.43861" lon="6.93465">
        <ele>601</ele>
        <time>2016-10-30T10:13:39.000Z</time>
      </trkpt>
      <trkpt lat="47.43865" lon="6.93462">
        <ele>601</ele>
        <time>2016-10-30T10:13:40.000Z</time>
      </trkpt>
      <trkpt lat="47.43871" lon="6.93458">
        <ele>601</ele>
        <time>2016-10-30T10:13:41.000Z</time>
      </trkpt>
      <trkpt lat="47.43874" lon="6.93454">
        <ele>601</ele>
        <time>2016-10-30T10:13:42.000Z</time>
      </trkpt>
      <trkpt lat="47.43879" lon="6.93451">
        <ele>601</ele>
        <time>2016-10-30T10:13:43.000Z</time>
      </trkpt>
      <trkpt lat="47.43883" lon="6.93447">
        <ele>600</ele>
        <time>2016-10-30T10:13:44.000Z</time>
      </trkpt>
      <trkpt lat="47.43888" lon="6.93443">
        <ele>600</ele>
        <time>2016-10-30T10:13:45.000Z</time>
      </trkpt>
      <trkpt lat="47.43892" lon="6.93438">
        <ele>600</ele>
        <time>2016-10-30T10:13:46.000Z</time>
      </trkpt>
      <trkpt lat="47.43896" lon="6.93433">
        <ele>600</ele>
        <time>2016-10-30T10:13:47.000Z</time>
      </trkpt>
      <trkpt lat="47.43901" lon="6.93428">
        <ele>600</ele>
        <time>2016-10-30T10:13:48.000Z</time>
      </trkpt>
      <trkpt lat="47.43905" lon="6.93423">
        <ele>599</ele>
        <time>2016-10-30T10:13:49.000Z</time>
      </trkpt>
      <trkpt lat="47.4391" lon="6.93418">
        <ele>599</ele>
        <time>2016-10-30T10:13:50.000Z</time>
      </trkpt>
      <trkpt lat="47.43915" lon="6.93414">
        <ele>598</ele>
        <time>2016-10-30T10:13:51.000Z</time>
      </trkpt>
      <trkpt lat="47.43919" lon="6.93409">
        <ele>598</ele>
        <time>2016-10-30T10:13:52.000Z</time>
      </trkpt>
      <trkpt lat="47.43925" lon="6.93405">
        <ele>597</ele>
        <time>2016-10-30T10:13:53.000Z</time>
      </trkpt>
      <trkpt lat="47.4393" lon="6.93401">
        <ele>597</ele>
        <time>2016-10-30T10:13:54.000Z</time>
      </trkpt>
      <trkpt lat="47.43935" lon="6.93396">
        <ele>597</ele>
        <time>2016-10-30T10:13:55.000Z</time>
      </trkpt>
      <trkpt lat="47.4394" lon="6.93391">
        <ele>597</ele>
        <time>2016-10-30T10:13:56.000Z</time>
      </trkpt>
      <trkpt lat="47.43945" lon="6.93387">
        <ele>597</ele>
        <time>2016-10-30T10:13:57.000Z</time>
      </trkpt>
      <trkpt lat="47.4395" lon="6.93383">
        <ele>597</ele>
        <time>2016-10-30T10:13:58.000Z</time>
      </trkpt>
      <trkpt lat="47.43956" lon="6.9338">
        <ele>597</ele>
        <time>2016-10-30T10:13:59.000Z</time>
      </trkpt>
      <trkpt lat="47.43961" lon="6.93376">
        <ele>597</ele>
        <time>2016-10-30T10:14:00.000Z</time>
      </trkpt>
      <trkpt lat="47.43965" lon="6.93372">
        <ele>596</ele>
        <time>2016-10-30T10:14:01.000Z</time>
      </trkpt>
      <trkpt lat="47.4397" lon="6.9337">
        <ele>596</ele>
        <time>2016-10-30T10:14:02.000Z</time>
      </trkpt>
      <trkpt lat="47.43974" lon="6.93366">
        <ele>596</ele>
        <time>2016-10-30T10:14:03.000Z</time>
      </trkpt>
      <trkpt lat="47.4398" lon="6.93364">
        <ele>596</ele>
        <time>2016-10-30T10:14:04.000Z</time>
      </trkpt>
      <trkpt lat="47.43985" lon="6.93362">
        <ele>596</ele>
        <time>2016-10-30T10:14:05.000Z</time>
      </trkpt>
      <trkpt lat="47.4399" lon="6.93359">
        <ele>596</ele>
        <time>2016-10-30T10:14:06.000Z</time>
      </trkpt>
      <trkpt lat="47.43995" lon="6.93356">
        <ele>596</ele>
        <time>2016-10-30T10:14:07.000Z</time>
      </trkpt>
      <trkpt lat="47.44" lon="6.93353">
        <ele>596</ele>
        <time>2016-10-30T10:14:08.000Z</time>
      </trkpt>
      <trkpt lat="47.44005" lon="6.93351">
        <ele>595</ele>
        <time>2016-10-30T10:14:09.000Z</time>
      </trkpt>
      <trkpt lat="47.4401" lon="6.93349">
        <ele>595</ele>
        <time>2016-10-30T10:14:10.000Z</time>
      </trkpt>
      <trkpt lat="47.44014" lon="6.93347">
        <ele>595</ele>
        <time>2016-10-30T10:14:11.000Z</time>
      </trkpt>
      <trkpt lat="47.44018" lon="6.93345">
        <ele>595</ele>
        <time>2016-10-30T10:14:12.000Z</time>
      </trkpt>
      <trkpt lat="47.44023" lon="6.93343">
        <ele>595</ele>
        <time>2016-10-30T10:14:13.000Z</time>
      </trkpt>
      <trkpt lat="47.44027" lon="6.9334">
        <ele>595</ele>
        <time>2016-10-30T10:14:14.000Z</time>
      </trkpt>
      <trkpt lat="47.44031" lon="6.93338">
        <ele>595</ele>
        <time>2016-10-30T10:14:15.000Z</time>
      </trkpt>
      <trkpt lat="47.44036" lon="6.93336">
        <ele>595</ele>
        <time>2016-10-30T10:14:16.000Z</time>
      </trkpt>
      <trkpt lat="47.4404" lon="6.93333">
        <ele>593</ele>
        <time>2016-10-30T10:14:17.000Z</time>
      </trkpt>
      <trkpt lat="47.44044" lon="6.93331">
        <ele>593</ele>
        <time>2016-10-30T10:14:18.000Z</time>
      </trkpt>
      <trkpt lat="47.44048" lon="6.93329">
        <ele>593</ele>
        <time>2016-10-30T10:14:19.000Z</time>
      </trkpt>
      <trkpt lat="47.44052" lon="6.93326">
        <ele>593</ele>
        <time>2016-10-30T10:14:20.000Z</time>
      </trkpt>
      <trkpt lat="47.44056" lon="6.93324">
        <ele>593</ele>
        <time>2016-10-30T10:14:21.000Z</time>
      </trkpt>
      <trkpt lat="47.44059" lon="6.93321">
        <ele>593</ele>
        <time>2016-10-30T10:14:22.000Z</time>
      </trkpt>
      <trkpt lat="47.44063" lon="6.93319">
        <ele>593</ele>
        <time>2016-10-30T10:14:23.000Z</time>
      </trkpt>
      <trkpt lat="47.44068" lon="6.9332">
        <ele>593</ele>
        <time>2016-10-30T10:14:24.000Z</time>
      </trkpt>
      <trkpt lat="47.44071" lon="6.93321">
        <ele>593</ele>
        <time>2016-10-30T10:14:25.000Z</time>
      </trkpt>
      <trkpt lat="47.44073" lon="6.93322">
        <ele>593</ele>
        <time>2016-10-30T10:14:26.000Z</time>
      </trkpt>
      <trkpt lat="47.44075" lon="6.93324">
        <ele>593</ele>
        <time>2016-10-30T10:14:27.000Z</time>
      </trkpt>
      <trkpt lat="47.44077" lon="6.93329">
        <ele>593</ele>
        <time>2016-10-30T10:14:29.000Z</time>
      </trkpt>
      <trkpt lat="47.44079" lon="6.93331">
        <ele>594</ele>
        <time>2016-10-30T10:14:30.000Z</time>
      </trkpt>
      <trkpt lat="47.4408" lon="6.93333">
        <ele>594</ele>
        <time>2016-10-30T10:14:31.000Z</time>
      </trkpt>
      <trkpt lat="47.44082" lon="6.93336">
        <ele>594</ele>
        <time>2016-10-30T10:14:32.000Z</time>
      </trkpt>
      <trkpt lat="47.44084" lon="6.93338">
        <ele>594</ele>
        <time>2016-10-30T10:14:33.000Z</time>
      </trkpt>
      <trkpt lat="47.44086" lon="6.93341">
        <ele>594</ele>
        <time>2016-10-30T10:14:34.000Z</time>
      </trkpt>
      <trkpt lat="47.44087" lon="6.93344">
        <ele>594</ele>
        <time>2016-10-30T10:14:35.000Z</time>
      </trkpt>
      <trkpt lat="47.44089" lon="6.93346">
        <ele>594</ele>
        <time>2016-10-30T10:14:36.000Z</time>
      </trkpt>
      <trkpt lat="47.44091" lon="6.93349">
        <ele>594</ele>
        <time>2016-10-30T10:14:37.000Z</time>
      </trkpt>
      <trkpt lat="47.44093" lon="6.93351">
        <ele>594</ele>
        <time>2016-10-30T10:14:38.000Z</time>
      </trkpt>
      <trkpt lat="47.44096" lon="6.93353">
        <ele>594</ele>
        <time>2016-10-30T10:14:39.000Z</time>
      </trkpt>
      <trkpt lat="47.44099" lon="6.93355">
        <ele>594</ele>
        <time>2016-10-30T10:14:40.000Z</time>
      </trkpt>
      <trkpt lat="47.44102" lon="6.93358">
        <ele>594</ele>
        <time>2016-10-30T10:14:41.000Z</time>
      </trkpt>
      <trkpt lat="47.44105" lon="6.9336">
        <ele>594</ele>
        <time>2016-10-30T10:14:42.000Z</time>
      </trkpt>
      <trkpt lat="47.44108" lon="6.93363">
        <ele>594</ele>
        <time>2016-10-30T10:14:43.000Z</time>
      </trkpt>
      <trkpt lat="47.44112" lon="6.93365">
        <ele>594</ele>
        <time>2016-10-30T10:14:44.000Z</time>
      </trkpt>
      <trkpt lat="47.44115" lon="6.93367">
        <ele>594</ele>
        <time>2016-10-30T10:14:45.000Z</time>
      </trkpt>
      <trkpt lat="47.44118" lon="6.9337">
        <ele>594</ele>
        <time>2016-10-30T10:14:46.000Z</time>
      </trkpt>
      <trkpt lat="47.44122" lon="6.93372">
        <ele>594</ele>
        <time>2016-10-30T10:14:47.000Z</time>
      </trkpt>
      <trkpt lat="47.44125" lon="6.93374">
        <ele>593</ele>
        <time>2016-10-30T10:14:48.000Z</time>
      </trkpt>
      <trkpt lat="47.44128" lon="6.93376">
        <ele>593</ele>
        <time>2016-10-30T10:14:49.000Z</time>
      </trkpt>
      <trkpt lat="47.44131" lon="6.93378">
        <ele>593</ele>
        <time>2016-10-30T10:14:50.000Z</time>
      </trkpt>
      <trkpt lat="47.44134" lon="6.9338">
        <ele>593</ele>
        <time>2016-10-30T10:14:51.000Z</time>
      </trkpt>
      <trkpt lat="47.44137" lon="6.93382">
        <ele>593</ele>
        <time>2016-10-30T10:14:52.000Z</time>
      </trkpt>
      <trkpt lat="47.44139" lon="6.93385">
        <ele>593</ele>
        <time>2016-10-30T10:14:52.999Z</time>
      </trkpt>
      <trkpt lat="47.44143" lon="6.93387">
        <ele>593</ele>
        <time>2016-10-30T10:14:54.000Z</time>
      </trkpt>
      <trkpt lat="47.44146" lon="6.93388">
        <ele>593</ele>
        <time>2016-10-30T10:14:55.000Z</time>
      </trkpt>
      <trkpt lat="47.44149" lon="6.9339">
        <ele>593</ele>
        <time>2016-10-30T10:14:56.000Z</time>
      </trkpt>
      <trkpt lat="47.44153" lon="6.93392">
        <ele>593</ele>
        <time>2016-10-30T10:14:57.000Z</time>
      </trkpt>
      <trkpt lat="47.44157" lon="6.93393">
        <ele>593</ele>
        <time>2016-10-30T10:14:58.000Z</time>
      </trkpt>
      <trkpt lat="47.44162" lon="6.93394">
        <ele>594</ele>
        <time>2016-10-30T10:14:59.000Z</time>
      </trkpt>
      <trkpt lat="47.44166" lon="6.93396">
        <ele>594</ele>
        <time>2016-10-30T10:15:00.000Z</time>
      </trkpt>
      <trkpt lat="47.44169" lon="6.93398">
        <ele>593</ele>
        <time>2016-10-30T10:15:01.000Z</time>
      </trkpt>
      <trkpt lat="47.44172" lon="6.93401">
        <ele>593</ele>
        <time>2016-10-30T10:15:02.000Z</time>
      </trkpt>
      <trkpt lat="47.44176" lon="6.93404">
        <ele>594</ele>
        <time>2016-10-30T10:15:03.001Z</time>
      </trkpt>
      <trkpt lat="47.4418" lon="6.93409">
        <ele>594</ele>
        <time>2016-10-30T10:15:04.001Z</time>
      </trkpt>
      <trkpt lat="47.44184" lon="6.93413">
        <ele>594</ele>
        <time>2016-10-30T10:15:05.000Z</time>
      </trkpt>
      <trkpt lat="47.44188" lon="6.93417">
        <ele>595</ele>
        <time>2016-10-30T10:15:06.000Z</time>
      </trkpt>
      <trkpt lat="47.44191" lon="6.93422">
        <ele>595</ele>
        <time>2016-10-30T10:15:07.000Z</time>
      </trkpt>
      <trkpt lat="47.44196" lon="6.93426">
        <ele>595</ele>
        <time>2016-10-30T10:15:08.000Z</time>
      </trkpt>
      <trkpt lat="47.44199" lon="6.93429">
        <ele>595</ele>
        <time>2016-10-30T10:15:09.000Z</time>
      </trkpt>
      <trkpt lat="47.44204" lon="6.93431">
        <ele>595</ele>
        <time>2016-10-30T10:15:10.000Z</time>
      </trkpt>
      <trkpt lat="47.44207" lon="6.93434">
        <ele>596</ele>
        <time>2016-10-30T10:15:11.000Z</time>
      </trkpt>
      <trkpt lat="47.44211" lon="6.93438">
        <ele>596</ele>
        <time>2016-10-30T10:15:12.000Z</time>
      </trkpt>
      <trkpt lat="47.44215" lon="6.93441">
        <ele>596</ele>
        <time>2016-10-30T10:15:13.000Z</time>
      </trkpt>
      <trkpt lat="47.44218" lon="6.93443">
        <ele>596</ele>
        <time>2016-10-30T10:15:14.000Z</time>
      </trkpt>
      <trkpt lat="47.44222" lon="6.93445">
        <ele>596</ele>
        <time>2016-10-30T10:15:15.000Z</time>
      </trkpt>
      <trkpt lat="47.44225" lon="6.93448">
        <ele>596</ele>
        <time>2016-10-30T10:15:16.000Z</time>
      </trkpt>
      <trkpt lat="47.44228" lon="6.93451">
        <ele>596</ele>
        <time>2016-10-30T10:15:17.000Z</time>
      </trkpt>
      <trkpt lat="47.44231" lon="6.93454">
        <ele>596</ele>
        <time>2016-10-30T10:15:18.000Z</time>
      </trkpt>
      <trkpt lat="47.44234" lon="6.93456">
        <ele>596</ele>
        <time>2016-10-30T10:15:19.000Z</time>
      </trkpt>
      <trkpt lat="47.44237" lon="6.93458">
        <ele>596</ele>
        <time>2016-10-30T10:15:20.000Z</time>
      </trkpt>
      <trkpt lat="47.44241" lon="6.9346">
        <ele>596</ele>
        <time>2016-10-30T10:15:21.000Z</time>
      </trkpt>
      <trkpt lat="47.44244" lon="6.93462">
        <ele>596</ele>
        <time>2016-10-30T10:15:22.000Z</time>
      </trkpt>
      <trkpt lat="47.44247" lon="6.93465">
        <ele>596</ele>
        <time>2016-10-30T10:15:23.000Z</time>
      </trkpt>
      <trkpt lat="47.4425" lon="6.93468">
        <ele>597</ele>
        <time>2016-10-30T10:15:24.000Z</time>
      </trkpt>
      <trkpt lat="47.44253" lon="6.93471">
        <ele>597</ele>
        <time>2016-10-30T10:15:25.000Z</time>
      </trkpt>
      <trkpt lat="47.44256" lon="6.93473">
        <ele>597</ele>
        <time>2016-10-30T10:15:26.000Z</time>
      </trkpt>
      <trkpt lat="47.44259" lon="6.93476">
        <ele>597</ele>
        <time>2016-10-30T10:15:27.000Z</time>
      </trkpt>
      <trkpt lat="47.44261" lon="6.93478">
        <ele>597</ele>
        <time>2016-10-30T10:15:28.000Z</time>
      </trkpt>
      <trkpt lat="47.44264" lon="6.93481">
        <ele>597</ele>
        <time>2016-10-30T10:15:29.000Z</time>
      </trkpt>
      <trkpt lat="47.44267" lon="6.93484">
        <ele>597</ele>
        <time>2016-10-30T10:15:30.000Z</time>
      </trkpt>
      <trkpt lat="47.4427" lon="6.93486">
        <ele>597</ele>
        <time>2016-10-30T10:15:31.000Z</time>
      </trkpt>
      <trkpt lat="47.44274" lon="6.93489">
        <ele>597</ele>
        <time>2016-10-30T10:15:32.000Z</time>
      </trkpt>
      <trkpt lat="47.44277" lon="6.93491">
        <ele>597</ele>
        <time>2016-10-30T10:15:33.000Z</time>
      </trkpt>
      <trkpt lat="47.4428" lon="6.93493">
        <ele>597</ele>
        <time>2016-10-30T10:15:34.000Z</time>
      </trkpt>
      <trkpt lat="47.44283" lon="6.93495">
        <ele>597</ele>
        <time>2016-10-30T10:15:35.000Z</time>
      </trkpt>
      <trkpt lat="47.44286" lon="6.93497">
        <ele>597</ele>
        <time>2016-10-30T10:15:36.000Z</time>
      </trkpt>
      <trkpt lat="47.44289" lon="6.935">
        <ele>597</ele>
        <time>2016-10-30T10:15:37.000Z</time>
      </trkpt>
      <trkpt lat="47.44292" lon="6.93502">
        <ele>598</ele>
        <time>2016-10-30T10:15:38.000Z</time>
      </trkpt>
      <trkpt lat="47.44295" lon="6.93504">
        <ele>598</ele>
        <time>2016-10-30T10:15:39.000Z</time>
      </trkpt>
      <trkpt lat="47.44298" lon="6.93506">
        <ele>598</ele>
        <time>2016-10-30T10:15:40.000Z</time>
      </trkpt>
      <trkpt lat="47.44301" lon="6.93508">
        <ele>598</ele>
        <time>2016-10-30T10:15:41.000Z</time>
      </trkpt>
      <trkpt lat="47.44304" lon="6.9351">
        <ele>598</ele>
        <time>2016-10-30T10:15:42.000Z</time>
      </trkpt>
      <trkpt lat="47.44307" lon="6.93513">
        <ele>598</ele>
        <time>2016-10-30T10:15:43.000Z</time>
      </trkpt>
      <trkpt lat="47.4431" lon="6.93515">
        <ele>598</ele>
        <time>2016-10-30T10:15:44.000Z</time>
      </trkpt>
      <trkpt lat="47.44312" lon="6.93517">
        <ele>599</ele>
        <time>2016-10-30T10:15:45.000Z</time>
      </trkpt>
      <trkpt lat="47.44315" lon="6.93519">
        <ele>599</ele>
        <time>2016-10-30T10:15:45.999Z</time>
      </trkpt>
      <trkpt lat="47.44317" lon="6.9352">
        <ele>599</ele>
        <time>2016-10-30T10:15:47.000Z</time>
      </trkpt>
      <trkpt lat="47.44319" lon="6.93522">
        <ele>599</ele>
        <time>2016-10-30T10:15:48.000Z</time>
      </trkpt>
      <trkpt lat="47.44323" lon="6.93524">
        <ele>599</ele>
        <time>2016-10-30T10:15:50.000Z</time>
      </trkpt>
      <trkpt lat="47.44324" lon="6.93525">
        <ele>599</ele>
        <time>2016-10-30T10:15:51.000Z</time>
      </trkpt>
      <trkpt lat="47.44328" lon="6.93528">
        <ele>599</ele>
        <time>2016-10-30T10:15:53.000Z</time>
      </trkpt>
      <trkpt lat="47.4433" lon="6.9353">
        <ele>599</ele>
        <time>2016-10-30T10:15:54.000Z</time>
      </trkpt>
      <trkpt lat="47.44332" lon="6.93531">
        <ele>599</ele>
        <time>2016-10-30T10:15:55.000Z</time>
      </trkpt>
      <trkpt lat="47.44335" lon="6.93533">
        <ele>600</ele>
        <time>2016-10-30T10:15:56.000Z</time>
      </trkpt>
      <trkpt lat="47.44336" lon="6.93535">
        <ele>600</ele>
        <time>2016-10-30T10:15:57.000Z</time>
      </trkpt>
      <trkpt lat="47.44338" lon="6.93537">
        <ele>600</ele>
        <time>2016-10-30T10:15:58.000Z</time>
      </trkpt>
      <trkpt lat="47.4434" lon="6.93539">
        <ele>600</ele>
        <time>2016-10-30T10:15:58.999Z</time>
      </trkpt>
      <trkpt lat="47.44342" lon="6.93541">
        <ele>600</ele>
        <time>2016-10-30T10:16:00.000Z</time>
      </trkpt>
      <trkpt lat="47.44344" lon="6.93544">
        <ele>600</ele>
        <time>2016-10-30T10:16:01.000Z</time>
      </trkpt>
      <trkpt lat="47.44346" lon="6.93546">
        <ele>600</ele>
        <time>2016-10-30T10:16:02.000Z</time>
      </trkpt>
      <trkpt lat="47.44348" lon="6.93549">
        <ele>600</ele>
        <time>2016-10-30T10:16:03.000Z</time>
      </trkpt>
      <trkpt lat="47.44351" lon="6.93551">
        <ele>600</ele>
        <time>2016-10-30T10:16:04.000Z</time>
      </trkpt>
      <trkpt lat="47.44353" lon="6.93554">
        <ele>600</ele>
        <time>2016-10-30T10:16:05.000Z</time>
      </trkpt>
      <trkpt lat="47.44356" lon="6.93556">
        <ele>600</ele>
        <time>2016-10-30T10:16:06.000Z</time>
      </trkpt>
      <trkpt lat="47.44358" lon="6.93558">
        <ele>600</ele>
        <time>2016-10-30T10:16:07.000Z</time>
      </trkpt>
      <trkpt lat="47.4436" lon="6.9356">
        <ele>600</ele>
        <time>2016-10-30T10:16:08.000Z</time>
      </trkpt>
      <trkpt lat="47.44362" lon="6.93563">
        <ele>600</ele>
        <time>2016-10-30T10:16:09.000Z</time>
      </trkpt>
      <trkpt lat="47.44364" lon="6.93565">
        <ele>600</ele>
        <time>2016-10-30T10:16:09.999Z</time>
      </trkpt>
      <trkpt lat="47.44367" lon="6.93567">
        <ele>600</ele>
        <time>2016-10-30T10:16:11.000Z</time>
      </trkpt>
      <trkpt lat="47.44369" lon="6.93569">
        <ele>600</ele>
        <time>2016-10-30T10:16:12.000Z</time>
      </trkpt>
      <trkpt lat="47.44372" lon="6.93571">
        <ele>600</ele>
        <time>2016-10-30T10:16:13.000Z</time>
      </trkpt>
      <trkpt lat="47.44375" lon="6.93573">
        <ele>600</ele>
        <time>2016-10-30T10:16:14.000Z</time>
      </trkpt>
      <trkpt lat="47.44378" lon="6.93574">
        <ele>600</ele>
        <time>2016-10-30T10:16:15.000Z</time>
      </trkpt>
      <trkpt lat="47.44381" lon="6.93575">
        <ele>600</ele>
        <time>2016-10-30T10:16:16.000Z</time>
      </trkpt>
      <trkpt lat="47.44384" lon="6.93576">
        <ele>600</ele>
        <time>2016-10-30T10:16:17.000Z</time>
      </trkpt>
      <trkpt lat="47.44388" lon="6.93576">
        <ele>600</ele>
        <time>2016-10-30T10:16:18.000Z</time>
      </trkpt>
      <trkpt lat="47.44391" lon="6.93577">
        <ele>600</ele>
        <time>2016-10-30T10:16:19.000Z</time>
      </trkpt>
      <trkpt lat="47.44394" lon="6.93577">
        <ele>600</ele>
        <time>2016-10-30T10:16:20.000Z</time>
      </trkpt>
      <trkpt lat="47.44397" lon="6.93578">
        <ele>600</ele>
        <time>2016-10-30T10:16:21.000Z</time>
      </trkpt>
      <trkpt lat="47.44401" lon="6.93578">
        <ele>600</ele>
        <time>2016-10-30T10:16:22.000Z</time>
      </trkpt>
      <trkpt lat="47.44404" lon="6.93579">
        <ele>600</ele>
        <time>2016-10-30T10:16:23.000Z</time>
      </trkpt>
      <trkpt lat="47.44408" lon="6.93579">
        <ele>601</ele>
        <time>2016-10-30T10:16:24.000Z</time>
      </trkpt>
      <trkpt lat="47.44411" lon="6.93579">
        <ele>601</ele>
        <time>2016-10-30T10:16:25.000Z</time>
      </trkpt>
      <trkpt lat="47.44415" lon="6.9358">
        <ele>601</ele>
        <time>2016-10-30T10:16:26.000Z</time>
      </trkpt>
      <trkpt lat="47.44418" lon="6.9358">
        <ele>601</ele>
        <time>2016-10-30T10:16:27.000Z</time>
      </trkpt>
      <trkpt lat="47.44422" lon="6.9358">
        <ele>601</ele>
        <time>2016-10-30T10:16:28.000Z</time>
      </trkpt>
      <trkpt lat="47.44425" lon="6.9358">
        <ele>601</ele>
        <time>2016-10-30T10:16:29.000Z</time>
      </trkpt>
      <trkpt lat="47.44429" lon="6.9358">
        <ele>600</ele>
        <time>2016-10-30T10:16:30.000Z</time>
      </trkpt>
      <trkpt lat="47.44432" lon="6.9358">
        <ele>600</ele>
        <time>2016-10-30T10:16:31.000Z</time>
      </trkpt>
      <trkpt lat="47.44436" lon="6.93579">
        <ele>600</ele>
        <time>2016-10-30T10:16:32.000Z</time>
      </trkpt>
      <trkpt lat="47.44439" lon="6.93579">
        <ele>600</ele>
        <time>2016-10-30T10:16:33.000Z</time>
      </trkpt>
      <trkpt lat="47.44442" lon="6.93579">
        <ele>600</ele>
        <time>2016-10-30T10:16:34.000Z</time>
      </trkpt>
      <trkpt lat="47.44446" lon="6.93578">
        <ele>600</ele>
        <time>2016-10-30T10:16:35.000Z</time>
      </trkpt>
      <trkpt lat="47.44449" lon="6.93578">
        <ele>600</ele>
        <time>2016-10-30T10:16:36.000Z</time>
      </trkpt>
      <trkpt lat="47.44453" lon="6.93578">
        <ele>600</ele>
        <time>2016-10-30T10:16:37.000Z</time>
      </trkpt>
      <trkpt lat="47.44456" lon="6.93577">
        <ele>600</ele>
        <time>2016-10-30T10:16:38.000Z</time>
      </trkpt>
      <trkpt lat="47.4446" lon="6.93576">
        <ele>600</ele>
        <time>2016-10-30T10:16:39.000Z</time>
      </trkpt>
      <trkpt lat="47.44464" lon="6.93575">
        <ele>600</ele>
        <time>2016-10-30T10:16:40.000Z</time>
      </trkpt>
      <trkpt lat="47.44467" lon="6.93574">
        <ele>600</ele>
        <time>2016-10-30T10:16:41.000Z</time>
      </trkpt>
      <trkpt lat="47.44471" lon="6.93573">
        <ele>600</ele>
        <time>2016-10-30T10:16:42.000Z</time>
      </trkpt>
      <trkpt lat="47.44474" lon="6.93572">
        <ele>600</ele>
        <time>2016-10-30T10:16:43.000Z</time>
      </trkpt>
      <trkpt lat="47.44478" lon="6.93571">
        <ele>600</ele>
        <time>2016-10-30T10:16:44.000Z</time>
      </trkpt>
      <trkpt lat="47.44481" lon="6.9357">
        <ele>600</ele>
        <time>2016-10-30T10:16:45.000Z</time>
      </trkpt>
      <trkpt lat="47.44484" lon="6.93569">
        <ele>600</ele>
        <time>2016-10-30T10:16:46.000Z</time>
      </trkpt>
      <trkpt lat="47.44488" lon="6.93567">
        <ele>600</ele>
        <time>2016-10-30T10:16:47.000Z</time>
      </trkpt>
      <trkpt lat="47.44492" lon="6.93565">
        <ele>600</ele>
        <time>2016-10-30T10:16:48.000Z</time>
      </trkpt>
      <trkpt lat="47.44496" lon="6.93563">
        <ele>600</ele>
        <time>2016-10-30T10:16:49.000Z</time>
      </trkpt>
      <trkpt lat="47.445" lon="6.93562">
        <ele>600</ele>
        <time>2016-10-30T10:16:50.000Z</time>
      </trkpt>
      <trkpt lat="47.44504" lon="6.93561">
        <ele>599</ele>
        <time>2016-10-30T10:16:51.000Z</time>
      </trkpt>
      <trkpt lat="47.44508" lon="6.9356">
        <ele>599</ele>
        <time>2016-10-30T10:16:52.000Z</time>
      </trkpt>
      <trkpt lat="47.44512" lon="6.93559">
        <ele>599</ele>
        <time>2016-10-30T10:16:53.000Z</time>
      </trkpt>
      <trkpt lat="47.44516" lon="6.93558">
        <ele>599</ele>
        <time>2016-10-30T10:16:54.000Z</time>
      </trkpt>
      <trkpt lat="47.44521" lon="6.93557">
        <ele>599</ele>
        <time>2016-10-30T10:16:55.000Z</time>
      </trkpt>
      <trkpt lat="47.44525" lon="6.93556">
        <ele>599</ele>
        <time>2016-10-30T10:16:56.000Z</time>
      </trkpt>
      <trkpt lat="47.44529" lon="6.93555">
        <ele>599</ele>
        <time>2016-10-30T10:16:57.000Z</time>
      </trkpt>
      <trkpt lat="47.44533" lon="6.93553">
        <ele>599</ele>
        <time>2016-10-30T10:16:58.000Z</time>
      </trkpt>
      <trkpt lat="47.44538" lon="6.93553">
        <ele>599</ele>
        <time>2016-10-30T10:16:59.000Z</time>
      </trkpt>
      <trkpt lat="47.44544" lon="6.93551">
        <ele>599</ele>
        <time>2016-10-30T10:17:00.000Z</time>
      </trkpt>
      <trkpt lat="47.44549" lon="6.93551">
        <ele>599</ele>
        <time>2016-10-30T10:17:01.000Z</time>
      </trkpt>
      <trkpt lat="47.44554" lon="6.93551">
        <ele>599</ele>
        <time>2016-10-30T10:17:02.000Z</time>
      </trkpt>
      <trkpt lat="47.44559" lon="6.93548">
        <ele>599</ele>
        <time>2016-10-30T10:17:03.000Z</time>
      </trkpt>
      <trkpt lat="47.44564" lon="6.93546">
        <ele>599</ele>
        <time>2016-10-30T10:17:04.000Z</time>
      </trkpt>
      <trkpt lat="47.4457" lon="6.93544">
        <ele>599</ele>
        <time>2016-10-30T10:17:05.000Z</time>
      </trkpt>
      <trkpt lat="47.44576" lon="6.93543">
        <ele>599</ele>
        <time>2016-10-30T10:17:06.000Z</time>
      </trkpt>
      <trkpt lat="47.44582" lon="6.93541">
        <ele>599</ele>
        <time>2016-10-30T10:17:07.000Z</time>
      </trkpt>
      <trkpt lat="47.44587" lon="6.9354">
        <ele>599</ele>
        <time>2016-10-30T10:17:08.000Z</time>
      </trkpt>
      <trkpt lat="47.44593" lon="6.93539">
        <ele>599</ele>
        <time>2016-10-30T10:17:09.000Z</time>
      </trkpt>
      <trkpt lat="47.44598" lon="6.93536">
        <ele>599</ele>
        <time>2016-10-30T10:17:10.000Z</time>
      </trkpt>
      <trkpt lat="47.44603" lon="6.93535">
        <ele>599</ele>
        <time>2016-10-30T10:17:11.000Z</time>
      </trkpt>
      <trkpt lat="47.44609" lon="6.93534">
        <ele>599</ele>
        <time>2016-10-30T10:17:12.000Z</time>
      </trkpt>
      <trkpt lat="47.44614" lon="6.93533">
        <ele>599</ele>
        <time>2016-10-30T10:17:13.000Z</time>
      </trkpt>
      <trkpt lat="47.44619" lon="6.93532">
        <ele>599</ele>
        <time>2016-10-30T10:17:14.000Z</time>
      </trkpt>
      <trkpt lat="47.44622" lon="6.93531">
        <ele>599</ele>
        <time>2016-10-30T10:17:15.000Z</time>
      </trkpt>
      <trkpt lat="47.44624" lon="6.93531">
        <ele>599</ele>
        <time>2016-10-30T10:17:16.000Z</time>
      </trkpt>
      <trkpt lat="47.44627" lon="6.93531">
        <ele>599</ele>
        <time>2016-10-30T10:17:17.000Z</time>
      </trkpt>
      <trkpt lat="47.44629" lon="6.93533">
        <ele>599</ele>
        <time>2016-10-30T10:17:18.000Z</time>
      </trkpt>
      <trkpt lat="47.44632" lon="6.93534">
        <ele>599</ele>
        <time>2016-10-30T10:17:19.000Z</time>
      </trkpt>
      <trkpt lat="47.44635" lon="6.93533">
        <ele>599</ele>
        <time>2016-10-30T10:17:20.000Z</time>
      </trkpt>
      <trkpt lat="47.44639" lon="6.93533">
        <ele>599</ele>
        <time>2016-10-30T10:17:21.000Z</time>
      </trkpt>
      <trkpt lat="47.44646" lon="6.93531">
        <ele>599</ele>
        <time>2016-10-30T10:17:22.000Z</time>
      </trkpt>
      <trkpt lat="47.44651" lon="6.93529">
        <ele>600</ele>
        <time>2016-10-30T10:17:23.000Z</time>
      </trkpt>
      <trkpt lat="47.44655" lon="6.93526">
        <ele>600</ele>
        <time>2016-10-30T10:17:24.000Z</time>
      </trkpt>
      <trkpt lat="47.44659" lon="6.93524">
        <ele>600</ele>
        <time>2016-10-30T10:17:25.000Z</time>
      </trkpt>
      <trkpt lat="47.44663" lon="6.93522">
        <ele>600</ele>
        <time>2016-10-30T10:17:26.001Z</time>
      </trkpt>
      <trkpt lat="47.44669" lon="6.93517">
        <ele>599</ele>
        <time>2016-10-30T10:17:27.000Z</time>
      </trkpt>
      <trkpt lat="47.44674" lon="6.93515">
        <ele>599</ele>
        <time>2016-10-30T10:17:28.000Z</time>
      </trkpt>
      <trkpt lat="47.44679" lon="6.93513">
        <ele>599</ele>
        <time>2016-10-30T10:17:29.000Z</time>
      </trkpt>
      <trkpt lat="47.44684" lon="6.9352">
        <ele>598</ele>
        <time>2016-10-30T10:17:30.000Z</time>
      </trkpt>
      <trkpt lat="47.44686" lon="6.93521">
        <ele>598</ele>
        <time>2016-10-30T10:17:31.000Z</time>
      </trkpt>
      <trkpt lat="47.44692" lon="6.93521">
        <ele>597</ele>
        <time>2016-10-30T10:17:32.000Z</time>
      </trkpt>
      <trkpt lat="47.44696" lon="6.93522">
        <ele>597</ele>
        <time>2016-10-30T10:17:33.000Z</time>
      </trkpt>
      <trkpt lat="47.447" lon="6.93524">
        <ele>597</ele>
        <time>2016-10-30T10:17:34.001Z</time>
      </trkpt>
      <trkpt lat="47.44705" lon="6.93527">
        <ele>596</ele>
        <time>2016-10-30T10:17:35.000Z</time>
      </trkpt>
      <trkpt lat="47.44709" lon="6.93529">
        <ele>596</ele>
        <time>2016-10-30T10:17:36.000Z</time>
      </trkpt>
      <trkpt lat="47.44713" lon="6.93531">
        <ele>596</ele>
        <time>2016-10-30T10:17:37.000Z</time>
      </trkpt>
      <trkpt lat="47.44716" lon="6.93533">
        <ele>596</ele>
        <time>2016-10-30T10:17:38.000Z</time>
      </trkpt>
      <trkpt lat="47.44721" lon="6.93535">
        <ele>596</ele>
        <time>2016-10-30T10:17:39.000Z</time>
      </trkpt>
      <trkpt lat="47.44725" lon="6.93537">
        <ele>595</ele>
        <time>2016-10-30T10:17:40.000Z</time>
      </trkpt>
      <trkpt lat="47.4473" lon="6.93539">
        <ele>595</ele>
        <time>2016-10-30T10:17:41.000Z</time>
      </trkpt>
      <trkpt lat="47.44733" lon="6.93541">
        <ele>595</ele>
        <time>2016-10-30T10:17:42.000Z</time>
      </trkpt>
      <trkpt lat="47.44737" lon="6.93546">
        <ele>595</ele>
        <time>2016-10-30T10:17:43.000Z</time>
      </trkpt>
      <trkpt lat="47.44742" lon="6.93549">
        <ele>594</ele>
        <time>2016-10-30T10:17:44.000Z</time>
      </trkpt>
      <trkpt lat="47.44742" lon="6.93551">
        <ele>594</ele>
        <time>2016-10-30T10:17:45.000Z</time>
      </trkpt>
      <trkpt lat="47.44744" lon="6.93555">
        <ele>594</ele>
        <time>2016-10-30T10:17:46.000Z</time>
      </trkpt>
      <trkpt lat="47.44747" lon="6.93559">
        <ele>593</ele>
        <time>2016-10-30T10:17:47.000Z</time>
      </trkpt>
      <trkpt lat="47.4475" lon="6.93563">
        <ele>591</ele>
        <time>2016-10-30T10:17:48.000Z</time>
      </trkpt>
      <trkpt lat="47.44754" lon="6.93567">
        <ele>590</ele>
        <time>2016-10-30T10:17:49.000Z</time>
      </trkpt>
      <trkpt lat="47.44759" lon="6.93571">
        <ele>590</ele>
        <time>2016-10-30T10:17:50.000Z</time>
      </trkpt>
      <trkpt lat="47.44762" lon="6.93575">
        <ele>590</ele>
        <time>2016-10-30T10:17:51.000Z</time>
      </trkpt>
      <trkpt lat="47.44765" lon="6.9358">
        <ele>590</ele>
        <time>2016-10-30T10:17:52.000Z</time>
      </trkpt>
      <trkpt lat="47.44768" lon="6.93584">
        <ele>587</ele>
        <time>2016-10-30T10:17:53.000Z</time>
      </trkpt>
      <trkpt lat="47.44772" lon="6.93589">
        <ele>587</ele>
        <time>2016-10-30T10:17:54.000Z</time>
      </trkpt>
      <trkpt lat="47.44776" lon="6.93593">
        <ele>587</ele>
        <time>2016-10-30T10:17:55.000Z</time>
      </trkpt>
      <trkpt lat="47.44782" lon="6.93595">
        <ele>586</ele>
        <time>2016-10-30T10:17:56.000Z</time>
      </trkpt>
      <trkpt lat="47.44795" lon="6.93598">
        <ele>586</ele>
        <time>2016-10-30T10:17:57.000Z</time>
      </trkpt>
      <trkpt lat="47.44801" lon="6.93598">
        <ele>586</ele>
        <time>2016-10-30T10:17:58.000Z</time>
      </trkpt>
      <trkpt lat="47.44805" lon="6.93601">
        <ele>586</ele>
        <time>2016-10-30T10:17:59.000Z</time>
      </trkpt>
      <trkpt lat="47.4481" lon="6.93603">
        <ele>586</ele>
        <time>2016-10-30T10:18:00.000Z</time>
      </trkpt>
      <trkpt lat="47.44814" lon="6.93605">
        <ele>586</ele>
        <time>2016-10-30T10:18:01.000Z</time>
      </trkpt>
      <trkpt lat="47.4482" lon="6.93603">
        <ele>586</ele>
        <time>2016-10-30T10:18:02.000Z</time>
      </trkpt>
      <trkpt lat="47.44825" lon="6.93603">
        <ele>586</ele>
        <time>2016-10-30T10:18:03.000Z</time>
      </trkpt>
      <trkpt lat="47.4483" lon="6.93601">
        <ele>586</ele>
        <time>2016-10-30T10:18:04.000Z</time>
      </trkpt>
      <trkpt lat="47.44835" lon="6.93599">
        <ele>585</ele>
        <time>2016-10-30T10:18:05.000Z</time>
      </trkpt>
      <trkpt lat="47.44839" lon="6.93592">
        <ele>586</ele>
        <time>2016-10-30T10:18:06.000Z</time>
      </trkpt>
      <trkpt lat="47.44841" lon="6.93584">
        <ele>586</ele>
        <time>2016-10-30T10:18:07.000Z</time>
      </trkpt>
      <trkpt lat="47.44842" lon="6.93576">
        <ele>589</ele>
        <time>2016-10-30T10:18:08.000Z</time>
      </trkpt>
      <trkpt lat="47.44842" lon="6.93568">
        <ele>589</ele>
        <time>2016-10-30T10:18:09.000Z</time>
      </trkpt>
      <trkpt lat="47.44842" lon="6.93561">
        <ele>590</ele>
        <time>2016-10-30T10:18:10.000Z</time>
      </trkpt>
      <trkpt lat="47.44841" lon="6.93556">
        <ele>590</ele>
        <time>2016-10-30T10:18:11.000Z</time>
      </trkpt>
      <trkpt lat="47.4484" lon="6.93551">
        <ele>590</ele>
        <time>2016-10-30T10:18:12.000Z</time>
      </trkpt>
      <trkpt lat="47.44841" lon="6.93545">
        <ele>591</ele>
        <time>2016-10-30T10:18:13.000Z</time>
      </trkpt>
      <trkpt lat="47.44842" lon="6.93541">
        <ele>591</ele>
        <time>2016-10-30T10:18:14.000Z</time>
      </trkpt>
      <trkpt lat="47.44842" lon="6.93535">
        <ele>591</ele>
        <time>2016-10-30T10:18:16.000Z</time>
      </trkpt>
      <trkpt lat="47.44843" lon="6.93532">
        <ele>592</ele>
        <time>2016-10-30T10:18:17.000Z</time>
      </trkpt>
      <trkpt lat="47.44843" lon="6.93528">
        <ele>592</ele>
        <time>2016-10-30T10:18:19.000Z</time>
      </trkpt>
      <trkpt lat="47.44842" lon="6.93525">
        <ele>592</ele>
        <time>2016-10-30T10:18:20.000Z</time>
      </trkpt>
      <trkpt lat="47.44842" lon="6.93519">
        <ele>592</ele>
        <time>2016-10-30T10:18:22.000Z</time>
      </trkpt>
      <trkpt lat="47.44842" lon="6.93516">
        <ele>592</ele>
        <time>2016-10-30T10:18:23.000Z</time>
      </trkpt>
      <trkpt lat="47.44842" lon="6.9351">
        <ele>593</ele>
        <time>2016-10-30T10:18:25.000Z</time>
      </trkpt>
      <trkpt lat="47.44842" lon="6.93507">
        <ele>593</ele>
        <time>2016-10-30T10:18:26.000Z</time>
      </trkpt>
      <trkpt lat="47.44843" lon="6.93501">
        <ele>593</ele>
        <time>2016-10-30T10:18:28.000Z</time>
      </trkpt>
      <trkpt lat="47.44843" lon="6.93498">
        <ele>594</ele>
        <time>2016-10-30T10:18:29.000Z</time>
      </trkpt>
      <trkpt lat="47.44846" lon="6.93494">
        <ele>594</ele>
        <time>2016-10-30T10:18:31.000Z</time>
      </trkpt>
      <trkpt lat="47.44847" lon="6.93492">
        <ele>594</ele>
        <time>2016-10-30T10:18:32.000Z</time>
      </trkpt>
      <trkpt lat="47.4485" lon="6.93487">
        <ele>595</ele>
        <time>2016-10-30T10:18:34.000Z</time>
      </trkpt>
      <trkpt lat="47.44851" lon="6.93485">
        <ele>595</ele>
        <time>2016-10-30T10:18:35.000Z</time>
      </trkpt>
      <trkpt lat="47.44853" lon="6.93482">
        <ele>595</ele>
        <time>2016-10-30T10:18:37.000Z</time>
      </trkpt>
      <trkpt lat="47.44855" lon="6.9348">
        <ele>595</ele>
        <time>2016-10-30T10:18:38.000Z</time>
      </trkpt>
      <trkpt lat="47.44858" lon="6.93476">
        <ele>595</ele>
        <time>2016-10-30T10:18:40.000Z</time>
      </trkpt>
      <trkpt lat="47.4486" lon="6.93474">
        <ele>595</ele>
        <time>2016-10-30T10:18:41.000Z</time>
      </trkpt>
      <trkpt lat="47.44863" lon="6.93472">
        <ele>595</ele>
        <time>2016-10-30T10:18:42.000Z</time>
      </trkpt>
      <trkpt lat="47.44865" lon="6.93471">
        <ele>595</ele>
        <time>2016-10-30T10:18:43.000Z</time>
      </trkpt>
      <trkpt lat="47.44867" lon="6.93469">
        <ele>595</ele>
        <time>2016-10-30T10:18:44.000Z</time>
      </trkpt>
      <trkpt lat="47.44869" lon="6.93467">
        <ele>595</ele>
        <time>2016-10-30T10:18:45.000Z</time>
      </trkpt>
      <trkpt lat="47.44871" lon="6.93466">
        <ele>595</ele>
        <time>2016-10-30T10:18:46.000Z</time>
      </trkpt>
      <trkpt lat="47.44873" lon="6.93465">
        <ele>595</ele>
        <time>2016-10-30T10:18:47.001Z</time>
      </trkpt>
      <trkpt lat="47.44875" lon="6.93464">
        <ele>595</ele>
        <time>2016-10-30T10:18:48.000Z</time>
      </trkpt>
      <trkpt lat="47.44878" lon="6.93463">
        <ele>595</ele>
        <time>2016-10-30T10:18:49.000Z</time>
      </trkpt>
      <trkpt lat="47.4488" lon="6.93462">
        <ele>595</ele>
        <time>2016-10-30T10:18:50.000Z</time>
      </trkpt>
      <trkpt lat="47.44883" lon="6.93461">
        <ele>595</ele>
        <time>2016-10-30T10:18:51.000Z</time>
      </trkpt>
      <trkpt lat="47.44885" lon="6.93461">
        <ele>595</ele>
        <time>2016-10-30T10:18:52.000Z</time>
      </trkpt>
      <trkpt lat="47.44888" lon="6.93461">
        <ele>595</ele>
        <time>2016-10-30T10:18:53.000Z</time>
      </trkpt>
      <trkpt lat="47.4489" lon="6.9346">
        <ele>595</ele>
        <time>2016-10-30T10:18:54.000Z</time>
      </trkpt>
      <trkpt lat="47.44893" lon="6.9346">
        <ele>595</ele>
        <time>2016-10-30T10:18:54.999Z</time>
      </trkpt>
      <trkpt lat="47.44896" lon="6.93459">
        <ele>595</ele>
        <time>2016-10-30T10:18:56.000Z</time>
      </trkpt>
      <trkpt lat="47.44898" lon="6.93459">
        <ele>595</ele>
        <time>2016-10-30T10:18:57.000Z</time>
      </trkpt>
      <trkpt lat="47.44901" lon="6.93458">
        <ele>595</ele>
        <time>2016-10-30T10:18:58.000Z</time>
      </trkpt>
      <trkpt lat="47.44903" lon="6.93458">
        <ele>595</ele>
        <time>2016-10-30T10:18:59.000Z</time>
      </trkpt>
      <trkpt lat="47.44906" lon="6.93457">
        <ele>594</ele>
        <time>2016-10-30T10:19:00.000Z</time>
      </trkpt>
      <trkpt lat="47.44909" lon="6.93456">
        <ele>594</ele>
        <time>2016-10-30T10:19:01.000Z</time>
      </trkpt>
      <trkpt lat="47.44912" lon="6.93455">
        <ele>594</ele>
        <time>2016-10-30T10:19:02.000Z</time>
      </trkpt>
      <trkpt lat="47.44914" lon="6.93455">
        <ele>594</ele>
        <time>2016-10-30T10:19:03.000Z</time>
      </trkpt>
      <trkpt lat="47.44917" lon="6.93454">
        <ele>597</ele>
        <time>2016-10-30T10:19:04.000Z</time>
      </trkpt>
      <trkpt lat="47.4492" lon="6.93454">
        <ele>597</ele>
        <time>2016-10-30T10:19:05.000Z</time>
      </trkpt>
      <trkpt lat="47.44923" lon="6.93453">
        <ele>597</ele>
        <time>2016-10-30T10:19:05.999Z</time>
      </trkpt>
      <trkpt lat="47.44926" lon="6.93452">
        <ele>597</ele>
        <time>2016-10-30T10:19:07.000Z</time>
      </trkpt>
      <trkpt lat="47.44929" lon="6.93452">
        <ele>597</ele>
        <time>2016-10-30T10:19:08.000Z</time>
      </trkpt>
      <trkpt lat="47.44933" lon="6.93451">
        <ele>597</ele>
        <time>2016-10-30T10:19:09.000Z</time>
      </trkpt>
      <trkpt lat="47.44936" lon="6.9345">
        <ele>597</ele>
        <time>2016-10-30T10:19:10.000Z</time>
      </trkpt>
      <trkpt lat="47.44939" lon="6.9345">
        <ele>598</ele>
        <time>2016-10-30T10:19:11.000Z</time>
      </trkpt>
      <trkpt lat="47.44942" lon="6.9345">
        <ele>598</ele>
        <time>2016-10-30T10:19:12.000Z</time>
      </trkpt>
      <trkpt lat="47.44946" lon="6.93451">
        <ele>598</ele>
        <time>2016-10-30T10:19:13.000Z</time>
      </trkpt>
      <trkpt lat="47.44949" lon="6.93453">
        <ele>598</ele>
        <time>2016-10-30T10:19:14.000Z</time>
      </trkpt>
      <trkpt lat="47.44953" lon="6.93456">
        <ele>598</ele>
        <time>2016-10-30T10:19:15.000Z</time>
      </trkpt>
      <trkpt lat="47.44956" lon="6.93459">
        <ele>599</ele>
        <time>2016-10-30T10:19:16.000Z</time>
      </trkpt>
      <trkpt lat="47.44958" lon="6.93461">
        <ele>599</ele>
        <time>2016-10-30T10:19:17.000Z</time>
      </trkpt>
      <trkpt lat="47.44961" lon="6.93463">
        <ele>599</ele>
        <time>2016-10-30T10:19:18.000Z</time>
      </trkpt>
      <trkpt lat="47.44963" lon="6.93465">
        <ele>599</ele>
        <time>2016-10-30T10:19:19.000Z</time>
      </trkpt>
      <trkpt lat="47.44965" lon="6.93466">
        <ele>599</ele>
        <time>2016-10-30T10:19:20.000Z</time>
      </trkpt>
      <trkpt lat="47.44967" lon="6.93468">
        <ele>599</ele>
        <time>2016-10-30T10:19:21.000Z</time>
      </trkpt>
      <trkpt lat="47.4497" lon="6.93471">
        <ele>599</ele>
        <time>2016-10-30T10:19:23.000Z</time>
      </trkpt>
      <trkpt lat="47.44972" lon="6.93473">
        <ele>599</ele>
        <time>2016-10-30T10:19:24.000Z</time>
      </trkpt>
      <trkpt lat="47.44975" lon="6.93475">
        <ele>600</ele>
        <time>2016-10-30T10:19:26.000Z</time>
      </trkpt>
      <trkpt lat="47.44978" lon="6.93476">
        <ele>600</ele>
        <time>2016-10-30T10:19:27.000Z</time>
      </trkpt>
      <trkpt lat="47.4498" lon="6.93475">
        <ele>600</ele>
        <time>2016-10-30T10:19:28.000Z</time>
      </trkpt>
      <trkpt lat="47.44982" lon="6.93474">
        <ele>600</ele>
        <time>2016-10-30T10:19:29.000Z</time>
      </trkpt>
      <trkpt lat="47.44986" lon="6.93472">
        <ele>600</ele>
        <time>2016-10-30T10:19:31.000Z</time>
      </trkpt>
      <trkpt lat="47.44988" lon="6.93471">
        <ele>600</ele>
        <time>2016-10-30T10:19:32.000Z</time>
      </trkpt>
      <trkpt lat="47.44992" lon="6.93468">
        <ele>600</ele>
        <time>2016-10-30T10:19:34.000Z</time>
      </trkpt>
      <trkpt lat="47.44993" lon="6.93467">
        <ele>600</ele>
        <time>2016-10-30T10:19:35.000Z</time>
      </trkpt>
      <trkpt lat="47.44997" lon="6.93464">
        <ele>600</ele>
        <time>2016-10-30T10:19:37.000Z</time>
      </trkpt>
      <trkpt lat="47.44999" lon="6.93462">
        <ele>600</ele>
        <time>2016-10-30T10:19:38.000Z</time>
      </trkpt>
      <trkpt lat="47.45001" lon="6.9346">
        <ele>604</ele>
        <time>2016-10-30T10:19:39.000Z</time>
      </trkpt>
      <trkpt lat="47.45003" lon="6.93458">
        <ele>604</ele>
        <time>2016-10-30T10:19:40.000Z</time>
      </trkpt>
      <trkpt lat="47.45005" lon="6.93456">
        <ele>604</ele>
        <time>2016-10-30T10:19:41.000Z</time>
      </trkpt>
      <trkpt lat="47.45008" lon="6.93454">
        <ele>604</ele>
        <time>2016-10-30T10:19:42.000Z</time>
      </trkpt>
      <trkpt lat="47.45012" lon="6.93452">
        <ele>604</ele>
        <time>2016-10-30T10:19:43.000Z</time>
      </trkpt>
      <trkpt lat="47.45016" lon="6.93451">
        <ele>604</ele>
        <time>2016-10-30T10:19:44.000Z</time>
      </trkpt>
      <trkpt lat="47.4502" lon="6.93449">
        <ele>604</ele>
        <time>2016-10-30T10:19:45.000Z</time>
      </trkpt>
      <trkpt lat="47.45024" lon="6.93447">
        <ele>605</ele>
        <time>2016-10-30T10:19:46.000Z</time>
      </trkpt>
      <trkpt lat="47.45029" lon="6.93445">
        <ele>605</ele>
        <time>2016-10-30T10:19:47.000Z</time>
      </trkpt>
      <trkpt lat="47.45033" lon="6.93442">
        <ele>605</ele>
        <time>2016-10-30T10:19:48.000Z</time>
      </trkpt>
      <trkpt lat="47.45038" lon="6.9344">
        <ele>605</ele>
        <time>2016-10-30T10:19:49.000Z</time>
      </trkpt>
      <trkpt lat="47.45042" lon="6.93438">
        <ele>605</ele>
        <time>2016-10-30T10:19:50.000Z</time>
      </trkpt>
      <trkpt lat="47.45047" lon="6.93436">
        <ele>605</ele>
        <time>2016-10-30T10:19:51.000Z</time>
      </trkpt>
      <trkpt lat="47.45051" lon="6.93435">
        <ele>605</ele>
        <time>2016-10-30T10:19:52.000Z</time>
      </trkpt>
      <trkpt lat="47.45054" lon="6.93434">
        <ele>605</ele>
        <time>2016-10-30T10:19:53.000Z</time>
      </trkpt>
      <trkpt lat="47.45057" lon="6.93433">
        <ele>605</ele>
        <time>2016-10-30T10:19:54.000Z</time>
      </trkpt>
      <trkpt lat="47.45059" lon="6.93433">
        <ele>606</ele>
        <time>2016-10-30T10:19:55.000Z</time>
      </trkpt>
      <trkpt lat="47.45061" lon="6.93433">
        <ele>606</ele>
        <time>2016-10-30T10:19:56.000Z</time>
      </trkpt>
      <trkpt lat="47.45064" lon="6.93432">
        <ele>606</ele>
        <time>2016-10-30T10:19:57.000Z</time>
      </trkpt>
      <trkpt lat="47.45067" lon="6.9343">
        <ele>606</ele>
        <time>2016-10-30T10:19:58.000Z</time>
      </trkpt>
      <trkpt lat="47.45069" lon="6.93428">
        <ele>606</ele>
        <time>2016-10-30T10:19:59.000Z</time>
      </trkpt>
      <trkpt lat="47.45071" lon="6.93426">
        <ele>606</ele>
        <time>2016-10-30T10:20:00.000Z</time>
      </trkpt>
      <trkpt lat="47.45074" lon="6.93424">
        <ele>607</ele>
        <time>2016-10-30T10:20:01.000Z</time>
      </trkpt>
      <trkpt lat="47.45076" lon="6.93423">
        <ele>607</ele>
        <time>2016-10-30T10:20:02.000Z</time>
      </trkpt>
      <trkpt lat="47.45078" lon="6.93421">
        <ele>607</ele>
        <time>2016-10-30T10:20:03.000Z</time>
      </trkpt>
      <trkpt lat="47.4508" lon="6.93418">
        <ele>608</ele>
        <time>2016-10-30T10:20:04.000Z</time>
      </trkpt>
      <trkpt lat="47.45083" lon="6.93416">
        <ele>608</ele>
        <time>2016-10-30T10:20:05.000Z</time>
      </trkpt>
      <trkpt lat="47.45085" lon="6.93413">
        <ele>608</ele>
        <time>2016-10-30T10:20:06.000Z</time>
      </trkpt>
      <trkpt lat="47.45088" lon="6.93411">
        <ele>607</ele>
        <time>2016-10-30T10:20:07.000Z</time>
      </trkpt>
      <trkpt lat="47.4509" lon="6.93408">
        <ele>607</ele>
        <time>2016-10-30T10:20:08.000Z</time>
      </trkpt>
      <trkpt lat="47.45092" lon="6.93406">
        <ele>607</ele>
        <time>2016-10-30T10:20:09.000Z</time>
      </trkpt>
      <trkpt lat="47.45095" lon="6.93403">
        <ele>607</ele>
        <time>2016-10-30T10:20:10.000Z</time>
      </trkpt>
      <trkpt lat="47.45097" lon="6.93399">
        <ele>607</ele>
        <time>2016-10-30T10:20:11.001Z</time>
      </trkpt>
      <trkpt lat="47.45098" lon="6.93397">
        <ele>606</ele>
        <time>2016-10-30T10:20:12.000Z</time>
      </trkpt>
      <trkpt lat="47.45102" lon="6.9339">
        <ele>606</ele>
        <time>2016-10-30T10:20:13.000Z</time>
      </trkpt>
      <trkpt lat="47.45104" lon="6.93385">
        <ele>606</ele>
        <time>2016-10-30T10:20:14.000Z</time>
      </trkpt>
      <trkpt lat="47.45106" lon="6.93381">
        <ele>606</ele>
        <time>2016-10-30T10:20:15.000Z</time>
      </trkpt>
      <trkpt lat="47.45108" lon="6.93379">
        <ele>606</ele>
        <time>2016-10-30T10:20:16.000Z</time>
      </trkpt>
      <trkpt lat="47.45111" lon="6.93377">
        <ele>606</ele>
        <time>2016-10-30T10:20:17.000Z</time>
      </trkpt>
      <trkpt lat="47.45114" lon="6.93375">
        <ele>606</ele>
        <time>2016-10-30T10:20:18.000Z</time>
      </trkpt>
      <trkpt lat="47.45116" lon="6.93374">
        <ele>606</ele>
        <time>2016-10-30T10:20:19.000Z</time>
      </trkpt>
      <trkpt lat="47.45119" lon="6.93372">
        <ele>606</ele>
        <time>2016-10-30T10:20:20.000Z</time>
      </trkpt>
      <trkpt lat="47.45122" lon="6.9337">
        <ele>606</ele>
        <time>2016-10-30T10:20:21.000Z</time>
      </trkpt>
      <trkpt lat="47.45126" lon="6.93367">
        <ele>606</ele>
        <time>2016-10-30T10:20:22.000Z</time>
      </trkpt>
      <trkpt lat="47.45129" lon="6.93365">
        <ele>606</ele>
        <time>2016-10-30T10:20:23.000Z</time>
      </trkpt>
      <trkpt lat="47.45137" lon="6.93351">
        <ele>605</ele>
        <time>2016-10-30T10:20:24.000Z</time>
      </trkpt>
      <trkpt lat="47.4514" lon="6.93346">
        <ele>605</ele>
        <time>2016-10-30T10:20:25.000Z</time>
      </trkpt>
      <trkpt lat="47.45145" lon="6.9334">
        <ele>605</ele>
        <time>2016-10-30T10:20:26.000Z</time>
      </trkpt>
      <trkpt lat="47.4515" lon="6.93333">
        <ele>605</ele>
        <time>2016-10-30T10:20:26.999Z</time>
      </trkpt>
      <trkpt lat="47.45157" lon="6.93325">
        <ele>605</ele>
        <time>2016-10-30T10:20:28.000Z</time>
      </trkpt>
      <trkpt lat="47.45162" lon="6.93318">
        <ele>605</ele>
        <time>2016-10-30T10:20:29.000Z</time>
      </trkpt>
      <trkpt lat="47.45163" lon="6.93311">
        <ele>605</ele>
        <time>2016-10-30T10:20:30.000Z</time>
      </trkpt>
      <trkpt lat="47.45164" lon="6.93304">
        <ele>605</ele>
        <time>2016-10-30T10:20:31.000Z</time>
      </trkpt>
      <trkpt lat="47.45163" lon="6.933">
        <ele>605</ele>
        <time>2016-10-30T10:20:32.000Z</time>
      </trkpt>
      <trkpt lat="47.45164" lon="6.93295">
        <ele>605</ele>
        <time>2016-10-30T10:20:33.000Z</time>
      </trkpt>
      <trkpt lat="47.45163" lon="6.93291">
        <ele>605</ele>
        <time>2016-10-30T10:20:34.000Z</time>
      </trkpt>
      <trkpt lat="47.45164" lon="6.93287">
        <ele>605</ele>
        <time>2016-10-30T10:20:35.000Z</time>
      </trkpt>
      <trkpt lat="47.45165" lon="6.93283">
        <ele>605</ele>
        <time>2016-10-30T10:20:36.000Z</time>
      </trkpt>
      <trkpt lat="47.45166" lon="6.93278">
        <ele>605</ele>
        <time>2016-10-30T10:20:37.000Z</time>
      </trkpt>
      <trkpt lat="47.45167" lon="6.93274">
        <ele>604</ele>
        <time>2016-10-30T10:20:38.000Z</time>
      </trkpt>
      <trkpt lat="47.45168" lon="6.93269">
        <ele>605</ele>
        <time>2016-10-30T10:20:39.000Z</time>
      </trkpt>
      <trkpt lat="47.45169" lon="6.93265">
        <ele>605</ele>
        <time>2016-10-30T10:20:40.000Z</time>
      </trkpt>
      <trkpt lat="47.4517" lon="6.93261">
        <ele>605</ele>
        <time>2016-10-30T10:20:41.000Z</time>
      </trkpt>
      <trkpt lat="47.45171" lon="6.93258">
        <ele>605</ele>
        <time>2016-10-30T10:20:42.000Z</time>
      </trkpt>
      <trkpt lat="47.45171" lon="6.93254">
        <ele>605</ele>
        <time>2016-10-30T10:20:43.000Z</time>
      </trkpt>
      <trkpt lat="47.45173" lon="6.93254">
        <ele>605</ele>
        <time>2016-10-30T10:20:44.000Z</time>
      </trkpt>
      <trkpt lat="47.45176" lon="6.93253">
        <ele>605</ele>
        <time>2016-10-30T10:20:45.000Z</time>
      </trkpt>
      <trkpt lat="47.4518" lon="6.93252">
        <ele>605</ele>
        <time>2016-10-30T10:20:46.000Z</time>
      </trkpt>
      <trkpt lat="47.45184" lon="6.93252">
        <ele>605</ele>
        <time>2016-10-30T10:20:47.000Z</time>
      </trkpt>
      <trkpt lat="47.45187" lon="6.93251">
        <ele>604</ele>
        <time>2016-10-30T10:20:48.000Z</time>
      </trkpt>
      <trkpt lat="47.45191" lon="6.9325">
        <ele>604</ele>
        <time>2016-10-30T10:20:49.000Z</time>
      </trkpt>
      <trkpt lat="47.45194" lon="6.93249">
        <ele>603</ele>
        <time>2016-10-30T10:20:50.000Z</time>
      </trkpt>
      <trkpt lat="47.45197" lon="6.93247">
        <ele>603</ele>
        <time>2016-10-30T10:20:51.000Z</time>
      </trkpt>
      <trkpt lat="47.452" lon="6.93245">
        <ele>603</ele>
        <time>2016-10-30T10:20:52.000Z</time>
      </trkpt>
      <trkpt lat="47.45203" lon="6.93243">
        <ele>602</ele>
        <time>2016-10-30T10:20:53.000Z</time>
      </trkpt>
      <trkpt lat="47.45207" lon="6.93242">
        <ele>602</ele>
        <time>2016-10-30T10:20:54.000Z</time>
      </trkpt>
      <trkpt lat="47.4521" lon="6.93242">
        <ele>602</ele>
        <time>2016-10-30T10:20:55.000Z</time>
      </trkpt>
      <trkpt lat="47.45213" lon="6.93243">
        <ele>602</ele>
        <time>2016-10-30T10:20:56.000Z</time>
      </trkpt>
      <trkpt lat="47.45217" lon="6.93244">
        <ele>602</ele>
        <time>2016-10-30T10:20:57.000Z</time>
      </trkpt>
      <trkpt lat="47.4522" lon="6.93245">
        <ele>602</ele>
        <time>2016-10-30T10:20:58.000Z</time>
      </trkpt>
      <trkpt lat="47.45224" lon="6.93246">
        <ele>602</ele>
        <time>2016-10-30T10:20:59.000Z</time>
      </trkpt>
      <trkpt lat="47.45226" lon="6.93246">
        <ele>602</ele>
        <time>2016-10-30T10:21:00.000Z</time>
      </trkpt>
      <trkpt lat="47.45229" lon="6.93245">
        <ele>602</ele>
        <time>2016-10-30T10:21:01.000Z</time>
      </trkpt>
      <trkpt lat="47.45233" lon="6.93245">
        <ele>601</ele>
        <time>2016-10-30T10:21:03.000Z</time>
      </trkpt>
      <trkpt lat="47.45235" lon="6.93245">
        <ele>601</ele>
        <time>2016-10-30T10:21:04.000Z</time>
      </trkpt>
      <trkpt lat="47.45237" lon="6.93245">
        <ele>601</ele>
        <time>2016-10-30T10:21:05.000Z</time>
      </trkpt>
      <trkpt lat="47.4524" lon="6.93244">
        <ele>601</ele>
        <time>2016-10-30T10:21:06.000Z</time>
      </trkpt>
      <trkpt lat="47.45242" lon="6.93244">
        <ele>601</ele>
        <time>2016-10-30T10:21:07.000Z</time>
      </trkpt>
      <trkpt lat="47.45245" lon="6.93242">
        <ele>601</ele>
        <time>2016-10-30T10:21:08.000Z</time>
      </trkpt>
      <trkpt lat="47.45247" lon="6.93241">
        <ele>601</ele>
        <time>2016-10-30T10:21:09.000Z</time>
      </trkpt>
      <trkpt lat="47.4525" lon="6.9324">
        <ele>601</ele>
        <time>2016-10-30T10:21:10.000Z</time>
      </trkpt>
      <trkpt lat="47.45254" lon="6.9324">
        <ele>601</ele>
        <time>2016-10-30T10:21:12.000Z</time>
      </trkpt>
      <trkpt lat="47.45255" lon="6.9324">
        <ele>601</ele>
        <time>2016-10-30T10:21:13.000Z</time>
      </trkpt>
      <trkpt lat="47.45259" lon="6.93241">
        <ele>601</ele>
        <time>2016-10-30T10:21:16.000Z</time>
      </trkpt>
      <trkpt lat="47.4526" lon="6.93241">
        <ele>601</ele>
        <time>2016-10-30T10:21:17.000Z</time>
      </trkpt>
      <trkpt lat="47.45265" lon="6.93241">
        <ele>600</ele>
        <time>2016-10-30T10:21:19.000Z</time>
      </trkpt>
      <trkpt lat="47.45267" lon="6.93241">
        <ele>600</ele>
        <time>2016-10-30T10:21:20.000Z</time>
      </trkpt>
      <trkpt lat="47.4527" lon="6.93242">
        <ele>600</ele>
        <time>2016-10-30T10:21:21.000Z</time>
      </trkpt>
      <trkpt lat="47.45274" lon="6.93243">
        <ele>600</ele>
        <time>2016-10-30T10:21:22.000Z</time>
      </trkpt>
      <trkpt lat="47.45278" lon="6.93244">
        <ele>600</ele>
        <time>2016-10-30T10:21:23.000Z</time>
      </trkpt>
      <trkpt lat="47.45282" lon="6.93244">
        <ele>600</ele>
        <time>2016-10-30T10:21:24.000Z</time>
      </trkpt>
      <trkpt lat="47.45287" lon="6.93246">
        <ele>600</ele>
        <time>2016-10-30T10:21:25.000Z</time>
      </trkpt>
      <trkpt lat="47.45291" lon="6.93247">
        <ele>600</ele>
        <time>2016-10-30T10:21:26.000Z</time>
      </trkpt>
      <trkpt lat="47.45295" lon="6.93249">
        <ele>600</ele>
        <time>2016-10-30T10:21:27.000Z</time>
      </trkpt>
      <trkpt lat="47.45299" lon="6.93251">
        <ele>600</ele>
        <time>2016-10-30T10:21:28.000Z</time>
      </trkpt>
      <trkpt lat="47.45303" lon="6.93253">
        <ele>600</ele>
        <time>2016-10-30T10:21:29.000Z</time>
      </trkpt>
      <trkpt lat="47.45305" lon="6.93255">
        <ele>600</ele>
        <time>2016-10-30T10:21:30.000Z</time>
      </trkpt>
      <trkpt lat="47.45308" lon="6.93258">
        <ele>600</ele>
        <time>2016-10-30T10:21:31.000Z</time>
      </trkpt>
      <trkpt lat="47.45311" lon="6.93261">
        <ele>600</ele>
        <time>2016-10-30T10:21:32.000Z</time>
      </trkpt>
      <trkpt lat="47.45314" lon="6.93265">
        <ele>600</ele>
        <time>2016-10-30T10:21:33.000Z</time>
      </trkpt>
      <trkpt lat="47.45317" lon="6.93268">
        <ele>600</ele>
        <time>2016-10-30T10:21:34.000Z</time>
      </trkpt>
      <trkpt lat="47.45321" lon="6.93272">
        <ele>600</ele>
        <time>2016-10-30T10:21:35.000Z</time>
      </trkpt>
      <trkpt lat="47.45325" lon="6.93275">
        <ele>600</ele>
        <time>2016-10-30T10:21:36.000Z</time>
      </trkpt>
      <trkpt lat="47.45329" lon="6.93278">
        <ele>600</ele>
        <time>2016-10-30T10:21:37.000Z</time>
      </trkpt>
      <trkpt lat="47.45333" lon="6.93281">
        <ele>600</ele>
        <time>2016-10-30T10:21:38.000Z</time>
      </trkpt>
      <trkpt lat="47.45337" lon="6.93284">
        <ele>598</ele>
        <time>2016-10-30T10:21:39.000Z</time>
      </trkpt>
      <trkpt lat="47.45341" lon="6.93286">
        <ele>598</ele>
        <time>2016-10-30T10:21:40.000Z</time>
      </trkpt>
      <trkpt lat="47.45344" lon="6.93288">
        <ele>598</ele>
        <time>2016-10-30T10:21:41.000Z</time>
      </trkpt>
      <trkpt lat="47.45347" lon="6.9329">
        <ele>598</ele>
        <time>2016-10-30T10:21:42.000Z</time>
      </trkpt>
      <trkpt lat="47.4535" lon="6.93292">
        <ele>598</ele>
        <time>2016-10-30T10:21:43.000Z</time>
      </trkpt>
      <trkpt lat="47.45353" lon="6.93296">
        <ele>598</ele>
        <time>2016-10-30T10:21:44.000Z</time>
      </trkpt>
      <trkpt lat="47.45355" lon="6.93299">
        <ele>598</ele>
        <time>2016-10-30T10:21:45.000Z</time>
      </trkpt>
      <trkpt lat="47.45357" lon="6.93303">
        <ele>598</ele>
        <time>2016-10-30T10:21:46.000Z</time>
      </trkpt>
      <trkpt lat="47.45359" lon="6.93306">
        <ele>598</ele>
        <time>2016-10-30T10:21:47.000Z</time>
      </trkpt>
      <trkpt lat="47.45361" lon="6.9331">
        <ele>598</ele>
        <time>2016-10-30T10:21:48.000Z</time>
      </trkpt>
      <trkpt lat="47.45362" lon="6.93314">
        <ele>598</ele>
        <time>2016-10-30T10:21:49.000Z</time>
      </trkpt>
      <trkpt lat="47.45363" lon="6.93318">
        <ele>597</ele>
        <time>2016-10-30T10:21:50.000Z</time>
      </trkpt>
      <trkpt lat="47.45367" lon="6.93322">
        <ele>597</ele>
        <time>2016-10-30T10:21:51.000Z</time>
      </trkpt>
      <trkpt lat="47.45368" lon="6.93325">
        <ele>597</ele>
        <time>2016-10-30T10:21:52.000Z</time>
      </trkpt>
      <trkpt lat="47.4537" lon="6.93328">
        <ele>597</ele>
        <time>2016-10-30T10:21:53.000Z</time>
      </trkpt>
      <trkpt lat="47.45371" lon="6.93334">
        <ele>595</ele>
        <time>2016-10-30T10:21:54.000Z</time>
      </trkpt>
      <trkpt lat="47.45374" lon="6.93342">
        <ele>594</ele>
        <time>2016-10-30T10:21:55.000Z</time>
      </trkpt>
      <trkpt lat="47.45376" lon="6.93347">
        <ele>594</ele>
        <time>2016-10-30T10:21:56.000Z</time>
      </trkpt>
      <trkpt lat="47.4538" lon="6.93355">
        <ele>594</ele>
        <time>2016-10-30T10:21:57.000Z</time>
      </trkpt>
      <trkpt lat="47.45383" lon="6.93359">
        <ele>594</ele>
        <time>2016-10-30T10:21:58.000Z</time>
      </trkpt>
      <trkpt lat="47.45384" lon="6.93359">
        <ele>594</ele>
        <time>2016-10-30T10:21:59.000Z</time>
      </trkpt>
      <trkpt lat="47.45388" lon="6.93364">
        <ele>594</ele>
        <time>2016-10-30T10:22:00.000Z</time>
      </trkpt>
      <trkpt lat="47.45391" lon="6.93368">
        <ele>594</ele>
        <time>2016-10-30T10:22:01.000Z</time>
      </trkpt>
      <trkpt lat="47.45393" lon="6.93371">
        <ele>593</ele>
        <time>2016-10-30T10:22:02.000Z</time>
      </trkpt>
      <trkpt lat="47.45396" lon="6.93375">
        <ele>593</ele>
        <time>2016-10-30T10:22:03.000Z</time>
      </trkpt>
      <trkpt lat="47.45398" lon="6.9338">
        <ele>593</ele>
        <time>2016-10-30T10:22:04.000Z</time>
      </trkpt>
      <trkpt lat="47.45401" lon="6.93386">
        <ele>593</ele>
        <time>2016-10-30T10:22:05.000Z</time>
      </trkpt>
      <trkpt lat="47.45404" lon="6.93391">
        <ele>593</ele>
        <time>2016-10-30T10:22:06.000Z</time>
      </trkpt>
      <trkpt lat="47.45407" lon="6.93396">
        <ele>592</ele>
        <time>2016-10-30T10:22:07.000Z</time>
      </trkpt>
      <trkpt lat="47.4541" lon="6.93401">
        <ele>592</ele>
        <time>2016-10-30T10:22:08.000Z</time>
      </trkpt>
      <trkpt lat="47.45413" lon="6.93405">
        <ele>592</ele>
        <time>2016-10-30T10:22:09.000Z</time>
      </trkpt>
      <trkpt lat="47.45416" lon="6.93408">
        <ele>592</ele>
        <time>2016-10-30T10:22:10.000Z</time>
      </trkpt>
      <trkpt lat="47.45418" lon="6.93411">
        <ele>591</ele>
        <time>2016-10-30T10:22:11.000Z</time>
      </trkpt>
      <trkpt lat="47.45419" lon="6.93414">
        <ele>591</ele>
        <time>2016-10-30T10:22:12.000Z</time>
      </trkpt>
      <trkpt lat="47.45421" lon="6.93419">
        <ele>591</ele>
        <time>2016-10-30T10:22:14.000Z</time>
      </trkpt>
      <trkpt lat="47.45423" lon="6.93421">
        <ele>591</ele>
        <time>2016-10-30T10:22:15.000Z</time>
      </trkpt>
      <trkpt lat="47.45425" lon="6.93424">
        <ele>590</ele>
        <time>2016-10-30T10:22:16.000Z</time>
      </trkpt>
      <trkpt lat="47.45427" lon="6.93427">
        <ele>590</ele>
        <time>2016-10-30T10:22:17.000Z</time>
      </trkpt>
      <trkpt lat="47.4543" lon="6.93431">
        <ele>590</ele>
        <time>2016-10-30T10:22:18.000Z</time>
      </trkpt>
      <trkpt lat="47.45431" lon="6.93435">
        <ele>590</ele>
        <time>2016-10-30T10:22:19.000Z</time>
      </trkpt>
      <trkpt lat="47.45431" lon="6.93439">
        <ele>590</ele>
        <time>2016-10-30T10:22:20.000Z</time>
      </trkpt>
      <trkpt lat="47.4543" lon="6.93442">
        <ele>590</ele>
        <time>2016-10-30T10:22:21.000Z</time>
      </trkpt>
      <trkpt lat="47.45429" lon="6.93446">
        <ele>590</ele>
        <time>2016-10-30T10:22:22.000Z</time>
      </trkpt>
      <trkpt lat="47.45427" lon="6.93449">
        <ele>590</ele>
        <time>2016-10-30T10:22:23.000Z</time>
      </trkpt>
      <trkpt lat="47.45426" lon="6.93455">
        <ele>589</ele>
        <time>2016-10-30T10:22:25.000Z</time>
      </trkpt>
      <trkpt lat="47.45426" lon="6.93459">
        <ele>589</ele>
        <time>2016-10-30T10:22:26.000Z</time>
      </trkpt>
      <trkpt lat="47.45426" lon="6.93463">
        <ele>589</ele>
        <time>2016-10-30T10:22:27.000Z</time>
      </trkpt>
      <trkpt lat="47.45426" lon="6.93467">
        <ele>589</ele>
        <time>2016-10-30T10:22:28.000Z</time>
      </trkpt>
      <trkpt lat="47.45426" lon="6.9347">
        <ele>589</ele>
        <time>2016-10-30T10:22:29.000Z</time>
      </trkpt>
      <trkpt lat="47.45426" lon="6.93474">
        <ele>588</ele>
        <time>2016-10-30T10:22:30.000Z</time>
      </trkpt>
      <trkpt lat="47.45426" lon="6.93478">
        <ele>588</ele>
        <time>2016-10-30T10:22:31.000Z</time>
      </trkpt>
      <trkpt lat="47.45426" lon="6.93481">
        <ele>588</ele>
        <time>2016-10-30T10:22:32.000Z</time>
      </trkpt>
      <trkpt lat="47.45426" lon="6.93485">
        <ele>588</ele>
        <time>2016-10-30T10:22:33.000Z</time>
      </trkpt>
      <trkpt lat="47.45426" lon="6.93488">
        <ele>587</ele>
        <time>2016-10-30T10:22:34.000Z</time>
      </trkpt>
      <trkpt lat="47.45426" lon="6.93491">
        <ele>587</ele>
        <time>2016-10-30T10:22:35.000Z</time>
      </trkpt>
      <trkpt lat="47.45426" lon="6.93495">
        <ele>587</ele>
        <time>2016-10-30T10:22:36.000Z</time>
      </trkpt>
      <trkpt lat="47.45426" lon="6.93499">
        <ele>587</ele>
        <time>2016-10-30T10:22:37.000Z</time>
      </trkpt>
      <trkpt lat="47.45426" lon="6.93503">
        <ele>586</ele>
        <time>2016-10-30T10:22:38.000Z</time>
      </trkpt>
      <trkpt lat="47.45426" lon="6.93507">
        <ele>586</ele>
        <time>2016-10-30T10:22:39.000Z</time>
      </trkpt>
      <trkpt lat="47.45427" lon="6.93511">
        <ele>587</ele>
        <time>2016-10-30T10:22:40.000Z</time>
      </trkpt>
      <trkpt lat="47.45427" lon="6.93517">
        <ele>587</ele>
        <time>2016-10-30T10:22:41.000Z</time>
      </trkpt>
      <trkpt lat="47.45431" lon="6.93531">
        <ele>587</ele>
        <time>2016-10-30T10:22:42.000Z</time>
      </trkpt>
      <trkpt lat="47.45431" lon="6.93537">
        <ele>587</ele>
        <time>2016-10-30T10:22:43.000Z</time>
      </trkpt>
      <trkpt lat="47.4543" lon="6.93543">
        <ele>587</ele>
        <time>2016-10-30T10:22:44.000Z</time>
      </trkpt>
      <trkpt lat="47.45432" lon="6.9355">
        <ele>587</ele>
        <time>2016-10-30T10:22:45.000Z</time>
      </trkpt>
      <trkpt lat="47.45432" lon="6.93556">
        <ele>587</ele>
        <time>2016-10-30T10:22:46.000Z</time>
      </trkpt>
      <trkpt lat="47.45432" lon="6.93561">
        <ele>586</ele>
        <time>2016-10-30T10:22:47.000Z</time>
      </trkpt>
      <trkpt lat="47.45434" lon="6.9357">
        <ele>586</ele>
        <time>2016-10-30T10:22:48.000Z</time>
      </trkpt>
      <trkpt lat="47.45434" lon="6.93577">
        <ele>585</ele>
        <time>2016-10-30T10:22:49.000Z</time>
      </trkpt>
      <trkpt lat="47.45434" lon="6.93584">
        <ele>584</ele>
        <time>2016-10-30T10:22:50.000Z</time>
      </trkpt>
      <trkpt lat="47.45434" lon="6.93591">
        <ele>584</ele>
        <time>2016-10-30T10:22:51.000Z</time>
      </trkpt>
      <trkpt lat="47.45435" lon="6.93597">
        <ele>585</ele>
        <time>2016-10-30T10:22:52.000Z</time>
      </trkpt>
      <trkpt lat="47.45435" lon="6.93605">
        <ele>585</ele>
        <time>2016-10-30T10:22:53.000Z</time>
      </trkpt>
      <trkpt lat="47.45436" lon="6.93613">
        <ele>585</ele>
        <time>2016-10-30T10:22:54.000Z</time>
      </trkpt>
      <trkpt lat="47.45437" lon="6.93618">
        <ele>585</ele>
        <time>2016-10-30T10:22:55.000Z</time>
      </trkpt>
      <trkpt lat="47.45439" lon="6.93623">
        <ele>585</ele>
        <time>2016-10-30T10:22:56.000Z</time>
      </trkpt>
      <trkpt lat="47.4544" lon="6.93627">
        <ele>585</ele>
        <time>2016-10-30T10:22:57.000Z</time>
      </trkpt>
      <trkpt lat="47.4544" lon="6.93631">
        <ele>585</ele>
        <time>2016-10-30T10:22:58.000Z</time>
      </trkpt>
      <trkpt lat="47.45442" lon="6.93636">
        <ele>585</ele>
        <time>2016-10-30T10:22:59.000Z</time>
      </trkpt>
      <trkpt lat="47.45442" lon="6.93646">
        <ele>585</ele>
        <time>2016-10-30T10:23:00.000Z</time>
      </trkpt>
      <trkpt lat="47.4544" lon="6.93648">
        <ele>584</ele>
        <time>2016-10-30T10:23:01.000Z</time>
      </trkpt>
      <trkpt lat="47.4544" lon="6.93654">
        <ele>584</ele>
        <time>2016-10-30T10:23:02.000Z</time>
      </trkpt>
      <trkpt lat="47.4544" lon="6.93658">
        <ele>584</ele>
        <time>2016-10-30T10:23:03.000Z</time>
      </trkpt>
      <trkpt lat="47.4544" lon="6.93662">
        <ele>583</ele>
        <time>2016-10-30T10:23:04.000Z</time>
      </trkpt>
      <trkpt lat="47.4544" lon="6.93665">
        <ele>583</ele>
        <time>2016-10-30T10:23:05.000Z</time>
      </trkpt>
      <trkpt lat="47.4544" lon="6.93671">
        <ele>582</ele>
        <time>2016-10-30T10:23:06.000Z</time>
      </trkpt>
      <trkpt lat="47.45441" lon="6.93676">
        <ele>582</ele>
        <time>2016-10-30T10:23:07.000Z</time>
      </trkpt>
      <trkpt lat="47.45441" lon="6.93683">
        <ele>582</ele>
        <time>2016-10-30T10:23:08.000Z</time>
      </trkpt>
      <trkpt lat="47.45442" lon="6.9369">
        <ele>583</ele>
        <time>2016-10-30T10:23:09.000Z</time>
      </trkpt>
      <trkpt lat="47.45441" lon="6.93696">
        <ele>583</ele>
        <time>2016-10-30T10:23:10.000Z</time>
      </trkpt>
      <trkpt lat="47.45441" lon="6.93701">
        <ele>583</ele>
        <time>2016-10-30T10:23:11.000Z</time>
      </trkpt>
      <trkpt lat="47.45441" lon="6.93708">
        <ele>583</ele>
        <time>2016-10-30T10:23:12.000Z</time>
      </trkpt>
      <trkpt lat="47.45441" lon="6.93713">
        <ele>583</ele>
        <time>2016-10-30T10:23:13.000Z</time>
      </trkpt>
      <trkpt lat="47.45441" lon="6.93719">
        <ele>583</ele>
        <time>2016-10-30T10:23:14.000Z</time>
      </trkpt>
      <trkpt lat="47.45441" lon="6.93723">
        <ele>583</ele>
        <time>2016-10-30T10:23:15.000Z</time>
      </trkpt>
      <trkpt lat="47.45441" lon="6.93728">
        <ele>582</ele>
        <time>2016-10-30T10:23:16.000Z</time>
      </trkpt>
      <trkpt lat="47.45441" lon="6.93733">
        <ele>582</ele>
        <time>2016-10-30T10:23:17.000Z</time>
      </trkpt>
      <trkpt lat="47.45442" lon="6.93738">
        <ele>582</ele>
        <time>2016-10-30T10:23:18.000Z</time>
      </trkpt>
      <trkpt lat="47.45443" lon="6.93744">
        <ele>582</ele>
        <time>2016-10-30T10:23:19.000Z</time>
      </trkpt>
      <trkpt lat="47.45444" lon="6.93749">
        <ele>582</ele>
        <time>2016-10-30T10:23:20.000Z</time>
      </trkpt>
      <trkpt lat="47.45446" lon="6.93754">
        <ele>582</ele>
        <time>2016-10-30T10:23:21.000Z</time>
      </trkpt>
      <trkpt lat="47.45448" lon="6.93759">
        <ele>582</ele>
        <time>2016-10-30T10:23:22.000Z</time>
      </trkpt>
      <trkpt lat="47.4545" lon="6.93764">
        <ele>583</ele>
        <time>2016-10-30T10:23:23.000Z</time>
      </trkpt>
      <trkpt lat="47.45452" lon="6.93769">
        <ele>583</ele>
        <time>2016-10-30T10:23:24.000Z</time>
      </trkpt>
      <trkpt lat="47.45454" lon="6.93774">
        <ele>583</ele>
        <time>2016-10-30T10:23:25.000Z</time>
      </trkpt>
      <trkpt lat="47.45455" lon="6.93778">
        <ele>583</ele>
        <time>2016-10-30T10:23:26.000Z</time>
      </trkpt>
      <trkpt lat="47.45458" lon="6.93782">
        <ele>584</ele>
        <time>2016-10-30T10:23:27.000Z</time>
      </trkpt>
      <trkpt lat="47.4546" lon="6.93786">
        <ele>584</ele>
        <time>2016-10-30T10:23:28.000Z</time>
      </trkpt>
      <trkpt lat="47.45462" lon="6.93791">
        <ele>584</ele>
        <time>2016-10-30T10:23:29.000Z</time>
      </trkpt>
      <trkpt lat="47.45464" lon="6.93795">
        <ele>584</ele>
        <time>2016-10-30T10:23:30.000Z</time>
      </trkpt>
      <trkpt lat="47.45466" lon="6.93799">
        <ele>584</ele>
        <time>2016-10-30T10:23:31.000Z</time>
      </trkpt>
      <trkpt lat="47.45467" lon="6.93803">
        <ele>584</ele>
        <time>2016-10-30T10:23:32.000Z</time>
      </trkpt>
      <trkpt lat="47.45469" lon="6.93807">
        <ele>585</ele>
        <time>2016-10-30T10:23:33.000Z</time>
      </trkpt>
      <trkpt lat="47.45471" lon="6.93811">
        <ele>585</ele>
        <time>2016-10-30T10:23:34.000Z</time>
      </trkpt>
      <trkpt lat="47.45472" lon="6.93816">
        <ele>585</ele>
        <time>2016-10-30T10:23:35.000Z</time>
      </trkpt>
      <trkpt lat="47.45472" lon="6.9382">
        <ele>585</ele>
        <time>2016-10-30T10:23:36.000Z</time>
      </trkpt>
      <trkpt lat="47.45473" lon="6.93825">
        <ele>585</ele>
        <time>2016-10-30T10:23:37.000Z</time>
      </trkpt>
      <trkpt lat="47.45474" lon="6.93828">
        <ele>586</ele>
        <time>2016-10-30T10:23:38.000Z</time>
      </trkpt>
      <trkpt lat="47.45475" lon="6.93832">
        <ele>586</ele>
        <time>2016-10-30T10:23:39.000Z</time>
      </trkpt>
      <trkpt lat="47.45477" lon="6.93835">
        <ele>586</ele>
        <time>2016-10-30T10:23:40.000Z</time>
      </trkpt>
      <trkpt lat="47.4548" lon="6.93837">
        <ele>587</ele>
        <time>2016-10-30T10:23:41.000Z</time>
      </trkpt>
      <trkpt lat="47.45483" lon="6.9384">
        <ele>587</ele>
        <time>2016-10-30T10:23:42.000Z</time>
      </trkpt>
      <trkpt lat="47.45486" lon="6.93843">
        <ele>587</ele>
        <time>2016-10-30T10:23:43.000Z</time>
      </trkpt>
      <trkpt lat="47.45489" lon="6.93846">
        <ele>587</ele>
        <time>2016-10-30T10:23:44.000Z</time>
      </trkpt>
      <trkpt lat="47.45492" lon="6.93848">
        <ele>587</ele>
        <time>2016-10-30T10:23:45.000Z</time>
      </trkpt>
      <trkpt lat="47.45495" lon="6.9385">
        <ele>587</ele>
        <time>2016-10-30T10:23:46.000Z</time>
      </trkpt>
      <trkpt lat="47.45498" lon="6.9385">
        <ele>587</ele>
        <time>2016-10-30T10:23:47.000Z</time>
      </trkpt>
      <trkpt lat="47.45501" lon="6.93849">
        <ele>590</ele>
        <time>2016-10-30T10:23:48.000Z</time>
      </trkpt>
      <trkpt lat="47.45504" lon="6.93849">
        <ele>590</ele>
        <time>2016-10-30T10:23:49.000Z</time>
      </trkpt>
      <trkpt lat="47.45507" lon="6.93848">
        <ele>590</ele>
        <time>2016-10-30T10:23:50.000Z</time>
      </trkpt>
      <trkpt lat="47.4551" lon="6.93848">
        <ele>590</ele>
        <time>2016-10-30T10:23:51.000Z</time>
      </trkpt>
      <trkpt lat="47.45513" lon="6.93847">
        <ele>590</ele>
        <time>2016-10-30T10:23:52.000Z</time>
      </trkpt>
      <trkpt lat="47.45516" lon="6.93845">
        <ele>590</ele>
        <time>2016-10-30T10:23:53.000Z</time>
      </trkpt>
      <trkpt lat="47.4552" lon="6.93843">
        <ele>590</ele>
        <time>2016-10-30T10:23:54.000Z</time>
      </trkpt>
      <trkpt lat="47.45522" lon="6.93841">
        <ele>590</ele>
        <time>2016-10-30T10:23:55.001Z</time>
      </trkpt>
      <trkpt lat="47.45527" lon="6.93839">
        <ele>590</ele>
        <time>2016-10-30T10:23:56.000Z</time>
      </trkpt>
      <trkpt lat="47.4553" lon="6.93837">
        <ele>590</ele>
        <time>2016-10-30T10:23:57.001Z</time>
      </trkpt>
      <trkpt lat="47.45534" lon="6.93836">
        <ele>590</ele>
        <time>2016-10-30T10:23:58.000Z</time>
      </trkpt>
      <trkpt lat="47.45537" lon="6.93835">
        <ele>590</ele>
        <time>2016-10-30T10:23:59.000Z</time>
      </trkpt>
      <trkpt lat="47.45539" lon="6.93834">
        <ele>590</ele>
        <time>2016-10-30T10:24:00.000Z</time>
      </trkpt>
      <trkpt lat="47.45542" lon="6.93837">
        <ele>590</ele>
        <time>2016-10-30T10:24:06.000Z</time>
      </trkpt>
      <trkpt lat="47.45544" lon="6.93838">
        <ele>590</ele>
        <time>2016-10-30T10:24:07.000Z</time>
      </trkpt>
      <trkpt lat="47.45547" lon="6.93839">
        <ele>590</ele>
        <time>2016-10-30T10:24:09.000Z</time>
      </trkpt>
      <trkpt lat="47.45548" lon="6.93839">
        <ele>590</ele>
        <time>2016-10-30T10:24:09.999Z</time>
      </trkpt>
      <trkpt lat="47.45553" lon="6.93841">
        <ele>590</ele>
        <time>2016-10-30T10:24:11.000Z</time>
      </trkpt>
      <trkpt lat="47.45562" lon="6.93842">
        <ele>590</ele>
        <time>2016-10-30T10:24:12.000Z</time>
      </trkpt>
      <trkpt lat="47.45567" lon="6.93839">
        <ele>590</ele>
        <time>2016-10-30T10:24:13.000Z</time>
      </trkpt>
      <trkpt lat="47.45574" lon="6.93838">
        <ele>590</ele>
        <time>2016-10-30T10:24:14.000Z</time>
      </trkpt>
      <trkpt lat="47.45578" lon="6.93837">
        <ele>590</ele>
        <time>2016-10-30T10:24:15.000Z</time>
      </trkpt>
      <trkpt lat="47.45583" lon="6.93838">
        <ele>590</ele>
        <time>2016-10-30T10:24:16.000Z</time>
      </trkpt>
      <trkpt lat="47.45588" lon="6.93837">
        <ele>589</ele>
        <time>2016-10-30T10:24:17.000Z</time>
      </trkpt>
      <trkpt lat="47.45595" lon="6.93836">
        <ele>588</ele>
        <time>2016-10-30T10:24:18.000Z</time>
      </trkpt>
      <trkpt lat="47.45601" lon="6.93835">
        <ele>587</ele>
        <time>2016-10-30T10:24:19.000Z</time>
      </trkpt>
      <trkpt lat="47.45605" lon="6.93833">
        <ele>587</ele>
        <time>2016-10-30T10:24:20.000Z</time>
      </trkpt>
      <trkpt lat="47.45609" lon="6.93824">
        <ele>586</ele>
        <time>2016-10-30T10:24:21.000Z</time>
      </trkpt>
      <trkpt lat="47.45614" lon="6.93817">
        <ele>586</ele>
        <time>2016-10-30T10:24:22.000Z</time>
      </trkpt>
      <trkpt lat="47.45619" lon="6.93809">
        <ele>585</ele>
        <time>2016-10-30T10:24:23.000Z</time>
      </trkpt>
      <trkpt lat="47.45624" lon="6.93802">
        <ele>585</ele>
        <time>2016-10-30T10:24:24.000Z</time>
      </trkpt>
      <trkpt lat="47.45629" lon="6.93798">
        <ele>585</ele>
        <time>2016-10-30T10:24:25.000Z</time>
      </trkpt>
      <trkpt lat="47.45634" lon="6.93792">
        <ele>584</ele>
        <time>2016-10-30T10:24:26.000Z</time>
      </trkpt>
      <trkpt lat="47.45638" lon="6.93788">
        <ele>584</ele>
        <time>2016-10-30T10:24:27.001Z</time>
      </trkpt>
      <trkpt lat="47.45641" lon="6.93789">
        <ele>584</ele>
        <time>2016-10-30T10:24:28.000Z</time>
      </trkpt>
      <trkpt lat="47.45644" lon="6.93786">
        <ele>584</ele>
        <time>2016-10-30T10:24:29.000Z</time>
      </trkpt>
      <trkpt lat="47.45647" lon="6.93785">
        <ele>584</ele>
        <time>2016-10-30T10:24:30.000Z</time>
      </trkpt>
      <trkpt lat="47.45649" lon="6.93783">
        <ele>584</ele>
        <time>2016-10-30T10:24:31.000Z</time>
      </trkpt>
      <trkpt lat="47.45651" lon="6.93782">
        <ele>584</ele>
        <time>2016-10-30T10:24:32.000Z</time>
      </trkpt>
      <trkpt lat="47.45654" lon="6.93781">
        <ele>584</ele>
        <time>2016-10-30T10:24:33.000Z</time>
      </trkpt>
      <trkpt lat="47.45656" lon="6.93781">
        <ele>584</ele>
        <time>2016-10-30T10:24:34.000Z</time>
      </trkpt>
      <trkpt lat="47.45659" lon="6.9378">
        <ele>583</ele>
        <time>2016-10-30T10:24:35.000Z</time>
      </trkpt>
      <trkpt lat="47.45662" lon="6.9378">
        <ele>583</ele>
        <time>2016-10-30T10:24:37.000Z</time>
      </trkpt>
      <trkpt lat="47.45664" lon="6.9378">
        <ele>583</ele>
        <time>2016-10-30T10:24:37.999Z</time>
      </trkpt>
      <trkpt lat="47.45666" lon="6.93777">
        <ele>583</ele>
        <time>2016-10-30T10:24:39.000Z</time>
      </trkpt>
      <trkpt lat="47.45668" lon="6.93774">
        <ele>581</ele>
        <time>2016-10-30T10:24:40.000Z</time>
      </trkpt>
      <trkpt lat="47.45671" lon="6.93771">
        <ele>581</ele>
        <time>2016-10-30T10:24:41.000Z</time>
      </trkpt>
      <trkpt lat="47.45674" lon="6.93768">
        <ele>581</ele>
        <time>2016-10-30T10:24:42.000Z</time>
      </trkpt>
      <trkpt lat="47.45676" lon="6.93766">
        <ele>581</ele>
        <time>2016-10-30T10:24:43.000Z</time>
      </trkpt>
      <trkpt lat="47.45679" lon="6.93764">
        <ele>581</ele>
        <time>2016-10-30T10:24:44.000Z</time>
      </trkpt>
      <trkpt lat="47.45682" lon="6.93762">
        <ele>581</ele>
        <time>2016-10-30T10:24:45.000Z</time>
      </trkpt>
      <trkpt lat="47.45685" lon="6.93762">
        <ele>581</ele>
        <time>2016-10-30T10:24:46.000Z</time>
      </trkpt>
      <trkpt lat="47.45688" lon="6.93762">
        <ele>581</ele>
        <time>2016-10-30T10:24:47.000Z</time>
      </trkpt>
      <trkpt lat="47.45691" lon="6.93765">
        <ele>581</ele>
        <time>2016-10-30T10:24:48.000Z</time>
      </trkpt>
      <trkpt lat="47.45693" lon="6.9377">
        <ele>580</ele>
        <time>2016-10-30T10:24:50.000Z</time>
      </trkpt>
      <trkpt lat="47.45693" lon="6.93772">
        <ele>580</ele>
        <time>2016-10-30T10:24:50.999Z</time>
      </trkpt>
      <trkpt lat="47.45692" lon="6.93776">
        <ele>580</ele>
        <time>2016-10-30T10:24:52.000Z</time>
      </trkpt>
      <trkpt lat="47.45693" lon="6.9378">
        <ele>580</ele>
        <time>2016-10-30T10:24:53.000Z</time>
      </trkpt>
      <trkpt lat="47.45693" lon="6.93786">
        <ele>580</ele>
        <time>2016-10-30T10:24:55.001Z</time>
      </trkpt>
      <trkpt lat="47.45693" lon="6.93788">
        <ele>580</ele>
        <time>2016-10-30T10:24:56.000Z</time>
      </trkpt>
      <trkpt lat="47.45694" lon="6.93793">
        <ele>580</ele>
        <time>2016-10-30T10:24:58.000Z</time>
      </trkpt>
      <trkpt lat="47.45695" lon="6.93795">
        <ele>580</ele>
        <time>2016-10-30T10:24:59.000Z</time>
      </trkpt>
      <trkpt lat="47.45697" lon="6.93799">
        <ele>580</ele>
        <time>2016-10-30T10:25:01.000Z</time>
      </trkpt>
      <trkpt lat="47.45698" lon="6.93801">
        <ele>580</ele>
        <time>2016-10-30T10:25:02.000Z</time>
      </trkpt>
      <trkpt lat="47.457" lon="6.93805">
        <ele>580</ele>
        <time>2016-10-30T10:25:04.000Z</time>
      </trkpt>
      <trkpt lat="47.45701" lon="6.93807">
        <ele>580</ele>
        <time>2016-10-30T10:25:05.000Z</time>
      </trkpt>
      <trkpt lat="47.45703" lon="6.93811">
        <ele>580</ele>
        <time>2016-10-30T10:25:07.000Z</time>
      </trkpt>
      <trkpt lat="47.45706" lon="6.93814">
        <ele>580</ele>
        <time>2016-10-30T10:25:08.000Z</time>
      </trkpt>
      <trkpt lat="47.45707" lon="6.93817">
        <ele>580</ele>
        <time>2016-10-30T10:25:09.000Z</time>
      </trkpt>
      <trkpt lat="47.45709" lon="6.9382">
        <ele>580</ele>
        <time>2016-10-30T10:25:10.000Z</time>
      </trkpt>
      <trkpt lat="47.45712" lon="6.93824">
        <ele>580</ele>
        <time>2016-10-30T10:25:11.000Z</time>
      </trkpt>
      <trkpt lat="47.45714" lon="6.93826">
        <ele>580</ele>
        <time>2016-10-30T10:25:12.000Z</time>
      </trkpt>
      <trkpt lat="47.45716" lon="6.93831">
        <ele>580</ele>
        <time>2016-10-30T10:25:15.000Z</time>
      </trkpt>
      <trkpt lat="47.45717" lon="6.93832">
        <ele>580</ele>
        <time>2016-10-30T10:25:16.000Z</time>
      </trkpt>
      <trkpt lat="47.45719" lon="6.93836">
        <ele>579</ele>
        <time>2016-10-30T10:25:18.000Z</time>
      </trkpt>
      <trkpt lat="47.45721" lon="6.93838">
        <ele>579</ele>
        <time>2016-10-30T10:25:19.000Z</time>
      </trkpt>
      <trkpt lat="47.45723" lon="6.93841">
        <ele>579</ele>
        <time>2016-10-30T10:25:20.000Z</time>
      </trkpt>
      <trkpt lat="47.45726" lon="6.93843">
        <ele>579</ele>
        <time>2016-10-30T10:25:21.000Z</time>
      </trkpt>
      <trkpt lat="47.45727" lon="6.93845">
        <ele>579</ele>
        <time>2016-10-30T10:25:22.000Z</time>
      </trkpt>
      <trkpt lat="47.4573" lon="6.93848">
        <ele>579</ele>
        <time>2016-10-30T10:25:23.000Z</time>
      </trkpt>
      <trkpt lat="47.45732" lon="6.93851">
        <ele>579</ele>
        <time>2016-10-30T10:25:24.000Z</time>
      </trkpt>
      <trkpt lat="47.45734" lon="6.93855">
        <ele>579</ele>
        <time>2016-10-30T10:25:25.000Z</time>
      </trkpt>
      <trkpt lat="47.45736" lon="6.93859">
        <ele>579</ele>
        <time>2016-10-30T10:25:26.000Z</time>
      </trkpt>
      <trkpt lat="47.45738" lon="6.93863">
        <ele>579</ele>
        <time>2016-10-30T10:25:27.000Z</time>
      </trkpt>
      <trkpt lat="47.45741" lon="6.93867">
        <ele>579</ele>
        <time>2016-10-30T10:25:28.000Z</time>
      </trkpt>
      <trkpt lat="47.45743" lon="6.9387">
        <ele>579</ele>
        <time>2016-10-30T10:25:29.000Z</time>
      </trkpt>
      <trkpt lat="47.45746" lon="6.93875">
        <ele>579</ele>
        <time>2016-10-30T10:25:30.000Z</time>
      </trkpt>
      <trkpt lat="47.45749" lon="6.93879">
        <ele>579</ele>
        <time>2016-10-30T10:25:31.000Z</time>
      </trkpt>
      <trkpt lat="47.45752" lon="6.93883">
        <ele>580</ele>
        <time>2016-10-30T10:25:32.000Z</time>
      </trkpt>
      <trkpt lat="47.45755" lon="6.93885">
        <ele>580</ele>
        <time>2016-10-30T10:25:33.000Z</time>
      </trkpt>
      <trkpt lat="47.45758" lon="6.9389">
        <ele>580</ele>
        <time>2016-10-30T10:25:34.000Z</time>
      </trkpt>
      <trkpt lat="47.45759" lon="6.93893">
        <ele>580</ele>
        <time>2016-10-30T10:25:35.000Z</time>
      </trkpt>
      <trkpt lat="47.45761" lon="6.93897">
        <ele>580</ele>
        <time>2016-10-30T10:25:36.000Z</time>
      </trkpt>
      <trkpt lat="47.45763" lon="6.93899">
        <ele>580</ele>
        <time>2016-10-30T10:25:37.000Z</time>
      </trkpt>
      <trkpt lat="47.45765" lon="6.93904">
        <ele>580</ele>
        <time>2016-10-30T10:25:38.000Z</time>
      </trkpt>
      <trkpt lat="47.45767" lon="6.93907">
        <ele>580</ele>
        <time>2016-10-30T10:25:39.000Z</time>
      </trkpt>
      <trkpt lat="47.45769" lon="6.93911">
        <ele>580</ele>
        <time>2016-10-30T10:25:40.000Z</time>
      </trkpt>
      <trkpt lat="47.45771" lon="6.93914">
        <ele>580</ele>
        <time>2016-10-30T10:25:41.000Z</time>
      </trkpt>
      <trkpt lat="47.45773" lon="6.93917">
        <ele>580</ele>
        <time>2016-10-30T10:25:42.000Z</time>
      </trkpt>
      <trkpt lat="47.45774" lon="6.93918">
        <ele>579</ele>
        <time>2016-10-30T10:25:42.999Z</time>
      </trkpt>
      <trkpt lat="47.45777" lon="6.93922">
        <ele>578</ele>
        <time>2016-10-30T10:25:44.000Z</time>
      </trkpt>
      <trkpt lat="47.45779" lon="6.93924">
        <ele>578</ele>
        <time>2016-10-30T10:25:45.000Z</time>
      </trkpt>
      <trkpt lat="47.45781" lon="6.93925">
        <ele>578</ele>
        <time>2016-10-30T10:25:45.999Z</time>
      </trkpt>
      <trkpt lat="47.45785" lon="6.93928">
        <ele>578</ele>
        <time>2016-10-30T10:25:47.000Z</time>
      </trkpt>
      <trkpt lat="47.45787" lon="6.93929">
        <ele>578</ele>
        <time>2016-10-30T10:25:47.999Z</time>
      </trkpt>
      <trkpt lat="47.4579" lon="6.9393">
        <ele>579</ele>
        <time>2016-10-30T10:25:49.000Z</time>
      </trkpt>
      <trkpt lat="47.45794" lon="6.93933">
        <ele>579</ele>
        <time>2016-10-30T10:25:50.000Z</time>
      </trkpt>
      <trkpt lat="47.45797" lon="6.93935">
        <ele>579</ele>
        <time>2016-10-30T10:25:51.000Z</time>
      </trkpt>
      <trkpt lat="47.45799" lon="6.93936">
        <ele>579</ele>
        <time>2016-10-30T10:25:52.000Z</time>
      </trkpt>
      <trkpt lat="47.45802" lon="6.93939">
        <ele>579</ele>
        <time>2016-10-30T10:25:53.000Z</time>
      </trkpt>
      <trkpt lat="47.45805" lon="6.93941">
        <ele>579</ele>
        <time>2016-10-30T10:25:54.000Z</time>
      </trkpt>
      <trkpt lat="47.45808" lon="6.93944">
        <ele>579</ele>
        <time>2016-10-30T10:25:55.000Z</time>
      </trkpt>
      <trkpt lat="47.45815" lon="6.93953">
        <ele>578</ele>
        <time>2016-10-30T10:25:56.000Z</time>
      </trkpt>
      <trkpt lat="47.45818" lon="6.93953">
        <ele>578</ele>
        <time>2016-10-30T10:25:58.000Z</time>
      </trkpt>
      <trkpt lat="47.45823" lon="6.93958">
        <ele>578</ele>
        <time>2016-10-30T10:25:59.000Z</time>
      </trkpt>
      <trkpt lat="47.45829" lon="6.93962">
        <ele>578</ele>
        <time>2016-10-30T10:26:00.000Z</time>
      </trkpt>
      <trkpt lat="47.45833" lon="6.93964">
        <ele>578</ele>
        <time>2016-10-30T10:26:01.000Z</time>
      </trkpt>
      <trkpt lat="47.45837" lon="6.93968">
        <ele>577</ele>
        <time>2016-10-30T10:26:02.000Z</time>
      </trkpt>
      <trkpt lat="47.45841" lon="6.93972">
        <ele>577</ele>
        <time>2016-10-30T10:26:03.000Z</time>
      </trkpt>
      <trkpt lat="47.45844" lon="6.93976">
        <ele>577</ele>
        <time>2016-10-30T10:26:04.000Z</time>
      </trkpt>
      <trkpt lat="47.45849" lon="6.93979">
        <ele>577</ele>
        <time>2016-10-30T10:26:05.000Z</time>
      </trkpt>
      <trkpt lat="47.45854" lon="6.93983">
        <ele>576</ele>
        <time>2016-10-30T10:26:06.000Z</time>
      </trkpt>
      <trkpt lat="47.45858" lon="6.93987">
        <ele>576</ele>
        <time>2016-10-30T10:26:07.000Z</time>
      </trkpt>
      <trkpt lat="47.45862" lon="6.9399">
        <ele>576</ele>
        <time>2016-10-30T10:26:08.000Z</time>
      </trkpt>
      <trkpt lat="47.45866" lon="6.93993">
        <ele>576</ele>
        <time>2016-10-30T10:26:09.000Z</time>
      </trkpt>
      <trkpt lat="47.4587" lon="6.93996">
        <ele>576</ele>
        <time>2016-10-30T10:26:10.000Z</time>
      </trkpt>
      <trkpt lat="47.45873" lon="6.93997">
        <ele>576</ele>
        <time>2016-10-30T10:26:11.000Z</time>
      </trkpt>
      <trkpt lat="47.45877" lon="6.93998">
        <ele>575</ele>
        <time>2016-10-30T10:26:12.000Z</time>
      </trkpt>
      <trkpt lat="47.4588" lon="6.93999">
        <ele>575</ele>
        <time>2016-10-30T10:26:13.000Z</time>
      </trkpt>
      <trkpt lat="47.45884" lon="6.94">
        <ele>572</ele>
        <time>2016-10-30T10:26:13.999Z</time>
      </trkpt>
      <trkpt lat="47.45886" lon="6.93999">
        <ele>575</ele>
        <time>2016-10-30T10:26:15.000Z</time>
      </trkpt>
      <trkpt lat="47.45889" lon="6.93997">
        <ele>575</ele>
        <time>2016-10-30T10:26:16.000Z</time>
      </trkpt>
      <trkpt lat="47.45891" lon="6.93995">
        <ele>574</ele>
        <time>2016-10-30T10:26:17.000Z</time>
      </trkpt>
      <trkpt lat="47.45893" lon="6.93991">
        <ele>574</ele>
        <time>2016-10-30T10:26:18.000Z</time>
      </trkpt>
      <trkpt lat="47.45894" lon="6.93987">
        <ele>574</ele>
        <time>2016-10-30T10:26:19.000Z</time>
      </trkpt>
      <trkpt lat="47.45894" lon="6.93983">
        <ele>575</ele>
        <time>2016-10-30T10:26:20.000Z</time>
      </trkpt>
      <trkpt lat="47.45894" lon="6.93978">
        <ele>575</ele>
        <time>2016-10-30T10:26:21.000Z</time>
      </trkpt>
      <trkpt lat="47.45894" lon="6.93975">
        <ele>575</ele>
        <time>2016-10-30T10:26:22.000Z</time>
      </trkpt>
      <trkpt lat="47.45895" lon="6.9397">
        <ele>575</ele>
        <time>2016-10-30T10:26:24.000Z</time>
      </trkpt>
      <trkpt lat="47.45895" lon="6.93968">
        <ele>575</ele>
        <time>2016-10-30T10:26:25.000Z</time>
      </trkpt>
      <trkpt lat="47.45899" lon="6.93965">
        <ele>575</ele>
        <time>2016-10-30T10:26:29.000Z</time>
      </trkpt>
      <trkpt lat="47.459" lon="6.93963">
        <ele>575</ele>
        <time>2016-10-30T10:26:30.000Z</time>
      </trkpt>
      <trkpt lat="47.45903" lon="6.93959">
        <ele>575</ele>
        <time>2016-10-30T10:26:32.000Z</time>
      </trkpt>
      <trkpt lat="47.45905" lon="6.93956">
        <ele>575</ele>
        <time>2016-10-30T10:26:33.000Z</time>
      </trkpt>
      <trkpt lat="47.45907" lon="6.93952">
        <ele>575</ele>
        <time>2016-10-30T10:26:34.000Z</time>
      </trkpt>
      <trkpt lat="47.45908" lon="6.93948">
        <ele>575</ele>
        <time>2016-10-30T10:26:35.000Z</time>
      </trkpt>
      <trkpt lat="47.4591" lon="6.93944">
        <ele>575</ele>
        <time>2016-10-30T10:26:36.000Z</time>
      </trkpt>
      <trkpt lat="47.45912" lon="6.9394">
        <ele>575</ele>
        <time>2016-10-30T10:26:37.000Z</time>
      </trkpt>
      <trkpt lat="47.45914" lon="6.93937">
        <ele>575</ele>
        <time>2016-10-30T10:26:38.000Z</time>
      </trkpt>
      <trkpt lat="47.45916" lon="6.93934">
        <ele>575</ele>
        <time>2016-10-30T10:26:39.000Z</time>
      </trkpt>
      <trkpt lat="47.45918" lon="6.93931">
        <ele>573</ele>
        <time>2016-10-30T10:26:40.000Z</time>
      </trkpt>
      <trkpt lat="47.4592" lon="6.93928">
        <ele>574</ele>
        <time>2016-10-30T10:26:41.001Z</time>
      </trkpt>
      <trkpt lat="47.45922" lon="6.93925">
        <ele>574</ele>
        <time>2016-10-30T10:26:42.000Z</time>
      </trkpt>
      <trkpt lat="47.45924" lon="6.93923">
        <ele>574</ele>
        <time>2016-10-30T10:26:43.000Z</time>
      </trkpt>
      <trkpt lat="47.45926" lon="6.93921">
        <ele>574</ele>
        <time>2016-10-30T10:26:44.000Z</time>
      </trkpt>
      <trkpt lat="47.45928" lon="6.9392">
        <ele>574</ele>
        <time>2016-10-30T10:26:45.000Z</time>
      </trkpt>
      <trkpt lat="47.45931" lon="6.93919">
        <ele>574</ele>
        <time>2016-10-30T10:26:46.000Z</time>
      </trkpt>
      <trkpt lat="47.45933" lon="6.93919">
        <ele>573</ele>
        <time>2016-10-30T10:26:47.000Z</time>
      </trkpt>
      <trkpt lat="47.45936" lon="6.93919">
        <ele>573</ele>
        <time>2016-10-30T10:26:48.000Z</time>
      </trkpt>
      <trkpt lat="47.4594" lon="6.93918">
        <ele>573</ele>
        <time>2016-10-30T10:26:49.000Z</time>
      </trkpt>
      <trkpt lat="47.45943" lon="6.93917">
        <ele>575</ele>
        <time>2016-10-30T10:26:50.000Z</time>
      </trkpt>
      <trkpt lat="47.45946" lon="6.93915">
        <ele>575</ele>
        <time>2016-10-30T10:26:51.000Z</time>
      </trkpt>
      <trkpt lat="47.4595" lon="6.93913">
        <ele>575</ele>
        <time>2016-10-30T10:26:52.000Z</time>
      </trkpt>
      <trkpt lat="47.45954" lon="6.93912">
        <ele>575</ele>
        <time>2016-10-30T10:26:53.000Z</time>
      </trkpt>
      <trkpt lat="47.45957" lon="6.9391">
        <ele>575</ele>
        <time>2016-10-30T10:26:54.000Z</time>
      </trkpt>
      <trkpt lat="47.4596" lon="6.93908">
        <ele>575</ele>
        <time>2016-10-30T10:26:55.000Z</time>
      </trkpt>
      <trkpt lat="47.4597" lon="6.93902">
        <ele>575</ele>
        <time>2016-10-30T10:26:56.000Z</time>
      </trkpt>
      <trkpt lat="47.45973" lon="6.939">
        <ele>575</ele>
        <time>2016-10-30T10:26:57.000Z</time>
      </trkpt>
      <trkpt lat="47.45976" lon="6.93897">
        <ele>575</ele>
        <time>2016-10-30T10:26:58.000Z</time>
      </trkpt>
      <trkpt lat="47.4598" lon="6.93895">
        <ele>575</ele>
        <time>2016-10-30T10:26:59.000Z</time>
      </trkpt>
      <trkpt lat="47.45983" lon="6.93892">
        <ele>575</ele>
        <time>2016-10-30T10:27:00.001Z</time>
      </trkpt>
      <trkpt lat="47.4599" lon="6.93892">
        <ele>574</ele>
        <time>2016-10-30T10:27:01.000Z</time>
      </trkpt>
      <trkpt lat="47.45996" lon="6.93891">
        <ele>574</ele>
        <time>2016-10-30T10:27:02.000Z</time>
      </trkpt>
      <trkpt lat="47.46" lon="6.93891">
        <ele>574</ele>
        <time>2016-10-30T10:27:03.000Z</time>
      </trkpt>
      <trkpt lat="47.46006" lon="6.93892">
        <ele>574</ele>
        <time>2016-10-30T10:27:04.000Z</time>
      </trkpt>
      <trkpt lat="47.4601" lon="6.93893">
        <ele>574</ele>
        <time>2016-10-30T10:27:05.000Z</time>
      </trkpt>
      <trkpt lat="47.46015" lon="6.93895">
        <ele>574</ele>
        <time>2016-10-30T10:27:06.000Z</time>
      </trkpt>
      <trkpt lat="47.46022" lon="6.939">
        <ele>574</ele>
        <time>2016-10-30T10:27:07.000Z</time>
      </trkpt>
      <trkpt lat="47.46026" lon="6.93901">
        <ele>574</ele>
        <time>2016-10-30T10:27:08.000Z</time>
      </trkpt>
      <trkpt lat="47.46032" lon="6.939">
        <ele>574</ele>
        <time>2016-10-30T10:27:09.000Z</time>
      </trkpt>
      <trkpt lat="47.46038" lon="6.93901">
        <ele>574</ele>
        <time>2016-10-30T10:27:10.000Z</time>
      </trkpt>
      <trkpt lat="47.46043" lon="6.93902">
        <ele>574</ele>
        <time>2016-10-30T10:27:11.000Z</time>
      </trkpt>
      <trkpt lat="47.46046" lon="6.93904">
        <ele>574</ele>
        <time>2016-10-30T10:27:12.000Z</time>
      </trkpt>
      <trkpt lat="47.46053" lon="6.93906">
        <ele>573</ele>
        <time>2016-10-30T10:27:13.000Z</time>
      </trkpt>
      <trkpt lat="47.46059" lon="6.93909">
        <ele>573</ele>
        <time>2016-10-30T10:27:14.000Z</time>
      </trkpt>
      <trkpt lat="47.46064" lon="6.9391">
        <ele>573</ele>
        <time>2016-10-30T10:27:15.000Z</time>
      </trkpt>
      <trkpt lat="47.46072" lon="6.93911">
        <ele>573</ele>
        <time>2016-10-30T10:27:16.000Z</time>
      </trkpt>
      <trkpt lat="47.4608" lon="6.93911">
        <ele>572</ele>
        <time>2016-10-30T10:27:17.000Z</time>
      </trkpt>
      <trkpt lat="47.46088" lon="6.93911">
        <ele>572</ele>
        <time>2016-10-30T10:27:18.000Z</time>
      </trkpt>
      <trkpt lat="47.46094" lon="6.93911">
        <ele>573</ele>
        <time>2016-10-30T10:27:19.000Z</time>
      </trkpt>
      <trkpt lat="47.46101" lon="6.93911">
        <ele>573</ele>
        <time>2016-10-30T10:27:20.000Z</time>
      </trkpt>
      <trkpt lat="47.46107" lon="6.93913">
        <ele>573</ele>
        <time>2016-10-30T10:27:21.000Z</time>
      </trkpt>
      <trkpt lat="47.46113" lon="6.93915">
        <ele>573</ele>
        <time>2016-10-30T10:27:22.000Z</time>
      </trkpt>
      <trkpt lat="47.4612" lon="6.93917">
        <ele>571</ele>
        <time>2016-10-30T10:27:23.000Z</time>
      </trkpt>
      <trkpt lat="47.46124" lon="6.93921">
        <ele>571</ele>
        <time>2016-10-30T10:27:24.000Z</time>
      </trkpt>
      <trkpt lat="47.46129" lon="6.93921">
        <ele>571</ele>
        <time>2016-10-30T10:27:25.000Z</time>
      </trkpt>
      <trkpt lat="47.46132" lon="6.93923">
        <ele>571</ele>
        <time>2016-10-30T10:27:26.000Z</time>
      </trkpt>
      <trkpt lat="47.46136" lon="6.93926">
        <ele>571</ele>
        <time>2016-10-30T10:27:27.000Z</time>
      </trkpt>
      <trkpt lat="47.46141" lon="6.93928">
        <ele>571</ele>
        <time>2016-10-30T10:27:28.000Z</time>
      </trkpt>
      <trkpt lat="47.46148" lon="6.93928">
        <ele>572</ele>
        <time>2016-10-30T10:27:29.000Z</time>
      </trkpt>
      <trkpt lat="47.46153" lon="6.93929">
        <ele>572</ele>
        <time>2016-10-30T10:27:30.000Z</time>
      </trkpt>
      <trkpt lat="47.46158" lon="6.93928">
        <ele>572</ele>
        <time>2016-10-30T10:27:31.000Z</time>
      </trkpt>
      <trkpt lat="47.46165" lon="6.93927">
        <ele>572</ele>
        <time>2016-10-30T10:27:32.000Z</time>
      </trkpt>
      <trkpt lat="47.46172" lon="6.93928">
        <ele>572</ele>
        <time>2016-10-30T10:27:33.000Z</time>
      </trkpt>
      <trkpt lat="47.46178" lon="6.93929">
        <ele>572</ele>
        <time>2016-10-30T10:27:34.000Z</time>
      </trkpt>
      <trkpt lat="47.46183" lon="6.9393">
        <ele>571</ele>
        <time>2016-10-30T10:27:35.000Z</time>
      </trkpt>
      <trkpt lat="47.46188" lon="6.9393">
        <ele>571</ele>
        <time>2016-10-30T10:27:36.000Z</time>
      </trkpt>
      <trkpt lat="47.46191" lon="6.93928">
        <ele>571</ele>
        <time>2016-10-30T10:27:37.000Z</time>
      </trkpt>
      <trkpt lat="47.46197" lon="6.93927">
        <ele>571</ele>
        <time>2016-10-30T10:27:38.000Z</time>
      </trkpt>
      <trkpt lat="47.46201" lon="6.93925">
        <ele>571</ele>
        <time>2016-10-30T10:27:39.000Z</time>
      </trkpt>
      <trkpt lat="47.46205" lon="6.93922">
        <ele>571</ele>
        <time>2016-10-30T10:27:40.000Z</time>
      </trkpt>
      <trkpt lat="47.4621" lon="6.9392">
        <ele>571</ele>
        <time>2016-10-30T10:27:41.000Z</time>
      </trkpt>
      <trkpt lat="47.46216" lon="6.9392">
        <ele>571</ele>
        <time>2016-10-30T10:27:42.000Z</time>
      </trkpt>
      <trkpt lat="47.4622" lon="6.93918">
        <ele>571</ele>
        <time>2016-10-30T10:27:43.000Z</time>
      </trkpt>
      <trkpt lat="47.46223" lon="6.93917">
        <ele>571</ele>
        <time>2016-10-30T10:27:44.000Z</time>
      </trkpt>
      <trkpt lat="47.46227" lon="6.93918">
        <ele>571</ele>
        <time>2016-10-30T10:27:45.000Z</time>
      </trkpt>
      <trkpt lat="47.46232" lon="6.93917">
        <ele>571</ele>
        <time>2016-10-30T10:27:46.000Z</time>
      </trkpt>
      <trkpt lat="47.46237" lon="6.93917">
        <ele>571</ele>
        <time>2016-10-30T10:27:47.000Z</time>
      </trkpt>
      <trkpt lat="47.4624" lon="6.93916">
        <ele>571</ele>
        <time>2016-10-30T10:27:48.000Z</time>
      </trkpt>
      <trkpt lat="47.46244" lon="6.93916">
        <ele>571</ele>
        <time>2016-10-30T10:27:49.000Z</time>
      </trkpt>
      <trkpt lat="47.46248" lon="6.93916">
        <ele>571</ele>
        <time>2016-10-30T10:27:50.000Z</time>
      </trkpt>
      <trkpt lat="47.46252" lon="6.93916">
        <ele>571</ele>
        <time>2016-10-30T10:27:51.000Z</time>
      </trkpt>
      <trkpt lat="47.46256" lon="6.93915">
        <ele>570</ele>
        <time>2016-10-30T10:27:52.000Z</time>
      </trkpt>
      <trkpt lat="47.46259" lon="6.93915">
        <ele>569</ele>
        <time>2016-10-30T10:27:53.000Z</time>
      </trkpt>
      <trkpt lat="47.46263" lon="6.93915">
        <ele>569</ele>
        <time>2016-10-30T10:27:54.000Z</time>
      </trkpt>
      <trkpt lat="47.46267" lon="6.93915">
        <ele>568</ele>
        <time>2016-10-30T10:27:55.000Z</time>
      </trkpt>
      <trkpt lat="47.46271" lon="6.93916">
        <ele>568</ele>
        <time>2016-10-30T10:27:56.000Z</time>
      </trkpt>
      <trkpt lat="47.46275" lon="6.93917">
        <ele>568</ele>
        <time>2016-10-30T10:27:57.000Z</time>
      </trkpt>
      <trkpt lat="47.46279" lon="6.93917">
        <ele>568</ele>
        <time>2016-10-30T10:27:58.000Z</time>
      </trkpt>
      <trkpt lat="47.4629" lon="6.93919">
        <ele>567</ele>
        <time>2016-10-30T10:27:59.000Z</time>
      </trkpt>
      <trkpt lat="47.46293" lon="6.93919">
        <ele>567</ele>
        <time>2016-10-30T10:28:00.000Z</time>
      </trkpt>
      <trkpt lat="47.46298" lon="6.93918">
        <ele>567</ele>
        <time>2016-10-30T10:28:01.000Z</time>
      </trkpt>
      <trkpt lat="47.46303" lon="6.93917">
        <ele>567</ele>
        <time>2016-10-30T10:28:02.000Z</time>
      </trkpt>
      <trkpt lat="47.46307" lon="6.93913">
        <ele>566</ele>
        <time>2016-10-30T10:28:03.000Z</time>
      </trkpt>
      <trkpt lat="47.46313" lon="6.93909">
        <ele>565</ele>
        <time>2016-10-30T10:28:04.000Z</time>
      </trkpt>
      <trkpt lat="47.46317" lon="6.93905">
        <ele>565</ele>
        <time>2016-10-30T10:28:05.000Z</time>
      </trkpt>
      <trkpt lat="47.46321" lon="6.939">
        <ele>565</ele>
        <time>2016-10-30T10:28:06.000Z</time>
      </trkpt>
      <trkpt lat="47.4632" lon="6.93891">
        <ele>565</ele>
        <time>2016-10-30T10:28:07.000Z</time>
      </trkpt>
      <trkpt lat="47.46321" lon="6.93885">
        <ele>565</ele>
        <time>2016-10-30T10:28:08.000Z</time>
      </trkpt>
      <trkpt lat="47.46321" lon="6.93879">
        <ele>565</ele>
        <time>2016-10-30T10:28:09.000Z</time>
      </trkpt>
      <trkpt lat="47.46321" lon="6.93873">
        <ele>564</ele>
        <time>2016-10-30T10:28:10.000Z</time>
      </trkpt>
      <trkpt lat="47.46321" lon="6.93865">
        <ele>564</ele>
        <time>2016-10-30T10:28:11.000Z</time>
      </trkpt>
      <trkpt lat="47.46322" lon="6.93859">
        <ele>564</ele>
        <time>2016-10-30T10:28:12.000Z</time>
      </trkpt>
      <trkpt lat="47.46322" lon="6.93851">
        <ele>563</ele>
        <time>2016-10-30T10:28:13.000Z</time>
      </trkpt>
      <trkpt lat="47.46323" lon="6.93844">
        <ele>562</ele>
        <time>2016-10-30T10:28:14.000Z</time>
      </trkpt>
      <trkpt lat="47.46324" lon="6.93836">
        <ele>562</ele>
        <time>2016-10-30T10:28:15.000Z</time>
      </trkpt>
      <trkpt lat="47.46328" lon="6.93826">
        <ele>560</ele>
        <time>2016-10-30T10:28:16.000Z</time>
      </trkpt>
      <trkpt lat="47.4633" lon="6.93815">
        <ele>559</ele>
        <time>2016-10-30T10:28:17.000Z</time>
      </trkpt>
      <trkpt lat="47.46331" lon="6.93803">
        <ele>559</ele>
        <time>2016-10-30T10:28:18.000Z</time>
      </trkpt>
      <trkpt lat="47.46331" lon="6.93794">
        <ele>559</ele>
        <time>2016-10-30T10:28:19.000Z</time>
      </trkpt>
      <trkpt lat="47.46332" lon="6.93788">
        <ele>558</ele>
        <time>2016-10-30T10:28:20.000Z</time>
      </trkpt>
      <trkpt lat="47.46332" lon="6.93783">
        <ele>558</ele>
        <time>2016-10-30T10:28:21.000Z</time>
      </trkpt>
      <trkpt lat="47.46331" lon="6.93776">
        <ele>557</ele>
        <time>2016-10-30T10:28:22.000Z</time>
      </trkpt>
      <trkpt lat="47.46331" lon="6.93772">
        <ele>557</ele>
        <time>2016-10-30T10:28:23.000Z</time>
      </trkpt>
      <trkpt lat="47.46335" lon="6.93772">
        <ele>557</ele>
        <time>2016-10-30T10:28:24.000Z</time>
      </trkpt>
      <trkpt lat="47.46339" lon="6.93767">
        <ele>556</ele>
        <time>2016-10-30T10:28:25.000Z</time>
      </trkpt>
      <trkpt lat="47.46342" lon="6.93761">
        <ele>556</ele>
        <time>2016-10-30T10:28:26.000Z</time>
      </trkpt>
      <trkpt lat="47.46344" lon="6.93755">
        <ele>556</ele>
        <time>2016-10-30T10:28:27.000Z</time>
      </trkpt>
      <trkpt lat="47.46346" lon="6.9375">
        <ele>554</ele>
        <time>2016-10-30T10:28:28.000Z</time>
      </trkpt>
      <trkpt lat="47.46348" lon="6.93744">
        <ele>554</ele>
        <time>2016-10-30T10:28:29.000Z</time>
      </trkpt>
      <trkpt lat="47.46351" lon="6.93738">
        <ele>554</ele>
        <time>2016-10-30T10:28:30.000Z</time>
      </trkpt>
      <trkpt lat="47.46353" lon="6.93735">
        <ele>555</ele>
        <time>2016-10-30T10:28:31.000Z</time>
      </trkpt>
      <trkpt lat="47.46361" lon="6.93726">
        <ele>555</ele>
        <time>2016-10-30T10:28:32.000Z</time>
      </trkpt>
      <trkpt lat="47.46366" lon="6.93717">
        <ele>555</ele>
        <time>2016-10-30T10:28:33.000Z</time>
      </trkpt>
      <trkpt lat="47.46371" lon="6.93711">
        <ele>555</ele>
        <time>2016-10-30T10:28:34.000Z</time>
      </trkpt>
      <trkpt lat="47.46375" lon="6.93708">
        <ele>555</ele>
        <time>2016-10-30T10:28:35.000Z</time>
      </trkpt>
      <trkpt lat="47.4638" lon="6.93703">
        <ele>555</ele>
        <time>2016-10-30T10:28:36.000Z</time>
      </trkpt>
      <trkpt lat="47.46387" lon="6.937">
        <ele>555</ele>
        <time>2016-10-30T10:28:37.000Z</time>
      </trkpt>
      <trkpt lat="47.46393" lon="6.93693">
        <ele>555</ele>
        <time>2016-10-30T10:28:38.000Z</time>
      </trkpt>
      <trkpt lat="47.46396" lon="6.93689">
        <ele>555</ele>
        <time>2016-10-30T10:28:39.000Z</time>
      </trkpt>
      <trkpt lat="47.46399" lon="6.93687">
        <ele>555</ele>
        <time>2016-10-30T10:28:40.000Z</time>
      </trkpt>
      <trkpt lat="47.46404" lon="6.93683">
        <ele>555</ele>
        <time>2016-10-30T10:28:41.000Z</time>
      </trkpt>
      <trkpt lat="47.46409" lon="6.93678">
        <ele>555</ele>
        <time>2016-10-30T10:28:42.000Z</time>
      </trkpt>
      <trkpt lat="47.46414" lon="6.9367">
        <ele>554</ele>
        <time>2016-10-30T10:28:43.000Z</time>
      </trkpt>
      <trkpt lat="47.46418" lon="6.93665">
        <ele>554</ele>
        <time>2016-10-30T10:28:44.000Z</time>
      </trkpt>
      <trkpt lat="47.46423" lon="6.93664">
        <ele>554</ele>
        <time>2016-10-30T10:28:45.000Z</time>
      </trkpt>
      <trkpt lat="47.46428" lon="6.93663">
        <ele>555</ele>
        <time>2016-10-30T10:28:46.000Z</time>
      </trkpt>
      <trkpt lat="47.46435" lon="6.93659">
        <ele>555</ele>
        <time>2016-10-30T10:28:47.000Z</time>
      </trkpt>
      <trkpt lat="47.46441" lon="6.93652">
        <ele>555</ele>
        <time>2016-10-30T10:28:48.000Z</time>
      </trkpt>
      <trkpt lat="47.46444" lon="6.93649">
        <ele>555</ele>
        <time>2016-10-30T10:28:49.000Z</time>
      </trkpt>
      <trkpt lat="47.46448" lon="6.93642">
        <ele>555</ele>
        <time>2016-10-30T10:28:50.000Z</time>
      </trkpt>
      <trkpt lat="47.46452" lon="6.93633">
        <ele>555</ele>
        <time>2016-10-30T10:28:51.000Z</time>
      </trkpt>
      <trkpt lat="47.46458" lon="6.93627">
        <ele>555</ele>
        <time>2016-10-30T10:28:52.000Z</time>
      </trkpt>
      <trkpt lat="47.46462" lon="6.93621">
        <ele>555</ele>
        <time>2016-10-30T10:28:53.000Z</time>
      </trkpt>
      <trkpt lat="47.46466" lon="6.93617">
        <ele>555</ele>
        <time>2016-10-30T10:28:54.000Z</time>
      </trkpt>
      <trkpt lat="47.46471" lon="6.9361">
        <ele>555</ele>
        <time>2016-10-30T10:28:55.000Z</time>
      </trkpt>
      <trkpt lat="47.46475" lon="6.93604">
        <ele>555</ele>
        <time>2016-10-30T10:28:56.000Z</time>
      </trkpt>
      <trkpt lat="47.46481" lon="6.93597">
        <ele>554</ele>
        <time>2016-10-30T10:28:57.000Z</time>
      </trkpt>
      <trkpt lat="47.46486" lon="6.93591">
        <ele>554</ele>
        <time>2016-10-30T10:28:58.000Z</time>
      </trkpt>
      <trkpt lat="47.46491" lon="6.93585">
        <ele>553</ele>
        <time>2016-10-30T10:28:59.000Z</time>
      </trkpt>
      <trkpt lat="47.46499" lon="6.9358">
        <ele>553</ele>
        <time>2016-10-30T10:29:00.000Z</time>
      </trkpt>
      <trkpt lat="47.46505" lon="6.93574">
        <ele>551</ele>
        <time>2016-10-30T10:29:01.000Z</time>
      </trkpt>
      <trkpt lat="47.4651" lon="6.9357">
        <ele>551</ele>
        <time>2016-10-30T10:29:02.000Z</time>
      </trkpt>
      <trkpt lat="47.46515" lon="6.93565">
        <ele>550</ele>
        <time>2016-10-30T10:29:03.000Z</time>
      </trkpt>
      <trkpt lat="47.46519" lon="6.93561">
        <ele>550</ele>
        <time>2016-10-30T10:29:04.000Z</time>
      </trkpt>
      <trkpt lat="47.46525" lon="6.93554">
        <ele>550</ele>
        <time>2016-10-30T10:29:05.000Z</time>
      </trkpt>
      <trkpt lat="47.4653" lon="6.93551">
        <ele>549</ele>
        <time>2016-10-30T10:29:06.000Z</time>
      </trkpt>
      <trkpt lat="47.46533" lon="6.93549">
        <ele>549</ele>
        <time>2016-10-30T10:29:07.000Z</time>
      </trkpt>
      <trkpt lat="47.46537" lon="6.93547">
        <ele>549</ele>
        <time>2016-10-30T10:29:08.000Z</time>
      </trkpt>
      <trkpt lat="47.4654" lon="6.93543">
        <ele>549</ele>
        <time>2016-10-30T10:29:09.000Z</time>
      </trkpt>
      <trkpt lat="47.46544" lon="6.9354">
        <ele>549</ele>
        <time>2016-10-30T10:29:10.000Z</time>
      </trkpt>
      <trkpt lat="47.4655" lon="6.93538">
        <ele>549</ele>
        <time>2016-10-30T10:29:11.000Z</time>
      </trkpt>
      <trkpt lat="47.46559" lon="6.93541">
        <ele>548</ele>
        <time>2016-10-30T10:29:12.000Z</time>
      </trkpt>
      <trkpt lat="47.46565" lon="6.93541">
        <ele>548</ele>
        <time>2016-10-30T10:29:13.000Z</time>
      </trkpt>
      <trkpt lat="47.46571" lon="6.93541">
        <ele>548</ele>
        <time>2016-10-30T10:29:14.000Z</time>
      </trkpt>
      <trkpt lat="47.46577" lon="6.93541">
        <ele>548</ele>
        <time>2016-10-30T10:29:15.000Z</time>
      </trkpt>
      <trkpt lat="47.46582" lon="6.93539">
        <ele>548</ele>
        <time>2016-10-30T10:29:16.000Z</time>
      </trkpt>
      <trkpt lat="47.46586" lon="6.93537">
        <ele>545</ele>
        <time>2016-10-30T10:29:17.000Z</time>
      </trkpt>
      <trkpt lat="47.46594" lon="6.9354">
        <ele>544</ele>
        <time>2016-10-30T10:29:18.000Z</time>
      </trkpt>
      <trkpt lat="47.46602" lon="6.93543">
        <ele>544</ele>
        <time>2016-10-30T10:29:19.000Z</time>
      </trkpt>
      <trkpt lat="47.4661" lon="6.93545">
        <ele>544</ele>
        <time>2016-10-30T10:29:20.000Z</time>
      </trkpt>
      <trkpt lat="47.46616" lon="6.93544">
        <ele>544</ele>
        <time>2016-10-30T10:29:21.000Z</time>
      </trkpt>
      <trkpt lat="47.4662" lon="6.93544">
        <ele>544</ele>
        <time>2016-10-30T10:29:22.000Z</time>
      </trkpt>
      <trkpt lat="47.46625" lon="6.93543">
        <ele>544</ele>
        <time>2016-10-30T10:29:23.000Z</time>
      </trkpt>
      <trkpt lat="47.4663" lon="6.93543">
        <ele>544</ele>
        <time>2016-10-30T10:29:24.000Z</time>
      </trkpt>
      <trkpt lat="47.46634" lon="6.93544">
        <ele>544</ele>
        <time>2016-10-30T10:29:25.000Z</time>
      </trkpt>
      <trkpt lat="47.4664" lon="6.93543">
        <ele>543</ele>
        <time>2016-10-30T10:29:26.000Z</time>
      </trkpt>
      <trkpt lat="47.46646" lon="6.93544">
        <ele>543</ele>
        <time>2016-10-30T10:29:27.000Z</time>
      </trkpt>
      <trkpt lat="47.46651" lon="6.93542">
        <ele>543</ele>
        <time>2016-10-30T10:29:28.000Z</time>
      </trkpt>
      <trkpt lat="47.46656" lon="6.93542">
        <ele>543</ele>
        <time>2016-10-30T10:29:29.000Z</time>
      </trkpt>
      <trkpt lat="47.46659" lon="6.9354">
        <ele>543</ele>
        <time>2016-10-30T10:29:30.000Z</time>
      </trkpt>
      <trkpt lat="47.46662" lon="6.93539">
        <ele>543</ele>
        <time>2016-10-30T10:29:31.000Z</time>
      </trkpt>
      <trkpt lat="47.46668" lon="6.93539">
        <ele>541</ele>
        <time>2016-10-30T10:29:32.000Z</time>
      </trkpt>
      <trkpt lat="47.46674" lon="6.93536">
        <ele>541</ele>
        <time>2016-10-30T10:29:33.000Z</time>
      </trkpt>
      <trkpt lat="47.4668" lon="6.93535">
        <ele>540</ele>
        <time>2016-10-30T10:29:34.000Z</time>
      </trkpt>
      <trkpt lat="47.46687" lon="6.93533">
        <ele>540</ele>
        <time>2016-10-30T10:29:35.000Z</time>
      </trkpt>
      <trkpt lat="47.46694" lon="6.93532">
        <ele>540</ele>
        <time>2016-10-30T10:29:36.000Z</time>
      </trkpt>
      <trkpt lat="47.467" lon="6.93534">
        <ele>540</ele>
        <time>2016-10-30T10:29:37.000Z</time>
      </trkpt>
      <trkpt lat="47.46708" lon="6.93535">
        <ele>540</ele>
        <time>2016-10-30T10:29:38.000Z</time>
      </trkpt>
      <trkpt lat="47.46713" lon="6.93535">
        <ele>540</ele>
        <time>2016-10-30T10:29:39.000Z</time>
      </trkpt>
      <trkpt lat="47.4672" lon="6.93535">
        <ele>540</ele>
        <time>2016-10-30T10:29:40.000Z</time>
      </trkpt>
      <trkpt lat="47.46726" lon="6.93534">
        <ele>540</ele>
        <time>2016-10-30T10:29:41.000Z</time>
      </trkpt>
      <trkpt lat="47.46732" lon="6.93532">
        <ele>540</ele>
        <time>2016-10-30T10:29:42.000Z</time>
      </trkpt>
      <trkpt lat="47.46738" lon="6.93531">
        <ele>540</ele>
        <time>2016-10-30T10:29:43.000Z</time>
      </trkpt>
      <trkpt lat="47.46745" lon="6.93533">
        <ele>540</ele>
        <time>2016-10-30T10:29:44.000Z</time>
      </trkpt>
      <trkpt lat="47.46749" lon="6.93533">
        <ele>540</ele>
        <time>2016-10-30T10:29:45.000Z</time>
      </trkpt>
      <trkpt lat="47.46756" lon="6.93534">
        <ele>538</ele>
        <time>2016-10-30T10:29:46.000Z</time>
      </trkpt>
      <trkpt lat="47.46762" lon="6.93534">
        <ele>538</ele>
        <time>2016-10-30T10:29:47.000Z</time>
      </trkpt>
      <trkpt lat="47.46768" lon="6.93534">
        <ele>538</ele>
        <time>2016-10-30T10:29:48.000Z</time>
      </trkpt>
      <trkpt lat="47.46772" lon="6.93535">
        <ele>538</ele>
        <time>2016-10-30T10:29:49.000Z</time>
      </trkpt>
      <trkpt lat="47.46776" lon="6.93535">
        <ele>538</ele>
        <time>2016-10-30T10:29:50.000Z</time>
      </trkpt>
      <trkpt lat="47.46782" lon="6.93536">
        <ele>537</ele>
        <time>2016-10-30T10:29:51.000Z</time>
      </trkpt>
      <trkpt lat="47.46786" lon="6.93535">
        <ele>537</ele>
        <time>2016-10-30T10:29:52.000Z</time>
      </trkpt>
      <trkpt lat="47.46792" lon="6.93533">
        <ele>537</ele>
        <time>2016-10-30T10:29:53.000Z</time>
      </trkpt>
      <trkpt lat="47.46798" lon="6.93532">
        <ele>537</ele>
        <time>2016-10-30T10:29:54.000Z</time>
      </trkpt>
      <trkpt lat="47.46803" lon="6.93531">
        <ele>537</ele>
        <time>2016-10-30T10:29:55.000Z</time>
      </trkpt>
      <trkpt lat="47.46807" lon="6.93532">
        <ele>537</ele>
        <time>2016-10-30T10:29:56.000Z</time>
      </trkpt>
      <trkpt lat="47.46811" lon="6.93536">
        <ele>537</ele>
        <time>2016-10-30T10:29:57.000Z</time>
      </trkpt>
      <trkpt lat="47.46816" lon="6.9354">
        <ele>537</ele>
        <time>2016-10-30T10:29:58.000Z</time>
      </trkpt>
      <trkpt lat="47.4682" lon="6.93542">
        <ele>537</ele>
        <time>2016-10-30T10:29:59.000Z</time>
      </trkpt>
      <trkpt lat="47.46824" lon="6.93544">
        <ele>537</ele>
        <time>2016-10-30T10:30:00.000Z</time>
      </trkpt>
      <trkpt lat="47.46828" lon="6.93547">
        <ele>537</ele>
        <time>2016-10-30T10:30:01.000Z</time>
      </trkpt>
      <trkpt lat="47.4683" lon="6.93549">
        <ele>537</ele>
        <time>2016-10-30T10:30:02.000Z</time>
      </trkpt>
      <trkpt lat="47.46836" lon="6.9355">
        <ele>535</ele>
        <time>2016-10-30T10:30:03.000Z</time>
      </trkpt>
      <trkpt lat="47.4684" lon="6.93557">
        <ele>535</ele>
        <time>2016-10-30T10:30:04.000Z</time>
      </trkpt>
      <trkpt lat="47.46845" lon="6.93563">
        <ele>535</ele>
        <time>2016-10-30T10:30:05.000Z</time>
      </trkpt>
      <trkpt lat="47.46849" lon="6.9357">
        <ele>535</ele>
        <time>2016-10-30T10:30:06.000Z</time>
      </trkpt>
      <trkpt lat="47.46849" lon="6.93575">
        <ele>535</ele>
        <time>2016-10-30T10:30:07.000Z</time>
      </trkpt>
      <trkpt lat="47.46852" lon="6.93581">
        <ele>534</ele>
        <time>2016-10-30T10:30:08.000Z</time>
      </trkpt>
      <trkpt lat="47.46855" lon="6.93585">
        <ele>534</ele>
        <time>2016-10-30T10:30:09.000Z</time>
      </trkpt>
      <trkpt lat="47.46857" lon="6.9359">
        <ele>534</ele>
        <time>2016-10-30T10:30:10.000Z</time>
      </trkpt>
      <trkpt lat="47.46861" lon="6.93595">
        <ele>534</ele>
        <time>2016-10-30T10:30:11.000Z</time>
      </trkpt>
      <trkpt lat="47.46864" lon="6.936">
        <ele>534</ele>
        <time>2016-10-30T10:30:12.000Z</time>
      </trkpt>
      <trkpt lat="47.46868" lon="6.93602">
        <ele>534</ele>
        <time>2016-10-30T10:30:13.000Z</time>
      </trkpt>
      <trkpt lat="47.46872" lon="6.93606">
        <ele>534</ele>
        <time>2016-10-30T10:30:14.000Z</time>
      </trkpt>
      <trkpt lat="47.46876" lon="6.93607">
        <ele>534</ele>
        <time>2016-10-30T10:30:15.000Z</time>
      </trkpt>
      <trkpt lat="47.46879" lon="6.9361">
        <ele>533</ele>
        <time>2016-10-30T10:30:16.000Z</time>
      </trkpt>
      <trkpt lat="47.46879" lon="6.93614">
        <ele>534</ele>
        <time>2016-10-30T10:30:18.000Z</time>
      </trkpt>
      <trkpt lat="47.4688" lon="6.93616">
        <ele>533</ele>
        <time>2016-10-30T10:30:19.000Z</time>
      </trkpt>
      <trkpt lat="47.46883" lon="6.93619">
        <ele>533</ele>
        <time>2016-10-30T10:30:21.000Z</time>
      </trkpt>
      <trkpt lat="47.46884" lon="6.93621">
        <ele>533</ele>
        <time>2016-10-30T10:30:22.000Z</time>
      </trkpt>
      <trkpt lat="47.46886" lon="6.93625">
        <ele>533</ele>
        <time>2016-10-30T10:30:24.000Z</time>
      </trkpt>
      <trkpt lat="47.46887" lon="6.93626">
        <ele>533</ele>
        <time>2016-10-30T10:30:25.000Z</time>
      </trkpt>
      <trkpt lat="47.4689" lon="6.9363">
        <ele>533</ele>
        <time>2016-10-30T10:30:28.000Z</time>
      </trkpt>
      <trkpt lat="47.46891" lon="6.93632">
        <ele>533</ele>
        <time>2016-10-30T10:30:29.000Z</time>
      </trkpt>
      <trkpt lat="47.46895" lon="6.93635">
        <ele>533</ele>
        <time>2016-10-30T10:30:31.000Z</time>
      </trkpt>
      <trkpt lat="47.46896" lon="6.93638">
        <ele>533</ele>
        <time>2016-10-30T10:30:32.000Z</time>
      </trkpt>
      <trkpt lat="47.46898" lon="6.93641">
        <ele>533</ele>
        <time>2016-10-30T10:30:33.000Z</time>
      </trkpt>
      <trkpt lat="47.46899" lon="6.93643">
        <ele>533</ele>
        <time>2016-10-30T10:30:34.000Z</time>
      </trkpt>
      <trkpt lat="47.46901" lon="6.93648">
        <ele>532</ele>
        <time>2016-10-30T10:30:36.000Z</time>
      </trkpt>
      <trkpt lat="47.46903" lon="6.93649">
        <ele>532</ele>
        <time>2016-10-30T10:30:37.000Z</time>
      </trkpt>
      <trkpt lat="47.46907" lon="6.93652">
        <ele>532</ele>
        <time>2016-10-30T10:30:41.000Z</time>
      </trkpt>
      <trkpt lat="47.46907" lon="6.93652">
        <ele>532</ele>
        <time>2016-10-30T10:30:42.000Z</time>
      </trkpt>
      <trkpt lat="47.46909" lon="6.93657">
        <ele>532</ele>
        <time>2016-10-30T10:30:47.000Z</time>
      </trkpt>
      <trkpt lat="47.4691" lon="6.93658">
        <ele>531</ele>
        <time>2016-10-30T10:30:48.000Z</time>
      </trkpt>
      <trkpt lat="47.46912" lon="6.93662">
        <ele>531</ele>
        <time>2016-10-30T10:30:50.000Z</time>
      </trkpt>
      <trkpt lat="47.46914" lon="6.93665">
        <ele>530</ele>
        <time>2016-10-30T10:30:51.000Z</time>
      </trkpt>
      <trkpt lat="47.46916" lon="6.93668">
        <ele>530</ele>
        <time>2016-10-30T10:30:52.000Z</time>
      </trkpt>
      <trkpt lat="47.46918" lon="6.93672">
        <ele>530</ele>
        <time>2016-10-30T10:30:53.000Z</time>
      </trkpt>
      <trkpt lat="47.46921" lon="6.93676">
        <ele>529</ele>
        <time>2016-10-30T10:30:54.000Z</time>
      </trkpt>
      <trkpt lat="47.46924" lon="6.9368">
        <ele>529</ele>
        <time>2016-10-30T10:30:55.000Z</time>
      </trkpt>
      <trkpt lat="47.46932" lon="6.93688">
        <ele>529</ele>
        <time>2016-10-30T10:30:56.000Z</time>
      </trkpt>
      <trkpt lat="47.46938" lon="6.93691">
        <ele>529</ele>
        <time>2016-10-30T10:30:57.000Z</time>
      </trkpt>
      <trkpt lat="47.46945" lon="6.93693">
        <ele>528</ele>
        <time>2016-10-30T10:30:58.000Z</time>
      </trkpt>
      <trkpt lat="47.46952" lon="6.93696">
        <ele>528</ele>
        <time>2016-10-30T10:30:59.000Z</time>
      </trkpt>
      <trkpt lat="47.46957" lon="6.93699">
        <ele>528</ele>
        <time>2016-10-30T10:31:00.000Z</time>
      </trkpt>
      <trkpt lat="47.46964" lon="6.93702">
        <ele>528</ele>
        <time>2016-10-30T10:31:01.000Z</time>
      </trkpt>
      <trkpt lat="47.4697" lon="6.93705">
        <ele>527</ele>
        <time>2016-10-30T10:31:02.000Z</time>
      </trkpt>
      <trkpt lat="47.46974" lon="6.93707">
        <ele>527</ele>
        <time>2016-10-30T10:31:03.000Z</time>
      </trkpt>
      <trkpt lat="47.46979" lon="6.9371">
        <ele>527</ele>
        <time>2016-10-30T10:31:04.000Z</time>
      </trkpt>
      <trkpt lat="47.46984" lon="6.93711">
        <ele>527</ele>
        <time>2016-10-30T10:31:05.000Z</time>
      </trkpt>
      <trkpt lat="47.4699" lon="6.9371">
        <ele>527</ele>
        <time>2016-10-30T10:31:06.000Z</time>
      </trkpt>
      <trkpt lat="47.46997" lon="6.93715">
        <ele>526</ele>
        <time>2016-10-30T10:31:07.000Z</time>
      </trkpt>
      <trkpt lat="47.47002" lon="6.93716">
        <ele>521</ele>
        <time>2016-10-30T10:31:08.000Z</time>
      </trkpt>
      <trkpt lat="47.47011" lon="6.93716">
        <ele>520</ele>
        <time>2016-10-30T10:31:09.000Z</time>
      </trkpt>
      <trkpt lat="47.47018" lon="6.93717">
        <ele>520</ele>
        <time>2016-10-30T10:31:10.000Z</time>
      </trkpt>
      <trkpt lat="47.47024" lon="6.9372">
        <ele>520</ele>
        <time>2016-10-30T10:31:11.000Z</time>
      </trkpt>
      <trkpt lat="47.47029" lon="6.93719">
        <ele>520</ele>
        <time>2016-10-30T10:31:12.000Z</time>
      </trkpt>
      <trkpt lat="47.47036" lon="6.93723">
        <ele>519</ele>
        <time>2016-10-30T10:31:13.000Z</time>
      </trkpt>
      <trkpt lat="47.4704" lon="6.93724">
        <ele>519</ele>
        <time>2016-10-30T10:31:14.000Z</time>
      </trkpt>
      <trkpt lat="47.47045" lon="6.93724">
        <ele>518</ele>
        <time>2016-10-30T10:31:17.000Z</time>
      </trkpt>
      <trkpt lat="47.47046" lon="6.93726">
        <ele>518</ele>
        <time>2016-10-30T10:31:18.000Z</time>
      </trkpt>
      <trkpt lat="47.47049" lon="6.93728">
        <ele>518</ele>
        <time>2016-10-30T10:31:21.000Z</time>
      </trkpt>
      <trkpt lat="47.47051" lon="6.9373">
        <ele>518</ele>
        <time>2016-10-30T10:31:22.000Z</time>
      </trkpt>
      <trkpt lat="47.47054" lon="6.93733">
        <ele>518</ele>
        <time>2016-10-30T10:31:25.000Z</time>
      </trkpt>
      <trkpt lat="47.47056" lon="6.93735">
        <ele>517</ele>
        <time>2016-10-30T10:31:26.000Z</time>
      </trkpt>
      <trkpt lat="47.47058" lon="6.93738">
        <ele>517</ele>
        <time>2016-10-30T10:31:28.000Z</time>
      </trkpt>
      <trkpt lat="47.47059" lon="6.9374">
        <ele>517</ele>
        <time>2016-10-30T10:31:29.000Z</time>
      </trkpt>
      <trkpt lat="47.47062" lon="6.93744">
        <ele>517</ele>
        <time>2016-10-30T10:31:32.000Z</time>
      </trkpt>
      <trkpt lat="47.47064" lon="6.93746">
        <ele>516</ele>
        <time>2016-10-30T10:31:33.000Z</time>
      </trkpt>
      <trkpt lat="47.47067" lon="6.93747">
        <ele>516</ele>
        <time>2016-10-30T10:31:34.000Z</time>
      </trkpt>
      <trkpt lat="47.47069" lon="6.93749">
        <ele>516</ele>
        <time>2016-10-30T10:31:35.000Z</time>
      </trkpt>
      <trkpt lat="47.47072" lon="6.9375">
        <ele>515</ele>
        <time>2016-10-30T10:31:36.000Z</time>
      </trkpt>
      <trkpt lat="47.47075" lon="6.93751">
        <ele>516</ele>
        <time>2016-10-30T10:31:37.000Z</time>
      </trkpt>
      <trkpt lat="47.47077" lon="6.93752">
        <ele>515</ele>
        <time>2016-10-30T10:31:38.000Z</time>
      </trkpt>
      <trkpt lat="47.4708" lon="6.93753">
        <ele>515</ele>
        <time>2016-10-30T10:31:39.000Z</time>
      </trkpt>
      <trkpt lat="47.47084" lon="6.93755">
        <ele>513</ele>
        <time>2016-10-30T10:31:42.000Z</time>
      </trkpt>
      <trkpt lat="47.47085" lon="6.93757">
        <ele>513</ele>
        <time>2016-10-30T10:31:43.000Z</time>
      </trkpt>
      <trkpt lat="47.47086" lon="6.93758">
        <ele>514</ele>
        <time>2016-10-30T10:31:43.999Z</time>
      </trkpt>
      <trkpt lat="47.47089" lon="6.93763">
        <ele>514</ele>
        <time>2016-10-30T10:31:45.000Z</time>
      </trkpt>
      <trkpt lat="47.4709" lon="6.93767">
        <ele>514</ele>
        <time>2016-10-30T10:31:46.000Z</time>
      </trkpt>
      <trkpt lat="47.47102" lon="6.93773">
        <ele>514</ele>
        <time>2016-10-30T10:31:47.000Z</time>
      </trkpt>
      <trkpt lat="47.47107" lon="6.93776">
        <ele>514</ele>
        <time>2016-10-30T10:31:47.998Z</time>
      </trkpt>
      <trkpt lat="47.47111" lon="6.93779">
        <ele>514</ele>
        <time>2016-10-30T10:31:49.000Z</time>
      </trkpt>
      <trkpt lat="47.47117" lon="6.93783">
        <ele>514</ele>
        <time>2016-10-30T10:31:50.000Z</time>
      </trkpt>
      <trkpt lat="47.47124" lon="6.93784">
        <ele>514</ele>
        <time>2016-10-30T10:31:51.000Z</time>
      </trkpt>
      <trkpt lat="47.47129" lon="6.93785">
        <ele>514</ele>
        <time>2016-10-30T10:31:52.000Z</time>
      </trkpt>
      <trkpt lat="47.47134" lon="6.93786">
        <ele>514</ele>
        <time>2016-10-30T10:31:53.000Z</time>
      </trkpt>
      <trkpt lat="47.4714" lon="6.93787">
        <ele>514</ele>
        <time>2016-10-30T10:31:54.000Z</time>
      </trkpt>
      <trkpt lat="47.47146" lon="6.93788">
        <ele>514</ele>
        <time>2016-10-30T10:31:55.001Z</time>
      </trkpt>
      <trkpt lat="47.47157" lon="6.93798">
        <ele>514</ele>
        <time>2016-10-30T10:31:56.000Z</time>
      </trkpt>
      <trkpt lat="47.47165" lon="6.93798">
        <ele>513</ele>
        <time>2016-10-30T10:31:57.000Z</time>
      </trkpt>
      <trkpt lat="47.4717" lon="6.93799">
        <ele>510</ele>
        <time>2016-10-30T10:31:58.000Z</time>
      </trkpt>
      <trkpt lat="47.47173" lon="6.93802">
        <ele>510</ele>
        <time>2016-10-30T10:31:59.000Z</time>
      </trkpt>
      <trkpt lat="47.47177" lon="6.93805">
        <ele>509</ele>
        <time>2016-10-30T10:32:00.000Z</time>
      </trkpt>
      <trkpt lat="47.47182" lon="6.93807">
        <ele>509</ele>
        <time>2016-10-30T10:32:01.000Z</time>
      </trkpt>
      <trkpt lat="47.47187" lon="6.93807">
        <ele>509</ele>
        <time>2016-10-30T10:32:02.000Z</time>
      </trkpt>
      <trkpt lat="47.4719" lon="6.93809">
        <ele>509</ele>
        <time>2016-10-30T10:32:03.000Z</time>
      </trkpt>
      <trkpt lat="47.47196" lon="6.93814">
        <ele>509</ele>
        <time>2016-10-30T10:32:04.000Z</time>
      </trkpt>
      <trkpt lat="47.47201" lon="6.93818">
        <ele>509</ele>
        <time>2016-10-30T10:32:05.000Z</time>
      </trkpt>
      <trkpt lat="47.47208" lon="6.93821">
        <ele>508</ele>
        <time>2016-10-30T10:32:06.000Z</time>
      </trkpt>
      <trkpt lat="47.47214" lon="6.93824">
        <ele>508</ele>
        <time>2016-10-30T10:32:07.000Z</time>
      </trkpt>
      <trkpt lat="47.47217" lon="6.93826">
        <ele>507</ele>
        <time>2016-10-30T10:32:08.000Z</time>
      </trkpt>
      <trkpt lat="47.47221" lon="6.93829">
        <ele>507</ele>
        <time>2016-10-30T10:32:09.000Z</time>
      </trkpt>
      <trkpt lat="47.47224" lon="6.9383">
        <ele>507</ele>
        <time>2016-10-30T10:32:10.000Z</time>
      </trkpt>
      <trkpt lat="47.4723" lon="6.93832">
        <ele>506</ele>
        <time>2016-10-30T10:32:11.000Z</time>
      </trkpt>
      <trkpt lat="47.47237" lon="6.93835">
        <ele>506</ele>
        <time>2016-10-30T10:32:12.000Z</time>
      </trkpt>
      <trkpt lat="47.47243" lon="6.93836">
        <ele>505</ele>
        <time>2016-10-30T10:32:13.000Z</time>
      </trkpt>
      <trkpt lat="47.4725" lon="6.93835">
        <ele>503</ele>
        <time>2016-10-30T10:32:14.000Z</time>
      </trkpt>
      <trkpt lat="47.47258" lon="6.93831">
        <ele>503</ele>
        <time>2016-10-30T10:32:15.000Z</time>
      </trkpt>
      <trkpt lat="47.47263" lon="6.93829">
        <ele>502</ele>
        <time>2016-10-30T10:32:16.000Z</time>
      </trkpt>
      <trkpt lat="47.47272" lon="6.93826">
        <ele>502</ele>
        <time>2016-10-30T10:32:17.000Z</time>
      </trkpt>
      <trkpt lat="47.47277" lon="6.93824">
        <ele>502</ele>
        <time>2016-10-30T10:32:18.000Z</time>
      </trkpt>
      <trkpt lat="47.47284" lon="6.93821">
        <ele>501</ele>
        <time>2016-10-30T10:32:19.000Z</time>
      </trkpt>
      <trkpt lat="47.47292" lon="6.93818">
        <ele>501</ele>
        <time>2016-10-30T10:32:19.999Z</time>
      </trkpt>
      <trkpt lat="47.47302" lon="6.93818">
        <ele>500</ele>
        <time>2016-10-30T10:32:21.000Z</time>
      </trkpt>
      <trkpt lat="47.47307" lon="6.93818">
        <ele>500</ele>
        <time>2016-10-30T10:32:22.000Z</time>
      </trkpt>
      <trkpt lat="47.47313" lon="6.93818">
        <ele>500</ele>
        <time>2016-10-30T10:32:22.999Z</time>
      </trkpt>
      <trkpt lat="47.4732" lon="6.93819">
        <ele>499</ele>
        <time>2016-10-30T10:32:24.000Z</time>
      </trkpt>
      <trkpt lat="47.47329" lon="6.93823">
        <ele>498</ele>
        <time>2016-10-30T10:32:25.000Z</time>
      </trkpt>
      <trkpt lat="47.47334" lon="6.93829">
        <ele>497</ele>
        <time>2016-10-30T10:32:26.000Z</time>
      </trkpt>
      <trkpt lat="47.47341" lon="6.93832">
        <ele>497</ele>
        <time>2016-10-30T10:32:27.000Z</time>
      </trkpt>
      <trkpt lat="47.47347" lon="6.93835">
        <ele>497</ele>
        <time>2016-10-30T10:32:28.000Z</time>
      </trkpt>
      <trkpt lat="47.47352" lon="6.93839">
        <ele>497</ele>
        <time>2016-10-30T10:32:29.000Z</time>
      </trkpt>
      <trkpt lat="47.47356" lon="6.93842">
        <ele>497</ele>
        <time>2016-10-30T10:32:30.000Z</time>
      </trkpt>
      <trkpt lat="47.47361" lon="6.93845">
        <ele>498</ele>
        <time>2016-10-30T10:32:31.000Z</time>
      </trkpt>
      <trkpt lat="47.47365" lon="6.93848">
        <ele>498</ele>
        <time>2016-10-30T10:32:32.002Z</time>
      </trkpt>
      <trkpt lat="47.4737" lon="6.93853">
        <ele>498</ele>
        <time>2016-10-30T10:32:33.000Z</time>
      </trkpt>
      <trkpt lat="47.47377" lon="6.9386">
        <ele>498</ele>
        <time>2016-10-30T10:32:34.000Z</time>
      </trkpt>
      <trkpt lat="47.47384" lon="6.93865">
        <ele>498</ele>
        <time>2016-10-30T10:32:35.000Z</time>
      </trkpt>
      <trkpt lat="47.47387" lon="6.93873">
        <ele>498</ele>
        <time>2016-10-30T10:32:36.000Z</time>
      </trkpt>
      <trkpt lat="47.47393" lon="6.93877">
        <ele>498</ele>
        <time>2016-10-30T10:32:37.000Z</time>
      </trkpt>
      <trkpt lat="47.47399" lon="6.9388">
        <ele>497</ele>
        <time>2016-10-30T10:32:38.000Z</time>
      </trkpt>
      <trkpt lat="47.47402" lon="6.9389">
        <ele>497</ele>
        <time>2016-10-30T10:32:39.000Z</time>
      </trkpt>
      <trkpt lat="47.47404" lon="6.93899">
        <ele>497</ele>
        <time>2016-10-30T10:32:40.000Z</time>
      </trkpt>
      <trkpt lat="47.47409" lon="6.93905">
        <ele>496</ele>
        <time>2016-10-30T10:32:41.000Z</time>
      </trkpt>
      <trkpt lat="47.47413" lon="6.93909">
        <ele>495</ele>
        <time>2016-10-30T10:32:42.000Z</time>
      </trkpt>
      <trkpt lat="47.4742" lon="6.93913">
        <ele>494</ele>
        <time>2016-10-30T10:32:43.000Z</time>
      </trkpt>
      <trkpt lat="47.47427" lon="6.93919">
        <ele>494</ele>
        <time>2016-10-30T10:32:44.000Z</time>
      </trkpt>
      <trkpt lat="47.47433" lon="6.9392">
        <ele>494</ele>
        <time>2016-10-30T10:32:45.000Z</time>
      </trkpt>
      <trkpt lat="47.47438" lon="6.93924">
        <ele>494</ele>
        <time>2016-10-30T10:32:46.000Z</time>
      </trkpt>
      <trkpt lat="47.47443" lon="6.93927">
        <ele>494</ele>
        <time>2016-10-30T10:32:47.000Z</time>
      </trkpt>
      <trkpt lat="47.4745" lon="6.93929">
        <ele>494</ele>
        <time>2016-10-30T10:32:48.000Z</time>
      </trkpt>
      <trkpt lat="47.47455" lon="6.93925">
        <ele>494</ele>
        <time>2016-10-30T10:32:49.000Z</time>
      </trkpt>
      <trkpt lat="47.47462" lon="6.93925">
        <ele>494</ele>
        <time>2016-10-30T10:32:50.000Z</time>
      </trkpt>
      <trkpt lat="47.47469" lon="6.93926">
        <ele>493</ele>
        <time>2016-10-30T10:32:51.000Z</time>
      </trkpt>
      <trkpt lat="47.47476" lon="6.93925">
        <ele>493</ele>
        <time>2016-10-30T10:32:52.000Z</time>
      </trkpt>
      <trkpt lat="47.47481" lon="6.93923">
        <ele>493</ele>
        <time>2016-10-30T10:32:53.000Z</time>
      </trkpt>
      <trkpt lat="47.47487" lon="6.93923">
        <ele>492</ele>
        <time>2016-10-30T10:32:54.000Z</time>
      </trkpt>
      <trkpt lat="47.47497" lon="6.9393">
        <ele>492</ele>
        <time>2016-10-30T10:32:55.000Z</time>
      </trkpt>
      <trkpt lat="47.47505" lon="6.93933">
        <ele>490</ele>
        <time>2016-10-30T10:32:56.000Z</time>
      </trkpt>
      <trkpt lat="47.4751" lon="6.93937">
        <ele>490</ele>
        <time>2016-10-30T10:32:57.000Z</time>
      </trkpt>
      <trkpt lat="47.47517" lon="6.93939">
        <ele>489</ele>
        <time>2016-10-30T10:32:58.000Z</time>
      </trkpt>
      <trkpt lat="47.47523" lon="6.93942">
        <ele>489</ele>
        <time>2016-10-30T10:32:59.000Z</time>
      </trkpt>
      <trkpt lat="47.4753" lon="6.93945">
        <ele>489</ele>
        <time>2016-10-30T10:33:00.000Z</time>
      </trkpt>
      <trkpt lat="47.47535" lon="6.93947">
        <ele>489</ele>
        <time>2016-10-30T10:33:01.000Z</time>
      </trkpt>
      <trkpt lat="47.4754" lon="6.93954">
        <ele>489</ele>
        <time>2016-10-30T10:33:02.000Z</time>
      </trkpt>
      <trkpt lat="47.47545" lon="6.9396">
        <ele>488</ele>
        <time>2016-10-30T10:33:03.000Z</time>
      </trkpt>
      <trkpt lat="47.47549" lon="6.93967">
        <ele>488</ele>
        <time>2016-10-30T10:33:04.000Z</time>
      </trkpt>
      <trkpt lat="47.47554" lon="6.93975">
        <ele>488</ele>
        <time>2016-10-30T10:33:05.000Z</time>
      </trkpt>
      <trkpt lat="47.47558" lon="6.93981">
        <ele>487</ele>
        <time>2016-10-30T10:33:06.000Z</time>
      </trkpt>
      <trkpt lat="47.47564" lon="6.93988">
        <ele>486</ele>
        <time>2016-10-30T10:33:07.000Z</time>
      </trkpt>
      <trkpt lat="47.47568" lon="6.93994">
        <ele>486</ele>
        <time>2016-10-30T10:33:08.000Z</time>
      </trkpt>
      <trkpt lat="47.47581" lon="6.94001">
        <ele>484</ele>
        <time>2016-10-30T10:33:09.000Z</time>
      </trkpt>
      <trkpt lat="47.47587" lon="6.94007">
        <ele>483</ele>
        <time>2016-10-30T10:33:10.000Z</time>
      </trkpt>
      <trkpt lat="47.47592" lon="6.94013">
        <ele>483</ele>
        <time>2016-10-30T10:33:11.000Z</time>
      </trkpt>
      <trkpt lat="47.47597" lon="6.94018">
        <ele>483</ele>
        <time>2016-10-30T10:33:12.000Z</time>
      </trkpt>
      <trkpt lat="47.47602" lon="6.94022">
        <ele>483</ele>
        <time>2016-10-30T10:33:13.000Z</time>
      </trkpt>
      <trkpt lat="47.47604" lon="6.94027">
        <ele>483</ele>
        <time>2016-10-30T10:33:15.000Z</time>
      </trkpt>
      <trkpt lat="47.47607" lon="6.94028">
        <ele>483</ele>
        <time>2016-10-30T10:33:16.000Z</time>
      </trkpt>
      <trkpt lat="47.4761" lon="6.94028">
        <ele>483</ele>
        <time>2016-10-30T10:33:17.000Z</time>
      </trkpt>
      <trkpt lat="47.47615" lon="6.94027">
        <ele>483</ele>
        <time>2016-10-30T10:33:18.000Z</time>
      </trkpt>
      <trkpt lat="47.47619" lon="6.94028">
        <ele>483</ele>
        <time>2016-10-30T10:33:19.000Z</time>
      </trkpt>
      <trkpt lat="47.47623" lon="6.94025">
        <ele>482</ele>
        <time>2016-10-30T10:33:20.000Z</time>
      </trkpt>
      <trkpt lat="47.47626" lon="6.94029">
        <ele>482</ele>
        <time>2016-10-30T10:33:29.000Z</time>
      </trkpt>
      <trkpt lat="47.47626" lon="6.94029">
        <ele>482</ele>
        <time>2016-10-30T10:33:30.000Z</time>
      </trkpt>
      <trkpt lat="47.47629" lon="6.94026">
        <ele>482</ele>
        <time>2016-10-30T10:33:37.000Z</time>
      </trkpt>
      <trkpt lat="47.4763" lon="6.94024">
        <ele>482</ele>
        <time>2016-10-30T10:33:38.000Z</time>
      </trkpt>
      <trkpt lat="47.47632" lon="6.9402">
        <ele>482</ele>
        <time>2016-10-30T10:33:40.000Z</time>
      </trkpt>
      <trkpt lat="47.47633" lon="6.94018">
        <ele>482</ele>
        <time>2016-10-30T10:33:41.000Z</time>
      </trkpt>
      <trkpt lat="47.47636" lon="6.94013">
        <ele>482</ele>
        <time>2016-10-30T10:33:45.000Z</time>
      </trkpt>
      <trkpt lat="47.47637" lon="6.94013">
        <ele>482</ele>
        <time>2016-10-30T10:33:46.000Z</time>
      </trkpt>
      <trkpt lat="47.47641" lon="6.94014">
        <ele>482</ele>
        <time>2016-10-30T10:34:17.000Z</time>
      </trkpt>
      <trkpt lat="47.47643" lon="6.94013">
        <ele>482</ele>
        <time>2016-10-30T10:34:18.000Z</time>
      </trkpt>
      <trkpt lat="47.47647" lon="6.94012">
        <ele>481</ele>
        <time>2016-10-30T10:34:21.000Z</time>
      </trkpt>
      <trkpt lat="47.47648" lon="6.94011">
        <ele>481</ele>
        <time>2016-10-30T10:34:22.000Z</time>
      </trkpt>
      <trkpt lat="47.4765" lon="6.94008">
        <ele>481</ele>
        <time>2016-10-30T10:34:24.000Z</time>
      </trkpt>
      <trkpt lat="47.47651" lon="6.94006">
        <ele>481</ele>
        <time>2016-10-30T10:34:25.000Z</time>
      </trkpt>
      <trkpt lat="47.47654" lon="6.94003">
        <ele>481</ele>
        <time>2016-10-30T10:34:27.000Z</time>
      </trkpt>
      <trkpt lat="47.47655" lon="6.94001">
        <ele>481</ele>
        <time>2016-10-30T10:34:28.000Z</time>
      </trkpt>
      <trkpt lat="47.47659" lon="6.93998">
        <ele>482</ele>
        <time>2016-10-30T10:34:31.000Z</time>
      </trkpt>
      <trkpt lat="47.47661" lon="6.93996">
        <ele>482</ele>
        <time>2016-10-30T10:34:32.000Z</time>
      </trkpt>
      <trkpt lat="47.47664" lon="6.93993">
        <ele>482</ele>
        <time>2016-10-30T10:34:36.000Z</time>
      </trkpt>
      <trkpt lat="47.47665" lon="6.93995">
        <ele>481</ele>
        <time>2016-10-30T10:34:37.000Z</time>
      </trkpt>
      <trkpt lat="47.47666" lon="6.93999">
        <ele>480</ele>
        <time>2016-10-30T10:34:39.000Z</time>
      </trkpt>
      <trkpt lat="47.47666" lon="6.94003">
        <ele>480</ele>
        <time>2016-10-30T10:34:40.000Z</time>
      </trkpt>
      <trkpt lat="47.47665" lon="6.94007">
        <ele>481</ele>
        <time>2016-10-30T10:34:41.000Z</time>
      </trkpt>
      <trkpt lat="47.47664" lon="6.94013">
        <ele>481</ele>
        <time>2016-10-30T10:34:42.000Z</time>
      </trkpt>
      <trkpt lat="47.47662" lon="6.94019">
        <ele>481</ele>
        <time>2016-10-30T10:34:44.000Z</time>
      </trkpt>
      <trkpt lat="47.47663" lon="6.9402">
        <ele>481</ele>
        <time>2016-10-30T10:34:45.000Z</time>
      </trkpt>
      <trkpt lat="47.47666" lon="6.94022">
        <ele>481</ele>
        <time>2016-10-30T10:34:46.000Z</time>
      </trkpt>
      <trkpt lat="47.47669" lon="6.94023">
        <ele>477</ele>
        <time>2016-10-30T10:34:47.000Z</time>
      </trkpt>
      <trkpt lat="47.47672" lon="6.94024">
        <ele>477</ele>
        <time>2016-10-30T10:34:48.000Z</time>
      </trkpt>
      <trkpt lat="47.47676" lon="6.94024">
        <ele>477</ele>
        <time>2016-10-30T10:34:49.000Z</time>
      </trkpt>
      <trkpt lat="47.47679" lon="6.94023">
        <ele>476</ele>
        <time>2016-10-30T10:34:50.000Z</time>
      </trkpt>
      <trkpt lat="47.47682" lon="6.94024">
        <ele>476</ele>
        <time>2016-10-30T10:34:51.000Z</time>
      </trkpt>
      <trkpt lat="47.47685" lon="6.94025">
        <ele>476</ele>
        <time>2016-10-30T10:34:52.000Z</time>
      </trkpt>
      <trkpt lat="47.47694" lon="6.94028">
        <ele>475</ele>
        <time>2016-10-30T10:34:53.000Z</time>
      </trkpt>
      <trkpt lat="47.47699" lon="6.94031">
        <ele>475</ele>
        <time>2016-10-30T10:34:54.000Z</time>
      </trkpt>
      <trkpt lat="47.47704" lon="6.94031">
        <ele>475</ele>
        <time>2016-10-30T10:34:55.000Z</time>
      </trkpt>
      <trkpt lat="47.47709" lon="6.94031">
        <ele>475</ele>
        <time>2016-10-30T10:34:56.000Z</time>
      </trkpt>
      <trkpt lat="47.47714" lon="6.94031">
        <ele>474</ele>
        <time>2016-10-30T10:34:57.000Z</time>
      </trkpt>
      <trkpt lat="47.47718" lon="6.94029">
        <ele>474</ele>
        <time>2016-10-30T10:34:58.000Z</time>
      </trkpt>
      <trkpt lat="47.47723" lon="6.94029">
        <ele>474</ele>
        <time>2016-10-30T10:34:59.000Z</time>
      </trkpt>
      <trkpt lat="47.47728" lon="6.94022">
        <ele>474</ele>
        <time>2016-10-30T10:35:00.000Z</time>
      </trkpt>
      <trkpt lat="47.47733" lon="6.94021">
        <ele>473</ele>
        <time>2016-10-30T10:35:01.000Z</time>
      </trkpt>
      <trkpt lat="47.47735" lon="6.94017">
        <ele>473</ele>
        <time>2016-10-30T10:35:02.000Z</time>
      </trkpt>
      <trkpt lat="47.47742" lon="6.94018">
        <ele>473</ele>
        <time>2016-10-30T10:35:03.000Z</time>
      </trkpt>
      <trkpt lat="47.47746" lon="6.94017">
        <ele>473</ele>
        <time>2016-10-30T10:35:04.000Z</time>
      </trkpt>
      <trkpt lat="47.47751" lon="6.94016">
        <ele>468</ele>
        <time>2016-10-30T10:35:05.000Z</time>
      </trkpt>
      <trkpt lat="47.47756" lon="6.94016">
        <ele>468</ele>
        <time>2016-10-30T10:35:06.000Z</time>
      </trkpt>
      <trkpt lat="47.47759" lon="6.94017">
        <ele>468</ele>
        <time>2016-10-30T10:35:07.000Z</time>
      </trkpt>
      <trkpt lat="47.47762" lon="6.94018">
        <ele>467</ele>
        <time>2016-10-30T10:35:08.000Z</time>
      </trkpt>
      <trkpt lat="47.47764" lon="6.94015">
        <ele>467</ele>
        <time>2016-10-30T10:35:09.000Z</time>
      </trkpt>
      <trkpt lat="47.47766" lon="6.94014">
        <ele>467</ele>
        <time>2016-10-30T10:35:10.000Z</time>
      </trkpt>
      <trkpt lat="47.4777" lon="6.94015">
        <ele>467</ele>
        <time>2016-10-30T10:35:11.000Z</time>
      </trkpt>
      <trkpt lat="47.47774" lon="6.94017">
        <ele>466</ele>
        <time>2016-10-30T10:35:12.000Z</time>
      </trkpt>
      <trkpt lat="47.47778" lon="6.94016">
        <ele>466</ele>
        <time>2016-10-30T10:35:13.000Z</time>
      </trkpt>
      <trkpt lat="47.47782" lon="6.94017">
        <ele>465</ele>
        <time>2016-10-30T10:35:14.000Z</time>
      </trkpt>
      <trkpt lat="47.47786" lon="6.94017">
        <ele>465</ele>
        <time>2016-10-30T10:35:15.000Z</time>
      </trkpt>
      <trkpt lat="47.4779" lon="6.94017">
        <ele>465</ele>
        <time>2016-10-30T10:35:16.000Z</time>
      </trkpt>
      <trkpt lat="47.47794" lon="6.94017">
        <ele>464</ele>
        <time>2016-10-30T10:35:17.000Z</time>
      </trkpt>
      <trkpt lat="47.47798" lon="6.94017">
        <ele>464</ele>
        <time>2016-10-30T10:35:18.000Z</time>
      </trkpt>
      <trkpt lat="47.47801" lon="6.94017">
        <ele>463</ele>
        <time>2016-10-30T10:35:19.000Z</time>
      </trkpt>
      <trkpt lat="47.47804" lon="6.94015">
        <ele>463</ele>
        <time>2016-10-30T10:35:20.000Z</time>
      </trkpt>
      <trkpt lat="47.47808" lon="6.94012">
        <ele>462</ele>
        <time>2016-10-30T10:35:21.000Z</time>
      </trkpt>
      <trkpt lat="47.4781" lon="6.94009">
        <ele>461</ele>
        <time>2016-10-30T10:35:22.000Z</time>
      </trkpt>
      <trkpt lat="47.47812" lon="6.94005">
        <ele>461</ele>
        <time>2016-10-30T10:35:23.000Z</time>
      </trkpt>
      <trkpt lat="47.47815" lon="6.94002">
        <ele>460</ele>
        <time>2016-10-30T10:35:25.000Z</time>
      </trkpt>
      <trkpt lat="47.47816" lon="6.94">
        <ele>460</ele>
        <time>2016-10-30T10:35:26.000Z</time>
      </trkpt>
      <trkpt lat="47.47819" lon="6.93998">
        <ele>460</ele>
        <time>2016-10-30T10:35:28.000Z</time>
      </trkpt>
      <trkpt lat="47.47821" lon="6.93997">
        <ele>460</ele>
        <time>2016-10-30T10:35:29.000Z</time>
      </trkpt>
      <trkpt lat="47.47825" lon="6.93993">
        <ele>459</ele>
        <time>2016-10-30T10:35:31.000Z</time>
      </trkpt>
      <trkpt lat="47.47826" lon="6.9399">
        <ele>460</ele>
        <time>2016-10-30T10:35:32.000Z</time>
      </trkpt>
      <trkpt lat="47.47828" lon="6.93986">
        <ele>461</ele>
        <time>2016-10-30T10:35:33.000Z</time>
      </trkpt>
      <trkpt lat="47.47829" lon="6.93982">
        <ele>461</ele>
        <time>2016-10-30T10:35:34.000Z</time>
      </trkpt>
      <trkpt lat="47.47831" lon="6.9398">
        <ele>462</ele>
        <time>2016-10-30T10:35:35.000Z</time>
      </trkpt>
      <trkpt lat="47.47834" lon="6.93979">
        <ele>455</ele>
        <time>2016-10-30T10:35:36.000Z</time>
      </trkpt>
      <trkpt lat="47.47837" lon="6.93978">
        <ele>455</ele>
        <time>2016-10-30T10:35:37.000Z</time>
      </trkpt>
      <trkpt lat="47.4784" lon="6.93978">
        <ele>455</ele>
        <time>2016-10-30T10:35:38.000Z</time>
      </trkpt>
      <trkpt lat="47.47844" lon="6.93979">
        <ele>455</ele>
        <time>2016-10-30T10:35:39.000Z</time>
      </trkpt>
      <trkpt lat="47.47847" lon="6.93981">
        <ele>454</ele>
        <time>2016-10-30T10:35:40.000Z</time>
      </trkpt>
      <trkpt lat="47.47851" lon="6.93982">
        <ele>454</ele>
        <time>2016-10-30T10:35:41.000Z</time>
      </trkpt>
      <trkpt lat="47.47854" lon="6.93983">
        <ele>454</ele>
        <time>2016-10-30T10:35:42.000Z</time>
      </trkpt>
      <trkpt lat="47.47858" lon="6.93984">
        <ele>454</ele>
        <time>2016-10-30T10:35:43.000Z</time>
      </trkpt>
      <trkpt lat="47.47861" lon="6.93985">
        <ele>454</ele>
        <time>2016-10-30T10:35:44.000Z</time>
      </trkpt>
      <trkpt lat="47.47865" lon="6.93986">
        <ele>453</ele>
        <time>2016-10-30T10:35:45.000Z</time>
      </trkpt>
      <trkpt lat="47.47869" lon="6.93988">
        <ele>453</ele>
        <time>2016-10-30T10:35:46.000Z</time>
      </trkpt>
      <trkpt lat="47.47872" lon="6.93991">
        <ele>452</ele>
        <time>2016-10-30T10:35:47.000Z</time>
      </trkpt>
      <trkpt lat="47.47876" lon="6.93994">
        <ele>452</ele>
        <time>2016-10-30T10:35:48.000Z</time>
      </trkpt>
      <trkpt lat="47.47882" lon="6.94001">
        <ele>449</ele>
        <time>2016-10-30T10:35:49.000Z</time>
      </trkpt>
      <trkpt lat="47.47886" lon="6.94001">
        <ele>448</ele>
        <time>2016-10-30T10:35:50.000Z</time>
      </trkpt>
      <trkpt lat="47.4789" lon="6.94002">
        <ele>447</ele>
        <time>2016-10-30T10:35:51.000Z</time>
      </trkpt>
      <trkpt lat="47.47895" lon="6.94006">
        <ele>447</ele>
        <time>2016-10-30T10:35:52.000Z</time>
      </trkpt>
      <trkpt lat="47.47899" lon="6.94013">
        <ele>447</ele>
        <time>2016-10-30T10:35:53.000Z</time>
      </trkpt>
      <trkpt lat="47.47904" lon="6.94016">
        <ele>446</ele>
        <time>2016-10-30T10:35:54.000Z</time>
      </trkpt>
      <trkpt lat="47.47908" lon="6.9402">
        <ele>446</ele>
        <time>2016-10-30T10:35:55.000Z</time>
      </trkpt>
      <trkpt lat="47.47913" lon="6.94024">
        <ele>446</ele>
        <time>2016-10-30T10:35:56.000Z</time>
      </trkpt>
      <trkpt lat="47.47917" lon="6.94028">
        <ele>441</ele>
        <time>2016-10-30T10:35:57.000Z</time>
      </trkpt>
      <trkpt lat="47.47921" lon="6.94034">
        <ele>441</ele>
        <time>2016-10-30T10:35:58.000Z</time>
      </trkpt>
      <trkpt lat="47.47926" lon="6.94038">
        <ele>440</ele>
        <time>2016-10-30T10:35:59.000Z</time>
      </trkpt>
      <trkpt lat="47.47931" lon="6.9404">
        <ele>440</ele>
        <time>2016-10-30T10:36:00.000Z</time>
      </trkpt>
      <trkpt lat="47.47936" lon="6.94042">
        <ele>440</ele>
        <time>2016-10-30T10:36:01.000Z</time>
      </trkpt>
      <trkpt lat="47.4794" lon="6.94047">
        <ele>440</ele>
        <time>2016-10-30T10:36:02.000Z</time>
      </trkpt>
      <trkpt lat="47.47944" lon="6.94053">
        <ele>440</ele>
        <time>2016-10-30T10:36:03.000Z</time>
      </trkpt>
      <trkpt lat="47.47945" lon="6.94059">
        <ele>440</ele>
        <time>2016-10-30T10:36:04.000Z</time>
      </trkpt>
      <trkpt lat="47.47947" lon="6.94064">
        <ele>440</ele>
        <time>2016-10-30T10:36:05.000Z</time>
      </trkpt>
      <trkpt lat="47.4795" lon="6.94068">
        <ele>440</ele>
        <time>2016-10-30T10:36:06.000Z</time>
      </trkpt>
      <trkpt lat="47.47955" lon="6.94071">
        <ele>439</ele>
        <time>2016-10-30T10:36:07.000Z</time>
      </trkpt>
      <trkpt lat="47.47958" lon="6.94076">
        <ele>439</ele>
        <time>2016-10-30T10:36:08.000Z</time>
      </trkpt>
      <trkpt lat="47.47964" lon="6.94077">
        <ele>438</ele>
        <time>2016-10-30T10:36:09.000Z</time>
      </trkpt>
      <trkpt lat="47.47969" lon="6.94083">
        <ele>438</ele>
        <time>2016-10-30T10:36:10.000Z</time>
      </trkpt>
      <trkpt lat="47.47974" lon="6.94088">
        <ele>439</ele>
        <time>2016-10-30T10:36:11.000Z</time>
      </trkpt>
      <trkpt lat="47.47981" lon="6.94093">
        <ele>438</ele>
        <time>2016-10-30T10:36:12.000Z</time>
      </trkpt>
      <trkpt lat="47.47987" lon="6.94099">
        <ele>438</ele>
        <time>2016-10-30T10:36:13.000Z</time>
      </trkpt>
      <trkpt lat="47.47993" lon="6.94103">
        <ele>438</ele>
        <time>2016-10-30T10:36:14.000Z</time>
      </trkpt>
      <trkpt lat="47.47999" lon="6.94108">
        <ele>439</ele>
        <time>2016-10-30T10:36:15.000Z</time>
      </trkpt>
      <trkpt lat="47.48005" lon="6.94113">
        <ele>433</ele>
        <time>2016-10-30T10:36:16.000Z</time>
      </trkpt>
      <trkpt lat="47.48011" lon="6.94115">
        <ele>433</ele>
        <time>2016-10-30T10:36:17.000Z</time>
      </trkpt>
      <trkpt lat="47.48019" lon="6.94118">
        <ele>433</ele>
        <time>2016-10-30T10:36:18.000Z</time>
      </trkpt>
      <trkpt lat="47.48025" lon="6.94122">
        <ele>433</ele>
        <time>2016-10-30T10:36:19.000Z</time>
      </trkpt>
      <trkpt lat="47.48034" lon="6.94124">
        <ele>433</ele>
        <time>2016-10-30T10:36:20.000Z</time>
      </trkpt>
      <trkpt lat="47.4804" lon="6.94127">
        <ele>433</ele>
        <time>2016-10-30T10:36:21.000Z</time>
      </trkpt>
      <trkpt lat="47.48046" lon="6.94128">
        <ele>432</ele>
        <time>2016-10-30T10:36:22.000Z</time>
      </trkpt>
      <trkpt lat="47.48051" lon="6.9413">
        <ele>432</ele>
        <time>2016-10-30T10:36:23.000Z</time>
      </trkpt>
      <trkpt lat="47.48055" lon="6.9413">
        <ele>432</ele>
        <time>2016-10-30T10:36:24.000Z</time>
      </trkpt>
      <trkpt lat="47.4806" lon="6.94129">
        <ele>432</ele>
        <time>2016-10-30T10:36:25.000Z</time>
      </trkpt>
      <trkpt lat="47.48065" lon="6.94128">
        <ele>432</ele>
        <time>2016-10-30T10:36:26.000Z</time>
      </trkpt>
      <trkpt lat="47.48073" lon="6.94131">
        <ele>431</ele>
        <time>2016-10-30T10:36:27.000Z</time>
      </trkpt>
      <trkpt lat="47.48079" lon="6.9413">
        <ele>431</ele>
        <time>2016-10-30T10:36:28.000Z</time>
      </trkpt>
      <trkpt lat="47.48086" lon="6.94128">
        <ele>425</ele>
        <time>2016-10-30T10:36:29.000Z</time>
      </trkpt>
      <trkpt lat="47.48092" lon="6.94128">
        <ele>425</ele>
        <time>2016-10-30T10:36:30.000Z</time>
      </trkpt>
      <trkpt lat="47.48093" lon="6.94125">
        <ele>425</ele>
        <time>2016-10-30T10:36:31.000Z</time>
      </trkpt>
      <trkpt lat="47.48099" lon="6.94127">
        <ele>425</ele>
        <time>2016-10-30T10:36:32.000Z</time>
      </trkpt>
      <trkpt lat="47.48104" lon="6.94132">
        <ele>425</ele>
        <time>2016-10-30T10:36:33.000Z</time>
      </trkpt>
      <trkpt lat="47.4811" lon="6.94134">
        <ele>425</ele>
        <time>2016-10-30T10:36:34.000Z</time>
      </trkpt>
      <trkpt lat="47.48115" lon="6.94135">
        <ele>424</ele>
        <time>2016-10-30T10:36:35.000Z</time>
      </trkpt>
      <trkpt lat="47.4812" lon="6.94138">
        <ele>424</ele>
        <time>2016-10-30T10:36:36.000Z</time>
      </trkpt>
      <trkpt lat="47.48126" lon="6.94139">
        <ele>424</ele>
        <time>2016-10-30T10:36:37.000Z</time>
      </trkpt>
      <trkpt lat="47.48131" lon="6.94139">
        <ele>423</ele>
        <time>2016-10-30T10:36:38.000Z</time>
      </trkpt>
      <trkpt lat="47.48136" lon="6.94139">
        <ele>423</ele>
        <time>2016-10-30T10:36:39.000Z</time>
      </trkpt>
      <trkpt lat="47.48141" lon="6.94142">
        <ele>423</ele>
        <time>2016-10-30T10:36:40.000Z</time>
      </trkpt>
      <trkpt lat="47.48146" lon="6.94144">
        <ele>422</ele>
        <time>2016-10-30T10:36:41.000Z</time>
      </trkpt>
      <trkpt lat="47.48152" lon="6.94145">
        <ele>422</ele>
        <time>2016-10-30T10:36:42.000Z</time>
      </trkpt>
      <trkpt lat="47.48157" lon="6.94146">
        <ele>422</ele>
        <time>2016-10-30T10:36:43.000Z</time>
      </trkpt>
      <trkpt lat="47.48164" lon="6.94148">
        <ele>421</ele>
        <time>2016-10-30T10:36:44.000Z</time>
      </trkpt>
      <trkpt lat="47.48169" lon="6.94149">
        <ele>418</ele>
        <time>2016-10-30T10:36:45.000Z</time>
      </trkpt>
      <trkpt lat="47.48173" lon="6.9415">
        <ele>418</ele>
        <time>2016-10-30T10:36:46.000Z</time>
      </trkpt>
      <trkpt lat="47.48179" lon="6.94151">
        <ele>417</ele>
        <time>2016-10-30T10:36:47.000Z</time>
      </trkpt>
      <trkpt lat="47.48186" lon="6.94154">
        <ele>417</ele>
        <time>2016-10-30T10:36:48.001Z</time>
      </trkpt>
      <trkpt lat="47.48191" lon="6.94156">
        <ele>417</ele>
        <time>2016-10-30T10:36:49.000Z</time>
      </trkpt>
      <trkpt lat="47.48197" lon="6.94154">
        <ele>417</ele>
        <time>2016-10-30T10:36:50.000Z</time>
      </trkpt>
      <trkpt lat="47.48201" lon="6.94158">
        <ele>417</ele>
        <time>2016-10-30T10:36:51.000Z</time>
      </trkpt>
      <trkpt lat="47.48206" lon="6.9416">
        <ele>416</ele>
        <time>2016-10-30T10:36:52.000Z</time>
      </trkpt>
      <trkpt lat="47.48212" lon="6.9416">
        <ele>416</ele>
        <time>2016-10-30T10:36:53.000Z</time>
      </trkpt>
      <trkpt lat="47.48216" lon="6.94162">
        <ele>416</ele>
        <time>2016-10-30T10:36:54.000Z</time>
      </trkpt>
      <trkpt lat="47.48219" lon="6.94164">
        <ele>416</ele>
        <time>2016-10-30T10:36:55.000Z</time>
      </trkpt>
      <trkpt lat="47.48221" lon="6.94165">
        <ele>415</ele>
        <time>2016-10-30T10:36:56.000Z</time>
      </trkpt>
      <trkpt lat="47.48225" lon="6.94162">
        <ele>415</ele>
        <time>2016-10-30T10:39:12.000Z</time>
      </trkpt>
      <trkpt lat="47.48228" lon="6.94162">
        <ele>415</ele>
        <time>2016-10-30T10:39:13.000Z</time>
      </trkpt>
      <trkpt lat="47.48232" lon="6.94161">
        <ele>415</ele>
        <time>2016-10-30T10:39:15.000Z</time>
      </trkpt>
      <trkpt lat="47.48234" lon="6.94161">
        <ele>415</ele>
        <time>2016-10-30T10:39:16.000Z</time>
      </trkpt>
      <trkpt lat="47.48237" lon="6.94161">
        <ele>414</ele>
        <time>2016-10-30T10:39:18.000Z</time>
      </trkpt>
      <trkpt lat="47.48239" lon="6.94162">
        <ele>414</ele>
        <time>2016-10-30T10:39:19.000Z</time>
      </trkpt>
      <trkpt lat="47.48241" lon="6.94164">
        <ele>414</ele>
        <time>2016-10-30T10:39:20.000Z</time>
      </trkpt>
      <trkpt lat="47.48243" lon="6.94166">
        <ele>414</ele>
        <time>2016-10-30T10:39:21.000Z</time>
      </trkpt>
      <trkpt lat="47.48246" lon="6.94168">
        <ele>414</ele>
        <time>2016-10-30T10:39:22.000Z</time>
      </trkpt>
      <trkpt lat="47.48248" lon="6.9417">
        <ele>414</ele>
        <time>2016-10-30T10:39:23.000Z</time>
      </trkpt>
      <trkpt lat="47.48251" lon="6.94171">
        <ele>413</ele>
        <time>2016-10-30T10:39:24.000Z</time>
      </trkpt>
      <trkpt lat="47.48253" lon="6.94172">
        <ele>413</ele>
        <time>2016-10-30T10:39:25.000Z</time>
      </trkpt>
      <trkpt lat="47.48256" lon="6.94173">
        <ele>413</ele>
        <time>2016-10-30T10:39:26.001Z</time>
      </trkpt>
      <trkpt lat="47.48259" lon="6.94174">
        <ele>413</ele>
        <time>2016-10-30T10:39:27.000Z</time>
      </trkpt>
      <trkpt lat="47.48263" lon="6.94174">
        <ele>413</ele>
        <time>2016-10-30T10:39:28.000Z</time>
      </trkpt>
      <trkpt lat="47.48266" lon="6.94175">
        <ele>413</ele>
        <time>2016-10-30T10:39:29.000Z</time>
      </trkpt>
      <trkpt lat="47.4827" lon="6.94175">
        <ele>413</ele>
        <time>2016-10-30T10:39:30.000Z</time>
      </trkpt>
      <trkpt lat="47.48274" lon="6.94174">
        <ele>413</ele>
        <time>2016-10-30T10:39:31.000Z</time>
      </trkpt>
      <trkpt lat="47.48278" lon="6.94174">
        <ele>413</ele>
        <time>2016-10-30T10:39:32.000Z</time>
      </trkpt>
      <trkpt lat="47.48281" lon="6.94174">
        <ele>413</ele>
        <time>2016-10-30T10:39:33.000Z</time>
      </trkpt>
      <trkpt lat="47.48286" lon="6.94176">
        <ele>413</ele>
        <time>2016-10-30T10:39:34.000Z</time>
      </trkpt>
      <trkpt lat="47.48289" lon="6.94177">
        <ele>413</ele>
        <time>2016-10-30T10:39:35.000Z</time>
      </trkpt>
      <trkpt lat="47.48292" lon="6.94179">
        <ele>413</ele>
        <time>2016-10-30T10:39:36.000Z</time>
      </trkpt>
      <trkpt lat="47.48296" lon="6.94181">
        <ele>413</ele>
        <time>2016-10-30T10:39:37.000Z</time>
      </trkpt>
      <trkpt lat="47.48299" lon="6.94183">
        <ele>413</ele>
        <time>2016-10-30T10:39:38.000Z</time>
      </trkpt>
      <trkpt lat="47.48302" lon="6.94185">
        <ele>412</ele>
        <time>2016-10-30T10:39:39.000Z</time>
      </trkpt>
      <trkpt lat="47.48305" lon="6.94188">
        <ele>412</ele>
        <time>2016-10-30T10:39:40.000Z</time>
      </trkpt>
      <trkpt lat="47.48308" lon="6.94189">
        <ele>412</ele>
        <time>2016-10-30T10:39:41.000Z</time>
      </trkpt>
      <trkpt lat="47.48312" lon="6.94191">
        <ele>412</ele>
        <time>2016-10-30T10:39:42.000Z</time>
      </trkpt>
      <trkpt lat="47.48314" lon="6.94193">
        <ele>412</ele>
        <time>2016-10-30T10:39:43.000Z</time>
      </trkpt>
      <trkpt lat="47.48317" lon="6.94195">
        <ele>412</ele>
        <time>2016-10-30T10:39:44.000Z</time>
      </trkpt>
      <trkpt lat="47.48321" lon="6.94197">
        <ele>412</ele>
        <time>2016-10-30T10:39:45.000Z</time>
      </trkpt>
      <trkpt lat="47.48324" lon="6.942">
        <ele>412</ele>
        <time>2016-10-30T10:39:46.000Z</time>
      </trkpt>
      <trkpt lat="47.48328" lon="6.94202">
        <ele>412</ele>
        <time>2016-10-30T10:39:47.000Z</time>
      </trkpt>
      <trkpt lat="47.48331" lon="6.94205">
        <ele>412</ele>
        <time>2016-10-30T10:39:48.000Z</time>
      </trkpt>
      <trkpt lat="47.48335" lon="6.94207">
        <ele>408</ele>
        <time>2016-10-30T10:39:48.999Z</time>
      </trkpt>
      <trkpt lat="47.48342" lon="6.9421">
        <ele>408</ele>
        <time>2016-10-30T10:39:50.000Z</time>
      </trkpt>
      <trkpt lat="47.48347" lon="6.94212">
        <ele>408</ele>
        <time>2016-10-30T10:39:51.000Z</time>
      </trkpt>
      <trkpt lat="47.48352" lon="6.94216">
        <ele>408</ele>
        <time>2016-10-30T10:39:52.000Z</time>
      </trkpt>
      <trkpt lat="47.48358" lon="6.94219">
        <ele>408</ele>
        <time>2016-10-30T10:39:53.000Z</time>
      </trkpt>
      <trkpt lat="47.48363" lon="6.94223">
        <ele>408</ele>
        <time>2016-10-30T10:39:54.000Z</time>
      </trkpt>
      <trkpt lat="47.48366" lon="6.94224">
        <ele>408</ele>
        <time>2016-10-30T10:39:55.000Z</time>
      </trkpt>
      <trkpt lat="47.48372" lon="6.94226">
        <ele>408</ele>
        <time>2016-10-30T10:39:56.000Z</time>
      </trkpt>
      <trkpt lat="47.48378" lon="6.94228">
        <ele>407</ele>
        <time>2016-10-30T10:39:56.999Z</time>
      </trkpt>
      <trkpt lat="47.48383" lon="6.94229">
        <ele>407</ele>
        <time>2016-10-30T10:39:58.000Z</time>
      </trkpt>
      <trkpt lat="47.48387" lon="6.9423">
        <ele>407</ele>
        <time>2016-10-30T10:39:59.000Z</time>
      </trkpt>
      <trkpt lat="47.48395" lon="6.94232">
        <ele>407</ele>
        <time>2016-10-30T10:40:00.000Z</time>
      </trkpt>
      <trkpt lat="47.48397" lon="6.94236">
        <ele>406</ele>
        <time>2016-10-30T10:40:02.000Z</time>
      </trkpt>
      <trkpt lat="47.48398" lon="6.94237">
        <ele>406</ele>
        <time>2016-10-30T10:40:02.999Z</time>
      </trkpt>
      <trkpt lat="47.48404" lon="6.94238">
        <ele>406</ele>
        <time>2016-10-30T10:40:04.000Z</time>
      </trkpt>
      <trkpt lat="47.4841" lon="6.9424">
        <ele>405</ele>
        <time>2016-10-30T10:40:05.000Z</time>
      </trkpt>
      <trkpt lat="47.48412" lon="6.94243">
        <ele>405</ele>
        <time>2016-10-30T10:40:06.000Z</time>
      </trkpt>
      <trkpt lat="47.48416" lon="6.94245">
        <ele>405</ele>
        <time>2016-10-30T10:40:07.000Z</time>
      </trkpt>
      <trkpt lat="47.48419" lon="6.94247">
        <ele>404</ele>
        <time>2016-10-30T10:40:08.000Z</time>
      </trkpt>
      <trkpt lat="47.48422" lon="6.94249">
        <ele>404</ele>
        <time>2016-10-30T10:40:09.000Z</time>
      </trkpt>
      <trkpt lat="47.48424" lon="6.94251">
        <ele>404</ele>
        <time>2016-10-30T10:40:10.000Z</time>
      </trkpt>
      <trkpt lat="47.48426" lon="6.94254">
        <ele>404</ele>
        <time>2016-10-30T10:40:11.000Z</time>
      </trkpt>
      <trkpt lat="47.48429" lon="6.94256">
        <ele>404</ele>
        <time>2016-10-30T10:40:13.000Z</time>
      </trkpt>
      <trkpt lat="47.4843" lon="6.94257">
        <ele>405</ele>
        <time>2016-10-30T10:40:14.000Z</time>
      </trkpt>
      <trkpt lat="47.48432" lon="6.94258">
        <ele>405</ele>
        <time>2016-10-30T10:40:15.000Z</time>
      </trkpt>
      <trkpt lat="47.48435" lon="6.9426">
        <ele>405</ele>
        <time>2016-10-30T10:40:16.000Z</time>
      </trkpt>
      <trkpt lat="47.48437" lon="6.94262">
        <ele>405</ele>
        <time>2016-10-30T10:40:17.000Z</time>
      </trkpt>
      <trkpt lat="47.48439" lon="6.94264">
        <ele>405</ele>
        <time>2016-10-30T10:40:18.000Z</time>
      </trkpt>
      <trkpt lat="47.48443" lon="6.94266">
        <ele>405</ele>
        <time>2016-10-30T10:40:20.000Z</time>
      </trkpt>
      <trkpt lat="47.48445" lon="6.94267">
        <ele>405</ele>
        <time>2016-10-30T10:40:21.000Z</time>
      </trkpt>
      <trkpt lat="47.48447" lon="6.94268">
        <ele>405</ele>
        <time>2016-10-30T10:40:22.000Z</time>
      </trkpt>
      <trkpt lat="47.48449" lon="6.9427">
        <ele>405</ele>
        <time>2016-10-30T10:40:23.000Z</time>
      </trkpt>
      <trkpt lat="47.48452" lon="6.94272">
        <ele>405</ele>
        <time>2016-10-30T10:40:24.000Z</time>
      </trkpt>
      <trkpt lat="47.48455" lon="6.94274">
        <ele>405</ele>
        <time>2016-10-30T10:40:25.000Z</time>
      </trkpt>
      <trkpt lat="47.48459" lon="6.94276">
        <ele>405</ele>
        <time>2016-10-30T10:40:26.000Z</time>
      </trkpt>
      <trkpt lat="47.48463" lon="6.94277">
        <ele>405</ele>
        <time>2016-10-30T10:40:27.000Z</time>
      </trkpt>
      <trkpt lat="47.48468" lon="6.94279">
        <ele>404</ele>
        <time>2016-10-30T10:40:28.000Z</time>
      </trkpt>
      <trkpt lat="47.48471" lon="6.94279">
        <ele>404</ele>
        <time>2016-10-30T10:40:29.000Z</time>
      </trkpt>
      <trkpt lat="47.48475" lon="6.94284">
        <ele>404</ele>
        <time>2016-10-30T10:40:30.000Z</time>
      </trkpt>
      <trkpt lat="47.48479" lon="6.94288">
        <ele>405</ele>
        <time>2016-10-30T10:40:31.000Z</time>
      </trkpt>
      <trkpt lat="47.48481" lon="6.94291">
        <ele>405</ele>
        <time>2016-10-30T10:40:32.000Z</time>
      </trkpt>
      <trkpt lat="47.48483" lon="6.94295">
        <ele>405</ele>
        <time>2016-10-30T10:40:33.000Z</time>
      </trkpt>
      <trkpt lat="47.48484" lon="6.94299">
        <ele>405</ele>
        <time>2016-10-30T10:40:34.000Z</time>
      </trkpt>
      <trkpt lat="47.48486" lon="6.94303">
        <ele>405</ele>
        <time>2016-10-30T10:40:35.000Z</time>
      </trkpt>
      <trkpt lat="47.48487" lon="6.94308">
        <ele>405</ele>
        <time>2016-10-30T10:40:36.000Z</time>
      </trkpt>
      <trkpt lat="47.48487" lon="6.94311">
        <ele>405</ele>
        <time>2016-10-30T10:40:37.000Z</time>
      </trkpt>
      <trkpt lat="47.48488" lon="6.94314">
        <ele>405</ele>
        <time>2016-10-30T10:40:38.000Z</time>
      </trkpt>
      <trkpt lat="47.48489" lon="6.94319">
        <ele>406</ele>
        <time>2016-10-30T10:40:40.000Z</time>
      </trkpt>
      <trkpt lat="47.4849" lon="6.94322">
        <ele>406</ele>
        <time>2016-10-30T10:40:41.000Z</time>
      </trkpt>
      <trkpt lat="47.48492" lon="6.94325">
        <ele>406</ele>
        <time>2016-10-30T10:40:43.000Z</time>
      </trkpt>
      <trkpt lat="47.48494" lon="6.94325">
        <ele>406</ele>
        <time>2016-10-30T10:40:44.000Z</time>
      </trkpt>
      <trkpt lat="47.48498" lon="6.94326">
        <ele>406</ele>
        <time>2016-10-30T10:40:46.000Z</time>
      </trkpt>
      <trkpt lat="47.485" lon="6.94328">
        <ele>406</ele>
        <time>2016-10-30T10:40:47.000Z</time>
      </trkpt>
      <trkpt lat="47.48504" lon="6.94331">
        <ele>405</ele>
        <time>2016-10-30T10:40:49.000Z</time>
      </trkpt>
      <trkpt lat="47.48505" lon="6.94332">
        <ele>405</ele>
        <time>2016-10-30T10:40:50.000Z</time>
      </trkpt>
      <trkpt lat="47.48507" lon="6.94338">
        <ele>405</ele>
        <time>2016-10-30T10:41:33.000Z</time>
      </trkpt>
      <trkpt lat="47.48507" lon="6.94338">
        <ele>405</ele>
        <time>2016-10-30T10:41:34.000Z</time>
      </trkpt>
      <trkpt lat="47.4851" lon="6.94339">
        <ele>405</ele>
        <time>2016-10-30T10:41:40.000Z</time>
      </trkpt>
      <trkpt lat="47.48512" lon="6.9434">
        <ele>405</ele>
        <time>2016-10-30T10:41:41.000Z</time>
      </trkpt>
      <trkpt lat="47.48514" lon="6.9434">
        <ele>405</ele>
        <time>2016-10-30T10:41:42.000Z</time>
      </trkpt>
      <trkpt lat="47.48517" lon="6.94339">
        <ele>404</ele>
        <time>2016-10-30T10:41:43.000Z</time>
      </trkpt>
      <trkpt lat="47.4852" lon="6.94337">
        <ele>404</ele>
        <time>2016-10-30T10:41:44.000Z</time>
      </trkpt>
      <trkpt lat="47.48522" lon="6.94334">
        <ele>404</ele>
        <time>2016-10-30T10:41:45.000Z</time>
      </trkpt>
      <trkpt lat="47.48525" lon="6.94332">
        <ele>402</ele>
        <time>2016-10-30T10:41:46.000Z</time>
      </trkpt>
      <trkpt lat="47.48526" lon="6.94329">
        <ele>402</ele>
        <time>2016-10-30T10:41:47.000Z</time>
      </trkpt>
      <trkpt lat="47.48531" lon="6.94327">
        <ele>401</ele>
        <time>2016-10-30T10:41:50.999Z</time>
      </trkpt>
      <trkpt lat="47.48532" lon="6.94327">
        <ele>401</ele>
        <time>2016-10-30T10:41:52.000Z</time>
      </trkpt>
      <trkpt lat="47.48535" lon="6.94324">
        <ele>401</ele>
        <time>2016-10-30T10:42:07.000Z</time>
      </trkpt>
      <trkpt lat="47.48536" lon="6.94324">
        <ele>401</ele>
        <time>2016-10-30T10:42:08.000Z</time>
      </trkpt>
      <trkpt lat="47.48538" lon="6.94321">
        <ele>401</ele>
        <time>2016-10-30T10:42:10.000Z</time>
      </trkpt>
      <trkpt lat="47.48539" lon="6.94319">
        <ele>401</ele>
        <time>2016-10-30T10:42:11.000Z</time>
      </trkpt>
      <trkpt lat="47.48541" lon="6.94316">
        <ele>401</ele>
        <time>2016-10-30T10:42:12.000Z</time>
      </trkpt>
      <trkpt lat="47.48542" lon="6.94314">
        <ele>400</ele>
        <time>2016-10-30T10:42:13.000Z</time>
      </trkpt>
      <trkpt lat="47.48544" lon="6.94311">
        <ele>400</ele>
        <time>2016-10-30T10:42:14.000Z</time>
      </trkpt>
      <trkpt lat="47.48546" lon="6.94308">
        <ele>400</ele>
        <time>2016-10-30T10:42:15.000Z</time>
      </trkpt>
      <trkpt lat="47.48548" lon="6.94305">
        <ele>400</ele>
        <time>2016-10-30T10:42:16.000Z</time>
      </trkpt>
      <trkpt lat="47.4855" lon="6.94302">
        <ele>400</ele>
        <time>2016-10-30T10:42:17.000Z</time>
      </trkpt>
      <trkpt lat="47.48552" lon="6.94298">
        <ele>400</ele>
        <time>2016-10-30T10:42:18.000Z</time>
      </trkpt>
      <trkpt lat="47.48554" lon="6.94294">
        <ele>400</ele>
        <time>2016-10-30T10:42:19.000Z</time>
      </trkpt>
      <trkpt lat="47.48555" lon="6.9429">
        <ele>400</ele>
        <time>2016-10-30T10:42:20.000Z</time>
      </trkpt>
      <trkpt lat="47.48557" lon="6.94287">
        <ele>400</ele>
        <time>2016-10-30T10:42:21.000Z</time>
      </trkpt>
      <trkpt lat="47.4856" lon="6.94285">
        <ele>400</ele>
        <time>2016-10-30T10:42:22.000Z</time>
      </trkpt>
      <trkpt lat="47.48563" lon="6.94283">
        <ele>400</ele>
        <time>2016-10-30T10:42:23.000Z</time>
      </trkpt>
      <trkpt lat="47.4857" lon="6.94283">
        <ele>400</ele>
        <time>2016-10-30T10:42:24.000Z</time>
      </trkpt>
      <trkpt lat="47.48575" lon="6.94282">
        <ele>399</ele>
        <time>2016-10-30T10:42:25.000Z</time>
      </trkpt>
      <trkpt lat="47.48579" lon="6.94282">
        <ele>399</ele>
        <time>2016-10-30T10:42:26.000Z</time>
      </trkpt>
      <trkpt lat="47.48584" lon="6.94283">
        <ele>395</ele>
        <time>2016-10-30T10:42:27.000Z</time>
      </trkpt>
      <trkpt lat="47.48588" lon="6.94285">
        <ele>395</ele>
        <time>2016-10-30T10:42:28.000Z</time>
      </trkpt>
      <trkpt lat="47.48592" lon="6.94287">
        <ele>395</ele>
        <time>2016-10-30T10:42:29.000Z</time>
      </trkpt>
      <trkpt lat="47.48596" lon="6.94289">
        <ele>395</ele>
        <time>2016-10-30T10:42:30.000Z</time>
      </trkpt>
      <trkpt lat="47.48601" lon="6.94288">
        <ele>394</ele>
        <time>2016-10-30T10:42:31.000Z</time>
      </trkpt>
      <trkpt lat="47.48605" lon="6.94288">
        <ele>394</ele>
        <time>2016-10-30T10:42:31.999Z</time>
      </trkpt>
      <trkpt lat="47.48609" lon="6.9429">
        <ele>394</ele>
        <time>2016-10-30T10:42:33.000Z</time>
      </trkpt>
      <trkpt lat="47.48613" lon="6.94291">
        <ele>394</ele>
        <time>2016-10-30T10:42:34.000Z</time>
      </trkpt>
      <trkpt lat="47.48617" lon="6.94292">
        <ele>394</ele>
        <time>2016-10-30T10:42:35.000Z</time>
      </trkpt>
      <trkpt lat="47.48621" lon="6.94295">
        <ele>393</ele>
        <time>2016-10-30T10:42:36.000Z</time>
      </trkpt>
      <trkpt lat="47.48626" lon="6.94296">
        <ele>393</ele>
        <time>2016-10-30T10:42:37.000Z</time>
      </trkpt>
      <trkpt lat="47.48631" lon="6.94296">
        <ele>393</ele>
        <time>2016-10-30T10:42:38.000Z</time>
      </trkpt>
      <trkpt lat="47.48637" lon="6.94297">
        <ele>392</ele>
        <time>2016-10-30T10:42:39.000Z</time>
      </trkpt>
      <trkpt lat="47.48641" lon="6.94296">
        <ele>392</ele>
        <time>2016-10-30T10:42:40.000Z</time>
      </trkpt>
      <trkpt lat="47.48645" lon="6.94294">
        <ele>392</ele>
        <time>2016-10-30T10:42:41.000Z</time>
      </trkpt>
      <trkpt lat="47.48649" lon="6.94293">
        <ele>392</ele>
        <time>2016-10-30T10:42:42.000Z</time>
      </trkpt>
      <trkpt lat="47.48654" lon="6.94291">
        <ele>392</ele>
        <time>2016-10-30T10:42:43.000Z</time>
      </trkpt>
      <trkpt lat="47.4866" lon="6.94287">
        <ele>392</ele>
        <time>2016-10-30T10:42:44.000Z</time>
      </trkpt>
      <trkpt lat="47.48666" lon="6.94284">
        <ele>392</ele>
        <time>2016-10-30T10:42:45.000Z</time>
      </trkpt>
      <trkpt lat="47.48671" lon="6.94279">
        <ele>385</ele>
        <time>2016-10-30T10:42:46.000Z</time>
      </trkpt>
      <trkpt lat="47.48674" lon="6.94275">
        <ele>386</ele>
        <time>2016-10-30T10:42:47.000Z</time>
      </trkpt>
      <trkpt lat="47.48675" lon="6.94272">
        <ele>386</ele>
        <time>2016-10-30T10:42:48.000Z</time>
      </trkpt>
      <trkpt lat="47.48679" lon="6.94274">
        <ele>385</ele>
        <time>2016-10-30T10:43:32.000Z</time>
      </trkpt>
      <trkpt lat="47.48679" lon="6.94274">
        <ele>385</ele>
        <time>2016-10-30T10:43:33.000Z</time>
      </trkpt>
      <trkpt lat="47.48681" lon="6.9427">
        <ele>386</ele>
        <time>2016-10-30T10:43:53.000Z</time>
      </trkpt>
      <trkpt lat="47.48681" lon="6.94268">
        <ele>386</ele>
        <time>2016-10-30T10:43:54.000Z</time>
      </trkpt>
      <trkpt lat="47.48683" lon="6.94263">
        <ele>386</ele>
        <time>2016-10-30T10:46:31.000Z</time>
      </trkpt>
      <trkpt lat="47.48684" lon="6.94263">
        <ele>386</ele>
        <time>2016-10-30T10:46:32.000Z</time>
      </trkpt>
      <trkpt lat="47.48685" lon="6.94268">
        <ele>385</ele>
        <time>2016-10-30T10:47:48.000Z</time>
      </trkpt>
      <trkpt lat="47.48687" lon="6.94269">
        <ele>385</ele>
        <time>2016-10-30T10:47:49.000Z</time>
      </trkpt>
      <trkpt lat="47.4869" lon="6.94272">
        <ele>384</ele>
        <time>2016-10-30T10:47:51.000Z</time>
      </trkpt>
      <trkpt lat="47.48693" lon="6.94274">
        <ele>384</ele>
        <time>2016-10-30T10:47:52.000Z</time>
      </trkpt>
      <trkpt lat="47.48695" lon="6.94277">
        <ele>383</ele>
        <time>2016-10-30T10:47:53.000Z</time>
      </trkpt>
      <trkpt lat="47.48698" lon="6.94279">
        <ele>383</ele>
        <time>2016-10-30T10:47:54.000Z</time>
      </trkpt>
      <trkpt lat="47.487" lon="6.94282">
        <ele>382</ele>
        <time>2016-10-30T10:47:55.000Z</time>
      </trkpt>
      <trkpt lat="47.48702" lon="6.94285">
        <ele>382</ele>
        <time>2016-10-30T10:47:56.000Z</time>
      </trkpt>
      <trkpt lat="47.48704" lon="6.94288">
        <ele>382</ele>
        <time>2016-10-30T10:47:57.000Z</time>
      </trkpt>
      <trkpt lat="47.48704" lon="6.94292">
        <ele>382</ele>
        <time>2016-10-30T10:47:58.000Z</time>
      </trkpt>
      <trkpt lat="47.48705" lon="6.94295">
        <ele>381</ele>
        <time>2016-10-30T10:47:59.000Z</time>
      </trkpt>
      <trkpt lat="47.48705" lon="6.94299">
        <ele>381</ele>
        <time>2016-10-30T10:48:00.000Z</time>
      </trkpt>
      <trkpt lat="47.48706" lon="6.94303">
        <ele>381</ele>
        <time>2016-10-30T10:48:01.000Z</time>
      </trkpt>
      <trkpt lat="47.48707" lon="6.94306">
        <ele>381</ele>
        <time>2016-10-30T10:48:02.000Z</time>
      </trkpt>
      <trkpt lat="47.48708" lon="6.9431">
        <ele>381</ele>
        <time>2016-10-30T10:48:03.000Z</time>
      </trkpt>
      <trkpt lat="47.48708" lon="6.94314">
        <ele>381</ele>
        <time>2016-10-30T10:48:04.000Z</time>
      </trkpt>
      <trkpt lat="47.48709" lon="6.94318">
        <ele>381</ele>
        <time>2016-10-30T10:48:05.000Z</time>
      </trkpt>
      <trkpt lat="47.48709" lon="6.94323">
        <ele>381</ele>
        <time>2016-10-30T10:48:06.000Z</time>
      </trkpt>
      <trkpt lat="47.4871" lon="6.94327">
        <ele>381</ele>
        <time>2016-10-30T10:48:07.000Z</time>
      </trkpt>
      <trkpt lat="47.4871" lon="6.94331">
        <ele>380</ele>
        <time>2016-10-30T10:48:08.000Z</time>
      </trkpt>
      <trkpt lat="47.4871" lon="6.94335">
        <ele>382</ele>
        <time>2016-10-30T10:48:09.000Z</time>
      </trkpt>
      <trkpt lat="47.48711" lon="6.94339">
        <ele>382</ele>
        <time>2016-10-30T10:48:10.000Z</time>
      </trkpt>
      <trkpt lat="47.48712" lon="6.94344">
        <ele>382</ele>
        <time>2016-10-30T10:48:11.000Z</time>
      </trkpt>
      <trkpt lat="47.48713" lon="6.94348">
        <ele>382</ele>
        <time>2016-10-30T10:48:12.000Z</time>
      </trkpt>
      <trkpt lat="47.48714" lon="6.94353">
        <ele>382</ele>
        <time>2016-10-30T10:48:13.000Z</time>
      </trkpt>
      <trkpt lat="47.48715" lon="6.94357">
        <ele>382</ele>
        <time>2016-10-30T10:48:14.000Z</time>
      </trkpt>
      <trkpt lat="47.48716" lon="6.94361">
        <ele>383</ele>
        <time>2016-10-30T10:48:15.000Z</time>
      </trkpt>
      <trkpt lat="47.48716" lon="6.94365">
        <ele>383</ele>
        <time>2016-10-30T10:48:16.000Z</time>
      </trkpt>
      <trkpt lat="47.48717" lon="6.94369">
        <ele>383</ele>
        <time>2016-10-30T10:48:17.000Z</time>
      </trkpt>
      <trkpt lat="47.48718" lon="6.94374">
        <ele>383</ele>
        <time>2016-10-30T10:48:18.000Z</time>
      </trkpt>
      <trkpt lat="47.48718" lon="6.94378">
        <ele>383</ele>
        <time>2016-10-30T10:48:19.000Z</time>
      </trkpt>
      <trkpt lat="47.48719" lon="6.94381">
        <ele>384</ele>
        <time>2016-10-30T10:48:20.000Z</time>
      </trkpt>
      <trkpt lat="47.4872" lon="6.94387">
        <ele>384</ele>
        <time>2016-10-30T10:48:22.000Z</time>
      </trkpt>
      <trkpt lat="47.48721" lon="6.94388">
        <ele>384</ele>
        <time>2016-10-30T10:48:23.000Z</time>
      </trkpt>
      <trkpt lat="47.48724" lon="6.9439">
        <ele>384</ele>
        <time>2016-10-30T10:48:30.000Z</time>
      </trkpt>
      <trkpt lat="47.48725" lon="6.9439">
        <ele>384</ele>
        <time>2016-10-30T10:48:31.000Z</time>
      </trkpt>
      <trkpt lat="47.48727" lon="6.94389">
        <ele>384</ele>
        <time>2016-10-30T10:48:33.000Z</time>
      </trkpt>
      <trkpt lat="47.4873" lon="6.94389">
        <ele>384</ele>
        <time>2016-10-30T10:48:34.000Z</time>
      </trkpt>
      <trkpt lat="47.48732" lon="6.94387">
        <ele>383</ele>
        <time>2016-10-30T10:48:35.000Z</time>
      </trkpt>
      <trkpt lat="47.48736" lon="6.94385">
        <ele>383</ele>
        <time>2016-10-30T10:48:36.000Z</time>
      </trkpt>
      <trkpt lat="47.48739" lon="6.94383">
        <ele>383</ele>
        <time>2016-10-30T10:48:37.000Z</time>
      </trkpt>
      <trkpt lat="47.48742" lon="6.9438">
        <ele>383</ele>
        <time>2016-10-30T10:48:38.000Z</time>
      </trkpt>
      <trkpt lat="47.48746" lon="6.94378">
        <ele>382</ele>
        <time>2016-10-30T10:48:39.000Z</time>
      </trkpt>
      <trkpt lat="47.48749" lon="6.94375">
        <ele>382</ele>
        <time>2016-10-30T10:48:40.000Z</time>
      </trkpt>
      <trkpt lat="47.48752" lon="6.94372">
        <ele>380</ele>
        <time>2016-10-30T10:48:41.000Z</time>
      </trkpt>
      <trkpt lat="47.48756" lon="6.9437">
        <ele>380</ele>
        <time>2016-10-30T10:48:42.000Z</time>
      </trkpt>
      <trkpt lat="47.48759" lon="6.94368">
        <ele>379</ele>
        <time>2016-10-30T10:48:43.000Z</time>
      </trkpt>
      <trkpt lat="47.48762" lon="6.94365">
        <ele>379</ele>
        <time>2016-10-30T10:48:44.000Z</time>
      </trkpt>
      <trkpt lat="47.48765" lon="6.94363">
        <ele>379</ele>
        <time>2016-10-30T10:48:45.000Z</time>
      </trkpt>
      <trkpt lat="47.48767" lon="6.9436">
        <ele>379</ele>
        <time>2016-10-30T10:48:46.000Z</time>
      </trkpt>
      <trkpt lat="47.4877" lon="6.94358">
        <ele>379</ele>
        <time>2016-10-30T10:48:47.000Z</time>
      </trkpt>
      <trkpt lat="47.48773" lon="6.94356">
        <ele>379</ele>
        <time>2016-10-30T10:48:48.000Z</time>
      </trkpt>
      <trkpt lat="47.48775" lon="6.94354">
        <ele>379</ele>
        <time>2016-10-30T10:48:49.000Z</time>
      </trkpt>
      <trkpt lat="47.48777" lon="6.94352">
        <ele>379</ele>
        <time>2016-10-30T10:48:50.000Z</time>
      </trkpt>
      <trkpt lat="47.48779" lon="6.94349">
        <ele>379</ele>
        <time>2016-10-30T10:48:51.000Z</time>
      </trkpt>
      <trkpt lat="47.4878" lon="6.94347">
        <ele>379</ele>
        <time>2016-10-30T10:48:52.000Z</time>
      </trkpt>
      <trkpt lat="47.48782" lon="6.94344">
        <ele>379</ele>
        <time>2016-10-30T10:48:53.000Z</time>
      </trkpt>
      <trkpt lat="47.48785" lon="6.94342">
        <ele>379</ele>
        <time>2016-10-30T10:48:54.000Z</time>
      </trkpt>
      <trkpt lat="47.48787" lon="6.94339">
        <ele>379</ele>
        <time>2016-10-30T10:48:55.000Z</time>
      </trkpt>
      <trkpt lat="47.48789" lon="6.94337">
        <ele>379</ele>
        <time>2016-10-30T10:48:56.000Z</time>
      </trkpt>
      <trkpt lat="47.48792" lon="6.94336">
        <ele>379</ele>
        <time>2016-10-30T10:48:57.000Z</time>
      </trkpt>
      <trkpt lat="47.48795" lon="6.94334">
        <ele>379</ele>
        <time>2016-10-30T10:48:58.000Z</time>
      </trkpt>
      <trkpt lat="47.48797" lon="6.94332">
        <ele>375</ele>
        <time>2016-10-30T10:48:59.000Z</time>
      </trkpt>
      <trkpt lat="47.488" lon="6.94331">
        <ele>375</ele>
        <time>2016-10-30T10:49:00.000Z</time>
      </trkpt>
      <trkpt lat="47.48802" lon="6.94329">
        <ele>375</ele>
        <time>2016-10-30T10:49:01.000Z</time>
      </trkpt>
      <trkpt lat="47.48805" lon="6.94327">
        <ele>375</ele>
        <time>2016-10-30T10:49:02.000Z</time>
      </trkpt>
      <trkpt lat="47.48808" lon="6.94325">
        <ele>375</ele>
        <time>2016-10-30T10:49:03.000Z</time>
      </trkpt>
      <trkpt lat="47.48811" lon="6.94323">
        <ele>376</ele>
        <time>2016-10-30T10:49:04.000Z</time>
      </trkpt>
      <trkpt lat="47.48813" lon="6.94321">
        <ele>376</ele>
        <time>2016-10-30T10:49:05.000Z</time>
      </trkpt>
      <trkpt lat="47.48816" lon="6.9432">
        <ele>376</ele>
        <time>2016-10-30T10:49:06.000Z</time>
      </trkpt>
      <trkpt lat="47.48818" lon="6.94318">
        <ele>376</ele>
        <time>2016-10-30T10:49:07.000Z</time>
      </trkpt>
      <trkpt lat="47.48821" lon="6.94317">
        <ele>376</ele>
        <time>2016-10-30T10:49:08.000Z</time>
      </trkpt>
      <trkpt lat="47.48823" lon="6.94315">
        <ele>376</ele>
        <time>2016-10-30T10:49:09.000Z</time>
      </trkpt>
      <trkpt lat="47.48826" lon="6.94314">
        <ele>376</ele>
        <time>2016-10-30T10:49:10.000Z</time>
      </trkpt>
      <trkpt lat="47.48828" lon="6.94313">
        <ele>376</ele>
        <time>2016-10-30T10:49:11.000Z</time>
      </trkpt>
      <trkpt lat="47.48831" lon="6.94312">
        <ele>376</ele>
        <time>2016-10-30T10:49:12.000Z</time>
      </trkpt>
      <trkpt lat="47.48833" lon="6.94311">
        <ele>376</ele>
        <time>2016-10-30T10:49:13.000Z</time>
      </trkpt>
      <trkpt lat="47.48835" lon="6.9431">
        <ele>379</ele>
        <time>2016-10-30T10:49:14.000Z</time>
      </trkpt>
      <trkpt lat="47.48838" lon="6.94309">
        <ele>379</ele>
        <time>2016-10-30T10:49:15.000Z</time>
      </trkpt>
      <trkpt lat="47.4884" lon="6.94308">
        <ele>379</ele>
        <time>2016-10-30T10:49:16.000Z</time>
      </trkpt>
      <trkpt lat="47.48843" lon="6.94307">
        <ele>379</ele>
        <time>2016-10-30T10:49:17.000Z</time>
      </trkpt>
      <trkpt lat="47.48845" lon="6.94306">
        <ele>379</ele>
        <time>2016-10-30T10:49:18.000Z</time>
      </trkpt>
      <trkpt lat="47.48848" lon="6.94304">
        <ele>379</ele>
        <time>2016-10-30T10:49:19.000Z</time>
      </trkpt>
      <trkpt lat="47.4885" lon="6.94303">
        <ele>380</ele>
        <time>2016-10-30T10:49:20.000Z</time>
      </trkpt>
      <trkpt lat="47.48852" lon="6.94302">
        <ele>380</ele>
        <time>2016-10-30T10:49:21.000Z</time>
      </trkpt>
      <trkpt lat="47.48855" lon="6.94301">
        <ele>380</ele>
        <time>2016-10-30T10:49:22.000Z</time>
      </trkpt>
      <trkpt lat="47.48859" lon="6.94299">
        <ele>380</ele>
        <time>2016-10-30T10:49:24.000Z</time>
      </trkpt>
      <trkpt lat="47.48861" lon="6.94298">
        <ele>380</ele>
        <time>2016-10-30T10:49:25.000Z</time>
      </trkpt>
      <trkpt lat="47.48865" lon="6.94297">
        <ele>380</ele>
        <time>2016-10-30T10:49:27.000Z</time>
      </trkpt>
      <trkpt lat="47.48866" lon="6.94296">
        <ele>380</ele>
        <time>2016-10-30T10:49:28.000Z</time>
      </trkpt>
      <trkpt lat="47.4887" lon="6.94294">
        <ele>381</ele>
        <time>2016-10-30T10:49:30.000Z</time>
      </trkpt>
      <trkpt lat="47.48872" lon="6.94293">
        <ele>381</ele>
        <time>2016-10-30T10:49:31.000Z</time>
      </trkpt>
      <trkpt lat="47.48875" lon="6.94292">
        <ele>381</ele>
        <time>2016-10-30T10:49:33.000Z</time>
      </trkpt>
      <trkpt lat="47.48876" lon="6.94291">
        <ele>381</ele>
        <time>2016-10-30T10:49:34.000Z</time>
      </trkpt>
      <trkpt lat="47.48879" lon="6.9429">
        <ele>381</ele>
        <time>2016-10-30T10:49:36.000Z</time>
      </trkpt>
      <trkpt lat="47.48881" lon="6.9429">
        <ele>381</ele>
        <time>2016-10-30T10:49:37.000Z</time>
      </trkpt>
      <trkpt lat="47.48885" lon="6.94289">
        <ele>382</ele>
        <time>2016-10-30T10:49:40.000Z</time>
      </trkpt>
      <trkpt lat="47.48886" lon="6.94289">
        <ele>382</ele>
        <time>2016-10-30T10:49:41.000Z</time>
      </trkpt>
      <trkpt lat="47.4889" lon="6.94288">
        <ele>382</ele>
        <time>2016-10-30T10:49:44.000Z</time>
      </trkpt>
      <trkpt lat="47.48891" lon="6.94287">
        <ele>382</ele>
        <time>2016-10-30T10:49:45.000Z</time>
      </trkpt>
      <trkpt lat="47.48895" lon="6.94286">
        <ele>382</ele>
        <time>2016-10-30T10:49:48.000Z</time>
      </trkpt>
      <trkpt lat="47.48896" lon="6.94285">
        <ele>382</ele>
        <time>2016-10-30T10:49:49.000Z</time>
      </trkpt>
      <trkpt lat="47.48899" lon="6.94284">
        <ele>383</ele>
        <time>2016-10-30T10:49:52.000Z</time>
      </trkpt>
      <trkpt lat="47.48901" lon="6.94284">
        <ele>383</ele>
        <time>2016-10-30T10:49:53.000Z</time>
      </trkpt>
      <trkpt lat="47.48905" lon="6.94283">
        <ele>383</ele>
        <time>2016-10-30T10:49:56.000Z</time>
      </trkpt>
      <trkpt lat="47.48906" lon="6.94283">
        <ele>383</ele>
        <time>2016-10-30T10:49:57.000Z</time>
      </trkpt>
      <trkpt lat="47.4891" lon="6.94282">
        <ele>383</ele>
        <time>2016-10-30T10:50:00.000Z</time>
      </trkpt>
      <trkpt lat="47.48911" lon="6.94281">
        <ele>383</ele>
        <time>2016-10-30T10:50:01.000Z</time>
      </trkpt>
      <trkpt lat="47.48916" lon="6.9428">
        <ele>383</ele>
        <time>2016-10-30T10:50:04.000Z</time>
      </trkpt>
      <trkpt lat="47.48917" lon="6.94279">
        <ele>385</ele>
        <time>2016-10-30T10:50:04.999Z</time>
      </trkpt>
      <trkpt lat="47.4892" lon="6.94279">
        <ele>385</ele>
        <time>2016-10-30T10:50:08.000Z</time>
      </trkpt>
      <trkpt lat="47.48922" lon="6.94279">
        <ele>385</ele>
        <time>2016-10-30T10:50:09.000Z</time>
      </trkpt>
      <trkpt lat="47.48925" lon="6.94279">
        <ele>385</ele>
        <time>2016-10-30T10:50:12.000Z</time>
      </trkpt>
      <trkpt lat="47.48926" lon="6.94278">
        <ele>385</ele>
        <time>2016-10-30T10:50:13.000Z</time>
      </trkpt>
      <trkpt lat="47.4893" lon="6.94278">
        <ele>385</ele>
        <time>2016-10-30T10:50:16.000Z</time>
      </trkpt>
      <trkpt lat="47.48932" lon="6.94277">
        <ele>385</ele>
        <time>2016-10-30T10:50:17.000Z</time>
      </trkpt>
      <trkpt lat="47.48935" lon="6.94276">
        <ele>385</ele>
        <time>2016-10-30T10:50:19.000Z</time>
      </trkpt>
      <trkpt lat="47.48937" lon="6.94276">
        <ele>385</ele>
        <time>2016-10-30T10:50:20.000Z</time>
      </trkpt>
      <trkpt lat="47.4894" lon="6.94277">
        <ele>385</ele>
        <time>2016-10-30T10:50:22.000Z</time>
      </trkpt>
      <trkpt lat="47.48942" lon="6.94278">
        <ele>385</ele>
        <time>2016-10-30T10:50:23.000Z</time>
      </trkpt>
      <trkpt lat="47.48945" lon="6.94279">
        <ele>385</ele>
        <time>2016-10-30T10:50:25.000Z</time>
      </trkpt>
      <trkpt lat="47.48947" lon="6.94281">
        <ele>385</ele>
        <time>2016-10-30T10:50:26.000Z</time>
      </trkpt>
      <trkpt lat="47.4895" lon="6.94284">
        <ele>385</ele>
        <time>2016-10-30T10:50:28.000Z</time>
      </trkpt>
      <trkpt lat="47.48951" lon="6.94286">
        <ele>384</ele>
        <time>2016-10-30T10:50:29.000Z</time>
      </trkpt>
      <trkpt lat="47.48952" lon="6.9429">
        <ele>384</ele>
        <time>2016-10-30T10:50:31.000Z</time>
      </trkpt>
      <trkpt lat="47.48952" lon="6.94293">
        <ele>384</ele>
        <time>2016-10-30T10:50:32.000Z</time>
      </trkpt>
      <trkpt lat="47.48952" lon="6.94298">
        <ele>384</ele>
        <time>2016-10-30T10:50:34.000Z</time>
      </trkpt>
      <trkpt lat="47.48952" lon="6.94301">
        <ele>384</ele>
        <time>2016-10-30T10:50:35.000Z</time>
      </trkpt>
      <trkpt lat="47.48951" lon="6.94306">
        <ele>384</ele>
        <time>2016-10-30T10:50:37.000Z</time>
      </trkpt>
      <trkpt lat="47.48951" lon="6.94309">
        <ele>384</ele>
        <time>2016-10-30T10:50:38.000Z</time>
      </trkpt>
      <trkpt lat="47.4895" lon="6.94315">
        <ele>384</ele>
        <time>2016-10-30T10:50:40.000Z</time>
      </trkpt>
      <trkpt lat="47.4895" lon="6.94318">
        <ele>384</ele>
        <time>2016-10-30T10:50:41.000Z</time>
      </trkpt>
      <trkpt lat="47.48949" lon="6.94323">
        <ele>384</ele>
        <time>2016-10-30T10:50:43.000Z</time>
      </trkpt>
      <trkpt lat="47.48949" lon="6.94326">
        <ele>384</ele>
        <time>2016-10-30T10:50:44.000Z</time>
      </trkpt>
      <trkpt lat="47.48949" lon="6.94332">
        <ele>384</ele>
        <time>2016-10-30T10:50:46.000Z</time>
      </trkpt>
      <trkpt lat="47.4895" lon="6.94335">
        <ele>384</ele>
        <time>2016-10-30T10:50:47.000Z</time>
      </trkpt>
      <trkpt lat="47.48952" lon="6.94341">
        <ele>384</ele>
        <time>2016-10-30T10:50:49.000Z</time>
      </trkpt>
      <trkpt lat="47.48953" lon="6.94343">
        <ele>384</ele>
        <time>2016-10-30T10:50:50.000Z</time>
      </trkpt>
      <trkpt lat="47.48955" lon="6.94349">
        <ele>384</ele>
        <time>2016-10-30T10:50:52.000Z</time>
      </trkpt>
      <trkpt lat="47.48956" lon="6.94352">
        <ele>384</ele>
        <time>2016-10-30T10:50:53.000Z</time>
      </trkpt>
      <trkpt lat="47.48957" lon="6.94355">
        <ele>384</ele>
        <time>2016-10-30T10:50:54.000Z</time>
      </trkpt>
      <trkpt lat="47.48958" lon="6.94358">
        <ele>385</ele>
        <time>2016-10-30T10:50:55.000Z</time>
      </trkpt>
      <trkpt lat="47.4896" lon="6.94363">
        <ele>385</ele>
        <time>2016-10-30T10:50:57.000Z</time>
      </trkpt>
      <trkpt lat="47.48962" lon="6.94365">
        <ele>385</ele>
        <time>2016-10-30T10:50:58.000Z</time>
      </trkpt>
      <trkpt lat="47.48966" lon="6.94367">
        <ele>385</ele>
        <time>2016-10-30T10:51:00.000Z</time>
      </trkpt>
      <trkpt lat="47.48969" lon="6.94367">
        <ele>385</ele>
        <time>2016-10-30T10:51:01.000Z</time>
      </trkpt>
      <trkpt lat="47.48971" lon="6.94367">
        <ele>385</ele>
        <time>2016-10-30T10:51:02.000Z</time>
      </trkpt>
      <trkpt lat="47.48974" lon="6.94367">
        <ele>385</ele>
        <time>2016-10-30T10:51:03.000Z</time>
      </trkpt>
      <trkpt lat="47.48976" lon="6.94367">
        <ele>385</ele>
        <time>2016-10-30T10:51:04.000Z</time>
      </trkpt>
      <trkpt lat="47.48979" lon="6.94367">
        <ele>385</ele>
        <time>2016-10-30T10:51:05.000Z</time>
      </trkpt>
      <trkpt lat="47.48982" lon="6.94367">
        <ele>385</ele>
        <time>2016-10-30T10:51:06.000Z</time>
      </trkpt>
      <trkpt lat="47.48984" lon="6.94367">
        <ele>385</ele>
        <time>2016-10-30T10:51:07.000Z</time>
      </trkpt>
      <trkpt lat="47.48987" lon="6.94367">
        <ele>384</ele>
        <time>2016-10-30T10:51:08.000Z</time>
      </trkpt>
      <trkpt lat="47.4899" lon="6.94367">
        <ele>384</ele>
        <time>2016-10-30T10:51:09.000Z</time>
      </trkpt>
      <trkpt lat="47.48993" lon="6.94367">
        <ele>384</ele>
        <time>2016-10-30T10:51:10.000Z</time>
      </trkpt>
      <trkpt lat="47.48997" lon="6.94367">
        <ele>384</ele>
        <time>2016-10-30T10:51:11.000Z</time>
      </trkpt>
      <trkpt lat="47.49" lon="6.94367">
        <ele>384</ele>
        <time>2016-10-30T10:51:12.000Z</time>
      </trkpt>
      <trkpt lat="47.49003" lon="6.94367">
        <ele>384</ele>
        <time>2016-10-30T10:51:13.000Z</time>
      </trkpt>
      <trkpt lat="47.49007" lon="6.94368">
        <ele>383</ele>
        <time>2016-10-30T10:51:14.000Z</time>
      </trkpt>
      <trkpt lat="47.4901" lon="6.94368">
        <ele>383</ele>
        <time>2016-10-30T10:51:15.000Z</time>
      </trkpt>
      <trkpt lat="47.49014" lon="6.94368">
        <ele>383</ele>
        <time>2016-10-30T10:51:16.000Z</time>
      </trkpt>
      <trkpt lat="47.49018" lon="6.94368">
        <ele>383</ele>
        <time>2016-10-30T10:51:17.000Z</time>
      </trkpt>
      <trkpt lat="47.49022" lon="6.94369">
        <ele>383</ele>
        <time>2016-10-30T10:51:18.000Z</time>
      </trkpt>
      <trkpt lat="47.49026" lon="6.94369">
        <ele>383</ele>
        <time>2016-10-30T10:51:19.000Z</time>
      </trkpt>
      <trkpt lat="47.49031" lon="6.94369">
        <ele>383</ele>
        <time>2016-10-30T10:51:20.000Z</time>
      </trkpt>
      <trkpt lat="47.49035" lon="6.9437">
        <ele>383</ele>
        <time>2016-10-30T10:51:21.000Z</time>
      </trkpt>
      <trkpt lat="47.4904" lon="6.94371">
        <ele>383</ele>
        <time>2016-10-30T10:51:22.000Z</time>
      </trkpt>
      <trkpt lat="47.49045" lon="6.94372">
        <ele>383</ele>
        <time>2016-10-30T10:51:23.000Z</time>
      </trkpt>
      <trkpt lat="47.4905" lon="6.94373">
        <ele>383</ele>
        <time>2016-10-30T10:51:24.000Z</time>
      </trkpt>
      <trkpt lat="47.49055" lon="6.94374">
        <ele>383</ele>
        <time>2016-10-30T10:51:25.000Z</time>
      </trkpt>
      <trkpt lat="47.49059" lon="6.94376">
        <ele>383</ele>
        <time>2016-10-30T10:51:26.000Z</time>
      </trkpt>
      <trkpt lat="47.49064" lon="6.94378">
        <ele>383</ele>
        <time>2016-10-30T10:51:27.000Z</time>
      </trkpt>
      <trkpt lat="47.49068" lon="6.94379">
        <ele>383</ele>
        <time>2016-10-30T10:51:28.000Z</time>
      </trkpt>
      <trkpt lat="47.49073" lon="6.94381">
        <ele>383</ele>
        <time>2016-10-30T10:51:29.000Z</time>
      </trkpt>
      <trkpt lat="47.49078" lon="6.94384">
        <ele>383</ele>
        <time>2016-10-30T10:51:30.000Z</time>
      </trkpt>
      <trkpt lat="47.49082" lon="6.94387">
        <ele>383</ele>
        <time>2016-10-30T10:51:31.000Z</time>
      </trkpt>
      <trkpt lat="47.49087" lon="6.94389">
        <ele>381</ele>
        <time>2016-10-30T10:51:32.000Z</time>
      </trkpt>
      <trkpt lat="47.49091" lon="6.94392">
        <ele>381</ele>
        <time>2016-10-30T10:51:33.000Z</time>
      </trkpt>
      <trkpt lat="47.49097" lon="6.94394">
        <ele>381</ele>
        <time>2016-10-30T10:51:34.000Z</time>
      </trkpt>
      <trkpt lat="47.49101" lon="6.94396">
        <ele>381</ele>
        <time>2016-10-30T10:51:35.000Z</time>
      </trkpt>
      <trkpt lat="47.49107" lon="6.94398">
        <ele>381</ele>
        <time>2016-10-30T10:51:36.000Z</time>
      </trkpt>
      <trkpt lat="47.49112" lon="6.944">
        <ele>381</ele>
        <time>2016-10-30T10:51:37.000Z</time>
      </trkpt>
      <trkpt lat="47.49117" lon="6.94403">
        <ele>380</ele>
        <time>2016-10-30T10:51:38.000Z</time>
      </trkpt>
      <trkpt lat="47.49122" lon="6.94406">
        <ele>380</ele>
        <time>2016-10-30T10:51:39.000Z</time>
      </trkpt>
      <trkpt lat="47.49127" lon="6.94409">
        <ele>380</ele>
        <time>2016-10-30T10:51:40.000Z</time>
      </trkpt>
      <trkpt lat="47.49133" lon="6.94411">
        <ele>380</ele>
        <time>2016-10-30T10:51:41.000Z</time>
      </trkpt>
      <trkpt lat="47.49138" lon="6.94414">
        <ele>380</ele>
        <time>2016-10-30T10:51:42.000Z</time>
      </trkpt>
      <trkpt lat="47.49144" lon="6.94416">
        <ele>380</ele>
        <time>2016-10-30T10:51:43.000Z</time>
      </trkpt>
      <trkpt lat="47.49149" lon="6.94419">
        <ele>381</ele>
        <time>2016-10-30T10:51:44.000Z</time>
      </trkpt>
      <trkpt lat="47.49155" lon="6.94422">
        <ele>380</ele>
        <time>2016-10-30T10:51:45.000Z</time>
      </trkpt>
      <trkpt lat="47.4916" lon="6.94423">
        <ele>380</ele>
        <time>2016-10-30T10:51:46.000Z</time>
      </trkpt>
      <trkpt lat="47.49166" lon="6.94425">
        <ele>380</ele>
        <time>2016-10-30T10:51:47.000Z</time>
      </trkpt>
      <trkpt lat="47.4917" lon="6.94427">
        <ele>379</ele>
        <time>2016-10-30T10:51:48.000Z</time>
      </trkpt>
      <trkpt lat="47.49175" lon="6.9443">
        <ele>379</ele>
        <time>2016-10-30T10:51:49.000Z</time>
      </trkpt>
      <trkpt lat="47.49181" lon="6.94432">
        <ele>379</ele>
        <time>2016-10-30T10:51:50.000Z</time>
      </trkpt>
      <trkpt lat="47.49187" lon="6.94434">
        <ele>379</ele>
        <time>2016-10-30T10:51:51.000Z</time>
      </trkpt>
      <trkpt lat="47.49192" lon="6.94436">
        <ele>379</ele>
        <time>2016-10-30T10:51:52.000Z</time>
      </trkpt>
      <trkpt lat="47.49197" lon="6.94438">
        <ele>378</ele>
        <time>2016-10-30T10:51:53.000Z</time>
      </trkpt>
      <trkpt lat="47.49203" lon="6.94441">
        <ele>378</ele>
        <time>2016-10-30T10:51:54.000Z</time>
      </trkpt>
      <trkpt lat="47.49208" lon="6.94444">
        <ele>378</ele>
        <time>2016-10-30T10:51:55.000Z</time>
      </trkpt>
      <trkpt lat="47.49214" lon="6.94445">
        <ele>378</ele>
        <time>2016-10-30T10:51:56.000Z</time>
      </trkpt>
      <trkpt lat="47.4922" lon="6.94448">
        <ele>378</ele>
        <time>2016-10-30T10:51:57.000Z</time>
      </trkpt>
      <trkpt lat="47.49226" lon="6.94451">
        <ele>378</ele>
        <time>2016-10-30T10:51:58.000Z</time>
      </trkpt>
      <trkpt lat="47.49232" lon="6.94454">
        <ele>378</ele>
        <time>2016-10-30T10:51:59.000Z</time>
      </trkpt>
      <trkpt lat="47.49238" lon="6.94457">
        <ele>378</ele>
        <time>2016-10-30T10:52:00.000Z</time>
      </trkpt>
      <trkpt lat="47.49244" lon="6.94459">
        <ele>378</ele>
        <time>2016-10-30T10:52:01.000Z</time>
      </trkpt>
      <trkpt lat="47.4925" lon="6.94462">
        <ele>378</ele>
        <time>2016-10-30T10:52:02.000Z</time>
      </trkpt>
      <trkpt lat="47.49255" lon="6.9446">
        <ele>378</ele>
        <time>2016-10-30T10:52:03.000Z</time>
      </trkpt>
      <trkpt lat="47.4926" lon="6.94456">
        <ele>378</ele>
        <time>2016-10-30T10:52:04.000Z</time>
      </trkpt>
      <trkpt lat="47.49264" lon="6.94451">
        <ele>378</ele>
        <time>2016-10-30T10:52:05.000Z</time>
      </trkpt>
      <trkpt lat="47.49265" lon="6.94445">
        <ele>378</ele>
        <time>2016-10-30T10:52:06.000Z</time>
      </trkpt>
      <trkpt lat="47.49267" lon="6.94439">
        <ele>378</ele>
        <time>2016-10-30T10:52:07.000Z</time>
      </trkpt>
      <trkpt lat="47.49268" lon="6.94432">
        <ele>378</ele>
        <time>2016-10-30T10:52:08.000Z</time>
      </trkpt>
      <trkpt lat="47.49268" lon="6.94425">
        <ele>378</ele>
        <time>2016-10-30T10:52:09.000Z</time>
      </trkpt>
      <trkpt lat="47.49268" lon="6.94418">
        <ele>378</ele>
        <time>2016-10-30T10:52:10.000Z</time>
      </trkpt>
      <trkpt lat="47.49268" lon="6.94412">
        <ele>377</ele>
        <time>2016-10-30T10:52:11.000Z</time>
      </trkpt>
      <trkpt lat="47.49268" lon="6.94406">
        <ele>377</ele>
        <time>2016-10-30T10:52:12.000Z</time>
      </trkpt>
      <trkpt lat="47.49268" lon="6.94401">
        <ele>377</ele>
        <time>2016-10-30T10:52:13.000Z</time>
      </trkpt>
      <trkpt lat="47.49268" lon="6.94395">
        <ele>377</ele>
        <time>2016-10-30T10:52:14.000Z</time>
      </trkpt>
      <trkpt lat="47.49268" lon="6.9439">
        <ele>377</ele>
        <time>2016-10-30T10:52:15.000Z</time>
      </trkpt>
      <trkpt lat="47.49268" lon="6.94384">
        <ele>377</ele>
        <time>2016-10-30T10:52:16.000Z</time>
      </trkpt>
      <trkpt lat="47.49268" lon="6.94379">
        <ele>376</ele>
        <time>2016-10-30T10:52:17.000Z</time>
      </trkpt>
      <trkpt lat="47.49268" lon="6.94374">
        <ele>376</ele>
        <time>2016-10-30T10:52:18.000Z</time>
      </trkpt>
      <trkpt lat="47.49268" lon="6.94369">
        <ele>376</ele>
        <time>2016-10-30T10:52:19.000Z</time>
      </trkpt>
      <trkpt lat="47.49268" lon="6.94364">
        <ele>376</ele>
        <time>2016-10-30T10:52:20.000Z</time>
      </trkpt>
      <trkpt lat="47.49267" lon="6.9436">
        <ele>376</ele>
        <time>2016-10-30T10:52:21.000Z</time>
      </trkpt>
      <trkpt lat="47.49267" lon="6.94355">
        <ele>376</ele>
        <time>2016-10-30T10:52:22.000Z</time>
      </trkpt>
      <trkpt lat="47.49267" lon="6.94351">
        <ele>375</ele>
        <time>2016-10-30T10:52:23.000Z</time>
      </trkpt>
      <trkpt lat="47.49267" lon="6.94346">
        <ele>375</ele>
        <time>2016-10-30T10:52:24.000Z</time>
      </trkpt>
      <trkpt lat="47.49267" lon="6.94342">
        <ele>375</ele>
        <time>2016-10-30T10:52:25.000Z</time>
      </trkpt>
      <trkpt lat="47.49267" lon="6.94337">
        <ele>375</ele>
        <time>2016-10-30T10:52:26.000Z</time>
      </trkpt>
      <trkpt lat="47.49267" lon="6.94333">
        <ele>373</ele>
        <time>2016-10-30T10:52:27.000Z</time>
      </trkpt>
      <trkpt lat="47.49267" lon="6.94329">
        <ele>373</ele>
        <time>2016-10-30T10:52:28.000Z</time>
      </trkpt>
      <trkpt lat="47.49268" lon="6.94324">
        <ele>373</ele>
        <time>2016-10-30T10:52:29.000Z</time>
      </trkpt>
      <trkpt lat="47.49268" lon="6.94319">
        <ele>373</ele>
        <time>2016-10-30T10:52:30.000Z</time>
      </trkpt>
      <trkpt lat="47.49269" lon="6.94315">
        <ele>373</ele>
        <time>2016-10-30T10:52:31.000Z</time>
      </trkpt>
      <trkpt lat="47.49269" lon="6.9431">
        <ele>373</ele>
        <time>2016-10-30T10:52:32.000Z</time>
      </trkpt>
      <trkpt lat="47.4927" lon="6.94305">
        <ele>372</ele>
        <time>2016-10-30T10:52:33.000Z</time>
      </trkpt>
      <trkpt lat="47.49271" lon="6.943">
        <ele>372</ele>
        <time>2016-10-30T10:52:34.000Z</time>
      </trkpt>
      <trkpt lat="47.49273" lon="6.94295">
        <ele>372</ele>
        <time>2016-10-30T10:52:35.000Z</time>
      </trkpt>
      <trkpt lat="47.49275" lon="6.9429">
        <ele>372</ele>
        <time>2016-10-30T10:52:36.000Z</time>
      </trkpt>
      <trkpt lat="47.49278" lon="6.94286">
        <ele>372</ele>
        <time>2016-10-30T10:52:37.000Z</time>
      </trkpt>
      <trkpt lat="47.49282" lon="6.94281">
        <ele>372</ele>
        <time>2016-10-30T10:52:38.000Z</time>
      </trkpt>
      <trkpt lat="47.49286" lon="6.94278">
        <ele>372</ele>
        <time>2016-10-30T10:52:39.000Z</time>
      </trkpt>
      <trkpt lat="47.4929" lon="6.94275">
        <ele>372</ele>
        <time>2016-10-30T10:52:40.000Z</time>
      </trkpt>
      <trkpt lat="47.49294" lon="6.94272">
        <ele>372</ele>
        <time>2016-10-30T10:52:41.000Z</time>
      </trkpt>
      <trkpt lat="47.49298" lon="6.9427">
        <ele>372</ele>
        <time>2016-10-30T10:52:42.000Z</time>
      </trkpt>
      <trkpt lat="47.49302" lon="6.94267">
        <ele>372</ele>
        <time>2016-10-30T10:52:43.000Z</time>
      </trkpt>
      <trkpt lat="47.49305" lon="6.94265">
        <ele>372</ele>
        <time>2016-10-30T10:52:44.000Z</time>
      </trkpt>
      <trkpt lat="47.49309" lon="6.94262">
        <ele>372</ele>
        <time>2016-10-30T10:52:45.000Z</time>
      </trkpt>
      <trkpt lat="47.49314" lon="6.94259">
        <ele>372</ele>
        <time>2016-10-30T10:52:46.000Z</time>
      </trkpt>
      <trkpt lat="47.49318" lon="6.94255">
        <ele>372</ele>
        <time>2016-10-30T10:52:47.000Z</time>
      </trkpt>
      <trkpt lat="47.49323" lon="6.94252">
        <ele>371</ele>
        <time>2016-10-30T10:52:48.000Z</time>
      </trkpt>
      <trkpt lat="47.49328" lon="6.94248">
        <ele>370</ele>
        <time>2016-10-30T10:52:49.000Z</time>
      </trkpt>
      <trkpt lat="47.49332" lon="6.94244">
        <ele>370</ele>
        <time>2016-10-30T10:52:50.000Z</time>
      </trkpt>
      <trkpt lat="47.49337" lon="6.9424">
        <ele>370</ele>
        <time>2016-10-30T10:52:51.000Z</time>
      </trkpt>
      <trkpt lat="47.49342" lon="6.94236">
        <ele>370</ele>
        <time>2016-10-30T10:52:52.000Z</time>
      </trkpt>
      <trkpt lat="47.49348" lon="6.94233">
        <ele>369</ele>
        <time>2016-10-30T10:52:53.000Z</time>
      </trkpt>
      <trkpt lat="47.49354" lon="6.94227">
        <ele>369</ele>
        <time>2016-10-30T10:52:54.000Z</time>
      </trkpt>
      <trkpt lat="47.4936" lon="6.94223">
        <ele>369</ele>
        <time>2016-10-30T10:52:55.000Z</time>
      </trkpt>
      <trkpt lat="47.49365" lon="6.94218">
        <ele>369</ele>
        <time>2016-10-30T10:52:56.000Z</time>
      </trkpt>
      <trkpt lat="47.49372" lon="6.94212">
        <ele>369</ele>
        <time>2016-10-30T10:52:57.000Z</time>
      </trkpt>
      <trkpt lat="47.49376" lon="6.94207">
        <ele>368</ele>
        <time>2016-10-30T10:52:58.000Z</time>
      </trkpt>
      <trkpt lat="47.49381" lon="6.942">
        <ele>368</ele>
        <time>2016-10-30T10:52:59.000Z</time>
      </trkpt>
      <trkpt lat="47.49386" lon="6.94193">
        <ele>368</ele>
        <time>2016-10-30T10:53:00.000Z</time>
      </trkpt>
      <trkpt lat="47.49391" lon="6.94185">
        <ele>368</ele>
        <time>2016-10-30T10:53:01.000Z</time>
      </trkpt>
      <trkpt lat="47.49396" lon="6.94178">
        <ele>367</ele>
        <time>2016-10-30T10:53:02.000Z</time>
      </trkpt>
      <trkpt lat="47.49402" lon="6.94171">
        <ele>367</ele>
        <time>2016-10-30T10:53:03.000Z</time>
      </trkpt>
      <trkpt lat="47.49407" lon="6.94165">
        <ele>365</ele>
        <time>2016-10-30T10:53:04.000Z</time>
      </trkpt>
      <trkpt lat="47.49414" lon="6.94159">
        <ele>365</ele>
        <time>2016-10-30T10:53:05.000Z</time>
      </trkpt>
      <trkpt lat="47.4942" lon="6.94153">
        <ele>364</ele>
        <time>2016-10-30T10:53:06.000Z</time>
      </trkpt>
      <trkpt lat="47.49428" lon="6.94147">
        <ele>363</ele>
        <time>2016-10-30T10:53:07.000Z</time>
      </trkpt>
      <trkpt lat="47.49435" lon="6.94141">
        <ele>363</ele>
        <time>2016-10-30T10:53:08.000Z</time>
      </trkpt>
      <trkpt lat="47.49442" lon="6.94136">
        <ele>362</ele>
        <time>2016-10-30T10:53:09.000Z</time>
      </trkpt>
      <trkpt lat="47.4945" lon="6.94131">
        <ele>362</ele>
        <time>2016-10-30T10:53:10.000Z</time>
      </trkpt>
      <trkpt lat="47.49458" lon="6.94126">
        <ele>362</ele>
        <time>2016-10-30T10:53:11.000Z</time>
      </trkpt>
      <trkpt lat="47.49466" lon="6.94123">
        <ele>362</ele>
        <time>2016-10-30T10:53:12.000Z</time>
      </trkpt>
      <trkpt lat="47.49474" lon="6.94121">
        <ele>362</ele>
        <time>2016-10-30T10:53:13.000Z</time>
      </trkpt>
      <trkpt lat="47.49482" lon="6.94121">
        <ele>361</ele>
        <time>2016-10-30T10:53:14.000Z</time>
      </trkpt>
      <trkpt lat="47.4949" lon="6.94122">
        <ele>361</ele>
        <time>2016-10-30T10:53:15.000Z</time>
      </trkpt>
      <trkpt lat="47.49498" lon="6.94125">
        <ele>362</ele>
        <time>2016-10-30T10:53:16.000Z</time>
      </trkpt>
      <trkpt lat="47.49507" lon="6.94129">
        <ele>360</ele>
        <time>2016-10-30T10:53:17.000Z</time>
      </trkpt>
      <trkpt lat="47.49514" lon="6.94132">
        <ele>360</ele>
        <time>2016-10-30T10:53:18.000Z</time>
      </trkpt>
      <trkpt lat="47.49521" lon="6.94134">
        <ele>360</ele>
        <time>2016-10-30T10:53:19.000Z</time>
      </trkpt>
      <trkpt lat="47.49529" lon="6.94136">
        <ele>360</ele>
        <time>2016-10-30T10:53:20.000Z</time>
      </trkpt>
      <trkpt lat="47.49537" lon="6.94138">
        <ele>360</ele>
        <time>2016-10-30T10:53:21.000Z</time>
      </trkpt>
      <trkpt lat="47.49544" lon="6.9414">
        <ele>360</ele>
        <time>2016-10-30T10:53:22.000Z</time>
      </trkpt>
      <trkpt lat="47.49552" lon="6.94142">
        <ele>360</ele>
        <time>2016-10-30T10:53:23.000Z</time>
      </trkpt>
      <trkpt lat="47.49559" lon="6.94144">
        <ele>360</ele>
        <time>2016-10-30T10:53:23.998Z</time>
      </trkpt>
      <trkpt lat="47.49566" lon="6.94146">
        <ele>359</ele>
        <time>2016-10-30T10:53:25.000Z</time>
      </trkpt>
      <trkpt lat="47.49573" lon="6.94148">
        <ele>359</ele>
        <time>2016-10-30T10:53:26.000Z</time>
      </trkpt>
      <trkpt lat="47.49579" lon="6.9415">
        <ele>359</ele>
        <time>2016-10-30T10:53:27.000Z</time>
      </trkpt>
      <trkpt lat="47.49584" lon="6.9415">
        <ele>358</ele>
        <time>2016-10-30T10:53:28.000Z</time>
      </trkpt>
      <trkpt lat="47.49591" lon="6.94153">
        <ele>358</ele>
        <time>2016-10-30T10:53:29.000Z</time>
      </trkpt>
      <trkpt lat="47.49596" lon="6.94156">
        <ele>358</ele>
        <time>2016-10-30T10:53:30.000Z</time>
      </trkpt>
      <trkpt lat="47.49602" lon="6.94159">
        <ele>358</ele>
        <time>2016-10-30T10:53:31.000Z</time>
      </trkpt>
      <trkpt lat="47.49608" lon="6.9416">
        <ele>358</ele>
        <time>2016-10-30T10:53:32.000Z</time>
      </trkpt>
      <trkpt lat="47.49613" lon="6.94162">
        <ele>357</ele>
        <time>2016-10-30T10:53:33.000Z</time>
      </trkpt>
      <trkpt lat="47.49619" lon="6.94164">
        <ele>357</ele>
        <time>2016-10-30T10:53:34.000Z</time>
      </trkpt>
      <trkpt lat="47.49624" lon="6.94162">
        <ele>357</ele>
        <time>2016-10-30T10:53:35.000Z</time>
      </trkpt>
      <trkpt lat="47.49629" lon="6.9416">
        <ele>357</ele>
        <time>2016-10-30T10:53:36.000Z</time>
      </trkpt>
      <trkpt lat="47.49634" lon="6.94157">
        <ele>357</ele>
        <time>2016-10-30T10:53:37.000Z</time>
      </trkpt>
      <trkpt lat="47.49638" lon="6.94154">
        <ele>357</ele>
        <time>2016-10-30T10:53:38.000Z</time>
      </trkpt>
      <trkpt lat="47.49642" lon="6.94149">
        <ele>357</ele>
        <time>2016-10-30T10:53:39.000Z</time>
      </trkpt>
      <trkpt lat="47.49645" lon="6.94145">
        <ele>357</ele>
        <time>2016-10-30T10:53:40.000Z</time>
      </trkpt>
      <trkpt lat="47.49649" lon="6.94142">
        <ele>357</ele>
        <time>2016-10-30T10:53:41.000Z</time>
      </trkpt>
      <trkpt lat="47.49653" lon="6.94138">
        <ele>357</ele>
        <time>2016-10-30T10:53:42.000Z</time>
      </trkpt>
      <trkpt lat="47.49657" lon="6.94134">
        <ele>357</ele>
        <time>2016-10-30T10:53:43.000Z</time>
      </trkpt>
      <trkpt lat="47.49661" lon="6.94131">
        <ele>357</ele>
        <time>2016-10-30T10:53:44.000Z</time>
      </trkpt>
      <trkpt lat="47.49663" lon="6.94125">
        <ele>356</ele>
        <time>2016-10-30T10:53:45.000Z</time>
      </trkpt>
      <trkpt lat="47.49666" lon="6.94121">
        <ele>356</ele>
        <time>2016-10-30T10:53:46.000Z</time>
      </trkpt>
      <trkpt lat="47.49669" lon="6.94117">
        <ele>355</ele>
        <time>2016-10-30T10:53:47.000Z</time>
      </trkpt>
      <trkpt lat="47.49672" lon="6.94113">
        <ele>355</ele>
        <time>2016-10-30T10:53:48.000Z</time>
      </trkpt>
      <trkpt lat="47.49674" lon="6.94108">
        <ele>355</ele>
        <time>2016-10-30T10:53:49.000Z</time>
      </trkpt>
      <trkpt lat="47.49678" lon="6.94104">
        <ele>355</ele>
        <time>2016-10-30T10:53:50.000Z</time>
      </trkpt>
      <trkpt lat="47.49681" lon="6.941">
        <ele>355</ele>
        <time>2016-10-30T10:53:51.000Z</time>
      </trkpt>
      <trkpt lat="47.49683" lon="6.94096">
        <ele>355</ele>
        <time>2016-10-30T10:53:52.000Z</time>
      </trkpt>
      <trkpt lat="47.49685" lon="6.94092">
        <ele>355</ele>
        <time>2016-10-30T10:53:53.000Z</time>
      </trkpt>
      <trkpt lat="47.49686" lon="6.94089">
        <ele>355</ele>
        <time>2016-10-30T10:53:54.000Z</time>
      </trkpt>
      <trkpt lat="47.49688" lon="6.94085">
        <ele>355</ele>
        <time>2016-10-30T10:53:55.000Z</time>
      </trkpt>
      <trkpt lat="47.49689" lon="6.94083">
        <ele>355</ele>
        <time>2016-10-30T10:53:56.000Z</time>
      </trkpt>
      <trkpt lat="47.49692" lon="6.94078">
        <ele>355</ele>
        <time>2016-10-30T10:53:58.000Z</time>
      </trkpt>
      <trkpt lat="47.49693" lon="6.94076">
        <ele>355</ele>
        <time>2016-10-30T10:53:59.000Z</time>
      </trkpt>
      <trkpt lat="47.49694" lon="6.94071">
        <ele>355</ele>
        <time>2016-10-30T10:54:01.000Z</time>
      </trkpt>
      <trkpt lat="47.49695" lon="6.94069">
        <ele>355</ele>
        <time>2016-10-30T10:54:02.000Z</time>
      </trkpt>
      <trkpt lat="47.49697" lon="6.94064">
        <ele>355</ele>
        <time>2016-10-30T10:54:04.000Z</time>
      </trkpt>
      <trkpt lat="47.49698" lon="6.94062">
        <ele>356</ele>
        <time>2016-10-30T10:54:05.000Z</time>
      </trkpt>
      <trkpt lat="47.497" lon="6.94058">
        <ele>356</ele>
        <time>2016-10-30T10:54:08.000Z</time>
      </trkpt>
      <trkpt lat="47.49701" lon="6.94056">
        <ele>356</ele>
        <time>2016-10-30T10:54:09.000Z</time>
      </trkpt>
      <trkpt lat="47.49703" lon="6.94052">
        <ele>356</ele>
        <time>2016-10-30T10:54:12.000Z</time>
      </trkpt>
      <trkpt lat="47.49704" lon="6.94051">
        <ele>356</ele>
        <time>2016-10-30T10:54:13.000Z</time>
      </trkpt>
      <trkpt lat="47.49707" lon="6.94047">
        <ele>356</ele>
        <time>2016-10-30T10:54:16.000Z</time>
      </trkpt>
      <trkpt lat="47.49708" lon="6.94046">
        <ele>356</ele>
        <time>2016-10-30T10:54:17.000Z</time>
      </trkpt>
      <trkpt lat="47.4971" lon="6.94043">
        <ele>356</ele>
        <time>2016-10-30T10:54:18.000Z</time>
      </trkpt>
      <trkpt lat="47.49711" lon="6.9404">
        <ele>356</ele>
        <time>2016-10-30T10:54:19.000Z</time>
      </trkpt>
      <trkpt lat="47.49713" lon="6.94037">
        <ele>356</ele>
        <time>2016-10-30T10:54:20.000Z</time>
      </trkpt>
      <trkpt lat="47.49715" lon="6.94035">
        <ele>356</ele>
        <time>2016-10-30T10:54:21.000Z</time>
      </trkpt>
      <trkpt lat="47.49717" lon="6.94032">
        <ele>356</ele>
        <time>2016-10-30T10:54:22.000Z</time>
      </trkpt>
      <trkpt lat="47.49719" lon="6.9403">
        <ele>356</ele>
        <time>2016-10-30T10:54:23.000Z</time>
      </trkpt>
      <trkpt lat="47.49722" lon="6.94027">
        <ele>356</ele>
        <time>2016-10-30T10:54:24.000Z</time>
      </trkpt>
      <trkpt lat="47.49724" lon="6.94025">
        <ele>356</ele>
        <time>2016-10-30T10:54:25.000Z</time>
      </trkpt>
      <trkpt lat="47.49727" lon="6.94022">
        <ele>356</ele>
        <time>2016-10-30T10:54:26.000Z</time>
      </trkpt>
      <trkpt lat="47.4973" lon="6.94019">
        <ele>356</ele>
        <time>2016-10-30T10:54:27.000Z</time>
      </trkpt>
      <trkpt lat="47.49732" lon="6.94017">
        <ele>356</ele>
        <time>2016-10-30T10:54:28.000Z</time>
      </trkpt>
      <trkpt lat="47.49735" lon="6.94014">
        <ele>356</ele>
        <time>2016-10-30T10:54:29.000Z</time>
      </trkpt>
      <trkpt lat="47.49738" lon="6.94011">
        <ele>356</ele>
        <time>2016-10-30T10:54:30.000Z</time>
      </trkpt>
      <trkpt lat="47.49742" lon="6.94008">
        <ele>357</ele>
        <time>2016-10-30T10:54:31.000Z</time>
      </trkpt>
      <trkpt lat="47.49745" lon="6.94006">
        <ele>357</ele>
        <time>2016-10-30T10:54:32.000Z</time>
      </trkpt>
      <trkpt lat="47.49749" lon="6.94004">
        <ele>357</ele>
        <time>2016-10-30T10:54:33.000Z</time>
      </trkpt>
      <trkpt lat="47.49753" lon="6.94002">
        <ele>357</ele>
        <time>2016-10-30T10:54:34.000Z</time>
      </trkpt>
      <trkpt lat="47.49757" lon="6.94">
        <ele>357</ele>
        <time>2016-10-30T10:54:35.000Z</time>
      </trkpt>
      <trkpt lat="47.49761" lon="6.93998">
        <ele>357</ele>
        <time>2016-10-30T10:54:36.000Z</time>
      </trkpt>
      <trkpt lat="47.49765" lon="6.93996">
        <ele>357</ele>
        <time>2016-10-30T10:54:37.000Z</time>
      </trkpt>
      <trkpt lat="47.49769" lon="6.93994">
        <ele>358</ele>
        <time>2016-10-30T10:54:38.000Z</time>
      </trkpt>
      <trkpt lat="47.49773" lon="6.93992">
        <ele>358</ele>
        <time>2016-10-30T10:54:39.000Z</time>
      </trkpt>
      <trkpt lat="47.49777" lon="6.93991">
        <ele>358</ele>
        <time>2016-10-30T10:54:40.000Z</time>
      </trkpt>
      <trkpt lat="47.49781" lon="6.93989">
        <ele>358</ele>
        <time>2016-10-30T10:54:41.000Z</time>
      </trkpt>
      <trkpt lat="47.49785" lon="6.93987">
        <ele>358</ele>
        <time>2016-10-30T10:54:42.000Z</time>
      </trkpt>
      <trkpt lat="47.49789" lon="6.93986">
        <ele>358</ele>
        <time>2016-10-30T10:54:43.000Z</time>
      </trkpt>
      <trkpt lat="47.49793" lon="6.93984">
        <ele>358</ele>
        <time>2016-10-30T10:54:44.000Z</time>
      </trkpt>
      <trkpt lat="47.49797" lon="6.93982">
        <ele>358</ele>
        <time>2016-10-30T10:54:45.000Z</time>
      </trkpt>
      <trkpt lat="47.49802" lon="6.93981">
        <ele>357</ele>
        <time>2016-10-30T10:54:46.000Z</time>
      </trkpt>
      <trkpt lat="47.49806" lon="6.93979">
        <ele>357</ele>
        <time>2016-10-30T10:54:47.000Z</time>
      </trkpt>
      <trkpt lat="47.49811" lon="6.93978">
        <ele>357</ele>
        <time>2016-10-30T10:54:48.000Z</time>
      </trkpt>
      <trkpt lat="47.49816" lon="6.93977">
        <ele>357</ele>
        <time>2016-10-30T10:54:49.000Z</time>
      </trkpt>
      <trkpt lat="47.49821" lon="6.93977">
        <ele>357</ele>
        <time>2016-10-30T10:54:50.000Z</time>
      </trkpt>
      <trkpt lat="47.49826" lon="6.93976">
        <ele>357</ele>
        <time>2016-10-30T10:54:51.000Z</time>
      </trkpt>
      <trkpt lat="47.49832" lon="6.93976">
        <ele>357</ele>
        <time>2016-10-30T10:54:52.000Z</time>
      </trkpt>
      <trkpt lat="47.49837" lon="6.93975">
        <ele>356</ele>
        <time>2016-10-30T10:54:53.000Z</time>
      </trkpt>
      <trkpt lat="47.49843" lon="6.93975">
        <ele>356</ele>
        <time>2016-10-30T10:54:54.000Z</time>
      </trkpt>
      <trkpt lat="47.49848" lon="6.93974">
        <ele>356</ele>
        <time>2016-10-30T10:54:55.000Z</time>
      </trkpt>
      <trkpt lat="47.49853" lon="6.93974">
        <ele>356</ele>
        <time>2016-10-30T10:54:56.000Z</time>
      </trkpt>
      <trkpt lat="47.49858" lon="6.93973">
        <ele>356</ele>
        <time>2016-10-30T10:54:57.000Z</time>
      </trkpt>
      <trkpt lat="47.49862" lon="6.93972">
        <ele>356</ele>
        <time>2016-10-30T10:54:58.000Z</time>
      </trkpt>
      <trkpt lat="47.49867" lon="6.93972">
        <ele>356</ele>
        <time>2016-10-30T10:54:59.000Z</time>
      </trkpt>
      <trkpt lat="47.49871" lon="6.93972">
        <ele>356</ele>
        <time>2016-10-30T10:55:00.000Z</time>
      </trkpt>
      <trkpt lat="47.49876" lon="6.93972">
        <ele>356</ele>
        <time>2016-10-30T10:55:01.000Z</time>
      </trkpt>
      <trkpt lat="47.49881" lon="6.93972">
        <ele>356</ele>
        <time>2016-10-30T10:55:02.000Z</time>
      </trkpt>
      <trkpt lat="47.49887" lon="6.93972">
        <ele>356</ele>
        <time>2016-10-30T10:55:03.000Z</time>
      </trkpt>
      <trkpt lat="47.49892" lon="6.93972">
        <ele>356</ele>
        <time>2016-10-30T10:55:04.000Z</time>
      </trkpt>
      <trkpt lat="47.49897" lon="6.93973">
        <ele>356</ele>
        <time>2016-10-30T10:55:05.000Z</time>
      </trkpt>
      <trkpt lat="47.49902" lon="6.93972">
        <ele>356</ele>
        <time>2016-10-30T10:55:06.000Z</time>
      </trkpt>
      <trkpt lat="47.49907" lon="6.93972">
        <ele>356</ele>
        <time>2016-10-30T10:55:07.000Z</time>
      </trkpt>
      <trkpt lat="47.49912" lon="6.93971">
        <ele>356</ele>
        <time>2016-10-30T10:55:08.000Z</time>
      </trkpt>
      <trkpt lat="47.49917" lon="6.9397">
        <ele>356</ele>
        <time>2016-10-30T10:55:09.000Z</time>
      </trkpt>
      <trkpt lat="47.49922" lon="6.93969">
        <ele>356</ele>
        <time>2016-10-30T10:55:10.000Z</time>
      </trkpt>
      <trkpt lat="47.49927" lon="6.93968">
        <ele>356</ele>
        <time>2016-10-30T10:55:11.000Z</time>
      </trkpt>
      <trkpt lat="47.49931" lon="6.93966">
        <ele>356</ele>
        <time>2016-10-30T10:55:12.000Z</time>
      </trkpt>
      <trkpt lat="47.49936" lon="6.93965">
        <ele>356</ele>
        <time>2016-10-30T10:55:13.000Z</time>
      </trkpt>
      <trkpt lat="47.4994" lon="6.93964">
        <ele>356</ele>
        <time>2016-10-30T10:55:14.000Z</time>
      </trkpt>
      <trkpt lat="47.49945" lon="6.93963">
        <ele>356</ele>
        <time>2016-10-30T10:55:15.000Z</time>
      </trkpt>
      <trkpt lat="47.4995" lon="6.93961">
        <ele>356</ele>
        <time>2016-10-30T10:55:16.000Z</time>
      </trkpt>
      <trkpt lat="47.49954" lon="6.93959">
        <ele>356</ele>
        <time>2016-10-30T10:55:17.000Z</time>
      </trkpt>
      <trkpt lat="47.49959" lon="6.93957">
        <ele>356</ele>
        <time>2016-10-30T10:55:18.000Z</time>
      </trkpt>
      <trkpt lat="47.49963" lon="6.93954">
        <ele>356</ele>
        <time>2016-10-30T10:55:19.000Z</time>
      </trkpt>
      <trkpt lat="47.49968" lon="6.93953">
        <ele>356</ele>
        <time>2016-10-30T10:55:20.000Z</time>
      </trkpt>
      <trkpt lat="47.49973" lon="6.93952">
        <ele>356</ele>
        <time>2016-10-30T10:55:21.000Z</time>
      </trkpt>
      <trkpt lat="47.49977" lon="6.93951">
        <ele>356</ele>
        <time>2016-10-30T10:55:22.000Z</time>
      </trkpt>
      <trkpt lat="47.49982" lon="6.9395">
        <ele>356</ele>
        <time>2016-10-30T10:55:23.001Z</time>
      </trkpt>
      <trkpt lat="47.49986" lon="6.9395">
        <ele>356</ele>
        <time>2016-10-30T10:55:24.000Z</time>
      </trkpt>
      <trkpt lat="47.4999" lon="6.9395">
        <ele>356</ele>
        <time>2016-10-30T10:55:25.000Z</time>
      </trkpt>
      <trkpt lat="47.49994" lon="6.93949">
        <ele>356</ele>
        <time>2016-10-30T10:55:26.000Z</time>
      </trkpt>
      <trkpt lat="47.49998" lon="6.93949">
        <ele>356</ele>
        <time>2016-10-30T10:55:27.000Z</time>
      </trkpt>
      <trkpt lat="47.50002" lon="6.93947">
        <ele>356</ele>
        <time>2016-10-30T10:55:28.000Z</time>
      </trkpt>
      <trkpt lat="47.50006" lon="6.93947">
        <ele>356</ele>
        <time>2016-10-30T10:55:29.000Z</time>
      </trkpt>
      <trkpt lat="47.50011" lon="6.93947">
        <ele>356</ele>
        <time>2016-10-30T10:55:29.999Z</time>
      </trkpt>
      <trkpt lat="47.50016" lon="6.93947">
        <ele>356</ele>
        <time>2016-10-30T10:55:31.000Z</time>
      </trkpt>
      <trkpt lat="47.50021" lon="6.93947">
        <ele>356</ele>
        <time>2016-10-30T10:55:32.000Z</time>
      </trkpt>
      <trkpt lat="47.50025" lon="6.93947">
        <ele>356</ele>
        <time>2016-10-30T10:55:33.000Z</time>
      </trkpt>
      <trkpt lat="47.50029" lon="6.93946">
        <ele>356</ele>
        <time>2016-10-30T10:55:34.000Z</time>
      </trkpt>
      <trkpt lat="47.50034" lon="6.93945">
        <ele>356</ele>
        <time>2016-10-30T10:55:35.000Z</time>
      </trkpt>
      <trkpt lat="47.50039" lon="6.93945">
        <ele>356</ele>
        <time>2016-10-30T10:55:36.000Z</time>
      </trkpt>
      <trkpt lat="47.50043" lon="6.93945">
        <ele>356</ele>
        <time>2016-10-30T10:55:37.000Z</time>
      </trkpt>
      <trkpt lat="47.50048" lon="6.93944">
        <ele>356</ele>
        <time>2016-10-30T10:55:38.000Z</time>
      </trkpt>
      <trkpt lat="47.50053" lon="6.93941">
        <ele>356</ele>
        <time>2016-10-30T10:55:39.000Z</time>
      </trkpt>
      <trkpt lat="47.50058" lon="6.93941">
        <ele>356</ele>
        <time>2016-10-30T10:55:40.000Z</time>
      </trkpt>
      <trkpt lat="47.50063" lon="6.9394">
        <ele>356</ele>
        <time>2016-10-30T10:55:41.000Z</time>
      </trkpt>
      <trkpt lat="47.50068" lon="6.9394">
        <ele>356</ele>
        <time>2016-10-30T10:55:42.000Z</time>
      </trkpt>
      <trkpt lat="47.50073" lon="6.93939">
        <ele>356</ele>
        <time>2016-10-30T10:55:43.000Z</time>
      </trkpt>
      <trkpt lat="47.50078" lon="6.93938">
        <ele>356</ele>
        <time>2016-10-30T10:55:44.000Z</time>
      </trkpt>
      <trkpt lat="47.50083" lon="6.93938">
        <ele>356</ele>
        <time>2016-10-30T10:55:45.000Z</time>
      </trkpt>
      <trkpt lat="47.50088" lon="6.93937">
        <ele>356</ele>
        <time>2016-10-30T10:55:46.000Z</time>
      </trkpt>
      <trkpt lat="47.50093" lon="6.93937">
        <ele>356</ele>
        <time>2016-10-30T10:55:47.000Z</time>
      </trkpt>
      <trkpt lat="47.50098" lon="6.93936">
        <ele>356</ele>
        <time>2016-10-30T10:55:48.000Z</time>
      </trkpt>
      <trkpt lat="47.50102" lon="6.93936">
        <ele>356</ele>
        <time>2016-10-30T10:55:49.000Z</time>
      </trkpt>
      <trkpt lat="47.50107" lon="6.93935">
        <ele>356</ele>
        <time>2016-10-30T10:55:50.000Z</time>
      </trkpt>
      <trkpt lat="47.50112" lon="6.93935">
        <ele>356</ele>
        <time>2016-10-30T10:55:51.000Z</time>
      </trkpt>
      <trkpt lat="47.50117" lon="6.93934">
        <ele>356</ele>
        <time>2016-10-30T10:55:52.000Z</time>
      </trkpt>
      <trkpt lat="47.50121" lon="6.93934">
        <ele>356</ele>
        <time>2016-10-30T10:55:53.000Z</time>
      </trkpt>
      <trkpt lat="47.50125" lon="6.93934">
        <ele>356</ele>
        <time>2016-10-30T10:55:54.000Z</time>
      </trkpt>
      <trkpt lat="47.5013" lon="6.93933">
        <ele>356</ele>
        <time>2016-10-30T10:55:55.000Z</time>
      </trkpt>
      <trkpt lat="47.50135" lon="6.93933">
        <ele>356</ele>
        <time>2016-10-30T10:55:56.000Z</time>
      </trkpt>
      <trkpt lat="47.5014" lon="6.93932">
        <ele>356</ele>
        <time>2016-10-30T10:55:57.000Z</time>
      </trkpt>
      <trkpt lat="47.50144" lon="6.93931">
        <ele>356</ele>
        <time>2016-10-30T10:55:58.000Z</time>
      </trkpt>
      <trkpt lat="47.50148" lon="6.93931">
        <ele>356</ele>
        <time>2016-10-30T10:55:59.000Z</time>
      </trkpt>
      <trkpt lat="47.50153" lon="6.9393">
        <ele>356</ele>
        <time>2016-10-30T10:56:00.000Z</time>
      </trkpt>
      <trkpt lat="47.50158" lon="6.9393">
        <ele>356</ele>
        <time>2016-10-30T10:56:01.000Z</time>
      </trkpt>
      <trkpt lat="47.50162" lon="6.9393">
        <ele>356</ele>
        <time>2016-10-30T10:56:02.000Z</time>
      </trkpt>
      <trkpt lat="47.50167" lon="6.93929">
        <ele>356</ele>
        <time>2016-10-30T10:56:03.000Z</time>
      </trkpt>
      <trkpt lat="47.50171" lon="6.93929">
        <ele>356</ele>
        <time>2016-10-30T10:56:04.000Z</time>
      </trkpt>
      <trkpt lat="47.50176" lon="6.93929">
        <ele>356</ele>
        <time>2016-10-30T10:56:05.000Z</time>
      </trkpt>
      <trkpt lat="47.5018" lon="6.9393">
        <ele>356</ele>
        <time>2016-10-30T10:56:06.000Z</time>
      </trkpt>
      <trkpt lat="47.50185" lon="6.9393">
        <ele>356</ele>
        <time>2016-10-30T10:56:07.000Z</time>
      </trkpt>
      <trkpt lat="47.50189" lon="6.93931">
        <ele>355</ele>
        <time>2016-10-30T10:56:08.000Z</time>
      </trkpt>
      <trkpt lat="47.50193" lon="6.93931">
        <ele>355</ele>
        <time>2016-10-30T10:56:09.000Z</time>
      </trkpt>
      <trkpt lat="47.50197" lon="6.93932">
        <ele>355</ele>
        <time>2016-10-30T10:56:10.000Z</time>
      </trkpt>
      <trkpt lat="47.50201" lon="6.93934">
        <ele>355</ele>
        <time>2016-10-30T10:56:11.000Z</time>
      </trkpt>
      <trkpt lat="47.50205" lon="6.93936">
        <ele>355</ele>
        <time>2016-10-30T10:56:12.000Z</time>
      </trkpt>
      <trkpt lat="47.5021" lon="6.93937">
        <ele>355</ele>
        <time>2016-10-30T10:56:13.000Z</time>
      </trkpt>
      <trkpt lat="47.50214" lon="6.93939">
        <ele>355</ele>
        <time>2016-10-30T10:56:14.000Z</time>
      </trkpt>
      <trkpt lat="47.50218" lon="6.93942">
        <ele>355</ele>
        <time>2016-10-30T10:56:15.000Z</time>
      </trkpt>
      <trkpt lat="47.50223" lon="6.93943">
        <ele>355</ele>
        <time>2016-10-30T10:56:16.000Z</time>
      </trkpt>
      <trkpt lat="47.50227" lon="6.93945">
        <ele>355</ele>
        <time>2016-10-30T10:56:17.000Z</time>
      </trkpt>
      <trkpt lat="47.50231" lon="6.93947">
        <ele>355</ele>
        <time>2016-10-30T10:56:18.000Z</time>
      </trkpt>
      <trkpt lat="47.50236" lon="6.93947">
        <ele>355</ele>
        <time>2016-10-30T10:56:19.000Z</time>
      </trkpt>
      <trkpt lat="47.50241" lon="6.93948">
        <ele>355</ele>
        <time>2016-10-30T10:56:20.000Z</time>
      </trkpt>
      <trkpt lat="47.50246" lon="6.93948">
        <ele>355</ele>
        <time>2016-10-30T10:56:21.000Z</time>
      </trkpt>
      <trkpt lat="47.50251" lon="6.93948">
        <ele>353</ele>
        <time>2016-10-30T10:56:22.000Z</time>
      </trkpt>
      <trkpt lat="47.50255" lon="6.93947">
        <ele>353</ele>
        <time>2016-10-30T10:56:23.000Z</time>
      </trkpt>
      <trkpt lat="47.5026" lon="6.93948">
        <ele>353</ele>
        <time>2016-10-30T10:56:24.000Z</time>
      </trkpt>
      <trkpt lat="47.50265" lon="6.93948">
        <ele>353</ele>
        <time>2016-10-30T10:56:25.000Z</time>
      </trkpt>
      <trkpt lat="47.5027" lon="6.93948">
        <ele>353</ele>
        <time>2016-10-30T10:56:26.000Z</time>
      </trkpt>
      <trkpt lat="47.50275" lon="6.93949">
        <ele>353</ele>
        <time>2016-10-30T10:56:27.000Z</time>
      </trkpt>
      <trkpt lat="47.50281" lon="6.93948">
        <ele>353</ele>
        <time>2016-10-30T10:56:28.000Z</time>
      </trkpt>
      <trkpt lat="47.50286" lon="6.93948">
        <ele>353</ele>
        <time>2016-10-30T10:56:29.000Z</time>
      </trkpt>
      <trkpt lat="47.50291" lon="6.93949">
        <ele>353</ele>
        <time>2016-10-30T10:56:30.000Z</time>
      </trkpt>
      <trkpt lat="47.50296" lon="6.9395">
        <ele>353</ele>
        <time>2016-10-30T10:56:31.000Z</time>
      </trkpt>
      <trkpt lat="47.503" lon="6.9395">
        <ele>352</ele>
        <time>2016-10-30T10:56:32.000Z</time>
      </trkpt>
      <trkpt lat="47.50305" lon="6.93949">
        <ele>352</ele>
        <time>2016-10-30T10:56:33.000Z</time>
      </trkpt>
      <trkpt lat="47.50309" lon="6.93949">
        <ele>352</ele>
        <time>2016-10-30T10:56:34.000Z</time>
      </trkpt>
      <trkpt lat="47.50313" lon="6.93948">
        <ele>352</ele>
        <time>2016-10-30T10:56:35.000Z</time>
      </trkpt>
      <trkpt lat="47.50316" lon="6.93948">
        <ele>352</ele>
        <time>2016-10-30T10:56:36.000Z</time>
      </trkpt>
      <trkpt lat="47.5032" lon="6.93947">
        <ele>352</ele>
        <time>2016-10-30T10:56:37.000Z</time>
      </trkpt>
      <trkpt lat="47.50324" lon="6.93946">
        <ele>352</ele>
        <time>2016-10-30T10:56:38.000Z</time>
      </trkpt>
      <trkpt lat="47.50328" lon="6.93946">
        <ele>352</ele>
        <time>2016-10-30T10:56:39.000Z</time>
      </trkpt>
      <trkpt lat="47.50332" lon="6.93946">
        <ele>352</ele>
        <time>2016-10-30T10:56:40.000Z</time>
      </trkpt>
      <trkpt lat="47.50336" lon="6.93945">
        <ele>351</ele>
        <time>2016-10-30T10:56:41.000Z</time>
      </trkpt>
      <trkpt lat="47.50339" lon="6.93945">
        <ele>351</ele>
        <time>2016-10-30T10:56:42.000Z</time>
      </trkpt>
      <trkpt lat="47.50342" lon="6.93946">
        <ele>351</ele>
        <time>2016-10-30T10:56:43.000Z</time>
      </trkpt>
      <trkpt lat="47.50345" lon="6.93947">
        <ele>351</ele>
        <time>2016-10-30T10:56:46.000Z</time>
      </trkpt>
      <trkpt lat="47.50346" lon="6.93947">
        <ele>350</ele>
        <time>2016-10-30T10:56:47.000Z</time>
      </trkpt>
      <trkpt lat="47.50347" lon="6.93953">
        <ele>350</ele>
        <time>2016-10-30T10:58:04.000Z</time>
      </trkpt>
      <trkpt lat="47.50347" lon="6.93956">
        <ele>350</ele>
        <time>2016-10-30T10:58:05.000Z</time>
      </trkpt>
      <trkpt lat="47.50347" lon="6.9396">
        <ele>350</ele>
        <time>2016-10-30T10:58:06.000Z</time>
      </trkpt>
      <trkpt lat="47.50348" lon="6.93964">
        <ele>350</ele>
        <time>2016-10-30T10:58:07.000Z</time>
      </trkpt>
      <trkpt lat="47.50348" lon="6.93969">
        <ele>350</ele>
        <time>2016-10-30T10:58:08.000Z</time>
      </trkpt>
      <trkpt lat="47.50349" lon="6.93973">
        <ele>350</ele>
        <time>2016-10-30T10:58:09.000Z</time>
      </trkpt>
      <trkpt lat="47.5035" lon="6.93978">
        <ele>350</ele>
        <time>2016-10-30T10:58:10.000Z</time>
      </trkpt>
      <trkpt lat="47.50352" lon="6.93983">
        <ele>350</ele>
        <time>2016-10-30T10:58:11.000Z</time>
      </trkpt>
      <trkpt lat="47.50353" lon="6.93988">
        <ele>350</ele>
        <time>2016-10-30T10:58:12.000Z</time>
      </trkpt>
      <trkpt lat="47.50355" lon="6.93994">
        <ele>350</ele>
        <time>2016-10-30T10:58:13.000Z</time>
      </trkpt>
      <trkpt lat="47.50357" lon="6.93999">
        <ele>350</ele>
        <time>2016-10-30T10:58:14.000Z</time>
      </trkpt>
      <trkpt lat="47.50361" lon="6.94006">
        <ele>350</ele>
        <time>2016-10-30T10:58:15.000Z</time>
      </trkpt>
      <trkpt lat="47.50363" lon="6.94012">
        <ele>350</ele>
        <time>2016-10-30T10:58:16.000Z</time>
      </trkpt>
      <trkpt lat="47.50366" lon="6.94017">
        <ele>350</ele>
        <time>2016-10-30T10:58:17.000Z</time>
      </trkpt>
      <trkpt lat="47.50368" lon="6.94023">
        <ele>350</ele>
        <time>2016-10-30T10:58:18.000Z</time>
      </trkpt>
      <trkpt lat="47.50371" lon="6.94029">
        <ele>350</ele>
        <time>2016-10-30T10:58:19.000Z</time>
      </trkpt>
      <trkpt lat="47.50373" lon="6.94034">
        <ele>350</ele>
        <time>2016-10-30T10:58:20.000Z</time>
      </trkpt>
      <trkpt lat="47.50375" lon="6.94039">
        <ele>350</ele>
        <time>2016-10-30T10:58:21.000Z</time>
      </trkpt>
      <trkpt lat="47.50377" lon="6.94044">
        <ele>350</ele>
        <time>2016-10-30T10:58:22.000Z</time>
      </trkpt>
      <trkpt lat="47.50379" lon="6.94051">
        <ele>350</ele>
        <time>2016-10-30T10:58:23.000Z</time>
      </trkpt>
      <trkpt lat="47.5038" lon="6.94056">
        <ele>350</ele>
        <time>2016-10-30T10:58:24.000Z</time>
      </trkpt>
      <trkpt lat="47.5038" lon="6.94062">
        <ele>350</ele>
        <time>2016-10-30T10:58:25.000Z</time>
      </trkpt>
      <trkpt lat="47.50381" lon="6.94069">
        <ele>350</ele>
        <time>2016-10-30T10:58:26.000Z</time>
      </trkpt>
      <trkpt lat="47.50382" lon="6.94075">
        <ele>350</ele>
        <time>2016-10-30T10:58:27.000Z</time>
      </trkpt>
      <trkpt lat="47.50382" lon="6.94082">
        <ele>350</ele>
        <time>2016-10-30T10:58:28.000Z</time>
      </trkpt>
      <trkpt lat="47.50383" lon="6.94089">
        <ele>350</ele>
        <time>2016-10-30T10:58:29.000Z</time>
      </trkpt>
      <trkpt lat="47.50384" lon="6.94095">
        <ele>350</ele>
        <time>2016-10-30T10:58:30.000Z</time>
      </trkpt>
      <trkpt lat="47.50384" lon="6.94102">
        <ele>350</ele>
        <time>2016-10-30T10:58:31.000Z</time>
      </trkpt>
      <trkpt lat="47.50385" lon="6.94108">
        <ele>350</ele>
        <time>2016-10-30T10:58:32.000Z</time>
      </trkpt>
      <trkpt lat="47.50386" lon="6.94114">
        <ele>350</ele>
        <time>2016-10-30T10:58:33.000Z</time>
      </trkpt>
      <trkpt lat="47.50386" lon="6.94122">
        <ele>350</ele>
        <time>2016-10-30T10:58:34.000Z</time>
      </trkpt>
      <trkpt lat="47.50387" lon="6.94128">
        <ele>350</ele>
        <time>2016-10-30T10:58:35.000Z</time>
      </trkpt>
      <trkpt lat="47.50387" lon="6.94135">
        <ele>350</ele>
        <time>2016-10-30T10:58:36.000Z</time>
      </trkpt>
      <trkpt lat="47.50388" lon="6.94141">
        <ele>350</ele>
        <time>2016-10-30T10:58:37.000Z</time>
      </trkpt>
      <trkpt lat="47.50388" lon="6.94148">
        <ele>350</ele>
        <time>2016-10-30T10:58:38.000Z</time>
      </trkpt>
      <trkpt lat="47.50389" lon="6.94154">
        <ele>350</ele>
        <time>2016-10-30T10:58:39.000Z</time>
      </trkpt>
      <trkpt lat="47.50389" lon="6.9416">
        <ele>350</ele>
        <time>2016-10-30T10:58:40.000Z</time>
      </trkpt>
      <trkpt lat="47.50389" lon="6.94166">
        <ele>350</ele>
        <time>2016-10-30T10:58:41.000Z</time>
      </trkpt>
      <trkpt lat="47.50389" lon="6.94173">
        <ele>350</ele>
        <time>2016-10-30T10:58:42.000Z</time>
      </trkpt>
      <trkpt lat="47.5039" lon="6.94181">
        <ele>350</ele>
        <time>2016-10-30T10:58:43.000Z</time>
      </trkpt>
      <trkpt lat="47.5039" lon="6.94188">
        <ele>350</ele>
        <time>2016-10-30T10:58:44.000Z</time>
      </trkpt>
      <trkpt lat="47.50391" lon="6.94195">
        <ele>350</ele>
        <time>2016-10-30T10:58:45.000Z</time>
      </trkpt>
      <trkpt lat="47.50391" lon="6.94201">
        <ele>350</ele>
        <time>2016-10-30T10:58:46.000Z</time>
      </trkpt>
      <trkpt lat="47.50391" lon="6.94208">
        <ele>350</ele>
        <time>2016-10-30T10:58:47.000Z</time>
      </trkpt>
      <trkpt lat="47.50392" lon="6.94215">
        <ele>350</ele>
        <time>2016-10-30T10:58:48.000Z</time>
      </trkpt>
      <trkpt lat="47.50392" lon="6.94222">
        <ele>350</ele>
        <time>2016-10-30T10:58:49.000Z</time>
      </trkpt>
      <trkpt lat="47.50392" lon="6.9423">
        <ele>350</ele>
        <time>2016-10-30T10:58:50.000Z</time>
      </trkpt>
      <trkpt lat="47.50393" lon="6.94236">
        <ele>350</ele>
        <time>2016-10-30T10:58:51.000Z</time>
      </trkpt>
      <trkpt lat="47.50393" lon="6.94243">
        <ele>350</ele>
        <time>2016-10-30T10:58:52.000Z</time>
      </trkpt>
      <trkpt lat="47.50394" lon="6.94249">
        <ele>350</ele>
        <time>2016-10-30T10:58:53.000Z</time>
      </trkpt>
      <trkpt lat="47.50395" lon="6.94255">
        <ele>350</ele>
        <time>2016-10-30T10:58:54.000Z</time>
      </trkpt>
      <trkpt lat="47.50395" lon="6.94261">
        <ele>350</ele>
        <time>2016-10-30T10:58:55.000Z</time>
      </trkpt>
      <trkpt lat="47.50396" lon="6.94268">
        <ele>350</ele>
        <time>2016-10-30T10:58:56.000Z</time>
      </trkpt>
      <trkpt lat="47.50397" lon="6.94275">
        <ele>351</ele>
        <time>2016-10-30T10:58:57.000Z</time>
      </trkpt>
      <trkpt lat="47.50398" lon="6.94283">
        <ele>351</ele>
        <time>2016-10-30T10:58:58.000Z</time>
      </trkpt>
      <trkpt lat="47.50398" lon="6.94289">
        <ele>351</ele>
        <time>2016-10-30T10:58:59.000Z</time>
      </trkpt>
      <trkpt lat="47.50398" lon="6.94296">
        <ele>351</ele>
        <time>2016-10-30T10:59:00.000Z</time>
      </trkpt>
      <trkpt lat="47.50399" lon="6.94302">
        <ele>351</ele>
        <time>2016-10-30T10:59:01.000Z</time>
      </trkpt>
      <trkpt lat="47.50399" lon="6.94308">
        <ele>351</ele>
        <time>2016-10-30T10:59:02.000Z</time>
      </trkpt>
      <trkpt lat="47.50399" lon="6.94314">
        <ele>351</ele>
        <time>2016-10-30T10:59:03.000Z</time>
      </trkpt>
      <trkpt lat="47.504" lon="6.94321">
        <ele>351</ele>
        <time>2016-10-30T10:59:04.000Z</time>
      </trkpt>
      <trkpt lat="47.504" lon="6.94327">
        <ele>351</ele>
        <time>2016-10-30T10:59:05.000Z</time>
      </trkpt>
      <trkpt lat="47.504" lon="6.94332">
        <ele>351</ele>
        <time>2016-10-30T10:59:06.000Z</time>
      </trkpt>
      <trkpt lat="47.504" lon="6.94338">
        <ele>351</ele>
        <time>2016-10-30T10:59:07.000Z</time>
      </trkpt>
      <trkpt lat="47.50401" lon="6.94345">
        <ele>351</ele>
        <time>2016-10-30T10:59:08.000Z</time>
      </trkpt>
      <trkpt lat="47.50402" lon="6.9435">
        <ele>351</ele>
        <time>2016-10-30T10:59:09.000Z</time>
      </trkpt>
      <trkpt lat="47.50402" lon="6.94355">
        <ele>351</ele>
        <time>2016-10-30T10:59:10.000Z</time>
      </trkpt>
      <trkpt lat="47.50403" lon="6.9436">
        <ele>351</ele>
        <time>2016-10-30T10:59:11.000Z</time>
      </trkpt>
      <trkpt lat="47.50404" lon="6.94366">
        <ele>351</ele>
        <time>2016-10-30T10:59:12.000Z</time>
      </trkpt>
      <trkpt lat="47.50405" lon="6.94371">
        <ele>351</ele>
        <time>2016-10-30T10:59:13.000Z</time>
      </trkpt>
      <trkpt lat="47.50406" lon="6.94377">
        <ele>352</ele>
        <time>2016-10-30T10:59:14.000Z</time>
      </trkpt>
      <trkpt lat="47.50407" lon="6.94382">
        <ele>352</ele>
        <time>2016-10-30T10:59:15.000Z</time>
      </trkpt>
      <trkpt lat="47.50409" lon="6.94387">
        <ele>352</ele>
        <time>2016-10-30T10:59:16.000Z</time>
      </trkpt>
      <trkpt lat="47.50411" lon="6.94391">
        <ele>352</ele>
        <time>2016-10-30T10:59:17.000Z</time>
      </trkpt>
      <trkpt lat="47.50415" lon="6.94393">
        <ele>352</ele>
        <time>2016-10-30T10:59:18.000Z</time>
      </trkpt>
      <trkpt lat="47.50419" lon="6.94393">
        <ele>352</ele>
        <time>2016-10-30T10:59:19.000Z</time>
      </trkpt>
      <trkpt lat="47.50425" lon="6.94383">
        <ele>352</ele>
        <time>2016-10-30T10:59:20.000Z</time>
      </trkpt>
      <trkpt lat="47.50429" lon="6.9438">
        <ele>352</ele>
        <time>2016-10-30T10:59:21.000Z</time>
      </trkpt>
      <trkpt lat="47.50433" lon="6.94376">
        <ele>352</ele>
        <time>2016-10-30T10:59:22.000Z</time>
      </trkpt>
      <trkpt lat="47.50436" lon="6.94372">
        <ele>352</ele>
        <time>2016-10-30T10:59:23.000Z</time>
      </trkpt>
      <trkpt lat="47.5044" lon="6.94368">
        <ele>352</ele>
        <time>2016-10-30T10:59:24.000Z</time>
      </trkpt>
      <trkpt lat="47.50444" lon="6.94364">
        <ele>352</ele>
        <time>2016-10-30T10:59:25.000Z</time>
      </trkpt>
      <trkpt lat="47.50448" lon="6.9436">
        <ele>352</ele>
        <time>2016-10-30T10:59:26.000Z</time>
      </trkpt>
      <trkpt lat="47.50451" lon="6.94355">
        <ele>352</ele>
        <time>2016-10-30T10:59:27.000Z</time>
      </trkpt>
      <trkpt lat="47.50455" lon="6.94351">
        <ele>352</ele>
        <time>2016-10-30T10:59:28.000Z</time>
      </trkpt>
      <trkpt lat="47.50459" lon="6.94346">
        <ele>352</ele>
        <time>2016-10-30T10:59:29.000Z</time>
      </trkpt>
      <trkpt lat="47.50464" lon="6.94341">
        <ele>352</ele>
        <time>2016-10-30T10:59:30.000Z</time>
      </trkpt>
      <trkpt lat="47.50468" lon="6.94336">
        <ele>352</ele>
        <time>2016-10-30T10:59:31.000Z</time>
      </trkpt>
      <trkpt lat="47.50471" lon="6.94332">
        <ele>351</ele>
        <time>2016-10-30T10:59:32.000Z</time>
      </trkpt>
      <trkpt lat="47.50475" lon="6.94328">
        <ele>351</ele>
        <time>2016-10-30T10:59:33.000Z</time>
      </trkpt>
      <trkpt lat="47.50479" lon="6.94324">
        <ele>351</ele>
        <time>2016-10-30T10:59:34.000Z</time>
      </trkpt>
      <trkpt lat="47.50483" lon="6.94319">
        <ele>351</ele>
        <time>2016-10-30T10:59:35.000Z</time>
      </trkpt>
      <trkpt lat="47.50488" lon="6.94315">
        <ele>351</ele>
        <time>2016-10-30T10:59:36.000Z</time>
      </trkpt>
      <trkpt lat="47.50492" lon="6.9431">
        <ele>351</ele>
        <time>2016-10-30T10:59:37.000Z</time>
      </trkpt>
      <trkpt lat="47.50497" lon="6.94306">
        <ele>351</ele>
        <time>2016-10-30T10:59:38.000Z</time>
      </trkpt>
      <trkpt lat="47.50501" lon="6.94301">
        <ele>352</ele>
        <time>2016-10-30T10:59:39.000Z</time>
      </trkpt>
      <trkpt lat="47.50505" lon="6.94296">
        <ele>353</ele>
        <time>2016-10-30T10:59:40.000Z</time>
      </trkpt>
      <trkpt lat="47.50509" lon="6.94292">
        <ele>352</ele>
        <time>2016-10-30T10:59:41.000Z</time>
      </trkpt>
      <trkpt lat="47.50513" lon="6.94288">
        <ele>352</ele>
        <time>2016-10-30T10:59:42.000Z</time>
      </trkpt>
      <trkpt lat="47.50518" lon="6.94282">
        <ele>352</ele>
        <time>2016-10-30T10:59:43.000Z</time>
      </trkpt>
      <trkpt lat="47.50522" lon="6.94277">
        <ele>352</ele>
        <time>2016-10-30T10:59:44.000Z</time>
      </trkpt>
      <trkpt lat="47.50526" lon="6.94273">
        <ele>352</ele>
        <time>2016-10-30T10:59:45.000Z</time>
      </trkpt>
      <trkpt lat="47.5053" lon="6.94268">
        <ele>352</ele>
        <time>2016-10-30T10:59:46.000Z</time>
      </trkpt>
      <trkpt lat="47.50534" lon="6.94263">
        <ele>353</ele>
        <time>2016-10-30T10:59:47.000Z</time>
      </trkpt>
      <trkpt lat="47.50538" lon="6.94259">
        <ele>353</ele>
        <time>2016-10-30T10:59:48.000Z</time>
      </trkpt>
      <trkpt lat="47.50542" lon="6.94255">
        <ele>353</ele>
        <time>2016-10-30T10:59:49.000Z</time>
      </trkpt>
      <trkpt lat="47.50545" lon="6.9425">
        <ele>353</ele>
        <time>2016-10-30T10:59:50.000Z</time>
      </trkpt>
      <trkpt lat="47.5055" lon="6.94246">
        <ele>352</ele>
        <time>2016-10-30T10:59:51.000Z</time>
      </trkpt>
      <trkpt lat="47.50554" lon="6.94241">
        <ele>352</ele>
        <time>2016-10-30T10:59:52.000Z</time>
      </trkpt>
      <trkpt lat="47.50558" lon="6.94236">
        <ele>352</ele>
        <time>2016-10-30T10:59:53.000Z</time>
      </trkpt>
      <trkpt lat="47.50562" lon="6.94232">
        <ele>352</ele>
        <time>2016-10-30T10:59:54.000Z</time>
      </trkpt>
      <trkpt lat="47.50567" lon="6.94227">
        <ele>352</ele>
        <time>2016-10-30T10:59:55.000Z</time>
      </trkpt>
      <trkpt lat="47.50571" lon="6.94222">
        <ele>352</ele>
        <time>2016-10-30T10:59:56.000Z</time>
      </trkpt>
      <trkpt lat="47.50575" lon="6.94218">
        <ele>352</ele>
        <time>2016-10-30T10:59:57.000Z</time>
      </trkpt>
      <trkpt lat="47.50579" lon="6.94212">
        <ele>352</ele>
        <time>2016-10-30T10:59:58.000Z</time>
      </trkpt>
      <trkpt lat="47.50584" lon="6.94208">
        <ele>354</ele>
        <time>2016-10-30T10:59:59.000Z</time>
      </trkpt>
      <trkpt lat="47.50587" lon="6.94204">
        <ele>353</ele>
        <time>2016-10-30T11:00:00.000Z</time>
      </trkpt>
      <trkpt lat="47.50592" lon="6.94199">
        <ele>353</ele>
        <time>2016-10-30T11:00:01.000Z</time>
      </trkpt>
      <trkpt lat="47.50596" lon="6.94194">
        <ele>353</ele>
        <time>2016-10-30T11:00:02.000Z</time>
      </trkpt>
      <trkpt lat="47.506" lon="6.94189">
        <ele>353</ele>
        <time>2016-10-30T11:00:03.000Z</time>
      </trkpt>
      <trkpt lat="47.50604" lon="6.94185">
        <ele>353</ele>
        <time>2016-10-30T11:00:04.000Z</time>
      </trkpt>
      <trkpt lat="47.50608" lon="6.94181">
        <ele>354</ele>
        <time>2016-10-30T11:00:05.000Z</time>
      </trkpt>
      <trkpt lat="47.50612" lon="6.94177">
        <ele>354</ele>
        <time>2016-10-30T11:00:06.000Z</time>
      </trkpt>
      <trkpt lat="47.50617" lon="6.94172">
        <ele>354</ele>
        <time>2016-10-30T11:00:07.000Z</time>
      </trkpt>
      <trkpt lat="47.50621" lon="6.94168">
        <ele>354</ele>
        <time>2016-10-30T11:00:08.000Z</time>
      </trkpt>
      <trkpt lat="47.50625" lon="6.94163">
        <ele>354</ele>
        <time>2016-10-30T11:00:09.000Z</time>
      </trkpt>
      <trkpt lat="47.50629" lon="6.9416">
        <ele>355</ele>
        <time>2016-10-30T11:00:10.000Z</time>
      </trkpt>
      <trkpt lat="47.50634" lon="6.94155">
        <ele>355</ele>
        <time>2016-10-30T11:00:11.000Z</time>
      </trkpt>
      <trkpt lat="47.50639" lon="6.94151">
        <ele>355</ele>
        <time>2016-10-30T11:00:12.000Z</time>
      </trkpt>
      <trkpt lat="47.50643" lon="6.94146">
        <ele>355</ele>
        <time>2016-10-30T11:00:13.000Z</time>
      </trkpt>
      <trkpt lat="47.50648" lon="6.94141">
        <ele>355</ele>
        <time>2016-10-30T11:00:14.000Z</time>
      </trkpt>
      <trkpt lat="47.50652" lon="6.94136">
        <ele>356</ele>
        <time>2016-10-30T11:00:15.000Z</time>
      </trkpt>
      <trkpt lat="47.50657" lon="6.94131">
        <ele>356</ele>
        <time>2016-10-30T11:00:16.000Z</time>
      </trkpt>
      <trkpt lat="47.50662" lon="6.94127">
        <ele>356</ele>
        <time>2016-10-30T11:00:17.000Z</time>
      </trkpt>
      <trkpt lat="47.50665" lon="6.94122">
        <ele>356</ele>
        <time>2016-10-30T11:00:18.000Z</time>
      </trkpt>
      <trkpt lat="47.50669" lon="6.94117">
        <ele>361</ele>
        <time>2016-10-30T11:00:19.000Z</time>
      </trkpt>
      <trkpt lat="47.50673" lon="6.94113">
        <ele>361</ele>
        <time>2016-10-30T11:00:20.000Z</time>
      </trkpt>
      <trkpt lat="47.50677" lon="6.94109">
        <ele>361</ele>
        <time>2016-10-30T11:00:21.000Z</time>
      </trkpt>
      <trkpt lat="47.50683" lon="6.94104">
        <ele>361</ele>
        <time>2016-10-30T11:00:22.000Z</time>
      </trkpt>
      <trkpt lat="47.50687" lon="6.94099">
        <ele>361</ele>
        <time>2016-10-30T11:00:23.000Z</time>
      </trkpt>
      <trkpt lat="47.50692" lon="6.94094">
        <ele>361</ele>
        <time>2016-10-30T11:00:24.000Z</time>
      </trkpt>
      <trkpt lat="47.50698" lon="6.94089">
        <ele>362</ele>
        <time>2016-10-30T11:00:25.000Z</time>
      </trkpt>
      <trkpt lat="47.50703" lon="6.94083">
        <ele>360</ele>
        <time>2016-10-30T11:00:26.000Z</time>
      </trkpt>
      <trkpt lat="47.50708" lon="6.94078">
        <ele>361</ele>
        <time>2016-10-30T11:00:27.000Z</time>
      </trkpt>
      <trkpt lat="47.50712" lon="6.94073">
        <ele>361</ele>
        <time>2016-10-30T11:00:28.000Z</time>
      </trkpt>
      <trkpt lat="47.50717" lon="6.94067">
        <ele>361</ele>
        <time>2016-10-30T11:00:29.000Z</time>
      </trkpt>
      <trkpt lat="47.50722" lon="6.94063">
        <ele>361</ele>
        <time>2016-10-30T11:00:30.000Z</time>
      </trkpt>
      <trkpt lat="47.50728" lon="6.9406">
        <ele>361</ele>
        <time>2016-10-30T11:00:31.000Z</time>
      </trkpt>
      <trkpt lat="47.50733" lon="6.94055">
        <ele>361</ele>
        <time>2016-10-30T11:00:32.000Z</time>
      </trkpt>
      <trkpt lat="47.50737" lon="6.9405">
        <ele>361</ele>
        <time>2016-10-30T11:00:33.000Z</time>
      </trkpt>
      <trkpt lat="47.5074" lon="6.94044">
        <ele>361</ele>
        <time>2016-10-30T11:00:34.000Z</time>
      </trkpt>
      <trkpt lat="47.50744" lon="6.94036">
        <ele>360</ele>
        <time>2016-10-30T11:00:35.000Z</time>
      </trkpt>
      <trkpt lat="47.50748" lon="6.94029">
        <ele>360</ele>
        <time>2016-10-30T11:00:36.000Z</time>
      </trkpt>
      <trkpt lat="47.50751" lon="6.94022">
        <ele>363</ele>
        <time>2016-10-30T11:00:37.000Z</time>
      </trkpt>
      <trkpt lat="47.50754" lon="6.94016">
        <ele>362</ele>
        <time>2016-10-30T11:00:38.000Z</time>
      </trkpt>
      <trkpt lat="47.50758" lon="6.94009">
        <ele>362</ele>
        <time>2016-10-30T11:00:39.000Z</time>
      </trkpt>
      <trkpt lat="47.50762" lon="6.94001">
        <ele>362</ele>
        <time>2016-10-30T11:00:40.000Z</time>
      </trkpt>
      <trkpt lat="47.50765" lon="6.93993">
        <ele>360</ele>
        <time>2016-10-30T11:00:41.000Z</time>
      </trkpt>
      <trkpt lat="47.50769" lon="6.93986">
        <ele>360</ele>
        <time>2016-10-30T11:00:42.000Z</time>
      </trkpt>
      <trkpt lat="47.50773" lon="6.93979">
        <ele>360</ele>
        <time>2016-10-30T11:00:43.000Z</time>
      </trkpt>
      <trkpt lat="47.50776" lon="6.93973">
        <ele>360</ele>
        <time>2016-10-30T11:00:44.000Z</time>
      </trkpt>
      <trkpt lat="47.5078" lon="6.93967">
        <ele>360</ele>
        <time>2016-10-30T11:00:45.000Z</time>
      </trkpt>
      <trkpt lat="47.50782" lon="6.93957">
        <ele>359</ele>
        <time>2016-10-30T11:00:46.000Z</time>
      </trkpt>
      <trkpt lat="47.50786" lon="6.93951">
        <ele>359</ele>
        <time>2016-10-30T11:00:47.000Z</time>
      </trkpt>
      <trkpt lat="47.50789" lon="6.93944">
        <ele>359</ele>
        <time>2016-10-30T11:00:48.000Z</time>
      </trkpt>
      <trkpt lat="47.50792" lon="6.93937">
        <ele>359</ele>
        <time>2016-10-30T11:00:49.000Z</time>
      </trkpt>
      <trkpt lat="47.50795" lon="6.9393">
        <ele>359</ele>
        <time>2016-10-30T11:00:50.000Z</time>
      </trkpt>
      <trkpt lat="47.50799" lon="6.93922">
        <ele>359</ele>
        <time>2016-10-30T11:00:51.000Z</time>
      </trkpt>
      <trkpt lat="47.50801" lon="6.93913">
        <ele>357</ele>
        <time>2016-10-30T11:00:52.000Z</time>
      </trkpt>
      <trkpt lat="47.50804" lon="6.93905">
        <ele>357</ele>
        <time>2016-10-30T11:00:53.000Z</time>
      </trkpt>
      <trkpt lat="47.50806" lon="6.93897">
        <ele>357</ele>
        <time>2016-10-30T11:00:54.000Z</time>
      </trkpt>
      <trkpt lat="47.50809" lon="6.93889">
        <ele>357</ele>
        <time>2016-10-30T11:00:55.000Z</time>
      </trkpt>
      <trkpt lat="47.50811" lon="6.93882">
        <ele>357</ele>
        <time>2016-10-30T11:00:56.000Z</time>
      </trkpt>
      <trkpt lat="47.50813" lon="6.93874">
        <ele>357</ele>
        <time>2016-10-30T11:00:57.000Z</time>
      </trkpt>
      <trkpt lat="47.50815" lon="6.93868">
        <ele>357</ele>
        <time>2016-10-30T11:00:58.000Z</time>
      </trkpt>
      <trkpt lat="47.50816" lon="6.9386">
        <ele>357</ele>
        <time>2016-10-30T11:00:59.000Z</time>
      </trkpt>
      <trkpt lat="47.50817" lon="6.93853">
        <ele>357</ele>
        <time>2016-10-30T11:01:00.000Z</time>
      </trkpt>
      <trkpt lat="47.50818" lon="6.93846">
        <ele>357</ele>
        <time>2016-10-30T11:01:01.000Z</time>
      </trkpt>
      <trkpt lat="47.5082" lon="6.93838">
        <ele>358</ele>
        <time>2016-10-30T11:01:02.000Z</time>
      </trkpt>
      <trkpt lat="47.50821" lon="6.93831">
        <ele>357</ele>
        <time>2016-10-30T11:01:03.000Z</time>
      </trkpt>
      <trkpt lat="47.50822" lon="6.93823">
        <ele>356</ele>
        <time>2016-10-30T11:01:04.000Z</time>
      </trkpt>
      <trkpt lat="47.50824" lon="6.93815">
        <ele>356</ele>
        <time>2016-10-30T11:01:05.000Z</time>
      </trkpt>
      <trkpt lat="47.50826" lon="6.93809">
        <ele>356</ele>
        <time>2016-10-30T11:01:06.000Z</time>
      </trkpt>
      <trkpt lat="47.50828" lon="6.93801">
        <ele>355</ele>
        <time>2016-10-30T11:01:07.000Z</time>
      </trkpt>
      <trkpt lat="47.5083" lon="6.93794">
        <ele>355</ele>
        <time>2016-10-30T11:01:08.000Z</time>
      </trkpt>
      <trkpt lat="47.50831" lon="6.93788">
        <ele>355</ele>
        <time>2016-10-30T11:01:09.000Z</time>
      </trkpt>
      <trkpt lat="47.50834" lon="6.93782">
        <ele>361</ele>
        <time>2016-10-30T11:01:10.000Z</time>
      </trkpt>
      <trkpt lat="47.50836" lon="6.93776">
        <ele>360</ele>
        <time>2016-10-30T11:01:11.000Z</time>
      </trkpt>
      <trkpt lat="47.5084" lon="6.9377">
        <ele>360</ele>
        <time>2016-10-30T11:01:12.000Z</time>
      </trkpt>
      <trkpt lat="47.50843" lon="6.93764">
        <ele>359</ele>
        <time>2016-10-30T11:01:13.000Z</time>
      </trkpt>
      <trkpt lat="47.50846" lon="6.93757">
        <ele>359</ele>
        <time>2016-10-30T11:01:14.000Z</time>
      </trkpt>
      <trkpt lat="47.5085" lon="6.93751">
        <ele>360</ele>
        <time>2016-10-30T11:01:15.000Z</time>
      </trkpt>
      <trkpt lat="47.50854" lon="6.93744">
        <ele>358</ele>
        <time>2016-10-30T11:01:16.000Z</time>
      </trkpt>
      <trkpt lat="47.50858" lon="6.93737">
        <ele>359</ele>
        <time>2016-10-30T11:01:17.000Z</time>
      </trkpt>
      <trkpt lat="47.50861" lon="6.93731">
        <ele>359</ele>
        <time>2016-10-30T11:01:18.000Z</time>
      </trkpt>
      <trkpt lat="47.50864" lon="6.93723">
        <ele>360</ele>
        <time>2016-10-30T11:01:19.000Z</time>
      </trkpt>
      <trkpt lat="47.50868" lon="6.93716">
        <ele>360</ele>
        <time>2016-10-30T11:01:20.000Z</time>
      </trkpt>
      <trkpt lat="47.50872" lon="6.93709">
        <ele>360</ele>
        <time>2016-10-30T11:01:21.000Z</time>
      </trkpt>
      <trkpt lat="47.50876" lon="6.93701">
        <ele>360</ele>
        <time>2016-10-30T11:01:22.000Z</time>
      </trkpt>
      <trkpt lat="47.5088" lon="6.93694">
        <ele>360</ele>
        <time>2016-10-30T11:01:23.000Z</time>
      </trkpt>
      <trkpt lat="47.50884" lon="6.93686">
        <ele>360</ele>
        <time>2016-10-30T11:01:24.000Z</time>
      </trkpt>
      <trkpt lat="47.50888" lon="6.93679">
        <ele>361</ele>
        <time>2016-10-30T11:01:24.999Z</time>
      </trkpt>
      <trkpt lat="47.50892" lon="6.93671">
        <ele>361</ele>
        <time>2016-10-30T11:01:26.000Z</time>
      </trkpt>
      <trkpt lat="47.50897" lon="6.93665">
        <ele>359</ele>
        <time>2016-10-30T11:01:27.000Z</time>
      </trkpt>
      <trkpt lat="47.50901" lon="6.93658">
        <ele>359</ele>
        <time>2016-10-30T11:01:28.000Z</time>
      </trkpt>
      <trkpt lat="47.50904" lon="6.93654">
        <ele>359</ele>
        <time>2016-10-30T11:01:29.000Z</time>
      </trkpt>
      <trkpt lat="47.50908" lon="6.93648">
        <ele>359</ele>
        <time>2016-10-30T11:01:29.999Z</time>
      </trkpt>
      <trkpt lat="47.50911" lon="6.93641">
        <ele>358</ele>
        <time>2016-10-30T11:01:31.000Z</time>
      </trkpt>
      <trkpt lat="47.50915" lon="6.93634">
        <ele>357</ele>
        <time>2016-10-30T11:01:31.999Z</time>
      </trkpt>
      <trkpt lat="47.5092" lon="6.9363">
        <ele>364</ele>
        <time>2016-10-30T11:01:33.000Z</time>
      </trkpt>
      <trkpt lat="47.50925" lon="6.93624">
        <ele>364</ele>
        <time>2016-10-30T11:01:34.000Z</time>
      </trkpt>
      <trkpt lat="47.50929" lon="6.93618">
        <ele>363</ele>
        <time>2016-10-30T11:01:34.999Z</time>
      </trkpt>
      <trkpt lat="47.50933" lon="6.93613">
        <ele>363</ele>
        <time>2016-10-30T11:01:36.000Z</time>
      </trkpt>
      <trkpt lat="47.50937" lon="6.93608">
        <ele>363</ele>
        <time>2016-10-30T11:01:37.000Z</time>
      </trkpt>
      <trkpt lat="47.5094" lon="6.93602">
        <ele>363</ele>
        <time>2016-10-30T11:01:37.999Z</time>
      </trkpt>
      <trkpt lat="47.50945" lon="6.93595">
        <ele>363</ele>
        <time>2016-10-30T11:01:39.000Z</time>
      </trkpt>
      <trkpt lat="47.50948" lon="6.93591">
        <ele>363</ele>
        <time>2016-10-30T11:01:40.000Z</time>
      </trkpt>
      <trkpt lat="47.50952" lon="6.93585">
        <ele>364</ele>
        <time>2016-10-30T11:01:41.000Z</time>
      </trkpt>
      <trkpt lat="47.50955" lon="6.93578">
        <ele>359</ele>
        <time>2016-10-30T11:01:42.000Z</time>
      </trkpt>
      <trkpt lat="47.50959" lon="6.93573">
        <ele>359</ele>
        <time>2016-10-30T11:01:43.000Z</time>
      </trkpt>
      <trkpt lat="47.50963" lon="6.93569">
        <ele>360</ele>
        <time>2016-10-30T11:01:44.000Z</time>
      </trkpt>
      <trkpt lat="47.50966" lon="6.93565">
        <ele>360</ele>
        <time>2016-10-30T11:01:45.000Z</time>
      </trkpt>
      <trkpt lat="47.50969" lon="6.93561">
        <ele>360</ele>
        <time>2016-10-30T11:01:45.999Z</time>
      </trkpt>
      <trkpt lat="47.50972" lon="6.93557">
        <ele>360</ele>
        <time>2016-10-30T11:01:47.000Z</time>
      </trkpt>
      <trkpt lat="47.50975" lon="6.93552">
        <ele>360</ele>
        <time>2016-10-30T11:01:48.000Z</time>
      </trkpt>
      <trkpt lat="47.50979" lon="6.93547">
        <ele>360</ele>
        <time>2016-10-30T11:01:49.000Z</time>
      </trkpt>
      <trkpt lat="47.50981" lon="6.93543">
        <ele>360</ele>
        <time>2016-10-30T11:01:50.001Z</time>
      </trkpt>
      <trkpt lat="47.50984" lon="6.93538">
        <ele>360</ele>
        <time>2016-10-30T11:01:51.000Z</time>
      </trkpt>
      <trkpt lat="47.50987" lon="6.93535">
        <ele>360</ele>
        <time>2016-10-30T11:01:52.000Z</time>
      </trkpt>
      <trkpt lat="47.5099" lon="6.93531">
        <ele>360</ele>
        <time>2016-10-30T11:01:53.001Z</time>
      </trkpt>
      <trkpt lat="47.50992" lon="6.93525">
        <ele>360</ele>
        <time>2016-10-30T11:01:54.000Z</time>
      </trkpt>
      <trkpt lat="47.50995" lon="6.9352">
        <ele>360</ele>
        <time>2016-10-30T11:01:55.000Z</time>
      </trkpt>
      <trkpt lat="47.51" lon="6.93512">
        <ele>364</ele>
        <time>2016-10-30T11:01:56.000Z</time>
      </trkpt>
      <trkpt lat="47.51004" lon="6.93505">
        <ele>363</ele>
        <time>2016-10-30T11:01:57.000Z</time>
      </trkpt>
      <trkpt lat="47.51008" lon="6.93499">
        <ele>361</ele>
        <time>2016-10-30T11:01:58.000Z</time>
      </trkpt>
      <trkpt lat="47.51012" lon="6.93492">
        <ele>362</ele>
        <time>2016-10-30T11:01:59.000Z</time>
      </trkpt>
      <trkpt lat="47.51015" lon="6.93487">
        <ele>362</ele>
        <time>2016-10-30T11:02:00.000Z</time>
      </trkpt>
      <trkpt lat="47.5102" lon="6.93481">
        <ele>362</ele>
        <time>2016-10-30T11:02:01.000Z</time>
      </trkpt>
      <trkpt lat="47.51024" lon="6.93475">
        <ele>363</ele>
        <time>2016-10-30T11:02:02.000Z</time>
      </trkpt>
      <trkpt lat="47.51028" lon="6.9347">
        <ele>363</ele>
        <time>2016-10-30T11:02:03.000Z</time>
      </trkpt>
      <trkpt lat="47.51032" lon="6.93464">
        <ele>363</ele>
        <time>2016-10-30T11:02:04.000Z</time>
      </trkpt>
      <trkpt lat="47.51037" lon="6.93458">
        <ele>363</ele>
        <time>2016-10-30T11:02:05.000Z</time>
      </trkpt>
      <trkpt lat="47.51041" lon="6.93451">
        <ele>363</ele>
        <time>2016-10-30T11:02:06.000Z</time>
      </trkpt>
      <trkpt lat="47.51045" lon="6.93445">
        <ele>363</ele>
        <time>2016-10-30T11:02:07.000Z</time>
      </trkpt>
      <trkpt lat="47.51049" lon="6.93439">
        <ele>363</ele>
        <time>2016-10-30T11:02:08.000Z</time>
      </trkpt>
      <trkpt lat="47.51052" lon="6.93434">
        <ele>363</ele>
        <time>2016-10-30T11:02:09.000Z</time>
      </trkpt>
      <trkpt lat="47.51055" lon="6.93426">
        <ele>363</ele>
        <time>2016-10-30T11:02:10.000Z</time>
      </trkpt>
      <trkpt lat="47.51058" lon="6.93421">
        <ele>363</ele>
        <time>2016-10-30T11:02:11.000Z</time>
      </trkpt>
      <trkpt lat="47.51062" lon="6.93415">
        <ele>359</ele>
        <time>2016-10-30T11:02:12.000Z</time>
      </trkpt>
      <trkpt lat="47.51066" lon="6.93409">
        <ele>359</ele>
        <time>2016-10-30T11:02:13.000Z</time>
      </trkpt>
      <trkpt lat="47.5107" lon="6.93403">
        <ele>359</ele>
        <time>2016-10-30T11:02:14.000Z</time>
      </trkpt>
      <trkpt lat="47.51074" lon="6.93398">
        <ele>359</ele>
        <time>2016-10-30T11:02:15.000Z</time>
      </trkpt>
      <trkpt lat="47.51078" lon="6.93393">
        <ele>358</ele>
        <time>2016-10-30T11:02:16.000Z</time>
      </trkpt>
      <trkpt lat="47.51082" lon="6.93387">
        <ele>358</ele>
        <time>2016-10-30T11:02:17.000Z</time>
      </trkpt>
      <trkpt lat="47.51086" lon="6.93381">
        <ele>362</ele>
        <time>2016-10-30T11:02:18.000Z</time>
      </trkpt>
      <trkpt lat="47.5109" lon="6.93376">
        <ele>361</ele>
        <time>2016-10-30T11:02:19.000Z</time>
      </trkpt>
      <trkpt lat="47.51094" lon="6.93371">
        <ele>361</ele>
        <time>2016-10-30T11:02:20.000Z</time>
      </trkpt>
      <trkpt lat="47.51099" lon="6.93365">
        <ele>360</ele>
        <time>2016-10-30T11:02:21.000Z</time>
      </trkpt>
      <trkpt lat="47.51103" lon="6.93359">
        <ele>360</ele>
        <time>2016-10-30T11:02:22.000Z</time>
      </trkpt>
      <trkpt lat="47.51108" lon="6.93354">
        <ele>360</ele>
        <time>2016-10-30T11:02:23.000Z</time>
      </trkpt>
      <trkpt lat="47.51113" lon="6.93348">
        <ele>360</ele>
        <time>2016-10-30T11:02:24.000Z</time>
      </trkpt>
      <trkpt lat="47.51117" lon="6.93343">
        <ele>360</ele>
        <time>2016-10-30T11:02:25.000Z</time>
      </trkpt>
      <trkpt lat="47.51122" lon="6.93338">
        <ele>360</ele>
        <time>2016-10-30T11:02:26.000Z</time>
      </trkpt>
      <trkpt lat="47.51127" lon="6.93334">
        <ele>361</ele>
        <time>2016-10-30T11:02:27.000Z</time>
      </trkpt>
      <trkpt lat="47.51131" lon="6.93329">
        <ele>355</ele>
        <time>2016-10-30T11:02:28.000Z</time>
      </trkpt>
      <trkpt lat="47.51135" lon="6.93325">
        <ele>355</ele>
        <time>2016-10-30T11:02:29.000Z</time>
      </trkpt>
      <trkpt lat="47.5114" lon="6.9332">
        <ele>355</ele>
        <time>2016-10-30T11:02:30.000Z</time>
      </trkpt>
      <trkpt lat="47.51144" lon="6.93315">
        <ele>356</ele>
        <time>2016-10-30T11:02:31.000Z</time>
      </trkpt>
      <trkpt lat="47.51148" lon="6.93311">
        <ele>356</ele>
        <time>2016-10-30T11:02:32.000Z</time>
      </trkpt>
      <trkpt lat="47.51153" lon="6.93306">
        <ele>355</ele>
        <time>2016-10-30T11:02:33.000Z</time>
      </trkpt>
      <trkpt lat="47.51157" lon="6.93301">
        <ele>355</ele>
        <time>2016-10-30T11:02:34.000Z</time>
      </trkpt>
      <trkpt lat="47.51162" lon="6.93296">
        <ele>355</ele>
        <time>2016-10-30T11:02:35.000Z</time>
      </trkpt>
      <trkpt lat="47.51166" lon="6.9329">
        <ele>354</ele>
        <time>2016-10-30T11:02:36.000Z</time>
      </trkpt>
      <trkpt lat="47.5117" lon="6.93286">
        <ele>359</ele>
        <time>2016-10-30T11:02:37.000Z</time>
      </trkpt>
      <trkpt lat="47.51175" lon="6.93281">
        <ele>359</ele>
        <time>2016-10-30T11:02:38.000Z</time>
      </trkpt>
      <trkpt lat="47.51179" lon="6.93276">
        <ele>359</ele>
        <time>2016-10-30T11:02:39.000Z</time>
      </trkpt>
      <trkpt lat="47.51183" lon="6.93271">
        <ele>358</ele>
        <time>2016-10-30T11:02:40.000Z</time>
      </trkpt>
      <trkpt lat="47.51188" lon="6.93266">
        <ele>358</ele>
        <time>2016-10-30T11:02:41.000Z</time>
      </trkpt>
      <trkpt lat="47.51192" lon="6.9326">
        <ele>358</ele>
        <time>2016-10-30T11:02:42.000Z</time>
      </trkpt>
      <trkpt lat="47.51196" lon="6.93254">
        <ele>359</ele>
        <time>2016-10-30T11:02:43.000Z</time>
      </trkpt>
      <trkpt lat="47.512" lon="6.93248">
        <ele>355</ele>
        <time>2016-10-30T11:02:44.000Z</time>
      </trkpt>
      <trkpt lat="47.51204" lon="6.93243">
        <ele>355</ele>
        <time>2016-10-30T11:02:45.000Z</time>
      </trkpt>
      <trkpt lat="47.51208" lon="6.93238">
        <ele>355</ele>
        <time>2016-10-30T11:02:46.000Z</time>
      </trkpt>
      <trkpt lat="47.51212" lon="6.93231">
        <ele>355</ele>
        <time>2016-10-30T11:02:47.000Z</time>
      </trkpt>
      <trkpt lat="47.51216" lon="6.93226">
        <ele>355</ele>
        <time>2016-10-30T11:02:48.000Z</time>
      </trkpt>
      <trkpt lat="47.51219" lon="6.93222">
        <ele>355</ele>
        <time>2016-10-30T11:02:49.000Z</time>
      </trkpt>
      <trkpt lat="47.51222" lon="6.93216">
        <ele>355</ele>
        <time>2016-10-30T11:02:50.000Z</time>
      </trkpt>
      <trkpt lat="47.51226" lon="6.9321">
        <ele>355</ele>
        <time>2016-10-30T11:02:51.000Z</time>
      </trkpt>
      <trkpt lat="47.5123" lon="6.93203">
        <ele>355</ele>
        <time>2016-10-30T11:02:52.000Z</time>
      </trkpt>
      <trkpt lat="47.51233" lon="6.93197">
        <ele>355</ele>
        <time>2016-10-30T11:02:53.000Z</time>
      </trkpt>
      <trkpt lat="47.51236" lon="6.9319">
        <ele>355</ele>
        <time>2016-10-30T11:02:54.000Z</time>
      </trkpt>
      <trkpt lat="47.51239" lon="6.93185">
        <ele>355</ele>
        <time>2016-10-30T11:02:55.000Z</time>
      </trkpt>
      <trkpt lat="47.51242" lon="6.9318">
        <ele>355</ele>
        <time>2016-10-30T11:02:56.000Z</time>
      </trkpt>
      <trkpt lat="47.51245" lon="6.93173">
        <ele>355</ele>
        <time>2016-10-30T11:02:57.000Z</time>
      </trkpt>
      <trkpt lat="47.51248" lon="6.93168">
        <ele>355</ele>
        <time>2016-10-30T11:02:58.000Z</time>
      </trkpt>
      <trkpt lat="47.51251" lon="6.93163">
        <ele>356</ele>
        <time>2016-10-30T11:02:59.000Z</time>
      </trkpt>
      <trkpt lat="47.51253" lon="6.93158">
        <ele>356</ele>
        <time>2016-10-30T11:03:00.000Z</time>
      </trkpt>
      <trkpt lat="47.51256" lon="6.93153">
        <ele>357</ele>
        <time>2016-10-30T11:03:01.000Z</time>
      </trkpt>
      <trkpt lat="47.51258" lon="6.93147">
        <ele>357</ele>
        <time>2016-10-30T11:03:02.000Z</time>
      </trkpt>
      <trkpt lat="47.5126" lon="6.93142">
        <ele>357</ele>
        <time>2016-10-30T11:03:03.000Z</time>
      </trkpt>
      <trkpt lat="47.51262" lon="6.93136">
        <ele>357</ele>
        <time>2016-10-30T11:03:04.000Z</time>
      </trkpt>
      <trkpt lat="47.51265" lon="6.9313">
        <ele>357</ele>
        <time>2016-10-30T11:03:05.000Z</time>
      </trkpt>
      <trkpt lat="47.51269" lon="6.93125">
        <ele>357</ele>
        <time>2016-10-30T11:03:06.000Z</time>
      </trkpt>
      <trkpt lat="47.51272" lon="6.93118">
        <ele>357</ele>
        <time>2016-10-30T11:03:07.000Z</time>
      </trkpt>
      <trkpt lat="47.51274" lon="6.93111">
        <ele>357</ele>
        <time>2016-10-30T11:03:08.000Z</time>
      </trkpt>
      <trkpt lat="47.51276" lon="6.93103">
        <ele>357</ele>
        <time>2016-10-30T11:03:09.000Z</time>
      </trkpt>
      <trkpt lat="47.51278" lon="6.93097">
        <ele>357</ele>
        <time>2016-10-30T11:03:10.000Z</time>
      </trkpt>
      <trkpt lat="47.5128" lon="6.9309">
        <ele>356</ele>
        <time>2016-10-30T11:03:11.000Z</time>
      </trkpt>
      <trkpt lat="47.51281" lon="6.93083">
        <ele>353</ele>
        <time>2016-10-30T11:03:12.000Z</time>
      </trkpt>
      <trkpt lat="47.51283" lon="6.93076">
        <ele>353</ele>
        <time>2016-10-30T11:03:13.000Z</time>
      </trkpt>
      <trkpt lat="47.51285" lon="6.9307">
        <ele>354</ele>
        <time>2016-10-30T11:03:14.000Z</time>
      </trkpt>
      <trkpt lat="47.51287" lon="6.93061">
        <ele>354</ele>
        <time>2016-10-30T11:03:15.000Z</time>
      </trkpt>
      <trkpt lat="47.5129" lon="6.93054">
        <ele>354</ele>
        <time>2016-10-30T11:03:16.000Z</time>
      </trkpt>
      <trkpt lat="47.51293" lon="6.93046">
        <ele>354</ele>
        <time>2016-10-30T11:03:17.000Z</time>
      </trkpt>
      <trkpt lat="47.51295" lon="6.93039">
        <ele>354</ele>
        <time>2016-10-30T11:03:18.000Z</time>
      </trkpt>
      <trkpt lat="47.51298" lon="6.93032">
        <ele>354</ele>
        <time>2016-10-30T11:03:19.000Z</time>
      </trkpt>
      <trkpt lat="47.513" lon="6.93025">
        <ele>354</ele>
        <time>2016-10-30T11:03:20.000Z</time>
      </trkpt>
      <trkpt lat="47.51303" lon="6.93018">
        <ele>354</ele>
        <time>2016-10-30T11:03:21.000Z</time>
      </trkpt>
      <trkpt lat="47.51305" lon="6.93011">
        <ele>354</ele>
        <time>2016-10-30T11:03:22.000Z</time>
      </trkpt>
      <trkpt lat="47.51307" lon="6.93004">
        <ele>354</ele>
        <time>2016-10-30T11:03:23.000Z</time>
      </trkpt>
      <trkpt lat="47.51309" lon="6.92998">
        <ele>352</ele>
        <time>2016-10-30T11:03:24.000Z</time>
      </trkpt>
      <trkpt lat="47.51311" lon="6.92991">
        <ele>352</ele>
        <time>2016-10-30T11:03:25.000Z</time>
      </trkpt>
      <trkpt lat="47.51313" lon="6.92984">
        <ele>352</ele>
        <time>2016-10-30T11:03:26.000Z</time>
      </trkpt>
      <trkpt lat="47.51316" lon="6.92976">
        <ele>351</ele>
        <time>2016-10-30T11:03:27.000Z</time>
      </trkpt>
      <trkpt lat="47.51318" lon="6.92969">
        <ele>351</ele>
        <time>2016-10-30T11:03:28.000Z</time>
      </trkpt>
      <trkpt lat="47.51321" lon="6.92962">
        <ele>351</ele>
        <time>2016-10-30T11:03:29.000Z</time>
      </trkpt>
      <trkpt lat="47.51323" lon="6.92956">
        <ele>351</ele>
        <time>2016-10-30T11:03:30.000Z</time>
      </trkpt>
      <trkpt lat="47.51325" lon="6.92948">
        <ele>351</ele>
        <time>2016-10-30T11:03:31.000Z</time>
      </trkpt>
      <trkpt lat="47.51329" lon="6.92941">
        <ele>351</ele>
        <time>2016-10-30T11:03:32.000Z</time>
      </trkpt>
      <trkpt lat="47.51332" lon="6.92935">
        <ele>351</ele>
        <time>2016-10-30T11:03:33.000Z</time>
      </trkpt>
      <trkpt lat="47.51335" lon="6.92928">
        <ele>354</ele>
        <time>2016-10-30T11:03:34.000Z</time>
      </trkpt>
      <trkpt lat="47.51337" lon="6.92921">
        <ele>353</ele>
        <time>2016-10-30T11:03:35.000Z</time>
      </trkpt>
      <trkpt lat="47.5134" lon="6.92913">
        <ele>352</ele>
        <time>2016-10-30T11:03:36.000Z</time>
      </trkpt>
      <trkpt lat="47.51342" lon="6.92905">
        <ele>352</ele>
        <time>2016-10-30T11:03:37.000Z</time>
      </trkpt>
      <trkpt lat="47.51344" lon="6.92897">
        <ele>352</ele>
        <time>2016-10-30T11:03:38.000Z</time>
      </trkpt>
      <trkpt lat="47.51347" lon="6.92889">
        <ele>352</ele>
        <time>2016-10-30T11:03:39.000Z</time>
      </trkpt>
      <trkpt lat="47.51349" lon="6.92881">
        <ele>352</ele>
        <time>2016-10-30T11:03:40.000Z</time>
      </trkpt>
      <trkpt lat="47.51351" lon="6.92872">
        <ele>352</ele>
        <time>2016-10-30T11:03:41.000Z</time>
      </trkpt>
      <trkpt lat="47.51354" lon="6.92863">
        <ele>352</ele>
        <time>2016-10-30T11:03:42.000Z</time>
      </trkpt>
      <trkpt lat="47.51356" lon="6.92854">
        <ele>351</ele>
        <time>2016-10-30T11:03:43.000Z</time>
      </trkpt>
      <trkpt lat="47.51358" lon="6.92845">
        <ele>351</ele>
        <time>2016-10-30T11:03:44.000Z</time>
      </trkpt>
      <trkpt lat="47.5136" lon="6.92835">
        <ele>351</ele>
        <time>2016-10-30T11:03:45.000Z</time>
      </trkpt>
      <trkpt lat="47.51362" lon="6.92825">
        <ele>348</ele>
        <time>2016-10-30T11:03:46.000Z</time>
      </trkpt>
      <trkpt lat="47.51365" lon="6.92815">
        <ele>348</ele>
        <time>2016-10-30T11:03:47.000Z</time>
      </trkpt>
      <trkpt lat="47.51367" lon="6.92805">
        <ele>348</ele>
        <time>2016-10-30T11:03:48.000Z</time>
      </trkpt>
      <trkpt lat="47.51369" lon="6.92796">
        <ele>348</ele>
        <time>2016-10-30T11:03:49.000Z</time>
      </trkpt>
      <trkpt lat="47.51371" lon="6.92786">
        <ele>348</ele>
        <time>2016-10-30T11:03:50.000Z</time>
      </trkpt>
      <trkpt lat="47.51374" lon="6.92776">
        <ele>348</ele>
        <time>2016-10-30T11:03:51.000Z</time>
      </trkpt>
      <trkpt lat="47.51377" lon="6.92765">
        <ele>348</ele>
        <time>2016-10-30T11:03:52.000Z</time>
      </trkpt>
      <trkpt lat="47.5138" lon="6.92755">
        <ele>348</ele>
        <time>2016-10-30T11:03:53.000Z</time>
      </trkpt>
      <trkpt lat="47.51382" lon="6.92744">
        <ele>347</ele>
        <time>2016-10-30T11:03:54.000Z</time>
      </trkpt>
      <trkpt lat="47.51385" lon="6.92734">
        <ele>347</ele>
        <time>2016-10-30T11:03:55.000Z</time>
      </trkpt>
      <trkpt lat="47.51387" lon="6.92725">
        <ele>347</ele>
        <time>2016-10-30T11:03:56.000Z</time>
      </trkpt>
      <trkpt lat="47.5139" lon="6.92715">
        <ele>347</ele>
        <time>2016-10-30T11:03:57.000Z</time>
      </trkpt>
      <trkpt lat="47.51393" lon="6.92706">
        <ele>347</ele>
        <time>2016-10-30T11:03:58.000Z</time>
      </trkpt>
      <trkpt lat="47.51395" lon="6.92696">
        <ele>347</ele>
        <time>2016-10-30T11:03:59.000Z</time>
      </trkpt>
      <trkpt lat="47.51398" lon="6.92686">
        <ele>347</ele>
        <time>2016-10-30T11:04:00.000Z</time>
      </trkpt>
      <trkpt lat="47.51401" lon="6.92676">
        <ele>347</ele>
        <time>2016-10-30T11:04:01.000Z</time>
      </trkpt>
      <trkpt lat="47.51403" lon="6.92666">
        <ele>347</ele>
        <time>2016-10-30T11:04:02.000Z</time>
      </trkpt>
      <trkpt lat="47.51405" lon="6.92656">
        <ele>347</ele>
        <time>2016-10-30T11:04:03.000Z</time>
      </trkpt>
      <trkpt lat="47.51408" lon="6.92646">
        <ele>346</ele>
        <time>2016-10-30T11:04:04.000Z</time>
      </trkpt>
      <trkpt lat="47.5141" lon="6.92636">
        <ele>346</ele>
        <time>2016-10-30T11:04:05.000Z</time>
      </trkpt>
      <trkpt lat="47.51412" lon="6.92627">
        <ele>346</ele>
        <time>2016-10-30T11:04:06.000Z</time>
      </trkpt>
      <trkpt lat="47.51414" lon="6.92619">
        <ele>346</ele>
        <time>2016-10-30T11:04:07.000Z</time>
      </trkpt>
      <trkpt lat="47.51417" lon="6.9261">
        <ele>350</ele>
        <time>2016-10-30T11:04:08.000Z</time>
      </trkpt>
      <trkpt lat="47.51419" lon="6.92601">
        <ele>349</ele>
        <time>2016-10-30T11:04:09.000Z</time>
      </trkpt>
      <trkpt lat="47.51421" lon="6.92593">
        <ele>348</ele>
        <time>2016-10-30T11:04:10.000Z</time>
      </trkpt>
      <trkpt lat="47.51423" lon="6.92584">
        <ele>347</ele>
        <time>2016-10-30T11:04:11.000Z</time>
      </trkpt>
      <trkpt lat="47.51425" lon="6.92576">
        <ele>348</ele>
        <time>2016-10-30T11:04:12.000Z</time>
      </trkpt>
      <trkpt lat="47.51428" lon="6.92568">
        <ele>348</ele>
        <time>2016-10-30T11:04:13.000Z</time>
      </trkpt>
      <trkpt lat="47.51429" lon="6.9256">
        <ele>349</ele>
        <time>2016-10-30T11:04:14.000Z</time>
      </trkpt>
      <trkpt lat="47.51432" lon="6.92553">
        <ele>349</ele>
        <time>2016-10-30T11:04:15.000Z</time>
      </trkpt>
      <trkpt lat="47.51434" lon="6.92545">
        <ele>349</ele>
        <time>2016-10-30T11:04:16.000Z</time>
      </trkpt>
      <trkpt lat="47.51436" lon="6.92538">
        <ele>349</ele>
        <time>2016-10-30T11:04:17.000Z</time>
      </trkpt>
      <trkpt lat="47.51439" lon="6.9253">
        <ele>349</ele>
        <time>2016-10-30T11:04:18.000Z</time>
      </trkpt>
      <trkpt lat="47.5144" lon="6.92522">
        <ele>349</ele>
        <time>2016-10-30T11:04:19.000Z</time>
      </trkpt>
      <trkpt lat="47.51443" lon="6.92514">
        <ele>349</ele>
        <time>2016-10-30T11:04:20.000Z</time>
      </trkpt>
      <trkpt lat="47.51445" lon="6.92507">
        <ele>349</ele>
        <time>2016-10-30T11:04:21.000Z</time>
      </trkpt>
      <trkpt lat="47.51447" lon="6.92499">
        <ele>347</ele>
        <time>2016-10-30T11:04:22.000Z</time>
      </trkpt>
      <trkpt lat="47.51449" lon="6.92491">
        <ele>347</ele>
        <time>2016-10-30T11:04:23.000Z</time>
      </trkpt>
      <trkpt lat="47.51452" lon="6.92483">
        <ele>347</ele>
        <time>2016-10-30T11:04:24.000Z</time>
      </trkpt>
      <trkpt lat="47.51454" lon="6.92474">
        <ele>347</ele>
        <time>2016-10-30T11:04:25.000Z</time>
      </trkpt>
      <trkpt lat="47.51457" lon="6.92467">
        <ele>347</ele>
        <time>2016-10-30T11:04:26.000Z</time>
      </trkpt>
      <trkpt lat="47.51461" lon="6.92459">
        <ele>347</ele>
        <time>2016-10-30T11:04:27.000Z</time>
      </trkpt>
      <trkpt lat="47.51463" lon="6.92451">
        <ele>347</ele>
        <time>2016-10-30T11:04:28.000Z</time>
      </trkpt>
      <trkpt lat="47.51467" lon="6.92442">
        <ele>347</ele>
        <time>2016-10-30T11:04:29.000Z</time>
      </trkpt>
      <trkpt lat="47.5147" lon="6.92433">
        <ele>348</ele>
        <time>2016-10-30T11:04:30.000Z</time>
      </trkpt>
      <trkpt lat="47.51473" lon="6.92424">
        <ele>348</ele>
        <time>2016-10-30T11:04:31.000Z</time>
      </trkpt>
      <trkpt lat="47.51477" lon="6.92415">
        <ele>347</ele>
        <time>2016-10-30T11:04:32.000Z</time>
      </trkpt>
      <trkpt lat="47.5148" lon="6.92406">
        <ele>347</ele>
        <time>2016-10-30T11:04:33.000Z</time>
      </trkpt>
      <trkpt lat="47.51484" lon="6.92397">
        <ele>347</ele>
        <time>2016-10-30T11:04:34.000Z</time>
      </trkpt>
      <trkpt lat="47.51488" lon="6.92387">
        <ele>346</ele>
        <time>2016-10-30T11:04:35.000Z</time>
      </trkpt>
      <trkpt lat="47.51492" lon="6.92378">
        <ele>346</ele>
        <time>2016-10-30T11:04:36.000Z</time>
      </trkpt>
      <trkpt lat="47.51496" lon="6.9237">
        <ele>346</ele>
        <time>2016-10-30T11:04:37.000Z</time>
      </trkpt>
      <trkpt lat="47.515" lon="6.92361">
        <ele>354</ele>
        <time>2016-10-30T11:04:38.000Z</time>
      </trkpt>
      <trkpt lat="47.51504" lon="6.92353">
        <ele>353</ele>
        <time>2016-10-30T11:04:39.000Z</time>
      </trkpt>
      <trkpt lat="47.51508" lon="6.92344">
        <ele>352</ele>
        <time>2016-10-30T11:04:40.000Z</time>
      </trkpt>
      <trkpt lat="47.51512" lon="6.92336">
        <ele>352</ele>
        <time>2016-10-30T11:04:41.000Z</time>
      </trkpt>
      <trkpt lat="47.51516" lon="6.92326">
        <ele>352</ele>
        <time>2016-10-30T11:04:42.000Z</time>
      </trkpt>
      <trkpt lat="47.5152" lon="6.92315">
        <ele>353</ele>
        <time>2016-10-30T11:04:43.000Z</time>
      </trkpt>
      <trkpt lat="47.51525" lon="6.92306">
        <ele>354</ele>
        <time>2016-10-30T11:04:44.000Z</time>
      </trkpt>
      <trkpt lat="47.51528" lon="6.92297">
        <ele>354</ele>
        <time>2016-10-30T11:04:45.000Z</time>
      </trkpt>
      <trkpt lat="47.51531" lon="6.92287">
        <ele>354</ele>
        <time>2016-10-30T11:04:46.000Z</time>
      </trkpt>
      <trkpt lat="47.51535" lon="6.92278">
        <ele>354</ele>
        <time>2016-10-30T11:04:47.000Z</time>
      </trkpt>
      <trkpt lat="47.51538" lon="6.92269">
        <ele>355</ele>
        <time>2016-10-30T11:04:48.000Z</time>
      </trkpt>
      <trkpt lat="47.51541" lon="6.92259">
        <ele>355</ele>
        <time>2016-10-30T11:04:49.000Z</time>
      </trkpt>
      <trkpt lat="47.51544" lon="6.92249">
        <ele>352</ele>
        <time>2016-10-30T11:04:50.000Z</time>
      </trkpt>
      <trkpt lat="47.51548" lon="6.9224">
        <ele>352</ele>
        <time>2016-10-30T11:04:51.000Z</time>
      </trkpt>
      <trkpt lat="47.51551" lon="6.92231">
        <ele>352</ele>
        <time>2016-10-30T11:04:52.000Z</time>
      </trkpt>
      <trkpt lat="47.51554" lon="6.92221">
        <ele>352</ele>
        <time>2016-10-30T11:04:53.000Z</time>
      </trkpt>
      <trkpt lat="47.51557" lon="6.92212">
        <ele>352</ele>
        <time>2016-10-30T11:04:54.000Z</time>
      </trkpt>
      <trkpt lat="47.5156" lon="6.92202">
        <ele>352</ele>
        <time>2016-10-30T11:04:55.000Z</time>
      </trkpt>
      <trkpt lat="47.51563" lon="6.92191">
        <ele>352</ele>
        <time>2016-10-30T11:04:56.000Z</time>
      </trkpt>
      <trkpt lat="47.51565" lon="6.92182">
        <ele>352</ele>
        <time>2016-10-30T11:04:57.000Z</time>
      </trkpt>
      <trkpt lat="47.51568" lon="6.92172">
        <ele>352</ele>
        <time>2016-10-30T11:04:58.000Z</time>
      </trkpt>
      <trkpt lat="47.5157" lon="6.92162">
        <ele>350</ele>
        <time>2016-10-30T11:04:59.000Z</time>
      </trkpt>
      <trkpt lat="47.51572" lon="6.92152">
        <ele>349</ele>
        <time>2016-10-30T11:05:00.000Z</time>
      </trkpt>
      <trkpt lat="47.51574" lon="6.92142">
        <ele>348</ele>
        <time>2016-10-30T11:05:01.000Z</time>
      </trkpt>
      <trkpt lat="47.51576" lon="6.92133">
        <ele>347</ele>
        <time>2016-10-30T11:05:02.000Z</time>
      </trkpt>
      <trkpt lat="47.51579" lon="6.92124">
        <ele>346</ele>
        <time>2016-10-30T11:05:03.000Z</time>
      </trkpt>
      <trkpt lat="47.51582" lon="6.92115">
        <ele>346</ele>
        <time>2016-10-30T11:05:04.000Z</time>
      </trkpt>
      <trkpt lat="47.51583" lon="6.92106">
        <ele>350</ele>
        <time>2016-10-30T11:05:05.000Z</time>
      </trkpt>
      <trkpt lat="47.51586" lon="6.92098">
        <ele>349</ele>
        <time>2016-10-30T11:05:06.000Z</time>
      </trkpt>
      <trkpt lat="47.51588" lon="6.92089">
        <ele>347</ele>
        <time>2016-10-30T11:05:07.000Z</time>
      </trkpt>
      <trkpt lat="47.5159" lon="6.9208">
        <ele>345</ele>
        <time>2016-10-30T11:05:08.000Z</time>
      </trkpt>
      <trkpt lat="47.51594" lon="6.92072">
        <ele>345</ele>
        <time>2016-10-30T11:05:09.000Z</time>
      </trkpt>
      <trkpt lat="47.51597" lon="6.92064">
        <ele>345</ele>
        <time>2016-10-30T11:05:10.000Z</time>
      </trkpt>
      <trkpt lat="47.516" lon="6.92057">
        <ele>345</ele>
        <time>2016-10-30T11:05:11.000Z</time>
      </trkpt>
      <trkpt lat="47.51604" lon="6.92049">
        <ele>345</ele>
        <time>2016-10-30T11:05:12.000Z</time>
      </trkpt>
      <trkpt lat="47.51608" lon="6.92042">
        <ele>345</ele>
        <time>2016-10-30T11:05:13.000Z</time>
      </trkpt>
      <trkpt lat="47.51612" lon="6.92036">
        <ele>345</ele>
        <time>2016-10-30T11:05:14.000Z</time>
      </trkpt>
      <trkpt lat="47.51616" lon="6.92029">
        <ele>345</ele>
        <time>2016-10-30T11:05:15.000Z</time>
      </trkpt>
      <trkpt lat="47.5162" lon="6.92022">
        <ele>345</ele>
        <time>2016-10-30T11:05:16.000Z</time>
      </trkpt>
      <trkpt lat="47.51624" lon="6.92016">
        <ele>345</ele>
        <time>2016-10-30T11:05:17.000Z</time>
      </trkpt>
      <trkpt lat="47.51628" lon="6.92009">
        <ele>345</ele>
        <time>2016-10-30T11:05:18.000Z</time>
      </trkpt>
      <trkpt lat="47.51632" lon="6.92003">
        <ele>345</ele>
        <time>2016-10-30T11:05:19.000Z</time>
      </trkpt>
      <trkpt lat="47.51637" lon="6.91997">
        <ele>343</ele>
        <time>2016-10-30T11:05:20.000Z</time>
      </trkpt>
      <trkpt lat="47.51641" lon="6.91992">
        <ele>343</ele>
        <time>2016-10-30T11:05:21.000Z</time>
      </trkpt>
      <trkpt lat="47.51646" lon="6.91986">
        <ele>343</ele>
        <time>2016-10-30T11:05:22.000Z</time>
      </trkpt>
      <trkpt lat="47.5165" lon="6.91981">
        <ele>343</ele>
        <time>2016-10-30T11:05:23.000Z</time>
      </trkpt>
      <trkpt lat="47.51654" lon="6.91976">
        <ele>343</ele>
        <time>2016-10-30T11:05:24.000Z</time>
      </trkpt>
      <trkpt lat="47.51659" lon="6.91973">
        <ele>343</ele>
        <time>2016-10-30T11:05:25.000Z</time>
      </trkpt>
      <trkpt lat="47.51664" lon="6.91967">
        <ele>343</ele>
        <time>2016-10-30T11:05:26.000Z</time>
      </trkpt>
      <trkpt lat="47.5167" lon="6.91962">
        <ele>341</ele>
        <time>2016-10-30T11:05:27.000Z</time>
      </trkpt>
      <trkpt lat="47.51674" lon="6.91957">
        <ele>341</ele>
        <time>2016-10-30T11:05:28.000Z</time>
      </trkpt>
      <trkpt lat="47.51679" lon="6.91952">
        <ele>341</ele>
        <time>2016-10-30T11:05:29.000Z</time>
      </trkpt>
      <trkpt lat="47.51685" lon="6.91948">
        <ele>341</ele>
        <time>2016-10-30T11:05:30.000Z</time>
      </trkpt>
      <trkpt lat="47.5169" lon="6.91944">
        <ele>341</ele>
        <time>2016-10-30T11:05:31.000Z</time>
      </trkpt>
      <trkpt lat="47.51696" lon="6.91941">
        <ele>341</ele>
        <time>2016-10-30T11:05:32.000Z</time>
      </trkpt>
      <trkpt lat="47.51701" lon="6.91937">
        <ele>341</ele>
        <time>2016-10-30T11:05:33.000Z</time>
      </trkpt>
      <trkpt lat="47.51707" lon="6.91934">
        <ele>341</ele>
        <time>2016-10-30T11:05:34.000Z</time>
      </trkpt>
      <trkpt lat="47.51712" lon="6.9193">
        <ele>341</ele>
        <time>2016-10-30T11:05:35.000Z</time>
      </trkpt>
      <trkpt lat="47.51717" lon="6.91927">
        <ele>341</ele>
        <time>2016-10-30T11:05:36.000Z</time>
      </trkpt>
      <trkpt lat="47.51723" lon="6.91923">
        <ele>341</ele>
        <time>2016-10-30T11:05:37.000Z</time>
      </trkpt>
      <trkpt lat="47.51728" lon="6.91919">
        <ele>341</ele>
        <time>2016-10-30T11:05:38.000Z</time>
      </trkpt>
      <trkpt lat="47.51733" lon="6.91916">
        <ele>344</ele>
        <time>2016-10-30T11:05:39.000Z</time>
      </trkpt>
      <trkpt lat="47.51739" lon="6.91913">
        <ele>343</ele>
        <time>2016-10-30T11:05:40.000Z</time>
      </trkpt>
      <trkpt lat="47.51744" lon="6.91909">
        <ele>343</ele>
        <time>2016-10-30T11:05:41.000Z</time>
      </trkpt>
      <trkpt lat="47.5175" lon="6.91906">
        <ele>342</ele>
        <time>2016-10-30T11:05:42.000Z</time>
      </trkpt>
      <trkpt lat="47.51756" lon="6.91903">
        <ele>342</ele>
        <time>2016-10-30T11:05:43.000Z</time>
      </trkpt>
      <trkpt lat="47.51762" lon="6.91899">
        <ele>342</ele>
        <time>2016-10-30T11:05:44.000Z</time>
      </trkpt>
      <trkpt lat="47.51768" lon="6.91896">
        <ele>342</ele>
        <time>2016-10-30T11:05:45.000Z</time>
      </trkpt>
      <trkpt lat="47.51773" lon="6.91893">
        <ele>342</ele>
        <time>2016-10-30T11:05:46.000Z</time>
      </trkpt>
      <trkpt lat="47.5178" lon="6.9189">
        <ele>342</ele>
        <time>2016-10-30T11:05:47.000Z</time>
      </trkpt>
      <trkpt lat="47.51786" lon="6.91886">
        <ele>342</ele>
        <time>2016-10-30T11:05:48.000Z</time>
      </trkpt>
      <trkpt lat="47.51791" lon="6.91882">
        <ele>342</ele>
        <time>2016-10-30T11:05:49.000Z</time>
      </trkpt>
      <trkpt lat="47.51797" lon="6.91879">
        <ele>342</ele>
        <time>2016-10-30T11:05:50.000Z</time>
      </trkpt>
      <trkpt lat="47.51803" lon="6.91876">
        <ele>341</ele>
        <time>2016-10-30T11:05:51.000Z</time>
      </trkpt>
      <trkpt lat="47.51808" lon="6.91873">
        <ele>341</ele>
        <time>2016-10-30T11:05:52.000Z</time>
      </trkpt>
      <trkpt lat="47.51813" lon="6.91869">
        <ele>341</ele>
        <time>2016-10-30T11:05:53.000Z</time>
      </trkpt>
      <trkpt lat="47.51819" lon="6.91866">
        <ele>341</ele>
        <time>2016-10-30T11:05:54.000Z</time>
      </trkpt>
      <trkpt lat="47.51824" lon="6.91863">
        <ele>340</ele>
        <time>2016-10-30T11:05:55.000Z</time>
      </trkpt>
      <trkpt lat="47.51829" lon="6.91859">
        <ele>340</ele>
        <time>2016-10-30T11:05:56.000Z</time>
      </trkpt>
      <trkpt lat="47.51835" lon="6.91856">
        <ele>340</ele>
        <time>2016-10-30T11:05:57.000Z</time>
      </trkpt>
      <trkpt lat="47.51841" lon="6.91852">
        <ele>340</ele>
        <time>2016-10-30T11:05:58.000Z</time>
      </trkpt>
      <trkpt lat="47.51846" lon="6.91848">
        <ele>340</ele>
        <time>2016-10-30T11:05:59.000Z</time>
      </trkpt>
      <trkpt lat="47.51852" lon="6.91844">
        <ele>340</ele>
        <time>2016-10-30T11:06:00.000Z</time>
      </trkpt>
      <trkpt lat="47.51857" lon="6.91841">
        <ele>340</ele>
        <time>2016-10-30T11:06:01.000Z</time>
      </trkpt>
      <trkpt lat="47.51862" lon="6.91837">
        <ele>341</ele>
        <time>2016-10-30T11:06:02.000Z</time>
      </trkpt>
      <trkpt lat="47.51868" lon="6.91833">
        <ele>340</ele>
        <time>2016-10-30T11:06:03.000Z</time>
      </trkpt>
      <trkpt lat="47.51872" lon="6.91828">
        <ele>340</ele>
        <time>2016-10-30T11:06:04.000Z</time>
      </trkpt>
      <trkpt lat="47.51878" lon="6.91824">
        <ele>340</ele>
        <time>2016-10-30T11:06:05.000Z</time>
      </trkpt>
      <trkpt lat="47.51883" lon="6.9182">
        <ele>341</ele>
        <time>2016-10-30T11:06:06.000Z</time>
      </trkpt>
      <trkpt lat="47.51888" lon="6.91815">
        <ele>341</ele>
        <time>2016-10-30T11:06:07.000Z</time>
      </trkpt>
      <trkpt lat="47.51892" lon="6.91811">
        <ele>341</ele>
        <time>2016-10-30T11:06:08.000Z</time>
      </trkpt>
      <trkpt lat="47.51897" lon="6.91805">
        <ele>341</ele>
        <time>2016-10-30T11:06:09.000Z</time>
      </trkpt>
      <trkpt lat="47.51901" lon="6.91799">
        <ele>341</ele>
        <time>2016-10-30T11:06:10.000Z</time>
      </trkpt>
      <trkpt lat="47.51906" lon="6.91793">
        <ele>341</ele>
        <time>2016-10-30T11:06:11.000Z</time>
      </trkpt>
      <trkpt lat="47.5191" lon="6.91788">
        <ele>341</ele>
        <time>2016-10-30T11:06:12.000Z</time>
      </trkpt>
      <trkpt lat="47.51914" lon="6.91783">
        <ele>341</ele>
        <time>2016-10-30T11:06:13.000Z</time>
      </trkpt>
      <trkpt lat="47.51917" lon="6.91778">
        <ele>344</ele>
        <time>2016-10-30T11:06:14.000Z</time>
      </trkpt>
      <trkpt lat="47.51921" lon="6.91773">
        <ele>344</ele>
        <time>2016-10-30T11:06:15.000Z</time>
      </trkpt>
      <trkpt lat="47.51925" lon="6.91767">
        <ele>344</ele>
        <time>2016-10-30T11:06:16.000Z</time>
      </trkpt>
      <trkpt lat="47.5193" lon="6.91761">
        <ele>343</ele>
        <time>2016-10-30T11:06:17.000Z</time>
      </trkpt>
      <trkpt lat="47.51933" lon="6.91754">
        <ele>343</ele>
        <time>2016-10-30T11:06:18.000Z</time>
      </trkpt>
      <trkpt lat="47.51937" lon="6.91747">
        <ele>341</ele>
        <time>2016-10-30T11:06:19.000Z</time>
      </trkpt>
      <trkpt lat="47.5194" lon="6.9174">
        <ele>341</ele>
        <time>2016-10-30T11:06:20.000Z</time>
      </trkpt>
      <trkpt lat="47.51945" lon="6.91734">
        <ele>341</ele>
        <time>2016-10-30T11:06:21.000Z</time>
      </trkpt>
      <trkpt lat="47.51949" lon="6.91728">
        <ele>341</ele>
        <time>2016-10-30T11:06:22.000Z</time>
      </trkpt>
      <trkpt lat="47.51952" lon="6.91722">
        <ele>341</ele>
        <time>2016-10-30T11:06:23.000Z</time>
      </trkpt>
      <trkpt lat="47.51955" lon="6.91716">
        <ele>341</ele>
        <time>2016-10-30T11:06:24.000Z</time>
      </trkpt>
      <trkpt lat="47.51959" lon="6.91709">
        <ele>341</ele>
        <time>2016-10-30T11:06:25.000Z</time>
      </trkpt>
      <trkpt lat="47.51963" lon="6.91704">
        <ele>341</ele>
        <time>2016-10-30T11:06:26.000Z</time>
      </trkpt>
      <trkpt lat="47.51968" lon="6.91698">
        <ele>341</ele>
        <time>2016-10-30T11:06:27.000Z</time>
      </trkpt>
      <trkpt lat="47.51971" lon="6.91691">
        <ele>341</ele>
        <time>2016-10-30T11:06:28.000Z</time>
      </trkpt>
      <trkpt lat="47.51975" lon="6.91685">
        <ele>341</ele>
        <time>2016-10-30T11:06:29.000Z</time>
      </trkpt>
      <trkpt lat="47.5198" lon="6.91678">
        <ele>341</ele>
        <time>2016-10-30T11:06:30.000Z</time>
      </trkpt>
      <trkpt lat="47.51984" lon="6.91671">
        <ele>341</ele>
        <time>2016-10-30T11:06:31.000Z</time>
      </trkpt>
      <trkpt lat="47.51988" lon="6.91664">
        <ele>340</ele>
        <time>2016-10-30T11:06:32.000Z</time>
      </trkpt>
      <trkpt lat="47.51992" lon="6.91658">
        <ele>340</ele>
        <time>2016-10-30T11:06:33.000Z</time>
      </trkpt>
      <trkpt lat="47.51996" lon="6.91652">
        <ele>340</ele>
        <time>2016-10-30T11:06:34.000Z</time>
      </trkpt>
      <trkpt lat="47.52" lon="6.91646">
        <ele>339</ele>
        <time>2016-10-30T11:06:35.000Z</time>
      </trkpt>
      <trkpt lat="47.52003" lon="6.91639">
        <ele>342</ele>
        <time>2016-10-30T11:06:36.000Z</time>
      </trkpt>
      <trkpt lat="47.52007" lon="6.91632">
        <ele>342</ele>
        <time>2016-10-30T11:06:37.000Z</time>
      </trkpt>
      <trkpt lat="47.52011" lon="6.91626">
        <ele>342</ele>
        <time>2016-10-30T11:06:38.000Z</time>
      </trkpt>
      <trkpt lat="47.52015" lon="6.91619">
        <ele>342</ele>
        <time>2016-10-30T11:06:39.000Z</time>
      </trkpt>
      <trkpt lat="47.52018" lon="6.91612">
        <ele>342</ele>
        <time>2016-10-30T11:06:40.000Z</time>
      </trkpt>
      <trkpt lat="47.52022" lon="6.91606">
        <ele>342</ele>
        <time>2016-10-30T11:06:41.000Z</time>
      </trkpt>
      <trkpt lat="47.52025" lon="6.916">
        <ele>342</ele>
        <time>2016-10-30T11:06:42.000Z</time>
      </trkpt>
      <trkpt lat="47.52029" lon="6.91594">
        <ele>342</ele>
        <time>2016-10-30T11:06:43.000Z</time>
      </trkpt>
      <trkpt lat="47.52032" lon="6.91587">
        <ele>342</ele>
        <time>2016-10-30T11:06:44.000Z</time>
      </trkpt>
      <trkpt lat="47.52036" lon="6.9158">
        <ele>340</ele>
        <time>2016-10-30T11:06:45.000Z</time>
      </trkpt>
      <trkpt lat="47.52039" lon="6.91574">
        <ele>341</ele>
        <time>2016-10-30T11:06:46.000Z</time>
      </trkpt>
      <trkpt lat="47.52042" lon="6.91568">
        <ele>341</ele>
        <time>2016-10-30T11:06:47.000Z</time>
      </trkpt>
      <trkpt lat="47.52044" lon="6.91562">
        <ele>341</ele>
        <time>2016-10-30T11:06:48.000Z</time>
      </trkpt>
      <trkpt lat="47.52047" lon="6.91556">
        <ele>341</ele>
        <time>2016-10-30T11:06:49.000Z</time>
      </trkpt>
      <trkpt lat="47.52049" lon="6.91551">
        <ele>341</ele>
        <time>2016-10-30T11:06:50.000Z</time>
      </trkpt>
      <trkpt lat="47.52052" lon="6.91546">
        <ele>341</ele>
        <time>2016-10-30T11:06:51.000Z</time>
      </trkpt>
      <trkpt lat="47.52054" lon="6.91542">
        <ele>341</ele>
        <time>2016-10-30T11:06:52.000Z</time>
      </trkpt>
      <trkpt lat="47.52056" lon="6.91539">
        <ele>340</ele>
        <time>2016-10-30T11:06:53.000Z</time>
      </trkpt>
      <trkpt lat="47.52058" lon="6.91535">
        <ele>340</ele>
        <time>2016-10-30T11:06:54.000Z</time>
      </trkpt>
      <trkpt lat="47.52061" lon="6.91531">
        <ele>340</ele>
        <time>2016-10-30T11:06:55.000Z</time>
      </trkpt>
      <trkpt lat="47.52062" lon="6.91528">
        <ele>340</ele>
        <time>2016-10-30T11:06:56.000Z</time>
      </trkpt>
      <trkpt lat="47.52064" lon="6.91525">
        <ele>340</ele>
        <time>2016-10-30T11:06:57.000Z</time>
      </trkpt>
      <trkpt lat="47.52066" lon="6.91523">
        <ele>340</ele>
        <time>2016-10-30T11:06:58.000Z</time>
      </trkpt>
      <trkpt lat="47.52068" lon="6.9152">
        <ele>340</ele>
        <time>2016-10-30T11:06:59.000Z</time>
      </trkpt>
      <trkpt lat="47.52071" lon="6.91516">
        <ele>340</ele>
        <time>2016-10-30T11:07:01.000Z</time>
      </trkpt>
      <trkpt lat="47.52072" lon="6.91515">
        <ele>340</ele>
        <time>2016-10-30T11:07:02.000Z</time>
      </trkpt>
      <trkpt lat="47.5207" lon="6.91509">
        <ele>340</ele>
        <time>2016-10-30T11:07:09.000Z</time>
      </trkpt>
      <trkpt lat="47.52069" lon="6.91507">
        <ele>340</ele>
        <time>2016-10-30T11:07:10.000Z</time>
      </trkpt>
      <trkpt lat="47.52067" lon="6.91505">
        <ele>340</ele>
        <time>2016-10-30T11:07:11.000Z</time>
      </trkpt>
      <trkpt lat="47.52066" lon="6.91501">
        <ele>340</ele>
        <time>2016-10-30T11:07:12.000Z</time>
      </trkpt>
      <trkpt lat="47.52064" lon="6.91497">
        <ele>339</ele>
        <time>2016-10-30T11:07:13.000Z</time>
      </trkpt>
      <trkpt lat="47.52062" lon="6.91493">
        <ele>339</ele>
        <time>2016-10-30T11:07:14.000Z</time>
      </trkpt>
      <trkpt lat="47.52058" lon="6.9149">
        <ele>339</ele>
        <time>2016-10-30T11:07:15.000Z</time>
      </trkpt>
      <trkpt lat="47.52054" lon="6.91487">
        <ele>339</ele>
        <time>2016-10-30T11:07:16.000Z</time>
      </trkpt>
      <trkpt lat="47.5205" lon="6.91485">
        <ele>339</ele>
        <time>2016-10-30T11:07:17.000Z</time>
      </trkpt>
      <trkpt lat="47.52044" lon="6.91483">
        <ele>338</ele>
        <time>2016-10-30T11:07:18.000Z</time>
      </trkpt>
      <trkpt lat="47.5204" lon="6.91483">
        <ele>338</ele>
        <time>2016-10-30T11:07:19.000Z</time>
      </trkpt>
      <trkpt lat="47.52035" lon="6.91481">
        <ele>338</ele>
        <time>2016-10-30T11:07:20.000Z</time>
      </trkpt>
      <trkpt lat="47.52031" lon="6.9148">
        <ele>338</ele>
        <time>2016-10-30T11:07:21.000Z</time>
      </trkpt>
      <trkpt lat="47.52026" lon="6.91478">
        <ele>338</ele>
        <time>2016-10-30T11:07:22.000Z</time>
      </trkpt>
      <trkpt lat="47.52021" lon="6.91476">
        <ele>338</ele>
        <time>2016-10-30T11:07:23.000Z</time>
      </trkpt>
      <trkpt lat="47.52016" lon="6.91474">
        <ele>338</ele>
        <time>2016-10-30T11:07:24.000Z</time>
      </trkpt>
      <trkpt lat="47.52011" lon="6.91472">
        <ele>338</ele>
        <time>2016-10-30T11:07:25.000Z</time>
      </trkpt>
      <trkpt lat="47.52007" lon="6.9147">
        <ele>338</ele>
        <time>2016-10-30T11:07:26.000Z</time>
      </trkpt>
      <trkpt lat="47.52002" lon="6.91469">
        <ele>338</ele>
        <time>2016-10-30T11:07:27.000Z</time>
      </trkpt>
      <trkpt lat="47.51996" lon="6.91467">
        <ele>339</ele>
        <time>2016-10-30T11:07:28.000Z</time>
      </trkpt>
      <trkpt lat="47.51991" lon="6.91464">
        <ele>339</ele>
        <time>2016-10-30T11:07:29.000Z</time>
      </trkpt>
      <trkpt lat="47.51986" lon="6.91462">
        <ele>339</ele>
        <time>2016-10-30T11:07:30.000Z</time>
      </trkpt>
      <trkpt lat="47.51981" lon="6.9146">
        <ele>339</ele>
        <time>2016-10-30T11:07:31.000Z</time>
      </trkpt>
      <trkpt lat="47.51976" lon="6.91459">
        <ele>339</ele>
        <time>2016-10-30T11:07:32.000Z</time>
      </trkpt>
      <trkpt lat="47.51971" lon="6.91458">
        <ele>340</ele>
        <time>2016-10-30T11:07:33.000Z</time>
      </trkpt>
      <trkpt lat="47.51967" lon="6.91457">
        <ele>340</ele>
        <time>2016-10-30T11:07:34.000Z</time>
      </trkpt>
      <trkpt lat="47.51963" lon="6.91455">
        <ele>340</ele>
        <time>2016-10-30T11:07:35.000Z</time>
      </trkpt>
      <trkpt lat="47.51959" lon="6.91455">
        <ele>340</ele>
        <time>2016-10-30T11:07:36.000Z</time>
      </trkpt>
      <trkpt lat="47.51955" lon="6.91454">
        <ele>340</ele>
        <time>2016-10-30T11:07:37.000Z</time>
      </trkpt>
      <trkpt lat="47.51951" lon="6.91453">
        <ele>340</ele>
        <time>2016-10-30T11:07:38.000Z</time>
      </trkpt>
      <trkpt lat="47.51947" lon="6.91453">
        <ele>340</ele>
        <time>2016-10-30T11:07:39.000Z</time>
      </trkpt>
      <trkpt lat="47.51942" lon="6.91453">
        <ele>340</ele>
        <time>2016-10-30T11:07:40.000Z</time>
      </trkpt>
      <trkpt lat="47.51938" lon="6.91453">
        <ele>340</ele>
        <time>2016-10-30T11:07:41.000Z</time>
      </trkpt>
      <trkpt lat="47.51934" lon="6.91453">
        <ele>340</ele>
        <time>2016-10-30T11:07:42.000Z</time>
      </trkpt>
      <trkpt lat="47.5193" lon="6.91454">
        <ele>340</ele>
        <time>2016-10-30T11:07:43.000Z</time>
      </trkpt>
      <trkpt lat="47.51925" lon="6.91455">
        <ele>340</ele>
        <time>2016-10-30T11:07:44.000Z</time>
      </trkpt>
      <trkpt lat="47.51921" lon="6.91456">
        <ele>340</ele>
        <time>2016-10-30T11:07:45.000Z</time>
      </trkpt>
      <trkpt lat="47.51917" lon="6.91457">
        <ele>340</ele>
        <time>2016-10-30T11:07:46.000Z</time>
      </trkpt>
      <trkpt lat="47.51913" lon="6.91459">
        <ele>344</ele>
        <time>2016-10-30T11:07:47.000Z</time>
      </trkpt>
      <trkpt lat="47.51909" lon="6.91461">
        <ele>344</ele>
        <time>2016-10-30T11:07:48.000Z</time>
      </trkpt>
      <trkpt lat="47.51906" lon="6.91462">
        <ele>344</ele>
        <time>2016-10-30T11:07:49.000Z</time>
      </trkpt>
      <trkpt lat="47.51902" lon="6.91463">
        <ele>344</ele>
        <time>2016-10-30T11:07:50.000Z</time>
      </trkpt>
      <trkpt lat="47.51899" lon="6.91462">
        <ele>344</ele>
        <time>2016-10-30T11:07:51.000Z</time>
      </trkpt>
      <trkpt lat="47.51895" lon="6.9146">
        <ele>344</ele>
        <time>2016-10-30T11:07:52.000Z</time>
      </trkpt>
      <trkpt lat="47.51893" lon="6.91457">
        <ele>344</ele>
        <time>2016-10-30T11:07:53.000Z</time>
      </trkpt>
      <trkpt lat="47.5189" lon="6.91454">
        <ele>345</ele>
        <time>2016-10-30T11:07:54.000Z</time>
      </trkpt>
      <trkpt lat="47.51888" lon="6.9145">
        <ele>345</ele>
        <time>2016-10-30T11:07:55.000Z</time>
      </trkpt>
      <trkpt lat="47.51887" lon="6.91447">
        <ele>345</ele>
        <time>2016-10-30T11:07:56.000Z</time>
      </trkpt>
      <trkpt lat="47.51885" lon="6.91443">
        <ele>345</ele>
        <time>2016-10-30T11:07:57.000Z</time>
      </trkpt>
      <trkpt lat="47.51884" lon="6.9144">
        <ele>345</ele>
        <time>2016-10-30T11:07:58.000Z</time>
      </trkpt>
      <trkpt lat="47.51883" lon="6.91437">
        <ele>345</ele>
        <time>2016-10-30T11:07:59.000Z</time>
      </trkpt>
      <trkpt lat="47.51882" lon="6.91434">
        <ele>346</ele>
        <time>2016-10-30T11:08:00.000Z</time>
      </trkpt>
      <trkpt lat="47.51879" lon="6.91428">
        <ele>346</ele>
        <time>2016-10-30T11:08:02.000Z</time>
      </trkpt>
      <trkpt lat="47.51878" lon="6.91426">
        <ele>346</ele>
        <time>2016-10-30T11:08:03.000Z</time>
      </trkpt>
      <trkpt lat="47.51875" lon="6.91422">
        <ele>346</ele>
        <time>2016-10-30T11:08:05.000Z</time>
      </trkpt>
      <trkpt lat="47.51873" lon="6.91421">
        <ele>347</ele>
        <time>2016-10-30T11:08:06.000Z</time>
      </trkpt>
      <trkpt lat="47.5187" lon="6.9142">
        <ele>347</ele>
        <time>2016-10-30T11:08:07.000Z</time>
      </trkpt>
      <trkpt lat="47.51867" lon="6.9142">
        <ele>347</ele>
        <time>2016-10-30T11:08:08.000Z</time>
      </trkpt>
      <trkpt lat="47.51864" lon="6.9142">
        <ele>348</ele>
        <time>2016-10-30T11:08:09.000Z</time>
      </trkpt>
      <trkpt lat="47.51861" lon="6.9142">
        <ele>348</ele>
        <time>2016-10-30T11:08:10.000Z</time>
      </trkpt>
      <trkpt lat="47.51858" lon="6.91421">
        <ele>348</ele>
        <time>2016-10-30T11:08:11.000Z</time>
      </trkpt>
      <trkpt lat="47.51854" lon="6.91422">
        <ele>349</ele>
        <time>2016-10-30T11:08:12.000Z</time>
      </trkpt>
      <trkpt lat="47.51851" lon="6.91422">
        <ele>349</ele>
        <time>2016-10-30T11:08:13.000Z</time>
      </trkpt>
      <trkpt lat="47.51848" lon="6.91422">
        <ele>350</ele>
        <time>2016-10-30T11:08:14.000Z</time>
      </trkpt>
      <trkpt lat="47.51844" lon="6.91422">
        <ele>351</ele>
        <time>2016-10-30T11:08:15.000Z</time>
      </trkpt>
      <trkpt lat="47.51841" lon="6.91421">
        <ele>351</ele>
        <time>2016-10-30T11:08:16.000Z</time>
      </trkpt>
      <trkpt lat="47.51837" lon="6.9142">
        <ele>352</ele>
        <time>2016-10-30T11:08:17.000Z</time>
      </trkpt>
      <trkpt lat="47.51833" lon="6.9142">
        <ele>354</ele>
        <time>2016-10-30T11:08:18.000Z</time>
      </trkpt>
      <trkpt lat="47.5183" lon="6.9142">
        <ele>354</ele>
        <time>2016-10-30T11:08:19.000Z</time>
      </trkpt>
      <trkpt lat="47.51826" lon="6.91419">
        <ele>354</ele>
        <time>2016-10-30T11:08:20.000Z</time>
      </trkpt>
      <trkpt lat="47.51822" lon="6.91419">
        <ele>354</ele>
        <time>2016-10-30T11:08:21.000Z</time>
      </trkpt>
      <trkpt lat="47.51818" lon="6.91418">
        <ele>354</ele>
        <time>2016-10-30T11:08:22.000Z</time>
      </trkpt>
      <trkpt lat="47.51814" lon="6.91418">
        <ele>354</ele>
        <time>2016-10-30T11:08:23.000Z</time>
      </trkpt>
      <trkpt lat="47.5181" lon="6.91417">
        <ele>354</ele>
        <time>2016-10-30T11:08:24.000Z</time>
      </trkpt>
      <trkpt lat="47.51806" lon="6.91417">
        <ele>360</ele>
        <time>2016-10-30T11:08:25.001Z</time>
      </trkpt>
      <trkpt lat="47.51803" lon="6.91417">
        <ele>361</ele>
        <time>2016-10-30T11:08:26.000Z</time>
      </trkpt>
      <trkpt lat="47.518" lon="6.91416">
        <ele>361</ele>
        <time>2016-10-30T11:08:27.000Z</time>
      </trkpt>
      <trkpt lat="47.51798" lon="6.91416">
        <ele>361</ele>
        <time>2016-10-30T11:08:28.000Z</time>
      </trkpt>
      <trkpt lat="47.51795" lon="6.91416">
        <ele>361</ele>
        <time>2016-10-30T11:08:29.000Z</time>
      </trkpt>
      <trkpt lat="47.51791" lon="6.91416">
        <ele>362</ele>
        <time>2016-10-30T11:08:30.000Z</time>
      </trkpt>
      <trkpt lat="47.51788" lon="6.91415">
        <ele>362</ele>
        <time>2016-10-30T11:08:30.999Z</time>
      </trkpt>
      <trkpt lat="47.51784" lon="6.91417">
        <ele>355</ele>
        <time>2016-10-30T11:08:32.000Z</time>
      </trkpt>
      <trkpt lat="47.5178" lon="6.91418">
        <ele>355</ele>
        <time>2016-10-30T11:08:33.000Z</time>
      </trkpt>
      <trkpt lat="47.51777" lon="6.91419">
        <ele>356</ele>
        <time>2016-10-30T11:08:34.000Z</time>
      </trkpt>
      <trkpt lat="47.51773" lon="6.91419">
        <ele>356</ele>
        <time>2016-10-30T11:08:35.000Z</time>
      </trkpt>
      <trkpt lat="47.51768" lon="6.91418">
        <ele>357</ele>
        <time>2016-10-30T11:08:36.000Z</time>
      </trkpt>
      <trkpt lat="47.51763" lon="6.91417">
        <ele>358</ele>
        <time>2016-10-30T11:08:37.000Z</time>
      </trkpt>
      <trkpt lat="47.51759" lon="6.91417">
        <ele>359</ele>
        <time>2016-10-30T11:08:38.001Z</time>
      </trkpt>
      <trkpt lat="47.51755" lon="6.91417">
        <ele>359</ele>
        <time>2016-10-30T11:08:39.000Z</time>
      </trkpt>
      <trkpt lat="47.51751" lon="6.91418">
        <ele>360</ele>
        <time>2016-10-30T11:08:40.000Z</time>
      </trkpt>
      <trkpt lat="47.51748" lon="6.91417">
        <ele>360</ele>
        <time>2016-10-30T11:08:41.000Z</time>
      </trkpt>
      <trkpt lat="47.51745" lon="6.91416">
        <ele>362</ele>
        <time>2016-10-30T11:08:42.000Z</time>
      </trkpt>
      <trkpt lat="47.51742" lon="6.91416">
        <ele>362</ele>
        <time>2016-10-30T11:08:43.000Z</time>
      </trkpt>
      <trkpt lat="47.51739" lon="6.91416">
        <ele>362</ele>
        <time>2016-10-30T11:08:44.000Z</time>
      </trkpt>
      <trkpt lat="47.51736" lon="6.91416">
        <ele>363</ele>
        <time>2016-10-30T11:08:45.000Z</time>
      </trkpt>
      <trkpt lat="47.51731" lon="6.91416">
        <ele>363</ele>
        <time>2016-10-30T11:08:46.000Z</time>
      </trkpt>
      <trkpt lat="47.51727" lon="6.91415">
        <ele>363</ele>
        <time>2016-10-30T11:08:47.000Z</time>
      </trkpt>
      <trkpt lat="47.51723" lon="6.91415">
        <ele>363</ele>
        <time>2016-10-30T11:08:48.000Z</time>
      </trkpt>
      <trkpt lat="47.51719" lon="6.91415">
        <ele>363</ele>
        <time>2016-10-30T11:08:49.000Z</time>
      </trkpt>
      <trkpt lat="47.51714" lon="6.91415">
        <ele>363</ele>
        <time>2016-10-30T11:08:50.000Z</time>
      </trkpt>
      <trkpt lat="47.5171" lon="6.91415">
        <ele>363</ele>
        <time>2016-10-30T11:08:51.000Z</time>
      </trkpt>
      <trkpt lat="47.51706" lon="6.91414">
        <ele>362</ele>
        <time>2016-10-30T11:08:52.000Z</time>
      </trkpt>
      <trkpt lat="47.51701" lon="6.91414">
        <ele>362</ele>
        <time>2016-10-30T11:08:53.000Z</time>
      </trkpt>
      <trkpt lat="47.51697" lon="6.91414">
        <ele>362</ele>
        <time>2016-10-30T11:08:54.000Z</time>
      </trkpt>
      <trkpt lat="47.51695" lon="6.91415">
        <ele>361</ele>
        <time>2016-10-30T11:08:55.000Z</time>
      </trkpt>
      <trkpt lat="47.51692" lon="6.91415">
        <ele>361</ele>
        <time>2016-10-30T11:08:56.000Z</time>
      </trkpt>
      <trkpt lat="47.5169" lon="6.91415">
        <ele>361</ele>
        <time>2016-10-30T11:08:57.000Z</time>
      </trkpt>
      <trkpt lat="47.51684" lon="6.91414">
        <ele>360</ele>
        <time>2016-10-30T11:08:58.000Z</time>
      </trkpt>
      <trkpt lat="47.51679" lon="6.91415">
        <ele>359</ele>
        <time>2016-10-30T11:08:59.000Z</time>
      </trkpt>
      <trkpt lat="47.51676" lon="6.91415">
        <ele>358</ele>
        <time>2016-10-30T11:09:00.000Z</time>
      </trkpt>
      <trkpt lat="47.5167" lon="6.91415">
        <ele>356</ele>
        <time>2016-10-30T11:09:01.000Z</time>
      </trkpt>
      <trkpt lat="47.51666" lon="6.91415">
        <ele>355</ele>
        <time>2016-10-30T11:09:02.000Z</time>
      </trkpt>
      <trkpt lat="47.51662" lon="6.91414">
        <ele>356</ele>
        <time>2016-10-30T11:09:03.000Z</time>
      </trkpt>
      <trkpt lat="47.51658" lon="6.91413">
        <ele>356</ele>
        <time>2016-10-30T11:09:04.000Z</time>
      </trkpt>
      <trkpt lat="47.51653" lon="6.91413">
        <ele>357</ele>
        <time>2016-10-30T11:09:05.000Z</time>
      </trkpt>
      <trkpt lat="47.51649" lon="6.91412">
        <ele>357</ele>
        <time>2016-10-30T11:09:06.000Z</time>
      </trkpt>
      <trkpt lat="47.51645" lon="6.91411">
        <ele>357</ele>
        <time>2016-10-30T11:09:07.000Z</time>
      </trkpt>
      <trkpt lat="47.51639" lon="6.91409">
        <ele>357</ele>
        <time>2016-10-30T11:09:08.000Z</time>
      </trkpt>
      <trkpt lat="47.51636" lon="6.91408">
        <ele>357</ele>
        <time>2016-10-30T11:09:09.000Z</time>
      </trkpt>
      <trkpt lat="47.51635" lon="6.91408">
        <ele>357</ele>
        <time>2016-10-30T11:09:10.000Z</time>
      </trkpt>
      <trkpt lat="47.51629" lon="6.91406">
        <ele>357</ele>
        <time>2016-10-30T11:09:11.000Z</time>
      </trkpt>
      <trkpt lat="47.51624" lon="6.91405">
        <ele>357</ele>
        <time>2016-10-30T11:09:12.000Z</time>
      </trkpt>
      <trkpt lat="47.51618" lon="6.91404">
        <ele>357</ele>
        <time>2016-10-30T11:09:13.000Z</time>
      </trkpt>
      <trkpt lat="47.51613" lon="6.91402">
        <ele>357</ele>
        <time>2016-10-30T11:09:14.000Z</time>
      </trkpt>
      <trkpt lat="47.51608" lon="6.91401">
        <ele>357</ele>
        <time>2016-10-30T11:09:15.000Z</time>
      </trkpt>
      <trkpt lat="47.51603" lon="6.914">
        <ele>356</ele>
        <time>2016-10-30T11:09:16.000Z</time>
      </trkpt>
      <trkpt lat="47.51599" lon="6.91398">
        <ele>356</ele>
        <time>2016-10-30T11:09:17.000Z</time>
      </trkpt>
      <trkpt lat="47.51595" lon="6.91397">
        <ele>356</ele>
        <time>2016-10-30T11:09:18.000Z</time>
      </trkpt>
      <trkpt lat="47.51591" lon="6.91395">
        <ele>356</ele>
        <time>2016-10-30T11:09:19.000Z</time>
      </trkpt>
      <trkpt lat="47.51587" lon="6.91394">
        <ele>356</ele>
        <time>2016-10-30T11:09:20.000Z</time>
      </trkpt>
      <trkpt lat="47.51583" lon="6.91392">
        <ele>354</ele>
        <time>2016-10-30T11:09:21.000Z</time>
      </trkpt>
      <trkpt lat="47.51579" lon="6.9139">
        <ele>354</ele>
        <time>2016-10-30T11:09:22.000Z</time>
      </trkpt>
      <trkpt lat="47.51575" lon="6.91389">
        <ele>355</ele>
        <time>2016-10-30T11:09:23.000Z</time>
      </trkpt>
      <trkpt lat="47.51571" lon="6.91387">
        <ele>355</ele>
        <time>2016-10-30T11:09:24.000Z</time>
      </trkpt>
      <trkpt lat="47.51566" lon="6.91385">
        <ele>355</ele>
        <time>2016-10-30T11:09:25.000Z</time>
      </trkpt>
      <trkpt lat="47.51562" lon="6.91384">
        <ele>355</ele>
        <time>2016-10-30T11:09:26.000Z</time>
      </trkpt>
      <trkpt lat="47.51558" lon="6.91383">
        <ele>355</ele>
        <time>2016-10-30T11:09:27.000Z</time>
      </trkpt>
      <trkpt lat="47.51554" lon="6.91382">
        <ele>355</ele>
        <time>2016-10-30T11:09:28.000Z</time>
      </trkpt>
      <trkpt lat="47.51549" lon="6.91379">
        <ele>355</ele>
        <time>2016-10-30T11:09:29.000Z</time>
      </trkpt>
      <trkpt lat="47.51544" lon="6.91377">
        <ele>355</ele>
        <time>2016-10-30T11:09:30.000Z</time>
      </trkpt>
      <trkpt lat="47.5154" lon="6.91376">
        <ele>355</ele>
        <time>2016-10-30T11:09:31.000Z</time>
      </trkpt>
      <trkpt lat="47.51536" lon="6.91373">
        <ele>355</ele>
        <time>2016-10-30T11:09:32.000Z</time>
      </trkpt>
      <trkpt lat="47.51531" lon="6.9137">
        <ele>355</ele>
        <time>2016-10-30T11:09:33.000Z</time>
      </trkpt>
      <trkpt lat="47.51527" lon="6.91368">
        <ele>355</ele>
        <time>2016-10-30T11:09:34.000Z</time>
      </trkpt>
      <trkpt lat="47.51523" lon="6.91366">
        <ele>355</ele>
        <time>2016-10-30T11:09:35.000Z</time>
      </trkpt>
      <trkpt lat="47.51519" lon="6.91363">
        <ele>355</ele>
        <time>2016-10-30T11:09:36.000Z</time>
      </trkpt>
      <trkpt lat="47.51514" lon="6.91361">
        <ele>355</ele>
        <time>2016-10-30T11:09:37.000Z</time>
      </trkpt>
      <trkpt lat="47.5151" lon="6.91358">
        <ele>355</ele>
        <time>2016-10-30T11:09:38.000Z</time>
      </trkpt>
      <trkpt lat="47.51505" lon="6.91356">
        <ele>355</ele>
        <time>2016-10-30T11:09:39.000Z</time>
      </trkpt>
      <trkpt lat="47.51501" lon="6.91354">
        <ele>355</ele>
        <time>2016-10-30T11:09:40.000Z</time>
      </trkpt>
      <trkpt lat="47.51497" lon="6.91351">
        <ele>354</ele>
        <time>2016-10-30T11:09:41.000Z</time>
      </trkpt>
      <trkpt lat="47.51493" lon="6.91349">
        <ele>354</ele>
        <time>2016-10-30T11:09:42.000Z</time>
      </trkpt>
      <trkpt lat="47.51488" lon="6.91346">
        <ele>354</ele>
        <time>2016-10-30T11:09:43.000Z</time>
      </trkpt>
      <trkpt lat="47.51484" lon="6.91344">
        <ele>354</ele>
        <time>2016-10-30T11:09:44.000Z</time>
      </trkpt>
      <trkpt lat="47.51479" lon="6.91341">
        <ele>354</ele>
        <time>2016-10-30T11:09:45.000Z</time>
      </trkpt>
      <trkpt lat="47.51475" lon="6.91339">
        <ele>354</ele>
        <time>2016-10-30T11:09:46.000Z</time>
      </trkpt>
      <trkpt lat="47.5147" lon="6.91335">
        <ele>354</ele>
        <time>2016-10-30T11:09:47.000Z</time>
      </trkpt>
      <trkpt lat="47.51466" lon="6.91333">
        <ele>356</ele>
        <time>2016-10-30T11:09:48.000Z</time>
      </trkpt>
      <trkpt lat="47.51461" lon="6.91329">
        <ele>356</ele>
        <time>2016-10-30T11:09:49.000Z</time>
      </trkpt>
      <trkpt lat="47.51457" lon="6.91327">
        <ele>356</ele>
        <time>2016-10-30T11:09:50.000Z</time>
      </trkpt>
      <trkpt lat="47.51452" lon="6.91325">
        <ele>355</ele>
        <time>2016-10-30T11:09:51.000Z</time>
      </trkpt>
      <trkpt lat="47.51447" lon="6.91323">
        <ele>355</ele>
        <time>2016-10-30T11:09:52.000Z</time>
      </trkpt>
      <trkpt lat="47.51442" lon="6.91321">
        <ele>355</ele>
        <time>2016-10-30T11:09:53.000Z</time>
      </trkpt>
      <trkpt lat="47.51437" lon="6.91318">
        <ele>355</ele>
        <time>2016-10-30T11:09:54.000Z</time>
      </trkpt>
      <trkpt lat="47.51433" lon="6.91315">
        <ele>355</ele>
        <time>2016-10-30T11:09:55.000Z</time>
      </trkpt>
      <trkpt lat="47.51428" lon="6.91313">
        <ele>355</ele>
        <time>2016-10-30T11:09:56.000Z</time>
      </trkpt>
      <trkpt lat="47.51424" lon="6.9131">
        <ele>355</ele>
        <time>2016-10-30T11:09:57.000Z</time>
      </trkpt>
      <trkpt lat="47.5142" lon="6.91308">
        <ele>355</ele>
        <time>2016-10-30T11:09:58.000Z</time>
      </trkpt>
      <trkpt lat="47.51415" lon="6.91305">
        <ele>354</ele>
        <time>2016-10-30T11:09:59.000Z</time>
      </trkpt>
      <trkpt lat="47.5141" lon="6.91303">
        <ele>354</ele>
        <time>2016-10-30T11:10:00.000Z</time>
      </trkpt>
      <trkpt lat="47.51406" lon="6.91299">
        <ele>355</ele>
        <time>2016-10-30T11:10:01.000Z</time>
      </trkpt>
      <trkpt lat="47.51401" lon="6.91297">
        <ele>355</ele>
        <time>2016-10-30T11:10:02.000Z</time>
      </trkpt>
      <trkpt lat="47.51396" lon="6.91294">
        <ele>355</ele>
        <time>2016-10-30T11:10:03.000Z</time>
      </trkpt>
      <trkpt lat="47.51392" lon="6.91292">
        <ele>355</ele>
        <time>2016-10-30T11:10:04.000Z</time>
      </trkpt>
      <trkpt lat="47.51387" lon="6.91289">
        <ele>355</ele>
        <time>2016-10-30T11:10:05.000Z</time>
      </trkpt>
      <trkpt lat="47.51382" lon="6.91286">
        <ele>356</ele>
        <time>2016-10-30T11:10:06.000Z</time>
      </trkpt>
      <trkpt lat="47.51377" lon="6.91283">
        <ele>356</ele>
        <time>2016-10-30T11:10:07.000Z</time>
      </trkpt>
      <trkpt lat="47.51372" lon="6.91281">
        <ele>356</ele>
        <time>2016-10-30T11:10:08.000Z</time>
      </trkpt>
      <trkpt lat="47.51368" lon="6.91279">
        <ele>356</ele>
        <time>2016-10-30T11:10:09.000Z</time>
      </trkpt>
      <trkpt lat="47.51363" lon="6.91277">
        <ele>356</ele>
        <time>2016-10-30T11:10:10.000Z</time>
      </trkpt>
      <trkpt lat="47.51359" lon="6.91275">
        <ele>357</ele>
        <time>2016-10-30T11:10:11.000Z</time>
      </trkpt>
      <trkpt lat="47.51355" lon="6.91272">
        <ele>357</ele>
        <time>2016-10-30T11:10:12.000Z</time>
      </trkpt>
      <trkpt lat="47.5135" lon="6.9127">
        <ele>357</ele>
        <time>2016-10-30T11:10:13.000Z</time>
      </trkpt>
      <trkpt lat="47.51346" lon="6.91268">
        <ele>358</ele>
        <time>2016-10-30T11:10:14.000Z</time>
      </trkpt>
      <trkpt lat="47.51341" lon="6.91266">
        <ele>358</ele>
        <time>2016-10-30T11:10:15.000Z</time>
      </trkpt>
      <trkpt lat="47.51337" lon="6.91263">
        <ele>359</ele>
        <time>2016-10-30T11:10:16.000Z</time>
      </trkpt>
      <trkpt lat="47.51332" lon="6.91261">
        <ele>359</ele>
        <time>2016-10-30T11:10:17.000Z</time>
      </trkpt>
      <trkpt lat="47.51329" lon="6.91259">
        <ele>359</ele>
        <time>2016-10-30T11:10:18.000Z</time>
      </trkpt>
      <trkpt lat="47.51325" lon="6.91257">
        <ele>359</ele>
        <time>2016-10-30T11:10:19.000Z</time>
      </trkpt>
      <trkpt lat="47.5132" lon="6.91256">
        <ele>359</ele>
        <time>2016-10-30T11:10:20.000Z</time>
      </trkpt>
      <trkpt lat="47.51316" lon="6.91255">
        <ele>359</ele>
        <time>2016-10-30T11:10:21.000Z</time>
      </trkpt>
      <trkpt lat="47.51312" lon="6.91254">
        <ele>358</ele>
        <time>2016-10-30T11:10:22.000Z</time>
      </trkpt>
      <trkpt lat="47.51307" lon="6.91253">
        <ele>358</ele>
        <time>2016-10-30T11:10:23.000Z</time>
      </trkpt>
      <trkpt lat="47.51303" lon="6.91251">
        <ele>358</ele>
        <time>2016-10-30T11:10:24.000Z</time>
      </trkpt>
      <trkpt lat="47.51298" lon="6.91249">
        <ele>366</ele>
        <time>2016-10-30T11:10:25.000Z</time>
      </trkpt>
      <trkpt lat="47.51294" lon="6.91248">
        <ele>366</ele>
        <time>2016-10-30T11:10:26.000Z</time>
      </trkpt>
      <trkpt lat="47.51289" lon="6.91247">
        <ele>367</ele>
        <time>2016-10-30T11:10:27.000Z</time>
      </trkpt>
      <trkpt lat="47.51285" lon="6.91247">
        <ele>367</ele>
        <time>2016-10-30T11:10:28.000Z</time>
      </trkpt>
      <trkpt lat="47.51281" lon="6.91246">
        <ele>367</ele>
        <time>2016-10-30T11:10:29.000Z</time>
      </trkpt>
      <trkpt lat="47.51277" lon="6.91245">
        <ele>366</ele>
        <time>2016-10-30T11:10:30.000Z</time>
      </trkpt>
      <trkpt lat="47.51273" lon="6.91244">
        <ele>366</ele>
        <time>2016-10-30T11:10:31.000Z</time>
      </trkpt>
      <trkpt lat="47.51269" lon="6.91244">
        <ele>366</ele>
        <time>2016-10-30T11:10:32.000Z</time>
      </trkpt>
      <trkpt lat="47.51265" lon="6.91243">
        <ele>365</ele>
        <time>2016-10-30T11:10:33.000Z</time>
      </trkpt>
      <trkpt lat="47.5126" lon="6.91243">
        <ele>365</ele>
        <time>2016-10-30T11:10:34.000Z</time>
      </trkpt>
      <trkpt lat="47.51256" lon="6.91242">
        <ele>365</ele>
        <time>2016-10-30T11:10:35.000Z</time>
      </trkpt>
      <trkpt lat="47.51252" lon="6.91241">
        <ele>364</ele>
        <time>2016-10-30T11:10:36.000Z</time>
      </trkpt>
      <trkpt lat="47.51248" lon="6.9124">
        <ele>365</ele>
        <time>2016-10-30T11:10:37.000Z</time>
      </trkpt>
      <trkpt lat="47.51244" lon="6.9124">
        <ele>366</ele>
        <time>2016-10-30T11:10:38.000Z</time>
      </trkpt>
      <trkpt lat="47.5124" lon="6.91239">
        <ele>366</ele>
        <time>2016-10-30T11:10:39.000Z</time>
      </trkpt>
      <trkpt lat="47.51235" lon="6.91238">
        <ele>367</ele>
        <time>2016-10-30T11:10:40.000Z</time>
      </trkpt>
      <trkpt lat="47.51231" lon="6.91238">
        <ele>367</ele>
        <time>2016-10-30T11:10:41.000Z</time>
      </trkpt>
      <trkpt lat="47.51227" lon="6.91238">
        <ele>368</ele>
        <time>2016-10-30T11:10:42.000Z</time>
      </trkpt>
      <trkpt lat="47.51223" lon="6.91237">
        <ele>368</ele>
        <time>2016-10-30T11:10:43.000Z</time>
      </trkpt>
      <trkpt lat="47.51218" lon="6.91236">
        <ele>369</ele>
        <time>2016-10-30T11:10:44.000Z</time>
      </trkpt>
      <trkpt lat="47.51214" lon="6.91236">
        <ele>369</ele>
        <time>2016-10-30T11:10:45.000Z</time>
      </trkpt>
      <trkpt lat="47.5121" lon="6.91235">
        <ele>369</ele>
        <time>2016-10-30T11:10:46.000Z</time>
      </trkpt>
      <trkpt lat="47.51205" lon="6.91235">
        <ele>369</ele>
        <time>2016-10-30T11:10:47.000Z</time>
      </trkpt>
      <trkpt lat="47.51201" lon="6.91234">
        <ele>369</ele>
        <time>2016-10-30T11:10:48.000Z</time>
      </trkpt>
      <trkpt lat="47.51197" lon="6.91234">
        <ele>369</ele>
        <time>2016-10-30T11:10:49.000Z</time>
      </trkpt>
      <trkpt lat="47.51192" lon="6.91233">
        <ele>369</ele>
        <time>2016-10-30T11:10:50.000Z</time>
      </trkpt>
      <trkpt lat="47.51188" lon="6.91233">
        <ele>369</ele>
        <time>2016-10-30T11:10:51.000Z</time>
      </trkpt>
      <trkpt lat="47.51184" lon="6.91233">
        <ele>368</ele>
        <time>2016-10-30T11:10:52.000Z</time>
      </trkpt>
      <trkpt lat="47.5118" lon="6.91233">
        <ele>368</ele>
        <time>2016-10-30T11:10:53.000Z</time>
      </trkpt>
      <trkpt lat="47.51175" lon="6.91233">
        <ele>368</ele>
        <time>2016-10-30T11:10:54.000Z</time>
      </trkpt>
      <trkpt lat="47.51171" lon="6.91233">
        <ele>368</ele>
        <time>2016-10-30T11:10:55.000Z</time>
      </trkpt>
      <trkpt lat="47.51167" lon="6.91233">
        <ele>368</ele>
        <time>2016-10-30T11:10:56.001Z</time>
      </trkpt>
      <trkpt lat="47.51163" lon="6.91233">
        <ele>365</ele>
        <time>2016-10-30T11:10:57.000Z</time>
      </trkpt>
      <trkpt lat="47.51159" lon="6.91233">
        <ele>366</ele>
        <time>2016-10-30T11:10:58.000Z</time>
      </trkpt>
      <trkpt lat="47.51154" lon="6.91233">
        <ele>366</ele>
        <time>2016-10-30T11:10:59.000Z</time>
      </trkpt>
      <trkpt lat="47.51149" lon="6.91233">
        <ele>366</ele>
        <time>2016-10-30T11:11:00.000Z</time>
      </trkpt>
      <trkpt lat="47.51145" lon="6.91233">
        <ele>365</ele>
        <time>2016-10-30T11:11:01.000Z</time>
      </trkpt>
      <trkpt lat="47.51141" lon="6.91234">
        <ele>365</ele>
        <time>2016-10-30T11:11:02.000Z</time>
      </trkpt>
      <trkpt lat="47.51134" lon="6.91232">
        <ele>365</ele>
        <time>2016-10-30T11:11:03.000Z</time>
      </trkpt>
      <trkpt lat="47.5113" lon="6.91233">
        <ele>365</ele>
        <time>2016-10-30T11:11:04.000Z</time>
      </trkpt>
      <trkpt lat="47.51125" lon="6.91233">
        <ele>365</ele>
        <time>2016-10-30T11:11:05.000Z</time>
      </trkpt>
      <trkpt lat="47.51121" lon="6.91234">
        <ele>364</ele>
        <time>2016-10-30T11:11:06.000Z</time>
      </trkpt>
      <trkpt lat="47.51116" lon="6.91234">
        <ele>364</ele>
        <time>2016-10-30T11:11:07.000Z</time>
      </trkpt>
      <trkpt lat="47.51112" lon="6.91235">
        <ele>364</ele>
        <time>2016-10-30T11:11:08.000Z</time>
      </trkpt>
      <trkpt lat="47.51108" lon="6.91236">
        <ele>363</ele>
        <time>2016-10-30T11:11:09.000Z</time>
      </trkpt>
      <trkpt lat="47.51103" lon="6.91236">
        <ele>363</ele>
        <time>2016-10-30T11:11:10.000Z</time>
      </trkpt>
      <trkpt lat="47.51099" lon="6.91237">
        <ele>362</ele>
        <time>2016-10-30T11:11:11.000Z</time>
      </trkpt>
      <trkpt lat="47.51094" lon="6.91237">
        <ele>361</ele>
        <time>2016-10-30T11:11:12.000Z</time>
      </trkpt>
      <trkpt lat="47.51089" lon="6.91238">
        <ele>361</ele>
        <time>2016-10-30T11:11:13.000Z</time>
      </trkpt>
      <trkpt lat="47.51085" lon="6.9124">
        <ele>360</ele>
        <time>2016-10-30T11:11:14.000Z</time>
      </trkpt>
      <trkpt lat="47.5108" lon="6.91241">
        <ele>360</ele>
        <time>2016-10-30T11:11:15.000Z</time>
      </trkpt>
      <trkpt lat="47.51075" lon="6.91242">
        <ele>360</ele>
        <time>2016-10-30T11:11:16.000Z</time>
      </trkpt>
      <trkpt lat="47.51071" lon="6.91243">
        <ele>360</ele>
        <time>2016-10-30T11:11:17.000Z</time>
      </trkpt>
      <trkpt lat="47.51067" lon="6.91243">
        <ele>361</ele>
        <time>2016-10-30T11:11:18.000Z</time>
      </trkpt>
      <trkpt lat="47.51062" lon="6.91244">
        <ele>362</ele>
        <time>2016-10-30T11:11:19.000Z</time>
      </trkpt>
      <trkpt lat="47.51057" lon="6.91245">
        <ele>362</ele>
        <time>2016-10-30T11:11:20.000Z</time>
      </trkpt>
      <trkpt lat="47.51052" lon="6.91247">
        <ele>363</ele>
        <time>2016-10-30T11:11:21.000Z</time>
      </trkpt>
      <trkpt lat="47.51047" lon="6.91248">
        <ele>363</ele>
        <time>2016-10-30T11:11:22.000Z</time>
      </trkpt>
      <trkpt lat="47.51042" lon="6.91249">
        <ele>363</ele>
        <time>2016-10-30T11:11:23.000Z</time>
      </trkpt>
      <trkpt lat="47.51038" lon="6.9125">
        <ele>359</ele>
        <time>2016-10-30T11:11:24.000Z</time>
      </trkpt>
      <trkpt lat="47.51033" lon="6.91252">
        <ele>360</ele>
        <time>2016-10-30T11:11:25.000Z</time>
      </trkpt>
      <trkpt lat="47.51028" lon="6.91254">
        <ele>360</ele>
        <time>2016-10-30T11:11:26.000Z</time>
      </trkpt>
      <trkpt lat="47.51023" lon="6.91255">
        <ele>361</ele>
        <time>2016-10-30T11:11:27.000Z</time>
      </trkpt>
      <trkpt lat="47.51019" lon="6.91258">
        <ele>361</ele>
        <time>2016-10-30T11:11:28.000Z</time>
      </trkpt>
      <trkpt lat="47.51015" lon="6.9126">
        <ele>361</ele>
        <time>2016-10-30T11:11:29.000Z</time>
      </trkpt>
      <trkpt lat="47.5101" lon="6.91261">
        <ele>362</ele>
        <time>2016-10-30T11:11:30.000Z</time>
      </trkpt>
      <trkpt lat="47.51006" lon="6.91263">
        <ele>362</ele>
        <time>2016-10-30T11:11:31.000Z</time>
      </trkpt>
      <trkpt lat="47.51002" lon="6.91266">
        <ele>362</ele>
        <time>2016-10-30T11:11:32.000Z</time>
      </trkpt>
      <trkpt lat="47.50997" lon="6.91268">
        <ele>363</ele>
        <time>2016-10-30T11:11:33.001Z</time>
      </trkpt>
      <trkpt lat="47.50994" lon="6.91267">
        <ele>363</ele>
        <time>2016-10-30T11:11:34.000Z</time>
      </trkpt>
      <trkpt lat="47.50989" lon="6.91269">
        <ele>363</ele>
        <time>2016-10-30T11:11:35.000Z</time>
      </trkpt>
      <trkpt lat="47.50985" lon="6.91269">
        <ele>363</ele>
        <time>2016-10-30T11:11:36.000Z</time>
      </trkpt>
      <trkpt lat="47.5098" lon="6.91272">
        <ele>362</ele>
        <time>2016-10-30T11:11:37.000Z</time>
      </trkpt>
      <trkpt lat="47.50975" lon="6.91276">
        <ele>362</ele>
        <time>2016-10-30T11:11:38.000Z</time>
      </trkpt>
      <trkpt lat="47.50971" lon="6.91279">
        <ele>362</ele>
        <time>2016-10-30T11:11:39.000Z</time>
      </trkpt>
      <trkpt lat="47.50967" lon="6.91283">
        <ele>362</ele>
        <time>2016-10-30T11:11:40.000Z</time>
      </trkpt>
      <trkpt lat="47.50961" lon="6.91288">
        <ele>361</ele>
        <time>2016-10-30T11:11:41.000Z</time>
      </trkpt>
      <trkpt lat="47.50956" lon="6.91291">
        <ele>361</ele>
        <time>2016-10-30T11:11:42.000Z</time>
      </trkpt>
      <trkpt lat="47.50949" lon="6.91293">
        <ele>361</ele>
        <time>2016-10-30T11:11:43.000Z</time>
      </trkpt>
      <trkpt lat="47.50943" lon="6.91293">
        <ele>361</ele>
        <time>2016-10-30T11:11:44.000Z</time>
      </trkpt>
      <trkpt lat="47.50938" lon="6.91293">
        <ele>361</ele>
        <time>2016-10-30T11:11:45.000Z</time>
      </trkpt>
      <trkpt lat="47.50931" lon="6.9129">
        <ele>362</ele>
        <time>2016-10-30T11:11:46.000Z</time>
      </trkpt>
      <trkpt lat="47.50926" lon="6.91287">
        <ele>362</ele>
        <time>2016-10-30T11:11:47.000Z</time>
      </trkpt>
      <trkpt lat="47.50921" lon="6.91282">
        <ele>362</ele>
        <time>2016-10-30T11:11:48.000Z</time>
      </trkpt>
      <trkpt lat="47.50917" lon="6.91278">
        <ele>363</ele>
        <time>2016-10-30T11:11:49.000Z</time>
      </trkpt>
      <trkpt lat="47.50915" lon="6.91273">
        <ele>363</ele>
        <time>2016-10-30T11:11:50.000Z</time>
      </trkpt>
      <trkpt lat="47.50912" lon="6.91266">
        <ele>364</ele>
        <time>2016-10-30T11:11:51.000Z</time>
      </trkpt>
      <trkpt lat="47.5091" lon="6.91262">
        <ele>364</ele>
        <time>2016-10-30T11:11:52.000Z</time>
      </trkpt>
      <trkpt lat="47.50908" lon="6.91257">
        <ele>365</ele>
        <time>2016-10-30T11:11:53.000Z</time>
      </trkpt>
      <trkpt lat="47.50907" lon="6.91253">
        <ele>365</ele>
        <time>2016-10-30T11:11:54.000Z</time>
      </trkpt>
      <trkpt lat="47.50905" lon="6.91249">
        <ele>367</ele>
        <time>2016-10-30T11:11:55.000Z</time>
      </trkpt>
      <trkpt lat="47.50903" lon="6.91244">
        <ele>367</ele>
        <time>2016-10-30T11:11:56.000Z</time>
      </trkpt>
      <trkpt lat="47.50901" lon="6.91241">
        <ele>367</ele>
        <time>2016-10-30T11:11:57.000Z</time>
      </trkpt>
      <trkpt lat="47.50899" lon="6.91237">
        <ele>367</ele>
        <time>2016-10-30T11:11:58.000Z</time>
      </trkpt>
      <trkpt lat="47.50898" lon="6.91232">
        <ele>367</ele>
        <time>2016-10-30T11:11:59.000Z</time>
      </trkpt>
      <trkpt lat="47.50897" lon="6.91228">
        <ele>367</ele>
        <time>2016-10-30T11:12:00.000Z</time>
      </trkpt>
      <trkpt lat="47.50895" lon="6.91224">
        <ele>367</ele>
        <time>2016-10-30T11:12:01.000Z</time>
      </trkpt>
      <trkpt lat="47.50893" lon="6.9122">
        <ele>367</ele>
        <time>2016-10-30T11:12:02.000Z</time>
      </trkpt>
      <trkpt lat="47.50891" lon="6.91216">
        <ele>367</ele>
        <time>2016-10-30T11:12:03.000Z</time>
      </trkpt>
      <trkpt lat="47.50889" lon="6.91211">
        <ele>367</ele>
        <time>2016-10-30T11:12:04.000Z</time>
      </trkpt>
      <trkpt lat="47.50887" lon="6.91207">
        <ele>368</ele>
        <time>2016-10-30T11:12:05.000Z</time>
      </trkpt>
      <trkpt lat="47.50885" lon="6.91203">
        <ele>368</ele>
        <time>2016-10-30T11:12:06.000Z</time>
      </trkpt>
      <trkpt lat="47.50883" lon="6.91199">
        <ele>368</ele>
        <time>2016-10-30T11:12:07.000Z</time>
      </trkpt>
      <trkpt lat="47.50882" lon="6.91195">
        <ele>368</ele>
        <time>2016-10-30T11:12:08.000Z</time>
      </trkpt>
      <trkpt lat="47.50881" lon="6.9119">
        <ele>368</ele>
        <time>2016-10-30T11:12:09.000Z</time>
      </trkpt>
      <trkpt lat="47.50881" lon="6.91186">
        <ele>368</ele>
        <time>2016-10-30T11:12:10.000Z</time>
      </trkpt>
      <trkpt lat="47.50882" lon="6.91181">
        <ele>368</ele>
        <time>2016-10-30T11:12:11.000Z</time>
      </trkpt>
      <trkpt lat="47.50883" lon="6.91177">
        <ele>368</ele>
        <time>2016-10-30T11:12:12.000Z</time>
      </trkpt>
      <trkpt lat="47.50884" lon="6.91172">
        <ele>369</ele>
        <time>2016-10-30T11:12:13.000Z</time>
      </trkpt>
      <trkpt lat="47.50885" lon="6.91167">
        <ele>369</ele>
        <time>2016-10-30T11:12:14.000Z</time>
      </trkpt>
      <trkpt lat="47.50886" lon="6.91162">
        <ele>373</ele>
        <time>2016-10-30T11:12:15.000Z</time>
      </trkpt>
      <trkpt lat="47.50887" lon="6.91158">
        <ele>373</ele>
        <time>2016-10-30T11:12:16.000Z</time>
      </trkpt>
      <trkpt lat="47.50887" lon="6.91153">
        <ele>373</ele>
        <time>2016-10-30T11:12:17.000Z</time>
      </trkpt>
      <trkpt lat="47.50887" lon="6.91149">
        <ele>373</ele>
        <time>2016-10-30T11:12:18.000Z</time>
      </trkpt>
      <trkpt lat="47.50887" lon="6.91144">
        <ele>373</ele>
        <time>2016-10-30T11:12:19.000Z</time>
      </trkpt>
      <trkpt lat="47.50887" lon="6.91141">
        <ele>373</ele>
        <time>2016-10-30T11:12:20.000Z</time>
      </trkpt>
      <trkpt lat="47.50887" lon="6.91137">
        <ele>373</ele>
        <time>2016-10-30T11:12:21.000Z</time>
      </trkpt>
      <trkpt lat="47.50886" lon="6.91133">
        <ele>374</ele>
        <time>2016-10-30T11:12:22.000Z</time>
      </trkpt>
      <trkpt lat="47.50886" lon="6.91129">
        <ele>374</ele>
        <time>2016-10-30T11:12:23.000Z</time>
      </trkpt>
      <trkpt lat="47.50885" lon="6.91126">
        <ele>374</ele>
        <time>2016-10-30T11:12:24.000Z</time>
      </trkpt>
      <trkpt lat="47.50885" lon="6.91122">
        <ele>374</ele>
        <time>2016-10-30T11:12:25.000Z</time>
      </trkpt>
      <trkpt lat="47.50884" lon="6.91118">
        <ele>374</ele>
        <time>2016-10-30T11:12:26.000Z</time>
      </trkpt>
      <trkpt lat="47.50884" lon="6.91114">
        <ele>374</ele>
        <time>2016-10-30T11:12:27.000Z</time>
      </trkpt>
      <trkpt lat="47.50883" lon="6.9111">
        <ele>375</ele>
        <time>2016-10-30T11:12:28.000Z</time>
      </trkpt>
      <trkpt lat="47.50883" lon="6.91107">
        <ele>375</ele>
        <time>2016-10-30T11:12:29.000Z</time>
      </trkpt>
      <trkpt lat="47.50883" lon="6.91103">
        <ele>375</ele>
        <time>2016-10-30T11:12:30.000Z</time>
      </trkpt>
      <trkpt lat="47.50883" lon="6.911">
        <ele>375</ele>
        <time>2016-10-30T11:12:31.000Z</time>
      </trkpt>
      <trkpt lat="47.50883" lon="6.91093">
        <ele>375</ele>
        <time>2016-10-30T11:12:33.000Z</time>
      </trkpt>
      <trkpt lat="47.50883" lon="6.9109">
        <ele>375</ele>
        <time>2016-10-30T11:12:34.000Z</time>
      </trkpt>
      <trkpt lat="47.50883" lon="6.91083">
        <ele>375</ele>
        <time>2016-10-30T11:12:36.000Z</time>
      </trkpt>
      <trkpt lat="47.50883" lon="6.9108">
        <ele>379</ele>
        <time>2016-10-30T11:12:37.000Z</time>
      </trkpt>
      <trkpt lat="47.50882" lon="6.91074">
        <ele>379</ele>
        <time>2016-10-30T11:12:39.000Z</time>
      </trkpt>
      <trkpt lat="47.50881" lon="6.91071">
        <ele>379</ele>
        <time>2016-10-30T11:12:40.000Z</time>
      </trkpt>
      <trkpt lat="47.50881" lon="6.91068">
        <ele>379</ele>
        <time>2016-10-30T11:12:41.000Z</time>
      </trkpt>
      <trkpt lat="47.5088" lon="6.91064">
        <ele>379</ele>
        <time>2016-10-30T11:12:42.000Z</time>
      </trkpt>
      <trkpt lat="47.5088" lon="6.91061">
        <ele>379</ele>
        <time>2016-10-30T11:12:43.000Z</time>
      </trkpt>
      <trkpt lat="47.5088" lon="6.91057">
        <ele>379</ele>
        <time>2016-10-30T11:12:44.000Z</time>
      </trkpt>
      <trkpt lat="47.50879" lon="6.91054">
        <ele>379</ele>
        <time>2016-10-30T11:12:45.000Z</time>
      </trkpt>
      <trkpt lat="47.50879" lon="6.9105">
        <ele>379</ele>
        <time>2016-10-30T11:12:46.000Z</time>
      </trkpt>
      <trkpt lat="47.50877" lon="6.91045">
        <ele>379</ele>
        <time>2016-10-30T11:12:48.000Z</time>
      </trkpt>
      <trkpt lat="47.50877" lon="6.91042">
        <ele>380</ele>
        <time>2016-10-30T11:12:49.000Z</time>
      </trkpt>
      <trkpt lat="47.50875" lon="6.91036">
        <ele>380</ele>
        <time>2016-10-30T11:12:51.000Z</time>
      </trkpt>
      <trkpt lat="47.50875" lon="6.91032">
        <ele>380</ele>
        <time>2016-10-30T11:12:52.000Z</time>
      </trkpt>
      <trkpt lat="47.50875" lon="6.91029">
        <ele>380</ele>
        <time>2016-10-30T11:12:53.000Z</time>
      </trkpt>
      <trkpt lat="47.50875" lon="6.91026">
        <ele>380</ele>
        <time>2016-10-30T11:12:54.000Z</time>
      </trkpt>
      <trkpt lat="47.50874" lon="6.91022">
        <ele>380</ele>
        <time>2016-10-30T11:12:55.000Z</time>
      </trkpt>
      <trkpt lat="47.50874" lon="6.91019">
        <ele>380</ele>
        <time>2016-10-30T11:12:56.001Z</time>
      </trkpt>
      <trkpt lat="47.50873" lon="6.91015">
        <ele>380</ele>
        <time>2016-10-30T11:12:57.001Z</time>
      </trkpt>
      <trkpt lat="47.50873" lon="6.91012">
        <ele>380</ele>
        <time>2016-10-30T11:12:58.000Z</time>
      </trkpt>
      <trkpt lat="47.50872" lon="6.91008">
        <ele>380</ele>
        <time>2016-10-30T11:12:59.000Z</time>
      </trkpt>
      <trkpt lat="47.50872" lon="6.91005">
        <ele>380</ele>
        <time>2016-10-30T11:13:00.000Z</time>
      </trkpt>
      <trkpt lat="47.50871" lon="6.90998">
        <ele>383</ele>
        <time>2016-10-30T11:13:02.000Z</time>
      </trkpt>
      <trkpt lat="47.50871" lon="6.90995">
        <ele>383</ele>
        <time>2016-10-30T11:13:03.000Z</time>
      </trkpt>
      <trkpt lat="47.50871" lon="6.90991">
        <ele>383</ele>
        <time>2016-10-30T11:13:04.001Z</time>
      </trkpt>
      <trkpt lat="47.50871" lon="6.90988">
        <ele>383</ele>
        <time>2016-10-30T11:13:05.000Z</time>
      </trkpt>
      <trkpt lat="47.50871" lon="6.90982">
        <ele>383</ele>
        <time>2016-10-30T11:13:06.999Z</time>
      </trkpt>
      <trkpt lat="47.5087" lon="6.9098">
        <ele>383</ele>
        <time>2016-10-30T11:13:08.000Z</time>
      </trkpt>
      <trkpt lat="47.50868" lon="6.90974">
        <ele>383</ele>
        <time>2016-10-30T11:13:10.000Z</time>
      </trkpt>
      <trkpt lat="47.50868" lon="6.90971">
        <ele>383</ele>
        <time>2016-10-30T11:13:11.000Z</time>
      </trkpt>
      <trkpt lat="47.50867" lon="6.90968">
        <ele>383</ele>
        <time>2016-10-30T11:13:12.000Z</time>
      </trkpt>
      <trkpt lat="47.50867" lon="6.90964">
        <ele>383</ele>
        <time>2016-10-30T11:13:13.000Z</time>
      </trkpt>
      <trkpt lat="47.50866" lon="6.90961">
        <ele>383</ele>
        <time>2016-10-30T11:13:13.999Z</time>
      </trkpt>
      <trkpt lat="47.50866" lon="6.90958">
        <ele>383</ele>
        <time>2016-10-30T11:13:15.000Z</time>
      </trkpt>
      <trkpt lat="47.50865" lon="6.90954">
        <ele>383</ele>
        <time>2016-10-30T11:13:16.000Z</time>
      </trkpt>
      <trkpt lat="47.50865" lon="6.90951">
        <ele>383</ele>
        <time>2016-10-30T11:13:17.000Z</time>
      </trkpt>
      <trkpt lat="47.50865" lon="6.90948">
        <ele>384</ele>
        <time>2016-10-30T11:13:18.000Z</time>
      </trkpt>
      <trkpt lat="47.50865" lon="6.90944">
        <ele>384</ele>
        <time>2016-10-30T11:13:19.000Z</time>
      </trkpt>
      <trkpt lat="47.50865" lon="6.90941">
        <ele>384</ele>
        <time>2016-10-30T11:13:20.000Z</time>
      </trkpt>
      <trkpt lat="47.50865" lon="6.90937">
        <ele>384</ele>
        <time>2016-10-30T11:13:21.000Z</time>
      </trkpt>
      <trkpt lat="47.50864" lon="6.90934">
        <ele>384</ele>
        <time>2016-10-30T11:13:22.000Z</time>
      </trkpt>
      <trkpt lat="47.50864" lon="6.9093">
        <ele>384</ele>
        <time>2016-10-30T11:13:23.000Z</time>
      </trkpt>
      <trkpt lat="47.50864" lon="6.90926">
        <ele>384</ele>
        <time>2016-10-30T11:13:24.000Z</time>
      </trkpt>
      <trkpt lat="47.50863" lon="6.90922">
        <ele>384</ele>
        <time>2016-10-30T11:13:25.000Z</time>
      </trkpt>
      <trkpt lat="47.50863" lon="6.90918">
        <ele>384</ele>
        <time>2016-10-30T11:13:26.000Z</time>
      </trkpt>
      <trkpt lat="47.50862" lon="6.90914">
        <ele>386</ele>
        <time>2016-10-30T11:13:27.000Z</time>
      </trkpt>
      <trkpt lat="47.50862" lon="6.9091">
        <ele>386</ele>
        <time>2016-10-30T11:13:28.000Z</time>
      </trkpt>
      <trkpt lat="47.50862" lon="6.90907">
        <ele>386</ele>
        <time>2016-10-30T11:13:29.001Z</time>
      </trkpt>
      <trkpt lat="47.5086" lon="6.90901">
        <ele>386</ele>
        <time>2016-10-30T11:13:31.000Z</time>
      </trkpt>
      <trkpt lat="47.5086" lon="6.90897">
        <ele>386</ele>
        <time>2016-10-30T11:13:32.000Z</time>
      </trkpt>
      <trkpt lat="47.50859" lon="6.90894">
        <ele>386</ele>
        <time>2016-10-30T11:13:33.000Z</time>
      </trkpt>
      <trkpt lat="47.50858" lon="6.9089">
        <ele>386</ele>
        <time>2016-10-30T11:13:34.000Z</time>
      </trkpt>
      <trkpt lat="47.50857" lon="6.90887">
        <ele>386</ele>
        <time>2016-10-30T11:13:35.000Z</time>
      </trkpt>
      <trkpt lat="47.50857" lon="6.90883">
        <ele>386</ele>
        <time>2016-10-30T11:13:36.000Z</time>
      </trkpt>
      <trkpt lat="47.50856" lon="6.9088">
        <ele>386</ele>
        <time>2016-10-30T11:13:37.000Z</time>
      </trkpt>
      <trkpt lat="47.50856" lon="6.90877">
        <ele>386</ele>
        <time>2016-10-30T11:13:38.000Z</time>
      </trkpt>
      <trkpt lat="47.50856" lon="6.9087">
        <ele>387</ele>
        <time>2016-10-30T11:13:40.000Z</time>
      </trkpt>
      <trkpt lat="47.50856" lon="6.90867">
        <ele>387</ele>
        <time>2016-10-30T11:13:41.000Z</time>
      </trkpt>
      <trkpt lat="47.50857" lon="6.90861">
        <ele>387</ele>
        <time>2016-10-30T11:13:43.000Z</time>
      </trkpt>
      <trkpt lat="47.50858" lon="6.90858">
        <ele>387</ele>
        <time>2016-10-30T11:13:44.000Z</time>
      </trkpt>
      <trkpt lat="47.50859" lon="6.90851">
        <ele>387</ele>
        <time>2016-10-30T11:13:46.000Z</time>
      </trkpt>
      <trkpt lat="47.50859" lon="6.90848">
        <ele>387</ele>
        <time>2016-10-30T11:13:47.000Z</time>
      </trkpt>
      <trkpt lat="47.50859" lon="6.90845">
        <ele>387</ele>
        <time>2016-10-30T11:13:48.000Z</time>
      </trkpt>
      <trkpt lat="47.50859" lon="6.90841">
        <ele>387</ele>
        <time>2016-10-30T11:13:49.000Z</time>
      </trkpt>
      <trkpt lat="47.50859" lon="6.90835">
        <ele>387</ele>
        <time>2016-10-30T11:13:51.000Z</time>
      </trkpt>
      <trkpt lat="47.50859" lon="6.90832">
        <ele>389</ele>
        <time>2016-10-30T11:13:52.000Z</time>
      </trkpt>
      <trkpt lat="47.50859" lon="6.90826">
        <ele>389</ele>
        <time>2016-10-30T11:13:54.000Z</time>
      </trkpt>
      <trkpt lat="47.50859" lon="6.90824">
        <ele>389</ele>
        <time>2016-10-30T11:13:55.000Z</time>
      </trkpt>
      <trkpt lat="47.50859" lon="6.90819">
        <ele>389</ele>
        <time>2016-10-30T11:13:57.000Z</time>
      </trkpt>
      <trkpt lat="47.50859" lon="6.90816">
        <ele>389</ele>
        <time>2016-10-30T11:13:58.000Z</time>
      </trkpt>
      <trkpt lat="47.50859" lon="6.90809">
        <ele>390</ele>
        <time>2016-10-30T11:14:00.000Z</time>
      </trkpt>
      <trkpt lat="47.50859" lon="6.90806">
        <ele>390</ele>
        <time>2016-10-30T11:14:01.000Z</time>
      </trkpt>
      <trkpt lat="47.50859" lon="6.908">
        <ele>390</ele>
        <time>2016-10-30T11:14:03.000Z</time>
      </trkpt>
      <trkpt lat="47.5086" lon="6.90798">
        <ele>390</ele>
        <time>2016-10-30T11:14:04.000Z</time>
      </trkpt>
      <trkpt lat="47.50861" lon="6.90792">
        <ele>390</ele>
        <time>2016-10-30T11:14:06.000Z</time>
      </trkpt>
      <trkpt lat="47.50862" lon="6.90789">
        <ele>390</ele>
        <time>2016-10-30T11:14:07.000Z</time>
      </trkpt>
      <trkpt lat="47.50863" lon="6.90785">
        <ele>390</ele>
        <time>2016-10-30T11:14:09.000Z</time>
      </trkpt>
      <trkpt lat="47.50864" lon="6.90782">
        <ele>390</ele>
        <time>2016-10-30T11:14:10.000Z</time>
      </trkpt>
      <trkpt lat="47.50865" lon="6.90777">
        <ele>391</ele>
        <time>2016-10-30T11:14:12.000Z</time>
      </trkpt>
      <trkpt lat="47.50866" lon="6.90774">
        <ele>391</ele>
        <time>2016-10-30T11:14:13.000Z</time>
      </trkpt>
      <trkpt lat="47.50867" lon="6.90767">
        <ele>391</ele>
        <time>2016-10-30T11:14:15.000Z</time>
      </trkpt>
      <trkpt lat="47.50868" lon="6.90764">
        <ele>391</ele>
        <time>2016-10-30T11:14:16.000Z</time>
      </trkpt>
      <trkpt lat="47.50869" lon="6.90758">
        <ele>391</ele>
        <time>2016-10-30T11:14:18.000Z</time>
      </trkpt>
      <trkpt lat="47.5087" lon="6.90756">
        <ele>391</ele>
        <time>2016-10-30T11:14:19.000Z</time>
      </trkpt>
      <trkpt lat="47.50871" lon="6.9075">
        <ele>393</ele>
        <time>2016-10-30T11:14:21.000Z</time>
      </trkpt>
      <trkpt lat="47.50872" lon="6.90747">
        <ele>393</ele>
        <time>2016-10-30T11:14:22.000Z</time>
      </trkpt>
      <trkpt lat="47.50874" lon="6.90742">
        <ele>393</ele>
        <time>2016-10-30T11:14:24.000Z</time>
      </trkpt>
      <trkpt lat="47.50875" lon="6.90739">
        <ele>393</ele>
        <time>2016-10-30T11:14:25.000Z</time>
      </trkpt>
      <trkpt lat="47.50876" lon="6.90736">
        <ele>393</ele>
        <time>2016-10-30T11:14:26.000Z</time>
      </trkpt>
      <trkpt lat="47.50877" lon="6.90733">
        <ele>393</ele>
        <time>2016-10-30T11:14:27.000Z</time>
      </trkpt>
      <trkpt lat="47.50878" lon="6.9073">
        <ele>393</ele>
        <time>2016-10-30T11:14:28.000Z</time>
      </trkpt>
      <trkpt lat="47.50879" lon="6.90727">
        <ele>393</ele>
        <time>2016-10-30T11:14:29.000Z</time>
      </trkpt>
      <trkpt lat="47.5088" lon="6.90724">
        <ele>393</ele>
        <time>2016-10-30T11:14:30.000Z</time>
      </trkpt>
      <trkpt lat="47.50881" lon="6.9072">
        <ele>393</ele>
        <time>2016-10-30T11:14:31.000Z</time>
      </trkpt>
      <trkpt lat="47.50883" lon="6.90715">
        <ele>393</ele>
        <time>2016-10-30T11:14:33.000Z</time>
      </trkpt>
      <trkpt lat="47.50885" lon="6.90713">
        <ele>393</ele>
        <time>2016-10-30T11:14:34.000Z</time>
      </trkpt>
      <trkpt lat="47.50887" lon="6.90708">
        <ele>393</ele>
        <time>2016-10-30T11:14:36.000Z</time>
      </trkpt>
      <trkpt lat="47.50888" lon="6.90706">
        <ele>393</ele>
        <time>2016-10-30T11:14:37.000Z</time>
      </trkpt>
      <trkpt lat="47.5089" lon="6.90702">
        <ele>393</ele>
        <time>2016-10-30T11:14:39.000Z</time>
      </trkpt>
      <trkpt lat="47.50891" lon="6.907">
        <ele>393</ele>
        <time>2016-10-30T11:14:40.000Z</time>
      </trkpt>
      <trkpt lat="47.50892" lon="6.90695">
        <ele>393</ele>
        <time>2016-10-30T11:14:42.000Z</time>
      </trkpt>
      <trkpt lat="47.50893" lon="6.90692">
        <ele>393</ele>
        <time>2016-10-30T11:14:43.000Z</time>
      </trkpt>
      <trkpt lat="47.50894" lon="6.90688">
        <ele>393</ele>
        <time>2016-10-30T11:14:45.000Z</time>
      </trkpt>
      <trkpt lat="47.50894" lon="6.90684">
        <ele>393</ele>
        <time>2016-10-30T11:14:46.000Z</time>
      </trkpt>
      <trkpt lat="47.50895" lon="6.90681">
        <ele>393</ele>
        <time>2016-10-30T11:14:47.000Z</time>
      </trkpt>
      <trkpt lat="47.50895" lon="6.90677">
        <ele>393</ele>
        <time>2016-10-30T11:14:48.000Z</time>
      </trkpt>
      <trkpt lat="47.50896" lon="6.90673">
        <ele>393</ele>
        <time>2016-10-30T11:14:49.000Z</time>
      </trkpt>
      <trkpt lat="47.50897" lon="6.90668">
        <ele>393</ele>
        <time>2016-10-30T11:14:50.000Z</time>
      </trkpt>
      <trkpt lat="47.50898" lon="6.90664">
        <ele>394</ele>
        <time>2016-10-30T11:14:51.000Z</time>
      </trkpt>
      <trkpt lat="47.50899" lon="6.90658">
        <ele>394</ele>
        <time>2016-10-30T11:14:52.000Z</time>
      </trkpt>
      <trkpt lat="47.50901" lon="6.90652">
        <ele>394</ele>
        <time>2016-10-30T11:14:53.000Z</time>
      </trkpt>
      <trkpt lat="47.50902" lon="6.90646">
        <ele>394</ele>
        <time>2016-10-30T11:14:54.000Z</time>
      </trkpt>
      <trkpt lat="47.50905" lon="6.90639">
        <ele>394</ele>
        <time>2016-10-30T11:14:55.000Z</time>
      </trkpt>
      <trkpt lat="47.50907" lon="6.90631">
        <ele>394</ele>
        <time>2016-10-30T11:14:56.000Z</time>
      </trkpt>
      <trkpt lat="47.50908" lon="6.90624">
        <ele>395</ele>
        <time>2016-10-30T11:14:57.000Z</time>
      </trkpt>
      <trkpt lat="47.5091" lon="6.90618">
        <ele>395</ele>
        <time>2016-10-30T11:14:58.000Z</time>
      </trkpt>
      <trkpt lat="47.50911" lon="6.90611">
        <ele>395</ele>
        <time>2016-10-30T11:14:59.000Z</time>
      </trkpt>
      <trkpt lat="47.5091" lon="6.90606">
        <ele>395</ele>
        <time>2016-10-30T11:15:00.000Z</time>
      </trkpt>
      <trkpt lat="47.50909" lon="6.906">
        <ele>395</ele>
        <time>2016-10-30T11:15:01.000Z</time>
      </trkpt>
      <trkpt lat="47.50907" lon="6.90596">
        <ele>395</ele>
        <time>2016-10-30T11:15:02.000Z</time>
      </trkpt>
      <trkpt lat="47.50905" lon="6.90592">
        <ele>395</ele>
        <time>2016-10-30T11:15:03.000Z</time>
      </trkpt>
      <trkpt lat="47.50904" lon="6.90587">
        <ele>395</ele>
        <time>2016-10-30T11:15:04.000Z</time>
      </trkpt>
      <trkpt lat="47.50902" lon="6.90583">
        <ele>396</ele>
        <time>2016-10-30T11:15:05.000Z</time>
      </trkpt>
      <trkpt lat="47.50902" lon="6.90577">
        <ele>396</ele>
        <time>2016-10-30T11:15:06.000Z</time>
      </trkpt>
      <trkpt lat="47.50903" lon="6.90571">
        <ele>396</ele>
        <time>2016-10-30T11:15:07.000Z</time>
      </trkpt>
      <trkpt lat="47.50907" lon="6.90559">
        <ele>396</ele>
        <time>2016-10-30T11:15:08.000Z</time>
      </trkpt>
      <trkpt lat="47.50908" lon="6.90551">
        <ele>396</ele>
        <time>2016-10-30T11:15:08.999Z</time>
      </trkpt>
      <trkpt lat="47.50909" lon="6.90543">
        <ele>396</ele>
        <time>2016-10-30T11:15:10.000Z</time>
      </trkpt>
      <trkpt lat="47.50909" lon="6.90535">
        <ele>396</ele>
        <time>2016-10-30T11:15:11.000Z</time>
      </trkpt>
      <trkpt lat="47.50911" lon="6.90528">
        <ele>396</ele>
        <time>2016-10-30T11:15:12.000Z</time>
      </trkpt>
      <trkpt lat="47.50912" lon="6.90521">
        <ele>396</ele>
        <time>2016-10-30T11:15:13.000Z</time>
      </trkpt>
      <trkpt lat="47.50914" lon="6.90514">
        <ele>396</ele>
        <time>2016-10-30T11:15:14.000Z</time>
      </trkpt>
      <trkpt lat="47.50915" lon="6.90506">
        <ele>395</ele>
        <time>2016-10-30T11:15:15.000Z</time>
      </trkpt>
      <trkpt lat="47.50916" lon="6.90498">
        <ele>395</ele>
        <time>2016-10-30T11:15:16.000Z</time>
      </trkpt>
      <trkpt lat="47.50917" lon="6.90491">
        <ele>395</ele>
        <time>2016-10-30T11:15:17.000Z</time>
      </trkpt>
      <trkpt lat="47.50917" lon="6.90484">
        <ele>396</ele>
        <time>2016-10-30T11:15:17.999Z</time>
      </trkpt>
      <trkpt lat="47.50919" lon="6.90476">
        <ele>396</ele>
        <time>2016-10-30T11:15:19.000Z</time>
      </trkpt>
      <trkpt lat="47.50922" lon="6.90467">
        <ele>396</ele>
        <time>2016-10-30T11:15:20.000Z</time>
      </trkpt>
      <trkpt lat="47.50924" lon="6.90458">
        <ele>396</ele>
        <time>2016-10-30T11:15:21.000Z</time>
      </trkpt>
      <trkpt lat="47.50926" lon="6.9045">
        <ele>397</ele>
        <time>2016-10-30T11:15:22.000Z</time>
      </trkpt>
      <trkpt lat="47.50927" lon="6.90441">
        <ele>397</ele>
        <time>2016-10-30T11:15:23.000Z</time>
      </trkpt>
      <trkpt lat="47.50929" lon="6.90433">
        <ele>397</ele>
        <time>2016-10-30T11:15:24.000Z</time>
      </trkpt>
      <trkpt lat="47.50931" lon="6.90426">
        <ele>397</ele>
        <time>2016-10-30T11:15:25.000Z</time>
      </trkpt>
      <trkpt lat="47.50934" lon="6.90418">
        <ele>397</ele>
        <time>2016-10-30T11:15:26.000Z</time>
      </trkpt>
      <trkpt lat="47.50937" lon="6.90411">
        <ele>399</ele>
        <time>2016-10-30T11:15:27.000Z</time>
      </trkpt>
      <trkpt lat="47.50939" lon="6.90404">
        <ele>399</ele>
        <time>2016-10-30T11:15:28.000Z</time>
      </trkpt>
      <trkpt lat="47.5094" lon="6.904">
        <ele>399</ele>
        <time>2016-10-30T11:15:29.000Z</time>
      </trkpt>
      <trkpt lat="47.50942" lon="6.90395">
        <ele>399</ele>
        <time>2016-10-30T11:15:30.000Z</time>
      </trkpt>
      <trkpt lat="47.50944" lon="6.9039">
        <ele>399</ele>
        <time>2016-10-30T11:15:31.000Z</time>
      </trkpt>
      <trkpt lat="47.50946" lon="6.90384">
        <ele>399</ele>
        <time>2016-10-30T11:15:32.000Z</time>
      </trkpt>
      <trkpt lat="47.50949" lon="6.90379">
        <ele>400</ele>
        <time>2016-10-30T11:15:33.000Z</time>
      </trkpt>
      <trkpt lat="47.50951" lon="6.90375">
        <ele>400</ele>
        <time>2016-10-30T11:15:33.998Z</time>
      </trkpt>
      <trkpt lat="47.50952" lon="6.90371">
        <ele>400</ele>
        <time>2016-10-30T11:15:35.000Z</time>
      </trkpt>
      <trkpt lat="47.50954" lon="6.90366">
        <ele>400</ele>
        <time>2016-10-30T11:15:36.000Z</time>
      </trkpt>
      <trkpt lat="47.50955" lon="6.90362">
        <ele>400</ele>
        <time>2016-10-30T11:15:37.000Z</time>
      </trkpt>
      <trkpt lat="47.50957" lon="6.90359">
        <ele>400</ele>
        <time>2016-10-30T11:15:38.000Z</time>
      </trkpt>
      <trkpt lat="47.50959" lon="6.90356">
        <ele>400</ele>
        <time>2016-10-30T11:15:39.000Z</time>
      </trkpt>
      <trkpt lat="47.50961" lon="6.90354">
        <ele>400</ele>
        <time>2016-10-30T11:15:40.000Z</time>
      </trkpt>
      <trkpt lat="47.50963" lon="6.90349">
        <ele>400</ele>
        <time>2016-10-30T11:15:42.000Z</time>
      </trkpt>
      <trkpt lat="47.50965" lon="6.90346">
        <ele>400</ele>
        <time>2016-10-30T11:15:43.000Z</time>
      </trkpt>
      <trkpt lat="47.50966" lon="6.90343">
        <ele>400</ele>
        <time>2016-10-30T11:15:44.000Z</time>
      </trkpt>
      <trkpt lat="47.50967" lon="6.9034">
        <ele>400</ele>
        <time>2016-10-30T11:15:45.000Z</time>
      </trkpt>
      <trkpt lat="47.5097" lon="6.90336">
        <ele>401</ele>
        <time>2016-10-30T11:15:47.000Z</time>
      </trkpt>
      <trkpt lat="47.50971" lon="6.90333">
        <ele>401</ele>
        <time>2016-10-30T11:15:48.000Z</time>
      </trkpt>
      <trkpt lat="47.50973" lon="6.90331">
        <ele>401</ele>
        <time>2016-10-30T11:15:49.000Z</time>
      </trkpt>
      <trkpt lat="47.50974" lon="6.90328">
        <ele>401</ele>
        <time>2016-10-30T11:15:50.000Z</time>
      </trkpt>
      <trkpt lat="47.50976" lon="6.90325">
        <ele>401</ele>
        <time>2016-10-30T11:15:51.000Z</time>
      </trkpt>
      <trkpt lat="47.50977" lon="6.90322">
        <ele>401</ele>
        <time>2016-10-30T11:15:52.000Z</time>
      </trkpt>
      <trkpt lat="47.50979" lon="6.90319">
        <ele>401</ele>
        <time>2016-10-30T11:15:53.000Z</time>
      </trkpt>
      <trkpt lat="47.5098" lon="6.90316">
        <ele>401</ele>
        <time>2016-10-30T11:15:54.000Z</time>
      </trkpt>
      <trkpt lat="47.50982" lon="6.90313">
        <ele>401</ele>
        <time>2016-10-30T11:15:55.000Z</time>
      </trkpt>
      <trkpt lat="47.50983" lon="6.9031">
        <ele>401</ele>
        <time>2016-10-30T11:15:56.000Z</time>
      </trkpt>
      <trkpt lat="47.50985" lon="6.90307">
        <ele>401</ele>
        <time>2016-10-30T11:15:57.000Z</time>
      </trkpt>
      <trkpt lat="47.50986" lon="6.90304">
        <ele>401</ele>
        <time>2016-10-30T11:15:58.000Z</time>
      </trkpt>
      <trkpt lat="47.50988" lon="6.90301">
        <ele>401</ele>
        <time>2016-10-30T11:15:59.000Z</time>
      </trkpt>
      <trkpt lat="47.50989" lon="6.90298">
        <ele>401</ele>
        <time>2016-10-30T11:16:00.000Z</time>
      </trkpt>
      <trkpt lat="47.5099" lon="6.90295">
        <ele>401</ele>
        <time>2016-10-30T11:16:01.000Z</time>
      </trkpt>
      <trkpt lat="47.50992" lon="6.90292">
        <ele>401</ele>
        <time>2016-10-30T11:16:02.000Z</time>
      </trkpt>
      <trkpt lat="47.50993" lon="6.90289">
        <ele>401</ele>
        <time>2016-10-30T11:16:03.000Z</time>
      </trkpt>
      <trkpt lat="47.50994" lon="6.90285">
        <ele>401</ele>
        <time>2016-10-30T11:16:04.000Z</time>
      </trkpt>
      <trkpt lat="47.50995" lon="6.90281">
        <ele>401</ele>
        <time>2016-10-30T11:16:05.000Z</time>
      </trkpt>
      <trkpt lat="47.50997" lon="6.90278">
        <ele>401</ele>
        <time>2016-10-30T11:16:06.000Z</time>
      </trkpt>
      <trkpt lat="47.50998" lon="6.90275">
        <ele>401</ele>
        <time>2016-10-30T11:16:07.000Z</time>
      </trkpt>
      <trkpt lat="47.51" lon="6.90273">
        <ele>401</ele>
        <time>2016-10-30T11:16:08.000Z</time>
      </trkpt>
      <trkpt lat="47.51001" lon="6.9027">
        <ele>404</ele>
        <time>2016-10-30T11:16:09.000Z</time>
      </trkpt>
      <trkpt lat="47.51003" lon="6.90267">
        <ele>404</ele>
        <time>2016-10-30T11:16:10.000Z</time>
      </trkpt>
      <trkpt lat="47.51004" lon="6.90264">
        <ele>404</ele>
        <time>2016-10-30T11:16:11.000Z</time>
      </trkpt>
      <trkpt lat="47.51006" lon="6.9026">
        <ele>403</ele>
        <time>2016-10-30T11:16:12.000Z</time>
      </trkpt>
      <trkpt lat="47.51007" lon="6.90257">
        <ele>403</ele>
        <time>2016-10-30T11:16:13.000Z</time>
      </trkpt>
      <trkpt lat="47.51009" lon="6.90255">
        <ele>403</ele>
        <time>2016-10-30T11:16:14.000Z</time>
      </trkpt>
      <trkpt lat="47.51011" lon="6.90252">
        <ele>403</ele>
        <time>2016-10-30T11:16:15.000Z</time>
      </trkpt>
      <trkpt lat="47.51013" lon="6.90249">
        <ele>403</ele>
        <time>2016-10-30T11:16:16.000Z</time>
      </trkpt>
      <trkpt lat="47.51015" lon="6.90246">
        <ele>403</ele>
        <time>2016-10-30T11:16:17.000Z</time>
      </trkpt>
      <trkpt lat="47.51016" lon="6.90243">
        <ele>403</ele>
        <time>2016-10-30T11:16:17.998Z</time>
      </trkpt>
      <trkpt lat="47.51018" lon="6.9024">
        <ele>404</ele>
        <time>2016-10-30T11:16:19.000Z</time>
      </trkpt>
      <trkpt lat="47.51019" lon="6.90237">
        <ele>404</ele>
        <time>2016-10-30T11:16:20.000Z</time>
      </trkpt>
      <trkpt lat="47.51021" lon="6.90234">
        <ele>404</ele>
        <time>2016-10-30T11:16:21.000Z</time>
      </trkpt>
      <trkpt lat="47.51022" lon="6.90232">
        <ele>404</ele>
        <time>2016-10-30T11:16:22.000Z</time>
      </trkpt>
      <trkpt lat="47.51024" lon="6.90229">
        <ele>404</ele>
        <time>2016-10-30T11:16:23.000Z</time>
      </trkpt>
      <trkpt lat="47.51026" lon="6.90226">
        <ele>404</ele>
        <time>2016-10-30T11:16:24.000Z</time>
      </trkpt>
      <trkpt lat="47.51028" lon="6.90224">
        <ele>404</ele>
        <time>2016-10-30T11:16:24.999Z</time>
      </trkpt>
      <trkpt lat="47.51029" lon="6.90221">
        <ele>404</ele>
        <time>2016-10-30T11:16:26.000Z</time>
      </trkpt>
      <trkpt lat="47.51031" lon="6.90218">
        <ele>404</ele>
        <time>2016-10-30T11:16:27.000Z</time>
      </trkpt>
      <trkpt lat="47.51033" lon="6.90215">
        <ele>404</ele>
        <time>2016-10-30T11:16:28.000Z</time>
      </trkpt>
      <trkpt lat="47.51034" lon="6.90212">
        <ele>404</ele>
        <time>2016-10-30T11:16:29.000Z</time>
      </trkpt>
      <trkpt lat="47.51036" lon="6.90208">
        <ele>404</ele>
        <time>2016-10-30T11:16:30.000Z</time>
      </trkpt>
      <trkpt lat="47.51037" lon="6.90205">
        <ele>404</ele>
        <time>2016-10-30T11:16:31.000Z</time>
      </trkpt>
      <trkpt lat="47.51038" lon="6.90201">
        <ele>404</ele>
        <time>2016-10-30T11:16:32.000Z</time>
      </trkpt>
      <trkpt lat="47.5104" lon="6.90198">
        <ele>404</ele>
        <time>2016-10-30T11:16:33.000Z</time>
      </trkpt>
      <trkpt lat="47.51041" lon="6.90195">
        <ele>404</ele>
        <time>2016-10-30T11:16:34.000Z</time>
      </trkpt>
      <trkpt lat="47.51043" lon="6.90191">
        <ele>404</ele>
        <time>2016-10-30T11:16:34.999Z</time>
      </trkpt>
      <trkpt lat="47.51044" lon="6.90187">
        <ele>404</ele>
        <time>2016-10-30T11:16:36.000Z</time>
      </trkpt>
      <trkpt lat="47.51045" lon="6.90183">
        <ele>404</ele>
        <time>2016-10-30T11:16:37.000Z</time>
      </trkpt>
      <trkpt lat="47.51046" lon="6.90179">
        <ele>404</ele>
        <time>2016-10-30T11:16:38.000Z</time>
      </trkpt>
      <trkpt lat="47.51048" lon="6.90176">
        <ele>404</ele>
        <time>2016-10-30T11:16:39.000Z</time>
      </trkpt>
      <trkpt lat="47.51049" lon="6.90173">
        <ele>404</ele>
        <time>2016-10-30T11:16:40.000Z</time>
      </trkpt>
      <trkpt lat="47.51051" lon="6.9017">
        <ele>405</ele>
        <time>2016-10-30T11:16:41.000Z</time>
      </trkpt>
      <trkpt lat="47.51052" lon="6.90167">
        <ele>405</ele>
        <time>2016-10-30T11:16:41.999Z</time>
      </trkpt>
      <trkpt lat="47.51053" lon="6.90164">
        <ele>404</ele>
        <time>2016-10-30T11:16:43.000Z</time>
      </trkpt>
      <trkpt lat="47.51054" lon="6.90161">
        <ele>404</ele>
        <time>2016-10-30T11:16:44.000Z</time>
      </trkpt>
      <trkpt lat="47.51056" lon="6.90158">
        <ele>404</ele>
        <time>2016-10-30T11:16:45.000Z</time>
      </trkpt>
      <trkpt lat="47.51057" lon="6.90155">
        <ele>404</ele>
        <time>2016-10-30T11:16:46.000Z</time>
      </trkpt>
      <trkpt lat="47.51059" lon="6.90151">
        <ele>404</ele>
        <time>2016-10-30T11:16:47.000Z</time>
      </trkpt>
      <trkpt lat="47.51061" lon="6.90147">
        <ele>404</ele>
        <time>2016-10-30T11:16:48.000Z</time>
      </trkpt>
      <trkpt lat="47.51062" lon="6.90143">
        <ele>404</ele>
        <time>2016-10-30T11:16:49.000Z</time>
      </trkpt>
      <trkpt lat="47.51063" lon="6.90139">
        <ele>404</ele>
        <time>2016-10-30T11:16:50.000Z</time>
      </trkpt>
      <trkpt lat="47.51064" lon="6.90134">
        <ele>403</ele>
        <time>2016-10-30T11:16:51.000Z</time>
      </trkpt>
      <trkpt lat="47.51066" lon="6.9013">
        <ele>403</ele>
        <time>2016-10-30T11:16:52.000Z</time>
      </trkpt>
      <trkpt lat="47.51067" lon="6.90125">
        <ele>403</ele>
        <time>2016-10-30T11:16:53.000Z</time>
      </trkpt>
      <trkpt lat="47.51068" lon="6.90121">
        <ele>403</ele>
        <time>2016-10-30T11:16:54.000Z</time>
      </trkpt>
      <trkpt lat="47.5107" lon="6.90116">
        <ele>403</ele>
        <time>2016-10-30T11:16:55.000Z</time>
      </trkpt>
      <trkpt lat="47.51071" lon="6.90111">
        <ele>403</ele>
        <time>2016-10-30T11:16:56.000Z</time>
      </trkpt>
      <trkpt lat="47.51072" lon="6.90106">
        <ele>403</ele>
        <time>2016-10-30T11:16:57.000Z</time>
      </trkpt>
      <trkpt lat="47.51073" lon="6.90101">
        <ele>403</ele>
        <time>2016-10-30T11:16:58.000Z</time>
      </trkpt>
      <trkpt lat="47.51074" lon="6.90097">
        <ele>403</ele>
        <time>2016-10-30T11:16:59.000Z</time>
      </trkpt>
      <trkpt lat="47.51076" lon="6.90092">
        <ele>404</ele>
        <time>2016-10-30T11:17:00.000Z</time>
      </trkpt>
      <trkpt lat="47.51077" lon="6.90087">
        <ele>404</ele>
        <time>2016-10-30T11:17:01.000Z</time>
      </trkpt>
      <trkpt lat="47.51078" lon="6.90083">
        <ele>404</ele>
        <time>2016-10-30T11:17:02.000Z</time>
      </trkpt>
      <trkpt lat="47.51079" lon="6.90078">
        <ele>404</ele>
        <time>2016-10-30T11:17:03.000Z</time>
      </trkpt>
      <trkpt lat="47.51081" lon="6.90074">
        <ele>404</ele>
        <time>2016-10-30T11:17:04.000Z</time>
      </trkpt>
      <trkpt lat="47.51082" lon="6.90069">
        <ele>404</ele>
        <time>2016-10-30T11:17:05.000Z</time>
      </trkpt>
      <trkpt lat="47.51083" lon="6.90065">
        <ele>404</ele>
        <time>2016-10-30T11:17:06.000Z</time>
      </trkpt>
      <trkpt lat="47.51084" lon="6.9006">
        <ele>405</ele>
        <time>2016-10-30T11:17:07.000Z</time>
      </trkpt>
      <trkpt lat="47.51085" lon="6.90056">
        <ele>405</ele>
        <time>2016-10-30T11:17:08.000Z</time>
      </trkpt>
      <trkpt lat="47.51086" lon="6.90051">
        <ele>405</ele>
        <time>2016-10-30T11:17:09.000Z</time>
      </trkpt>
      <trkpt lat="47.51087" lon="6.90046">
        <ele>405</ele>
        <time>2016-10-30T11:17:10.000Z</time>
      </trkpt>
      <trkpt lat="47.51089" lon="6.90041">
        <ele>405</ele>
        <time>2016-10-30T11:17:11.000Z</time>
      </trkpt>
      <trkpt lat="47.5109" lon="6.90036">
        <ele>405</ele>
        <time>2016-10-30T11:17:12.000Z</time>
      </trkpt>
      <trkpt lat="47.51091" lon="6.90031">
        <ele>405</ele>
        <time>2016-10-30T11:17:13.000Z</time>
      </trkpt>
      <trkpt lat="47.51092" lon="6.90026">
        <ele>406</ele>
        <time>2016-10-30T11:17:14.000Z</time>
      </trkpt>
      <trkpt lat="47.51093" lon="6.90021">
        <ele>406</ele>
        <time>2016-10-30T11:17:15.000Z</time>
      </trkpt>
      <trkpt lat="47.51094" lon="6.90016">
        <ele>406</ele>
        <time>2016-10-30T11:17:16.000Z</time>
      </trkpt>
      <trkpt lat="47.51095" lon="6.90011">
        <ele>406</ele>
        <time>2016-10-30T11:17:17.000Z</time>
      </trkpt>
      <trkpt lat="47.51097" lon="6.90005">
        <ele>406</ele>
        <time>2016-10-30T11:17:18.000Z</time>
      </trkpt>
      <trkpt lat="47.51098" lon="6.9">
        <ele>406</ele>
        <time>2016-10-30T11:17:19.000Z</time>
      </trkpt>
      <trkpt lat="47.511" lon="6.89995">
        <ele>406</ele>
        <time>2016-10-30T11:17:20.000Z</time>
      </trkpt>
      <trkpt lat="47.51101" lon="6.8999">
        <ele>406</ele>
        <time>2016-10-30T11:17:21.000Z</time>
      </trkpt>
      <trkpt lat="47.51102" lon="6.89985">
        <ele>406</ele>
        <time>2016-10-30T11:17:22.000Z</time>
      </trkpt>
      <trkpt lat="47.51104" lon="6.8998">
        <ele>406</ele>
        <time>2016-10-30T11:17:23.000Z</time>
      </trkpt>
      <trkpt lat="47.51105" lon="6.89974">
        <ele>406</ele>
        <time>2016-10-30T11:17:24.000Z</time>
      </trkpt>
      <trkpt lat="47.51106" lon="6.89969">
        <ele>406</ele>
        <time>2016-10-30T11:17:25.000Z</time>
      </trkpt>
      <trkpt lat="47.51108" lon="6.89964">
        <ele>406</ele>
        <time>2016-10-30T11:17:26.000Z</time>
      </trkpt>
      <trkpt lat="47.5111" lon="6.89958">
        <ele>406</ele>
        <time>2016-10-30T11:17:27.000Z</time>
      </trkpt>
      <trkpt lat="47.51111" lon="6.89952">
        <ele>406</ele>
        <time>2016-10-30T11:17:28.000Z</time>
      </trkpt>
      <trkpt lat="47.51113" lon="6.89947">
        <ele>406</ele>
        <time>2016-10-30T11:17:29.000Z</time>
      </trkpt>
      <trkpt lat="47.51115" lon="6.89941">
        <ele>406</ele>
        <time>2016-10-30T11:17:30.000Z</time>
      </trkpt>
      <trkpt lat="47.51116" lon="6.89936">
        <ele>406</ele>
        <time>2016-10-30T11:17:31.000Z</time>
      </trkpt>
      <trkpt lat="47.51118" lon="6.8993">
        <ele>406</ele>
        <time>2016-10-30T11:17:32.000Z</time>
      </trkpt>
      <trkpt lat="47.51119" lon="6.89924">
        <ele>406</ele>
        <time>2016-10-30T11:17:33.000Z</time>
      </trkpt>
      <trkpt lat="47.51121" lon="6.89919">
        <ele>406</ele>
        <time>2016-10-30T11:17:34.000Z</time>
      </trkpt>
      <trkpt lat="47.51122" lon="6.89913">
        <ele>405</ele>
        <time>2016-10-30T11:17:35.000Z</time>
      </trkpt>
      <trkpt lat="47.51124" lon="6.89907">
        <ele>405</ele>
        <time>2016-10-30T11:17:36.000Z</time>
      </trkpt>
      <trkpt lat="47.51125" lon="6.89901">
        <ele>405</ele>
        <time>2016-10-30T11:17:37.000Z</time>
      </trkpt>
      <trkpt lat="47.51127" lon="6.89895">
        <ele>405</ele>
        <time>2016-10-30T11:17:38.000Z</time>
      </trkpt>
      <trkpt lat="47.51129" lon="6.89889">
        <ele>405</ele>
        <time>2016-10-30T11:17:39.000Z</time>
      </trkpt>
      <trkpt lat="47.5113" lon="6.89883">
        <ele>405</ele>
        <time>2016-10-30T11:17:40.000Z</time>
      </trkpt>
      <trkpt lat="47.51132" lon="6.89876">
        <ele>405</ele>
        <time>2016-10-30T11:17:41.000Z</time>
      </trkpt>
      <trkpt lat="47.51134" lon="6.8987">
        <ele>405</ele>
        <time>2016-10-30T11:17:42.000Z</time>
      </trkpt>
      <trkpt lat="47.51136" lon="6.89863">
        <ele>405</ele>
        <time>2016-10-30T11:17:43.000Z</time>
      </trkpt>
      <trkpt lat="47.51137" lon="6.89857">
        <ele>405</ele>
        <time>2016-10-30T11:17:44.000Z</time>
      </trkpt>
      <trkpt lat="47.51139" lon="6.8985">
        <ele>405</ele>
        <time>2016-10-30T11:17:45.000Z</time>
      </trkpt>
      <trkpt lat="47.51141" lon="6.89844">
        <ele>405</ele>
        <time>2016-10-30T11:17:46.000Z</time>
      </trkpt>
      <trkpt lat="47.51143" lon="6.89837">
        <ele>405</ele>
        <time>2016-10-30T11:17:47.000Z</time>
      </trkpt>
      <trkpt lat="47.51144" lon="6.8983">
        <ele>405</ele>
        <time>2016-10-30T11:17:48.000Z</time>
      </trkpt>
      <trkpt lat="47.51146" lon="6.89823">
        <ele>405</ele>
        <time>2016-10-30T11:17:49.000Z</time>
      </trkpt>
      <trkpt lat="47.51148" lon="6.89816">
        <ele>405</ele>
        <time>2016-10-30T11:17:50.000Z</time>
      </trkpt>
      <trkpt lat="47.5115" lon="6.89809">
        <ele>405</ele>
        <time>2016-10-30T11:17:51.000Z</time>
      </trkpt>
      <trkpt lat="47.51151" lon="6.89802">
        <ele>405</ele>
        <time>2016-10-30T11:17:52.000Z</time>
      </trkpt>
      <trkpt lat="47.51152" lon="6.89795">
        <ele>405</ele>
        <time>2016-10-30T11:17:53.000Z</time>
      </trkpt>
      <trkpt lat="47.51154" lon="6.89787">
        <ele>405</ele>
        <time>2016-10-30T11:17:54.000Z</time>
      </trkpt>
      <trkpt lat="47.51155" lon="6.89781">
        <ele>405</ele>
        <time>2016-10-30T11:17:55.000Z</time>
      </trkpt>
      <trkpt lat="47.51157" lon="6.89775">
        <ele>405</ele>
        <time>2016-10-30T11:17:56.000Z</time>
      </trkpt>
      <trkpt lat="47.51159" lon="6.89767">
        <ele>405</ele>
        <time>2016-10-30T11:17:57.000Z</time>
      </trkpt>
      <trkpt lat="47.51161" lon="6.89761">
        <ele>405</ele>
        <time>2016-10-30T11:17:58.000Z</time>
      </trkpt>
      <trkpt lat="47.51162" lon="6.89755">
        <ele>405</ele>
        <time>2016-10-30T11:17:59.000Z</time>
      </trkpt>
      <trkpt lat="47.51164" lon="6.8975">
        <ele>405</ele>
        <time>2016-10-30T11:18:00.000Z</time>
      </trkpt>
      <trkpt lat="47.51165" lon="6.89744">
        <ele>405</ele>
        <time>2016-10-30T11:18:01.000Z</time>
      </trkpt>
      <trkpt lat="47.51166" lon="6.89739">
        <ele>405</ele>
        <time>2016-10-30T11:18:02.000Z</time>
      </trkpt>
      <trkpt lat="47.51168" lon="6.89733">
        <ele>405</ele>
        <time>2016-10-30T11:18:03.000Z</time>
      </trkpt>
      <trkpt lat="47.51169" lon="6.89727">
        <ele>405</ele>
        <time>2016-10-30T11:18:04.000Z</time>
      </trkpt>
      <trkpt lat="47.5117" lon="6.89721">
        <ele>405</ele>
        <time>2016-10-30T11:18:05.000Z</time>
      </trkpt>
      <trkpt lat="47.51171" lon="6.89716">
        <ele>405</ele>
        <time>2016-10-30T11:18:06.000Z</time>
      </trkpt>
      <trkpt lat="47.51171" lon="6.89711">
        <ele>405</ele>
        <time>2016-10-30T11:18:07.000Z</time>
      </trkpt>
      <trkpt lat="47.51172" lon="6.89705">
        <ele>405</ele>
        <time>2016-10-30T11:18:08.000Z</time>
      </trkpt>
      <trkpt lat="47.51173" lon="6.89699">
        <ele>405</ele>
        <time>2016-10-30T11:18:09.000Z</time>
      </trkpt>
      <trkpt lat="47.51174" lon="6.89693">
        <ele>405</ele>
        <time>2016-10-30T11:18:10.000Z</time>
      </trkpt>
      <trkpt lat="47.51175" lon="6.89687">
        <ele>405</ele>
        <time>2016-10-30T11:18:11.000Z</time>
      </trkpt>
      <trkpt lat="47.51177" lon="6.89681">
        <ele>405</ele>
        <time>2016-10-30T11:18:12.000Z</time>
      </trkpt>
      <trkpt lat="47.51178" lon="6.89675">
        <ele>405</ele>
        <time>2016-10-30T11:18:13.000Z</time>
      </trkpt>
      <trkpt lat="47.51179" lon="6.89669">
        <ele>405</ele>
        <time>2016-10-30T11:18:14.000Z</time>
      </trkpt>
      <trkpt lat="47.5118" lon="6.89663">
        <ele>405</ele>
        <time>2016-10-30T11:18:15.000Z</time>
      </trkpt>
      <trkpt lat="47.51181" lon="6.89657">
        <ele>405</ele>
        <time>2016-10-30T11:18:16.000Z</time>
      </trkpt>
      <trkpt lat="47.51182" lon="6.8965">
        <ele>405</ele>
        <time>2016-10-30T11:18:17.000Z</time>
      </trkpt>
      <trkpt lat="47.51183" lon="6.89644">
        <ele>405</ele>
        <time>2016-10-30T11:18:18.000Z</time>
      </trkpt>
      <trkpt lat="47.51183" lon="6.89638">
        <ele>405</ele>
        <time>2016-10-30T11:18:19.000Z</time>
      </trkpt>
      <trkpt lat="47.51184" lon="6.89632">
        <ele>405</ele>
        <time>2016-10-30T11:18:20.000Z</time>
      </trkpt>
      <trkpt lat="47.51185" lon="6.89626">
        <ele>405</ele>
        <time>2016-10-30T11:18:21.000Z</time>
      </trkpt>
      <trkpt lat="47.51185" lon="6.8962">
        <ele>405</ele>
        <time>2016-10-30T11:18:22.000Z</time>
      </trkpt>
      <trkpt lat="47.51186" lon="6.89614">
        <ele>405</ele>
        <time>2016-10-30T11:18:23.000Z</time>
      </trkpt>
      <trkpt lat="47.51186" lon="6.89608">
        <ele>405</ele>
        <time>2016-10-30T11:18:24.000Z</time>
      </trkpt>
      <trkpt lat="47.51187" lon="6.89603">
        <ele>405</ele>
        <time>2016-10-30T11:18:25.000Z</time>
      </trkpt>
      <trkpt lat="47.51187" lon="6.89597">
        <ele>405</ele>
        <time>2016-10-30T11:18:26.000Z</time>
      </trkpt>
      <trkpt lat="47.51188" lon="6.89592">
        <ele>405</ele>
        <time>2016-10-30T11:18:27.000Z</time>
      </trkpt>
      <trkpt lat="47.51188" lon="6.89587">
        <ele>405</ele>
        <time>2016-10-30T11:18:28.000Z</time>
      </trkpt>
      <trkpt lat="47.51188" lon="6.89581">
        <ele>406</ele>
        <time>2016-10-30T11:18:29.000Z</time>
      </trkpt>
      <trkpt lat="47.51189" lon="6.89576">
        <ele>406</ele>
        <time>2016-10-30T11:18:30.000Z</time>
      </trkpt>
      <trkpt lat="47.5119" lon="6.89571">
        <ele>406</ele>
        <time>2016-10-30T11:18:31.000Z</time>
      </trkpt>
      <trkpt lat="47.51191" lon="6.89566">
        <ele>406</ele>
        <time>2016-10-30T11:18:32.000Z</time>
      </trkpt>
      <trkpt lat="47.51191" lon="6.8956">
        <ele>406</ele>
        <time>2016-10-30T11:18:33.000Z</time>
      </trkpt>
      <trkpt lat="47.51192" lon="6.89555">
        <ele>406</ele>
        <time>2016-10-30T11:18:34.000Z</time>
      </trkpt>
      <trkpt lat="47.51193" lon="6.89549">
        <ele>406</ele>
        <time>2016-10-30T11:18:35.000Z</time>
      </trkpt>
      <trkpt lat="47.51193" lon="6.89544">
        <ele>406</ele>
        <time>2016-10-30T11:18:36.000Z</time>
      </trkpt>
      <trkpt lat="47.51194" lon="6.89538">
        <ele>406</ele>
        <time>2016-10-30T11:18:37.000Z</time>
      </trkpt>
      <trkpt lat="47.51195" lon="6.89532">
        <ele>406</ele>
        <time>2016-10-30T11:18:38.000Z</time>
      </trkpt>
      <trkpt lat="47.51195" lon="6.89526">
        <ele>406</ele>
        <time>2016-10-30T11:18:39.000Z</time>
      </trkpt>
      <trkpt lat="47.51196" lon="6.89521">
        <ele>406</ele>
        <time>2016-10-30T11:18:40.000Z</time>
      </trkpt>
      <trkpt lat="47.51197" lon="6.89515">
        <ele>406</ele>
        <time>2016-10-30T11:18:41.000Z</time>
      </trkpt>
      <trkpt lat="47.51197" lon="6.8951">
        <ele>406</ele>
        <time>2016-10-30T11:18:42.000Z</time>
      </trkpt>
      <trkpt lat="47.51197" lon="6.89504">
        <ele>406</ele>
        <time>2016-10-30T11:18:43.000Z</time>
      </trkpt>
      <trkpt lat="47.51198" lon="6.89498">
        <ele>406</ele>
        <time>2016-10-30T11:18:44.000Z</time>
      </trkpt>
      <trkpt lat="47.51198" lon="6.89493">
        <ele>406</ele>
        <time>2016-10-30T11:18:45.000Z</time>
      </trkpt>
      <trkpt lat="47.51199" lon="6.89486">
        <ele>406</ele>
        <time>2016-10-30T11:18:46.000Z</time>
      </trkpt>
      <trkpt lat="47.51199" lon="6.8948">
        <ele>406</ele>
        <time>2016-10-30T11:18:47.000Z</time>
      </trkpt>
      <trkpt lat="47.512" lon="6.89474">
        <ele>406</ele>
        <time>2016-10-30T11:18:48.000Z</time>
      </trkpt>
      <trkpt lat="47.51201" lon="6.89466">
        <ele>406</ele>
        <time>2016-10-30T11:18:49.000Z</time>
      </trkpt>
      <trkpt lat="47.51202" lon="6.89459">
        <ele>406</ele>
        <time>2016-10-30T11:18:50.000Z</time>
      </trkpt>
      <trkpt lat="47.51203" lon="6.89452">
        <ele>406</ele>
        <time>2016-10-30T11:18:51.000Z</time>
      </trkpt>
      <trkpt lat="47.51205" lon="6.89446">
        <ele>406</ele>
        <time>2016-10-30T11:18:52.000Z</time>
      </trkpt>
      <trkpt lat="47.51206" lon="6.89438">
        <ele>406</ele>
        <time>2016-10-30T11:18:53.000Z</time>
      </trkpt>
      <trkpt lat="47.51206" lon="6.89431">
        <ele>406</ele>
        <time>2016-10-30T11:18:54.000Z</time>
      </trkpt>
      <trkpt lat="47.51206" lon="6.89424">
        <ele>406</ele>
        <time>2016-10-30T11:18:55.000Z</time>
      </trkpt>
      <trkpt lat="47.51207" lon="6.89417">
        <ele>406</ele>
        <time>2016-10-30T11:18:56.000Z</time>
      </trkpt>
      <trkpt lat="47.51207" lon="6.8941">
        <ele>407</ele>
        <time>2016-10-30T11:18:57.000Z</time>
      </trkpt>
      <trkpt lat="47.51208" lon="6.89402">
        <ele>407</ele>
        <time>2016-10-30T11:18:58.000Z</time>
      </trkpt>
      <trkpt lat="47.51209" lon="6.89395">
        <ele>407</ele>
        <time>2016-10-30T11:18:59.000Z</time>
      </trkpt>
      <trkpt lat="47.5121" lon="6.89388">
        <ele>407</ele>
        <time>2016-10-30T11:19:00.000Z</time>
      </trkpt>
      <trkpt lat="47.51212" lon="6.89381">
        <ele>407</ele>
        <time>2016-10-30T11:19:01.000Z</time>
      </trkpt>
      <trkpt lat="47.51213" lon="6.89374">
        <ele>407</ele>
        <time>2016-10-30T11:19:02.000Z</time>
      </trkpt>
      <trkpt lat="47.51215" lon="6.89367">
        <ele>407</ele>
        <time>2016-10-30T11:19:03.000Z</time>
      </trkpt>
      <trkpt lat="47.51217" lon="6.8936">
        <ele>407</ele>
        <time>2016-10-30T11:19:04.000Z</time>
      </trkpt>
      <trkpt lat="47.51218" lon="6.89354">
        <ele>407</ele>
        <time>2016-10-30T11:19:05.000Z</time>
      </trkpt>
      <trkpt lat="47.51219" lon="6.89348">
        <ele>407</ele>
        <time>2016-10-30T11:19:06.000Z</time>
      </trkpt>
      <trkpt lat="47.5122" lon="6.89342">
        <ele>407</ele>
        <time>2016-10-30T11:19:07.000Z</time>
      </trkpt>
      <trkpt lat="47.51221" lon="6.89336">
        <ele>407</ele>
        <time>2016-10-30T11:19:08.000Z</time>
      </trkpt>
      <trkpt lat="47.51221" lon="6.89329">
        <ele>408</ele>
        <time>2016-10-30T11:19:09.000Z</time>
      </trkpt>
      <trkpt lat="47.51221" lon="6.89324">
        <ele>408</ele>
        <time>2016-10-30T11:19:10.000Z</time>
      </trkpt>
      <trkpt lat="47.51222" lon="6.89318">
        <ele>408</ele>
        <time>2016-10-30T11:19:11.000Z</time>
      </trkpt>
      <trkpt lat="47.51223" lon="6.89312">
        <ele>409</ele>
        <time>2016-10-30T11:19:12.000Z</time>
      </trkpt>
      <trkpt lat="47.51223" lon="6.89306">
        <ele>409</ele>
        <time>2016-10-30T11:19:13.000Z</time>
      </trkpt>
      <trkpt lat="47.51225" lon="6.893">
        <ele>409</ele>
        <time>2016-10-30T11:19:14.000Z</time>
      </trkpt>
      <trkpt lat="47.51226" lon="6.89293">
        <ele>409</ele>
        <time>2016-10-30T11:19:15.000Z</time>
      </trkpt>
      <trkpt lat="47.51227" lon="6.89287">
        <ele>409</ele>
        <time>2016-10-30T11:19:16.000Z</time>
      </trkpt>
      <trkpt lat="47.51229" lon="6.89282">
        <ele>409</ele>
        <time>2016-10-30T11:19:17.000Z</time>
      </trkpt>
      <trkpt lat="47.51231" lon="6.89276">
        <ele>409</ele>
        <time>2016-10-30T11:19:18.000Z</time>
      </trkpt>
      <trkpt lat="47.51232" lon="6.89271">
        <ele>409</ele>
        <time>2016-10-30T11:19:19.000Z</time>
      </trkpt>
      <trkpt lat="47.51234" lon="6.89265">
        <ele>409</ele>
        <time>2016-10-30T11:19:20.000Z</time>
      </trkpt>
      <trkpt lat="47.51235" lon="6.8926">
        <ele>409</ele>
        <time>2016-10-30T11:19:21.000Z</time>
      </trkpt>
      <trkpt lat="47.51236" lon="6.89254">
        <ele>410</ele>
        <time>2016-10-30T11:19:22.000Z</time>
      </trkpt>
      <trkpt lat="47.51237" lon="6.89248">
        <ele>410</ele>
        <time>2016-10-30T11:19:23.000Z</time>
      </trkpt>
      <trkpt lat="47.51238" lon="6.89242">
        <ele>410</ele>
        <time>2016-10-30T11:19:24.000Z</time>
      </trkpt>
      <trkpt lat="47.51239" lon="6.89236">
        <ele>410</ele>
        <time>2016-10-30T11:19:25.000Z</time>
      </trkpt>
      <trkpt lat="47.51241" lon="6.89229">
        <ele>410</ele>
        <time>2016-10-30T11:19:26.000Z</time>
      </trkpt>
      <trkpt lat="47.51242" lon="6.89223">
        <ele>410</ele>
        <time>2016-10-30T11:19:27.000Z</time>
      </trkpt>
      <trkpt lat="47.51244" lon="6.89217">
        <ele>410</ele>
        <time>2016-10-30T11:19:28.000Z</time>
      </trkpt>
      <trkpt lat="47.51245" lon="6.8921">
        <ele>410</ele>
        <time>2016-10-30T11:19:29.000Z</time>
      </trkpt>
      <trkpt lat="47.51247" lon="6.89204">
        <ele>410</ele>
        <time>2016-10-30T11:19:30.000Z</time>
      </trkpt>
      <trkpt lat="47.51249" lon="6.89197">
        <ele>410</ele>
        <time>2016-10-30T11:19:31.000Z</time>
      </trkpt>
      <trkpt lat="47.51251" lon="6.89191">
        <ele>409</ele>
        <time>2016-10-30T11:19:32.000Z</time>
      </trkpt>
      <trkpt lat="47.51253" lon="6.89185">
        <ele>409</ele>
        <time>2016-10-30T11:19:33.000Z</time>
      </trkpt>
      <trkpt lat="47.51254" lon="6.89179">
        <ele>409</ele>
        <time>2016-10-30T11:19:34.000Z</time>
      </trkpt>
      <trkpt lat="47.51255" lon="6.89172">
        <ele>409</ele>
        <time>2016-10-30T11:19:35.000Z</time>
      </trkpt>
      <trkpt lat="47.51256" lon="6.89164">
        <ele>409</ele>
        <time>2016-10-30T11:19:36.000Z</time>
      </trkpt>
      <trkpt lat="47.51258" lon="6.89158">
        <ele>408</ele>
        <time>2016-10-30T11:19:37.000Z</time>
      </trkpt>
      <trkpt lat="47.51259" lon="6.89151">
        <ele>408</ele>
        <time>2016-10-30T11:19:38.000Z</time>
      </trkpt>
      <trkpt lat="47.51261" lon="6.89144">
        <ele>408</ele>
        <time>2016-10-30T11:19:39.000Z</time>
      </trkpt>
      <trkpt lat="47.51263" lon="6.89136">
        <ele>408</ele>
        <time>2016-10-30T11:19:40.000Z</time>
      </trkpt>
      <trkpt lat="47.51265" lon="6.8913">
        <ele>408</ele>
        <time>2016-10-30T11:19:41.000Z</time>
      </trkpt>
      <trkpt lat="47.51268" lon="6.89123">
        <ele>407</ele>
        <time>2016-10-30T11:19:42.000Z</time>
      </trkpt>
      <trkpt lat="47.51271" lon="6.89116">
        <ele>407</ele>
        <time>2016-10-30T11:19:43.000Z</time>
      </trkpt>
      <trkpt lat="47.51273" lon="6.89109">
        <ele>407</ele>
        <time>2016-10-30T11:19:44.000Z</time>
      </trkpt>
      <trkpt lat="47.51275" lon="6.89103">
        <ele>407</ele>
        <time>2016-10-30T11:19:45.000Z</time>
      </trkpt>
      <trkpt lat="47.51276" lon="6.89095">
        <ele>407</ele>
        <time>2016-10-30T11:19:46.000Z</time>
      </trkpt>
      <trkpt lat="47.51277" lon="6.89088">
        <ele>407</ele>
        <time>2016-10-30T11:19:47.000Z</time>
      </trkpt>
      <trkpt lat="47.51279" lon="6.89082">
        <ele>405</ele>
        <time>2016-10-30T11:19:48.000Z</time>
      </trkpt>
      <trkpt lat="47.51281" lon="6.89074">
        <ele>405</ele>
        <time>2016-10-30T11:19:49.000Z</time>
      </trkpt>
      <trkpt lat="47.51283" lon="6.89069">
        <ele>405</ele>
        <time>2016-10-30T11:19:50.000Z</time>
      </trkpt>
      <trkpt lat="47.51285" lon="6.89062">
        <ele>405</ele>
        <time>2016-10-30T11:19:51.000Z</time>
      </trkpt>
      <trkpt lat="47.51287" lon="6.89055">
        <ele>405</ele>
        <time>2016-10-30T11:19:52.000Z</time>
      </trkpt>
      <trkpt lat="47.51288" lon="6.8905">
        <ele>405</ele>
        <time>2016-10-30T11:19:53.000Z</time>
      </trkpt>
      <trkpt lat="47.51289" lon="6.89045">
        <ele>405</ele>
        <time>2016-10-30T11:19:54.000Z</time>
      </trkpt>
      <trkpt lat="47.51292" lon="6.89036">
        <ele>405</ele>
        <time>2016-10-30T11:19:55.000Z</time>
      </trkpt>
      <trkpt lat="47.51295" lon="6.89028">
        <ele>405</ele>
        <time>2016-10-30T11:19:56.000Z</time>
      </trkpt>
      <trkpt lat="47.51298" lon="6.89019">
        <ele>404</ele>
        <time>2016-10-30T11:19:57.000Z</time>
      </trkpt>
      <trkpt lat="47.513" lon="6.89012">
        <ele>404</ele>
        <time>2016-10-30T11:19:58.000Z</time>
      </trkpt>
      <trkpt lat="47.51301" lon="6.89005">
        <ele>404</ele>
        <time>2016-10-30T11:19:59.000Z</time>
      </trkpt>
      <trkpt lat="47.51301" lon="6.88996">
        <ele>403</ele>
        <time>2016-10-30T11:20:00.000Z</time>
      </trkpt>
      <trkpt lat="47.51301" lon="6.88988">
        <ele>403</ele>
        <time>2016-10-30T11:20:01.000Z</time>
      </trkpt>
      <trkpt lat="47.51303" lon="6.88979">
        <ele>402</ele>
        <time>2016-10-30T11:20:02.000Z</time>
      </trkpt>
      <trkpt lat="47.51304" lon="6.88971">
        <ele>402</ele>
        <time>2016-10-30T11:20:03.000Z</time>
      </trkpt>
      <trkpt lat="47.51306" lon="6.88964">
        <ele>402</ele>
        <time>2016-10-30T11:20:04.000Z</time>
      </trkpt>
      <trkpt lat="47.51307" lon="6.88956">
        <ele>402</ele>
        <time>2016-10-30T11:20:05.000Z</time>
      </trkpt>
      <trkpt lat="47.51309" lon="6.88949">
        <ele>402</ele>
        <time>2016-10-30T11:20:06.000Z</time>
      </trkpt>
      <trkpt lat="47.5131" lon="6.88943">
        <ele>401</ele>
        <time>2016-10-30T11:20:07.000Z</time>
      </trkpt>
      <trkpt lat="47.51312" lon="6.88936">
        <ele>401</ele>
        <time>2016-10-30T11:20:08.000Z</time>
      </trkpt>
      <trkpt lat="47.51312" lon="6.88928">
        <ele>401</ele>
        <time>2016-10-30T11:20:09.000Z</time>
      </trkpt>
      <trkpt lat="47.51313" lon="6.88921">
        <ele>400</ele>
        <time>2016-10-30T11:20:10.000Z</time>
      </trkpt>
      <trkpt lat="47.51316" lon="6.88915">
        <ele>399</ele>
        <time>2016-10-30T11:20:11.001Z</time>
      </trkpt>
      <trkpt lat="47.51318" lon="6.88909">
        <ele>399</ele>
        <time>2016-10-30T11:20:12.000Z</time>
      </trkpt>
      <trkpt lat="47.5132" lon="6.88902">
        <ele>399</ele>
        <time>2016-10-30T11:20:13.000Z</time>
      </trkpt>
      <trkpt lat="47.51322" lon="6.88894">
        <ele>400</ele>
        <time>2016-10-30T11:20:14.000Z</time>
      </trkpt>
      <trkpt lat="47.51324" lon="6.88888">
        <ele>400</ele>
        <time>2016-10-30T11:20:15.000Z</time>
      </trkpt>
      <trkpt lat="47.51326" lon="6.88882">
        <ele>400</ele>
        <time>2016-10-30T11:20:16.000Z</time>
      </trkpt>
      <trkpt lat="47.51331" lon="6.88876">
        <ele>400</ele>
        <time>2016-10-30T11:20:17.000Z</time>
      </trkpt>
      <trkpt lat="47.51332" lon="6.88872">
        <ele>399</ele>
        <time>2016-10-30T11:20:18.000Z</time>
      </trkpt>
      <trkpt lat="47.51334" lon="6.88869">
        <ele>398</ele>
        <time>2016-10-30T11:20:19.000Z</time>
      </trkpt>
      <trkpt lat="47.51337" lon="6.88864">
        <ele>398</ele>
        <time>2016-10-30T11:20:24.002Z</time>
      </trkpt>
      <trkpt lat="47.51338" lon="6.88864">
        <ele>398</ele>
        <time>2016-10-30T11:20:25.000Z</time>
      </trkpt>
      <trkpt lat="47.5134" lon="6.8886">
        <ele>398</ele>
        <time>2016-10-30T11:20:31.000Z</time>
      </trkpt>
      <trkpt lat="47.51341" lon="6.88859">
        <ele>398</ele>
        <time>2016-10-30T11:20:32.000Z</time>
      </trkpt>
      <trkpt lat="47.51342" lon="6.88853">
        <ele>398</ele>
        <time>2016-10-30T11:20:35.000Z</time>
      </trkpt>
      <trkpt lat="47.51343" lon="6.88852">
        <ele>398</ele>
        <time>2016-10-30T11:20:36.000Z</time>
      </trkpt>
      <trkpt lat="47.51345" lon="6.88846">
        <ele>397</ele>
        <time>2016-10-30T11:20:40.000Z</time>
      </trkpt>
      <trkpt lat="47.51345" lon="6.88845">
        <ele>397</ele>
        <time>2016-10-30T11:20:41.000Z</time>
      </trkpt>
      <trkpt lat="47.51346" lon="6.8884">
        <ele>397</ele>
        <time>2016-10-30T11:20:45.000Z</time>
      </trkpt>
      <trkpt lat="47.51346" lon="6.88837">
        <ele>397</ele>
        <time>2016-10-30T11:20:46.000Z</time>
      </trkpt>
      <trkpt lat="47.51345" lon="6.88831">
        <ele>397</ele>
        <time>2016-10-30T11:20:48.000Z</time>
      </trkpt>
      <trkpt lat="47.51343" lon="6.88828">
        <ele>397</ele>
        <time>2016-10-30T11:20:49.000Z</time>
      </trkpt>
      <trkpt lat="47.51341" lon="6.88824">
        <ele>397</ele>
        <time>2016-10-30T11:20:50.000Z</time>
      </trkpt>
      <trkpt lat="47.5134" lon="6.88819">
        <ele>397</ele>
        <time>2016-10-30T11:20:51.000Z</time>
      </trkpt>
      <trkpt lat="47.51339" lon="6.88814">
        <ele>397</ele>
        <time>2016-10-30T11:20:52.000Z</time>
      </trkpt>
      <trkpt lat="47.51339" lon="6.88808">
        <ele>397</ele>
        <time>2016-10-30T11:20:53.000Z</time>
      </trkpt>
      <trkpt lat="47.51339" lon="6.88803">
        <ele>397</ele>
        <time>2016-10-30T11:20:54.000Z</time>
      </trkpt>
      <trkpt lat="47.5134" lon="6.88797">
        <ele>397</ele>
        <time>2016-10-30T11:20:55.000Z</time>
      </trkpt>
      <trkpt lat="47.5134" lon="6.88792">
        <ele>397</ele>
        <time>2016-10-30T11:20:56.000Z</time>
      </trkpt>
      <trkpt lat="47.51341" lon="6.88787">
        <ele>397</ele>
        <time>2016-10-30T11:20:57.000Z</time>
      </trkpt>
      <trkpt lat="47.51343" lon="6.88781">
        <ele>397</ele>
        <time>2016-10-30T11:20:58.000Z</time>
      </trkpt>
      <trkpt lat="47.51344" lon="6.88775">
        <ele>397</ele>
        <time>2016-10-30T11:20:59.000Z</time>
      </trkpt>
      <trkpt lat="47.51345" lon="6.8877">
        <ele>398</ele>
        <time>2016-10-30T11:21:00.000Z</time>
      </trkpt>
      <trkpt lat="47.51347" lon="6.88765">
        <ele>398</ele>
        <time>2016-10-30T11:21:01.000Z</time>
      </trkpt>
      <trkpt lat="47.51348" lon="6.88761">
        <ele>398</ele>
        <time>2016-10-30T11:21:02.000Z</time>
      </trkpt>
      <trkpt lat="47.51349" lon="6.88755">
        <ele>398</ele>
        <time>2016-10-30T11:21:03.000Z</time>
      </trkpt>
      <trkpt lat="47.5135" lon="6.88749">
        <ele>398</ele>
        <time>2016-10-30T11:21:04.000Z</time>
      </trkpt>
      <trkpt lat="47.51351" lon="6.88743">
        <ele>398</ele>
        <time>2016-10-30T11:21:05.000Z</time>
      </trkpt>
      <trkpt lat="47.51351" lon="6.88736">
        <ele>398</ele>
        <time>2016-10-30T11:21:06.000Z</time>
      </trkpt>
      <trkpt lat="47.51352" lon="6.8873">
        <ele>398</ele>
        <time>2016-10-30T11:21:07.000Z</time>
      </trkpt>
      <trkpt lat="47.51353" lon="6.88725">
        <ele>397</ele>
        <time>2016-10-30T11:21:08.000Z</time>
      </trkpt>
      <trkpt lat="47.51354" lon="6.8872">
        <ele>397</ele>
        <time>2016-10-30T11:21:09.000Z</time>
      </trkpt>
      <trkpt lat="47.51354" lon="6.88715">
        <ele>397</ele>
        <time>2016-10-30T11:21:10.000Z</time>
      </trkpt>
      <trkpt lat="47.51356" lon="6.8871">
        <ele>397</ele>
        <time>2016-10-30T11:21:11.000Z</time>
      </trkpt>
      <trkpt lat="47.51356" lon="6.88704">
        <ele>397</ele>
        <time>2016-10-30T11:21:12.000Z</time>
      </trkpt>
      <trkpt lat="47.51356" lon="6.88698">
        <ele>397</ele>
        <time>2016-10-30T11:21:13.000Z</time>
      </trkpt>
      <trkpt lat="47.51356" lon="6.88692">
        <ele>397</ele>
        <time>2016-10-30T11:21:14.000Z</time>
      </trkpt>
      <trkpt lat="47.51356" lon="6.88686">
        <ele>397</ele>
        <time>2016-10-30T11:21:15.000Z</time>
      </trkpt>
      <trkpt lat="47.51356" lon="6.88679">
        <ele>397</ele>
        <time>2016-10-30T11:21:16.000Z</time>
      </trkpt>
      <trkpt lat="47.51357" lon="6.88673">
        <ele>397</ele>
        <time>2016-10-30T11:21:17.000Z</time>
      </trkpt>
      <trkpt lat="47.51355" lon="6.88664">
        <ele>397</ele>
        <time>2016-10-30T11:21:18.000Z</time>
      </trkpt>
      <trkpt lat="47.51356" lon="6.88657">
        <ele>397</ele>
        <time>2016-10-30T11:21:19.000Z</time>
      </trkpt>
      <trkpt lat="47.51358" lon="6.88652">
        <ele>397</ele>
        <time>2016-10-30T11:21:20.000Z</time>
      </trkpt>
      <trkpt lat="47.51357" lon="6.88645">
        <ele>397</ele>
        <time>2016-10-30T11:21:21.000Z</time>
      </trkpt>
      <trkpt lat="47.51357" lon="6.88638">
        <ele>397</ele>
        <time>2016-10-30T11:21:22.001Z</time>
      </trkpt>
      <trkpt lat="47.51358" lon="6.88633">
        <ele>397</ele>
        <time>2016-10-30T11:21:23.000Z</time>
      </trkpt>
      <trkpt lat="47.51358" lon="6.88627">
        <ele>397</ele>
        <time>2016-10-30T11:21:24.000Z</time>
      </trkpt>
      <trkpt lat="47.51358" lon="6.8862">
        <ele>396</ele>
        <time>2016-10-30T11:21:25.000Z</time>
      </trkpt>
      <trkpt lat="47.51359" lon="6.88614">
        <ele>396</ele>
        <time>2016-10-30T11:21:26.000Z</time>
      </trkpt>
      <trkpt lat="47.51358" lon="6.88606">
        <ele>396</ele>
        <time>2016-10-30T11:21:27.000Z</time>
      </trkpt>
      <trkpt lat="47.51358" lon="6.88602">
        <ele>396</ele>
        <time>2016-10-30T11:21:28.000Z</time>
      </trkpt>
      <trkpt lat="47.51357" lon="6.88596">
        <ele>396</ele>
        <time>2016-10-30T11:21:29.000Z</time>
      </trkpt>
      <trkpt lat="47.51356" lon="6.8859">
        <ele>396</ele>
        <time>2016-10-30T11:21:30.000Z</time>
      </trkpt>
      <trkpt lat="47.51356" lon="6.88583">
        <ele>396</ele>
        <time>2016-10-30T11:21:31.000Z</time>
      </trkpt>
      <trkpt lat="47.51357" lon="6.88577">
        <ele>396</ele>
        <time>2016-10-30T11:21:32.000Z</time>
      </trkpt>
      <trkpt lat="47.51357" lon="6.88571">
        <ele>395</ele>
        <time>2016-10-30T11:21:33.000Z</time>
      </trkpt>
      <trkpt lat="47.51357" lon="6.88564">
        <ele>395</ele>
        <time>2016-10-30T11:21:34.000Z</time>
      </trkpt>
      <trkpt lat="47.51357" lon="6.88559">
        <ele>395</ele>
        <time>2016-10-30T11:21:35.000Z</time>
      </trkpt>
      <trkpt lat="47.51357" lon="6.88552">
        <ele>395</ele>
        <time>2016-10-30T11:21:36.000Z</time>
      </trkpt>
      <trkpt lat="47.51358" lon="6.88546">
        <ele>395</ele>
        <time>2016-10-30T11:21:37.000Z</time>
      </trkpt>
      <trkpt lat="47.51358" lon="6.88539">
        <ele>395</ele>
        <time>2016-10-30T11:21:38.000Z</time>
      </trkpt>
      <trkpt lat="47.51358" lon="6.88533">
        <ele>395</ele>
        <time>2016-10-30T11:21:39.000Z</time>
      </trkpt>
      <trkpt lat="47.51359" lon="6.88527">
        <ele>395</ele>
        <time>2016-10-30T11:21:39.999Z</time>
      </trkpt>
      <trkpt lat="47.51359" lon="6.8852">
        <ele>395</ele>
        <time>2016-10-30T11:21:41.000Z</time>
      </trkpt>
      <trkpt lat="47.5136" lon="6.88514">
        <ele>395</ele>
        <time>2016-10-30T11:21:42.000Z</time>
      </trkpt>
      <trkpt lat="47.5136" lon="6.88506">
        <ele>395</ele>
        <time>2016-10-30T11:21:43.000Z</time>
      </trkpt>
      <trkpt lat="47.5136" lon="6.885">
        <ele>395</ele>
        <time>2016-10-30T11:21:44.000Z</time>
      </trkpt>
      <trkpt lat="47.51359" lon="6.88493">
        <ele>395</ele>
        <time>2016-10-30T11:21:45.000Z</time>
      </trkpt>
      <trkpt lat="47.51359" lon="6.88487">
        <ele>395</ele>
        <time>2016-10-30T11:21:46.000Z</time>
      </trkpt>
      <trkpt lat="47.51358" lon="6.88481">
        <ele>395</ele>
        <time>2016-10-30T11:21:47.000Z</time>
      </trkpt>
      <trkpt lat="47.51358" lon="6.88475">
        <ele>395</ele>
        <time>2016-10-30T11:21:48.000Z</time>
      </trkpt>
      <trkpt lat="47.51357" lon="6.88468">
        <ele>395</ele>
        <time>2016-10-30T11:21:49.000Z</time>
      </trkpt>
      <trkpt lat="47.51356" lon="6.88462">
        <ele>395</ele>
        <time>2016-10-30T11:21:50.000Z</time>
      </trkpt>
      <trkpt lat="47.51357" lon="6.88454">
        <ele>396</ele>
        <time>2016-10-30T11:21:51.000Z</time>
      </trkpt>
      <trkpt lat="47.51358" lon="6.88447">
        <ele>396</ele>
        <time>2016-10-30T11:21:52.000Z</time>
      </trkpt>
      <trkpt lat="47.51356" lon="6.88442">
        <ele>396</ele>
        <time>2016-10-30T11:21:53.000Z</time>
      </trkpt>
      <trkpt lat="47.51357" lon="6.88437">
        <ele>396</ele>
        <time>2016-10-30T11:21:54.000Z</time>
      </trkpt>
      <trkpt lat="47.51356" lon="6.88427">
        <ele>396</ele>
        <time>2016-10-30T11:21:55.000Z</time>
      </trkpt>
      <trkpt lat="47.51357" lon="6.8842">
        <ele>396</ele>
        <time>2016-10-30T11:21:56.000Z</time>
      </trkpt>
      <trkpt lat="47.51356" lon="6.88412">
        <ele>397</ele>
        <time>2016-10-30T11:21:57.000Z</time>
      </trkpt>
      <trkpt lat="47.51355" lon="6.88405">
        <ele>397</ele>
        <time>2016-10-30T11:21:58.000Z</time>
      </trkpt>
      <trkpt lat="47.51356" lon="6.88398">
        <ele>397</ele>
        <time>2016-10-30T11:21:59.000Z</time>
      </trkpt>
      <trkpt lat="47.51356" lon="6.88392">
        <ele>397</ele>
        <time>2016-10-30T11:22:00.000Z</time>
      </trkpt>
      <trkpt lat="47.51356" lon="6.88386">
        <ele>398</ele>
        <time>2016-10-30T11:22:00.998Z</time>
      </trkpt>
      <trkpt lat="47.51355" lon="6.88379">
        <ele>398</ele>
        <time>2016-10-30T11:22:02.000Z</time>
      </trkpt>
      <trkpt lat="47.51355" lon="6.88372">
        <ele>398</ele>
        <time>2016-10-30T11:22:03.000Z</time>
      </trkpt>
      <trkpt lat="47.51354" lon="6.88366">
        <ele>398</ele>
        <time>2016-10-30T11:22:04.000Z</time>
      </trkpt>
      <trkpt lat="47.51354" lon="6.88359">
        <ele>398</ele>
        <time>2016-10-30T11:22:05.000Z</time>
      </trkpt>
      <trkpt lat="47.51354" lon="6.88353">
        <ele>398</ele>
        <time>2016-10-30T11:22:06.000Z</time>
      </trkpt>
      <trkpt lat="47.51354" lon="6.88347">
        <ele>398</ele>
        <time>2016-10-30T11:22:07.000Z</time>
      </trkpt>
      <trkpt lat="47.51354" lon="6.88341">
        <ele>398</ele>
        <time>2016-10-30T11:22:08.000Z</time>
      </trkpt>
      <trkpt lat="47.51354" lon="6.88336">
        <ele>398</ele>
        <time>2016-10-30T11:22:09.000Z</time>
      </trkpt>
      <trkpt lat="47.51353" lon="6.8833">
        <ele>398</ele>
        <time>2016-10-30T11:22:10.000Z</time>
      </trkpt>
      <trkpt lat="47.51353" lon="6.88324">
        <ele>398</ele>
        <time>2016-10-30T11:22:11.000Z</time>
      </trkpt>
      <trkpt lat="47.51353" lon="6.88318">
        <ele>398</ele>
        <time>2016-10-30T11:22:11.999Z</time>
      </trkpt>
      <trkpt lat="47.51353" lon="6.88313">
        <ele>398</ele>
        <time>2016-10-30T11:22:13.000Z</time>
      </trkpt>
      <trkpt lat="47.51353" lon="6.88307">
        <ele>398</ele>
        <time>2016-10-30T11:22:14.000Z</time>
      </trkpt>
      <trkpt lat="47.51353" lon="6.88301">
        <ele>398</ele>
        <time>2016-10-30T11:22:15.000Z</time>
      </trkpt>
      <trkpt lat="47.51353" lon="6.88295">
        <ele>398</ele>
        <time>2016-10-30T11:22:16.000Z</time>
      </trkpt>
      <trkpt lat="47.51353" lon="6.88289">
        <ele>398</ele>
        <time>2016-10-30T11:22:17.000Z</time>
      </trkpt>
      <trkpt lat="47.51353" lon="6.88283">
        <ele>397</ele>
        <time>2016-10-30T11:22:18.000Z</time>
      </trkpt>
      <trkpt lat="47.51351" lon="6.88274">
        <ele>397</ele>
        <time>2016-10-30T11:22:19.000Z</time>
      </trkpt>
      <trkpt lat="47.51349" lon="6.88267">
        <ele>397</ele>
        <time>2016-10-30T11:22:20.000Z</time>
      </trkpt>
      <trkpt lat="47.51347" lon="6.8826">
        <ele>397</ele>
        <time>2016-10-30T11:22:21.000Z</time>
      </trkpt>
      <trkpt lat="47.51346" lon="6.88253">
        <ele>397</ele>
        <time>2016-10-30T11:22:22.000Z</time>
      </trkpt>
      <trkpt lat="47.51345" lon="6.88246">
        <ele>396</ele>
        <time>2016-10-30T11:22:23.000Z</time>
      </trkpt>
      <trkpt lat="47.51343" lon="6.88239">
        <ele>396</ele>
        <time>2016-10-30T11:22:24.000Z</time>
      </trkpt>
      <trkpt lat="47.51341" lon="6.88232">
        <ele>396</ele>
        <time>2016-10-30T11:22:25.000Z</time>
      </trkpt>
      <trkpt lat="47.51339" lon="6.88225">
        <ele>396</ele>
        <time>2016-10-30T11:22:26.000Z</time>
      </trkpt>
      <trkpt lat="47.51338" lon="6.88218">
        <ele>396</ele>
        <time>2016-10-30T11:22:27.000Z</time>
      </trkpt>
      <trkpt lat="47.51337" lon="6.88212">
        <ele>396</ele>
        <time>2016-10-30T11:22:28.000Z</time>
      </trkpt>
      <trkpt lat="47.51336" lon="6.88204">
        <ele>396</ele>
        <time>2016-10-30T11:22:29.000Z</time>
      </trkpt>
      <trkpt lat="47.51335" lon="6.88197">
        <ele>395</ele>
        <time>2016-10-30T11:22:30.000Z</time>
      </trkpt>
      <trkpt lat="47.51334" lon="6.88189">
        <ele>395</ele>
        <time>2016-10-30T11:22:31.000Z</time>
      </trkpt>
      <trkpt lat="47.51332" lon="6.88181">
        <ele>394</ele>
        <time>2016-10-30T11:22:32.000Z</time>
      </trkpt>
      <trkpt lat="47.51331" lon="6.88176">
        <ele>394</ele>
        <time>2016-10-30T11:22:33.000Z</time>
      </trkpt>
      <trkpt lat="47.5133" lon="6.88169">
        <ele>395</ele>
        <time>2016-10-30T11:22:34.000Z</time>
      </trkpt>
      <trkpt lat="47.51329" lon="6.88161">
        <ele>395</ele>
        <time>2016-10-30T11:22:35.000Z</time>
      </trkpt>
      <trkpt lat="47.51328" lon="6.88153">
        <ele>394</ele>
        <time>2016-10-30T11:22:36.000Z</time>
      </trkpt>
      <trkpt lat="47.51326" lon="6.88145">
        <ele>394</ele>
        <time>2016-10-30T11:22:37.000Z</time>
      </trkpt>
      <trkpt lat="47.51325" lon="6.88138">
        <ele>394</ele>
        <time>2016-10-30T11:22:38.000Z</time>
      </trkpt>
      <trkpt lat="47.51323" lon="6.88131">
        <ele>395</ele>
        <time>2016-10-30T11:22:39.000Z</time>
      </trkpt>
      <trkpt lat="47.51322" lon="6.88124">
        <ele>395</ele>
        <time>2016-10-30T11:22:40.000Z</time>
      </trkpt>
      <trkpt lat="47.51319" lon="6.8811">
        <ele>396</ele>
        <time>2016-10-30T11:22:42.000Z</time>
      </trkpt>
      <trkpt lat="47.51319" lon="6.88102">
        <ele>397</ele>
        <time>2016-10-30T11:22:43.000Z</time>
      </trkpt>
      <trkpt lat="47.51318" lon="6.88095">
        <ele>397</ele>
        <time>2016-10-30T11:22:44.000Z</time>
      </trkpt>
      <trkpt lat="47.51316" lon="6.88088">
        <ele>397</ele>
        <time>2016-10-30T11:22:45.000Z</time>
      </trkpt>
      <trkpt lat="47.51315" lon="6.88081">
        <ele>399</ele>
        <time>2016-10-30T11:22:46.000Z</time>
      </trkpt>
      <trkpt lat="47.51314" lon="6.88076">
        <ele>399</ele>
        <time>2016-10-30T11:22:47.000Z</time>
      </trkpt>
      <trkpt lat="47.51311" lon="6.88069">
        <ele>398</ele>
        <time>2016-10-30T11:22:48.000Z</time>
      </trkpt>
      <trkpt lat="47.51311" lon="6.88064">
        <ele>398</ele>
        <time>2016-10-30T11:22:49.000Z</time>
      </trkpt>
      <trkpt lat="47.51311" lon="6.88058">
        <ele>398</ele>
        <time>2016-10-30T11:22:50.000Z</time>
      </trkpt>
      <trkpt lat="47.5131" lon="6.88052">
        <ele>398</ele>
        <time>2016-10-30T11:22:51.000Z</time>
      </trkpt>
      <trkpt lat="47.51311" lon="6.88046">
        <ele>398</ele>
        <time>2016-10-30T11:22:52.000Z</time>
      </trkpt>
      <trkpt lat="47.51307" lon="6.88039">
        <ele>398</ele>
        <time>2016-10-30T11:22:53.000Z</time>
      </trkpt>
      <trkpt lat="47.51306" lon="6.88033">
        <ele>398</ele>
        <time>2016-10-30T11:22:54.000Z</time>
      </trkpt>
      <trkpt lat="47.51306" lon="6.88025">
        <ele>398</ele>
        <time>2016-10-30T11:22:55.000Z</time>
      </trkpt>
      <trkpt lat="47.51306" lon="6.88018">
        <ele>398</ele>
        <time>2016-10-30T11:22:56.000Z</time>
      </trkpt>
      <trkpt lat="47.51305" lon="6.88011">
        <ele>398</ele>
        <time>2016-10-30T11:22:57.000Z</time>
      </trkpt>
      <trkpt lat="47.51304" lon="6.88005">
        <ele>398</ele>
        <time>2016-10-30T11:22:58.000Z</time>
      </trkpt>
      <trkpt lat="47.51301" lon="6.87997">
        <ele>398</ele>
        <time>2016-10-30T11:22:59.000Z</time>
      </trkpt>
      <trkpt lat="47.513" lon="6.8799">
        <ele>398</ele>
        <time>2016-10-30T11:23:00.000Z</time>
      </trkpt>
      <trkpt lat="47.51298" lon="6.87984">
        <ele>398</ele>
        <time>2016-10-30T11:23:01.000Z</time>
      </trkpt>
      <trkpt lat="47.51297" lon="6.87978">
        <ele>397</ele>
        <time>2016-10-30T11:23:02.000Z</time>
      </trkpt>
      <trkpt lat="47.51296" lon="6.87972">
        <ele>397</ele>
        <time>2016-10-30T11:23:03.000Z</time>
      </trkpt>
      <trkpt lat="47.51295" lon="6.87965">
        <ele>397</ele>
        <time>2016-10-30T11:23:04.000Z</time>
      </trkpt>
      <trkpt lat="47.51295" lon="6.87958">
        <ele>397</ele>
        <time>2016-10-30T11:23:05.000Z</time>
      </trkpt>
      <trkpt lat="47.51294" lon="6.87951">
        <ele>397</ele>
        <time>2016-10-30T11:23:06.000Z</time>
      </trkpt>
      <trkpt lat="47.51292" lon="6.87945">
        <ele>397</ele>
        <time>2016-10-30T11:23:07.000Z</time>
      </trkpt>
      <trkpt lat="47.5129" lon="6.8794">
        <ele>397</ele>
        <time>2016-10-30T11:23:08.000Z</time>
      </trkpt>
      <trkpt lat="47.51289" lon="6.87935">
        <ele>397</ele>
        <time>2016-10-30T11:23:09.000Z</time>
      </trkpt>
      <trkpt lat="47.51287" lon="6.8793">
        <ele>397</ele>
        <time>2016-10-30T11:23:10.000Z</time>
      </trkpt>
      <trkpt lat="47.51287" lon="6.87923">
        <ele>397</ele>
        <time>2016-10-30T11:23:11.000Z</time>
      </trkpt>
      <trkpt lat="47.51285" lon="6.87917">
        <ele>396</ele>
        <time>2016-10-30T11:23:12.000Z</time>
      </trkpt>
      <trkpt lat="47.51284" lon="6.87911">
        <ele>395</ele>
        <time>2016-10-30T11:23:13.000Z</time>
      </trkpt>
      <trkpt lat="47.51282" lon="6.87904">
        <ele>395</ele>
        <time>2016-10-30T11:23:14.000Z</time>
      </trkpt>
      <trkpt lat="47.5128" lon="6.87898">
        <ele>395</ele>
        <time>2016-10-30T11:23:15.000Z</time>
      </trkpt>
      <trkpt lat="47.51279" lon="6.87891">
        <ele>395</ele>
        <time>2016-10-30T11:23:16.000Z</time>
      </trkpt>
      <trkpt lat="47.51276" lon="6.87884">
        <ele>395</ele>
        <time>2016-10-30T11:23:17.000Z</time>
      </trkpt>
      <trkpt lat="47.51274" lon="6.87876">
        <ele>395</ele>
        <time>2016-10-30T11:23:18.000Z</time>
      </trkpt>
      <trkpt lat="47.51273" lon="6.87869">
        <ele>394</ele>
        <time>2016-10-30T11:23:19.000Z</time>
      </trkpt>
      <trkpt lat="47.51272" lon="6.87862">
        <ele>394</ele>
        <time>2016-10-30T11:23:20.000Z</time>
      </trkpt>
      <trkpt lat="47.5127" lon="6.87857">
        <ele>394</ele>
        <time>2016-10-30T11:23:21.000Z</time>
      </trkpt>
      <trkpt lat="47.51268" lon="6.8785">
        <ele>394</ele>
        <time>2016-10-30T11:23:22.000Z</time>
      </trkpt>
      <trkpt lat="47.51266" lon="6.87844">
        <ele>394</ele>
        <time>2016-10-30T11:23:23.000Z</time>
      </trkpt>
      <trkpt lat="47.51264" lon="6.87837">
        <ele>394</ele>
        <time>2016-10-30T11:23:24.000Z</time>
      </trkpt>
      <trkpt lat="47.51262" lon="6.8783">
        <ele>393</ele>
        <time>2016-10-30T11:23:25.000Z</time>
      </trkpt>
      <trkpt lat="47.5126" lon="6.87822">
        <ele>393</ele>
        <time>2016-10-30T11:23:26.000Z</time>
      </trkpt>
      <trkpt lat="47.51258" lon="6.87816">
        <ele>393</ele>
        <time>2016-10-30T11:23:27.000Z</time>
      </trkpt>
      <trkpt lat="47.51258" lon="6.87808">
        <ele>393</ele>
        <time>2016-10-30T11:23:28.000Z</time>
      </trkpt>
      <trkpt lat="47.51256" lon="6.878">
        <ele>392</ele>
        <time>2016-10-30T11:23:29.000Z</time>
      </trkpt>
      <trkpt lat="47.51255" lon="6.87791">
        <ele>392</ele>
        <time>2016-10-30T11:23:30.000Z</time>
      </trkpt>
      <trkpt lat="47.51253" lon="6.87784">
        <ele>392</ele>
        <time>2016-10-30T11:23:31.000Z</time>
      </trkpt>
      <trkpt lat="47.51251" lon="6.87777">
        <ele>392</ele>
        <time>2016-10-30T11:23:32.000Z</time>
      </trkpt>
      <trkpt lat="47.51248" lon="6.87772">
        <ele>391</ele>
        <time>2016-10-30T11:23:33.000Z</time>
      </trkpt>
      <trkpt lat="47.51247" lon="6.87765">
        <ele>391</ele>
        <time>2016-10-30T11:23:34.000Z</time>
      </trkpt>
      <trkpt lat="47.51245" lon="6.87757">
        <ele>392</ele>
        <time>2016-10-30T11:23:35.000Z</time>
      </trkpt>
      <trkpt lat="47.51242" lon="6.87751">
        <ele>392</ele>
        <time>2016-10-30T11:23:36.000Z</time>
      </trkpt>
      <trkpt lat="47.5124" lon="6.87744">
        <ele>391</ele>
        <time>2016-10-30T11:23:37.000Z</time>
      </trkpt>
      <trkpt lat="47.51238" lon="6.87737">
        <ele>391</ele>
        <time>2016-10-30T11:23:38.001Z</time>
      </trkpt>
      <trkpt lat="47.51237" lon="6.8773">
        <ele>390</ele>
        <time>2016-10-30T11:23:39.000Z</time>
      </trkpt>
      <trkpt lat="47.51235" lon="6.87723">
        <ele>390</ele>
        <time>2016-10-30T11:23:40.000Z</time>
      </trkpt>
      <trkpt lat="47.51234" lon="6.87716">
        <ele>390</ele>
        <time>2016-10-30T11:23:41.000Z</time>
      </trkpt>
      <trkpt lat="47.51231" lon="6.8771">
        <ele>389</ele>
        <time>2016-10-30T11:23:42.000Z</time>
      </trkpt>
      <trkpt lat="47.51229" lon="6.87704">
        <ele>389</ele>
        <time>2016-10-30T11:23:43.000Z</time>
      </trkpt>
      <trkpt lat="47.51228" lon="6.87699">
        <ele>389</ele>
        <time>2016-10-30T11:23:44.000Z</time>
      </trkpt>
      <trkpt lat="47.51225" lon="6.87693">
        <ele>389</ele>
        <time>2016-10-30T11:23:45.000Z</time>
      </trkpt>
      <trkpt lat="47.51224" lon="6.87686">
        <ele>389</ele>
        <time>2016-10-30T11:23:46.000Z</time>
      </trkpt>
      <trkpt lat="47.51222" lon="6.87679">
        <ele>389</ele>
        <time>2016-10-30T11:23:47.000Z</time>
      </trkpt>
      <trkpt lat="47.5122" lon="6.87673">
        <ele>389</ele>
        <time>2016-10-30T11:23:48.000Z</time>
      </trkpt>
      <trkpt lat="47.51218" lon="6.87666">
        <ele>387</ele>
        <time>2016-10-30T11:23:49.000Z</time>
      </trkpt>
      <trkpt lat="47.51216" lon="6.8766">
        <ele>387</ele>
        <time>2016-10-30T11:23:50.000Z</time>
      </trkpt>
      <trkpt lat="47.51215" lon="6.87654">
        <ele>387</ele>
        <time>2016-10-30T11:23:50.999Z</time>
      </trkpt>
      <trkpt lat="47.51212" lon="6.87646">
        <ele>387</ele>
        <time>2016-10-30T11:23:52.000Z</time>
      </trkpt>
      <trkpt lat="47.5121" lon="6.8764">
        <ele>387</ele>
        <time>2016-10-30T11:23:53.000Z</time>
      </trkpt>
      <trkpt lat="47.51207" lon="6.87634">
        <ele>387</ele>
        <time>2016-10-30T11:23:54.000Z</time>
      </trkpt>
      <trkpt lat="47.51205" lon="6.87627">
        <ele>387</ele>
        <time>2016-10-30T11:23:55.000Z</time>
      </trkpt>
      <trkpt lat="47.51203" lon="6.8762">
        <ele>387</ele>
        <time>2016-10-30T11:23:56.000Z</time>
      </trkpt>
      <trkpt lat="47.51201" lon="6.87614">
        <ele>386</ele>
        <time>2016-10-30T11:23:57.000Z</time>
      </trkpt>
      <trkpt lat="47.512" lon="6.87608">
        <ele>386</ele>
        <time>2016-10-30T11:23:58.000Z</time>
      </trkpt>
      <trkpt lat="47.51199" lon="6.87601">
        <ele>386</ele>
        <time>2016-10-30T11:23:59.000Z</time>
      </trkpt>
      <trkpt lat="47.51197" lon="6.87595">
        <ele>386</ele>
        <time>2016-10-30T11:24:00.000Z</time>
      </trkpt>
      <trkpt lat="47.51196" lon="6.87588">
        <ele>386</ele>
        <time>2016-10-30T11:24:01.000Z</time>
      </trkpt>
      <trkpt lat="47.51194" lon="6.8758">
        <ele>385</ele>
        <time>2016-10-30T11:24:02.000Z</time>
      </trkpt>
      <trkpt lat="47.5119" lon="6.87573">
        <ele>385</ele>
        <time>2016-10-30T11:24:03.000Z</time>
      </trkpt>
      <trkpt lat="47.51187" lon="6.87567">
        <ele>385</ele>
        <time>2016-10-30T11:24:04.000Z</time>
      </trkpt>
      <trkpt lat="47.51184" lon="6.87561">
        <ele>385</ele>
        <time>2016-10-30T11:24:05.000Z</time>
      </trkpt>
      <trkpt lat="47.51183" lon="6.87555">
        <ele>384</ele>
        <time>2016-10-30T11:24:06.000Z</time>
      </trkpt>
      <trkpt lat="47.51181" lon="6.87548">
        <ele>384</ele>
        <time>2016-10-30T11:24:07.000Z</time>
      </trkpt>
      <trkpt lat="47.51178" lon="6.87541">
        <ele>384</ele>
        <time>2016-10-30T11:24:07.999Z</time>
      </trkpt>
      <trkpt lat="47.51175" lon="6.87533">
        <ele>384</ele>
        <time>2016-10-30T11:24:09.000Z</time>
      </trkpt>
      <trkpt lat="47.51173" lon="6.87525">
        <ele>384</ele>
        <time>2016-10-30T11:24:10.000Z</time>
      </trkpt>
      <trkpt lat="47.5117" lon="6.87517">
        <ele>384</ele>
        <time>2016-10-30T11:24:11.000Z</time>
      </trkpt>
      <trkpt lat="47.51168" lon="6.87509">
        <ele>384</ele>
        <time>2016-10-30T11:24:12.000Z</time>
      </trkpt>
      <trkpt lat="47.51165" lon="6.875">
        <ele>384</ele>
        <time>2016-10-30T11:24:13.000Z</time>
      </trkpt>
      <trkpt lat="47.51163" lon="6.87492">
        <ele>383</ele>
        <time>2016-10-30T11:24:14.000Z</time>
      </trkpt>
      <trkpt lat="47.5116" lon="6.87485">
        <ele>383</ele>
        <time>2016-10-30T11:24:15.000Z</time>
      </trkpt>
      <trkpt lat="47.51157" lon="6.87477">
        <ele>383</ele>
        <time>2016-10-30T11:24:16.000Z</time>
      </trkpt>
      <trkpt lat="47.51155" lon="6.87471">
        <ele>382</ele>
        <time>2016-10-30T11:24:17.000Z</time>
      </trkpt>
      <trkpt lat="47.51153" lon="6.87463">
        <ele>382</ele>
        <time>2016-10-30T11:24:18.000Z</time>
      </trkpt>
      <trkpt lat="47.51151" lon="6.87455">
        <ele>382</ele>
        <time>2016-10-30T11:24:19.000Z</time>
      </trkpt>
      <trkpt lat="47.51149" lon="6.87447">
        <ele>381</ele>
        <time>2016-10-30T11:24:20.000Z</time>
      </trkpt>
      <trkpt lat="47.51145" lon="6.8744">
        <ele>381</ele>
        <time>2016-10-30T11:24:21.000Z</time>
      </trkpt>
      <trkpt lat="47.51143" lon="6.87433">
        <ele>381</ele>
        <time>2016-10-30T11:24:22.000Z</time>
      </trkpt>
      <trkpt lat="47.5114" lon="6.87425">
        <ele>381</ele>
        <time>2016-10-30T11:24:23.000Z</time>
      </trkpt>
      <trkpt lat="47.51137" lon="6.87418">
        <ele>381</ele>
        <time>2016-10-30T11:24:24.000Z</time>
      </trkpt>
      <trkpt lat="47.51134" lon="6.8741">
        <ele>379</ele>
        <time>2016-10-30T11:24:25.000Z</time>
      </trkpt>
      <trkpt lat="47.5113" lon="6.87402">
        <ele>379</ele>
        <time>2016-10-30T11:24:26.000Z</time>
      </trkpt>
      <trkpt lat="47.51127" lon="6.87395">
        <ele>379</ele>
        <time>2016-10-30T11:24:27.000Z</time>
      </trkpt>
      <trkpt lat="47.51125" lon="6.87388">
        <ele>379</ele>
        <time>2016-10-30T11:24:28.000Z</time>
      </trkpt>
      <trkpt lat="47.51122" lon="6.87381">
        <ele>379</ele>
        <time>2016-10-30T11:24:29.000Z</time>
      </trkpt>
      <trkpt lat="47.51118" lon="6.87374">
        <ele>379</ele>
        <time>2016-10-30T11:24:30.000Z</time>
      </trkpt>
      <trkpt lat="47.51115" lon="6.87367">
        <ele>379</ele>
        <time>2016-10-30T11:24:31.000Z</time>
      </trkpt>
      <trkpt lat="47.51112" lon="6.87359">
        <ele>379</ele>
        <time>2016-10-30T11:24:32.000Z</time>
      </trkpt>
      <trkpt lat="47.51109" lon="6.87352">
        <ele>379</ele>
        <time>2016-10-30T11:24:33.000Z</time>
      </trkpt>
      <trkpt lat="47.51106" lon="6.87344">
        <ele>379</ele>
        <time>2016-10-30T11:24:34.000Z</time>
      </trkpt>
      <trkpt lat="47.51103" lon="6.87336">
        <ele>379</ele>
        <time>2016-10-30T11:24:35.000Z</time>
      </trkpt>
      <trkpt lat="47.511" lon="6.87328">
        <ele>378</ele>
        <time>2016-10-30T11:24:36.000Z</time>
      </trkpt>
      <trkpt lat="47.51097" lon="6.87321">
        <ele>378</ele>
        <time>2016-10-30T11:24:37.000Z</time>
      </trkpt>
      <trkpt lat="47.51095" lon="6.87315">
        <ele>378</ele>
        <time>2016-10-30T11:24:38.000Z</time>
      </trkpt>
      <trkpt lat="47.51092" lon="6.87308">
        <ele>378</ele>
        <time>2016-10-30T11:24:39.000Z</time>
      </trkpt>
      <trkpt lat="47.5109" lon="6.87301">
        <ele>377</ele>
        <time>2016-10-30T11:24:40.000Z</time>
      </trkpt>
      <trkpt lat="47.51088" lon="6.87293">
        <ele>377</ele>
        <time>2016-10-30T11:24:41.000Z</time>
      </trkpt>
      <trkpt lat="47.51085" lon="6.87287">
        <ele>377</ele>
        <time>2016-10-30T11:24:42.000Z</time>
      </trkpt>
      <trkpt lat="47.51081" lon="6.87279">
        <ele>377</ele>
        <time>2016-10-30T11:24:43.000Z</time>
      </trkpt>
      <trkpt lat="47.51078" lon="6.87272">
        <ele>377</ele>
        <time>2016-10-30T11:24:44.000Z</time>
      </trkpt>
      <trkpt lat="47.51076" lon="6.87265">
        <ele>377</ele>
        <time>2016-10-30T11:24:45.000Z</time>
      </trkpt>
      <trkpt lat="47.51072" lon="6.87257">
        <ele>378</ele>
        <time>2016-10-30T11:24:46.000Z</time>
      </trkpt>
      <trkpt lat="47.51069" lon="6.87249">
        <ele>378</ele>
        <time>2016-10-30T11:24:47.000Z</time>
      </trkpt>
      <trkpt lat="47.51066" lon="6.87241">
        <ele>378</ele>
        <time>2016-10-30T11:24:48.000Z</time>
      </trkpt>
      <trkpt lat="47.51063" lon="6.87233">
        <ele>377</ele>
        <time>2016-10-30T11:24:49.000Z</time>
      </trkpt>
      <trkpt lat="47.5106" lon="6.87226">
        <ele>377</ele>
        <time>2016-10-30T11:24:50.000Z</time>
      </trkpt>
      <trkpt lat="47.51058" lon="6.87218">
        <ele>377</ele>
        <time>2016-10-30T11:24:51.000Z</time>
      </trkpt>
      <trkpt lat="47.51055" lon="6.8721">
        <ele>377</ele>
        <time>2016-10-30T11:24:52.000Z</time>
      </trkpt>
      <trkpt lat="47.51052" lon="6.87203">
        <ele>377</ele>
        <time>2016-10-30T11:24:53.000Z</time>
      </trkpt>
      <trkpt lat="47.51049" lon="6.87195">
        <ele>377</ele>
        <time>2016-10-30T11:24:54.000Z</time>
      </trkpt>
      <trkpt lat="47.51046" lon="6.87187">
        <ele>377</ele>
        <time>2016-10-30T11:24:55.000Z</time>
      </trkpt>
      <trkpt lat="47.51042" lon="6.87179">
        <ele>377</ele>
        <time>2016-10-30T11:24:56.000Z</time>
      </trkpt>
      <trkpt lat="47.51039" lon="6.87171">
        <ele>377</ele>
        <time>2016-10-30T11:24:57.000Z</time>
      </trkpt>
      <trkpt lat="47.51036" lon="6.87163">
        <ele>376</ele>
        <time>2016-10-30T11:24:58.000Z</time>
      </trkpt>
      <trkpt lat="47.51033" lon="6.87154">
        <ele>376</ele>
        <time>2016-10-30T11:24:59.000Z</time>
      </trkpt>
      <trkpt lat="47.5103" lon="6.87145">
        <ele>376</ele>
        <time>2016-10-30T11:25:00.000Z</time>
      </trkpt>
      <trkpt lat="47.51028" lon="6.87136">
        <ele>376</ele>
        <time>2016-10-30T11:25:01.000Z</time>
      </trkpt>
      <trkpt lat="47.51026" lon="6.87127">
        <ele>376</ele>
        <time>2016-10-30T11:25:02.000Z</time>
      </trkpt>
      <trkpt lat="47.51024" lon="6.87117">
        <ele>376</ele>
        <time>2016-10-30T11:25:03.000Z</time>
      </trkpt>
      <trkpt lat="47.51021" lon="6.87108">
        <ele>376</ele>
        <time>2016-10-30T11:25:04.000Z</time>
      </trkpt>
      <trkpt lat="47.51018" lon="6.871">
        <ele>376</ele>
        <time>2016-10-30T11:25:05.000Z</time>
      </trkpt>
      <trkpt lat="47.51015" lon="6.87091">
        <ele>376</ele>
        <time>2016-10-30T11:25:06.000Z</time>
      </trkpt>
      <trkpt lat="47.51012" lon="6.87083">
        <ele>376</ele>
        <time>2016-10-30T11:25:07.000Z</time>
      </trkpt>
      <trkpt lat="47.51008" lon="6.87074">
        <ele>376</ele>
        <time>2016-10-30T11:25:08.000Z</time>
      </trkpt>
      <trkpt lat="47.51006" lon="6.87066">
        <ele>376</ele>
        <time>2016-10-30T11:25:09.000Z</time>
      </trkpt>
      <trkpt lat="47.51003" lon="6.87058">
        <ele>376</ele>
        <time>2016-10-30T11:25:10.000Z</time>
      </trkpt>
      <trkpt lat="47.51" lon="6.8705">
        <ele>375</ele>
        <time>2016-10-30T11:25:11.000Z</time>
      </trkpt>
      <trkpt lat="47.50997" lon="6.87042">
        <ele>375</ele>
        <time>2016-10-30T11:25:12.000Z</time>
      </trkpt>
      <trkpt lat="47.50993" lon="6.87035">
        <ele>376</ele>
        <time>2016-10-30T11:25:13.000Z</time>
      </trkpt>
      <trkpt lat="47.50991" lon="6.87027">
        <ele>376</ele>
        <time>2016-10-30T11:25:14.000Z</time>
      </trkpt>
      <trkpt lat="47.50988" lon="6.8702">
        <ele>376</ele>
        <time>2016-10-30T11:25:15.000Z</time>
      </trkpt>
      <trkpt lat="47.50986" lon="6.87011">
        <ele>377</ele>
        <time>2016-10-30T11:25:16.000Z</time>
      </trkpt>
      <trkpt lat="47.50983" lon="6.87004">
        <ele>377</ele>
        <time>2016-10-30T11:25:17.000Z</time>
      </trkpt>
      <trkpt lat="47.50981" lon="6.86997">
        <ele>378</ele>
        <time>2016-10-30T11:25:18.000Z</time>
      </trkpt>
      <trkpt lat="47.50978" lon="6.86989">
        <ele>377</ele>
        <time>2016-10-30T11:25:19.000Z</time>
      </trkpt>
      <trkpt lat="47.50974" lon="6.86982">
        <ele>377</ele>
        <time>2016-10-30T11:25:20.000Z</time>
      </trkpt>
      <trkpt lat="47.50971" lon="6.86974">
        <ele>376</ele>
        <time>2016-10-30T11:25:21.000Z</time>
      </trkpt>
      <trkpt lat="47.50968" lon="6.86967">
        <ele>376</ele>
        <time>2016-10-30T11:25:22.000Z</time>
      </trkpt>
      <trkpt lat="47.50965" lon="6.8696">
        <ele>376</ele>
        <time>2016-10-30T11:25:23.000Z</time>
      </trkpt>
      <trkpt lat="47.50963" lon="6.86952">
        <ele>376</ele>
        <time>2016-10-30T11:25:24.000Z</time>
      </trkpt>
      <trkpt lat="47.50959" lon="6.86945">
        <ele>376</ele>
        <time>2016-10-30T11:25:25.000Z</time>
      </trkpt>
      <trkpt lat="47.50956" lon="6.86937">
        <ele>376</ele>
        <time>2016-10-30T11:25:26.000Z</time>
      </trkpt>
      <trkpt lat="47.50953" lon="6.86929">
        <ele>376</ele>
        <time>2016-10-30T11:25:27.000Z</time>
      </trkpt>
      <trkpt lat="47.5095" lon="6.86922">
        <ele>375</ele>
        <time>2016-10-30T11:25:28.000Z</time>
      </trkpt>
      <trkpt lat="47.50947" lon="6.86914">
        <ele>374</ele>
        <time>2016-10-30T11:25:29.000Z</time>
      </trkpt>
      <trkpt lat="47.50944" lon="6.86907">
        <ele>374</ele>
        <time>2016-10-30T11:25:30.000Z</time>
      </trkpt>
      <trkpt lat="47.50942" lon="6.86898">
        <ele>374</ele>
        <time>2016-10-30T11:25:31.000Z</time>
      </trkpt>
      <trkpt lat="47.50939" lon="6.8689">
        <ele>374</ele>
        <time>2016-10-30T11:25:32.000Z</time>
      </trkpt>
      <trkpt lat="47.50936" lon="6.86882">
        <ele>374</ele>
        <time>2016-10-30T11:25:33.000Z</time>
      </trkpt>
      <trkpt lat="47.50934" lon="6.86873">
        <ele>373</ele>
        <time>2016-10-30T11:25:34.000Z</time>
      </trkpt>
      <trkpt lat="47.50932" lon="6.86864">
        <ele>373</ele>
        <time>2016-10-30T11:25:35.000Z</time>
      </trkpt>
      <trkpt lat="47.50929" lon="6.86855">
        <ele>373</ele>
        <time>2016-10-30T11:25:36.000Z</time>
      </trkpt>
      <trkpt lat="47.50925" lon="6.86847">
        <ele>373</ele>
        <time>2016-10-30T11:25:37.000Z</time>
      </trkpt>
      <trkpt lat="47.50921" lon="6.86839">
        <ele>373</ele>
        <time>2016-10-30T11:25:38.000Z</time>
      </trkpt>
      <trkpt lat="47.50918" lon="6.86831">
        <ele>372</ele>
        <time>2016-10-30T11:25:39.000Z</time>
      </trkpt>
      <trkpt lat="47.50915" lon="6.86822">
        <ele>370</ele>
        <time>2016-10-30T11:25:40.000Z</time>
      </trkpt>
      <trkpt lat="47.50912" lon="6.86812">
        <ele>369</ele>
        <time>2016-10-30T11:25:41.000Z</time>
      </trkpt>
      <trkpt lat="47.50908" lon="6.86804">
        <ele>368</ele>
        <time>2016-10-30T11:25:42.000Z</time>
      </trkpt>
      <trkpt lat="47.50905" lon="6.86794">
        <ele>367</ele>
        <time>2016-10-30T11:25:43.000Z</time>
      </trkpt>
      <trkpt lat="47.50902" lon="6.86785">
        <ele>367</ele>
        <time>2016-10-30T11:25:44.000Z</time>
      </trkpt>
      <trkpt lat="47.50898" lon="6.86775">
        <ele>366</ele>
        <time>2016-10-30T11:25:45.000Z</time>
      </trkpt>
      <trkpt lat="47.50895" lon="6.86765">
        <ele>366</ele>
        <time>2016-10-30T11:25:46.000Z</time>
      </trkpt>
      <trkpt lat="47.50891" lon="6.86753">
        <ele>366</ele>
        <time>2016-10-30T11:25:47.000Z</time>
      </trkpt>
      <trkpt lat="47.50888" lon="6.86742">
        <ele>364</ele>
        <time>2016-10-30T11:25:48.000Z</time>
      </trkpt>
      <trkpt lat="47.50884" lon="6.8673">
        <ele>363</ele>
        <time>2016-10-30T11:25:49.000Z</time>
      </trkpt>
      <trkpt lat="47.50881" lon="6.86717">
        <ele>363</ele>
        <time>2016-10-30T11:25:50.000Z</time>
      </trkpt>
      <trkpt lat="47.50877" lon="6.86705">
        <ele>363</ele>
        <time>2016-10-30T11:25:51.000Z</time>
      </trkpt>
      <trkpt lat="47.50873" lon="6.86693">
        <ele>363</ele>
        <time>2016-10-30T11:25:52.000Z</time>
      </trkpt>
      <trkpt lat="47.50868" lon="6.86682">
        <ele>362</ele>
        <time>2016-10-30T11:25:53.000Z</time>
      </trkpt>
      <trkpt lat="47.50864" lon="6.8667">
        <ele>362</ele>
        <time>2016-10-30T11:25:54.000Z</time>
      </trkpt>
      <trkpt lat="47.5086" lon="6.86659">
        <ele>360</ele>
        <time>2016-10-30T11:25:55.000Z</time>
      </trkpt>
      <trkpt lat="47.50856" lon="6.86647">
        <ele>360</ele>
        <time>2016-10-30T11:25:56.000Z</time>
      </trkpt>
      <trkpt lat="47.50852" lon="6.86634">
        <ele>360</ele>
        <time>2016-10-30T11:25:57.000Z</time>
      </trkpt>
      <trkpt lat="47.50848" lon="6.86623">
        <ele>360</ele>
        <time>2016-10-30T11:25:58.000Z</time>
      </trkpt>
      <trkpt lat="47.50842" lon="6.86611">
        <ele>359</ele>
        <time>2016-10-30T11:25:59.000Z</time>
      </trkpt>
      <trkpt lat="47.50837" lon="6.866">
        <ele>359</ele>
        <time>2016-10-30T11:26:00.000Z</time>
      </trkpt>
      <trkpt lat="47.50832" lon="6.86588">
        <ele>358</ele>
        <time>2016-10-30T11:26:01.000Z</time>
      </trkpt>
      <trkpt lat="47.50827" lon="6.86576">
        <ele>357</ele>
        <time>2016-10-30T11:26:02.000Z</time>
      </trkpt>
      <trkpt lat="47.50822" lon="6.86563">
        <ele>355</ele>
        <time>2016-10-30T11:26:03.000Z</time>
      </trkpt>
      <trkpt lat="47.50815" lon="6.86552">
        <ele>354</ele>
        <time>2016-10-30T11:26:04.000Z</time>
      </trkpt>
      <trkpt lat="47.50809" lon="6.8654">
        <ele>354</ele>
        <time>2016-10-30T11:26:05.000Z</time>
      </trkpt>
      <trkpt lat="47.50802" lon="6.86527">
        <ele>353</ele>
        <time>2016-10-30T11:26:06.000Z</time>
      </trkpt>
      <trkpt lat="47.50797" lon="6.86514">
        <ele>353</ele>
        <time>2016-10-30T11:26:07.000Z</time>
      </trkpt>
      <trkpt lat="47.50792" lon="6.86502">
        <ele>352</ele>
        <time>2016-10-30T11:26:08.000Z</time>
      </trkpt>
      <trkpt lat="47.50786" lon="6.8649">
        <ele>350</ele>
        <time>2016-10-30T11:26:09.000Z</time>
      </trkpt>
      <trkpt lat="47.50781" lon="6.86477">
        <ele>349</ele>
        <time>2016-10-30T11:26:10.000Z</time>
      </trkpt>
      <trkpt lat="47.50775" lon="6.86467">
        <ele>349</ele>
        <time>2016-10-30T11:26:11.000Z</time>
      </trkpt>
      <trkpt lat="47.5077" lon="6.86456">
        <ele>349</ele>
        <time>2016-10-30T11:26:12.000Z</time>
      </trkpt>
      <trkpt lat="47.50765" lon="6.86444">
        <ele>348</ele>
        <time>2016-10-30T11:26:13.000Z</time>
      </trkpt>
      <trkpt lat="47.5076" lon="6.86433">
        <ele>348</ele>
        <time>2016-10-30T11:26:14.000Z</time>
      </trkpt>
      <trkpt lat="47.50755" lon="6.8642">
        <ele>347</ele>
        <time>2016-10-30T11:26:15.000Z</time>
      </trkpt>
      <trkpt lat="47.5075" lon="6.86408">
        <ele>346</ele>
        <time>2016-10-30T11:26:16.000Z</time>
      </trkpt>
      <trkpt lat="47.50745" lon="6.86396">
        <ele>344</ele>
        <time>2016-10-30T11:26:17.000Z</time>
      </trkpt>
      <trkpt lat="47.50739" lon="6.86385">
        <ele>343</ele>
        <time>2016-10-30T11:26:18.000Z</time>
      </trkpt>
      <trkpt lat="47.50734" lon="6.86373">
        <ele>343</ele>
        <time>2016-10-30T11:26:19.000Z</time>
      </trkpt>
      <trkpt lat="47.50728" lon="6.86363">
        <ele>342</ele>
        <time>2016-10-30T11:26:20.000Z</time>
      </trkpt>
      <trkpt lat="47.50723" lon="6.86353">
        <ele>342</ele>
        <time>2016-10-30T11:26:21.000Z</time>
      </trkpt>
      <trkpt lat="47.50718" lon="6.86343">
        <ele>342</ele>
        <time>2016-10-30T11:26:22.000Z</time>
      </trkpt>
      <trkpt lat="47.50713" lon="6.86334">
        <ele>342</ele>
        <time>2016-10-30T11:26:23.000Z</time>
      </trkpt>
      <trkpt lat="47.50708" lon="6.86324">
        <ele>339</ele>
        <time>2016-10-30T11:26:24.000Z</time>
      </trkpt>
      <trkpt lat="47.50704" lon="6.86314">
        <ele>339</ele>
        <time>2016-10-30T11:26:25.000Z</time>
      </trkpt>
      <trkpt lat="47.50699" lon="6.86303">
        <ele>339</ele>
        <time>2016-10-30T11:26:26.000Z</time>
      </trkpt>
      <trkpt lat="47.50697" lon="6.86294">
        <ele>338</ele>
        <time>2016-10-30T11:26:27.000Z</time>
      </trkpt>
      <trkpt lat="47.50695" lon="6.86282">
        <ele>338</ele>
        <time>2016-10-30T11:26:28.000Z</time>
      </trkpt>
      <trkpt lat="47.50696" lon="6.8627">
        <ele>338</ele>
        <time>2016-10-30T11:26:29.000Z</time>
      </trkpt>
      <trkpt lat="47.50699" lon="6.86259">
        <ele>338</ele>
        <time>2016-10-30T11:26:30.000Z</time>
      </trkpt>
      <trkpt lat="47.50704" lon="6.86252">
        <ele>338</ele>
        <time>2016-10-30T11:26:31.000Z</time>
      </trkpt>
      <trkpt lat="47.50707" lon="6.86246">
        <ele>335</ele>
        <time>2016-10-30T11:26:32.000Z</time>
      </trkpt>
      <trkpt lat="47.50711" lon="6.86243">
        <ele>335</ele>
        <time>2016-10-30T11:26:36.000Z</time>
      </trkpt>
      <trkpt lat="47.50712" lon="6.8624">
        <ele>335</ele>
        <time>2016-10-30T11:26:37.000Z</time>
      </trkpt>
      <trkpt lat="47.50713" lon="6.86236">
        <ele>335</ele>
        <time>2016-10-30T11:26:38.000Z</time>
      </trkpt>
      <trkpt lat="47.50713" lon="6.8623">
        <ele>334</ele>
        <time>2016-10-30T11:26:39.000Z</time>
      </trkpt>
      <trkpt lat="47.50712" lon="6.86224">
        <ele>334</ele>
        <time>2016-10-30T11:26:40.000Z</time>
      </trkpt>
      <trkpt lat="47.50711" lon="6.86216">
        <ele>334</ele>
        <time>2016-10-30T11:26:41.000Z</time>
      </trkpt>
      <trkpt lat="47.50709" lon="6.86207">
        <ele>334</ele>
        <time>2016-10-30T11:26:42.000Z</time>
      </trkpt>
      <trkpt lat="47.50708" lon="6.86197">
        <ele>333</ele>
        <time>2016-10-30T11:26:43.000Z</time>
      </trkpt>
      <trkpt lat="47.50706" lon="6.86188">
        <ele>333</ele>
        <time>2016-10-30T11:26:44.000Z</time>
      </trkpt>
      <trkpt lat="47.50704" lon="6.86178">
        <ele>333</ele>
        <time>2016-10-30T11:26:45.000Z</time>
      </trkpt>
      <trkpt lat="47.50701" lon="6.86169">
        <ele>333</ele>
        <time>2016-10-30T11:26:46.000Z</time>
      </trkpt>
      <trkpt lat="47.50699" lon="6.86161">
        <ele>330</ele>
        <time>2016-10-30T11:26:47.000Z</time>
      </trkpt>
      <trkpt lat="47.50697" lon="6.86157">
        <ele>330</ele>
        <time>2016-10-30T11:26:48.000Z</time>
      </trkpt>
      <trkpt lat="47.50696" lon="6.86153">
        <ele>330</ele>
        <time>2016-10-30T11:26:49.000Z</time>
      </trkpt>
      <trkpt lat="47.50695" lon="6.86148">
        <ele>330</ele>
        <time>2016-10-30T11:26:50.000Z</time>
      </trkpt>
      <trkpt lat="47.50692" lon="6.86143">
        <ele>330</ele>
        <time>2016-10-30T11:26:51.000Z</time>
      </trkpt>
      <trkpt lat="47.50689" lon="6.86138">
        <ele>330</ele>
        <time>2016-10-30T11:26:52.000Z</time>
      </trkpt>
      <trkpt lat="47.50685" lon="6.86133">
        <ele>330</ele>
        <time>2016-10-30T11:26:53.000Z</time>
      </trkpt>
      <trkpt lat="47.5068" lon="6.86132">
        <ele>330</ele>
        <time>2016-10-30T11:26:54.000Z</time>
      </trkpt>
      <trkpt lat="47.50674" lon="6.86134">
        <ele>330</ele>
        <time>2016-10-30T11:26:55.000Z</time>
      </trkpt>
      <trkpt lat="47.50669" lon="6.86137">
        <ele>330</ele>
        <time>2016-10-30T11:26:56.000Z</time>
      </trkpt>
      <trkpt lat="47.50663" lon="6.8614">
        <ele>331</ele>
        <time>2016-10-30T11:26:57.000Z</time>
      </trkpt>
      <trkpt lat="47.50658" lon="6.86143">
        <ele>331</ele>
        <time>2016-10-30T11:26:58.000Z</time>
      </trkpt>
      <trkpt lat="47.50653" lon="6.86144">
        <ele>331</ele>
        <time>2016-10-30T11:26:59.000Z</time>
      </trkpt>
      <trkpt lat="47.50648" lon="6.86145">
        <ele>331</ele>
        <time>2016-10-30T11:27:00.001Z</time>
      </trkpt>
      <trkpt lat="47.50644" lon="6.86146">
        <ele>331</ele>
        <time>2016-10-30T11:27:01.000Z</time>
      </trkpt>
      <trkpt lat="47.50639" lon="6.86147">
        <ele>331</ele>
        <time>2016-10-30T11:27:02.000Z</time>
      </trkpt>
      <trkpt lat="47.50635" lon="6.86148">
        <ele>331</ele>
        <time>2016-10-30T11:27:03.000Z</time>
      </trkpt>
      <trkpt lat="47.5063" lon="6.86148">
        <ele>331</ele>
        <time>2016-10-30T11:27:04.000Z</time>
      </trkpt>
      <trkpt lat="47.50625" lon="6.86148">
        <ele>331</ele>
        <time>2016-10-30T11:27:05.000Z</time>
      </trkpt>
      <trkpt lat="47.5062" lon="6.86147">
        <ele>331</ele>
        <time>2016-10-30T11:27:06.000Z</time>
      </trkpt>
      <trkpt lat="47.50616" lon="6.86145">
        <ele>331</ele>
        <time>2016-10-30T11:27:07.000Z</time>
      </trkpt>
      <trkpt lat="47.50611" lon="6.86141">
        <ele>331</ele>
        <time>2016-10-30T11:27:08.000Z</time>
      </trkpt>
      <trkpt lat="47.50607" lon="6.86138">
        <ele>331</ele>
        <time>2016-10-30T11:27:09.000Z</time>
      </trkpt>
      <trkpt lat="47.50602" lon="6.86134">
        <ele>331</ele>
        <time>2016-10-30T11:27:10.000Z</time>
      </trkpt>
      <trkpt lat="47.50598" lon="6.86131">
        <ele>331</ele>
        <time>2016-10-30T11:27:11.000Z</time>
      </trkpt>
      <trkpt lat="47.50593" lon="6.86129">
        <ele>331</ele>
        <time>2016-10-30T11:27:12.000Z</time>
      </trkpt>
      <trkpt lat="47.50588" lon="6.86129">
        <ele>331</ele>
        <time>2016-10-30T11:27:13.000Z</time>
      </trkpt>
      <trkpt lat="47.50583" lon="6.86129">
        <ele>332</ele>
        <time>2016-10-30T11:27:14.000Z</time>
      </trkpt>
      <trkpt lat="47.50578" lon="6.86129">
        <ele>332</ele>
        <time>2016-10-30T11:27:15.000Z</time>
      </trkpt>
      <trkpt lat="47.50574" lon="6.8613">
        <ele>333</ele>
        <time>2016-10-30T11:27:16.000Z</time>
      </trkpt>
      <trkpt lat="47.50571" lon="6.86132">
        <ele>333</ele>
        <time>2016-10-30T11:27:17.000Z</time>
      </trkpt>
      <trkpt lat="47.50568" lon="6.86137">
        <ele>333</ele>
        <time>2016-10-30T11:27:18.000Z</time>
      </trkpt>
      <trkpt lat="47.50567" lon="6.86141">
        <ele>333</ele>
        <time>2016-10-30T11:27:19.000Z</time>
      </trkpt>
      <trkpt lat="47.50567" lon="6.86147">
        <ele>333</ele>
        <time>2016-10-30T11:27:20.000Z</time>
      </trkpt>
      <trkpt lat="47.50566" lon="6.86153">
        <ele>332</ele>
        <time>2016-10-30T11:27:21.000Z</time>
      </trkpt>
      <trkpt lat="47.50565" lon="6.86159">
        <ele>332</ele>
        <time>2016-10-30T11:27:22.000Z</time>
      </trkpt>
      <trkpt lat="47.50565" lon="6.86166">
        <ele>332</ele>
        <time>2016-10-30T11:27:23.000Z</time>
      </trkpt>
      <trkpt lat="47.50565" lon="6.86172">
        <ele>332</ele>
        <time>2016-10-30T11:27:24.000Z</time>
      </trkpt>
      <trkpt lat="47.50565" lon="6.86179">
        <ele>332</ele>
        <time>2016-10-30T11:27:25.000Z</time>
      </trkpt>
      <trkpt lat="47.50567" lon="6.86186">
        <ele>333</ele>
        <time>2016-10-30T11:27:26.000Z</time>
      </trkpt>
      <trkpt lat="47.50567" lon="6.86192">
        <ele>333</ele>
        <time>2016-10-30T11:27:27.000Z</time>
      </trkpt>
      <trkpt lat="47.50567" lon="6.86199">
        <ele>333</ele>
        <time>2016-10-30T11:27:28.000Z</time>
      </trkpt>
      <trkpt lat="47.50568" lon="6.86205">
        <ele>333</ele>
        <time>2016-10-30T11:27:29.000Z</time>
      </trkpt>
      <trkpt lat="47.50568" lon="6.86212">
        <ele>333</ele>
        <time>2016-10-30T11:27:30.000Z</time>
      </trkpt>
      <trkpt lat="47.50568" lon="6.86218">
        <ele>333</ele>
        <time>2016-10-30T11:27:31.000Z</time>
      </trkpt>
      <trkpt lat="47.50568" lon="6.86224">
        <ele>333</ele>
        <time>2016-10-30T11:27:32.000Z</time>
      </trkpt>
      <trkpt lat="47.50568" lon="6.86231">
        <ele>333</ele>
        <time>2016-10-30T11:27:33.000Z</time>
      </trkpt>
      <trkpt lat="47.50568" lon="6.86238">
        <ele>333</ele>
        <time>2016-10-30T11:27:34.000Z</time>
      </trkpt>
      <trkpt lat="47.50568" lon="6.86245">
        <ele>333</ele>
        <time>2016-10-30T11:27:35.000Z</time>
      </trkpt>
      <trkpt lat="47.50568" lon="6.86251">
        <ele>333</ele>
        <time>2016-10-30T11:27:36.000Z</time>
      </trkpt>
      <trkpt lat="47.50568" lon="6.86258">
        <ele>333</ele>
        <time>2016-10-30T11:27:37.000Z</time>
      </trkpt>
      <trkpt lat="47.50567" lon="6.86265">
        <ele>333</ele>
        <time>2016-10-30T11:27:38.000Z</time>
      </trkpt>
      <trkpt lat="47.50568" lon="6.86272">
        <ele>334</ele>
        <time>2016-10-30T11:27:39.000Z</time>
      </trkpt>
      <trkpt lat="47.50567" lon="6.86278">
        <ele>334</ele>
        <time>2016-10-30T11:27:40.000Z</time>
      </trkpt>
      <trkpt lat="47.50567" lon="6.86284">
        <ele>334</ele>
        <time>2016-10-30T11:27:41.000Z</time>
      </trkpt>
      <trkpt lat="47.50567" lon="6.8629">
        <ele>334</ele>
        <time>2016-10-30T11:27:41.999Z</time>
      </trkpt>
      <trkpt lat="47.50567" lon="6.86296">
        <ele>334</ele>
        <time>2016-10-30T11:27:43.000Z</time>
      </trkpt>
      <trkpt lat="47.50567" lon="6.86302">
        <ele>334</ele>
        <time>2016-10-30T11:27:44.000Z</time>
      </trkpt>
      <trkpt lat="47.50567" lon="6.86309">
        <ele>334</ele>
        <time>2016-10-30T11:27:45.000Z</time>
      </trkpt>
      <trkpt lat="47.50566" lon="6.86315">
        <ele>334</ele>
        <time>2016-10-30T11:27:46.000Z</time>
      </trkpt>
      <trkpt lat="47.50564" lon="6.86321">
        <ele>334</ele>
        <time>2016-10-30T11:27:47.000Z</time>
      </trkpt>
      <trkpt lat="47.50563" lon="6.86327">
        <ele>334</ele>
        <time>2016-10-30T11:27:48.000Z</time>
      </trkpt>
      <trkpt lat="47.50562" lon="6.86333">
        <ele>334</ele>
        <time>2016-10-30T11:27:49.000Z</time>
      </trkpt>
      <trkpt lat="47.50561" lon="6.86339">
        <ele>335</ele>
        <time>2016-10-30T11:27:50.000Z</time>
      </trkpt>
      <trkpt lat="47.5056" lon="6.86346">
        <ele>335</ele>
        <time>2016-10-30T11:27:51.000Z</time>
      </trkpt>
      <trkpt lat="47.50558" lon="6.86351">
        <ele>335</ele>
        <time>2016-10-30T11:27:52.000Z</time>
      </trkpt>
      <trkpt lat="47.50556" lon="6.86357">
        <ele>335</ele>
        <time>2016-10-30T11:27:53.000Z</time>
      </trkpt>
      <trkpt lat="47.50555" lon="6.86363">
        <ele>335</ele>
        <time>2016-10-30T11:27:54.000Z</time>
      </trkpt>
      <trkpt lat="47.50553" lon="6.86369">
        <ele>335</ele>
        <time>2016-10-30T11:27:55.000Z</time>
      </trkpt>
      <trkpt lat="47.50551" lon="6.86374">
        <ele>335</ele>
        <time>2016-10-30T11:27:56.000Z</time>
      </trkpt>
      <trkpt lat="47.5055" lon="6.86379">
        <ele>335</ele>
        <time>2016-10-30T11:27:57.000Z</time>
      </trkpt>
      <trkpt lat="47.50548" lon="6.86384">
        <ele>335</ele>
        <time>2016-10-30T11:27:58.000Z</time>
      </trkpt>
      <trkpt lat="47.50547" lon="6.86389">
        <ele>335</ele>
        <time>2016-10-30T11:27:59.000Z</time>
      </trkpt>
      <trkpt lat="47.50546" lon="6.86394">
        <ele>335</ele>
        <time>2016-10-30T11:28:00.000Z</time>
      </trkpt>
      <trkpt lat="47.50544" lon="6.86398">
        <ele>335</ele>
        <time>2016-10-30T11:28:01.000Z</time>
      </trkpt>
      <trkpt lat="47.50542" lon="6.86403">
        <ele>335</ele>
        <time>2016-10-30T11:28:02.000Z</time>
      </trkpt>
      <trkpt lat="47.50541" lon="6.86407">
        <ele>335</ele>
        <time>2016-10-30T11:28:03.000Z</time>
      </trkpt>
      <trkpt lat="47.50539" lon="6.86412">
        <ele>336</ele>
        <time>2016-10-30T11:28:04.000Z</time>
      </trkpt>
      <trkpt lat="47.50537" lon="6.86416">
        <ele>336</ele>
        <time>2016-10-30T11:28:05.000Z</time>
      </trkpt>
      <trkpt lat="47.50535" lon="6.8642">
        <ele>337</ele>
        <time>2016-10-30T11:28:06.000Z</time>
      </trkpt>
      <trkpt lat="47.50532" lon="6.86422">
        <ele>337</ele>
        <time>2016-10-30T11:28:07.000Z</time>
      </trkpt>
      <trkpt lat="47.50529" lon="6.86423">
        <ele>337</ele>
        <time>2016-10-30T11:28:08.000Z</time>
      </trkpt>
      <trkpt lat="47.50526" lon="6.86422">
        <ele>337</ele>
        <time>2016-10-30T11:28:09.000Z</time>
      </trkpt>
      <trkpt lat="47.50522" lon="6.86419">
        <ele>337</ele>
        <time>2016-10-30T11:28:10.000Z</time>
      </trkpt>
      <trkpt lat="47.50518" lon="6.86415">
        <ele>336</ele>
        <time>2016-10-30T11:28:11.000Z</time>
      </trkpt>
      <trkpt lat="47.50514" lon="6.86411">
        <ele>336</ele>
        <time>2016-10-30T11:28:12.000Z</time>
      </trkpt>
      <trkpt lat="47.50509" lon="6.86408">
        <ele>336</ele>
        <time>2016-10-30T11:28:13.000Z</time>
      </trkpt>
      <trkpt lat="47.50506" lon="6.86405">
        <ele>336</ele>
        <time>2016-10-30T11:28:14.000Z</time>
      </trkpt>
      <trkpt lat="47.50501" lon="6.86402">
        <ele>336</ele>
        <time>2016-10-30T11:28:15.000Z</time>
      </trkpt>
      <trkpt lat="47.50498" lon="6.86399">
        <ele>337</ele>
        <time>2016-10-30T11:28:16.000Z</time>
      </trkpt>
      <trkpt lat="47.50494" lon="6.86396">
        <ele>337</ele>
        <time>2016-10-30T11:28:17.000Z</time>
      </trkpt>
      <trkpt lat="47.5049" lon="6.86394">
        <ele>337</ele>
        <time>2016-10-30T11:28:18.000Z</time>
      </trkpt>
      <trkpt lat="47.50487" lon="6.86392">
        <ele>337</ele>
        <time>2016-10-30T11:28:19.000Z</time>
      </trkpt>
      <trkpt lat="47.50483" lon="6.86389">
        <ele>337</ele>
        <time>2016-10-30T11:28:20.000Z</time>
      </trkpt>
      <trkpt lat="47.50479" lon="6.86387">
        <ele>337</ele>
        <time>2016-10-30T11:28:21.000Z</time>
      </trkpt>
      <trkpt lat="47.50475" lon="6.86385">
        <ele>337</ele>
        <time>2016-10-30T11:28:22.000Z</time>
      </trkpt>
      <trkpt lat="47.50472" lon="6.86383">
        <ele>337</ele>
        <time>2016-10-30T11:28:23.000Z</time>
      </trkpt>
      <trkpt lat="47.50468" lon="6.86381">
        <ele>338</ele>
        <time>2016-10-30T11:28:24.000Z</time>
      </trkpt>
      <trkpt lat="47.50465" lon="6.86378">
        <ele>338</ele>
        <time>2016-10-30T11:28:25.000Z</time>
      </trkpt>
      <trkpt lat="47.50461" lon="6.86376">
        <ele>338</ele>
        <time>2016-10-30T11:28:26.000Z</time>
      </trkpt>
      <trkpt lat="47.50458" lon="6.86374">
        <ele>338</ele>
        <time>2016-10-30T11:28:27.000Z</time>
      </trkpt>
      <trkpt lat="47.50454" lon="6.86372">
        <ele>338</ele>
        <time>2016-10-30T11:28:28.000Z</time>
      </trkpt>
      <trkpt lat="47.5045" lon="6.8637">
        <ele>338</ele>
        <time>2016-10-30T11:28:29.000Z</time>
      </trkpt>
      <trkpt lat="47.50445" lon="6.86369">
        <ele>338</ele>
        <time>2016-10-30T11:28:30.000Z</time>
      </trkpt>
      <trkpt lat="47.50441" lon="6.86368">
        <ele>338</ele>
        <time>2016-10-30T11:28:31.000Z</time>
      </trkpt>
      <trkpt lat="47.50437" lon="6.86367">
        <ele>338</ele>
        <time>2016-10-30T11:28:32.000Z</time>
      </trkpt>
      <trkpt lat="47.50432" lon="6.86366">
        <ele>338</ele>
        <time>2016-10-30T11:28:33.000Z</time>
      </trkpt>
      <trkpt lat="47.50428" lon="6.86365">
        <ele>338</ele>
        <time>2016-10-30T11:28:34.000Z</time>
      </trkpt>
      <trkpt lat="47.50423" lon="6.86364">
        <ele>338</ele>
        <time>2016-10-30T11:28:35.000Z</time>
      </trkpt>
      <trkpt lat="47.50418" lon="6.86363">
        <ele>338</ele>
        <time>2016-10-30T11:28:36.000Z</time>
      </trkpt>
      <trkpt lat="47.50413" lon="6.86363">
        <ele>340</ele>
        <time>2016-10-30T11:28:37.000Z</time>
      </trkpt>
      <trkpt lat="47.50409" lon="6.86363">
        <ele>340</ele>
        <time>2016-10-30T11:28:38.000Z</time>
      </trkpt>
      <trkpt lat="47.50404" lon="6.86363">
        <ele>340</ele>
        <time>2016-10-30T11:28:39.000Z</time>
      </trkpt>
      <trkpt lat="47.50399" lon="6.86362">
        <ele>340</ele>
        <time>2016-10-30T11:28:40.000Z</time>
      </trkpt>
      <trkpt lat="47.50394" lon="6.86362">
        <ele>341</ele>
        <time>2016-10-30T11:28:41.000Z</time>
      </trkpt>
      <trkpt lat="47.50389" lon="6.8636">
        <ele>341</ele>
        <time>2016-10-30T11:28:42.000Z</time>
      </trkpt>
      <trkpt lat="47.50385" lon="6.86359">
        <ele>341</ele>
        <time>2016-10-30T11:28:43.000Z</time>
      </trkpt>
      <trkpt lat="47.50379" lon="6.86359">
        <ele>341</ele>
        <time>2016-10-30T11:28:44.000Z</time>
      </trkpt>
      <trkpt lat="47.50374" lon="6.86358">
        <ele>341</ele>
        <time>2016-10-30T11:28:45.000Z</time>
      </trkpt>
      <trkpt lat="47.50369" lon="6.86357">
        <ele>341</ele>
        <time>2016-10-30T11:28:46.000Z</time>
      </trkpt>
      <trkpt lat="47.50364" lon="6.86357">
        <ele>341</ele>
        <time>2016-10-30T11:28:47.000Z</time>
      </trkpt>
      <trkpt lat="47.50359" lon="6.86357">
        <ele>340</ele>
        <time>2016-10-30T11:28:48.000Z</time>
      </trkpt>
      <trkpt lat="47.50353" lon="6.86355">
        <ele>340</ele>
        <time>2016-10-30T11:28:49.000Z</time>
      </trkpt>
      <trkpt lat="47.50348" lon="6.86356">
        <ele>340</ele>
        <time>2016-10-30T11:28:50.000Z</time>
      </trkpt>
      <trkpt lat="47.50343" lon="6.86355">
        <ele>340</ele>
        <time>2016-10-30T11:28:51.000Z</time>
      </trkpt>
      <trkpt lat="47.50337" lon="6.86355">
        <ele>340</ele>
        <time>2016-10-30T11:28:52.000Z</time>
      </trkpt>
      <trkpt lat="47.50332" lon="6.86355">
        <ele>340</ele>
        <time>2016-10-30T11:28:53.000Z</time>
      </trkpt>
      <trkpt lat="47.50327" lon="6.86355">
        <ele>340</ele>
        <time>2016-10-30T11:28:54.000Z</time>
      </trkpt>
      <trkpt lat="47.50322" lon="6.86354">
        <ele>340</ele>
        <time>2016-10-30T11:28:55.000Z</time>
      </trkpt>
      <trkpt lat="47.50316" lon="6.86355">
        <ele>340</ele>
        <time>2016-10-30T11:28:56.000Z</time>
      </trkpt>
      <trkpt lat="47.50312" lon="6.86356">
        <ele>340</ele>
        <time>2016-10-30T11:28:57.000Z</time>
      </trkpt>
      <trkpt lat="47.50307" lon="6.86357">
        <ele>340</ele>
        <time>2016-10-30T11:28:58.000Z</time>
      </trkpt>
      <trkpt lat="47.50302" lon="6.86358">
        <ele>340</ele>
        <time>2016-10-30T11:28:59.000Z</time>
      </trkpt>
      <trkpt lat="47.50297" lon="6.8636">
        <ele>340</ele>
        <time>2016-10-30T11:29:00.000Z</time>
      </trkpt>
      <trkpt lat="47.50293" lon="6.86362">
        <ele>340</ele>
        <time>2016-10-30T11:29:01.000Z</time>
      </trkpt>
      <trkpt lat="47.50288" lon="6.86364">
        <ele>340</ele>
        <time>2016-10-30T11:29:02.000Z</time>
      </trkpt>
      <trkpt lat="47.50283" lon="6.86367">
        <ele>340</ele>
        <time>2016-10-30T11:29:03.000Z</time>
      </trkpt>
      <trkpt lat="47.50279" lon="6.8637">
        <ele>341</ele>
        <time>2016-10-30T11:29:04.000Z</time>
      </trkpt>
      <trkpt lat="47.50276" lon="6.86374">
        <ele>341</ele>
        <time>2016-10-30T11:29:05.000Z</time>
      </trkpt>
      <trkpt lat="47.50272" lon="6.86377">
        <ele>341</ele>
        <time>2016-10-30T11:29:06.000Z</time>
      </trkpt>
      <trkpt lat="47.50268" lon="6.8638">
        <ele>341</ele>
        <time>2016-10-30T11:29:07.000Z</time>
      </trkpt>
      <trkpt lat="47.50264" lon="6.86383">
        <ele>341</ele>
        <time>2016-10-30T11:29:08.000Z</time>
      </trkpt>
      <trkpt lat="47.50261" lon="6.86387">
        <ele>341</ele>
        <time>2016-10-30T11:29:09.000Z</time>
      </trkpt>
      <trkpt lat="47.50259" lon="6.86391">
        <ele>341</ele>
        <time>2016-10-30T11:29:10.000Z</time>
      </trkpt>
      <trkpt lat="47.50256" lon="6.86394">
        <ele>341</ele>
        <time>2016-10-30T11:29:11.000Z</time>
      </trkpt>
      <trkpt lat="47.50253" lon="6.86398">
        <ele>341</ele>
        <time>2016-10-30T11:29:13.000Z</time>
      </trkpt>
      <trkpt lat="47.50252" lon="6.864">
        <ele>341</ele>
        <time>2016-10-30T11:29:14.000Z</time>
      </trkpt>
      <trkpt lat="47.50248" lon="6.86404">
        <ele>341</ele>
        <time>2016-10-30T11:29:18.000Z</time>
      </trkpt>
      <trkpt lat="47.50248" lon="6.86405">
        <ele>341</ele>
        <time>2016-10-30T11:29:19.000Z</time>
      </trkpt>
      <trkpt lat="47.50247" lon="6.86408">
        <ele>341</ele>
        <time>2016-10-30T11:29:20.000Z</time>
      </trkpt>
      <trkpt lat="47.50246" lon="6.86412">
        <ele>342</ele>
        <time>2016-10-30T11:29:21.000Z</time>
      </trkpt>
      <trkpt lat="47.50245" lon="6.86416">
        <ele>342</ele>
        <time>2016-10-30T11:29:22.000Z</time>
      </trkpt>
      <trkpt lat="47.50245" lon="6.8642">
        <ele>343</ele>
        <time>2016-10-30T11:29:23.000Z</time>
      </trkpt>
      <trkpt lat="47.50243" lon="6.86425">
        <ele>343</ele>
        <time>2016-10-30T11:29:24.000Z</time>
      </trkpt>
      <trkpt lat="47.50242" lon="6.86429">
        <ele>344</ele>
        <time>2016-10-30T11:29:25.000Z</time>
      </trkpt>
      <trkpt lat="47.5024" lon="6.86432">
        <ele>344</ele>
        <time>2016-10-30T11:29:26.000Z</time>
      </trkpt>
      <trkpt lat="47.50238" lon="6.86436">
        <ele>345</ele>
        <time>2016-10-30T11:29:27.000Z</time>
      </trkpt>
      <trkpt lat="47.50237" lon="6.86439">
        <ele>345</ele>
        <time>2016-10-30T11:29:28.000Z</time>
      </trkpt>
      <trkpt lat="47.50235" lon="6.86442">
        <ele>345</ele>
        <time>2016-10-30T11:29:29.000Z</time>
      </trkpt>
      <trkpt lat="47.50232" lon="6.86446">
        <ele>345</ele>
        <time>2016-10-30T11:29:30.000Z</time>
      </trkpt>
      <trkpt lat="47.5023" lon="6.86449">
        <ele>346</ele>
        <time>2016-10-30T11:29:31.000Z</time>
      </trkpt>
      <trkpt lat="47.50227" lon="6.86452">
        <ele>346</ele>
        <time>2016-10-30T11:29:32.000Z</time>
      </trkpt>
      <trkpt lat="47.50224" lon="6.86455">
        <ele>346</ele>
        <time>2016-10-30T11:29:33.000Z</time>
      </trkpt>
      <trkpt lat="47.50221" lon="6.86458">
        <ele>346</ele>
        <time>2016-10-30T11:29:34.000Z</time>
      </trkpt>
      <trkpt lat="47.50219" lon="6.86461">
        <ele>346</ele>
        <time>2016-10-30T11:29:35.000Z</time>
      </trkpt>
      <trkpt lat="47.50215" lon="6.86465">
        <ele>346</ele>
        <time>2016-10-30T11:29:36.000Z</time>
      </trkpt>
      <trkpt lat="47.50212" lon="6.86467">
        <ele>346</ele>
        <time>2016-10-30T11:29:37.000Z</time>
      </trkpt>
      <trkpt lat="47.50208" lon="6.8647">
        <ele>346</ele>
        <time>2016-10-30T11:29:38.000Z</time>
      </trkpt>
      <trkpt lat="47.50205" lon="6.86473">
        <ele>346</ele>
        <time>2016-10-30T11:29:39.000Z</time>
      </trkpt>
      <trkpt lat="47.50201" lon="6.86476">
        <ele>346</ele>
        <time>2016-10-30T11:29:40.000Z</time>
      </trkpt>
      <trkpt lat="47.50197" lon="6.86479">
        <ele>346</ele>
        <time>2016-10-30T11:29:41.000Z</time>
      </trkpt>
      <trkpt lat="47.50194" lon="6.86482">
        <ele>345</ele>
        <time>2016-10-30T11:29:42.000Z</time>
      </trkpt>
      <trkpt lat="47.5019" lon="6.86485">
        <ele>345</ele>
        <time>2016-10-30T11:29:43.000Z</time>
      </trkpt>
      <trkpt lat="47.50187" lon="6.86488">
        <ele>345</ele>
        <time>2016-10-30T11:29:44.000Z</time>
      </trkpt>
      <trkpt lat="47.50184" lon="6.86491">
        <ele>345</ele>
        <time>2016-10-30T11:29:45.000Z</time>
      </trkpt>
      <trkpt lat="47.50181" lon="6.86495">
        <ele>344</ele>
        <time>2016-10-30T11:29:46.000Z</time>
      </trkpt>
      <trkpt lat="47.50178" lon="6.86499">
        <ele>344</ele>
        <time>2016-10-30T11:29:47.000Z</time>
      </trkpt>
      <trkpt lat="47.50175" lon="6.86503">
        <ele>346</ele>
        <time>2016-10-30T11:29:48.000Z</time>
      </trkpt>
      <trkpt lat="47.50172" lon="6.86508">
        <ele>347</ele>
        <time>2016-10-30T11:29:49.000Z</time>
      </trkpt>
      <trkpt lat="47.50168" lon="6.86516">
        <ele>348</ele>
        <time>2016-10-30T11:29:50.000Z</time>
      </trkpt>
      <trkpt lat="47.50166" lon="6.86522">
        <ele>344</ele>
        <time>2016-10-30T11:29:51.000Z</time>
      </trkpt>
      <trkpt lat="47.50163" lon="6.86528">
        <ele>345</ele>
        <time>2016-10-30T11:29:52.000Z</time>
      </trkpt>
      <trkpt lat="47.50161" lon="6.86533">
        <ele>345</ele>
        <time>2016-10-30T11:29:53.000Z</time>
      </trkpt>
      <trkpt lat="47.50158" lon="6.86539">
        <ele>345</ele>
        <time>2016-10-30T11:29:54.000Z</time>
      </trkpt>
      <trkpt lat="47.50156" lon="6.86546">
        <ele>346</ele>
        <time>2016-10-30T11:29:55.000Z</time>
      </trkpt>
      <trkpt lat="47.50153" lon="6.86552">
        <ele>346</ele>
        <time>2016-10-30T11:29:56.000Z</time>
      </trkpt>
      <trkpt lat="47.50151" lon="6.86559">
        <ele>346</ele>
        <time>2016-10-30T11:29:57.000Z</time>
      </trkpt>
      <trkpt lat="47.50148" lon="6.86565">
        <ele>347</ele>
        <time>2016-10-30T11:29:58.000Z</time>
      </trkpt>
      <trkpt lat="47.50145" lon="6.86571">
        <ele>347</ele>
        <time>2016-10-30T11:29:59.000Z</time>
      </trkpt>
      <trkpt lat="47.50142" lon="6.86576">
        <ele>347</ele>
        <time>2016-10-30T11:30:00.000Z</time>
      </trkpt>
      <trkpt lat="47.50139" lon="6.86583">
        <ele>347</ele>
        <time>2016-10-30T11:30:01.000Z</time>
      </trkpt>
      <trkpt lat="47.50137" lon="6.8659">
        <ele>349</ele>
        <time>2016-10-30T11:30:02.000Z</time>
      </trkpt>
      <trkpt lat="47.50134" lon="6.86597">
        <ele>349</ele>
        <time>2016-10-30T11:30:03.000Z</time>
      </trkpt>
      <trkpt lat="47.50131" lon="6.86604">
        <ele>349</ele>
        <time>2016-10-30T11:30:04.000Z</time>
      </trkpt>
      <trkpt lat="47.50127" lon="6.8661">
        <ele>349</ele>
        <time>2016-10-30T11:30:05.000Z</time>
      </trkpt>
      <trkpt lat="47.50124" lon="6.86616">
        <ele>348</ele>
        <time>2016-10-30T11:30:06.000Z</time>
      </trkpt>
      <trkpt lat="47.50121" lon="6.86623">
        <ele>348</ele>
        <time>2016-10-30T11:30:07.000Z</time>
      </trkpt>
      <trkpt lat="47.50117" lon="6.8663">
        <ele>348</ele>
        <time>2016-10-30T11:30:08.000Z</time>
      </trkpt>
      <trkpt lat="47.50114" lon="6.86636">
        <ele>348</ele>
        <time>2016-10-30T11:30:09.000Z</time>
      </trkpt>
      <trkpt lat="47.5011" lon="6.86642">
        <ele>348</ele>
        <time>2016-10-30T11:30:10.000Z</time>
      </trkpt>
      <trkpt lat="47.50106" lon="6.86649">
        <ele>348</ele>
        <time>2016-10-30T11:30:11.000Z</time>
      </trkpt>
      <trkpt lat="47.50103" lon="6.86655">
        <ele>347</ele>
        <time>2016-10-30T11:30:12.000Z</time>
      </trkpt>
      <trkpt lat="47.50099" lon="6.86661">
        <ele>347</ele>
        <time>2016-10-30T11:30:13.000Z</time>
      </trkpt>
      <trkpt lat="47.50095" lon="6.86668">
        <ele>348</ele>
        <time>2016-10-30T11:30:14.000Z</time>
      </trkpt>
      <trkpt lat="47.50092" lon="6.86673">
        <ele>347</ele>
        <time>2016-10-30T11:30:15.000Z</time>
      </trkpt>
      <trkpt lat="47.50088" lon="6.86679">
        <ele>348</ele>
        <time>2016-10-30T11:30:16.000Z</time>
      </trkpt>
      <trkpt lat="47.50085" lon="6.86685">
        <ele>349</ele>
        <time>2016-10-30T11:30:17.000Z</time>
      </trkpt>
      <trkpt lat="47.50081" lon="6.86691">
        <ele>345</ele>
        <time>2016-10-30T11:30:18.000Z</time>
      </trkpt>
      <trkpt lat="47.50077" lon="6.86698">
        <ele>346</ele>
        <time>2016-10-30T11:30:19.000Z</time>
      </trkpt>
      <trkpt lat="47.50073" lon="6.86704">
        <ele>346</ele>
        <time>2016-10-30T11:30:20.000Z</time>
      </trkpt>
      <trkpt lat="47.5007" lon="6.86711">
        <ele>346</ele>
        <time>2016-10-30T11:30:21.000Z</time>
      </trkpt>
      <trkpt lat="47.50067" lon="6.86717">
        <ele>346</ele>
        <time>2016-10-30T11:30:22.000Z</time>
      </trkpt>
      <trkpt lat="47.50063" lon="6.86724">
        <ele>346</ele>
        <time>2016-10-30T11:30:23.000Z</time>
      </trkpt>
      <trkpt lat="47.50059" lon="6.8673">
        <ele>346</ele>
        <time>2016-10-30T11:30:24.000Z</time>
      </trkpt>
      <trkpt lat="47.50056" lon="6.86736">
        <ele>346</ele>
        <time>2016-10-30T11:30:25.000Z</time>
      </trkpt>
      <trkpt lat="47.50053" lon="6.86745">
        <ele>346</ele>
        <time>2016-10-30T11:30:26.000Z</time>
      </trkpt>
      <trkpt lat="47.5005" lon="6.86752">
        <ele>349</ele>
        <time>2016-10-30T11:30:27.000Z</time>
      </trkpt>
      <trkpt lat="47.50047" lon="6.86759">
        <ele>349</ele>
        <time>2016-10-30T11:30:28.000Z</time>
      </trkpt>
      <trkpt lat="47.50044" lon="6.86765">
        <ele>349</ele>
        <time>2016-10-30T11:30:29.000Z</time>
      </trkpt>
      <trkpt lat="47.5004" lon="6.86772">
        <ele>349</ele>
        <time>2016-10-30T11:30:30.000Z</time>
      </trkpt>
      <trkpt lat="47.50037" lon="6.86779">
        <ele>349</ele>
        <time>2016-10-30T11:30:31.000Z</time>
      </trkpt>
      <trkpt lat="47.50034" lon="6.86785">
        <ele>349</ele>
        <time>2016-10-30T11:30:32.000Z</time>
      </trkpt>
      <trkpt lat="47.50031" lon="6.86792">
        <ele>349</ele>
        <time>2016-10-30T11:30:33.000Z</time>
      </trkpt>
      <trkpt lat="47.50028" lon="6.86798">
        <ele>349</ele>
        <time>2016-10-30T11:30:34.000Z</time>
      </trkpt>
      <trkpt lat="47.50025" lon="6.86805">
        <ele>350</ele>
        <time>2016-10-30T11:30:35.000Z</time>
      </trkpt>
      <trkpt lat="47.50022" lon="6.86811">
        <ele>350</ele>
        <time>2016-10-30T11:30:36.000Z</time>
      </trkpt>
      <trkpt lat="47.50019" lon="6.86817">
        <ele>350</ele>
        <time>2016-10-30T11:30:37.000Z</time>
      </trkpt>
      <trkpt lat="47.50016" lon="6.86823">
        <ele>350</ele>
        <time>2016-10-30T11:30:38.000Z</time>
      </trkpt>
      <trkpt lat="47.50013" lon="6.86827">
        <ele>349</ele>
        <time>2016-10-30T11:30:39.000Z</time>
      </trkpt>
      <trkpt lat="47.5001" lon="6.86831">
        <ele>349</ele>
        <time>2016-10-30T11:30:40.000Z</time>
      </trkpt>
      <trkpt lat="47.50007" lon="6.86837">
        <ele>352</ele>
        <time>2016-10-30T11:30:41.000Z</time>
      </trkpt>
      <trkpt lat="47.50004" lon="6.86843">
        <ele>352</ele>
        <time>2016-10-30T11:30:42.000Z</time>
      </trkpt>
      <trkpt lat="47.50002" lon="6.86848">
        <ele>353</ele>
        <time>2016-10-30T11:30:43.000Z</time>
      </trkpt>
      <trkpt lat="47.5" lon="6.86853">
        <ele>351</ele>
        <time>2016-10-30T11:30:44.000Z</time>
      </trkpt>
      <trkpt lat="47.49997" lon="6.86858">
        <ele>352</ele>
        <time>2016-10-30T11:30:45.000Z</time>
      </trkpt>
      <trkpt lat="47.49993" lon="6.86862">
        <ele>352</ele>
        <time>2016-10-30T11:30:46.000Z</time>
      </trkpt>
      <trkpt lat="47.49991" lon="6.86866">
        <ele>353</ele>
        <time>2016-10-30T11:30:47.000Z</time>
      </trkpt>
      <trkpt lat="47.49987" lon="6.86871">
        <ele>353</ele>
        <time>2016-10-30T11:30:48.000Z</time>
      </trkpt>
      <trkpt lat="47.49984" lon="6.86875">
        <ele>353</ele>
        <time>2016-10-30T11:30:49.000Z</time>
      </trkpt>
      <trkpt lat="47.49981" lon="6.86879">
        <ele>353</ele>
        <time>2016-10-30T11:30:50.000Z</time>
      </trkpt>
      <trkpt lat="47.49978" lon="6.86884">
        <ele>354</ele>
        <time>2016-10-30T11:30:51.000Z</time>
      </trkpt>
      <trkpt lat="47.49975" lon="6.86889">
        <ele>354</ele>
        <time>2016-10-30T11:30:52.000Z</time>
      </trkpt>
      <trkpt lat="47.49972" lon="6.86893">
        <ele>354</ele>
        <time>2016-10-30T11:30:53.000Z</time>
      </trkpt>
      <trkpt lat="47.49969" lon="6.86897">
        <ele>354</ele>
        <time>2016-10-30T11:30:54.000Z</time>
      </trkpt>
      <trkpt lat="47.49966" lon="6.86902">
        <ele>354</ele>
        <time>2016-10-30T11:30:55.000Z</time>
      </trkpt>
      <trkpt lat="47.49962" lon="6.86905">
        <ele>354</ele>
        <time>2016-10-30T11:30:56.000Z</time>
      </trkpt>
      <trkpt lat="47.4996" lon="6.8691">
        <ele>354</ele>
        <time>2016-10-30T11:30:57.000Z</time>
      </trkpt>
      <trkpt lat="47.49956" lon="6.86914">
        <ele>354</ele>
        <time>2016-10-30T11:30:58.000Z</time>
      </trkpt>
      <trkpt lat="47.49953" lon="6.86918">
        <ele>360</ele>
        <time>2016-10-30T11:30:59.000Z</time>
      </trkpt>
      <trkpt lat="47.49948" lon="6.86923">
        <ele>359</ele>
        <time>2016-10-30T11:31:00.000Z</time>
      </trkpt>
      <trkpt lat="47.49945" lon="6.86927">
        <ele>359</ele>
        <time>2016-10-30T11:31:01.000Z</time>
      </trkpt>
      <trkpt lat="47.49941" lon="6.8693">
        <ele>359</ele>
        <time>2016-10-30T11:31:02.000Z</time>
      </trkpt>
      <trkpt lat="47.49938" lon="6.86934">
        <ele>359</ele>
        <time>2016-10-30T11:31:03.000Z</time>
      </trkpt>
      <trkpt lat="47.49934" lon="6.86937">
        <ele>359</ele>
        <time>2016-10-30T11:31:04.000Z</time>
      </trkpt>
      <trkpt lat="47.49929" lon="6.86939">
        <ele>359</ele>
        <time>2016-10-30T11:31:05.000Z</time>
      </trkpt>
      <trkpt lat="47.49926" lon="6.86943">
        <ele>359</ele>
        <time>2016-10-30T11:31:06.000Z</time>
      </trkpt>
      <trkpt lat="47.49923" lon="6.86946">
        <ele>359</ele>
        <time>2016-10-30T11:31:07.000Z</time>
      </trkpt>
      <trkpt lat="47.4992" lon="6.86949">
        <ele>360</ele>
        <time>2016-10-30T11:31:08.000Z</time>
      </trkpt>
      <trkpt lat="47.49916" lon="6.86953">
        <ele>358</ele>
        <time>2016-10-30T11:31:09.000Z</time>
      </trkpt>
      <trkpt lat="47.49913" lon="6.86957">
        <ele>358</ele>
        <time>2016-10-30T11:31:10.000Z</time>
      </trkpt>
      <trkpt lat="47.49909" lon="6.86961">
        <ele>359</ele>
        <time>2016-10-30T11:31:11.000Z</time>
      </trkpt>
      <trkpt lat="47.49906" lon="6.86964">
        <ele>359</ele>
        <time>2016-10-30T11:31:12.000Z</time>
      </trkpt>
      <trkpt lat="47.49904" lon="6.86968">
        <ele>359</ele>
        <time>2016-10-30T11:31:13.000Z</time>
      </trkpt>
      <trkpt lat="47.49901" lon="6.86972">
        <ele>360</ele>
        <time>2016-10-30T11:31:14.000Z</time>
      </trkpt>
      <trkpt lat="47.49898" lon="6.86975">
        <ele>360</ele>
        <time>2016-10-30T11:31:15.000Z</time>
      </trkpt>
      <trkpt lat="47.49895" lon="6.86978">
        <ele>360</ele>
        <time>2016-10-30T11:31:16.000Z</time>
      </trkpt>
      <trkpt lat="47.49892" lon="6.8698">
        <ele>360</ele>
        <time>2016-10-30T11:31:17.000Z</time>
      </trkpt>
      <trkpt lat="47.49889" lon="6.86982">
        <ele>360</ele>
        <time>2016-10-30T11:31:18.000Z</time>
      </trkpt>
      <trkpt lat="47.49886" lon="6.86982">
        <ele>360</ele>
        <time>2016-10-30T11:31:19.000Z</time>
      </trkpt>
      <trkpt lat="47.49883" lon="6.8698">
        <ele>360</ele>
        <time>2016-10-30T11:31:20.000Z</time>
      </trkpt>
      <trkpt lat="47.4988" lon="6.86978">
        <ele>359</ele>
        <time>2016-10-30T11:31:21.000Z</time>
      </trkpt>
      <trkpt lat="47.49878" lon="6.86975">
        <ele>359</ele>
        <time>2016-10-30T11:31:22.000Z</time>
      </trkpt>
      <trkpt lat="47.49876" lon="6.86971">
        <ele>359</ele>
        <time>2016-10-30T11:31:23.000Z</time>
      </trkpt>
      <trkpt lat="47.49874" lon="6.86968">
        <ele>359</ele>
        <time>2016-10-30T11:31:24.000Z</time>
      </trkpt>
      <trkpt lat="47.49872" lon="6.86965">
        <ele>359</ele>
        <time>2016-10-30T11:31:25.000Z</time>
      </trkpt>
      <trkpt lat="47.49868" lon="6.86964">
        <ele>359</ele>
        <time>2016-10-30T11:32:11.000Z</time>
      </trkpt>
      <trkpt lat="47.49868" lon="6.86964">
        <ele>359</ele>
        <time>2016-10-30T11:32:12.000Z</time>
      </trkpt>
      <trkpt lat="47.49864" lon="6.8696">
        <ele>359</ele>
        <time>2016-10-30T11:33:29.000Z</time>
      </trkpt>
      <trkpt lat="47.49864" lon="6.86959">
        <ele>359</ele>
        <time>2016-10-30T11:33:30.000Z</time>
      </trkpt>
      <trkpt lat="47.49867" lon="6.86965">
        <ele>359</ele>
        <time>2016-10-30T11:34:11.000Z</time>
      </trkpt>
      <trkpt lat="47.49867" lon="6.86965">
        <ele>359</ele>
        <time>2016-10-30T11:34:12.000Z</time>
      </trkpt>
      <trkpt lat="47.49869" lon="6.86971">
        <ele>359</ele>
        <time>2016-10-30T11:38:17.000Z</time>
      </trkpt>
      <trkpt lat="47.49869" lon="6.86973">
        <ele>359</ele>
        <time>2016-10-30T11:38:18.000Z</time>
      </trkpt>
      <trkpt lat="47.49872" lon="6.86975">
        <ele>359</ele>
        <time>2016-10-30T11:38:21.000Z</time>
      </trkpt>
      <trkpt lat="47.49874" lon="6.86974">
        <ele>359</ele>
        <time>2016-10-30T11:38:22.000Z</time>
      </trkpt>
      <trkpt lat="47.49878" lon="6.86973">
        <ele>359</ele>
        <time>2016-10-30T11:38:23.000Z</time>
      </trkpt>
      <trkpt lat="47.49882" lon="6.8697">
        <ele>359</ele>
        <time>2016-10-30T11:38:24.000Z</time>
      </trkpt>
      <trkpt lat="47.49886" lon="6.86967">
        <ele>359</ele>
        <time>2016-10-30T11:38:25.000Z</time>
      </trkpt>
      <trkpt lat="47.49891" lon="6.86962">
        <ele>359</ele>
        <time>2016-10-30T11:38:26.000Z</time>
      </trkpt>
      <trkpt lat="47.49909" lon="6.86947">
        <ele>357</ele>
        <time>2016-10-30T11:38:27.000Z</time>
      </trkpt>
      <trkpt lat="47.49917" lon="6.86942">
        <ele>358</ele>
        <time>2016-10-30T11:38:28.000Z</time>
      </trkpt>
      <trkpt lat="47.49924" lon="6.86931">
        <ele>356</ele>
        <time>2016-10-30T11:38:29.000Z</time>
      </trkpt>
      <trkpt lat="47.49931" lon="6.86925">
        <ele>357</ele>
        <time>2016-10-30T11:38:30.000Z</time>
      </trkpt>
      <trkpt lat="47.49939" lon="6.86915">
        <ele>352</ele>
        <time>2016-10-30T11:38:31.000Z</time>
      </trkpt>
      <trkpt lat="47.49947" lon="6.86906">
        <ele>353</ele>
        <time>2016-10-30T11:38:32.000Z</time>
      </trkpt>
      <trkpt lat="47.49953" lon="6.86898">
        <ele>353</ele>
        <time>2016-10-30T11:38:33.000Z</time>
      </trkpt>
      <trkpt lat="47.49961" lon="6.86887">
        <ele>353</ele>
        <time>2016-10-30T11:38:34.000Z</time>
      </trkpt>
      <trkpt lat="47.4997" lon="6.8688">
        <ele>353</ele>
        <time>2016-10-30T11:38:35.000Z</time>
      </trkpt>
      <trkpt lat="47.49981" lon="6.8687">
        <ele>353</ele>
        <time>2016-10-30T11:38:36.000Z</time>
      </trkpt>
      <trkpt lat="47.49988" lon="6.86858">
        <ele>352</ele>
        <time>2016-10-30T11:38:37.000Z</time>
      </trkpt>
      <trkpt lat="47.49995" lon="6.86846">
        <ele>351</ele>
        <time>2016-10-30T11:38:38.000Z</time>
      </trkpt>
      <trkpt lat="47.50002" lon="6.86833">
        <ele>349</ele>
        <time>2016-10-30T11:38:39.000Z</time>
      </trkpt>
      <trkpt lat="47.50005" lon="6.86815">
        <ele>349</ele>
        <time>2016-10-30T11:38:40.000Z</time>
      </trkpt>
      <trkpt lat="47.50015" lon="6.86801">
        <ele>349</ele>
        <time>2016-10-30T11:38:41.000Z</time>
      </trkpt>
      <trkpt lat="47.50028" lon="6.86785">
        <ele>349</ele>
        <time>2016-10-30T11:38:42.000Z</time>
      </trkpt>
      <trkpt lat="47.50036" lon="6.86773">
        <ele>349</ele>
        <time>2016-10-30T11:38:43.000Z</time>
      </trkpt>
      <trkpt lat="47.50038" lon="6.86757">
        <ele>348</ele>
        <time>2016-10-30T11:38:44.000Z</time>
      </trkpt>
      <trkpt lat="47.50046" lon="6.86746">
        <ele>346</ele>
        <time>2016-10-30T11:38:45.000Z</time>
      </trkpt>
      <trkpt lat="47.50052" lon="6.86733">
        <ele>346</ele>
        <time>2016-10-30T11:38:46.000Z</time>
      </trkpt>
      <trkpt lat="47.50059" lon="6.86717">
        <ele>346</ele>
        <time>2016-10-30T11:38:47.000Z</time>
      </trkpt>
      <trkpt lat="47.50067" lon="6.86706">
        <ele>346</ele>
        <time>2016-10-30T11:38:48.000Z</time>
      </trkpt>
      <trkpt lat="47.50075" lon="6.86693">
        <ele>345</ele>
        <time>2016-10-30T11:38:49.000Z</time>
      </trkpt>
      <trkpt lat="47.50082" lon="6.86681">
        <ele>345</ele>
        <time>2016-10-30T11:38:50.000Z</time>
      </trkpt>
      <trkpt lat="47.5009" lon="6.86669">
        <ele>346</ele>
        <time>2016-10-30T11:38:51.000Z</time>
      </trkpt>
      <trkpt lat="47.50097" lon="6.86658">
        <ele>346</ele>
        <time>2016-10-30T11:38:52.000Z</time>
      </trkpt>
      <trkpt lat="47.50103" lon="6.86646">
        <ele>347</ele>
        <time>2016-10-30T11:38:53.000Z</time>
      </trkpt>
      <trkpt lat="47.50111" lon="6.86634">
        <ele>348</ele>
        <time>2016-10-30T11:38:54.000Z</time>
      </trkpt>
      <trkpt lat="47.50119" lon="6.86622">
        <ele>348</ele>
        <time>2016-10-30T11:38:55.000Z</time>
      </trkpt>
      <trkpt lat="47.50127" lon="6.8661">
        <ele>348</ele>
        <time>2016-10-30T11:38:56.000Z</time>
      </trkpt>
      <trkpt lat="47.50131" lon="6.866">
        <ele>349</ele>
        <time>2016-10-30T11:38:57.000Z</time>
      </trkpt>
      <trkpt lat="47.50136" lon="6.86589">
        <ele>349</ele>
        <time>2016-10-30T11:38:58.000Z</time>
      </trkpt>
      <trkpt lat="47.50139" lon="6.86581">
        <ele>347</ele>
        <time>2016-10-30T11:38:59.000Z</time>
      </trkpt>
      <trkpt lat="47.50146" lon="6.86573">
        <ele>347</ele>
        <time>2016-10-30T11:39:00.000Z</time>
      </trkpt>
      <trkpt lat="47.5015" lon="6.86566">
        <ele>347</ele>
        <time>2016-10-30T11:39:01.000Z</time>
      </trkpt>
      <trkpt lat="47.50153" lon="6.86558">
        <ele>346</ele>
        <time>2016-10-30T11:39:02.000Z</time>
      </trkpt>
      <trkpt lat="47.50158" lon="6.86549">
        <ele>346</ele>
        <time>2016-10-30T11:39:03.000Z</time>
      </trkpt>
      <trkpt lat="47.50162" lon="6.8654">
        <ele>345</ele>
        <time>2016-10-30T11:39:04.000Z</time>
      </trkpt>
      <trkpt lat="47.50167" lon="6.86529">
        <ele>345</ele>
        <time>2016-10-30T11:39:05.000Z</time>
      </trkpt>
      <trkpt lat="47.50172" lon="6.86518">
        <ele>349</ele>
        <time>2016-10-30T11:39:06.000Z</time>
      </trkpt>
      <trkpt lat="47.50178" lon="6.86507">
        <ele>348</ele>
        <time>2016-10-30T11:39:07.000Z</time>
      </trkpt>
      <trkpt lat="47.50186" lon="6.86497">
        <ele>345</ele>
        <time>2016-10-30T11:39:08.000Z</time>
      </trkpt>
      <trkpt lat="47.50194" lon="6.86488">
        <ele>346</ele>
        <time>2016-10-30T11:39:09.000Z</time>
      </trkpt>
      <trkpt lat="47.50203" lon="6.86481">
        <ele>346</ele>
        <time>2016-10-30T11:39:10.000Z</time>
      </trkpt>
      <trkpt lat="47.5021" lon="6.86473">
        <ele>346</ele>
        <time>2016-10-30T11:39:11.000Z</time>
      </trkpt>
      <trkpt lat="47.50221" lon="6.86462">
        <ele>346</ele>
        <time>2016-10-30T11:39:12.000Z</time>
      </trkpt>
      <trkpt lat="47.50229" lon="6.86454">
        <ele>346</ele>
        <time>2016-10-30T11:39:13.000Z</time>
      </trkpt>
      <trkpt lat="47.50234" lon="6.86448">
        <ele>346</ele>
        <time>2016-10-30T11:39:14.000Z</time>
      </trkpt>
      <trkpt lat="47.50239" lon="6.86441">
        <ele>345</ele>
        <time>2016-10-30T11:39:15.000Z</time>
      </trkpt>
      <trkpt lat="47.50244" lon="6.86431">
        <ele>344</ele>
        <time>2016-10-30T11:39:16.000Z</time>
      </trkpt>
      <trkpt lat="47.50249" lon="6.86423">
        <ele>343</ele>
        <time>2016-10-30T11:39:17.000Z</time>
      </trkpt>
      <trkpt lat="47.50248" lon="6.86412">
        <ele>342</ele>
        <time>2016-10-30T11:39:18.000Z</time>
      </trkpt>
      <trkpt lat="47.50246" lon="6.86404">
        <ele>341</ele>
        <time>2016-10-30T11:39:19.000Z</time>
      </trkpt>
      <trkpt lat="47.50241" lon="6.86396">
        <ele>341</ele>
        <time>2016-10-30T11:39:20.000Z</time>
      </trkpt>
      <trkpt lat="47.50236" lon="6.86387">
        <ele>341</ele>
        <time>2016-10-30T11:39:21.000Z</time>
      </trkpt>
      <trkpt lat="47.50232" lon="6.86378">
        <ele>340</ele>
        <time>2016-10-30T11:39:22.000Z</time>
      </trkpt>
      <trkpt lat="47.50226" lon="6.86367">
        <ele>340</ele>
        <time>2016-10-30T11:39:23.000Z</time>
      </trkpt>
      <trkpt lat="47.5022" lon="6.86356">
        <ele>340</ele>
        <time>2016-10-30T11:39:24.000Z</time>
      </trkpt>
      <trkpt lat="47.50214" lon="6.86346">
        <ele>340</ele>
        <time>2016-10-30T11:39:25.000Z</time>
      </trkpt>
      <trkpt lat="47.50209" lon="6.86337">
        <ele>341</ele>
        <time>2016-10-30T11:39:26.000Z</time>
      </trkpt>
      <trkpt lat="47.50204" lon="6.86327">
        <ele>343</ele>
        <time>2016-10-30T11:39:27.000Z</time>
      </trkpt>
      <trkpt lat="47.50199" lon="6.86318">
        <ele>344</ele>
        <time>2016-10-30T11:39:28.001Z</time>
      </trkpt>
      <trkpt lat="47.50197" lon="6.86311">
        <ele>344</ele>
        <time>2016-10-30T11:39:29.000Z</time>
      </trkpt>
      <trkpt lat="47.50196" lon="6.86303">
        <ele>345</ele>
        <time>2016-10-30T11:39:30.000Z</time>
      </trkpt>
      <trkpt lat="47.50196" lon="6.86296">
        <ele>345</ele>
        <time>2016-10-30T11:39:31.000Z</time>
      </trkpt>
      <trkpt lat="47.502" lon="6.8629">
        <ele>345</ele>
        <time>2016-10-30T11:39:32.000Z</time>
      </trkpt>
      <trkpt lat="47.50204" lon="6.86285">
        <ele>345</ele>
        <time>2016-10-30T11:39:33.000Z</time>
      </trkpt>
      <trkpt lat="47.50209" lon="6.8628">
        <ele>345</ele>
        <time>2016-10-30T11:39:34.000Z</time>
      </trkpt>
    </trkseg>
  </trk>
</gpx>